<?xml version='1.0' encoding='UTF-8'?><gpx version="1.1" creator="JPX - https://github.com/jenetics/jpx" xmlns="http://www.topografix.com/GPX/1/1"><trk><trkseg><trkpt lat="42.34552941391373" lon="13.645474468089706"><ele>1230.0</ele><time>2026-05-03T12:16:18.999Z</time></trkpt><trkpt lat="42.345454597647745" lon="13.64549902248425"><ele>1230.0</ele><time>2026-05-03T12:16:22.999Z</time></trkpt><trkpt lat="42.34538056159223" lon="13.64548891818265"><ele>1230.0</ele><time>2026-05-03T12:16:26.999Z</time></trkpt><trkpt lat="42.34531288803916" lon="13.645490139453404"><ele>1230.0</ele><time>2026-05-03T12:16:29.999Z</time></trkpt><trkpt lat="42.345231032179925" lon="13.645485733005993"><ele>1230.0</ele><time>2026-05-03T12:16:32.999Z</time></trkpt><trkpt lat="42.34516848410313" lon="13.645470014427767"><ele>1230.0</ele><time>2026-05-03T12:16:34.999Z</time></trkpt><trkpt lat="42.34510545023855" lon="13.645459224223334"><ele>1230.0</ele><time>2026-05-03T12:16:36.999Z</time></trkpt><trkpt lat="42.34504021067506" lon="13.645449926829821"><ele>1230.0</ele><time>2026-05-03T12:16:38.999Z</time></trkpt><trkpt lat="42.34497331717219" lon="13.645452169942132"><ele>1230.0</ele><time>2026-05-03T12:16:40.999Z</time></trkpt><trkpt lat="42.34490415669996" lon="13.64546880195032"><ele>1230.0</ele><time>2026-05-03T12:16:42.999Z</time></trkpt><trkpt lat="42.34483991413674" lon="13.645457053188524"><ele>1230.0</ele><time>2026-05-03T12:16:45.999Z</time></trkpt><trkpt lat="42.34477423083523" lon="13.645410325332435"><ele>1230.0</ele><time>2026-05-03T12:16:51.999Z</time></trkpt><trkpt lat="42.34473298444855" lon="13.645336161228194"><ele>1230.0</ele><time>2026-05-03T12:16:53.999Z</time></trkpt><trkpt lat="42.344713358336236" lon="13.645241395728545"><ele>1230.0</ele><time>2026-05-03T12:16:55.999Z</time></trkpt><trkpt lat="42.34470099346286" lon="13.645107557819426"><ele>1229.8</ele><time>2026-05-03T12:16:57.999Z</time></trkpt><trkpt lat="42.344694815846765" lon="13.644974969740899"><ele>1229.6</ele><time>2026-05-03T12:16:59.999Z</time></trkpt><trkpt lat="42.344694199885296" lon="13.644837075921894"><ele>1229.4</ele><time>2026-05-03T12:17:01.999Z</time></trkpt><trkpt lat="42.34471264247089" lon="13.644676509707239"><ele>1229.2</ele><time>2026-05-03T12:17:03.998Z</time></trkpt><trkpt lat="42.34472817974977" lon="13.644511768321236"><ele>1229.0</ele><time>2026-05-03T12:17:05.998Z</time></trkpt><trkpt lat="42.34474235648737" lon="13.644358721717142"><ele>1229.0</ele><time>2026-05-03T12:17:07.998Z</time></trkpt><trkpt lat="42.344762431324426" lon="13.644191103217294"><ele>1229.0</ele><time>2026-05-03T12:17:09.998Z</time></trkpt><trkpt lat="42.3447721998552" lon="13.644095508902794"><ele>1229.0</ele><time>2026-05-03T12:17:10.999Z</time></trkpt><trkpt lat="42.34478531319254" lon="13.643918118411785"><ele>1229.0</ele><time>2026-05-03T12:17:11.999Z</time></trkpt><trkpt lat="42.34478848964985" lon="13.643805866992556"><ele>1229.0</ele><time>2026-05-03T12:17:12.999Z</time></trkpt><trkpt lat="42.3448469541758" lon="13.64370638777136"><ele>1230.2</ele><time>2026-05-03T12:17:13.999Z</time></trkpt><trkpt lat="42.344854674328495" lon="13.643599646321581"><ele>1231.4</ele><time>2026-05-03T12:17:14.999Z</time></trkpt><trkpt lat="42.34486212755171" lon="13.64347461771545"><ele>1232.6</ele><time>2026-05-03T12:17:15.999Z</time></trkpt><trkpt lat="42.344867452667266" lon="13.643341119862592"><ele>1233.8</ele><time>2026-05-03T12:17:16.999Z</time></trkpt><trkpt lat="42.34487344358768" lon="13.643205991307346"><ele>1235.0</ele><time>2026-05-03T12:17:17.999Z</time></trkpt><trkpt lat="42.344879798784014" lon="13.643058395718002"><ele>1235.0</ele><time>2026-05-03T12:17:18.999Z</time></trkpt><trkpt lat="42.34488165142054" lon="13.642926689679156"><ele>1235.0</ele><time>2026-05-03T12:17:19.999Z</time></trkpt><trkpt lat="42.344878787288636" lon="13.642787324070369"><ele>1235.0</ele><time>2026-05-03T12:17:20.999Z</time></trkpt><trkpt lat="42.34487181434417" lon="13.642643448928006"><ele>1235.0</ele><time>2026-05-03T12:17:21.999Z</time></trkpt><trkpt lat="42.3448636080002" lon="13.642498057308082"><ele>1235.0</ele><time>2026-05-03T12:17:22.999Z</time></trkpt><trkpt lat="42.34485691620734" lon="13.642348785200916"><ele>1235.25</ele><time>2026-05-03T12:17:23.999Z</time></trkpt><trkpt lat="42.3448566097842" lon="13.642202315961422"><ele>1235.5</ele><time>2026-05-03T12:17:24.999Z</time></trkpt><trkpt lat="42.34485991969157" lon="13.642046479942238"><ele>1235.75</ele><time>2026-05-03T12:17:25.999Z</time></trkpt><trkpt lat="42.34486164798387" lon="13.641873646318004"><ele>1236.0</ele><time>2026-05-03T12:17:26.999Z</time></trkpt><trkpt lat="42.344862724585546" lon="13.641713394044023"><ele>1236.0</ele><time>2026-05-03T12:17:27.999Z</time></trkpt><trkpt lat="42.344858257667134" lon="13.641559228049125"><ele>1236.0</ele><time>2026-05-03T12:17:28.999Z</time></trkpt><trkpt lat="42.34484299108378" lon="13.641412541408728"><ele>1236.0</ele><time>2026-05-03T12:17:29.999Z</time></trkpt><trkpt lat="42.34481590004007" lon="13.641267009453841"><ele>1236.0</ele><time>2026-05-03T12:17:30.999Z</time></trkpt><trkpt lat="42.34477773288746" lon="13.641118840920367"><ele>1235.3999999999999</ele><time>2026-05-03T12:17:31.999Z</time></trkpt><trkpt lat="42.34471349154221" lon="13.64098224756717"><ele>1234.8</ele><time>2026-05-03T12:17:32.999Z</time></trkpt><trkpt lat="42.344631845183365" lon="13.640876085119574"><ele>1234.1999999999998</ele><time>2026-05-03T12:17:33.999Z</time></trkpt><trkpt lat="42.34455253545002" lon="13.640787999231952"><ele>1233.6</ele><time>2026-05-03T12:17:34.999Z</time></trkpt><trkpt lat="42.34446791076514" lon="13.640712675893784"><ele>1233.0</ele><time>2026-05-03T12:17:35.999Z</time></trkpt><trkpt lat="42.34440131335305" lon="13.640627965964127"><ele>1234.6</ele><time>2026-05-03T12:17:36.999Z</time></trkpt><trkpt lat="42.3443410740674" lon="13.64052591413436"><ele>1236.1999999999998</ele><time>2026-05-03T12:17:37.999Z</time></trkpt><trkpt lat="42.34429095620979" lon="13.640407570593329"><ele>1237.8</ele><time>2026-05-03T12:17:38.999Z</time></trkpt><trkpt lat="42.34424368610058" lon="13.640280544748641"><ele>1239.3999999999999</ele><time>2026-05-03T12:17:39.999Z</time></trkpt><trkpt lat="42.34419623666234" lon="13.640149001800363"><ele>1241.0</ele><time>2026-05-03T12:17:40.999Z</time></trkpt><trkpt lat="42.344146998745785" lon="13.64001250064615"><ele>1243.75</ele><time>2026-05-03T12:17:41.999Z</time></trkpt><trkpt lat="42.344096215886125" lon="13.639875776269507"><ele>1246.5</ele><time>2026-05-03T12:17:42.999Z</time></trkpt><trkpt lat="42.34402208628157" lon="13.639752110171282"><ele>1249.25</ele><time>2026-05-03T12:17:43.999Z</time></trkpt><trkpt lat="42.343960531363734" lon="13.639622249578819"><ele>1252.0</ele><time>2026-05-03T12:17:44.999Z</time></trkpt><trkpt lat="42.343908508455655" lon="13.639492525237618"><ele>1249.75</ele><time>2026-05-03T12:17:45.999Z</time></trkpt><trkpt lat="42.343841608573626" lon="13.639370662353373"><ele>1247.5</ele><time>2026-05-03T12:17:46.999Z</time></trkpt><trkpt lat="42.343762576707434" lon="13.639267274154744"><ele>1245.25</ele><time>2026-05-03T12:17:47.999Z</time></trkpt><trkpt lat="42.34369493382356" lon="13.639144210231898"><ele>1243.0</ele><time>2026-05-03T12:17:48.999Z</time></trkpt><trkpt lat="42.34363287934137" lon="13.639013699514244"><ele>1243.0</ele><time>2026-05-03T12:17:49.999Z</time></trkpt><trkpt lat="42.343572997183884" lon="13.638900209651384"><ele>1243.0</ele><time>2026-05-03T12:17:50.999Z</time></trkpt><trkpt lat="42.34351024691054" lon="13.638786101532807"><ele>1243.0</ele><time>2026-05-03T12:17:51.999Z</time></trkpt><trkpt lat="42.34346268413423" lon="13.638678173968836"><ele>1243.0</ele><time>2026-05-03T12:17:52.999Z</time></trkpt><trkpt lat="42.34341872139898" lon="13.63855820717394"><ele>1243.0</ele><time>2026-05-03T12:17:53.999Z</time></trkpt><trkpt lat="42.343389777199995" lon="13.63841758914613"><ele>1244.75</ele><time>2026-05-03T12:17:54.999Z</time></trkpt><trkpt lat="42.34337234614112" lon="13.638266990589845"><ele>1246.5</ele><time>2026-05-03T12:17:55.999Z</time></trkpt><trkpt lat="42.34336811580933" lon="13.638110642792778"><ele>1248.25</ele><time>2026-05-03T12:17:56.999Z</time></trkpt><trkpt lat="42.34335719836001" lon="13.637950994215009"><ele>1250.0</ele><time>2026-05-03T12:17:57.999Z</time></trkpt><trkpt lat="42.34334579407474" lon="13.637783052400113"><ele>1252.25</ele><time>2026-05-03T12:17:58.999Z</time></trkpt><trkpt lat="42.34333261735422" lon="13.637615127907383"><ele>1254.5</ele><time>2026-05-03T12:17:59.999Z</time></trkpt><trkpt lat="42.34332121275902" lon="13.63744818592922"><ele>1256.75</ele><time>2026-05-03T12:18:00.999Z</time></trkpt><trkpt lat="42.34330825132141" lon="13.637291081978303"><ele>1259.0</ele><time>2026-05-03T12:18:01.999Z</time></trkpt><trkpt lat="42.34329687583945" lon="13.637139484849884"><ele>1259.0</ele><time>2026-05-03T12:18:02.999Z</time></trkpt><trkpt lat="42.343282641830875" lon="13.63699062754166"><ele>1259.0</ele><time>2026-05-03T12:18:03.999Z</time></trkpt><trkpt lat="42.343267411433914" lon="13.636845712394363"><ele>1259.0</ele><time>2026-05-03T12:18:04.999Z</time></trkpt><trkpt lat="42.34326600836694" lon="13.636704100692139"><ele>1259.0</ele><time>2026-05-03T12:18:05.999Z</time></trkpt><trkpt lat="42.343257411403926" lon="13.636567516051569"><ele>1259.0</ele><time>2026-05-03T12:18:06.999Z</time></trkpt><trkpt lat="42.34324363208688" lon="13.636444356923915"><ele>1260.4</ele><time>2026-05-03T12:18:07.999Z</time></trkpt><trkpt lat="42.343232168002075" lon="13.63632448285078"><ele>1261.8000000000002</ele><time>2026-05-03T12:18:08.999Z</time></trkpt><trkpt lat="42.3432318190747" lon="13.636188919987779"><ele>1263.1999999999998</ele><time>2026-05-03T12:18:09.999Z</time></trkpt><trkpt lat="42.34321913124175" lon="13.636039177290504"><ele>1264.6</ele><time>2026-05-03T12:18:10.999Z</time></trkpt><trkpt lat="42.34320361053831" lon="13.635872705574648"><ele>1266.0</ele><time>2026-05-03T12:18:11.999Z</time></trkpt><trkpt lat="42.34318884829892" lon="13.635702502025016"><ele>1268.75</ele><time>2026-05-03T12:18:12.999Z</time></trkpt><trkpt lat="42.343190046932165" lon="13.635518237214344"><ele>1271.5</ele><time>2026-05-03T12:18:13.999Z</time></trkpt><trkpt lat="42.343177980013294" lon="13.635339185813464"><ele>1274.25</ele><time>2026-05-03T12:18:14.999Z</time></trkpt><trkpt lat="42.34316223547515" lon="13.635154116180642"><ele>1277.0</ele><time>2026-05-03T12:18:15.999Z</time></trkpt><trkpt lat="42.34312911058405" lon="13.634966331325174"><ele>1278.0</ele><time>2026-05-03T12:18:16.999Z</time></trkpt><trkpt lat="42.3431080875727" lon="13.634773826775037"><ele>1279.0</ele><time>2026-05-03T12:18:17.999Z</time></trkpt><trkpt lat="42.34308530239453" lon="13.63458212690857"><ele>1280.0</ele><time>2026-05-03T12:18:18.999Z</time></trkpt><trkpt lat="42.34305952640049" lon="13.63438414313791"><ele>1281.0</ele><time>2026-05-03T12:18:19.999Z</time></trkpt><trkpt lat="42.34302665918468" lon="13.634181292010298"><ele>1271.0</ele><time>2026-05-03T12:18:20.999Z</time></trkpt><trkpt lat="42.34299458750805" lon="13.633976703441673"><ele>1261.0</ele><time>2026-05-03T12:18:21.999Z</time></trkpt><trkpt lat="42.34296231559932" lon="13.63375574101656"><ele>1251.0</ele><time>2026-05-03T12:18:22.999Z</time></trkpt><trkpt lat="42.342926423628086" lon="13.633518475969298"><ele>1251.0</ele><time>2026-05-03T12:18:23.999Z</time></trkpt><trkpt lat="42.34288073439443" lon="13.633274089208"><ele>1251.0</ele><time>2026-05-03T12:18:24.999Z</time></trkpt><trkpt lat="42.34280625804371" lon="13.633009048204476"><ele>1251.0</ele><time>2026-05-03T12:18:25.999Z</time></trkpt><trkpt lat="42.34271809625874" lon="13.632747785302513"><ele>1255.6666666666667</ele><time>2026-05-03T12:18:26.999Z</time></trkpt><trkpt lat="42.34263854373965" lon="13.632509516781846"><ele>1260.3333333333335</ele><time>2026-05-03T12:18:27.999Z</time></trkpt><trkpt lat="42.34256919692321" lon="13.632281064486826"><ele>1265.0</ele><time>2026-05-03T12:18:28.999Z</time></trkpt><trkpt lat="42.3425247681072" lon="13.632064260441341"><ele>1270.6666666666667</ele><time>2026-05-03T12:18:29.999Z</time></trkpt><trkpt lat="42.34246922403546" lon="13.631860949771534"><ele>1276.3333333333333</ele><time>2026-05-03T12:18:30.999Z</time></trkpt><trkpt lat="42.34241503449382" lon="13.631659836819429"><ele>1282.0</ele><time>2026-05-03T12:18:31.999Z</time></trkpt><trkpt lat="42.34236347248961" lon="13.631460214442772"><ele>1282.0</ele><time>2026-05-03T12:18:32.999Z</time></trkpt><trkpt lat="42.34231255594918" lon="13.63125647324198"><ele>1282.0</ele><time>2026-05-03T12:18:33.999Z</time></trkpt><trkpt lat="42.342263747585086" lon="13.6310500480804"><ele>1282.0</ele><time>2026-05-03T12:18:34.999Z</time></trkpt><trkpt lat="42.34221416648644" lon="13.630839754272913"><ele>1275.3333333333333</ele><time>2026-05-03T12:18:35.999Z</time></trkpt><trkpt lat="42.342164617381115" lon="13.630627872671377"><ele>1268.6666666666667</ele><time>2026-05-03T12:18:36.999Z</time></trkpt><trkpt lat="42.34211381741024" lon="13.630410642223262"><ele>1262.0</ele><time>2026-05-03T12:18:37.999Z</time></trkpt><trkpt lat="42.342060990018666" lon="13.630184742042903"><ele>1262.0</ele><time>2026-05-03T12:18:38.999Z</time></trkpt><trkpt lat="42.34200838994761" lon="13.629959814003639"><ele>1262.0</ele><time>2026-05-03T12:18:39.999Z</time></trkpt><trkpt lat="42.341955942567445" lon="13.62973553880005"><ele>1262.0</ele><time>2026-05-03T12:18:40.999Z</time></trkpt><trkpt lat="42.34190199649946" lon="13.629504855062839"><ele>1266.6666666666667</ele><time>2026-05-03T12:18:41.999Z</time></trkpt><trkpt lat="42.34184687326537" lon="13.62927051321179"><ele>1271.3333333333333</ele><time>2026-05-03T12:18:42.999Z</time></trkpt><trkpt lat="42.341790873733615" lon="13.629032687503917"><ele>1276.0</ele><time>2026-05-03T12:18:43.999Z</time></trkpt><trkpt lat="42.34173376382756" lon="13.628786981968657"><ele>1278.6666666666665</ele><time>2026-05-03T12:18:44.999Z</time></trkpt><trkpt lat="42.341677276545354" lon="13.628542408450265"><ele>1281.3333333333333</ele><time>2026-05-03T12:18:45.999Z</time></trkpt><trkpt lat="42.341622550168914" lon="13.628305459280506"><ele>1284.0</ele><time>2026-05-03T12:18:46.999Z</time></trkpt><trkpt lat="42.34156560724009" lon="13.628060221126338"><ele>1289.0</ele><time>2026-05-03T12:18:47.999Z</time></trkpt><trkpt lat="42.34150088509073" lon="13.627800975462335"><ele>1294.0</ele><time>2026-05-03T12:18:48.999Z</time></trkpt><trkpt lat="42.34143304559057" lon="13.627528751942686"><ele>1299.0</ele><time>2026-05-03T12:18:49.999Z</time></trkpt><trkpt lat="42.341360130025" lon="13.627238267975866"><ele>1289.0</ele><time>2026-05-03T12:18:50.999Z</time></trkpt><trkpt lat="42.341285961106266" lon="13.626949327395804"><ele>1279.0</ele><time>2026-05-03T12:18:51.999Z</time></trkpt><trkpt lat="42.341217032029114" lon="13.62668079963548"><ele>1269.0</ele><time>2026-05-03T12:18:52.999Z</time></trkpt><trkpt lat="42.34114996481343" lon="13.626420705723412"><ele>1269.0</ele><time>2026-05-03T12:18:53.999Z</time></trkpt><trkpt lat="42.341085674301844" lon="13.626172664065383"><ele>1269.0</ele><time>2026-05-03T12:18:54.999Z</time></trkpt><trkpt lat="42.341021157326814" lon="13.625924389874212"><ele>1269.0</ele><time>2026-05-03T12:18:55.999Z</time></trkpt><trkpt lat="42.34095548978818" lon="13.625678325016922"><ele>1273.3333333333333</ele><time>2026-05-03T12:18:56.999Z</time></trkpt><trkpt lat="42.34088829078013" lon="13.62543264941012"><ele>1277.6666666666665</ele><time>2026-05-03T12:18:57.999Z</time></trkpt><trkpt lat="42.34082029853715" lon="13.625188212168473"><ele>1282.0</ele><time>2026-05-03T12:18:58.999Z</time></trkpt><trkpt lat="42.34075320870987" lon="13.624947180680154"><ele>1284.6666666666665</ele><time>2026-05-03T12:18:59.999Z</time></trkpt><trkpt lat="42.34068195208216" lon="13.624699532272075"><ele>1287.3333333333333</ele><time>2026-05-03T12:19:00.999Z</time></trkpt><trkpt lat="42.34060757401271" lon="13.624463053270427"><ele>1290.0</ele><time>2026-05-03T12:19:01.999Z</time></trkpt><trkpt lat="42.34053419476436" lon="13.62423119256956"><ele>1290.0</ele><time>2026-05-03T12:19:02.999Z</time></trkpt><trkpt lat="42.34045857639562" lon="13.623993940035657"><ele>1290.0</ele><time>2026-05-03T12:19:03.999Z</time></trkpt><trkpt lat="42.340384589002674" lon="13.623761804730892"><ele>1290.0</ele><time>2026-05-03T12:19:04.999Z</time></trkpt><trkpt lat="42.340310999469814" lon="13.62352983094016"><ele>1291.6666666666667</ele><time>2026-05-03T12:19:05.999Z</time></trkpt><trkpt lat="42.34023614057679" lon="13.623295382437743"><ele>1293.3333333333335</ele><time>2026-05-03T12:19:06.999Z</time></trkpt><trkpt lat="42.34015673648559" lon="13.623064027411829"><ele>1295.0</ele><time>2026-05-03T12:19:07.999Z</time></trkpt><trkpt lat="42.34006376748497" lon="13.622844506220698"><ele>1293.3333333333335</ele><time>2026-05-03T12:19:08.999Z</time></trkpt><trkpt lat="42.33994611098135" lon="13.622655291453343"><ele>1291.6666666666667</ele><time>2026-05-03T12:19:09.999Z</time></trkpt><trkpt lat="42.339851612563216" lon="13.622445939294801"><ele>1290.0</ele><time>2026-05-03T12:19:10.999Z</time></trkpt><trkpt lat="42.33974432711383" lon="13.622250798451791"><ele>1290.0</ele><time>2026-05-03T12:19:11.998Z</time></trkpt><trkpt lat="42.33964262157357" lon="13.622061717069073"><ele>1290.0</ele><time>2026-05-03T12:19:12.998Z</time></trkpt><trkpt lat="42.33953901269602" lon="13.621881588561877"><ele>1290.0</ele><time>2026-05-03T12:19:13.998Z</time></trkpt><trkpt lat="42.33941576547519" lon="13.621722120105483"><ele>1290.0</ele><time>2026-05-03T12:19:14.998Z</time></trkpt><trkpt lat="42.33927707241381" lon="13.621589659803838"><ele>1290.0</ele><time>2026-05-03T12:19:15.998Z</time></trkpt><trkpt lat="42.33914120365149" lon="13.621452939174931"><ele>1290.0</ele><time>2026-05-03T12:19:16.999Z</time></trkpt><trkpt lat="42.3390390693741" lon="13.62130344687505"><ele>1288.6666666666667</ele><time>2026-05-03T12:19:17.999Z</time></trkpt><trkpt lat="42.33896599175071" lon="13.621116300949014"><ele>1287.3333333333335</ele><time>2026-05-03T12:19:18.999Z</time></trkpt><trkpt lat="42.338897577768094" lon="13.620907556456501"><ele>1286.0</ele><time>2026-05-03T12:19:19.999Z</time></trkpt><trkpt lat="42.33883189632935" lon="13.620693858690837"><ele>1292.0</ele><time>2026-05-03T12:19:20.999Z</time></trkpt><trkpt lat="42.33876574971743" lon="13.62047368374358"><ele>1298.0</ele><time>2026-05-03T12:19:21.999Z</time></trkpt><trkpt lat="42.33870020402986" lon="13.62025550899067"><ele>1304.0</ele><time>2026-05-03T12:19:22.999Z</time></trkpt><trkpt lat="42.33862460201773" lon="13.620051428541977"><ele>1304.0</ele><time>2026-05-03T12:19:23.999Z</time></trkpt><trkpt lat="42.338510434044785" lon="13.61987756956592"><ele>1304.0</ele><time>2026-05-03T12:19:24.999Z</time></trkpt><trkpt lat="42.338385693028926" lon="13.619702918487512"><ele>1304.0</ele><time>2026-05-03T12:19:25.999Z</time></trkpt><trkpt lat="42.338271818430584" lon="13.6195186725175"><ele>1302.0</ele><time>2026-05-03T12:19:26.999Z</time></trkpt><trkpt lat="42.338157041082034" lon="13.619364123451554"><ele>1300.0</ele><time>2026-05-03T12:19:27.999Z</time></trkpt><trkpt lat="42.33804749798106" lon="13.619205769414213"><ele>1298.0</ele><time>2026-05-03T12:19:28.999Z</time></trkpt><trkpt lat="42.33794261580811" lon="13.61904322942193"><ele>1296.25</ele><time>2026-05-03T12:19:29.999Z</time></trkpt><trkpt lat="42.33785120346507" lon="13.618883011476086"><ele>1294.5</ele><time>2026-05-03T12:19:30.999Z</time></trkpt><trkpt lat="42.33777802807634" lon="13.618718725868105"><ele>1292.75</ele><time>2026-05-03T12:19:31.999Z</time></trkpt><trkpt lat="42.33773352215008" lon="13.618536858597817"><ele>1291.0</ele><time>2026-05-03T12:19:32.999Z</time></trkpt><trkpt lat="42.33770636003488" lon="13.618319637838672"><ele>1291.0</ele><time>2026-05-03T12:19:33.999Z</time></trkpt><trkpt lat="42.3376808069756" lon="13.618070575480527"><ele>1291.0</ele><time>2026-05-03T12:19:34.999Z</time></trkpt><trkpt lat="42.33763851140975" lon="13.617820738547229"><ele>1291.0</ele><time>2026-05-03T12:19:35.999Z</time></trkpt><trkpt lat="42.33761609813536" lon="13.617572147452815"><ele>1291.3333333333333</ele><time>2026-05-03T12:19:36.999Z</time></trkpt><trkpt lat="42.33759358182966" lon="13.61733040889496"><ele>1291.6666666666667</ele><time>2026-05-03T12:19:37.999Z</time></trkpt><trkpt lat="42.33756986616265" lon="13.61708761897618"><ele>1292.0</ele><time>2026-05-03T12:19:38.999Z</time></trkpt><trkpt lat="42.33756971865591" lon="13.616861254008107"><ele>1291.0</ele><time>2026-05-03T12:19:39.999Z</time></trkpt><trkpt lat="42.33755546760214" lon="13.61664135912751"><ele>1290.0</ele><time>2026-05-03T12:19:40.999Z</time></trkpt><trkpt lat="42.337540626907185" lon="13.616428260682355"><ele>1289.0</ele><time>2026-05-03T12:19:41.999Z</time></trkpt><trkpt lat="42.33752448397956" lon="13.616221606145455"><ele>1289.75</ele><time>2026-05-03T12:19:42.999Z</time></trkpt><trkpt lat="42.33750197912578" lon="13.616026720833897"><ele>1290.5</ele><time>2026-05-03T12:19:43.999Z</time></trkpt><trkpt lat="42.33747675984146" lon="13.61585284728772"><ele>1291.25</ele><time>2026-05-03T12:19:44.999Z</time></trkpt><trkpt lat="42.33744859036692" lon="13.615694074616394"><ele>1292.0</ele><time>2026-05-03T12:19:45.999Z</time></trkpt><trkpt lat="42.3374000351926" lon="13.615551858957923"><ele>1292.0</ele><time>2026-05-03T12:19:46.999Z</time></trkpt><trkpt lat="42.33731626085563" lon="13.615448713427694"><ele>1292.0</ele><time>2026-05-03T12:19:47.999Z</time></trkpt><trkpt lat="42.33719940569156" lon="13.615402393090859"><ele>1292.0</ele><time>2026-05-03T12:19:48.999Z</time></trkpt><trkpt lat="42.33707208446934" lon="13.615427262956722"><ele>1292.0</ele><time>2026-05-03T12:19:49.999Z</time></trkpt><trkpt lat="42.336966308039095" lon="13.615503719362103"><ele>1290.0</ele><time>2026-05-03T12:19:50.999Z</time></trkpt><trkpt lat="42.33685080471145" lon="13.615583676851013"><ele>1288.0</ele><time>2026-05-03T12:19:51.999Z</time></trkpt><trkpt lat="42.336738581094934" lon="13.6156601187116"><ele>1286.0</ele><time>2026-05-03T12:19:52.999Z</time></trkpt><trkpt lat="42.33663121826685" lon="13.615716308489036"><ele>1284.0</ele><time>2026-05-03T12:19:53.999Z</time></trkpt><trkpt lat="42.33653438016734" lon="13.615755738648275"><ele>1284.0</ele><time>2026-05-03T12:19:54.999Z</time></trkpt><trkpt lat="42.33644307793442" lon="13.615762933371505"><ele>1284.0</ele><time>2026-05-03T12:19:55.999Z</time></trkpt><trkpt lat="42.336358550267974" lon="13.615717823540017"><ele>1284.0</ele><time>2026-05-03T12:19:56.999Z</time></trkpt><trkpt lat="42.33631274441622" lon="13.615613144153938"><ele>1284.0</ele><time>2026-05-03T12:19:57.999Z</time></trkpt><trkpt lat="42.3362836628865" lon="13.615498464145295"><ele>1284.0</ele><time>2026-05-03T12:19:58.999Z</time></trkpt><trkpt lat="42.33626203495678" lon="13.615353024608147"><ele>1282.75</ele><time>2026-05-03T12:19:59.999Z</time></trkpt><trkpt lat="42.336253170166714" lon="13.615174097501072"><ele>1281.5</ele><time>2026-05-03T12:20:00.999Z</time></trkpt><trkpt lat="42.336250839768006" lon="13.614990689257375"><ele>1280.25</ele><time>2026-05-03T12:20:01.999Z</time></trkpt><trkpt lat="42.33625188189369" lon="13.614817839858981"><ele>1279.0</ele><time>2026-05-03T12:20:02.999Z</time></trkpt><trkpt lat="42.33625440385839" lon="13.614651263612219"><ele>1279.0</ele><time>2026-05-03T12:20:03.999Z</time></trkpt><trkpt lat="42.33625190443775" lon="13.614500312751037"><ele>1279.0</ele><time>2026-05-03T12:20:04.999Z</time></trkpt><trkpt lat="42.33623776831771" lon="13.61436331314058"><ele>1279.0</ele><time>2026-05-03T12:20:05.999Z</time></trkpt><trkpt lat="42.33618391699845" lon="13.614229125747233"><ele>1279.0</ele><time>2026-05-03T12:20:06.999Z</time></trkpt><trkpt lat="42.33607848536151" lon="13.614136933780504"><ele>1281.25</ele><time>2026-05-03T12:20:07.999Z</time></trkpt><trkpt lat="42.335964116149334" lon="13.614126007075118"><ele>1283.5</ele><time>2026-05-03T12:20:08.999Z</time></trkpt><trkpt lat="42.33586504875649" lon="13.614182501828372"><ele>1285.75</ele><time>2026-05-03T12:20:09.999Z</time></trkpt><trkpt lat="42.33575764218798" lon="13.6142568178026"><ele>1288.0</ele><time>2026-05-03T12:20:10.999Z</time></trkpt><trkpt lat="42.3356306767431" lon="13.614378397036639"><ele>1286.3333333333333</ele><time>2026-05-03T12:20:11.999Z</time></trkpt><trkpt lat="42.335510421209726" lon="13.614543012786049"><ele>1284.6666666666667</ele><time>2026-05-03T12:20:12.999Z</time></trkpt><trkpt lat="42.33540446405183" lon="13.614710870479565"><ele>1283.0</ele><time>2026-05-03T12:20:13.999Z</time></trkpt><trkpt lat="42.33530403520619" lon="13.614866287524888"><ele>1283.0</ele><time>2026-05-03T12:20:14.999Z</time></trkpt><trkpt lat="42.335207179263875" lon="13.615011326221843"><ele>1283.0</ele><time>2026-05-03T12:20:15.999Z</time></trkpt><trkpt lat="42.33510757235285" lon="13.61514644370266"><ele>1283.0</ele><time>2026-05-03T12:20:16.999Z</time></trkpt><trkpt lat="42.33499462018534" lon="13.615253083910432"><ele>1283.0</ele><time>2026-05-03T12:20:17.999Z</time></trkpt><trkpt lat="42.334871645158934" lon="13.615330937519568"><ele>1282.2</ele><time>2026-05-03T12:20:18.999Z</time></trkpt><trkpt lat="42.33475967437902" lon="13.615381845189528"><ele>1281.4</ele><time>2026-05-03T12:20:19.999Z</time></trkpt><trkpt lat="42.3346481805448" lon="13.615421725519443"><ele>1280.6000000000001</ele><time>2026-05-03T12:20:20.999Z</time></trkpt><trkpt lat="42.334574611039585" lon="13.615400656741649"><ele>1279.8000000000002</ele><time>2026-05-03T12:20:21.999Z</time></trkpt><trkpt lat="42.33450194378557" lon="13.61536020788801"><ele>1279.0</ele><time>2026-05-03T12:20:22.999Z</time></trkpt><trkpt lat="42.33444527769291" lon="13.615276161067689"><ele>1276.75</ele><time>2026-05-03T12:20:23.999Z</time></trkpt><trkpt lat="42.33443729472048" lon="13.615169883846582"><ele>1274.5</ele><time>2026-05-03T12:20:24.999Z</time></trkpt><trkpt lat="42.33444840294604" lon="13.615032818005398"><ele>1272.25</ele><time>2026-05-03T12:20:25.999Z</time></trkpt><trkpt lat="42.33450584404782" lon="13.61488968558691"><ele>1270.0</ele><time>2026-05-03T12:20:26.999Z</time></trkpt><trkpt lat="42.33457444888942" lon="13.614694965821522"><ele>1270.0</ele><time>2026-05-03T12:20:27.999Z</time></trkpt><trkpt lat="42.33464568484593" lon="13.614492232258902"><ele>1270.0</ele><time>2026-05-03T12:20:28.999Z</time></trkpt><trkpt lat="42.3347131545021" lon="13.614298127606125"><ele>1270.0</ele><time>2026-05-03T12:20:29.999Z</time></trkpt><trkpt lat="42.33477457119352" lon="13.614115328785905"><ele>1272.0</ele><time>2026-05-03T12:20:30.999Z</time></trkpt><trkpt lat="42.334821339429425" lon="13.613918803089025"><ele>1274.0</ele><time>2026-05-03T12:20:31.999Z</time></trkpt><trkpt lat="42.33486647296209" lon="13.61373546649121"><ele>1276.0</ele><time>2026-05-03T12:20:32.999Z</time></trkpt><trkpt lat="42.33488648227182" lon="13.613559144452946"><ele>1278.0</ele><time>2026-05-03T12:20:33.999Z</time></trkpt><trkpt lat="42.33489132266839" lon="13.613402194304506"><ele>1278.0</ele><time>2026-05-03T12:20:34.999Z</time></trkpt><trkpt lat="42.33485897301433" lon="13.613271621314283"><ele>1278.0</ele><time>2026-05-03T12:20:35.999Z</time></trkpt><trkpt lat="42.33478307160488" lon="13.61317075192785"><ele>1278.0</ele><time>2026-05-03T12:20:36.999Z</time></trkpt><trkpt lat="42.33467115739869" lon="13.613090970297208"><ele>1278.0</ele><time>2026-05-03T12:20:37.999Z</time></trkpt><trkpt lat="42.33453916115266" lon="13.613061508773137"><ele>1272.5</ele><time>2026-05-03T12:20:38.999Z</time></trkpt><trkpt lat="42.33440884258833" lon="13.613050254523339"><ele>1267.0</ele><time>2026-05-03T12:20:39.999Z</time></trkpt><trkpt lat="42.33428587456178" lon="13.613024345571015"><ele>1261.5</ele><time>2026-05-03T12:20:40.999Z</time></trkpt><trkpt lat="42.33417213421176" lon="13.61295562075351"><ele>1256.0</ele><time>2026-05-03T12:20:41.999Z</time></trkpt><trkpt lat="42.334080965585834" lon="13.61282526565882"><ele>1259.75</ele><time>2026-05-03T12:20:42.999Z</time></trkpt><trkpt lat="42.33398006009245" lon="13.612706752041726"><ele>1263.5</ele><time>2026-05-03T12:20:43.999Z</time></trkpt><trkpt lat="42.33390014594153" lon="13.612574521740953"><ele>1267.25</ele><time>2026-05-03T12:20:44.999Z</time></trkpt><trkpt lat="42.333822457663814" lon="13.612430527567929"><ele>1271.0</ele><time>2026-05-03T12:20:45.999Z</time></trkpt><trkpt lat="42.333756609732625" lon="13.612275886108232"><ele>1264.25</ele><time>2026-05-03T12:20:46.999Z</time></trkpt><trkpt lat="42.33369826689342" lon="13.612112379631462"><ele>1257.5</ele><time>2026-05-03T12:20:47.999Z</time></trkpt><trkpt lat="42.3336520596787" lon="13.611950722453603"><ele>1250.75</ele><time>2026-05-03T12:20:48.999Z</time></trkpt><trkpt lat="42.3336286235342" lon="13.61177401310714"><ele>1244.0</ele><time>2026-05-03T12:20:49.999Z</time></trkpt><trkpt lat="42.333632110657604" lon="13.611586830992628"><ele>1244.0</ele><time>2026-05-03T12:20:50.999Z</time></trkpt><trkpt lat="42.333659605091526" lon="13.611399731414389"><ele>1244.0</ele><time>2026-05-03T12:20:51.999Z</time></trkpt><trkpt lat="42.333692820462744" lon="13.611207328870707"><ele>1244.0</ele><time>2026-05-03T12:20:52.999Z</time></trkpt><trkpt lat="42.33374333612341" lon="13.61100723458133"><ele>1244.0</ele><time>2026-05-03T12:20:53.999Z</time></trkpt><trkpt lat="42.33381394778455" lon="13.610800945619538"><ele>1245.0</ele><time>2026-05-03T12:20:54.999Z</time></trkpt><trkpt lat="42.333896077938775" lon="13.610589692103561"><ele>1246.0</ele><time>2026-05-03T12:20:55.999Z</time></trkpt><trkpt lat="42.33397137791947" lon="13.610371206527685"><ele>1247.0</ele><time>2026-05-03T12:20:56.999Z</time></trkpt><trkpt lat="42.33407523921125" lon="13.610176633985871"><ele>1247.0</ele><time>2026-05-03T12:20:57.999Z</time></trkpt><trkpt lat="42.334164545968896" lon="13.609968211215953"><ele>1247.0</ele><time>2026-05-03T12:20:58.999Z</time></trkpt><trkpt lat="42.33425604979914" lon="13.609761045640704"><ele>1247.0</ele><time>2026-05-03T12:20:59.999Z</time></trkpt><trkpt lat="42.33436209809131" lon="13.609558956422866"><ele>1241.0</ele><time>2026-05-03T12:21:00.999Z</time></trkpt><trkpt lat="42.33447910882252" lon="13.60934765956425"><ele>1235.0</ele><time>2026-05-03T12:21:01.999Z</time></trkpt><trkpt lat="42.33458749805087" lon="13.60912139531968"><ele>1229.0</ele><time>2026-05-03T12:21:02.999Z</time></trkpt><trkpt lat="42.33471177062469" lon="13.608904507229424"><ele>1230.3333333333335</ele><time>2026-05-03T12:21:03.999Z</time></trkpt><trkpt lat="42.33485270022928" lon="13.608698315146537"><ele>1231.6666666666667</ele><time>2026-05-03T12:21:04.999Z</time></trkpt><trkpt lat="42.33498107807961" lon="13.608480196636831"><ele>1233.0</ele><time>2026-05-03T12:21:05.999Z</time></trkpt><trkpt lat="42.33511106695259" lon="13.608262017515386"><ele>1233.0</ele><time>2026-05-03T12:21:06.999Z</time></trkpt><trkpt lat="42.33523959639258" lon="13.60805557067909"><ele>1233.0</ele><time>2026-05-03T12:21:07.999Z</time></trkpt><trkpt lat="42.335372345047915" lon="13.60785143463849"><ele>1233.0</ele><time>2026-05-03T12:21:08.999Z</time></trkpt><trkpt lat="42.33550403015995" lon="13.607649224020347"><ele>1235.6666666666667</ele><time>2026-05-03T12:21:09.999Z</time></trkpt><trkpt lat="42.335622859744625" lon="13.607435032675568"><ele>1238.3333333333335</ele><time>2026-05-03T12:21:10.999Z</time></trkpt><trkpt lat="42.33576580935288" lon="13.607255541068342"><ele>1241.0</ele><time>2026-05-03T12:21:11.999Z</time></trkpt><trkpt lat="42.33590068347062" lon="13.607065783326087"><ele>1234.0</ele><time>2026-05-03T12:21:12.999Z</time></trkpt><trkpt lat="42.33602766839208" lon="13.606863516082397"><ele>1227.0</ele><time>2026-05-03T12:21:13.999Z</time></trkpt><trkpt lat="42.33617058838238" lon="13.606681519029367"><ele>1220.0</ele><time>2026-05-03T12:21:14.999Z</time></trkpt><trkpt lat="42.33630406177364" lon="13.606493452433567"><ele>1220.3333333333335</ele><time>2026-05-03T12:21:15.999Z</time></trkpt><trkpt lat="42.336426119245644" lon="13.606294439858253"><ele>1220.6666666666667</ele><time>2026-05-03T12:21:16.999Z</time></trkpt><trkpt lat="42.33653292897522" lon="13.606089489057045"><ele>1221.0</ele><time>2026-05-03T12:21:17.999Z</time></trkpt><trkpt lat="42.33663779540426" lon="13.605892740370464"><ele>1221.0</ele><time>2026-05-03T12:21:18.999Z</time></trkpt><trkpt lat="42.3367363328435" lon="13.605704762994106"><ele>1221.0</ele><time>2026-05-03T12:21:19.999Z</time></trkpt><trkpt lat="42.336813877791684" lon="13.605493548531244"><ele>1221.0</ele><time>2026-05-03T12:21:20.999Z</time></trkpt><trkpt lat="42.336859257061064" lon="13.605254100416477"><ele>1218.3333333333333</ele><time>2026-05-03T12:21:21.999Z</time></trkpt><trkpt lat="42.33686373999026" lon="13.604997254829277"><ele>1215.6666666666665</ele><time>2026-05-03T12:21:22.999Z</time></trkpt><trkpt lat="42.336844806931836" lon="13.604727372310105"><ele>1213.0</ele><time>2026-05-03T12:21:23.999Z</time></trkpt><trkpt lat="42.336846808131526" lon="13.604440095456685"><ele>1211.6666666666665</ele><time>2026-05-03T12:21:24.999Z</time></trkpt><trkpt lat="42.33687061940128" lon="13.604188660233447"><ele>1210.3333333333333</ele><time>2026-05-03T12:21:25.999Z</time></trkpt><trkpt lat="42.33690627287234" lon="13.603956209096058"><ele>1209.0</ele><time>2026-05-03T12:21:26.999Z</time></trkpt><trkpt lat="42.3369411505272" lon="13.603735698349515"><ele>1208.25</ele><time>2026-05-03T12:21:27.999Z</time></trkpt><trkpt lat="42.33696212462592" lon="13.60352821838026"><ele>1207.5</ele><time>2026-05-03T12:21:28.999Z</time></trkpt><trkpt lat="42.33697925529919" lon="13.603338437624426"><ele>1206.75</ele><time>2026-05-03T12:21:29.999Z</time></trkpt><trkpt lat="42.33695720198994" lon="13.603138951198535"><ele>1206.0</ele><time>2026-05-03T12:21:30.999Z</time></trkpt><trkpt lat="42.336900078250736" lon="13.602937432072741"><ele>1205.6666666666667</ele><time>2026-05-03T12:21:31.999Z</time></trkpt><trkpt lat="42.33681605814044" lon="13.602725170087712"><ele>1205.3333333333335</ele><time>2026-05-03T12:21:32.999Z</time></trkpt><trkpt lat="42.33671135755593" lon="13.602523662132707"><ele>1205.0</ele><time>2026-05-03T12:21:33.999Z</time></trkpt><trkpt lat="42.336608629144195" lon="13.602319927548672"><ele>1205.0</ele><time>2026-05-03T12:21:34.999Z</time></trkpt><trkpt lat="42.33650908098444" lon="13.60212015274786"><ele>1205.0</ele><time>2026-05-03T12:21:36Z</time></trkpt><trkpt lat="42.336395341953555" lon="13.60193876418838"><ele>1205.0</ele><time>2026-05-03T12:21:37Z</time></trkpt><trkpt lat="42.33627050456161" lon="13.601787815531258"><ele>1202.25</ele><time>2026-05-03T12:21:38Z</time></trkpt><trkpt lat="42.33614920026412" lon="13.601660562036349"><ele>1199.5</ele><time>2026-05-03T12:21:39Z</time></trkpt><trkpt lat="42.33604194949112" lon="13.601555405857521"><ele>1196.75</ele><time>2026-05-03T12:21:40Z</time></trkpt><trkpt lat="42.33595427501877" lon="13.601465705204927"><ele>1194.0</ele><time>2026-05-03T12:21:41Z</time></trkpt><trkpt lat="42.33586911320782" lon="13.601405889490044"><ele>1194.0</ele><time>2026-05-03T12:21:42Z</time></trkpt><trkpt lat="42.33573990215682" lon="13.60136163265856"><ele>1194.0</ele><time>2026-05-03T12:21:43Z</time></trkpt><trkpt lat="42.33562034018733" lon="13.601419134461642"><ele>1194.0</ele><time>2026-05-03T12:21:44Z</time></trkpt><trkpt lat="42.335533145728526" lon="13.601474579701966"><ele>1194.0</ele><time>2026-05-03T12:21:45Z</time></trkpt><trkpt lat="42.33540985075719" lon="13.601557374224246"><ele>1193.0</ele><time>2026-05-03T12:21:46Z</time></trkpt><trkpt lat="42.335313402760725" lon="13.6016355717396"><ele>1192.0</ele><time>2026-05-03T12:21:47Z</time></trkpt><trkpt lat="42.335228343325426" lon="13.60168710862903"><ele>1191.0</ele><time>2026-05-03T12:21:48Z</time></trkpt><trkpt lat="42.335159883383675" lon="13.601717384949605"><ele>1190.0</ele><time>2026-05-03T12:21:49Z</time></trkpt><trkpt lat="42.33508899977722" lon="13.601677891959092"><ele>1189.0</ele><time>2026-05-03T12:21:50Z</time></trkpt><trkpt lat="42.335032977800935" lon="13.601586178505118"><ele>1188.0</ele><time>2026-05-03T12:21:51Z</time></trkpt><trkpt lat="42.33501466041279" lon="13.601422728624085"><ele>1188.0</ele><time>2026-05-03T12:21:52Z</time></trkpt><trkpt lat="42.33496938005963" lon="13.601258906378922"><ele>1188.0</ele><time>2026-05-03T12:21:53Z</time></trkpt><trkpt lat="42.33491693409604" lon="13.601093721108784"><ele>1188.0</ele><time>2026-05-03T12:21:54Z</time></trkpt><trkpt lat="42.33488094412079" lon="13.600975161234247"><ele>1188.0</ele><time>2026-05-03T12:21:55Z</time></trkpt><trkpt lat="42.33485619190904" lon="13.600860053236296"><ele>1188.0</ele><time>2026-05-03T12:21:56Z</time></trkpt><trkpt lat="42.334848279558855" lon="13.600728412348582"><ele>1187.6666666666667</ele><time>2026-05-03T12:21:57Z</time></trkpt><trkpt lat="42.334923760598095" lon="13.600589671306826"><ele>1187.3333333333335</ele><time>2026-05-03T12:21:58Z</time></trkpt><trkpt lat="42.33500444927847" lon="13.600409752524467"><ele>1187.0</ele><time>2026-05-03T12:21:59Z</time></trkpt><trkpt lat="42.33510456075292" lon="13.600183691077257"><ele>1184.3333333333335</ele><time>2026-05-03T12:22:00Z</time></trkpt><trkpt lat="42.335205656288366" lon="13.59993770333468"><ele>1181.6666666666667</ele><time>2026-05-03T12:22:01Z</time></trkpt><trkpt lat="42.33530686901849" lon="13.59969559432454"><ele>1179.0</ele><time>2026-05-03T12:22:02Z</time></trkpt><trkpt lat="42.335421434410215" lon="13.599450401097549"><ele>1182.6666666666667</ele><time>2026-05-03T12:22:03Z</time></trkpt><trkpt lat="42.33552708759668" lon="13.599189099702341"><ele>1186.3333333333335</ele><time>2026-05-03T12:22:04Z</time></trkpt><trkpt lat="42.335628121664136" lon="13.598944543238593"><ele>1190.0</ele><time>2026-05-03T12:22:05Z</time></trkpt><trkpt lat="42.3357202665851" lon="13.598724140081014"><ele>1185.75</ele><time>2026-05-03T12:22:06Z</time></trkpt><trkpt lat="42.335806034651334" lon="13.598540715706017"><ele>1181.5</ele><time>2026-05-03T12:22:07Z</time></trkpt><trkpt lat="42.33588549942531" lon="13.598380233997657"><ele>1177.25</ele><time>2026-05-03T12:22:08Z</time></trkpt><trkpt lat="42.335965687442254" lon="13.598220591841804"><ele>1173.0</ele><time>2026-05-03T12:22:09Z</time></trkpt><trkpt lat="42.336021525081875" lon="13.598084656855866"><ele>1173.0</ele><time>2026-05-03T12:22:10Z</time></trkpt><trkpt lat="42.336043077346076" lon="13.597923127070915"><ele>1173.0</ele><time>2026-05-03T12:22:11Z</time></trkpt><trkpt lat="42.33605551792827" lon="13.597762187372508"><ele>1173.0</ele><time>2026-05-03T12:22:12Z</time></trkpt><trkpt lat="42.33600432580125" lon="13.597603582191677"><ele>1173.0</ele><time>2026-05-03T12:22:13Z</time></trkpt><trkpt lat="42.33597103482345" lon="13.597442127761406"><ele>1170.6</ele><time>2026-05-03T12:22:14Z</time></trkpt><trkpt lat="42.33594389515447" lon="13.597308169440282"><ele>1168.1999999999998</ele><time>2026-05-03T12:22:15Z</time></trkpt><trkpt lat="42.33599018264795" lon="13.597195959201773"><ele>1165.8</ele><time>2026-05-03T12:22:16Z</time></trkpt><trkpt lat="42.336060025406276" lon="13.597097444202833"><ele>1163.3999999999999</ele><time>2026-05-03T12:22:17Z</time></trkpt><trkpt lat="42.33614493923708" lon="13.596977200243849"><ele>1161.0</ele><time>2026-05-03T12:22:18Z</time></trkpt><trkpt lat="42.33622171861255" lon="13.596827708022074"><ele>1158.0</ele><time>2026-05-03T12:22:19Z</time></trkpt><trkpt lat="42.33628015528305" lon="13.59670448501419"><ele>1155.0</ele><time>2026-05-03T12:22:20Z</time></trkpt><trkpt lat="42.336294228642444" lon="13.596564573808443"><ele>1152.0</ele><time>2026-05-03T12:22:21Z</time></trkpt><trkpt lat="42.33627771683385" lon="13.596383621029187"><ele>1149.0</ele><time>2026-05-03T12:22:22Z</time></trkpt><trkpt lat="42.336274567412985" lon="13.596148227365878"><ele>1145.6666666666667</ele><time>2026-05-03T12:22:23Z</time></trkpt><trkpt lat="42.33625772196146" lon="13.595895359955172"><ele>1142.3333333333335</ele><time>2026-05-03T12:22:23.999Z</time></trkpt><trkpt lat="42.33624220774105" lon="13.59566247574332"><ele>1139.0</ele><time>2026-05-03T12:22:24.999Z</time></trkpt><trkpt lat="42.336231905237234" lon="13.595439046425293"><ele>1137.0</ele><time>2026-05-03T12:22:25.999Z</time></trkpt><trkpt lat="42.33624290228426" lon="13.595193208284133"><ele>1135.0</ele><time>2026-05-03T12:22:26.999Z</time></trkpt><trkpt lat="42.33627551856271" lon="13.594936966861072"><ele>1133.0</ele><time>2026-05-03T12:22:27.999Z</time></trkpt><trkpt lat="42.33630619347761" lon="13.594679660041669"><ele>1131.3333333333335</ele><time>2026-05-03T12:22:28.999Z</time></trkpt><trkpt lat="42.336315085174185" lon="13.594418790864136"><ele>1129.6666666666667</ele><time>2026-05-03T12:22:29.999Z</time></trkpt><trkpt lat="42.33634205909628" lon="13.594160159760213"><ele>1128.0</ele><time>2026-05-03T12:22:30.999Z</time></trkpt><trkpt lat="42.33633871146114" lon="13.593894650138942"><ele>1127.6666666666667</ele><time>2026-05-03T12:22:31.999Z</time></trkpt><trkpt lat="42.33631790112262" lon="13.59363110192199"><ele>1127.3333333333335</ele><time>2026-05-03T12:22:32.999Z</time></trkpt><trkpt lat="42.3362982921764" lon="13.593383675531593"><ele>1127.0</ele><time>2026-05-03T12:22:33.999Z</time></trkpt><trkpt lat="42.336273350656896" lon="13.593167220177447"><ele>1127.0</ele><time>2026-05-03T12:22:34.999Z</time></trkpt><trkpt lat="42.336277242566126" lon="13.592948006832879"><ele>1127.0</ele><time>2026-05-03T12:22:35.999Z</time></trkpt><trkpt lat="42.33634274513799" lon="13.59272776051797"><ele>1127.0</ele><time>2026-05-03T12:22:36.999Z</time></trkpt><trkpt lat="42.33639690738242" lon="13.592489765658302"><ele>1131.0</ele><time>2026-05-03T12:22:37.999Z</time></trkpt><trkpt lat="42.3364872681479" lon="13.592275214594443"><ele>1135.0</ele><time>2026-05-03T12:22:38.999Z</time></trkpt><trkpt lat="42.33658733374952" lon="13.592077668270436"><ele>1139.0</ele><time>2026-05-03T12:22:39.999Z</time></trkpt><trkpt lat="42.33667533050737" lon="13.591900246736824"><ele>1139.0</ele><time>2026-05-03T12:22:40.999Z</time></trkpt><trkpt lat="42.33673443925244" lon="13.591712805959054"><ele>1139.0</ele><time>2026-05-03T12:22:41.999Z</time></trkpt><trkpt lat="42.336753801177245" lon="13.591474437469966"><ele>1139.0</ele><time>2026-05-03T12:22:42.999Z</time></trkpt><trkpt lat="42.33676379526778" lon="13.591197499478174"><ele>1136.3333333333335</ele><time>2026-05-03T12:22:43.999Z</time></trkpt><trkpt lat="42.33680849490262" lon="13.590917508126731"><ele>1133.6666666666667</ele><time>2026-05-03T12:22:44.999Z</time></trkpt><trkpt lat="42.33684854792652" lon="13.590631402028956"><ele>1131.0</ele><time>2026-05-03T12:22:45.999Z</time></trkpt><trkpt lat="42.33686924216921" lon="13.590339004798587"><ele>1127.0</ele><time>2026-05-03T12:22:46.999Z</time></trkpt><trkpt lat="42.336907120276614" lon="13.590030937268658"><ele>1123.0</ele><time>2026-05-03T12:22:47.999Z</time></trkpt><trkpt lat="42.33694595090707" lon="13.589723967877925"><ele>1120.3333333333333</ele><time>2026-05-03T12:22:48.999Z</time></trkpt><trkpt lat="42.3369898127465" lon="13.589434174843232"><ele>1117.6666666666667</ele><time>2026-05-03T12:22:49.999Z</time></trkpt><trkpt lat="42.33703153495808" lon="13.589144794352407"><ele>1115.0</ele><time>2026-05-03T12:22:50.999Z</time></trkpt><trkpt lat="42.33709695909559" lon="13.588841302918988"><ele>1109.5</ele><time>2026-05-03T12:22:51.999Z</time></trkpt><trkpt lat="42.337163906877585" lon="13.588530490738206"><ele>1104.0</ele><time>2026-05-03T12:22:52.999Z</time></trkpt><trkpt lat="42.33724230128385" lon="13.58824010506378"><ele>1109.6666666666667</ele><time>2026-05-03T12:22:53.999Z</time></trkpt><trkpt lat="42.33732096356333" lon="13.587960800031302"><ele>1115.3333333333335</ele><time>2026-05-03T12:22:54.999Z</time></trkpt><trkpt lat="42.3373799295923" lon="13.587683225961303"><ele>1121.0</ele><time>2026-05-03T12:22:55.999Z</time></trkpt><trkpt lat="42.337416196500435" lon="13.587393308133082"><ele>1121.0</ele><time>2026-05-03T12:22:56.999Z</time></trkpt><trkpt lat="42.33744334796626" lon="13.587086890650948"><ele>1121.0</ele><time>2026-05-03T12:22:57.999Z</time></trkpt><trkpt lat="42.3374703128113" lon="13.58675543156997"><ele>1118.0</ele><time>2026-05-03T12:22:58.999Z</time></trkpt><trkpt lat="42.33751330371927" lon="13.58644836154808"><ele>1115.0</ele><time>2026-05-03T12:22:59.999Z</time></trkpt><trkpt lat="42.337529244333844" lon="13.586115770033711"><ele>1112.5</ele><time>2026-05-03T12:23:00.999Z</time></trkpt><trkpt lat="42.33756625230013" lon="13.585804899062474"><ele>1110.0</ele><time>2026-05-03T12:23:01.999Z</time></trkpt><trkpt lat="42.33760147387032" lon="13.585505435139398"><ele>1108.3333333333333</ele><time>2026-05-03T12:23:02.999Z</time></trkpt><trkpt lat="42.337636785063445" lon="13.585212191969688"><ele>1106.6666666666665</ele><time>2026-05-03T12:23:03.999Z</time></trkpt><trkpt lat="42.33766536903485" lon="13.584926672592717"><ele>1105.0</ele><time>2026-05-03T12:23:04.999Z</time></trkpt><trkpt lat="42.337707309450096" lon="13.584651813470474"><ele>1103.6666666666665</ele><time>2026-05-03T12:23:05.999Z</time></trkpt><trkpt lat="42.3377097646422" lon="13.584370037341072"><ele>1102.3333333333333</ele><time>2026-05-03T12:23:06.999Z</time></trkpt><trkpt lat="42.33771734581479" lon="13.58409270685999"><ele>1101.0</ele><time>2026-05-03T12:23:07.999Z</time></trkpt><trkpt lat="42.33771874931543" lon="13.58381458304248"><ele>1100.6666666666667</ele><time>2026-05-03T12:23:08.999Z</time></trkpt><trkpt lat="42.33773352505383" lon="13.583537605881478"><ele>1100.3333333333335</ele><time>2026-05-03T12:23:09.999Z</time></trkpt><trkpt lat="42.33771661383924" lon="13.583263277339768"><ele>1100.0</ele><time>2026-05-03T12:23:10.999Z</time></trkpt><trkpt lat="42.3376772866954" lon="13.58300185856254"><ele>1100.3333333333335</ele><time>2026-05-03T12:23:11.999Z</time></trkpt><trkpt lat="42.33763714738481" lon="13.582747736523112"><ele>1100.6666666666667</ele><time>2026-05-03T12:23:12.999Z</time></trkpt><trkpt lat="42.3375972006013" lon="13.58249483331765"><ele>1101.0</ele><time>2026-05-03T12:23:13.999Z</time></trkpt><trkpt lat="42.33755931558712" lon="13.582254983085901"><ele>1101.0</ele><time>2026-05-03T12:23:14.999Z</time></trkpt><trkpt lat="42.33752671124439" lon="13.582023352735153"><ele>1101.0</ele><time>2026-05-03T12:23:15.999Z</time></trkpt><trkpt lat="42.33753126392088" lon="13.581802299281621"><ele>1101.0</ele><time>2026-05-03T12:23:16.999Z</time></trkpt><trkpt lat="42.3375700297769" lon="13.58158167410749"><ele>1100.6666666666667</ele><time>2026-05-03T12:23:17.999Z</time></trkpt><trkpt lat="42.33762020518229" lon="13.581373788365497"><ele>1100.3333333333335</ele><time>2026-05-03T12:23:18.999Z</time></trkpt><trkpt lat="42.337699883505174" lon="13.58119320309434"><ele>1100.0</ele><time>2026-05-03T12:23:19.999Z</time></trkpt><trkpt lat="42.3377838731592" lon="13.58102602327473"><ele>1100.0</ele><time>2026-05-03T12:23:20.999Z</time></trkpt><trkpt lat="42.33784737558245" lon="13.580864839516307"><ele>1100.0</ele><time>2026-05-03T12:23:21.999Z</time></trkpt><trkpt lat="42.33791161341985" lon="13.580704047977894"><ele>1100.0</ele><time>2026-05-03T12:23:22.999Z</time></trkpt><trkpt lat="42.33792787563444" lon="13.580502302337207"><ele>1100.0</ele><time>2026-05-03T12:23:23.999Z</time></trkpt><trkpt lat="42.33789184921815" lon="13.580289836909003"><ele>1098.5</ele><time>2026-05-03T12:23:24.999Z</time></trkpt><trkpt lat="42.337840676532174" lon="13.580095441200829"><ele>1097.0</ele><time>2026-05-03T12:23:25.999Z</time></trkpt><trkpt lat="42.33777238859768" lon="13.579937456651644"><ele>1095.5</ele><time>2026-05-03T12:23:26.999Z</time></trkpt><trkpt lat="42.337698694015344" lon="13.579771007038282"><ele>1094.0</ele><time>2026-05-03T12:23:27.999Z</time></trkpt><trkpt lat="42.337602472954934" lon="13.579631115997598"><ele>1091.3333333333335</ele><time>2026-05-03T12:23:29Z</time></trkpt><trkpt lat="42.337491299380375" lon="13.579500520321806"><ele>1088.6666666666667</ele><time>2026-05-03T12:23:30Z</time></trkpt><trkpt lat="42.337350923816444" lon="13.579425260516647"><ele>1086.0</ele><time>2026-05-03T12:23:31Z</time></trkpt><trkpt lat="42.33720180849475" lon="13.579388511522616"><ele>1085.3333333333333</ele><time>2026-05-03T12:23:32Z</time></trkpt><trkpt lat="42.33703476186035" lon="13.57940925664015"><ele>1084.6666666666665</ele><time>2026-05-03T12:23:33Z</time></trkpt><trkpt lat="42.33685367996326" lon="13.57946913808312"><ele>1084.0</ele><time>2026-05-03T12:23:34Z</time></trkpt><trkpt lat="42.3366656841361" lon="13.579511289007616"><ele>1085.0</ele><time>2026-05-03T12:23:35Z</time></trkpt><trkpt lat="42.336469777515816" lon="13.579522131247598"><ele>1086.0</ele><time>2026-05-03T12:23:36Z</time></trkpt><trkpt lat="42.336272375441986" lon="13.57951513401721"><ele>1087.0</ele><time>2026-05-03T12:23:37Z</time></trkpt><trkpt lat="42.336051545857224" lon="13.579509656029638"><ele>1086.6666666666665</ele><time>2026-05-03T12:23:38Z</time></trkpt><trkpt lat="42.33585707589953" lon="13.579538900894397"><ele>1086.3333333333333</ele><time>2026-05-03T12:23:39Z</time></trkpt><trkpt lat="42.33566049064594" lon="13.579588263532004"><ele>1086.0</ele><time>2026-05-03T12:23:40Z</time></trkpt><trkpt lat="42.33547053364468" lon="13.579621682120047"><ele>1086.0</ele><time>2026-05-03T12:23:41Z</time></trkpt><trkpt lat="42.33528368993206" lon="13.57962744758426"><ele>1086.0</ele><time>2026-05-03T12:23:42Z</time></trkpt><trkpt lat="42.33510797735092" lon="13.579604742787554"><ele>1086.0</ele><time>2026-05-03T12:23:43Z</time></trkpt><trkpt lat="42.33493344975936" lon="13.579555035845948"><ele>1082.6666666666667</ele><time>2026-05-03T12:23:44Z</time></trkpt><trkpt lat="42.33475130061805" lon="13.579491842890285"><ele>1079.3333333333335</ele><time>2026-05-03T12:23:45Z</time></trkpt><trkpt lat="42.334572260784604" lon="13.579427904297452"><ele>1076.0</ele><time>2026-05-03T12:23:46Z</time></trkpt><trkpt lat="42.33437965645875" lon="13.579370496498825"><ele>1073.0</ele><time>2026-05-03T12:23:47Z</time></trkpt><trkpt lat="42.334188348159145" lon="13.57933842091731"><ele>1070.0</ele><time>2026-05-03T12:23:48Z</time></trkpt><trkpt lat="42.334003225609564" lon="13.579309647071257"><ele>1067.0</ele><time>2026-05-03T12:23:49Z</time></trkpt><trkpt lat="42.33382581156766" lon="13.579282071367814"><ele>1063.25</ele><time>2026-05-03T12:23:50Z</time></trkpt><trkpt lat="42.33365763365737" lon="13.579316766513793"><ele>1059.5</ele><time>2026-05-03T12:23:51Z</time></trkpt><trkpt lat="42.33352042559658" lon="13.579303434911115"><ele>1055.75</ele><time>2026-05-03T12:23:52Z</time></trkpt><trkpt lat="42.33339437104737" lon="13.579334353597563"><ele>1052.0</ele><time>2026-05-03T12:23:53Z</time></trkpt><trkpt lat="42.3332713661765" lon="13.57943024154952"><ele>1048.75</ele><time>2026-05-03T12:23:54Z</time></trkpt><trkpt lat="42.33316957646192" lon="13.579576891732595"><ele>1045.5</ele><time>2026-05-03T12:23:55Z</time></trkpt><trkpt lat="42.333081756328895" lon="13.579735868145812"><ele>1042.25</ele><time>2026-05-03T12:23:56Z</time></trkpt><trkpt lat="42.33298273735636" lon="13.579882286061606"><ele>1039.0</ele><time>2026-05-03T12:23:57Z</time></trkpt><trkpt lat="42.33285927640783" lon="13.579988317221574"><ele>1039.0</ele><time>2026-05-03T12:23:58Z</time></trkpt><trkpt lat="42.33270890115726" lon="13.58006759091712"><ele>1039.0</ele><time>2026-05-03T12:23:59Z</time></trkpt><trkpt lat="42.33254545010043" lon="13.580130149031895"><ele>1039.0</ele><time>2026-05-03T12:24:00Z</time></trkpt><trkpt lat="42.332381707370764" lon="13.580208888750859"><ele>1039.0</ele><time>2026-05-03T12:24:01Z</time></trkpt><trkpt lat="42.33224276480941" lon="13.58028372425038"><ele>1039.0</ele><time>2026-05-03T12:24:02Z</time></trkpt><trkpt lat="42.33214111320611" lon="13.580339314941405"><ele>1039.0</ele><time>2026-05-03T12:24:03Z</time></trkpt><trkpt lat="42.33205177796553" lon="13.580419755040133"><ele>1039.0</ele><time>2026-05-03T12:24:04Z</time></trkpt><trkpt lat="42.33198951712706" lon="13.580538960821517"><ele>1037.0</ele><time>2026-05-03T12:24:05Z</time></trkpt><trkpt lat="42.33195925240007" lon="13.58070273041657"><ele>1035.0</ele><time>2026-05-03T12:24:06Z</time></trkpt><trkpt lat="42.33194293047519" lon="13.580892633849402"><ele>1033.0</ele><time>2026-05-03T12:24:07Z</time></trkpt><trkpt lat="42.33198045447115" lon="13.581092048611874"><ele>1031.0</ele><time>2026-05-03T12:24:08Z</time></trkpt><trkpt lat="42.332036693533055" lon="13.581294898183376"><ele>1031.0</ele><time>2026-05-03T12:24:09Z</time></trkpt><trkpt lat="42.33207702405923" lon="13.581499953133763"><ele>1031.0</ele><time>2026-05-03T12:24:10Z</time></trkpt><trkpt lat="42.332093473107584" lon="13.581723736896054"><ele>1031.0</ele><time>2026-05-03T12:24:11Z</time></trkpt><trkpt lat="42.3320807264216" lon="13.581940097046195"><ele>1029.3333333333335</ele><time>2026-05-03T12:24:12Z</time></trkpt><trkpt lat="42.33205828724516" lon="13.582150950194093"><ele>1027.6666666666667</ele><time>2026-05-03T12:24:13Z</time></trkpt><trkpt lat="42.332063258796424" lon="13.582353770337384"><ele>1026.0</ele><time>2026-05-03T12:24:14Z</time></trkpt><trkpt lat="42.332102198606265" lon="13.582590225202136"><ele>1023.6666666666667</ele><time>2026-05-03T12:24:15Z</time></trkpt><trkpt lat="42.332158368023066" lon="13.58285684790913"><ele>1021.3333333333334</ele><time>2026-05-03T12:24:16Z</time></trkpt><trkpt lat="42.332228489040745" lon="13.58311443510258"><ele>1019.0</ele><time>2026-05-03T12:24:17Z</time></trkpt><trkpt lat="42.332286996031" lon="13.583365325749023"><ele>1022.6666666666667</ele><time>2026-05-03T12:24:18Z</time></trkpt><trkpt lat="42.332342021315284" lon="13.583605627421786"><ele>1026.3333333333333</ele><time>2026-05-03T12:24:19Z</time></trkpt><trkpt lat="42.33239785578758" lon="13.583840612624027"><ele>1030.0</ele><time>2026-05-03T12:24:20Z</time></trkpt><trkpt lat="42.332444724278375" lon="13.584073330402525"><ele>1030.0</ele><time>2026-05-03T12:24:21Z</time></trkpt><trkpt lat="42.33247910123241" lon="13.584307628964066"><ele>1030.0</ele><time>2026-05-03T12:24:22Z</time></trkpt><trkpt lat="42.33248900351644" lon="13.584546983925414"><ele>1030.0</ele><time>2026-05-03T12:24:23Z</time></trkpt><trkpt lat="42.332485094658495" lon="13.584781163546742"><ele>1028.6666666666665</ele><time>2026-05-03T12:24:24Z</time></trkpt><trkpt lat="42.33248693333424" lon="13.585015540911673"><ele>1027.3333333333333</ele><time>2026-05-03T12:24:25Z</time></trkpt><trkpt lat="42.33248017521274" lon="13.585239163986328"><ele>1026.0</ele><time>2026-05-03T12:24:26Z</time></trkpt><trkpt lat="42.33248154987182" lon="13.585437653369443"><ele>1024.6666666666667</ele><time>2026-05-03T12:24:27Z</time></trkpt><trkpt lat="42.33244469782846" lon="13.585621254960305"><ele>1023.3333333333334</ele><time>2026-05-03T12:24:28Z</time></trkpt><trkpt lat="42.33237935236787" lon="13.585801908499928"><ele>1022.0</ele><time>2026-05-03T12:24:29Z</time></trkpt><trkpt lat="42.332293861464265" lon="13.586002662387868"><ele>1018.6666666666667</ele><time>2026-05-03T12:24:30Z</time></trkpt><trkpt lat="42.33218988106978" lon="13.586251485379405"><ele>1015.3333333333333</ele><time>2026-05-03T12:24:31Z</time></trkpt><trkpt lat="42.332073101078436" lon="13.58650231489694"><ele>1012.0</ele><time>2026-05-03T12:24:32Z</time></trkpt><trkpt lat="42.33196913722093" lon="13.586755783212702"><ele>1012.0</ele><time>2026-05-03T12:24:33Z</time></trkpt><trkpt lat="42.33186179496998" lon="13.586992502056441"><ele>1012.0</ele><time>2026-05-03T12:24:34Z</time></trkpt><trkpt lat="42.33174583927725" lon="13.587223561610447"><ele>1012.0</ele><time>2026-05-03T12:24:35Z</time></trkpt><trkpt lat="42.33164126068643" lon="13.587448720805941"><ele>1012.0</ele><time>2026-05-03T12:24:36Z</time></trkpt><trkpt lat="42.331536849557736" lon="13.587671047677047"><ele>1012.0</ele><time>2026-05-03T12:24:37Z</time></trkpt><trkpt lat="42.33144147939871" lon="13.587887780531446"><ele>1012.0</ele><time>2026-05-03T12:24:38Z</time></trkpt><trkpt lat="42.33134214766307" lon="13.588107093280465"><ele>1007.6666666666666</ele><time>2026-05-03T12:24:39Z</time></trkpt><trkpt lat="42.33124592274939" lon="13.588329729588125"><ele>1003.3333333333333</ele><time>2026-05-03T12:24:40Z</time></trkpt><trkpt lat="42.33116374438652" lon="13.588560097427326"><ele>999.0</ele><time>2026-05-03T12:24:41Z</time></trkpt><trkpt lat="42.33109705906399" lon="13.588796257215478"><ele>999.0</ele><time>2026-05-03T12:24:42Z</time></trkpt><trkpt lat="42.331041476627895" lon="13.58901987563688"><ele>999.0</ele><time>2026-05-03T12:24:43Z</time></trkpt><trkpt lat="42.33098645459134" lon="13.589220602841996"><ele>999.0</ele><time>2026-05-03T12:24:44Z</time></trkpt><trkpt lat="42.33093185149996" lon="13.589415906026105"><ele>999.25</ele><time>2026-05-03T12:24:45Z</time></trkpt><trkpt lat="42.330859050523216" lon="13.589593509156522"><ele>999.5</ele><time>2026-05-03T12:24:45.999Z</time></trkpt><trkpt lat="42.330780255043166" lon="13.58974068548888"><ele>999.75</ele><time>2026-05-03T12:24:46.999Z</time></trkpt><trkpt lat="42.33067581899256" lon="13.589855988836195"><ele>1000.0</ele><time>2026-05-03T12:24:47.999Z</time></trkpt><trkpt lat="42.3305397856287" lon="13.589951735196927"><ele>998.0</ele><time>2026-05-03T12:24:48.999Z</time></trkpt><trkpt lat="42.33040680642192" lon="13.590025367021234"><ele>996.0</ele><time>2026-05-03T12:24:49.999Z</time></trkpt><trkpt lat="42.330293353675366" lon="13.59008200071525"><ele>994.0</ele><time>2026-05-03T12:24:50.999Z</time></trkpt><trkpt lat="42.33019230438875" lon="13.590142509705425"><ele>992.0</ele><time>2026-05-03T12:24:51.999Z</time></trkpt><trkpt lat="42.330073649108684" lon="13.590153178065352"><ele>992.0</ele><time>2026-05-03T12:24:52.999Z</time></trkpt><trkpt lat="42.32994671419624" lon="13.59020146486479"><ele>992.0</ele><time>2026-05-03T12:24:53.999Z</time></trkpt><trkpt lat="42.329816867791834" lon="13.590230119111283"><ele>992.0</ele><time>2026-05-03T12:24:54.999Z</time></trkpt><trkpt lat="42.32968641524934" lon="13.59023944060234"><ele>992.0</ele><time>2026-05-03T12:24:55.999Z</time></trkpt><trkpt lat="42.32956274728713" lon="13.590286832286633"><ele>990.75</ele><time>2026-05-03T12:24:56.999Z</time></trkpt><trkpt lat="42.32943640507541" lon="13.590319769959297"><ele>989.5</ele><time>2026-05-03T12:24:57.999Z</time></trkpt><trkpt lat="42.32931978648559" lon="13.590388595270687"><ele>988.25</ele><time>2026-05-03T12:24:58.999Z</time></trkpt><trkpt lat="42.32919792025547" lon="13.5905147478064"><ele>987.0</ele><time>2026-05-03T12:24:59.999Z</time></trkpt><trkpt lat="42.329093822046836" lon="13.590648322853617"><ele>987.0</ele><time>2026-05-03T12:25:00.999Z</time></trkpt><trkpt lat="42.3289835040451" lon="13.590776592897923"><ele>987.0</ele><time>2026-05-03T12:25:01.999Z</time></trkpt><trkpt lat="42.328869906742106" lon="13.590892925653215"><ele>987.0</ele><time>2026-05-03T12:25:02.999Z</time></trkpt><trkpt lat="42.32876888196949" lon="13.591008967196885"><ele>987.0</ele><time>2026-05-03T12:25:03.999Z</time></trkpt><trkpt lat="42.328676502021786" lon="13.591113504723465"><ele>986.4000000000001</ele><time>2026-05-03T12:25:04.999Z</time></trkpt><trkpt lat="42.328601795982095" lon="13.591199275780498"><ele>985.8000000000001</ele><time>2026-05-03T12:25:05.999Z</time></trkpt><trkpt lat="42.32851971133964" lon="13.59122906080872"><ele>985.2</ele><time>2026-05-03T12:25:06.999Z</time></trkpt><trkpt lat="42.328435946201374" lon="13.591207389657347"><ele>984.6</ele><time>2026-05-03T12:25:07.999Z</time></trkpt><trkpt lat="42.328354280368444" lon="13.591164252845156"><ele>984.0</ele><time>2026-05-03T12:25:08.999Z</time></trkpt><trkpt lat="42.32831510196262" lon="13.591046243753338"><ele>982.5</ele><time>2026-05-03T12:25:09.999Z</time></trkpt><trkpt lat="42.3282454504726" lon="13.59090883081935"><ele>981.0</ele><time>2026-05-03T12:25:10.999Z</time></trkpt><trkpt lat="42.32818069025944" lon="13.590773715575006"><ele>979.5</ele><time>2026-05-03T12:25:11.999Z</time></trkpt><trkpt lat="42.32813008260283" lon="13.590645400485322"><ele>978.0</ele><time>2026-05-03T12:25:12.999Z</time></trkpt><trkpt lat="42.328097598826936" lon="13.590510185426796"><ele>978.0</ele><time>2026-05-03T12:25:13.999Z</time></trkpt><trkpt lat="42.328101497578054" lon="13.59034897015153"><ele>978.0</ele><time>2026-05-03T12:25:14.999Z</time></trkpt><trkpt lat="42.328117491625605" lon="13.590186374117946"><ele>978.0</ele><time>2026-05-03T12:25:15.999Z</time></trkpt><trkpt lat="42.328132948427154" lon="13.590025430432224"><ele>978.0</ele><time>2026-05-03T12:25:16.999Z</time></trkpt><trkpt lat="42.32815521086377" lon="13.589860512056477"><ele>977.0</ele><time>2026-05-03T12:25:17.999Z</time></trkpt><trkpt lat="42.328172879437275" lon="13.589686632470876"><ele>976.0</ele><time>2026-05-03T12:25:18.999Z</time></trkpt><trkpt lat="42.3282437836613" lon="13.58956114948988"><ele>975.0</ele><time>2026-05-03T12:25:19.999Z</time></trkpt><trkpt lat="42.3283174243118" lon="13.58944038101736"><ele>974.0</ele><time>2026-05-03T12:25:20.999Z</time></trkpt><trkpt lat="42.32840759224008" lon="13.589332719760545"><ele>972.25</ele><time>2026-05-03T12:25:21.999Z</time></trkpt><trkpt lat="42.32850715819236" lon="13.589233243817068"><ele>970.5</ele><time>2026-05-03T12:25:22.999Z</time></trkpt><trkpt lat="42.32861421429571" lon="13.58915572016597"><ele>968.75</ele><time>2026-05-03T12:25:23.999Z</time></trkpt><trkpt lat="42.32872813508365" lon="13.589101943815546"><ele>967.0</ele><time>2026-05-03T12:25:24.999Z</time></trkpt><trkpt lat="42.32885413178125" lon="13.589094236054033"><ele>968.1666666666666</ele><time>2026-05-03T12:25:25.999Z</time></trkpt><trkpt lat="42.32896480018246" lon="13.589107178299393"><ele>969.3333333333333</ele><time>2026-05-03T12:25:26.999Z</time></trkpt><trkpt lat="42.32904581485813" lon="13.589075274253428"><ele>970.5</ele><time>2026-05-03T12:25:27.999Z</time></trkpt><trkpt lat="42.32910071285892" lon="13.588998487433255"><ele>971.6666666666667</ele><time>2026-05-03T12:25:28.999Z</time></trkpt><trkpt lat="42.32911204940552" lon="13.588886730361004"><ele>972.8333333333334</ele><time>2026-05-03T12:25:29.999Z</time></trkpt><trkpt lat="42.32909416414185" lon="13.588766182974178"><ele>974.0</ele><time>2026-05-03T12:25:30.999Z</time></trkpt><trkpt lat="42.32903636557866" lon="13.588635486377074"><ele>974.0</ele><time>2026-05-03T12:25:31.999Z</time></trkpt><trkpt lat="42.32893971707749" lon="13.588477269553032"><ele>974.0</ele><time>2026-05-03T12:25:32.999Z</time></trkpt><trkpt lat="42.32883941319992" lon="13.588265281797856"><ele>974.0</ele><time>2026-05-03T12:25:33.999Z</time></trkpt><trkpt lat="42.328723794904526" lon="13.588052380260711"><ele>970.0</ele><time>2026-05-03T12:25:35Z</time></trkpt><trkpt lat="42.32861923015044" lon="13.587859832910686"><ele>966.0</ele><time>2026-05-03T12:25:36Z</time></trkpt><trkpt lat="42.328521415473745" lon="13.58767648951097"><ele>962.0</ele><time>2026-05-03T12:25:37Z</time></trkpt><trkpt lat="42.32844196234582" lon="13.587526598133705"><ele>961.8</ele><time>2026-05-03T12:25:38Z</time></trkpt><trkpt lat="42.32837465139928" lon="13.587415332209911"><ele>961.6</ele><time>2026-05-03T12:25:39Z</time></trkpt><trkpt lat="42.32829431783139" lon="13.587340322060786"><ele>961.3999999999999</ele><time>2026-05-03T12:25:40Z</time></trkpt><trkpt lat="42.32822535121128" lon="13.587261032824907"><ele>961.1999999999999</ele><time>2026-05-03T12:25:41Z</time></trkpt><trkpt lat="42.32813073111999" lon="13.58724891269578"><ele>961.0</ele><time>2026-05-03T12:25:42Z</time></trkpt><trkpt lat="42.328014380548986" lon="13.587341672010993"><ele>959.0</ele><time>2026-05-03T12:25:43Z</time></trkpt><trkpt lat="42.32791836799433" lon="13.587455510653554"><ele>957.0</ele><time>2026-05-03T12:25:44Z</time></trkpt><trkpt lat="42.327815834354155" lon="13.587611176907224"><ele>955.0</ele><time>2026-05-03T12:25:45Z</time></trkpt><trkpt lat="42.32769027928891" lon="13.587739399250747"><ele>953.0</ele><time>2026-05-03T12:25:46Z</time></trkpt><trkpt lat="42.327576494452515" lon="13.587871755481176"><ele>953.0</ele><time>2026-05-03T12:25:47Z</time></trkpt><trkpt lat="42.327466647382444" lon="13.587999227605692"><ele>953.0</ele><time>2026-05-03T12:25:48Z</time></trkpt><trkpt lat="42.32736154559595" lon="13.588119765046423"><ele>953.0</ele><time>2026-05-03T12:25:49Z</time></trkpt><trkpt lat="42.32726060056" lon="13.588230126063669"><ele>953.0</ele><time>2026-05-03T12:25:50Z</time></trkpt><trkpt lat="42.32716679114706" lon="13.588326595919877"><ele>951.2</ele><time>2026-05-03T12:25:51Z</time></trkpt><trkpt lat="42.327081194277596" lon="13.588399413704616"><ele>949.4</ele><time>2026-05-03T12:25:52Z</time></trkpt><trkpt lat="42.327000857083114" lon="13.588454398453534"><ele>947.6000000000001</ele><time>2026-05-03T12:25:53Z</time></trkpt><trkpt lat="42.32692461779256" lon="13.588451155880515"><ele>945.8000000000001</ele><time>2026-05-03T12:25:54Z</time></trkpt><trkpt lat="42.32682771762945" lon="13.58844115726978"><ele>944.0</ele><time>2026-05-03T12:25:55Z</time></trkpt><trkpt lat="42.326744790612516" lon="13.588326969174942"><ele>944.0</ele><time>2026-05-03T12:25:56Z</time></trkpt><trkpt lat="42.326615372113636" lon="13.588235092966666"><ele>944.0</ele><time>2026-05-03T12:25:57Z</time></trkpt><trkpt lat="42.326486335176824" lon="13.588140899539182"><ele>944.0</ele><time>2026-05-03T12:25:58Z</time></trkpt><trkpt lat="42.32636424026616" lon="13.588056510980591"><ele>944.0</ele><time>2026-05-03T12:25:59Z</time></trkpt><trkpt lat="42.32625451508801" lon="13.58797568407244"><ele>942.6</ele><time>2026-05-03T12:26:00Z</time></trkpt><trkpt lat="42.326149796002" lon="13.587883688282233"><ele>941.2</ele><time>2026-05-03T12:26:01Z</time></trkpt><trkpt lat="42.32605717426671" lon="13.587786547894812"><ele>939.8000000000001</ele><time>2026-05-03T12:26:02Z</time></trkpt><trkpt lat="42.32598516662334" lon="13.587688603684457"><ele>938.4000000000001</ele><time>2026-05-03T12:26:03Z</time></trkpt><trkpt lat="42.32592333805007" lon="13.587579642597682"><ele>937.0</ele><time>2026-05-03T12:26:04Z</time></trkpt><trkpt lat="42.32591406759616" lon="13.587461165870526"><ele>936.5</ele><time>2026-05-03T12:26:05Z</time></trkpt><trkpt lat="42.325905882017054" lon="13.587280462082203"><ele>936.0</ele><time>2026-05-03T12:26:06Z</time></trkpt><trkpt lat="42.325901780530536" lon="13.58707195407739"><ele>935.5</ele><time>2026-05-03T12:26:07Z</time></trkpt><trkpt lat="42.32589784074908" lon="13.586898055018517"><ele>935.0</ele><time>2026-05-03T12:26:08Z</time></trkpt><trkpt lat="42.325891786242664" lon="13.586748775381018"><ele>934.8</ele><time>2026-05-03T12:26:09Z</time></trkpt><trkpt lat="42.32585797783539" lon="13.58665051449203"><ele>934.6</ele><time>2026-05-03T12:26:10Z</time></trkpt><trkpt lat="42.32584553296185" lon="13.58655463751376"><ele>934.4000000000001</ele><time>2026-05-03T12:26:11Z</time></trkpt><trkpt lat="42.325736044378885" lon="13.586504028884988"><ele>934.2</ele><time>2026-05-03T12:26:12Z</time></trkpt><trkpt lat="42.32562484959951" lon="13.586512804826508"><ele>934.0</ele><time>2026-05-03T12:26:13Z</time></trkpt><trkpt lat="42.32553546902926" lon="13.586593148499153"><ele>932.0</ele><time>2026-05-03T12:26:14Z</time></trkpt><trkpt lat="42.325467629658824" lon="13.586704696422027"><ele>930.0</ele><time>2026-05-03T12:26:15Z</time></trkpt><trkpt lat="42.32541740052529" lon="13.586857829057482"><ele>928.0</ele><time>2026-05-03T12:26:16Z</time></trkpt><trkpt lat="42.325351145341195" lon="13.587027174957855"><ele>926.0</ele><time>2026-05-03T12:26:17Z</time></trkpt><trkpt lat="42.32529323863401" lon="13.587216539984068"><ele>925.6666666666667</ele><time>2026-05-03T12:26:18Z</time></trkpt><trkpt lat="42.32523252291187" lon="13.587402344613965"><ele>925.3333333333333</ele><time>2026-05-03T12:26:19Z</time></trkpt><trkpt lat="42.32516898516854" lon="13.587597843266005"><ele>925.0</ele><time>2026-05-03T12:26:20Z</time></trkpt><trkpt lat="42.325112050904345" lon="13.587773023900871"><ele>925.5</ele><time>2026-05-03T12:26:21Z</time></trkpt><trkpt lat="42.32505427878141" lon="13.58795078106241"><ele>926.0</ele><time>2026-05-03T12:26:22Z</time></trkpt><trkpt lat="42.32499722973609" lon="13.588124733898017"><ele>926.5</ele><time>2026-05-03T12:26:23Z</time></trkpt><trkpt lat="42.32494103080805" lon="13.588298358454736"><ele>927.0</ele><time>2026-05-03T12:26:24Z</time></trkpt><trkpt lat="42.32488632126408" lon="13.588467464480926"><ele>927.0</ele><time>2026-05-03T12:26:25Z</time></trkpt><trkpt lat="42.324834677247935" lon="13.588626681367456"><ele>927.0</ele><time>2026-05-03T12:26:26Z</time></trkpt><trkpt lat="42.32480048314366" lon="13.588785735966809"><ele>927.0</ele><time>2026-05-03T12:26:27Z</time></trkpt><trkpt lat="42.324750443786826" lon="13.588933837519628"><ele>927.0</ele><time>2026-05-03T12:26:28Z</time></trkpt><trkpt lat="42.324700888070815" lon="13.589073489280764"><ele>926.8</ele><time>2026-05-03T12:26:29Z</time></trkpt><trkpt lat="42.324637125344466" lon="13.589193582864576"><ele>926.6</ele><time>2026-05-03T12:26:30Z</time></trkpt><trkpt lat="42.32458165875541" lon="13.589315911554253"><ele>926.3999999999999</ele><time>2026-05-03T12:26:31Z</time></trkpt><trkpt lat="42.32453066603101" lon="13.589432556957226"><ele>926.1999999999999</ele><time>2026-05-03T12:26:32Z</time></trkpt><trkpt lat="42.32448443029091" lon="13.589537020848438"><ele>926.0</ele><time>2026-05-03T12:26:33Z</time></trkpt><trkpt lat="42.32443990484855" lon="13.58960513953256"><ele>926.0</ele><time>2026-05-03T12:26:34Z</time></trkpt><trkpt lat="42.324330851757495" lon="13.589651817420094"><ele>925.9999999999999</ele><time>2026-05-03T12:26:36Z</time></trkpt><trkpt lat="42.32426288900435" lon="13.589575920973719"><ele>925.9999999999999</ele><time>2026-05-03T12:26:37Z</time></trkpt><trkpt lat="42.324168810761336" lon="13.589520884449033"><ele>926.0</ele><time>2026-05-03T12:26:38Z</time></trkpt><trkpt lat="42.324062885584475" lon="13.589459885366326"><ele>926.0</ele><time>2026-05-03T12:26:39Z</time></trkpt><trkpt lat="42.32394881952527" lon="13.589394198191135"><ele>923.75</ele><time>2026-05-03T12:26:40Z</time></trkpt><trkpt lat="42.323829971878894" lon="13.589325757463921"><ele>921.5</ele><time>2026-05-03T12:26:41Z</time></trkpt><trkpt lat="42.323707830378964" lon="13.589255119307202"><ele>919.25</ele><time>2026-05-03T12:26:42Z</time></trkpt><trkpt lat="42.323590920233826" lon="13.589187172477567"><ele>917.0</ele><time>2026-05-03T12:26:43Z</time></trkpt><trkpt lat="42.323472427588584" lon="13.589118306085737"><ele>917.0</ele><time>2026-05-03T12:26:44Z</time></trkpt><trkpt lat="42.32335448858476" lon="13.58904976150279"><ele>917.0</ele><time>2026-05-03T12:26:45Z</time></trkpt><trkpt lat="42.32323913176652" lon="13.588982717508348"><ele>917.0</ele><time>2026-05-03T12:26:46Z</time></trkpt><trkpt lat="42.32312559659344" lon="13.58891673221687"><ele>917.0</ele><time>2026-05-03T12:26:47Z</time></trkpt><trkpt lat="42.32300782394634" lon="13.588871490843012"><ele>915.75</ele><time>2026-05-03T12:26:48Z</time></trkpt><trkpt lat="42.322899763795846" lon="13.588785745594997"><ele>914.5</ele><time>2026-05-03T12:26:49Z</time></trkpt><trkpt lat="42.322778896969965" lon="13.58872585226045"><ele>913.25</ele><time>2026-05-03T12:26:50Z</time></trkpt><trkpt lat="42.322658789186676" lon="13.588645989093035"><ele>912.0</ele><time>2026-05-03T12:26:51Z</time></trkpt><trkpt lat="42.32253635644744" lon="13.588574982456812"><ele>911.25</ele><time>2026-05-03T12:26:52Z</time></trkpt><trkpt lat="42.32241950439956" lon="13.588507203542614"><ele>910.5</ele><time>2026-05-03T12:26:53Z</time></trkpt><trkpt lat="42.322303267391106" lon="13.588439778801948"><ele>909.75</ele><time>2026-05-03T12:26:54Z</time></trkpt><trkpt lat="42.32218349071877" lon="13.588370300740937"><ele>909.0</ele><time>2026-05-03T12:26:55Z</time></trkpt><trkpt lat="42.322061414268035" lon="13.588296413818009"><ele>907.0</ele><time>2026-05-03T12:26:56Z</time></trkpt><trkpt lat="42.32193876523789" lon="13.588222115957604"><ele>905.0</ele><time>2026-05-03T12:26:57Z</time></trkpt><trkpt lat="42.32181441131535" lon="13.588146987341391"><ele>903.0</ele><time>2026-05-03T12:26:58Z</time></trkpt><trkpt lat="42.32168822907429" lon="13.58807056566584"><ele>901.0</ele><time>2026-05-03T12:26:59Z</time></trkpt><trkpt lat="42.32156028380769" lon="13.58799599009377"><ele>901.0</ele><time>2026-05-03T12:27:00Z</time></trkpt><trkpt lat="42.321433681245374" lon="13.587924126474967"><ele>901.0</ele><time>2026-05-03T12:27:01Z</time></trkpt><trkpt lat="42.32130817385373" lon="13.587853076383457"><ele>901.0</ele><time>2026-05-03T12:27:02Z</time></trkpt><trkpt lat="42.32118592496936" lon="13.587783870933086"><ele>901.0</ele><time>2026-05-03T12:27:03Z</time></trkpt><trkpt lat="42.3210658468409" lon="13.587715894367545"><ele>900.0</ele><time>2026-05-03T12:27:04Z</time></trkpt><trkpt lat="42.32095050700983" lon="13.587650600201593"><ele>899.0</ele><time>2026-05-03T12:27:05Z</time></trkpt><trkpt lat="42.32083822779074" lon="13.58758605316598"><ele>898.0</ele><time>2026-05-03T12:27:06Z</time></trkpt><trkpt lat="42.32072760632586" lon="13.587521852174637"><ele>897.0</ele><time>2026-05-03T12:27:07Z</time></trkpt><trkpt lat="42.32061523040345" lon="13.587456633011955"><ele>896.0</ele><time>2026-05-03T12:27:08Z</time></trkpt><trkpt lat="42.32050734874397" lon="13.587394027159352"><ele>895.0</ele><time>2026-05-03T12:27:09Z</time></trkpt><trkpt lat="42.32040216510759" lon="13.587332987442593"><ele>894.0</ele><time>2026-05-03T12:27:10Z</time></trkpt><trkpt lat="42.32029702328012" lon="13.587271972007182"><ele>893.0</ele><time>2026-05-03T12:27:11Z</time></trkpt><trkpt lat="42.32020033684521" lon="13.587215863296988"><ele>893.0000000000001</ele><time>2026-05-03T12:27:12Z</time></trkpt><trkpt lat="42.3201104086993" lon="13.587163676543806"><ele>893.0</ele><time>2026-05-03T12:27:13Z</time></trkpt><trkpt lat="42.320027019519785" lon="13.587138978199315"><ele>893.0</ele><time>2026-05-03T12:27:14Z</time></trkpt><trkpt lat="42.31996395514521" lon="13.58710151452033"><ele>893.0</ele><time>2026-05-03T12:27:15Z</time></trkpt><trkpt lat="42.319871455689736" lon="13.587040289394624"><ele>893.0000000000001</ele><time>2026-05-03T12:27:17Z</time></trkpt><trkpt lat="42.319798925027996" lon="13.586993755692898"><ele>893.0</ele><time>2026-05-03T12:27:20Z</time></trkpt><trkpt lat="42.319739640684666" lon="13.586951100772"><ele>891.8</ele><time>2026-05-03T12:27:30.999Z</time></trkpt><trkpt lat="42.319696158278944" lon="13.586834082600157"><ele>890.5999999999999</ele><time>2026-05-03T12:27:32.999Z</time></trkpt><trkpt lat="42.31967560670916" lon="13.586745958551969"><ele>889.4000000000001</ele><time>2026-05-03T12:27:33.999Z</time></trkpt><trkpt lat="42.31966118653599" lon="13.586610936989423"><ele>888.2</ele><time>2026-05-03T12:27:34.999Z</time></trkpt><trkpt lat="42.3196305005504" lon="13.586445060862406"><ele>887.0</ele><time>2026-05-03T12:27:35.999Z</time></trkpt><trkpt lat="42.31959657665534" lon="13.586258294661913"><ele>886.6666666666667</ele><time>2026-05-03T12:27:36.999Z</time></trkpt><trkpt lat="42.319549279038455" lon="13.586060757010413"><ele>886.3333333333333</ele><time>2026-05-03T12:27:37.999Z</time></trkpt><trkpt lat="42.31949718346857" lon="13.585861040529279"><ele>886.0</ele><time>2026-05-03T12:27:38.999Z</time></trkpt><trkpt lat="42.319386045510434" lon="13.585675326550742"><ele>886.0</ele><time>2026-05-03T12:27:39.999Z</time></trkpt><trkpt lat="42.319246686660684" lon="13.585514291245953"><ele>886.0</ele><time>2026-05-03T12:27:41Z</time></trkpt><trkpt lat="42.31909780512311" lon="13.585371846510204"><ele>886.0</ele><time>2026-05-03T12:27:42Z</time></trkpt><trkpt lat="42.31895934786781" lon="13.58524459959917"><ele>886.0</ele><time>2026-05-03T12:27:43Z</time></trkpt><trkpt lat="42.318834425737265" lon="13.585117430628056"><ele>886.0</ele><time>2026-05-03T12:27:44Z</time></trkpt><trkpt lat="42.31871714524677" lon="13.584970721820804"><ele>886.0</ele><time>2026-05-03T12:27:45Z</time></trkpt><trkpt lat="42.31861212390014" lon="13.584804018006162"><ele>886.0</ele><time>2026-05-03T12:27:46Z</time></trkpt><trkpt lat="42.3185135493744" lon="13.584596654965846"><ele>886.0</ele><time>2026-05-03T12:27:47Z</time></trkpt><trkpt lat="42.318407990310774" lon="13.584347927237786"><ele>886.0</ele><time>2026-05-03T12:27:48Z</time></trkpt><trkpt lat="42.31830436879378" lon="13.584088846505892"><ele>886.3333333333333</ele><time>2026-05-03T12:27:49Z</time></trkpt><trkpt lat="42.31820052568472" lon="13.583829212023247"><ele>886.6666666666667</ele><time>2026-05-03T12:27:50Z</time></trkpt><trkpt lat="42.31809374607208" lon="13.583562235202043"><ele>887.0</ele><time>2026-05-03T12:27:51Z</time></trkpt><trkpt lat="42.31798825097753" lon="13.583298909720938"><ele>885.6666666666667</ele><time>2026-05-03T12:27:52Z</time></trkpt><trkpt lat="42.3178818263127" lon="13.583033295101192"><ele>884.3333333333333</ele><time>2026-05-03T12:27:53Z</time></trkpt><trkpt lat="42.31777434505908" lon="13.58276484844853"><ele>883.0</ele><time>2026-05-03T12:27:54Z</time></trkpt><trkpt lat="42.317668011558396" lon="13.58249802394275"><ele>883.0</ele><time>2026-05-03T12:27:55Z</time></trkpt><trkpt lat="42.3175632360318" lon="13.582234999899054"><ele>883.0</ele><time>2026-05-03T12:27:56Z</time></trkpt><trkpt lat="42.317460156476415" lon="13.5819762333322"><ele>883.0</ele><time>2026-05-03T12:27:57Z</time></trkpt><trkpt lat="42.31735786716303" lon="13.581719450491518"><ele>884.0</ele><time>2026-05-03T12:27:58Z</time></trkpt><trkpt lat="42.31725838047726" lon="13.581469703355916"><ele>885.0</ele><time>2026-05-03T12:27:59Z</time></trkpt><trkpt lat="42.31715573443635" lon="13.581212024841252"><ele>886.0</ele><time>2026-05-03T12:28:00Z</time></trkpt><trkpt lat="42.31704377942813" lon="13.580975334174175"><ele>883.0</ele><time>2026-05-03T12:28:01Z</time></trkpt><trkpt lat="42.31696344058957" lon="13.580729298102773"><ele>880.0</ele><time>2026-05-03T12:28:02Z</time></trkpt><trkpt lat="42.316873169614894" lon="13.58050268583028"><ele>877.0</ele><time>2026-05-03T12:28:03Z</time></trkpt><trkpt lat="42.31678446230253" lon="13.58028006474826"><ele>877.0</ele><time>2026-05-03T12:28:04Z</time></trkpt><trkpt lat="42.31669588653927" lon="13.580062276832168"><ele>877.0</ele><time>2026-05-03T12:28:05Z</time></trkpt><trkpt lat="42.316617032804686" lon="13.579851618218905"><ele>877.0</ele><time>2026-05-03T12:28:06Z</time></trkpt><trkpt lat="42.316555284093226" lon="13.579627728122311"><ele>877.0</ele><time>2026-05-03T12:28:07Z</time></trkpt><trkpt lat="42.31650720645162" lon="13.579376475662135"><ele>877.0</ele><time>2026-05-03T12:28:08Z</time></trkpt><trkpt lat="42.316463898658604" lon="13.579108148304844"><ele>877.0</ele><time>2026-05-03T12:28:09Z</time></trkpt><trkpt lat="42.316406726021796" lon="13.578819464943594"><ele>872.5</ele><time>2026-05-03T12:28:10Z</time></trkpt><trkpt lat="42.316373622376986" lon="13.57852506999763"><ele>868.0</ele><time>2026-05-03T12:28:11Z</time></trkpt><trkpt lat="42.31632626122465" lon="13.57821891757902"><ele>868.0</ele><time>2026-05-03T12:28:12Z</time></trkpt><trkpt lat="42.316277689307306" lon="13.57790381657407"><ele>868.0</ele><time>2026-05-03T12:28:13Z</time></trkpt><trkpt lat="42.31622835632387" lon="13.577583451240107"><ele>868.0</ele><time>2026-05-03T12:28:14Z</time></trkpt><trkpt lat="42.31617838928634" lon="13.5772589680962"><ele>868.0</ele><time>2026-05-03T12:28:15Z</time></trkpt><trkpt lat="42.31612868605522" lon="13.576936198110149"><ele>869.0</ele><time>2026-05-03T12:28:16Z</time></trkpt><trkpt lat="42.316079295000605" lon="13.576615455506829"><ele>870.0</ele><time>2026-05-03T12:28:17Z</time></trkpt><trkpt lat="42.31602984803941" lon="13.576295825209547"><ele>870.0</ele><time>2026-05-03T12:28:18Z</time></trkpt><trkpt lat="42.31598052747245" lon="13.575977994070524"><ele>870.0</ele><time>2026-05-03T12:28:19Z</time></trkpt><trkpt lat="42.31593168587226" lon="13.575663249980847"><ele>870.0</ele><time>2026-05-03T12:28:20Z</time></trkpt><trkpt lat="42.31588417344044" lon="13.57535707065049"><ele>870.0</ele><time>2026-05-03T12:28:21Z</time></trkpt><trkpt lat="42.31582362853411" lon="13.575055729886907"><ele>869.5</ele><time>2026-05-03T12:28:22Z</time></trkpt><trkpt lat="42.315790007217416" lon="13.574750245865133"><ele>869.0</ele><time>2026-05-03T12:28:23Z</time></trkpt><trkpt lat="42.31574136820262" lon="13.574436807281682"><ele>869.0</ele><time>2026-05-03T12:28:24Z</time></trkpt><trkpt lat="42.315693536266565" lon="13.574128569219072"><ele>869.0</ele><time>2026-05-03T12:28:25Z</time></trkpt><trkpt lat="42.315645552363065" lon="13.573820126685373"><ele>869.0</ele><time>2026-05-03T12:28:26Z</time></trkpt><trkpt lat="42.315598003086095" lon="13.57351517470762"><ele>869.0</ele><time>2026-05-03T12:28:27Z</time></trkpt><trkpt lat="42.315549298499384" lon="13.573202813712111"><ele>867.5</ele><time>2026-05-03T12:28:28Z</time></trkpt><trkpt lat="42.31550177706815" lon="13.572898040470697"><ele>866.0</ele><time>2026-05-03T12:28:29Z</time></trkpt><trkpt lat="42.31545437468641" lon="13.572594030981936"><ele>866.0</ele><time>2026-05-03T12:28:30Z</time></trkpt><trkpt lat="42.315405843163" lon="13.572282779833413"><ele>866.0</ele><time>2026-05-03T12:28:31Z</time></trkpt><trkpt lat="42.315343200795006" lon="13.571986069442595"><ele>865.5</ele><time>2026-05-03T12:28:32Z</time></trkpt><trkpt lat="42.31530572385266" lon="13.571683201190123"><ele>865.0</ele><time>2026-05-03T12:28:33Z</time></trkpt><trkpt lat="42.31525470966806" lon="13.571388842710657"><ele>865.3333333333333</ele><time>2026-05-03T12:28:34Z</time></trkpt><trkpt lat="42.31521924703039" lon="13.571096672472729"><ele>865.6666666666667</ele><time>2026-05-03T12:28:35Z</time></trkpt><trkpt lat="42.31517167719775" lon="13.570795652774182"><ele>866.0</ele><time>2026-05-03T12:28:36Z</time></trkpt><trkpt lat="42.31512896011091" lon="13.570525340666165"><ele>865.0</ele><time>2026-05-03T12:28:37Z</time></trkpt><trkpt lat="42.31508497485407" lon="13.570240963677222"><ele>864.0</ele><time>2026-05-03T12:28:38Z</time></trkpt><trkpt lat="42.315042402103664" lon="13.569964264265392"><ele>863.0</ele><time>2026-05-03T12:28:39Z</time></trkpt><trkpt lat="42.315000103022356" lon="13.569689343515373"><ele>863.0</ele><time>2026-05-03T12:28:40Z</time></trkpt><trkpt lat="42.31495581285775" lon="13.569401481880243"><ele>863.0</ele><time>2026-05-03T12:28:41Z</time></trkpt><trkpt lat="42.31490853528275" lon="13.569094203670739"><ele>863.0</ele><time>2026-05-03T12:28:42Z</time></trkpt><trkpt lat="42.314861274816074" lon="13.568787036545812"><ele>864.0</ele><time>2026-05-03T12:28:43Z</time></trkpt><trkpt lat="42.314815282902345" lon="13.568488114655917"><ele>865.0</ele><time>2026-05-03T12:28:44Z</time></trkpt><trkpt lat="42.314768737107165" lon="13.568185592590561"><ele>861.5</ele><time>2026-05-03T12:28:45Z</time></trkpt><trkpt lat="42.314721584761486" lon="13.567879115588882"><ele>858.0</ele><time>2026-05-03T12:28:46Z</time></trkpt><trkpt lat="42.31467291455653" lon="13.567562768695714"><ele>857.5</ele><time>2026-05-03T12:28:47Z</time></trkpt><trkpt lat="42.31462421742201" lon="13.567257514467878"><ele>857.0</ele><time>2026-05-03T12:28:48Z</time></trkpt><trkpt lat="42.31454667478137" lon="13.566956839592429"><ele>858.0</ele><time>2026-05-03T12:28:49Z</time></trkpt><trkpt lat="42.31449898631028" lon="13.566641885888302"><ele>859.0</ele><time>2026-05-03T12:28:50Z</time></trkpt><trkpt lat="42.31445794643723" lon="13.566332104786309"><ele>860.0</ele><time>2026-05-03T12:28:51Z</time></trkpt><trkpt lat="42.31441150284486" lon="13.566045226697353"><ele>861.0</ele><time>2026-05-03T12:28:52Z</time></trkpt><trkpt lat="42.31436466483399" lon="13.565752210133898"><ele>862.0</ele><time>2026-05-03T12:28:53Z</time></trkpt><trkpt lat="42.314319961954126" lon="13.56546462389746"><ele>862.3333333333333</ele><time>2026-05-03T12:28:54Z</time></trkpt><trkpt lat="42.31427518025001" lon="13.565180439559661"><ele>862.6666666666667</ele><time>2026-05-03T12:28:55Z</time></trkpt><trkpt lat="42.31422603515933" lon="13.564900459871582"><ele>863.0</ele><time>2026-05-03T12:28:56Z</time></trkpt><trkpt lat="42.314178540606" lon="13.56462171511965"><ele>863.6666666666667</ele><time>2026-05-03T12:28:57Z</time></trkpt><trkpt lat="42.31413021448677" lon="13.564350297438287"><ele>864.3333333333333</ele><time>2026-05-03T12:28:58Z</time></trkpt><trkpt lat="42.31409189677064" lon="13.564074336433382"><ele>865.0</ele><time>2026-05-03T12:28:59Z</time></trkpt><trkpt lat="42.31405734195723" lon="13.563804884712814"><ele>865.6666666666666</ele><time>2026-05-03T12:29:00Z</time></trkpt><trkpt lat="42.31403257368403" lon="13.563540707649869"><ele>866.3333333333333</ele><time>2026-05-03T12:29:01Z</time></trkpt><trkpt lat="42.31402028832366" lon="13.56327188405179"><ele>867.0</ele><time>2026-05-03T12:29:02Z</time></trkpt><trkpt lat="42.3140354923101" lon="13.563002678191669"><ele>866.0</ele><time>2026-05-03T12:29:03Z</time></trkpt><trkpt lat="42.314073671355125" lon="13.562698884203028"><ele>865.0</ele><time>2026-05-03T12:29:04Z</time></trkpt><trkpt lat="42.31412893125431" lon="13.562424069461185"><ele>864.0</ele><time>2026-05-03T12:29:05Z</time></trkpt><trkpt lat="42.314185119854436" lon="13.562149008891124"><ele>862.6666666666667</ele><time>2026-05-03T12:29:06Z</time></trkpt><trkpt lat="42.314241913109726" lon="13.561862992415307"><ele>861.3333333333334</ele><time>2026-05-03T12:29:07Z</time></trkpt><trkpt lat="42.31429110477354" lon="13.56158918375613"><ele>860.0</ele><time>2026-05-03T12:29:08Z</time></trkpt><trkpt lat="42.31433513740417" lon="13.561310621183392"><ele>858.0</ele><time>2026-05-03T12:29:09Z</time></trkpt><trkpt lat="42.314382901246375" lon="13.561022330854923"><ele>856.0</ele><time>2026-05-03T12:29:09.999Z</time></trkpt><trkpt lat="42.31443177330791" lon="13.560730901476497"><ele>854.0</ele><time>2026-05-03T12:29:10.999Z</time></trkpt><trkpt lat="42.314486690411236" lon="13.560447463029014"><ele>852.0</ele><time>2026-05-03T12:29:11.999Z</time></trkpt><trkpt lat="42.31454627529369" lon="13.560166170116874"><ele>850.0</ele><time>2026-05-03T12:29:12.999Z</time></trkpt><trkpt lat="42.31462146576868" lon="13.559883575107136"><ele>848.0</ele><time>2026-05-03T12:29:13.999Z</time></trkpt><trkpt lat="42.314721656282835" lon="13.559601503185808"><ele>850.5</ele><time>2026-05-03T12:29:14.999Z</time></trkpt><trkpt lat="42.31483763023481" lon="13.559325998876647"><ele>853.0</ele><time>2026-05-03T12:29:15.999Z</time></trkpt><trkpt lat="42.31495303054574" lon="13.55904860302744"><ele>853.0</ele><time>2026-05-03T12:29:16.999Z</time></trkpt><trkpt lat="42.31506015929008" lon="13.55876628249304"><ele>853.0</ele><time>2026-05-03T12:29:17.999Z</time></trkpt><trkpt lat="42.31516586512645" lon="13.558480715563926"><ele>849.0</ele><time>2026-05-03T12:29:18.999Z</time></trkpt><trkpt lat="42.31526967547455" lon="13.558196871506125"><ele>845.0</ele><time>2026-05-03T12:29:19.999Z</time></trkpt><trkpt lat="42.31537507522806" lon="13.557921073235674"><ele>845.0</ele><time>2026-05-03T12:29:20.999Z</time></trkpt><trkpt lat="42.315482494007576" lon="13.557649729077797"><ele>845.0</ele><time>2026-05-03T12:29:21.999Z</time></trkpt><trkpt lat="42.315591626700254" lon="13.557385952458663"><ele>845.0</ele><time>2026-05-03T12:29:22.999Z</time></trkpt><trkpt lat="42.31570265459849" lon="13.557120858941051"><ele>845.0</ele><time>2026-05-03T12:29:23.999Z</time></trkpt><trkpt lat="42.31580677979963" lon="13.556856303002544"><ele>845.0</ele><time>2026-05-03T12:29:24.999Z</time></trkpt><trkpt lat="42.3159120894401" lon="13.556597258277824"><ele>842.6666666666667</ele><time>2026-05-03T12:29:25.999Z</time></trkpt><trkpt lat="42.31602383984642" lon="13.55633590893107"><ele>840.3333333333333</ele><time>2026-05-03T12:29:26.999Z</time></trkpt><trkpt lat="42.31613249999796" lon="13.556074832870308"><ele>838.0</ele><time>2026-05-03T12:29:27.999Z</time></trkpt><trkpt lat="42.31625083568379" lon="13.555817199166682"><ele>835.6666666666666</ele><time>2026-05-03T12:29:28.999Z</time></trkpt><trkpt lat="42.31637555636462" lon="13.555568319089922"><ele>833.3333333333333</ele><time>2026-05-03T12:29:29.999Z</time></trkpt><trkpt lat="42.31650721117291" lon="13.555328124398343"><ele>831.0</ele><time>2026-05-03T12:29:30.999Z</time></trkpt><trkpt lat="42.31665102981101" lon="13.555097042610944"><ele>828.5</ele><time>2026-05-03T12:29:31.999Z</time></trkpt><trkpt lat="42.31679987851494" lon="13.554875803262748"><ele>826.0</ele><time>2026-05-03T12:29:32.999Z</time></trkpt><trkpt lat="42.31696094299512" lon="13.554655075038742"><ele>826.0</ele><time>2026-05-03T12:29:33.999Z</time></trkpt><trkpt lat="42.31712413741964" lon="13.55443789817918"><ele>826.0</ele><time>2026-05-03T12:29:34.999Z</time></trkpt><trkpt lat="42.31729752263889" lon="13.554227431656296"><ele>826.0</ele><time>2026-05-03T12:29:35.999Z</time></trkpt><trkpt lat="42.31747387361631" lon="13.554013750223422"><ele>826.0</ele><time>2026-05-03T12:29:36.999Z</time></trkpt><trkpt lat="42.3176515441235" lon="13.553793382688774"><ele>824.0</ele><time>2026-05-03T12:29:37.999Z</time></trkpt><trkpt lat="42.31782585311986" lon="13.553576118842466"><ele>822.0</ele><time>2026-05-03T12:29:38.999Z</time></trkpt><trkpt lat="42.31798584541569" lon="13.553335185573223"><ele>825.0</ele><time>2026-05-03T12:29:39.999Z</time></trkpt><trkpt lat="42.31816654535176" lon="13.553124194301823"><ele>828.0</ele><time>2026-05-03T12:29:40.999Z</time></trkpt><trkpt lat="42.31834497342832" lon="13.552904534383359"><ele>822.5</ele><time>2026-05-03T12:29:41.999Z</time></trkpt><trkpt lat="42.31851896296337" lon="13.55268309673711"><ele>817.0</ele><time>2026-05-03T12:29:42.999Z</time></trkpt><trkpt lat="42.31869004011928" lon="13.552456591242471"><ele>817.0</ele><time>2026-05-03T12:29:43.999Z</time></trkpt><trkpt lat="42.31887060493325" lon="13.552228765035181"><ele>817.0</ele><time>2026-05-03T12:29:44.999Z</time></trkpt><trkpt lat="42.319052900798454" lon="13.552016586532158"><ele>811.5</ele><time>2026-05-03T12:29:45.999Z</time></trkpt><trkpt lat="42.319222091210584" lon="13.551776270891605"><ele>806.0</ele><time>2026-05-03T12:29:47Z</time></trkpt><trkpt lat="42.31940442900403" lon="13.551547434122837"><ele>806.0</ele><time>2026-05-03T12:29:48Z</time></trkpt><trkpt lat="42.319583800643905" lon="13.551315054563478"><ele>806.0</ele><time>2026-05-03T12:29:49Z</time></trkpt><trkpt lat="42.319772963351056" lon="13.55109375618261"><ele>803.0</ele><time>2026-05-03T12:29:50Z</time></trkpt><trkpt lat="42.3199523618646" lon="13.550865923832436"><ele>800.0</ele><time>2026-05-03T12:29:51Z</time></trkpt><trkpt lat="42.32012422231008" lon="13.550633531560873"><ele>800.0</ele><time>2026-05-03T12:29:52Z</time></trkpt><trkpt lat="42.320303463152136" lon="13.550405723580349"><ele>800.0</ele><time>2026-05-03T12:29:53Z</time></trkpt><trkpt lat="42.32050335322333" lon="13.550207900469822"><ele>797.0</ele><time>2026-05-03T12:29:54Z</time></trkpt><trkpt lat="42.320674919471976" lon="13.549991320606145"><ele>794.0</ele><time>2026-05-03T12:29:55Z</time></trkpt><trkpt lat="42.32084903893852" lon="13.549773060589876"><ele>794.0</ele><time>2026-05-03T12:29:56Z</time></trkpt><trkpt lat="42.321017951194925" lon="13.549562783182857"><ele>794.0</ele><time>2026-05-03T12:29:57Z</time></trkpt><trkpt lat="42.32118395832478" lon="13.549355355449574"><ele>794.6666666666667</ele><time>2026-05-03T12:29:58Z</time></trkpt><trkpt lat="42.32134868462006" lon="13.549146386909557"><ele>795.3333333333333</ele><time>2026-05-03T12:29:59Z</time></trkpt><trkpt lat="42.32150594715878" lon="13.548936503070596"><ele>796.0</ele><time>2026-05-03T12:30:00Z</time></trkpt><trkpt lat="42.32165259538822" lon="13.548714443530699"><ele>790.6666666666666</ele><time>2026-05-03T12:30:01Z</time></trkpt><trkpt lat="42.32178413774447" lon="13.548468836774024"><ele>785.3333333333333</ele><time>2026-05-03T12:30:02Z</time></trkpt><trkpt lat="42.321901853673715" lon="13.548212405198385"><ele>780.0</ele><time>2026-05-03T12:30:03Z</time></trkpt><trkpt lat="42.32200629563786" lon="13.547950715104053"><ele>774.5</ele><time>2026-05-03T12:30:04Z</time></trkpt><trkpt lat="42.322095984807234" lon="13.54766826854159"><ele>769.0</ele><time>2026-05-03T12:30:05Z</time></trkpt><trkpt lat="42.32217171490513" lon="13.547363767777723"><ele>769.0</ele><time>2026-05-03T12:30:06Z</time></trkpt><trkpt lat="42.322215027308815" lon="13.547039983148299"><ele>769.0</ele><time>2026-05-03T12:30:07Z</time></trkpt><trkpt lat="42.322266868345196" lon="13.546704622804803"><ele>769.0</ele><time>2026-05-03T12:30:08Z</time></trkpt><trkpt lat="42.322333543528245" lon="13.546370977644449"><ele>769.0</ele><time>2026-05-03T12:30:09Z</time></trkpt><trkpt lat="42.32238905635653" lon="13.546009250216576"><ele>769.0</ele><time>2026-05-03T12:30:10Z</time></trkpt><trkpt lat="42.32244509546133" lon="13.545643863258109"><ele>769.0</ele><time>2026-05-03T12:30:11Z</time></trkpt><trkpt lat="42.322502932431256" lon="13.54526675390783"><ele>767.5</ele><time>2026-05-03T12:30:12Z</time></trkpt><trkpt lat="42.32256277593581" lon="13.544876561362702"><ele>766.0</ele><time>2026-05-03T12:30:13Z</time></trkpt><trkpt lat="42.3226103022131" lon="13.544477766184352"><ele>764.5</ele><time>2026-05-03T12:30:14Z</time></trkpt><trkpt lat="42.32267739727989" lon="13.544069942268711"><ele>763.0</ele><time>2026-05-03T12:30:15Z</time></trkpt><trkpt lat="42.32273635274373" lon="13.543690658900683"><ele>761.0</ele><time>2026-05-03T12:30:16Z</time></trkpt><trkpt lat="42.322787975692734" lon="13.543327595744396"><ele>759.0</ele><time>2026-05-03T12:30:17Z</time></trkpt><trkpt lat="42.32284499804972" lon="13.542973232239877"><ele>757.0</ele><time>2026-05-03T12:30:18Z</time></trkpt><trkpt lat="42.32288781038931" lon="13.542620418475861"><ele>755.0</ele><time>2026-05-03T12:30:19Z</time></trkpt><trkpt lat="42.322914295703065" lon="13.542262463371527"><ele>753.5</ele><time>2026-05-03T12:30:20Z</time></trkpt><trkpt lat="42.322920138309065" lon="13.541910115672318"><ele>752.0</ele><time>2026-05-03T12:30:21Z</time></trkpt><trkpt lat="42.32292543426111" lon="13.541562390236097"><ele>752.0</ele><time>2026-05-03T12:30:22Z</time></trkpt><trkpt lat="42.322934242091215" lon="13.541229007425866"><ele>752.0</ele><time>2026-05-03T12:30:23Z</time></trkpt><trkpt lat="42.32290438477504" lon="13.540913328491767"><ele>754.0</ele><time>2026-05-03T12:30:24Z</time></trkpt><trkpt lat="42.32288666783159" lon="13.540591005372438"><ele>756.0</ele><time>2026-05-03T12:30:25Z</time></trkpt><trkpt lat="42.32287202167664" lon="13.54027402194607"><ele>758.5</ele><time>2026-05-03T12:30:26Z</time></trkpt><trkpt lat="42.322853059493085" lon="13.539961828127565"><ele>761.0</ele><time>2026-05-03T12:30:27Z</time></trkpt><trkpt lat="42.32283657972246" lon="13.539637828965533"><ele>758.5</ele><time>2026-05-03T12:30:28Z</time></trkpt><trkpt lat="42.32281811948779" lon="13.539316781465494"><ele>756.0</ele><time>2026-05-03T12:30:29Z</time></trkpt><trkpt lat="42.32279411943988" lon="13.539010627931127"><ele>753.0</ele><time>2026-05-03T12:30:30Z</time></trkpt><trkpt lat="42.3227748893364" lon="13.538686895412114"><ele>750.0</ele><time>2026-05-03T12:30:31Z</time></trkpt><trkpt lat="42.32276008383413" lon="13.53836278826294"><ele>750.0</ele><time>2026-05-03T12:30:32Z</time></trkpt><trkpt lat="42.32274175203597" lon="13.538050026286092"><ele>750.0</ele><time>2026-05-03T12:30:33Z</time></trkpt><trkpt lat="42.322724850472994" lon="13.537730294654892"><ele>749.0</ele><time>2026-05-03T12:30:34Z</time></trkpt><trkpt lat="42.32272106142861" lon="13.537419474254484"><ele>748.0</ele><time>2026-05-03T12:30:35Z</time></trkpt><trkpt lat="42.32268761409063" lon="13.53711274991891"><ele>745.0</ele><time>2026-05-03T12:30:36Z</time></trkpt><trkpt lat="42.322673655446046" lon="13.536803860731043"><ele>742.0</ele><time>2026-05-03T12:30:37Z</time></trkpt><trkpt lat="42.322652954173904" lon="13.536503914859939"><ele>740.6666666666667</ele><time>2026-05-03T12:30:38Z</time></trkpt><trkpt lat="42.322636411783705" lon="13.53620688148116"><ele>739.3333333333334</ele><time>2026-05-03T12:30:39Z</time></trkpt><trkpt lat="42.32262783300072" lon="13.53591322754928"><ele>738.0</ele><time>2026-05-03T12:30:40Z</time></trkpt><trkpt lat="42.32262951265616" lon="13.535617259440151"><ele>736.6666666666666</ele><time>2026-05-03T12:30:41Z</time></trkpt><trkpt lat="42.32265852889569" lon="13.535334431548197"><ele>735.3333333333333</ele><time>2026-05-03T12:30:42Z</time></trkpt><trkpt lat="42.32270311814654" lon="13.53504268944731"><ele>734.0</ele><time>2026-05-03T12:30:43Z</time></trkpt><trkpt lat="42.32271292855691" lon="13.534765695823623"><ele>730.0</ele><time>2026-05-03T12:30:44Z</time></trkpt><trkpt lat="42.32283185109276" lon="13.534486481021505"><ele>726.0</ele><time>2026-05-03T12:30:45Z</time></trkpt><trkpt lat="42.32291189756245" lon="13.53420941415194"><ele>726.0</ele><time>2026-05-03T12:30:46Z</time></trkpt><trkpt lat="42.323006646784926" lon="13.533936649079148"><ele>726.0</ele><time>2026-05-03T12:30:47Z</time></trkpt><trkpt lat="42.32310710914243" lon="13.533666273769638"><ele>726.0</ele><time>2026-05-03T12:30:48Z</time></trkpt><trkpt lat="42.323216860115046" lon="13.533396587244397"><ele>724.5</ele><time>2026-05-03T12:30:49Z</time></trkpt><trkpt lat="42.32333406777272" lon="13.533134211475726"><ele>723.0</ele><time>2026-05-03T12:30:50Z</time></trkpt><trkpt lat="42.323438386575894" lon="13.53286377802809"><ele>723.0</ele><time>2026-05-03T12:30:51Z</time></trkpt><trkpt lat="42.32354454520232" lon="13.532590534772005"><ele>723.0</ele><time>2026-05-03T12:30:52Z</time></trkpt><trkpt lat="42.32365393785662" lon="13.5323158962628"><ele>719.0</ele><time>2026-05-03T12:30:53Z</time></trkpt><trkpt lat="42.32376477693211" lon="13.532033858323"><ele>715.0</ele><time>2026-05-03T12:30:54Z</time></trkpt><trkpt lat="42.32387069914751" lon="13.5317545379136"><ele>714.0</ele><time>2026-05-03T12:30:55Z</time></trkpt><trkpt lat="42.32398192994252" lon="13.531486900558493"><ele>713.0</ele><time>2026-05-03T12:30:56Z</time></trkpt><trkpt lat="42.32408844168922" lon="13.531222502573087"><ele>713.0</ele><time>2026-05-03T12:30:57Z</time></trkpt><trkpt lat="42.324190596190206" lon="13.530955640875288"><ele>713.0</ele><time>2026-05-03T12:30:58Z</time></trkpt><trkpt lat="42.32428536423405" lon="13.530675812080128"><ele>709.5</ele><time>2026-05-03T12:30:59Z</time></trkpt><trkpt lat="42.32437322701553" lon="13.530376004330666"><ele>706.0</ele><time>2026-05-03T12:31:00Z</time></trkpt><trkpt lat="42.32444155569712" lon="13.530060043473616"><ele>706.0</ele><time>2026-05-03T12:31:01Z</time></trkpt><trkpt lat="42.32447903306473" lon="13.529739448314135"><ele>706.0</ele><time>2026-05-03T12:31:02Z</time></trkpt><trkpt lat="42.32449574242033" lon="13.529408207638685"><ele>704.5</ele><time>2026-05-03T12:31:03Z</time></trkpt><trkpt lat="42.32449552858529" lon="13.529074200516787"><ele>703.0</ele><time>2026-05-03T12:31:04Z</time></trkpt><trkpt lat="42.324471105412655" lon="13.528726487816568"><ele>702.0</ele><time>2026-05-03T12:31:05Z</time></trkpt><trkpt lat="42.32442818708018" lon="13.52837064393289"><ele>701.0</ele><time>2026-05-03T12:31:06Z</time></trkpt><trkpt lat="42.32437945488864" lon="13.528003855857314"><ele>698.5</ele><time>2026-05-03T12:31:07Z</time></trkpt><trkpt lat="42.324335402585206" lon="13.527636861632773"><ele>696.0</ele><time>2026-05-03T12:31:08Z</time></trkpt><trkpt lat="42.32429934125939" lon="13.527292839172548"><ele>695.0</ele><time>2026-05-03T12:31:09Z</time></trkpt><trkpt lat="42.32426476064335" lon="13.52694535367653"><ele>694.0</ele><time>2026-05-03T12:31:10Z</time></trkpt><trkpt lat="42.32422411073623" lon="13.526607060909122"><ele>694.0</ele><time>2026-05-03T12:31:11Z</time></trkpt><trkpt lat="42.324175282628566" lon="13.526272164064382"><ele>694.0</ele><time>2026-05-03T12:31:12Z</time></trkpt><trkpt lat="42.32412066231604" lon="13.525940250645048"><ele>693.0</ele><time>2026-05-03T12:31:13Z</time></trkpt><trkpt lat="42.324064522345346" lon="13.525608011516344"><ele>692.0</ele><time>2026-05-03T12:31:14Z</time></trkpt><trkpt lat="42.324009250347096" lon="13.525280791976078"><ele>690.0</ele><time>2026-05-03T12:31:15Z</time></trkpt><trkpt lat="42.32396162940777" lon="13.524944728614068"><ele>688.0</ele><time>2026-05-03T12:31:15.999Z</time></trkpt><trkpt lat="42.32390173626057" lon="13.524632877298327"><ele>682.5</ele><time>2026-05-03T12:31:16.999Z</time></trkpt><trkpt lat="42.32384936782982" lon="13.5243194255841"><ele>677.0</ele><time>2026-05-03T12:31:17.999Z</time></trkpt><trkpt lat="42.323796712901654" lon="13.52400039320174"><ele>675.6666666666666</ele><time>2026-05-03T12:31:18.999Z</time></trkpt><trkpt lat="42.32374034006408" lon="13.523716043563864"><ele>674.3333333333334</ele><time>2026-05-03T12:31:19.999Z</time></trkpt><trkpt lat="42.32369445991016" lon="13.523418848858807"><ele>673.0</ele><time>2026-05-03T12:31:20.999Z</time></trkpt><trkpt lat="42.32364239951387" lon="13.523114507782312"><ele>671.5</ele><time>2026-05-03T12:31:21.999Z</time></trkpt><trkpt lat="42.323594931191714" lon="13.522802632270045"><ele>670.0</ele><time>2026-05-03T12:31:22.999Z</time></trkpt><trkpt lat="42.32357042371704" lon="13.522498218197574"><ele>670.0</ele><time>2026-05-03T12:31:23.999Z</time></trkpt><trkpt lat="42.32357643371552" lon="13.52218935882703"><ele>670.0</ele><time>2026-05-03T12:31:24.999Z</time></trkpt><trkpt lat="42.32360556003077" lon="13.521883468634215"><ele>668.0</ele><time>2026-05-03T12:31:25.999Z</time></trkpt><trkpt lat="42.32363799932008" lon="13.521583839019266"><ele>666.0</ele><time>2026-05-03T12:31:26.999Z</time></trkpt><trkpt lat="42.32366498670605" lon="13.521277088623918"><ele>665.5</ele><time>2026-05-03T12:31:27.999Z</time></trkpt><trkpt lat="42.323685997261336" lon="13.52097150601314"><ele>665.0</ele><time>2026-05-03T12:31:28.999Z</time></trkpt><trkpt lat="42.323711309389026" lon="13.520666495200594"><ele>664.0</ele><time>2026-05-03T12:31:29.999Z</time></trkpt><trkpt lat="42.32374119508813" lon="13.520363668999694"><ele>663.0</ele><time>2026-05-03T12:31:30.999Z</time></trkpt><trkpt lat="42.32376786111669" lon="13.520053355980275"><ele>663.0</ele><time>2026-05-03T12:31:31.999Z</time></trkpt><trkpt lat="42.323791364715206" lon="13.51973719786469"><ele>663.0</ele><time>2026-05-03T12:31:32.999Z</time></trkpt><trkpt lat="42.32381659163163" lon="13.519417647975715"><ele>661.5</ele><time>2026-05-03T12:31:33.999Z</time></trkpt><trkpt lat="42.323843790478314" lon="13.519092768894978"><ele>660.0</ele><time>2026-05-03T12:31:34.999Z</time></trkpt><trkpt lat="42.32386973481321" lon="13.518780175253706"><ele>660.3333333333334</ele><time>2026-05-03T12:31:35.999Z</time></trkpt><trkpt lat="42.32389264747474" lon="13.518476616766936"><ele>660.6666666666667</ele><time>2026-05-03T12:31:36.999Z</time></trkpt><trkpt lat="42.32391765573063" lon="13.51818339534632"><ele>661.0</ele><time>2026-05-03T12:31:37.999Z</time></trkpt><trkpt lat="42.323943225470096" lon="13.517891853000926"><ele>659.3333333333334</ele><time>2026-05-03T12:31:38.999Z</time></trkpt><trkpt lat="42.323964347296915" lon="13.517597705809393"><ele>657.6666666666666</ele><time>2026-05-03T12:31:39.999Z</time></trkpt><trkpt lat="42.32398469868215" lon="13.517319690812458"><ele>656.0</ele><time>2026-05-03T12:31:40.999Z</time></trkpt><trkpt lat="42.32400540529864" lon="13.517061708758385"><ele>654.3333333333333</ele><time>2026-05-03T12:31:41.999Z</time></trkpt><trkpt lat="42.32402343883306" lon="13.516834227383313"><ele>652.6666666666666</ele><time>2026-05-03T12:31:42.999Z</time></trkpt><trkpt lat="42.32404027999118" lon="13.51662379566226"><ele>651.0</ele><time>2026-05-03T12:31:43.999Z</time></trkpt><trkpt lat="42.32405622378128" lon="13.51643395989835"><ele>651.0</ele><time>2026-05-03T12:31:44.999Z</time></trkpt><trkpt lat="42.324069814460735" lon="13.516260988991668"><ele>651.0</ele><time>2026-05-03T12:31:45.999Z</time></trkpt><trkpt lat="42.324082307129125" lon="13.516108411345018"><ele>651.0</ele><time>2026-05-03T12:31:46.999Z</time></trkpt><trkpt lat="42.324093301415495" lon="13.516008315595414"><ele>651.0</ele><time>2026-05-03T12:31:47.999Z</time></trkpt><trkpt lat="42.32410080420991" lon="13.5159159451149"><ele>651.0</ele><time>2026-05-03T12:31:48.999Z</time></trkpt><trkpt lat="42.32413260660112" lon="13.5157838402964"><ele>650.4</ele><time>2026-05-03T12:31:50.999Z</time></trkpt><trkpt lat="42.324140808753725" lon="13.5156853353571"><ele>649.8</ele><time>2026-05-03T12:31:53Z</time></trkpt><trkpt lat="42.32414930239227" lon="13.515583329776694"><ele>649.1999999999999</ele><time>2026-05-03T12:31:55Z</time></trkpt><trkpt lat="42.32415815624762" lon="13.51547699797442"><ele>648.5999999999999</ele><time>2026-05-03T12:31:57Z</time></trkpt><trkpt lat="42.32416721530794" lon="13.515368201340623"><ele>648.0</ele><time>2026-05-03T12:31:59Z</time></trkpt><trkpt lat="42.32399762655907" lon="13.515253176375289"><ele>647.5</ele><time>2026-05-03T12:32:01Z</time></trkpt><trkpt lat="42.32400626461875" lon="13.515156943061912"><ele>647.0</ele><time>2026-05-03T12:32:04Z</time></trkpt><trkpt lat="42.324007989288674" lon="13.515050737492945"><ele>646.5</ele><time>2026-05-03T12:32:10Z</time></trkpt><trkpt lat="42.32419559644569" lon="13.515024264580104"><ele>646.0</ele><time>2026-05-03T12:32:28Z</time></trkpt><trkpt lat="42.324007195879965" lon="13.514997996692275"><ele>646.0</ele><time>2026-05-03T12:32:31Z</time></trkpt><trkpt lat="42.32419543034707" lon="13.515026272350525"><ele>646.0</ele><time>2026-05-03T12:32:33Z</time></trkpt><trkpt lat="42.324007195879965" lon="13.514997996692275"><ele>646.0</ele><time>2026-05-03T12:32:35Z</time></trkpt><trkpt lat="42.32406479457795" lon="13.514948353991151"><ele>646.0</ele><time>2026-05-03T12:35:21Z</time></trkpt><trkpt lat="42.32409866283227" lon="13.515026533298615"><ele>646.0</ele><time>2026-05-03T12:35:25Z</time></trkpt><trkpt lat="42.32402110134292" lon="13.515065943589107"><ele>646.0</ele><time>2026-05-03T12:35:28Z</time></trkpt><trkpt lat="42.3241009899083" lon="13.515010778600551"><ele>646.0</ele><time>2026-05-03T12:37:52.999Z</time></trkpt><trkpt lat="42.32403439832883" lon="13.514934993556198"><ele>646.0</ele><time>2026-05-03T12:38:01.999Z</time></trkpt><trkpt lat="42.324136907073246" lon="13.514951882905015"><ele>646.0</ele><time>2026-05-03T12:38:31Z</time></trkpt><trkpt lat="42.324211081967746" lon="13.51475133131217"><ele>646.0</ele><time>2026-05-03T12:38:34Z</time></trkpt><trkpt lat="42.324215134171354" lon="13.51464471976361"><ele>646.0</ele><time>2026-05-03T12:38:35Z</time></trkpt><trkpt lat="42.32422309327728" lon="13.51451889767821"><ele>646.0</ele><time>2026-05-03T12:38:36Z</time></trkpt><trkpt lat="42.324251396694564" lon="13.514355448623995"><ele>646.0</ele><time>2026-05-03T12:38:37Z</time></trkpt><trkpt lat="42.324264823122064" lon="13.514194722409725"><ele>646.0</ele><time>2026-05-03T12:38:38Z</time></trkpt><trkpt lat="42.32427947107819" lon="13.514019373399822"><ele>644.6666666666667</ele><time>2026-05-03T12:38:39Z</time></trkpt><trkpt lat="42.32429573180449" lon="13.513823503540817"><ele>643.3333333333334</ele><time>2026-05-03T12:38:40Z</time></trkpt><trkpt lat="42.324312154050475" lon="13.5136214951381"><ele>642.0</ele><time>2026-05-03T12:38:41Z</time></trkpt><trkpt lat="42.32432920795092" lon="13.513411716819526"><ele>641.3333333333334</ele><time>2026-05-03T12:38:42Z</time></trkpt><trkpt lat="42.32434653893666" lon="13.513198530102226"><ele>640.6666666666667</ele><time>2026-05-03T12:38:43Z</time></trkpt><trkpt lat="42.324364466378974" lon="13.512980715319436"><ele>640.0</ele><time>2026-05-03T12:38:44Z</time></trkpt><trkpt lat="42.32438281932316" lon="13.512757896991703"><ele>639.3333333333334</ele><time>2026-05-03T12:38:45Z</time></trkpt><trkpt lat="42.32440188889506" lon="13.512526378274753"><ele>638.6666666666666</ele><time>2026-05-03T12:38:46Z</time></trkpt><trkpt lat="42.32442167953936" lon="13.512292070832624"><ele>638.0</ele><time>2026-05-03T12:38:47Z</time></trkpt><trkpt lat="42.32444290790924" lon="13.512053426088334"><ele>637.6666666666666</ele><time>2026-05-03T12:38:48Z</time></trkpt><trkpt lat="42.32446290246159" lon="13.51182865116876"><ele>637.3333333333334</ele><time>2026-05-03T12:38:49Z</time></trkpt><trkpt lat="42.324481775834215" lon="13.511615455023662"><ele>637.0</ele><time>2026-05-03T12:38:50Z</time></trkpt><trkpt lat="42.32449975930574" lon="13.51141252415045"><ele>635.6666666666667</ele><time>2026-05-03T12:38:51Z</time></trkpt><trkpt lat="42.324505299253715" lon="13.511217156683621"><ele>634.3333333333334</ele><time>2026-05-03T12:38:52Z</time></trkpt><trkpt lat="42.32452322544897" lon="13.510998609585382"><ele>633.0</ele><time>2026-05-03T12:38:53Z</time></trkpt><trkpt lat="42.32454297050253" lon="13.510762536076982"><ele>633.0</ele><time>2026-05-03T12:38:54Z</time></trkpt><trkpt lat="42.324565142697445" lon="13.51051396151584"><ele>633.0</ele><time>2026-05-03T12:38:55Z</time></trkpt><trkpt lat="42.32458934787024" lon="13.510245921605165"><ele>633.0</ele><time>2026-05-03T12:38:56Z</time></trkpt><trkpt lat="42.32461643176793" lon="13.509962341607128"><ele>631.5</ele><time>2026-05-03T12:38:57Z</time></trkpt><trkpt lat="42.32464839739939" lon="13.509666173582135"><ele>630.0</ele><time>2026-05-03T12:38:58Z</time></trkpt><trkpt lat="42.32468085202199" lon="13.509353978331548"><ele>628.5</ele><time>2026-05-03T12:38:59Z</time></trkpt><trkpt lat="42.32471575710231" lon="13.509030831032556"><ele>627.0</ele><time>2026-05-03T12:39:00Z</time></trkpt><trkpt lat="42.324748403871126" lon="13.50869898495958"><ele>627.0</ele><time>2026-05-03T12:39:01Z</time></trkpt><trkpt lat="42.32477894642349" lon="13.508359955966705"><ele>627.0</ele><time>2026-05-03T12:39:02Z</time></trkpt><trkpt lat="42.32481103190036" lon="13.508026129450075"><ele>625.5</ele><time>2026-05-03T12:39:03Z</time></trkpt><trkpt lat="42.32484043607123" lon="13.507701213445381"><ele>624.0</ele><time>2026-05-03T12:39:04Z</time></trkpt><trkpt lat="42.324868568572626" lon="13.507369444188036"><ele>622.0</ele><time>2026-05-03T12:39:05Z</time></trkpt><trkpt lat="42.324901950172524" lon="13.507035437972188"><ele>620.0</ele><time>2026-05-03T12:39:06Z</time></trkpt><trkpt lat="42.32493863364296" lon="13.506697596465724"><ele>620.0</ele><time>2026-05-03T12:39:07Z</time></trkpt><trkpt lat="42.32497096363806" lon="13.506361790705292"><ele>620.0</ele><time>2026-05-03T12:39:08Z</time></trkpt><trkpt lat="42.32500227008966" lon="13.506026073703776"><ele>618.0</ele><time>2026-05-03T12:39:09Z</time></trkpt><trkpt lat="42.32503827599641" lon="13.505693783123101"><ele>616.0</ele><time>2026-05-03T12:39:10Z</time></trkpt><trkpt lat="42.32507010370038" lon="13.505369428519828"><ele>614.0</ele><time>2026-05-03T12:39:11Z</time></trkpt><trkpt lat="42.32510060445222" lon="13.505058470735406"><ele>612.0</ele><time>2026-05-03T12:39:12Z</time></trkpt><trkpt lat="42.325131001426804" lon="13.504754807160595"><ele>610.0</ele><time>2026-05-03T12:39:13Z</time></trkpt><trkpt lat="42.32516292422572" lon="13.504460447987523"><ele>608.0</ele><time>2026-05-03T12:39:14Z</time></trkpt><trkpt lat="42.325192181208386" lon="13.504195749022626"><ele>606.0</ele><time>2026-05-03T12:39:15Z</time></trkpt><trkpt lat="42.32521233505368" lon="13.503972760685782"><ele>606.0</ele><time>2026-05-03T12:39:16Z</time></trkpt><trkpt lat="42.325234216324226" lon="13.503770348777207"><ele>606.0</ele><time>2026-05-03T12:39:17Z</time></trkpt><trkpt lat="42.32525187698702" lon="13.503580211189398"><ele>606.0</ele><time>2026-05-03T12:39:18Z</time></trkpt><trkpt lat="42.32526938315184" lon="13.503400224911191"><ele>606.0</ele><time>2026-05-03T12:39:19Z</time></trkpt><trkpt lat="42.32528498365954" lon="13.503224644175203"><ele>605.0</ele><time>2026-05-03T12:39:19.999Z</time></trkpt><trkpt lat="42.325304665780706" lon="13.503036702311197"><ele>604.0</ele><time>2026-05-03T12:39:20.999Z</time></trkpt><trkpt lat="42.32532532868738" lon="13.502844657072131"><ele>603.0</ele><time>2026-05-03T12:39:21.999Z</time></trkpt><trkpt lat="42.325343660825766" lon="13.50265628793002"><ele>602.0</ele><time>2026-05-03T12:39:22.999Z</time></trkpt><trkpt lat="42.32536364870057" lon="13.502468276387036"><ele>601.5</ele><time>2026-05-03T12:39:23.999Z</time></trkpt><trkpt lat="42.32537606725627" lon="13.50228975438474"><ele>601.0</ele><time>2026-05-03T12:39:24.999Z</time></trkpt><trkpt lat="42.32539144233198" lon="13.502108987278445"><ele>600.5</ele><time>2026-05-03T12:39:25.999Z</time></trkpt><trkpt lat="42.32540936727738" lon="13.501934584945186"><ele>600.0</ele><time>2026-05-03T12:39:26.999Z</time></trkpt><trkpt lat="42.3254304107158" lon="13.501760380481251"><ele>599.0</ele><time>2026-05-03T12:39:27.999Z</time></trkpt><trkpt lat="42.32544937117574" lon="13.501587472585035"><ele>598.0</ele><time>2026-05-03T12:39:28.999Z</time></trkpt><trkpt lat="42.32546422743889" lon="13.501419061653504"><ele>597.0</ele><time>2026-05-03T12:39:29.999Z</time></trkpt><trkpt lat="42.32548005372744" lon="13.501251130228809"><ele>596.0</ele><time>2026-05-03T12:39:30.999Z</time></trkpt><trkpt lat="42.325495720259134" lon="13.501080814185508"><ele>596.25</ele><time>2026-05-03T12:39:31.999Z</time></trkpt><trkpt lat="42.32551166598004" lon="13.500907261736952"><ele>596.5</ele><time>2026-05-03T12:39:32.999Z</time></trkpt><trkpt lat="42.3255256899252" lon="13.500729615023559"><ele>596.75</ele><time>2026-05-03T12:39:33.999Z</time></trkpt><trkpt lat="42.32554266423559" lon="13.500548556316136"><ele>597.0</ele><time>2026-05-03T12:39:34.999Z</time></trkpt><trkpt lat="42.32556276017811" lon="13.500364573385363"><ele>597.0</ele><time>2026-05-03T12:39:35.999Z</time></trkpt><trkpt lat="42.32558376957862" lon="13.500175712510242"><ele>597.0</ele><time>2026-05-03T12:39:36.999Z</time></trkpt><trkpt lat="42.32560114325523" lon="13.49998116592788"><ele>597.0</ele><time>2026-05-03T12:39:37.999Z</time></trkpt><trkpt lat="42.325620897119975" lon="13.499782261619758"><ele>597.0</ele><time>2026-05-03T12:39:38.999Z</time></trkpt><trkpt lat="42.32564527211311" lon="13.499577281758324"><ele>596.3333333333334</ele><time>2026-05-03T12:39:39.999Z</time></trkpt><trkpt lat="42.325667783716185" lon="13.499370712522396"><ele>595.6666666666667</ele><time>2026-05-03T12:39:40.999Z</time></trkpt><trkpt lat="42.325689977773735" lon="13.499159915704592"><ele>595.0</ele><time>2026-05-03T12:39:41.999Z</time></trkpt><trkpt lat="42.325710242751214" lon="13.498950560092542"><ele>593.3333333333334</ele><time>2026-05-03T12:39:42.999Z</time></trkpt><trkpt lat="42.32573005142142" lon="13.498739632776372"><ele>591.6666666666666</ele><time>2026-05-03T12:39:43.999Z</time></trkpt><trkpt lat="42.32575362778528" lon="13.498532987951565"><ele>590.0</ele><time>2026-05-03T12:39:44.999Z</time></trkpt><trkpt lat="42.3257738155273" lon="13.498331432214682"><ele>590.0</ele><time>2026-05-03T12:39:45.999Z</time></trkpt><trkpt lat="42.32579505743805" lon="13.498138075259217"><ele>590.0</ele><time>2026-05-03T12:39:46.999Z</time></trkpt><trkpt lat="42.325822934925085" lon="13.497955306256296"><ele>590.0</ele><time>2026-05-03T12:39:47.999Z</time></trkpt><trkpt lat="42.32583880971608" lon="13.497793844445466"><ele>590.0</ele><time>2026-05-03T12:39:48.999Z</time></trkpt><trkpt lat="42.32585365586011" lon="13.497652968179612"><ele>589.2</ele><time>2026-05-03T12:39:49.999Z</time></trkpt><trkpt lat="42.32586574996478" lon="13.497536825627959"><ele>588.4</ele><time>2026-05-03T12:39:50.999Z</time></trkpt><trkpt lat="42.32587425321618" lon="13.497441065718528"><ele>587.6</ele><time>2026-05-03T12:39:51.999Z</time></trkpt><trkpt lat="42.325887939534574" lon="13.49728249635642"><ele>586.8</ele><time>2026-05-03T12:39:53.999Z</time></trkpt><trkpt lat="42.32587729525056" lon="13.49714946329161"><ele>586.0</ele><time>2026-05-03T12:39:55.999Z</time></trkpt><trkpt lat="42.32579467482044" lon="13.497105550679809"><ele>586.0</ele><time>2026-05-03T12:39:57.999Z</time></trkpt><trkpt lat="42.325734927428" lon="13.497205292978375"><ele>586.0</ele><time>2026-05-03T12:39:59.999Z</time></trkpt><trkpt lat="42.32569184763647" lon="13.497357442175204"><ele>586.0</ele><time>2026-05-03T12:40:01.999Z</time></trkpt><trkpt lat="42.32564945549516" lon="13.497449057104506"><ele>586.0</ele><time>2026-05-03T12:40:02.999Z</time></trkpt><trkpt lat="42.3256039493835" lon="13.497564292038742"><ele>586.0</ele><time>2026-05-03T12:40:03.999Z</time></trkpt><trkpt lat="42.32554206232583" lon="13.49770528164716"><ele>585.25</ele><time>2026-05-03T12:40:04.999Z</time></trkpt><trkpt lat="42.325474212033775" lon="13.497848231704973"><ele>584.5</ele><time>2026-05-03T12:40:05.999Z</time></trkpt><trkpt lat="42.32539032894488" lon="13.497994575407409"><ele>583.75</ele><time>2026-05-03T12:40:06.999Z</time></trkpt><trkpt lat="42.32529695655249" lon="13.498143761201334"><ele>583.0</ele><time>2026-05-03T12:40:07.999Z</time></trkpt><trkpt lat="42.325190931396065" lon="13.49828498034341"><ele>583.0</ele><time>2026-05-03T12:40:08.999Z</time></trkpt><trkpt lat="42.3250747825188" lon="13.49843928837784"><ele>583.0</ele><time>2026-05-03T12:40:09.999Z</time></trkpt><trkpt lat="42.324943991971146" lon="13.49860065821624"><ele>583.0</ele><time>2026-05-03T12:40:10.999Z</time></trkpt><trkpt lat="42.3248143118461" lon="13.498758064456712"><ele>583.3333333333334</ele><time>2026-05-03T12:40:11.999Z</time></trkpt><trkpt lat="42.3246778568751" lon="13.498924739571462"><ele>583.6666666666666</ele><time>2026-05-03T12:40:12.999Z</time></trkpt><trkpt lat="42.324543641399714" lon="13.499093739549375"><ele>584.0</ele><time>2026-05-03T12:40:13.999Z</time></trkpt><trkpt lat="42.32441225039499" lon="13.499262237839995"><ele>584.0</ele><time>2026-05-03T12:40:14.999Z</time></trkpt><trkpt lat="42.32428167357796" lon="13.499424007557637"><ele>584.0</ele><time>2026-05-03T12:40:15.999Z</time></trkpt><trkpt lat="42.324155002014194" lon="13.499579600859184"><ele>584.0</ele><time>2026-05-03T12:40:16.999Z</time></trkpt><trkpt lat="42.32402980772866" lon="13.49972640755815"><ele>583.6666666666666</ele><time>2026-05-03T12:40:17.999Z</time></trkpt><trkpt lat="42.32391016976652" lon="13.49986899806337"><ele>583.3333333333334</ele><time>2026-05-03T12:40:18.999Z</time></trkpt><trkpt lat="42.32379797982281" lon="13.500013863981076"><ele>583.0</ele><time>2026-05-03T12:40:19.999Z</time></trkpt><trkpt lat="42.3236846081899" lon="13.500164547701106"><ele>583.0</ele><time>2026-05-03T12:40:20.999Z</time></trkpt><trkpt lat="42.323557827748935" lon="13.50031211433509"><ele>583.0</ele><time>2026-05-03T12:40:21.999Z</time></trkpt><trkpt lat="42.323441868736275" lon="13.500486749948703"><ele>583.0</ele><time>2026-05-03T12:40:22.999Z</time></trkpt><trkpt lat="42.323336514190466" lon="13.50068211743423"><ele>583.6666666666667</ele><time>2026-05-03T12:40:23.999Z</time></trkpt><trkpt lat="42.323222182885196" lon="13.50087305570161"><ele>584.3333333333334</ele><time>2026-05-03T12:40:24.999Z</time></trkpt><trkpt lat="42.3231124208827" lon="13.50106453601021"><ele>585.0</ele><time>2026-05-03T12:40:25.999Z</time></trkpt><trkpt lat="42.322997575331215" lon="13.5012518763187"><ele>585.3333333333334</ele><time>2026-05-03T12:40:26.999Z</time></trkpt><trkpt lat="42.32287858451807" lon="13.501438320549038"><ele>585.6666666666667</ele><time>2026-05-03T12:40:27.999Z</time></trkpt><trkpt lat="42.322751089393094" lon="13.50163116897965"><ele>586.0</ele><time>2026-05-03T12:40:28.999Z</time></trkpt><trkpt lat="42.3226146202471" lon="13.501825091255805"><ele>586.0</ele><time>2026-05-03T12:40:29.999Z</time></trkpt><trkpt lat="42.32245880787597" lon="13.501991169924919"><ele>586.0</ele><time>2026-05-03T12:40:30.999Z</time></trkpt><trkpt lat="42.322312188888986" lon="13.502155948024644"><ele>586.0</ele><time>2026-05-03T12:40:31.999Z</time></trkpt><trkpt lat="42.32216569835059" lon="13.502315731716255"><ele>585.3333333333334</ele><time>2026-05-03T12:40:32.999Z</time></trkpt><trkpt lat="42.322019121451994" lon="13.502473268482504"><ele>584.6666666666666</ele><time>2026-05-03T12:40:33.999Z</time></trkpt><trkpt lat="42.32186705374417" lon="13.502635801364745"><ele>584.0</ele><time>2026-05-03T12:40:34.999Z</time></trkpt><trkpt lat="42.32170026135952" lon="13.502813378007565"><ele>584.3333333333333</ele><time>2026-05-03T12:40:35.999Z</time></trkpt><trkpt lat="42.3215356754083" lon="13.502986290500505"><ele>584.6666666666666</ele><time>2026-05-03T12:40:36.999Z</time></trkpt><trkpt lat="42.32137561637592" lon="13.503155061825375"><ele>585.0</ele><time>2026-05-03T12:40:37.999Z</time></trkpt><trkpt lat="42.32121272597294" lon="13.503328717762148"><ele>585.0</ele><time>2026-05-03T12:40:38.999Z</time></trkpt><trkpt lat="42.32104553024998" lon="13.503506963424366"><ele>585.0</ele><time>2026-05-03T12:40:39.999Z</time></trkpt><trkpt lat="42.32088118028322" lon="13.503682176817753"><ele>585.0</ele><time>2026-05-03T12:40:40.999Z</time></trkpt><trkpt lat="42.32072236570989" lon="13.503849768102752"><ele>584.6666666666666</ele><time>2026-05-03T12:40:41.999Z</time></trkpt><trkpt lat="42.320562543690315" lon="13.504018920530424"><ele>584.3333333333333</ele><time>2026-05-03T12:40:42.999Z</time></trkpt><trkpt lat="42.320416395413254" lon="13.504201289298377"><ele>584.0</ele><time>2026-05-03T12:40:43.999Z</time></trkpt><trkpt lat="42.320257662741675" lon="13.504342830949124"><ele>584.0</ele><time>2026-05-03T12:40:44.999Z</time></trkpt><trkpt lat="42.32011541550361" lon="13.504494970755566"><ele>584.0</ele><time>2026-05-03T12:40:45.999Z</time></trkpt><trkpt lat="42.31999425493677" lon="13.504665300750712"><ele>584.0</ele><time>2026-05-03T12:40:46.999Z</time></trkpt><trkpt lat="42.319865278730674" lon="13.504823520856059"><ele>584.6666666666666</ele><time>2026-05-03T12:40:47.999Z</time></trkpt><trkpt lat="42.31973969601814" lon="13.50499300573254"><ele>585.3333333333334</ele><time>2026-05-03T12:40:48.999Z</time></trkpt><trkpt lat="42.31961241324449" lon="13.50516599777615"><ele>586.0</ele><time>2026-05-03T12:40:49.999Z</time></trkpt><trkpt lat="42.31947558509004" lon="13.505330483143869"><ele>587.3333333333334</ele><time>2026-05-03T12:40:50.999Z</time></trkpt><trkpt lat="42.31935048296066" lon="13.505516725390992"><ele>588.6666666666666</ele><time>2026-05-03T12:40:51.999Z</time></trkpt><trkpt lat="42.31923392199584" lon="13.505707660506651"><ele>590.0</ele><time>2026-05-03T12:40:52.999Z</time></trkpt><trkpt lat="42.319121811174995" lon="13.505905606981406"><ele>590.0</ele><time>2026-05-03T12:40:53.999Z</time></trkpt><trkpt lat="42.31901116952908" lon="13.506111003382506"><ele>590.0</ele><time>2026-05-03T12:40:54.999Z</time></trkpt><trkpt lat="42.31890506351627" lon="13.506309758429683"><ele>590.0</ele><time>2026-05-03T12:40:55.999Z</time></trkpt><trkpt lat="42.318799336399145" lon="13.506507803730802"><ele>589.6666666666666</ele><time>2026-05-03T12:40:56.999Z</time></trkpt><trkpt lat="42.31869609347403" lon="13.506706661690579"><ele>589.3333333333334</ele><time>2026-05-03T12:40:57.999Z</time></trkpt><trkpt lat="42.31859435741636" lon="13.506901703545461"><ele>589.0</ele><time>2026-05-03T12:40:58.999Z</time></trkpt><trkpt lat="42.31849524897569" lon="13.507091707899512"><ele>590.3333333333334</ele><time>2026-05-03T12:40:59.999Z</time></trkpt><trkpt lat="42.31839823145874" lon="13.507276459790562"><ele>591.6666666666666</ele><time>2026-05-03T12:41:00.999Z</time></trkpt><trkpt lat="42.31830331262612" lon="13.507456035961084"><ele>593.0</ele><time>2026-05-03T12:41:01.999Z</time></trkpt><trkpt lat="42.31821185694786" lon="13.507629443693338"><ele>593.0</ele><time>2026-05-03T12:41:02.999Z</time></trkpt><trkpt lat="42.31812200180147" lon="13.507799850250398"><ele>593.0</ele><time>2026-05-03T12:41:03.999Z</time></trkpt><trkpt lat="42.31803434521397" lon="13.50796608733097"><ele>593.0</ele><time>2026-05-03T12:41:04.999Z</time></trkpt><trkpt lat="42.31794718346027" lon="13.508131385982868"><ele>593.3333333333333</ele><time>2026-05-03T12:41:05.999Z</time></trkpt><trkpt lat="42.31785934032904" lon="13.508300200917471"><ele>593.6666666666666</ele><time>2026-05-03T12:41:06.999Z</time></trkpt><trkpt lat="42.31777326192253" lon="13.508466321988655"><ele>594.0</ele><time>2026-05-03T12:41:07.999Z</time></trkpt><trkpt lat="42.31768625964443" lon="13.508633163094125"><ele>594.3333333333334</ele><time>2026-05-03T12:41:08.999Z</time></trkpt><trkpt lat="42.31759502734389" lon="13.508801453928225"><ele>594.6666666666667</ele><time>2026-05-03T12:41:09.999Z</time></trkpt><trkpt lat="42.31750075801875" lon="13.50896886608929"><ele>595.0</ele><time>2026-05-03T12:41:10.999Z</time></trkpt><trkpt lat="42.31739687492349" lon="13.509137393484023"><ele>595.0</ele><time>2026-05-03T12:41:11.999Z</time></trkpt><trkpt lat="42.31727390303848" lon="13.509321812202582"><ele>595.0</ele><time>2026-05-03T12:41:12.999Z</time></trkpt><trkpt lat="42.3171368187055" lon="13.509520919618598"><ele>595.0</ele><time>2026-05-03T12:41:13.999Z</time></trkpt><trkpt lat="42.31698633033487" lon="13.509736305064711"><ele>594.0</ele><time>2026-05-03T12:41:14.999Z</time></trkpt><trkpt lat="42.31682805995944" lon="13.509960680543731"><ele>593.0</ele><time>2026-05-03T12:41:15.999Z</time></trkpt><trkpt lat="42.31667266245204" lon="13.510179674362988"><ele>593.0</ele><time>2026-05-03T12:41:16.999Z</time></trkpt><trkpt lat="42.316512245771506" lon="13.510405741445528"><ele>593.0</ele><time>2026-05-03T12:41:17.999Z</time></trkpt><trkpt lat="42.31635223829125" lon="13.510630315375312"><ele>593.0</ele><time>2026-05-03T12:41:18.999Z</time></trkpt><trkpt lat="42.31618704600814" lon="13.510860445086077"><ele>593.0</ele><time>2026-05-03T12:41:19.999Z</time></trkpt><trkpt lat="42.31603343519855" lon="13.511103187614546"><ele>593.3333333333333</ele><time>2026-05-03T12:41:20.999Z</time></trkpt><trkpt lat="42.31587370773356" lon="13.511325049235465"><ele>593.6666666666666</ele><time>2026-05-03T12:41:21.999Z</time></trkpt><trkpt lat="42.31571415424452" lon="13.51151731011684"><ele>594.0</ele><time>2026-05-03T12:41:22.999Z</time></trkpt><trkpt lat="42.315569570151006" lon="13.51171733425723"><ele>594.0</ele><time>2026-05-03T12:41:23.999Z</time></trkpt><trkpt lat="42.315428977387825" lon="13.511911118470335"><ele>594.0</ele><time>2026-05-03T12:41:24.999Z</time></trkpt><trkpt lat="42.31529290464151" lon="13.512097942605601"><ele>594.0</ele><time>2026-05-03T12:41:25.999Z</time></trkpt><trkpt lat="42.31515410441288" lon="13.512282198393418"><ele>595.0</ele><time>2026-05-03T12:41:26.999Z</time></trkpt><trkpt lat="42.315016978823884" lon="13.512458025460552"><ele>596.0</ele><time>2026-05-03T12:41:27.999Z</time></trkpt><trkpt lat="42.31487856338501" lon="13.512628633582269"><ele>597.0</ele><time>2026-05-03T12:41:28.999Z</time></trkpt><trkpt lat="42.31473924650385" lon="13.512796588328467"><ele>598.0</ele><time>2026-05-03T12:41:29.999Z</time></trkpt><trkpt lat="42.314607408910035" lon="13.512957607964248"><ele>599.0</ele><time>2026-05-03T12:41:30.999Z</time></trkpt><trkpt lat="42.31447252864585" lon="13.513122564778044"><ele>600.0</ele><time>2026-05-03T12:41:31.999Z</time></trkpt><trkpt lat="42.31433578160094" lon="13.513287910279534"><ele>600.0</ele><time>2026-05-03T12:41:32.999Z</time></trkpt><trkpt lat="42.314192382054046" lon="13.51346058232299"><ele>600.0</ele><time>2026-05-03T12:41:33.999Z</time></trkpt><trkpt lat="42.314054008643105" lon="13.513656482374895"><ele>600.0</ele><time>2026-05-03T12:41:34.999Z</time></trkpt><trkpt lat="42.313898188637154" lon="13.513840945145045"><ele>600.6666666666666</ele><time>2026-05-03T12:41:35.999Z</time></trkpt><trkpt lat="42.313742841768374" lon="13.514029505967557"><ele>601.3333333333333</ele><time>2026-05-03T12:41:36.999Z</time></trkpt><trkpt lat="42.31357438607465" lon="13.514204153339367"><ele>602.0</ele><time>2026-05-03T12:41:37.999Z</time></trkpt><trkpt lat="42.313426158891815" lon="13.51438485135113"><ele>603.0</ele><time>2026-05-03T12:41:38.999Z</time></trkpt><trkpt lat="42.31329499820142" lon="13.51457727699478"><ele>604.0</ele><time>2026-05-03T12:41:39.999Z</time></trkpt><trkpt lat="42.31316491981655" lon="13.514737147068594"><ele>605.0</ele><time>2026-05-03T12:41:40.999Z</time></trkpt><trkpt lat="42.31304870963817" lon="13.514872277321818"><ele>605.0</ele><time>2026-05-03T12:41:41.999Z</time></trkpt><trkpt lat="42.31295068642382" lon="13.514990741915144"><ele>605.0</ele><time>2026-05-03T12:41:42.999Z</time></trkpt><trkpt lat="42.312856294841886" lon="13.515089374659683"><ele>605.0</ele><time>2026-05-03T12:41:43.999Z</time></trkpt><trkpt lat="42.31277301376173" lon="13.515207092667303"><ele>605.0</ele><time>2026-05-03T12:41:44.999Z</time></trkpt><trkpt lat="42.31269056598179" lon="13.515309112737999"><ele>604.0</ele><time>2026-05-03T12:41:45.999Z</time></trkpt><trkpt lat="42.3126052287181" lon="13.51540525655742"><ele>603.0</ele><time>2026-05-03T12:41:46.999Z</time></trkpt><trkpt lat="42.31252865861279" lon="13.515501360075165"><ele>602.0</ele><time>2026-05-03T12:41:47.999Z</time></trkpt><trkpt lat="42.31244466846411" lon="13.515596754289719"><ele>601.0</ele><time>2026-05-03T12:41:48.999Z</time></trkpt><trkpt lat="42.31236059776284" lon="13.515695742431747"><ele>600.0</ele><time>2026-05-03T12:41:49.999Z</time></trkpt><trkpt lat="42.31227448242532" lon="13.515789415429385"><ele>599.0</ele><time>2026-05-03T12:41:50.999Z</time></trkpt><trkpt lat="42.31217716770784" lon="13.515867568477498"><ele>598.0</ele><time>2026-05-03T12:41:51.999Z</time></trkpt><trkpt lat="42.31207237878328" lon="13.515935302933526"><ele>597.0</ele><time>2026-05-03T12:41:52.999Z</time></trkpt><trkpt lat="42.31196496463493" lon="13.515997242734112"><ele>596.0</ele><time>2026-05-03T12:41:53.999Z</time></trkpt><trkpt lat="42.31185985127622" lon="13.516041306809953"><ele>596.0</ele><time>2026-05-03T12:41:54.999Z</time></trkpt><trkpt lat="42.31176589242896" lon="13.516085445967525"><ele>596.0</ele><time>2026-05-03T12:41:55.999Z</time></trkpt><trkpt lat="42.31168210466932" lon="13.516124134399709"><ele>596.0</ele><time>2026-05-03T12:41:56.999Z</time></trkpt><trkpt lat="42.31160701052086" lon="13.516148538673926"><ele>596.0</ele><time>2026-05-03T12:41:57.999Z</time></trkpt><trkpt lat="42.31152885437888" lon="13.516136149029895"><ele>596.0</ele><time>2026-05-03T12:41:58.999Z</time></trkpt><trkpt lat="42.31137834451374" lon="13.51598571328854"><ele>596.75</ele><time>2026-05-03T12:42:00.999Z</time></trkpt><trkpt lat="42.31130485162818" lon="13.515844237535543"><ele>597.5</ele><time>2026-05-03T12:42:01.999Z</time></trkpt><trkpt lat="42.31120674600338" lon="13.515704037457443"><ele>598.25</ele><time>2026-05-03T12:42:02.999Z</time></trkpt><trkpt lat="42.31109734355887" lon="13.51557721339223"><ele>599.0</ele><time>2026-05-03T12:42:03.999Z</time></trkpt><trkpt lat="42.31099157816713" lon="13.515437183379836"><ele>598.0</ele><time>2026-05-03T12:42:04.999Z</time></trkpt><trkpt lat="42.31089413996422" lon="13.515266500574798"><ele>597.0</ele><time>2026-05-03T12:42:05.999Z</time></trkpt><trkpt lat="42.31078131212594" lon="13.515102714277862"><ele>596.0</ele><time>2026-05-03T12:42:06.999Z</time></trkpt><trkpt lat="42.310654113774156" lon="13.514950847611944"><ele>594.6666666666666</ele><time>2026-05-03T12:42:07.999Z</time></trkpt><trkpt lat="42.31053925678583" lon="13.514774253187621"><ele>593.3333333333334</ele><time>2026-05-03T12:42:08.999Z</time></trkpt><trkpt lat="42.31041642008684" lon="13.514595738248412"><ele>592.0</ele><time>2026-05-03T12:42:09.999Z</time></trkpt><trkpt lat="42.31029140833978" lon="13.514411616107495"><ele>591.3333333333334</ele><time>2026-05-03T12:42:10.999Z</time></trkpt><trkpt lat="42.3101629618171" lon="13.51423037849891"><ele>590.6666666666666</ele><time>2026-05-03T12:42:11.999Z</time></trkpt><trkpt lat="42.31003189662912" lon="13.514050129824282"><ele>590.0</ele><time>2026-05-03T12:42:12.999Z</time></trkpt><trkpt lat="42.30991711084268" lon="13.513849890482845"><ele>589.3333333333333</ele><time>2026-05-03T12:42:13.999Z</time></trkpt><trkpt lat="42.309773656170364" lon="13.513685772251769"><ele>588.6666666666666</ele><time>2026-05-03T12:42:14.999Z</time></trkpt><trkpt lat="42.30964845264923" lon="13.51350008011002"><ele>588.0</ele><time>2026-05-03T12:42:15.999Z</time></trkpt><trkpt lat="42.30952478803133" lon="13.513320274364851"><ele>588.0</ele><time>2026-05-03T12:42:16.999Z</time></trkpt><trkpt lat="42.30939882115163" lon="13.513134484486992"><ele>588.0</ele><time>2026-05-03T12:42:17.999Z</time></trkpt><trkpt lat="42.3092678929189" lon="13.512951016909842"><ele>588.0</ele><time>2026-05-03T12:42:18.999Z</time></trkpt><trkpt lat="42.30913895879485" lon="13.512760757748413"><ele>587.6666666666666</ele><time>2026-05-03T12:42:19.999Z</time></trkpt><trkpt lat="42.309008015164444" lon="13.51257548770268"><ele>587.3333333333333</ele><time>2026-05-03T12:42:20.999Z</time></trkpt><trkpt lat="42.30888023816553" lon="13.512390565219407"><ele>587.0</ele><time>2026-05-03T12:42:21.999Z</time></trkpt><trkpt lat="42.30875090407054" lon="13.5122125156901"><ele>586.3333333333333</ele><time>2026-05-03T12:42:22.999Z</time></trkpt><trkpt lat="42.30862165851119" lon="13.512025398830705"><ele>585.6666666666666</ele><time>2026-05-03T12:42:23.999Z</time></trkpt><trkpt lat="42.30848937556903" lon="13.5118351411045"><ele>585.0</ele><time>2026-05-03T12:42:24.999Z</time></trkpt><trkpt lat="42.30837163849311" lon="13.511624334245491"><ele>585.0</ele><time>2026-05-03T12:42:25.999Z</time></trkpt><trkpt lat="42.308245342741074" lon="13.511418346865069"><ele>585.0</ele><time>2026-05-03T12:42:26.999Z</time></trkpt><trkpt lat="42.30810490755358" lon="13.511230414205022"><ele>585.0</ele><time>2026-05-03T12:42:27.999Z</time></trkpt><trkpt lat="42.307982571240004" lon="13.511023697475716"><ele>584.6666666666666</ele><time>2026-05-03T12:42:28.999Z</time></trkpt><trkpt lat="42.30785971604293" lon="13.510810136604663"><ele>584.3333333333333</ele><time>2026-05-03T12:42:29.999Z</time></trkpt><trkpt lat="42.30774701417849" lon="13.510584320446402"><ele>584.0</ele><time>2026-05-03T12:42:30.999Z</time></trkpt><trkpt lat="42.30765836696915" lon="13.510337016655706"><ele>584.0</ele><time>2026-05-03T12:42:31.999Z</time></trkpt><trkpt lat="42.30754252321739" lon="13.510126243885095"><ele>584.0</ele><time>2026-05-03T12:42:32.999Z</time></trkpt><trkpt lat="42.30742856527963" lon="13.50992222861336"><ele>584.0</ele><time>2026-05-03T12:42:33.999Z</time></trkpt><trkpt lat="42.30731508775029" lon="13.509717357056845"><ele>581.6666666666666</ele><time>2026-05-03T12:42:34.999Z</time></trkpt><trkpt lat="42.30720788877378" lon="13.509507923376882"><ele>579.3333333333334</ele><time>2026-05-03T12:42:35.999Z</time></trkpt><trkpt lat="42.30709564641086" lon="13.509299232083647"><ele>577.0</ele><time>2026-05-03T12:42:36.999Z</time></trkpt><trkpt lat="42.30697902169578" lon="13.509084309810655"><ele>577.0</ele><time>2026-05-03T12:42:37.999Z</time></trkpt><trkpt lat="42.30686847079835" lon="13.508880580757477"><ele>577.0</ele><time>2026-05-03T12:42:38.999Z</time></trkpt><trkpt lat="42.306757864414884" lon="13.508676635392682"><ele>577.0</ele><time>2026-05-03T12:42:39.999Z</time></trkpt><trkpt lat="42.306648279190945" lon="13.508468999066775"><ele>576.6666666666667</ele><time>2026-05-03T12:42:40.999Z</time></trkpt><trkpt lat="42.30653091187401" lon="13.508272024707463"><ele>576.3333333333334</ele><time>2026-05-03T12:42:41.999Z</time></trkpt><trkpt lat="42.30643228831352" lon="13.508050460111853"><ele>576.0</ele><time>2026-05-03T12:42:42.999Z</time></trkpt><trkpt lat="42.30634665016126" lon="13.507825723831607"><ele>575.6666666666666</ele><time>2026-05-03T12:42:43.999Z</time></trkpt><trkpt lat="42.30627872619115" lon="13.507615255745046"><ele>575.3333333333333</ele><time>2026-05-03T12:42:44.999Z</time></trkpt><trkpt lat="42.30618299151902" lon="13.507406983626371"><ele>575.0</ele><time>2026-05-03T12:42:45.999Z</time></trkpt><trkpt lat="42.30611812776726" lon="13.507187516664349"><ele>575.0</ele><time>2026-05-03T12:42:46.999Z</time></trkpt><trkpt lat="42.30604188864151" lon="13.506992967048125"><ele>575.0</ele><time>2026-05-03T12:42:47.999Z</time></trkpt><trkpt lat="42.305968442120395" lon="13.506816042799853"><ele>575.0</ele><time>2026-05-03T12:42:48.999Z</time></trkpt><trkpt lat="42.30590171697627" lon="13.506664187024148"><ele>575.0</ele><time>2026-05-03T12:42:49.999Z</time></trkpt><trkpt lat="42.30584208943381" lon="13.506534996642392"><ele>575.0</ele><time>2026-05-03T12:42:50.999Z</time></trkpt><trkpt lat="42.30579109818026" lon="13.506423799904251"><ele>575.0</ele><time>2026-05-03T12:42:51.999Z</time></trkpt><trkpt lat="42.30573988234975" lon="13.506314997540503"><ele>575.0</ele><time>2026-05-03T12:42:52.999Z</time></trkpt><trkpt lat="42.305694415037635" lon="13.5062210763779"><ele>575.0</ele><time>2026-05-03T12:42:53.999Z</time></trkpt><trkpt lat="42.30564981644954" lon="13.506129111136989"><ele>575.0</ele><time>2026-05-03T12:42:54.999Z</time></trkpt><trkpt lat="42.30560124755223" lon="13.506030591417712"><ele>575.0</ele><time>2026-05-03T12:42:55.999Z</time></trkpt><trkpt lat="42.3055455765038" lon="13.505918025212967"><ele>573.75</ele><time>2026-05-03T12:42:56.999Z</time></trkpt><trkpt lat="42.305481649540475" lon="13.505793455973365"><ele>572.5</ele><time>2026-05-03T12:42:57.999Z</time></trkpt><trkpt lat="42.30541053861126" lon="13.505656776021356"><ele>571.25</ele><time>2026-05-03T12:42:58.999Z</time></trkpt><trkpt lat="42.305326903447934" lon="13.505497936530515"><ele>570.0</ele><time>2026-05-03T12:42:59.999Z</time></trkpt><trkpt lat="42.30523811610387" lon="13.505331003144766"><ele>570.0</ele><time>2026-05-03T12:43:00.999Z</time></trkpt><trkpt lat="42.305145504224335" lon="13.5051583228465"><ele>570.0</ele><time>2026-05-03T12:43:01.999Z</time></trkpt><trkpt lat="42.30504162447975" lon="13.504968797567745"><ele>570.0</ele><time>2026-05-03T12:43:02.999Z</time></trkpt><trkpt lat="42.304928534395906" lon="13.504764003371601"><ele>570.3333333333334</ele><time>2026-05-03T12:43:03.999Z</time></trkpt><trkpt lat="42.30480427814001" lon="13.504540258577679"><ele>570.6666666666667</ele><time>2026-05-03T12:43:04.999Z</time></trkpt><trkpt lat="42.304675030770596" lon="13.50430904282277"><ele>571.0</ele><time>2026-05-03T12:43:05.999Z</time></trkpt><trkpt lat="42.30455555023588" lon="13.504096042459174"><ele>571.3333333333334</ele><time>2026-05-03T12:43:06.999Z</time></trkpt><trkpt lat="42.30443646926129" lon="13.503887266831494"><ele>571.6666666666666</ele><time>2026-05-03T12:43:07.999Z</time></trkpt><trkpt lat="42.30431638229683" lon="13.503678007033734"><ele>572.0</ele><time>2026-05-03T12:43:08.999Z</time></trkpt><trkpt lat="42.304217677710035" lon="13.503470515177435"><ele>572.0</ele><time>2026-05-03T12:43:09.999Z</time></trkpt><trkpt lat="42.304114659669835" lon="13.503328149552921"><ele>572.0</ele><time>2026-05-03T12:43:10.999Z</time></trkpt><trkpt lat="42.30400959101533" lon="13.503162488321772"><ele>572.0</ele><time>2026-05-03T12:43:11.999Z</time></trkpt><trkpt lat="42.30390264402071" lon="13.50299140770932"><ele>571.3333333333333</ele><time>2026-05-03T12:43:12.999Z</time></trkpt><trkpt lat="42.30379520230122" lon="13.50281494894281"><ele>570.6666666666666</ele><time>2026-05-03T12:43:13.999Z</time></trkpt><trkpt lat="42.30368563293002" lon="13.502621014238342"><ele>570.0</ele><time>2026-05-03T12:43:14.999Z</time></trkpt><trkpt lat="42.303577402523395" lon="13.502403418733001"><ele>570.0</ele><time>2026-05-03T12:43:15.999Z</time></trkpt><trkpt lat="42.30345493197237" lon="13.502192954605452"><ele>570.0</ele><time>2026-05-03T12:43:16.999Z</time></trkpt><trkpt lat="42.30332112450231" lon="13.50196616497522"><ele>570.0</ele><time>2026-05-03T12:43:17.999Z</time></trkpt><trkpt lat="42.30318518771939" lon="13.501735905557156"><ele>570.0</ele><time>2026-05-03T12:43:18.999Z</time></trkpt><trkpt lat="42.30305355934822" lon="13.501512387147924"><ele>570.0</ele><time>2026-05-03T12:43:19.999Z</time></trkpt><trkpt lat="42.30292385769545" lon="13.501291138938377"><ele>570.0</ele><time>2026-05-03T12:43:20.999Z</time></trkpt><trkpt lat="42.302797143511455" lon="13.501074986928657"><ele>570.0</ele><time>2026-05-03T12:43:21.999Z</time></trkpt><trkpt lat="42.3026687954879" lon="13.500856047119507"><ele>570.0</ele><time>2026-05-03T12:43:22.999Z</time></trkpt><trkpt lat="42.302535254550314" lon="13.500632912329626"><ele>570.0</ele><time>2026-05-03T12:43:23.999Z</time></trkpt><trkpt lat="42.30240259867295" lon="13.500410417121769"><ele>570.0</ele><time>2026-05-03T12:43:24.999Z</time></trkpt><trkpt lat="42.302269572313676" lon="13.5001895827111"><ele>570.0</ele><time>2026-05-03T12:43:25.999Z</time></trkpt><trkpt lat="42.302137490528885" lon="13.499971244433205"><ele>570.0</ele><time>2026-05-03T12:43:26.999Z</time></trkpt><trkpt lat="42.302004128944425" lon="13.499754514296345"><ele>570.6666666666666</ele><time>2026-05-03T12:43:27.999Z</time></trkpt><trkpt lat="42.30187286757095" lon="13.499543092036426"><ele>571.3333333333333</ele><time>2026-05-03T12:43:28.999Z</time></trkpt><trkpt lat="42.30174989989642" lon="13.499345028307463"><ele>572.0</ele><time>2026-05-03T12:43:29.999Z</time></trkpt><trkpt lat="42.30162267130057" lon="13.499140763197278"><ele>572.0</ele><time>2026-05-03T12:43:30.999Z</time></trkpt><trkpt lat="42.30149342431874" lon="13.49893364752858"><ele>572.0</ele><time>2026-05-03T12:43:31.999Z</time></trkpt><trkpt lat="42.30136581386215" lon="13.498729154212475"><ele>572.0</ele><time>2026-05-03T12:43:32.999Z</time></trkpt><trkpt lat="42.30124261275749" lon="13.498531726712383"><ele>571.3333333333333</ele><time>2026-05-03T12:43:33.999Z</time></trkpt><trkpt lat="42.30111608827969" lon="13.4983289739413"><ele>570.6666666666666</ele><time>2026-05-03T12:43:34.999Z</time></trkpt><trkpt lat="42.30099488229743" lon="13.498134743518598"><ele>570.0</ele><time>2026-05-03T12:43:35.999Z</time></trkpt><trkpt lat="42.300876529716426" lon="13.497942924636504"><ele>570.0</ele><time>2026-05-03T12:43:36.999Z</time></trkpt><trkpt lat="42.30075833902887" lon="13.497750193950628"><ele>570.0</ele><time>2026-05-03T12:43:37.999Z</time></trkpt><trkpt lat="42.300638402213586" lon="13.497554616149914"><ele>570.0</ele><time>2026-05-03T12:43:38.999Z</time></trkpt><trkpt lat="42.300516898178905" lon="13.49735734478926"><ele>570.0</ele><time>2026-05-03T12:43:39.999Z</time></trkpt><trkpt lat="42.300390733757844" lon="13.497156131534979"><ele>570.0</ele><time>2026-05-03T12:43:40.999Z</time></trkpt><trkpt lat="42.30025518801883" lon="13.496953586293788"><ele>570.0</ele><time>2026-05-03T12:43:41.999Z</time></trkpt><trkpt lat="42.30012257545381" lon="13.496760032273938"><ele>570.0</ele><time>2026-05-03T12:43:42.999Z</time></trkpt><trkpt lat="42.29999381846304" lon="13.496571124455517"><ele>570.0</ele><time>2026-05-03T12:43:43.999Z</time></trkpt><trkpt lat="42.2998663252065" lon="13.496383059061246"><ele>570.0</ele><time>2026-05-03T12:43:44.999Z</time></trkpt><trkpt lat="42.29973842521575" lon="13.496194393545613"><ele>570.3333333333334</ele><time>2026-05-03T12:43:45.999Z</time></trkpt><trkpt lat="42.29960669325985" lon="13.496001045159293"><ele>570.6666666666667</ele><time>2026-05-03T12:43:46.999Z</time></trkpt><trkpt lat="42.29947977719134" lon="13.495818485125447"><ele>571.0</ele><time>2026-05-03T12:43:47.999Z</time></trkpt><trkpt lat="42.2993573702794" lon="13.495642411435805"><ele>571.0</ele><time>2026-05-03T12:43:48.999Z</time></trkpt><trkpt lat="42.2992416522662" lon="13.495474035934857"><ele>571.0</ele><time>2026-05-03T12:43:49.999Z</time></trkpt><trkpt lat="42.29912455559529" lon="13.495298289421552"><ele>571.0</ele><time>2026-05-03T12:43:50.999Z</time></trkpt><trkpt lat="42.29901209439597" lon="13.495115102818838"><ele>571.3333333333334</ele><time>2026-05-03T12:43:51.999Z</time></trkpt><trkpt lat="42.29891737299417" lon="13.494938950841938"><ele>571.6666666666666</ele><time>2026-05-03T12:43:52.999Z</time></trkpt><trkpt lat="42.29881302135882" lon="13.494776270477846"><ele>572.0</ele><time>2026-05-03T12:43:53.999Z</time></trkpt><trkpt lat="42.29876219333435" lon="13.49459089633193"><ele>571.0</ele><time>2026-05-03T12:43:54.999Z</time></trkpt><trkpt lat="42.298725461452094" lon="13.494398252053639"><ele>570.0</ele><time>2026-05-03T12:43:55.999Z</time></trkpt><trkpt lat="42.29871514479348" lon="13.494180284322587"><ele>569.0</ele><time>2026-05-03T12:43:56.999Z</time></trkpt><trkpt lat="42.29873333170836" lon="13.493954018217249"><ele>568.6666666666666</ele><time>2026-05-03T12:43:57.999Z</time></trkpt><trkpt lat="42.29872346986291" lon="13.493727972828658"><ele>568.3333333333334</ele><time>2026-05-03T12:43:58.999Z</time></trkpt><trkpt lat="42.298712538386376" lon="13.493483580365153"><ele>568.0</ele><time>2026-05-03T12:43:59.999Z</time></trkpt><trkpt lat="42.29870146251555" lon="13.49325842398104"><ele>568.0</ele><time>2026-05-03T12:44:00.999Z</time></trkpt><trkpt lat="42.2986909708058" lon="13.493045142802446"><ele>568.0</ele><time>2026-05-03T12:44:01.999Z</time></trkpt><trkpt lat="42.29868125055545" lon="13.492847544403467"><ele>568.0</ele><time>2026-05-03T12:44:02.999Z</time></trkpt><trkpt lat="42.298670984959564" lon="13.492647879898783"><ele>568.6666666666667</ele><time>2026-05-03T12:44:03.999Z</time></trkpt><trkpt lat="42.2986597675796" lon="13.492439198978817"><ele>569.3333333333334</ele><time>2026-05-03T12:44:04.999Z</time></trkpt><trkpt lat="42.29864891321339" lon="13.492237271171822"><ele>570.0</ele><time>2026-05-03T12:44:05.999Z</time></trkpt><trkpt lat="42.29863812965344" lon="13.492036660759403"><ele>570.5</ele><time>2026-05-03T12:44:06.999Z</time></trkpt><trkpt lat="42.29862732624845" lon="13.491842352299997"><ele>571.0</ele><time>2026-05-03T12:44:07.999Z</time></trkpt><trkpt lat="42.298617055905844" lon="13.49166069925133"><ele>571.5</ele><time>2026-05-03T12:44:08.999Z</time></trkpt><trkpt lat="42.29860789833451" lon="13.491513419658139"><ele>572.0</ele><time>2026-05-03T12:44:09.999Z</time></trkpt><trkpt lat="42.29858613820557" lon="13.491394775665384"><ele>572.0</ele><time>2026-05-03T12:44:10.999Z</time></trkpt><trkpt lat="42.29858463199144" lon="13.491308177097874"><ele>572.0</ele><time>2026-05-03T12:44:11.999Z</time></trkpt><trkpt lat="42.29857521622662" lon="13.49121937845311"><ele>572.0</ele><time>2026-05-03T12:44:13.999Z</time></trkpt><trkpt lat="42.29845347180365" lon="13.49117918005277"><ele>572.0</ele><time>2026-05-03T12:44:16.999Z</time></trkpt><trkpt lat="42.298383735789585" lon="13.491235922103735"><ele>572.0</ele><time>2026-05-03T12:44:17.999Z</time></trkpt><trkpt lat="42.29829534329698" lon="13.491250625753406"><ele>572.0</ele><time>2026-05-03T12:44:18.999Z</time></trkpt><trkpt lat="42.29818517499926" lon="13.491296243038095"><ele>571.5</ele><time>2026-05-03T12:44:19.999Z</time></trkpt><trkpt lat="42.298078962202815" lon="13.491344846532256"><ele>571.0</ele><time>2026-05-03T12:44:20.999Z</time></trkpt><trkpt lat="42.2979691957123" lon="13.491395775835779"><ele>570.5</ele><time>2026-05-03T12:44:21.999Z</time></trkpt><trkpt lat="42.29785776234107" lon="13.491448949323685"><ele>570.0</ele><time>2026-05-03T12:44:22.999Z</time></trkpt><trkpt lat="42.2977455922823" lon="13.491502474322278"><ele>570.0</ele><time>2026-05-03T12:44:23.999Z</time></trkpt><trkpt lat="42.297629450268786" lon="13.49155789457384"><ele>570.0</ele><time>2026-05-03T12:44:24.999Z</time></trkpt><trkpt lat="42.29750378120479" lon="13.491616248915756"><ele>570.0</ele><time>2026-05-03T12:44:25.999Z</time></trkpt><trkpt lat="42.29738401652686" lon="13.491671940923943"><ele>570.0</ele><time>2026-05-03T12:44:26.999Z</time></trkpt><trkpt lat="42.29728626079574" lon="13.49171763335916"><ele>570.0</ele><time>2026-05-03T12:44:27.999Z</time></trkpt><trkpt lat="42.29719868712255" lon="13.491760028075026"><ele>570.0</ele><time>2026-05-03T12:44:28.999Z</time></trkpt><trkpt lat="42.29712458924095" lon="13.491799026955634"><ele>570.0</ele><time>2026-05-03T12:44:29.999Z</time></trkpt><trkpt lat="42.2970183446293" lon="13.491857218049693"><ele>570.0</ele><time>2026-05-03T12:44:31.999Z</time></trkpt><trkpt lat="42.296956588865434" lon="13.491881075525656"><ele>570.0</ele><time>2026-05-03T12:44:33.999Z</time></trkpt><trkpt lat="42.29691277356144" lon="13.491720554781137"><ele>570.0</ele><time>2026-05-03T12:44:35.999Z</time></trkpt><trkpt lat="42.29688000028954" lon="13.491625707961981"><ele>570.0</ele><time>2026-05-03T12:44:36.999Z</time></trkpt><trkpt lat="42.296834267119024" lon="13.491496244478492"><ele>570.0</ele><time>2026-05-03T12:44:37.999Z</time></trkpt><trkpt lat="42.29679414400145" lon="13.491386775289742"><ele>570.0</ele><time>2026-05-03T12:44:38.999Z</time></trkpt><trkpt lat="42.296760019262976" lon="13.49126698483364"><ele>570.0</ele><time>2026-05-03T12:44:39.999Z</time></trkpt><trkpt lat="42.29672327376898" lon="13.491149799395835"><ele>570.0</ele><time>2026-05-03T12:44:40.999Z</time></trkpt><trkpt lat="42.29667691750948" lon="13.49103767014232"><ele>570.0</ele><time>2026-05-03T12:44:41.999Z</time></trkpt><trkpt lat="42.29664541224473" lon="13.490914164562055"><ele>570.0</ele><time>2026-05-03T12:44:42.999Z</time></trkpt><trkpt lat="42.29661097111061" lon="13.490798319930065"><ele>570.0</ele><time>2026-05-03T12:44:43.999Z</time></trkpt><trkpt lat="42.29656003536798" lon="13.490692516097765"><ele>570.0</ele><time>2026-05-03T12:44:44.999Z</time></trkpt><trkpt lat="42.29651516747997" lon="13.490579421317747"><ele>570.0</ele><time>2026-05-03T12:44:45.999Z</time></trkpt><trkpt lat="42.296454574704995" lon="13.490472425922245"><ele>570.0</ele><time>2026-05-03T12:44:46.999Z</time></trkpt><trkpt lat="42.296405358263826" lon="13.490361448941286"><ele>570.0</ele><time>2026-05-03T12:44:47.999Z</time></trkpt><trkpt lat="42.29635953824917" lon="13.490245548088495"><ele>570.0</ele><time>2026-05-03T12:44:48.999Z</time></trkpt><trkpt lat="42.29632847534339" lon="13.490117093766695"><ele>570.0</ele><time>2026-05-03T12:44:49.999Z</time></trkpt><trkpt lat="42.29630855455353" lon="13.489992304167332"><ele>570.1666666666666</ele><time>2026-05-03T12:44:50.999Z</time></trkpt><trkpt lat="42.2962880475962" lon="13.48987314941255"><ele>570.3333333333334</ele><time>2026-05-03T12:44:51.999Z</time></trkpt><trkpt lat="42.29627147890227" lon="13.489766721980539"><ele>570.5</ele><time>2026-05-03T12:44:52.999Z</time></trkpt><trkpt lat="42.296261614774025" lon="13.489665733718684"><ele>570.6666666666667</ele><time>2026-05-03T12:44:53.999Z</time></trkpt><trkpt lat="42.296247570602226" lon="13.48957477834075"><ele>570.8333333333334</ele><time>2026-05-03T12:44:54.999Z</time></trkpt><trkpt lat="42.296225945498676" lon="13.489477725333339"><ele>571.0</ele><time>2026-05-03T12:44:56.999Z</time></trkpt><trkpt lat="42.29621305315585" lon="13.489392430441855"><ele>571.8</ele><time>2026-05-03T12:45:00Z</time></trkpt><trkpt lat="42.296070325956116" lon="13.489386169678388"><ele>572.6</ele><time>2026-05-03T12:45:02Z</time></trkpt><trkpt lat="42.29599957333801" lon="13.489404210990955"><ele>573.4</ele><time>2026-05-03T12:45:03Z</time></trkpt><trkpt lat="42.29591842218061" lon="13.489415199252928"><ele>574.2</ele><time>2026-05-03T12:45:04Z</time></trkpt><trkpt lat="42.29581872167981" lon="13.489430432974105"><ele>575.0</ele><time>2026-05-03T12:45:05Z</time></trkpt><trkpt lat="42.2957118775061" lon="13.489452555059263"><ele>575.0</ele><time>2026-05-03T12:45:06Z</time></trkpt><trkpt lat="42.29559011295017" lon="13.489470085477622"><ele>575.0</ele><time>2026-05-03T12:45:07Z</time></trkpt><trkpt lat="42.295456187843314" lon="13.489494673901012"><ele>575.0</ele><time>2026-05-03T12:45:08Z</time></trkpt><trkpt lat="42.295314166865566" lon="13.489520035079739"><ele>575.0</ele><time>2026-05-03T12:45:09Z</time></trkpt><trkpt lat="42.29515379417075" lon="13.489542588237649"><ele>576.3333333333333</ele><time>2026-05-03T12:45:10Z</time></trkpt><trkpt lat="42.29497013251412" lon="13.48957506041607"><ele>577.6666666666666</ele><time>2026-05-03T12:45:11Z</time></trkpt><trkpt lat="42.294773088953605" lon="13.489619001050656"><ele>579.0</ele><time>2026-05-03T12:45:12Z</time></trkpt><trkpt lat="42.29458548286178" lon="13.489673241467186"><ele>576.3333333333334</ele><time>2026-05-03T12:45:13Z</time></trkpt><trkpt lat="42.294399694877" lon="13.489748839471325"><ele>573.6666666666667</ele><time>2026-05-03T12:45:14Z</time></trkpt><trkpt lat="42.29422172920516" lon="13.489859004127398"><ele>571.0</ele><time>2026-05-03T12:45:15Z</time></trkpt><trkpt lat="42.294046700921" lon="13.490021294738986"><ele>578.0</ele><time>2026-05-03T12:45:16Z</time></trkpt><trkpt lat="42.29386147800791" lon="13.490221730879595"><ele>585.0</ele><time>2026-05-03T12:45:17Z</time></trkpt><trkpt lat="42.29367249869293" lon="13.490413080697625"><ele>578.0</ele><time>2026-05-03T12:45:18Z</time></trkpt><trkpt lat="42.293484504368195" lon="13.490603905682839"><ele>571.0</ele><time>2026-05-03T12:45:19Z</time></trkpt><trkpt lat="42.293300938117646" lon="13.490793998360667"><ele>571.0</ele><time>2026-05-03T12:45:20Z</time></trkpt><trkpt lat="42.293116130554026" lon="13.49098312735978"><ele>571.0</ele><time>2026-05-03T12:45:21Z</time></trkpt><trkpt lat="42.292928342913456" lon="13.49117077039048"><ele>570.5</ele><time>2026-05-03T12:45:22Z</time></trkpt><trkpt lat="42.29274724008163" lon="13.491351931981804"><ele>570.0</ele><time>2026-05-03T12:45:23Z</time></trkpt><trkpt lat="42.29255992080453" lon="13.491522431874527"><ele>570.0</ele><time>2026-05-03T12:45:24Z</time></trkpt><trkpt lat="42.2923720268789" lon="13.491686598424932"><ele>570.0</ele><time>2026-05-03T12:45:25Z</time></trkpt><trkpt lat="42.29218925900913" lon="13.491849652876654"><ele>570.0</ele><time>2026-05-03T12:45:26Z</time></trkpt><trkpt lat="42.29201185727019" lon="13.492007558231332"><ele>569.6666666666666</ele><time>2026-05-03T12:45:27Z</time></trkpt><trkpt lat="42.29183997263323" lon="13.492161866695724"><ele>569.3333333333333</ele><time>2026-05-03T12:45:28Z</time></trkpt><trkpt lat="42.29167180003258" lon="13.49231161502579"><ele>569.0</ele><time>2026-05-03T12:45:29Z</time></trkpt><trkpt lat="42.29151158987055" lon="13.492455511933535"><ele>571.0</ele><time>2026-05-03T12:45:30Z</time></trkpt><trkpt lat="42.2913614747132" lon="13.492588612632616"><ele>573.0</ele><time>2026-05-03T12:45:31Z</time></trkpt><trkpt lat="42.29121077758691" lon="13.49271853855512"><ele>575.0</ele><time>2026-05-03T12:45:32Z</time></trkpt><trkpt lat="42.29104995392228" lon="13.49286253945435"><ele>573.3333333333333</ele><time>2026-05-03T12:45:33Z</time></trkpt><trkpt lat="42.29089424234401" lon="13.493021701888276"><ele>571.6666666666666</ele><time>2026-05-03T12:45:34Z</time></trkpt><trkpt lat="42.290753873166864" lon="13.49320688692511"><ele>570.0</ele><time>2026-05-03T12:45:35Z</time></trkpt><trkpt lat="42.290618407076984" lon="13.493418286833537"><ele>569.6666666666666</ele><time>2026-05-03T12:45:36Z</time></trkpt><trkpt lat="42.29048492733554" lon="13.493651783688996"><ele>569.3333333333333</ele><time>2026-05-03T12:45:37Z</time></trkpt><trkpt lat="42.2903411592945" lon="13.493877844606958"><ele>569.0</ele><time>2026-05-03T12:45:38Z</time></trkpt><trkpt lat="42.29020726022551" lon="13.494101299901013"><ele>569.0</ele><time>2026-05-03T12:45:39Z</time></trkpt><trkpt lat="42.29007723126913" lon="13.494314947765265"><ele>569.0</ele><time>2026-05-03T12:45:40Z</time></trkpt><trkpt lat="42.289945847064104" lon="13.4945321965352"><ele>569.0</ele><time>2026-05-03T12:45:41Z</time></trkpt><trkpt lat="42.28980935718791" lon="13.49474644389329"><ele>570.0</ele><time>2026-05-03T12:45:42Z</time></trkpt><trkpt lat="42.28967426561896" lon="13.494957131191267"><ele>571.0</ele><time>2026-05-03T12:45:43Z</time></trkpt><trkpt lat="42.28952846781645" lon="13.495162781378605"><ele>572.0</ele><time>2026-05-03T12:45:44Z</time></trkpt><trkpt lat="42.289384918080565" lon="13.495381362784116"><ele>572.0</ele><time>2026-05-03T12:45:45Z</time></trkpt><trkpt lat="42.2892321282382" lon="13.495608135116592"><ele>572.0</ele><time>2026-05-03T12:45:46Z</time></trkpt><trkpt lat="42.28908429392743" lon="13.495823024441364"><ele>572.0</ele><time>2026-05-03T12:45:47Z</time></trkpt><trkpt lat="42.28895017945262" lon="13.496037750173096"><ele>571.3333333333333</ele><time>2026-05-03T12:45:48Z</time></trkpt><trkpt lat="42.288802384815135" lon="13.496250362958808"><ele>570.6666666666666</ele><time>2026-05-03T12:45:49Z</time></trkpt><trkpt lat="42.2886584092728" lon="13.49646383948645"><ele>570.0</ele><time>2026-05-03T12:45:50Z</time></trkpt><trkpt lat="42.28851781495442" lon="13.49666967824483"><ele>570.0</ele><time>2026-05-03T12:45:51Z</time></trkpt><trkpt lat="42.288376972680354" lon="13.49688227203308"><ele>570.0</ele><time>2026-05-03T12:45:52Z</time></trkpt><trkpt lat="42.288235133114824" lon="13.497095742855503"><ele>570.0</ele><time>2026-05-03T12:45:53Z</time></trkpt><trkpt lat="42.28808967364242" lon="13.49730138744161"><ele>569.3333333333334</ele><time>2026-05-03T12:45:54Z</time></trkpt><trkpt lat="42.28794874709806" lon="13.497499774963524"><ele>568.6666666666667</ele><time>2026-05-03T12:45:55Z</time></trkpt><trkpt lat="42.28781024679039" lon="13.497705712486736"><ele>568.0</ele><time>2026-05-03T12:45:56Z</time></trkpt><trkpt lat="42.28767773141297" lon="13.497909442239031"><ele>569.0</ele><time>2026-05-03T12:45:57Z</time></trkpt><trkpt lat="42.28754781954218" lon="13.498126430777655"><ele>570.0</ele><time>2026-05-03T12:45:58Z</time></trkpt><trkpt lat="42.28742680277604" lon="13.49836832096171"><ele>571.0</ele><time>2026-05-03T12:45:59Z</time></trkpt><trkpt lat="42.28731374681693" lon="13.498597699132263"><ele>570.0</ele><time>2026-05-03T12:46:00Z</time></trkpt><trkpt lat="42.28720060336081" lon="13.498849854181918"><ele>569.0</ele><time>2026-05-03T12:46:01Z</time></trkpt><trkpt lat="42.287084741952675" lon="13.499097628512281"><ele>568.0</ele><time>2026-05-03T12:46:02Z</time></trkpt><trkpt lat="42.286966891383734" lon="13.499343706734228"><ele>567.6666666666667</ele><time>2026-05-03T12:46:02.999Z</time></trkpt><trkpt lat="42.28685161971293" lon="13.499588265612921"><ele>567.3333333333334</ele><time>2026-05-03T12:46:03.999Z</time></trkpt><trkpt lat="42.28672796769909" lon="13.499828240038921"><ele>567.0</ele><time>2026-05-03T12:46:04.999Z</time></trkpt><trkpt lat="42.28661082056142" lon="13.500081375224315"><ele>567.0</ele><time>2026-05-03T12:46:05.999Z</time></trkpt><trkpt lat="42.28649393866738" lon="13.500321250887637"><ele>567.0</ele><time>2026-05-03T12:46:06.999Z</time></trkpt><trkpt lat="42.28638195352563" lon="13.50055771848423"><ele>567.0</ele><time>2026-05-03T12:46:07.999Z</time></trkpt><trkpt lat="42.286263247982305" lon="13.500783195820874"><ele>568.0</ele><time>2026-05-03T12:46:08.999Z</time></trkpt><trkpt lat="42.286168271613725" lon="13.500998827730621"><ele>569.0</ele><time>2026-05-03T12:46:09.999Z</time></trkpt><trkpt lat="42.28608025369365" lon="13.501161112299686"><ele>570.0</ele><time>2026-05-03T12:46:10.999Z</time></trkpt><trkpt lat="42.286024569438595" lon="13.501298052609764"><ele>570.0</ele><time>2026-05-03T12:46:11.999Z</time></trkpt><trkpt lat="42.28598650043467" lon="13.501399455267942"><ele>570.0</ele><time>2026-05-03T12:46:12.999Z</time></trkpt><trkpt lat="42.28595545379389" lon="13.501488123493"><ele>570.0</ele><time>2026-05-03T12:46:14.999Z</time></trkpt><trkpt lat="42.28574733812017" lon="13.501328698034277"><ele>570.0</ele><time>2026-05-03T12:46:19.999Z</time></trkpt><trkpt lat="42.28567630511681" lon="13.501246422298705"><ele>571.2</ele><time>2026-05-03T12:46:20.999Z</time></trkpt><trkpt lat="42.28558865505533" lon="13.501177369351488"><ele>572.4</ele><time>2026-05-03T12:46:21.999Z</time></trkpt><trkpt lat="42.2854925698773" lon="13.501130577414402"><ele>573.6</ele><time>2026-05-03T12:46:22.999Z</time></trkpt><trkpt lat="42.285383509592364" lon="13.501088394045807"><ele>574.8</ele><time>2026-05-03T12:46:23.999Z</time></trkpt><trkpt lat="42.28526701675442" lon="13.501061668683928"><ele>576.0</ele><time>2026-05-03T12:46:24.999Z</time></trkpt><trkpt lat="42.28514522397937" lon="13.501030451012825"><ele>576.0</ele><time>2026-05-03T12:46:25.999Z</time></trkpt><trkpt lat="42.285023768861855" lon="13.500971433105498"><ele>576.0</ele><time>2026-05-03T12:46:26.999Z</time></trkpt><trkpt lat="42.2849072832839" lon="13.50087022150073"><ele>576.0</ele><time>2026-05-03T12:46:27.999Z</time></trkpt><trkpt lat="42.28479820070492" lon="13.500756206338794"><ele>576.0</ele><time>2026-05-03T12:46:28.999Z</time></trkpt><trkpt lat="42.284703730801276" lon="13.500657923005685"><ele>577.4</ele><time>2026-05-03T12:46:29.999Z</time></trkpt><trkpt lat="42.284622264055855" lon="13.500574349994764"><ele>578.8</ele><time>2026-05-03T12:46:30.999Z</time></trkpt><trkpt lat="42.28454891333812" lon="13.500494847259217"><ele>580.1999999999999</ele><time>2026-05-03T12:46:31.999Z</time></trkpt><trkpt lat="42.28447362128904" lon="13.500419173589766"><ele>581.6</ele><time>2026-05-03T12:46:32.999Z</time></trkpt><trkpt lat="42.28442064440704" lon="13.500329370028753"><ele>583.0</ele><time>2026-05-03T12:46:33.999Z</time></trkpt><trkpt lat="42.284409669512954" lon="13.500216558220046"><ele>584.0</ele><time>2026-05-03T12:46:35Z</time></trkpt><trkpt lat="42.284413466375725" lon="13.50010514103564"><ele>585.0</ele><time>2026-05-03T12:46:36Z</time></trkpt><trkpt lat="42.284430877377154" lon="13.499991397240484"><ele>586.0</ele><time>2026-05-03T12:46:37Z</time></trkpt><trkpt lat="42.284471133991666" lon="13.499860670230886"><ele>587.0</ele><time>2026-05-03T12:46:38Z</time></trkpt><trkpt lat="42.28452273431523" lon="13.49972107888828"><ele>588.0</ele><time>2026-05-03T12:46:39Z</time></trkpt><trkpt lat="42.28458269800063" lon="13.499569887002963"><ele>590.5</ele><time>2026-05-03T12:46:40Z</time></trkpt><trkpt lat="42.28464309173351" lon="13.499410429858425"><ele>593.0</ele><time>2026-05-03T12:46:41Z</time></trkpt><trkpt lat="42.28470455302532" lon="13.499248786780463"><ele>595.5</ele><time>2026-05-03T12:46:42Z</time></trkpt><trkpt lat="42.284767264460925" lon="13.499080991820563"><ele>598.0</ele><time>2026-05-03T12:46:43Z</time></trkpt><trkpt lat="42.28484347210938" lon="13.498916081275924"><ele>595.0</ele><time>2026-05-03T12:46:44Z</time></trkpt><trkpt lat="42.28492768440047" lon="13.498755141628028"><ele>592.0</ele><time>2026-05-03T12:46:45Z</time></trkpt><trkpt lat="42.28502938971114" lon="13.498595233659923"><ele>589.0</ele><time>2026-05-03T12:46:46Z</time></trkpt><trkpt lat="42.28513256587626" lon="13.498429233543856"><ele>589.0</ele><time>2026-05-03T12:46:47Z</time></trkpt><trkpt lat="42.28523087769268" lon="13.498253361910425"><ele>589.0</ele><time>2026-05-03T12:46:48Z</time></trkpt><trkpt lat="42.28531937880477" lon="13.498070417567"><ele>589.0</ele><time>2026-05-03T12:46:49Z</time></trkpt><trkpt lat="42.28540317142386" lon="13.497882788389253"><ele>587.0</ele><time>2026-05-03T12:46:50Z</time></trkpt><trkpt lat="42.28550384602676" lon="13.497710026380844"><ele>585.0</ele><time>2026-05-03T12:46:51Z</time></trkpt><trkpt lat="42.28558373168293" lon="13.497519879126918"><ele>583.0</ele><time>2026-05-03T12:46:52Z</time></trkpt><trkpt lat="42.285660613200164" lon="13.497332344799087"><ele>583.0</ele><time>2026-05-03T12:46:53Z</time></trkpt><trkpt lat="42.2857337934268" lon="13.497145900130134"><ele>583.0</ele><time>2026-05-03T12:46:54Z</time></trkpt><trkpt lat="42.28580540200315" lon="13.496963072536694"><ele>583.0</ele><time>2026-05-03T12:46:55Z</time></trkpt><trkpt lat="42.28587533951397" lon="13.496777169277534"><ele>585.25</ele><time>2026-05-03T12:46:56Z</time></trkpt><trkpt lat="42.28593892655043" lon="13.496594596869539"><ele>587.5</ele><time>2026-05-03T12:46:57Z</time></trkpt><trkpt lat="42.286009968713984" lon="13.496431993655557"><ele>589.75</ele><time>2026-05-03T12:46:58Z</time></trkpt><trkpt lat="42.28609220406603" lon="13.49628093053851"><ele>592.0</ele><time>2026-05-03T12:46:59Z</time></trkpt><trkpt lat="42.28618574969477" lon="13.496128453077782"><ele>590.3333333333334</ele><time>2026-05-03T12:47:00Z</time></trkpt><trkpt lat="42.28628387821594" lon="13.495979827640491"><ele>588.6666666666666</ele><time>2026-05-03T12:47:01Z</time></trkpt><trkpt lat="42.2863868108579" lon="13.495832857787935"><ele>587.0</ele><time>2026-05-03T12:47:02Z</time></trkpt><trkpt lat="42.286482090785555" lon="13.49566955365195"><ele>587.0</ele><time>2026-05-03T12:47:03Z</time></trkpt><trkpt lat="42.286557701715275" lon="13.49549404650425"><ele>587.0</ele><time>2026-05-03T12:47:04Z</time></trkpt><trkpt lat="42.28662966820114" lon="13.495310399570622"><ele>587.0</ele><time>2026-05-03T12:47:05Z</time></trkpt><trkpt lat="42.28669757267663" lon="13.495160297980147"><ele>587.0</ele><time>2026-05-03T12:47:06Z</time></trkpt><trkpt lat="42.2867949835762" lon="13.495052298544257"><ele>591.25</ele><time>2026-05-03T12:47:07Z</time></trkpt><trkpt lat="42.286910342388374" lon="13.494942240331175"><ele>595.5</ele><time>2026-05-03T12:47:08Z</time></trkpt><trkpt lat="42.287020743841154" lon="13.494813078140877"><ele>599.75</ele><time>2026-05-03T12:47:09Z</time></trkpt><trkpt lat="42.2871188696064" lon="13.494662824100875"><ele>604.0</ele><time>2026-05-03T12:47:10Z</time></trkpt><trkpt lat="42.287227006596225" lon="13.494523216842152"><ele>603.75</ele><time>2026-05-03T12:47:11Z</time></trkpt><trkpt lat="42.28733838535942" lon="13.494383489485712"><ele>603.5</ele><time>2026-05-03T12:47:12Z</time></trkpt><trkpt lat="42.2874356766759" lon="13.494226708037875"><ele>603.25</ele><time>2026-05-03T12:47:13Z</time></trkpt><trkpt lat="42.28752201107268" lon="13.494074145350712"><ele>603.0</ele><time>2026-05-03T12:47:14Z</time></trkpt><trkpt lat="42.2876001256568" lon="13.49391957343207"><ele>603.0</ele><time>2026-05-03T12:47:15Z</time></trkpt><trkpt lat="42.28767908280031" lon="13.493786131673078"><ele>603.0</ele><time>2026-05-03T12:47:16Z</time></trkpt><trkpt lat="42.28777373224872" lon="13.493662345202141"><ele>603.0</ele><time>2026-05-03T12:47:17Z</time></trkpt><trkpt lat="42.28789478004036" lon="13.493562949276185"><ele>603.0</ele><time>2026-05-03T12:47:18Z</time></trkpt><trkpt lat="42.288033951712144" lon="13.493466878065826"><ele>604.3333333333334</ele><time>2026-05-03T12:47:19Z</time></trkpt><trkpt lat="42.28817697109015" lon="13.493370767196586"><ele>605.6666666666667</ele><time>2026-05-03T12:47:20Z</time></trkpt><trkpt lat="42.28832994919829" lon="13.493269426752057"><ele>607.0</ele><time>2026-05-03T12:47:21Z</time></trkpt><trkpt lat="42.28848500491263" lon="13.49316021413935"><ele>607.0</ele><time>2026-05-03T12:47:22Z</time></trkpt><trkpt lat="42.28862917124846" lon="13.493050171946175"><ele>607.0</ele><time>2026-05-03T12:47:23Z</time></trkpt><trkpt lat="42.28877404979457" lon="13.492924618238698"><ele>607.0</ele><time>2026-05-03T12:47:24Z</time></trkpt><trkpt lat="42.288913010776426" lon="13.492781181561066"><ele>610.3333333333334</ele><time>2026-05-03T12:47:25Z</time></trkpt><trkpt lat="42.2890442626291" lon="13.49262759057415"><ele>613.6666666666666</ele><time>2026-05-03T12:47:26Z</time></trkpt><trkpt lat="42.28916861385425" lon="13.492465392969478"><ele>617.0</ele><time>2026-05-03T12:47:27Z</time></trkpt><trkpt lat="42.28927757489394" lon="13.492300020062585"><ele>617.0</ele><time>2026-05-03T12:47:28Z</time></trkpt><trkpt lat="42.28938675432663" lon="13.492126484547834"><ele>617.0</ele><time>2026-05-03T12:47:29Z</time></trkpt><trkpt lat="42.289494197750486" lon="13.491947045320492"><ele>617.0</ele><time>2026-05-03T12:47:30Z</time></trkpt><trkpt lat="42.28960292295776" lon="13.491763865857202"><ele>614.0</ele><time>2026-05-03T12:47:31Z</time></trkpt><trkpt lat="42.28971504686373" lon="13.491572701434086"><ele>611.0</ele><time>2026-05-03T12:47:32Z</time></trkpt><trkpt lat="42.28982256638274" lon="13.491381039788577"><ele>608.0</ele><time>2026-05-03T12:47:33Z</time></trkpt><trkpt lat="42.289920163109635" lon="13.491203108465314"><ele>614.4</ele><time>2026-05-03T12:47:34Z</time></trkpt><trkpt lat="42.29000612924925" lon="13.49105602949874"><ele>620.8</ele><time>2026-05-03T12:47:35Z</time></trkpt><trkpt lat="42.290077997034544" lon="13.490956361377213"><ele>627.2</ele><time>2026-05-03T12:47:36Z</time></trkpt><trkpt lat="42.290137401083" lon="13.490889302549085"><ele>633.6</ele><time>2026-05-03T12:47:37Z</time></trkpt><trkpt lat="42.2902038414864" lon="13.490862653432702"><ele>640.0</ele><time>2026-05-03T12:47:38Z</time></trkpt><trkpt lat="42.29028660628101" lon="13.490778634486315"><ele>640.0</ele><time>2026-05-03T12:47:40Z</time></trkpt><trkpt lat="42.29027620164521" lon="13.490648025964015"><ele>640.0</ele><time>2026-05-03T12:47:41Z</time></trkpt><trkpt lat="42.290243328619795" lon="13.490562260103555"><ele>640.0</ele><time>2026-05-03T12:47:42Z</time></trkpt><trkpt lat="42.29016297732467" lon="13.49053821073093"><ele>640.0</ele><time>2026-05-03T12:47:43Z</time></trkpt><trkpt lat="42.29009030758189" lon="13.490581503041879"><ele>640.0</ele><time>2026-05-03T12:47:44Z</time></trkpt><trkpt lat="42.290032943267065" lon="13.490654990801554"><ele>640.0</ele><time>2026-05-03T12:47:45Z</time></trkpt><trkpt lat="42.28995975824294" lon="13.490730960030088"><ele>640.0</ele><time>2026-05-03T12:47:46Z</time></trkpt><trkpt lat="42.28986884104802" lon="13.490811309210542"><ele>640.0</ele><time>2026-05-03T12:47:47Z</time></trkpt><trkpt lat="42.28976807010218" lon="13.49088113967309"><ele>640.0</ele><time>2026-05-03T12:47:48Z</time></trkpt><trkpt lat="42.289660328289195" lon="13.490968341696258"><ele>640.0</ele><time>2026-05-03T12:47:49Z</time></trkpt><trkpt lat="42.289545711515025" lon="13.491062290305296"><ele>640.8</ele><time>2026-05-03T12:47:50Z</time></trkpt><trkpt lat="42.28943199477203" lon="13.491166432113822"><ele>641.6</ele><time>2026-05-03T12:47:51Z</time></trkpt><trkpt lat="42.289337381592304" lon="13.491253434550291"><ele>642.4000000000001</ele><time>2026-05-03T12:47:52Z</time></trkpt><trkpt lat="42.28925231569402" lon="13.491323313464806"><ele>643.2</ele><time>2026-05-03T12:47:53Z</time></trkpt><trkpt lat="42.28918118381367" lon="13.491389604769784"><ele>644.0</ele><time>2026-05-03T12:47:54Z</time></trkpt><trkpt lat="42.28910734645307" lon="13.491436095909922"><ele>644.0</ele><time>2026-05-03T12:47:55Z</time></trkpt><trkpt lat="42.28905127013735" lon="13.491487451042262"><ele>644.0</ele><time>2026-05-03T12:47:56Z</time></trkpt><trkpt lat="42.288955459599954" lon="13.49157518099167"><ele>644.0</ele><time>2026-05-03T12:47:58Z</time></trkpt><trkpt lat="42.28888217478381" lon="13.491616580687145"><ele>644.0</ele><time>2026-05-03T12:48:00Z</time></trkpt><trkpt lat="42.288821272552696" lon="13.491505984190344"><ele>644.0</ele><time>2026-05-03T12:48:02Z</time></trkpt><trkpt lat="42.28889754192051" lon="13.491389269045373"><ele>644.0</ele><time>2026-05-03T12:48:04Z</time></trkpt><trkpt lat="42.288959168387606" lon="13.491360976911544"><ele>644.0</ele><time>2026-05-03T12:48:05Z</time></trkpt><trkpt lat="42.28903159655827" lon="13.49127039948673"><ele>644.0</ele><time>2026-05-03T12:48:06Z</time></trkpt><trkpt lat="42.2891204025142" lon="13.491158225153825"><ele>644.0</ele><time>2026-05-03T12:48:07Z</time></trkpt><trkpt lat="42.28921905799509" lon="13.49101868760885"><ele>644.0</ele><time>2026-05-03T12:48:08Z</time></trkpt><trkpt lat="42.2893133422645" lon="13.490844319850694"><ele>651.0</ele><time>2026-05-03T12:48:09Z</time></trkpt><trkpt lat="42.28942732562812" lon="13.490672351821612"><ele>658.0</ele><time>2026-05-03T12:48:10Z</time></trkpt><trkpt lat="42.28952902787919" lon="13.490530478375076"><ele>665.0</ele><time>2026-05-03T12:48:11Z</time></trkpt><trkpt lat="42.28960938423086" lon="13.490411646368095"><ele>672.0</ele><time>2026-05-03T12:48:12Z</time></trkpt><trkpt lat="42.289677676696726" lon="13.490322397533644"><ele>671.8333333333334</ele><time>2026-05-03T12:48:13Z</time></trkpt><trkpt lat="42.28973922876451" lon="13.490257629861425"><ele>671.6666666666666</ele><time>2026-05-03T12:48:14Z</time></trkpt><trkpt lat="42.28979318391524" lon="13.490201777941083"><ele>671.5</ele><time>2026-05-03T12:48:15Z</time></trkpt><trkpt lat="42.289870692865854" lon="13.490125330113825"><ele>671.3333333333333</ele><time>2026-05-03T12:48:17Z</time></trkpt><trkpt lat="42.28990267426494" lon="13.490038586954917"><ele>671.1666666666666</ele><time>2026-05-03T12:48:19Z</time></trkpt><trkpt lat="42.289910211024626" lon="13.489946966819899"><ele>671.0</ele><time>2026-05-03T12:48:21Z</time></trkpt><trkpt lat="42.28983942093743" lon="13.48989258964631"><ele>676.4</ele><time>2026-05-03T12:48:23Z</time></trkpt><trkpt lat="42.28975652697385" lon="13.489993454880205"><ele>681.8</ele><time>2026-05-03T12:48:25Z</time></trkpt><trkpt lat="42.289669561706745" lon="13.49009861698969"><ele>687.1999999999999</ele><time>2026-05-03T12:48:27Z</time></trkpt><trkpt lat="42.289600044950156" lon="13.490152599617504"><ele>692.5999999999999</ele><time>2026-05-03T12:48:28Z</time></trkpt><trkpt lat="42.289520158367935" lon="13.490222871613792"><ele>698.0</ele><time>2026-05-03T12:48:29Z</time></trkpt><trkpt lat="42.28942096426572" lon="13.490315319515501"><ele>698.0</ele><time>2026-05-03T12:48:30Z</time></trkpt><trkpt lat="42.289313671706864" lon="13.490405597299096"><ele>698.0</ele><time>2026-05-03T12:48:31Z</time></trkpt><trkpt lat="42.28920418384951" lon="13.490499743382049"><ele>698.0</ele><time>2026-05-03T12:48:32Z</time></trkpt><trkpt lat="42.28909265112808" lon="13.490598347725482"><ele>698.0</ele><time>2026-05-03T12:48:33Z</time></trkpt><trkpt lat="42.28897936606169" lon="13.490705918053685"><ele>700.0</ele><time>2026-05-03T12:48:34Z</time></trkpt><trkpt lat="42.288859928535175" lon="13.490802603632213"><ele>702.0</ele><time>2026-05-03T12:48:35Z</time></trkpt><trkpt lat="42.288738671407195" lon="13.490905537601497"><ele>704.0</ele><time>2026-05-03T12:48:36Z</time></trkpt><trkpt lat="42.288625342156344" lon="13.491002229906352"><ele>706.0</ele><time>2026-05-03T12:48:37Z</time></trkpt><trkpt lat="42.28853266011099" lon="13.491112517844408"><ele>706.0</ele><time>2026-05-03T12:48:38Z</time></trkpt><trkpt lat="42.28843660010776" lon="13.491204028871033"><ele>706.0</ele><time>2026-05-03T12:48:39Z</time></trkpt><trkpt lat="42.28834825354982" lon="13.491290947208517"><ele>706.0</ele><time>2026-05-03T12:48:40Z</time></trkpt><trkpt lat="42.28825673625205" lon="13.491358633819967"><ele>706.0</ele><time>2026-05-03T12:48:41Z</time></trkpt><trkpt lat="42.288147784659365" lon="13.491412840418947"><ele>706.0</ele><time>2026-05-03T12:48:42Z</time></trkpt><trkpt lat="42.288011139673074" lon="13.491435813270185"><ele>702.6666666666667</ele><time>2026-05-03T12:48:43Z</time></trkpt><trkpt lat="42.28786355884352" lon="13.49149091594909"><ele>699.3333333333334</ele><time>2026-05-03T12:48:44Z</time></trkpt><trkpt lat="42.28770437918542" lon="13.491529427148835"><ele>696.0</ele><time>2026-05-03T12:48:45Z</time></trkpt><trkpt lat="42.28753686838781" lon="13.491564562307577"><ele>696.0</ele><time>2026-05-03T12:48:46Z</time></trkpt><trkpt lat="42.28736944736922" lon="13.49159901521126"><ele>696.0</ele><time>2026-05-03T12:48:47Z</time></trkpt><trkpt lat="42.287214323724285" lon="13.491640085148365"><ele>696.0</ele><time>2026-05-03T12:48:48Z</time></trkpt><trkpt lat="42.28707078633224" lon="13.49167834982467"><ele>699.25</ele><time>2026-05-03T12:48:49Z</time></trkpt><trkpt lat="42.28694235101757" lon="13.491697264796"><ele>702.5</ele><time>2026-05-03T12:48:50Z</time></trkpt><trkpt lat="42.28680787672056" lon="13.491732073975221"><ele>705.75</ele><time>2026-05-03T12:48:51Z</time></trkpt><trkpt lat="42.286685233508926" lon="13.491743590487015"><ele>709.0</ele><time>2026-05-03T12:48:52Z</time></trkpt><trkpt lat="42.286558396054666" lon="13.491747167269738"><ele>709.0</ele><time>2026-05-03T12:48:53Z</time></trkpt><trkpt lat="42.28643241164554" lon="13.4917342214692"><ele>709.0</ele><time>2026-05-03T12:48:54Z</time></trkpt><trkpt lat="42.286310267547734" lon="13.491706580156908"><ele>709.0</ele><time>2026-05-03T12:48:55Z</time></trkpt><trkpt lat="42.28619511258623" lon="13.491694622781974"><ele>709.0</ele><time>2026-05-03T12:48:56Z</time></trkpt><trkpt lat="42.28609523307441" lon="13.491724129643197"><ele>707.0</ele><time>2026-05-03T12:48:57Z</time></trkpt><trkpt lat="42.28600792095208" lon="13.491786093775199"><ele>705.0</ele><time>2026-05-03T12:48:58Z</time></trkpt><trkpt lat="42.285924469582696" lon="13.491860974508537"><ele>703.0</ele><time>2026-05-03T12:48:59Z</time></trkpt><trkpt lat="42.28583398215848" lon="13.491977027132897"><ele>701.0</ele><time>2026-05-03T12:49:00Z</time></trkpt><trkpt lat="42.285727851033585" lon="13.492138502945417"><ele>701.0</ele><time>2026-05-03T12:49:01Z</time></trkpt><trkpt lat="42.28561993926899" lon="13.492310110894964"><ele>701.0</ele><time>2026-05-03T12:49:02Z</time></trkpt><trkpt lat="42.28552298156608" lon="13.492474500340263"><ele>701.0</ele><time>2026-05-03T12:49:03Z</time></trkpt><trkpt lat="42.285446521418216" lon="13.4926251541489"><ele>703.5999999999999</ele><time>2026-05-03T12:49:04Z</time></trkpt><trkpt lat="42.285377695117916" lon="13.492755601570686"><ele>706.2</ele><time>2026-05-03T12:49:05Z</time></trkpt><trkpt lat="42.28530989375188" lon="13.492862079584702"><ele>708.8</ele><time>2026-05-03T12:49:06Z</time></trkpt><trkpt lat="42.285253217786035" lon="13.4929591108951"><ele>711.4000000000001</ele><time>2026-05-03T12:49:07Z</time></trkpt><trkpt lat="42.28517808932102" lon="13.493030047011223"><ele>714.0</ele><time>2026-05-03T12:49:08Z</time></trkpt><trkpt lat="42.285075500828796" lon="13.493059318807745"><ele>714.0</ele><time>2026-05-03T12:49:09Z</time></trkpt><trkpt lat="42.28499623760753" lon="13.493133596650454"><ele>714.0</ele><time>2026-05-03T12:49:10Z</time></trkpt><trkpt lat="42.284930486724484" lon="13.493182955577417"><ele>714.0</ele><time>2026-05-03T12:49:11Z</time></trkpt><trkpt lat="42.2849069661193" lon="13.49328664413824"><ele>714.0</ele><time>2026-05-03T12:49:12Z</time></trkpt><trkpt lat="42.28489239088329" lon="13.493409043632223"><ele>714.0</ele><time>2026-05-03T12:49:13Z</time></trkpt><trkpt lat="42.28484453738956" lon="13.493598974977957"><ele>716.75</ele><time>2026-05-03T12:49:14Z</time></trkpt><trkpt lat="42.28481038931616" lon="13.493785229926297"><ele>719.5</ele><time>2026-05-03T12:49:15Z</time></trkpt><trkpt lat="42.28477432410364" lon="13.493945364808884"><ele>722.25</ele><time>2026-05-03T12:49:16Z</time></trkpt><trkpt lat="42.28472520391624" lon="13.494093123231195"><ele>725.0</ele><time>2026-05-03T12:49:17Z</time></trkpt><trkpt lat="42.28467430310721" lon="13.494219166915693"><ele>725.0</ele><time>2026-05-03T12:49:18Z</time></trkpt><trkpt lat="42.28463408385034" lon="13.494325399581756"><ele>725.0</ele><time>2026-05-03T12:49:19Z</time></trkpt><trkpt lat="42.2845972033335" lon="13.494401471896937"><ele>725.0</ele><time>2026-05-03T12:49:20Z</time></trkpt><trkpt lat="42.28454934834127" lon="13.49445988864898"><ele>725.0</ele><time>2026-05-03T12:49:21Z</time></trkpt><trkpt lat="42.28447799257987" lon="13.494494736331085"><ele>725.0</ele><time>2026-05-03T12:49:22Z</time></trkpt><trkpt lat="42.284389285196355" lon="13.49445972283595"><ele>725.0</ele><time>2026-05-03T12:49:23Z</time></trkpt><trkpt lat="42.284287820279786" lon="13.49444217210553"><ele>725.0</ele><time>2026-05-03T12:49:24Z</time></trkpt><trkpt lat="42.28414556385119" lon="13.494406930259332"><ele>725.0</ele><time>2026-05-03T12:49:25Z</time></trkpt><trkpt lat="42.283982696026065" lon="13.494363933821582"><ele>725.0</ele><time>2026-05-03T12:49:26Z</time></trkpt><trkpt lat="42.28381746101731" lon="13.494319583749329"><ele>724.6666666666666</ele><time>2026-05-03T12:49:27Z</time></trkpt><trkpt lat="42.28365179587132" lon="13.494296912180204"><ele>724.3333333333334</ele><time>2026-05-03T12:49:28Z</time></trkpt><trkpt lat="42.28349774737704" lon="13.494238727232327"><ele>724.0</ele><time>2026-05-03T12:49:29Z</time></trkpt><trkpt lat="42.28334735545752" lon="13.49421821609264"><ele>724.0</ele><time>2026-05-03T12:49:30Z</time></trkpt><trkpt lat="42.283208183867444" lon="13.494175632608188"><ele>724.0</ele><time>2026-05-03T12:49:31Z</time></trkpt><trkpt lat="42.283080961200774" lon="13.494125482373478"><ele>724.0</ele><time>2026-05-03T12:49:32Z</time></trkpt><trkpt lat="42.28296475269099" lon="13.494091210006415"><ele>724.0</ele><time>2026-05-03T12:49:33Z</time></trkpt><trkpt lat="42.28286513803647" lon="13.494056567523593"><ele>724.0</ele><time>2026-05-03T12:49:34Z</time></trkpt><trkpt lat="42.282776458509495" lon="13.493991115928713"><ele>724.0</ele><time>2026-05-03T12:49:35Z</time></trkpt><trkpt lat="42.28271062782788" lon="13.493877879394319"><ele>724.0</ele><time>2026-05-03T12:49:36Z</time></trkpt><trkpt lat="42.28266476423699" lon="13.493739756736865"><ele>724.0</ele><time>2026-05-03T12:49:37Z</time></trkpt><trkpt lat="42.282619940072856" lon="13.49357569455386"><ele>724.0</ele><time>2026-05-03T12:49:38Z</time></trkpt><trkpt lat="42.28257975933835" lon="13.493392305228976"><ele>724.0</ele><time>2026-05-03T12:49:39Z</time></trkpt><trkpt lat="42.2825476711764" lon="13.493207306168419"><ele>724.0</ele><time>2026-05-03T12:49:40Z</time></trkpt><trkpt lat="42.28251628917986" lon="13.49299224714313"><ele>724.0</ele><time>2026-05-03T12:49:41Z</time></trkpt><trkpt lat="42.28248976493852" lon="13.492758485732745"><ele>725.6666666666667</ele><time>2026-05-03T12:49:42Z</time></trkpt><trkpt lat="42.28247298545482" lon="13.492535475181489"><ele>727.3333333333334</ele><time>2026-05-03T12:49:43Z</time></trkpt><trkpt lat="42.28246601472717" lon="13.492309383193614"><ele>729.0</ele><time>2026-05-03T12:49:44Z</time></trkpt><trkpt lat="42.28245283970338" lon="13.492101446555502"><ele>730.5</ele><time>2026-05-03T12:49:45Z</time></trkpt><trkpt lat="42.282461302742426" lon="13.491909987224211"><ele>732.0</ele><time>2026-05-03T12:49:46Z</time></trkpt><trkpt lat="42.28249426407598" lon="13.491737142842254"><ele>733.5</ele><time>2026-05-03T12:49:47Z</time></trkpt><trkpt lat="42.2825456379463" lon="13.49157051352804"><ele>735.0</ele><time>2026-05-03T12:49:48Z</time></trkpt><trkpt lat="42.28262639107475" lon="13.49140190939758"><ele>736.0</ele><time>2026-05-03T12:49:49Z</time></trkpt><trkpt lat="42.28271314698146" lon="13.491242805164228"><ele>737.0</ele><time>2026-05-03T12:49:50Z</time></trkpt><trkpt lat="42.282784573588366" lon="13.491076378342777"><ele>738.0</ele><time>2026-05-03T12:49:51Z</time></trkpt><trkpt lat="42.28281465569502" lon="13.490924357487655"><ele>739.0</ele><time>2026-05-03T12:49:52Z</time></trkpt><trkpt lat="42.28285911491132" lon="13.490757990292922"><ele>739.0</ele><time>2026-05-03T12:49:53Z</time></trkpt><trkpt lat="42.28286835931746" lon="13.490583357054328"><ele>739.0</ele><time>2026-05-03T12:49:54Z</time></trkpt><trkpt lat="42.2828591029138" lon="13.4904005174122"><ele>739.0</ele><time>2026-05-03T12:49:55Z</time></trkpt><trkpt lat="42.28283718986984" lon="13.490223352810023"><ele>739.0</ele><time>2026-05-03T12:49:56Z</time></trkpt><trkpt lat="42.28281703219974" lon="13.4900239039751"><ele>740.0</ele><time>2026-05-03T12:49:57Z</time></trkpt><trkpt lat="42.28282081972463" lon="13.48983962554853"><ele>741.0</ele><time>2026-05-03T12:49:58Z</time></trkpt><trkpt lat="42.282843596374086" lon="13.489666756158714"><ele>742.0</ele><time>2026-05-03T12:49:59Z</time></trkpt><trkpt lat="42.282857774314934" lon="13.489466609656404"><ele>743.0</ele><time>2026-05-03T12:50:00Z</time></trkpt><trkpt lat="42.282832206306686" lon="13.489256044133382"><ele>745.3333333333333</ele><time>2026-05-03T12:50:01Z</time></trkpt><trkpt lat="42.2827886439796" lon="13.489027049224903"><ele>747.6666666666666</ele><time>2026-05-03T12:50:02Z</time></trkpt><trkpt lat="42.28273490119041" lon="13.488786922577203"><ele>750.0</ele><time>2026-05-03T12:50:03Z</time></trkpt><trkpt lat="42.28268861668273" lon="13.488582462601752"><ele>752.0</ele><time>2026-05-03T12:50:04Z</time></trkpt><trkpt lat="42.282648025457945" lon="13.488403152521087"><ele>754.0</ele><time>2026-05-03T12:50:05Z</time></trkpt><trkpt lat="42.282608938186314" lon="13.488231933359003"><ele>756.0</ele><time>2026-05-03T12:50:06Z</time></trkpt><trkpt lat="42.2825716267965" lon="13.488075298690259"><ele>758.0</ele><time>2026-05-03T12:50:07Z</time></trkpt><trkpt lat="42.28253397894561" lon="13.487919084818012"><ele>760.25</ele><time>2026-05-03T12:50:08Z</time></trkpt><trkpt lat="42.282502559181026" lon="13.487759620050356"><ele>762.5</ele><time>2026-05-03T12:50:09Z</time></trkpt><trkpt lat="42.28248729652813" lon="13.487638767287233"><ele>764.75</ele><time>2026-05-03T12:50:10Z</time></trkpt><trkpt lat="42.28249620488821" lon="13.487467820743435"><ele>767.0</ele><time>2026-05-03T12:50:11Z</time></trkpt><trkpt lat="42.28252761412428" lon="13.487310893922958"><ele>767.0</ele><time>2026-05-03T12:50:12Z</time></trkpt><trkpt lat="42.2825570135655" lon="13.487139943491325"><ele>767.0</ele><time>2026-05-03T12:50:13Z</time></trkpt><trkpt lat="42.28259464394768" lon="13.486963743145074"><ele>767.0</ele><time>2026-05-03T12:50:14Z</time></trkpt><trkpt lat="42.28263696045937" lon="13.486785987726511"><ele>767.0</ele><time>2026-05-03T12:50:15Z</time></trkpt><trkpt lat="42.282685221950516" lon="13.48661446386762"><ele>767.75</ele><time>2026-05-03T12:50:16Z</time></trkpt><trkpt lat="42.282732870407415" lon="13.48641479449607"><ele>768.5</ele><time>2026-05-03T12:50:17Z</time></trkpt><trkpt lat="42.282806225712875" lon="13.486265171166158"><ele>769.25</ele><time>2026-05-03T12:50:18Z</time></trkpt><trkpt lat="42.28286680540901" lon="13.486101466526708"><ele>770.0</ele><time>2026-05-03T12:50:19Z</time></trkpt><trkpt lat="42.28290120125333" lon="13.485942324283627"><ele>771.0</ele><time>2026-05-03T12:50:20Z</time></trkpt><trkpt lat="42.28293701068294" lon="13.485778228885595"><ele>772.0</ele><time>2026-05-03T12:50:21Z</time></trkpt><trkpt lat="42.28296697348452" lon="13.485594226630885"><ele>773.0</ele><time>2026-05-03T12:50:22Z</time></trkpt><trkpt lat="42.28297691656382" lon="13.485416405555235"><ele>774.0</ele><time>2026-05-03T12:50:23Z</time></trkpt><trkpt lat="42.28298752100217" lon="13.485226756868853"><ele>776.0</ele><time>2026-05-03T12:50:24Z</time></trkpt><trkpt lat="42.28300080308231" lon="13.485029146775698"><ele>778.0</ele><time>2026-05-03T12:50:25Z</time></trkpt><trkpt lat="42.28300987810988" lon="13.484820010206667"><ele>780.0</ele><time>2026-05-03T12:50:26Z</time></trkpt><trkpt lat="42.28303412684715" lon="13.484620635415176"><ele>780.75</ele><time>2026-05-03T12:50:27Z</time></trkpt><trkpt lat="42.28307603528161" lon="13.484441341831081"><ele>781.5</ele><time>2026-05-03T12:50:28Z</time></trkpt><trkpt lat="42.283142779043196" lon="13.484270481333452"><ele>782.25</ele><time>2026-05-03T12:50:29Z</time></trkpt><trkpt lat="42.28319015341013" lon="13.484083402592658"><ele>783.0</ele><time>2026-05-03T12:50:30Z</time></trkpt><trkpt lat="42.28325338388043" lon="13.48390485828518"><ele>785.25</ele><time>2026-05-03T12:50:31Z</time></trkpt><trkpt lat="42.283313601522124" lon="13.483730927215058"><ele>787.5</ele><time>2026-05-03T12:50:32Z</time></trkpt><trkpt lat="42.28333577950805" lon="13.483558495565468"><ele>789.75</ele><time>2026-05-03T12:50:33Z</time></trkpt><trkpt lat="42.28331437463567" lon="13.483364883074042"><ele>792.0</ele><time>2026-05-03T12:50:34Z</time></trkpt><trkpt lat="42.28327666059763" lon="13.48316436645589"><ele>792.0</ele><time>2026-05-03T12:50:35Z</time></trkpt><trkpt lat="42.28325242055458" lon="13.482955568225476"><ele>792.0</ele><time>2026-05-03T12:50:36Z</time></trkpt><trkpt lat="42.28322448848197" lon="13.48275956892773"><ele>792.0</ele><time>2026-05-03T12:50:37Z</time></trkpt><trkpt lat="42.28320716791124" lon="13.48258137156157"><ele>792.0</ele><time>2026-05-03T12:50:38Z</time></trkpt><trkpt lat="42.2832031527589" lon="13.482404354156936"><ele>793.75</ele><time>2026-05-03T12:50:39Z</time></trkpt><trkpt lat="42.28321849780848" lon="13.482216768296585"><ele>795.5</ele><time>2026-05-03T12:50:40Z</time></trkpt><trkpt lat="42.28321438015113" lon="13.482014755462755"><ele>797.25</ele><time>2026-05-03T12:50:41Z</time></trkpt><trkpt lat="42.28321976853936" lon="13.481820370332935"><ele>799.0</ele><time>2026-05-03T12:50:42Z</time></trkpt><trkpt lat="42.28320042687177" lon="13.481638055263373"><ele>800.25</ele><time>2026-05-03T12:50:43Z</time></trkpt><trkpt lat="42.28317739999246" lon="13.481471205413502"><ele>801.5</ele><time>2026-05-03T12:50:44Z</time></trkpt><trkpt lat="42.2831522187325" lon="13.481313196617124"><ele>802.75</ele><time>2026-05-03T12:50:45Z</time></trkpt><trkpt lat="42.28312935038362" lon="13.481160409024483"><ele>804.0</ele><time>2026-05-03T12:50:46Z</time></trkpt><trkpt lat="42.28314520207614" lon="13.481032379748255"><ele>804.25</ele><time>2026-05-03T12:50:47Z</time></trkpt><trkpt lat="42.28319324099383" lon="13.480907021488857"><ele>804.5</ele><time>2026-05-03T12:50:48Z</time></trkpt><trkpt lat="42.283289946485226" lon="13.48082667843956"><ele>804.75</ele><time>2026-05-03T12:50:49Z</time></trkpt><trkpt lat="42.283390273597725" lon="13.480753290889979"><ele>805.0</ele><time>2026-05-03T12:50:50Z</time></trkpt><trkpt lat="42.28350205038244" lon="13.480665393101702"><ele>805.0</ele><time>2026-05-03T12:50:51Z</time></trkpt><trkpt lat="42.28360636341816" lon="13.48057553082672"><ele>805.0</ele><time>2026-05-03T12:50:52Z</time></trkpt><trkpt lat="42.28370253916348" lon="13.480424650350901"><ele>805.0</ele><time>2026-05-03T12:50:53Z</time></trkpt><trkpt lat="42.28380332003483" lon="13.48021655591131"><ele>805.6666666666666</ele><time>2026-05-03T12:50:54Z</time></trkpt><trkpt lat="42.28389965808777" lon="13.480006638029307"><ele>806.3333333333333</ele><time>2026-05-03T12:50:55Z</time></trkpt><trkpt lat="42.283992962381994" lon="13.47983493677228"><ele>807.0</ele><time>2026-05-03T12:50:56Z</time></trkpt><trkpt lat="42.28408900545192" lon="13.479691559319576"><ele>808.25</ele><time>2026-05-03T12:50:57Z</time></trkpt><trkpt lat="42.28418095914214" lon="13.479554634466991"><ele>809.5</ele><time>2026-05-03T12:50:58Z</time></trkpt><trkpt lat="42.28426093713357" lon="13.479422798916692"><ele>810.75</ele><time>2026-05-03T12:50:59Z</time></trkpt><trkpt lat="42.28432318392689" lon="13.47929485035883"><ele>812.0</ele><time>2026-05-03T12:51:00Z</time></trkpt><trkpt lat="42.28437187050133" lon="13.479159754271846"><ele>812.0</ele><time>2026-05-03T12:51:01Z</time></trkpt><trkpt lat="42.28439779626451" lon="13.478987324125233"><ele>812.0</ele><time>2026-05-03T12:51:02Z</time></trkpt><trkpt lat="42.28440430866647" lon="13.478828766239516"><ele>812.0</ele><time>2026-05-03T12:51:03Z</time></trkpt><trkpt lat="42.284416721641584" lon="13.478693648603992"><ele>812.0</ele><time>2026-05-03T12:51:04Z</time></trkpt><trkpt lat="42.2844483970087" lon="13.478549647380783"><ele>812.6666666666667</ele><time>2026-05-03T12:51:05Z</time></trkpt><trkpt lat="42.28447326868661" lon="13.47842921745941"><ele>813.3333333333334</ele><time>2026-05-03T12:51:06Z</time></trkpt><trkpt lat="42.28449979356219" lon="13.47833556235602"><ele>814.0</ele><time>2026-05-03T12:51:07Z</time></trkpt><trkpt lat="42.28454086008041" lon="13.478245038581752"><ele>814.6666666666667</ele><time>2026-05-03T12:51:08Z</time></trkpt><trkpt lat="42.28456198806375" lon="13.478152051070763"><ele>815.3333333333334</ele><time>2026-05-03T12:51:09Z</time></trkpt><trkpt lat="42.28461365203128" lon="13.47808762385309"><ele>816.0</ele><time>2026-05-03T12:51:10Z</time></trkpt><trkpt lat="42.284525819586" lon="13.477913419560096"><ele>817.0</ele><time>2026-05-03T12:51:11Z</time></trkpt><trkpt lat="42.28447616158998" lon="13.477775243710012"><ele>818.0</ele><time>2026-05-03T12:51:12Z</time></trkpt><trkpt lat="42.28446978563285" lon="13.47762274089569"><ele>819.0</ele><time>2026-05-03T12:51:13Z</time></trkpt><trkpt lat="42.28448872349687" lon="13.477486164877217"><ele>820.0</ele><time>2026-05-03T12:51:14Z</time></trkpt><trkpt lat="42.28449413463056" lon="13.477375507108519"><ele>821.0</ele><time>2026-05-03T12:51:15Z</time></trkpt><trkpt lat="42.28447096579903" lon="13.477253551565898"><ele>821.0000000000001</ele><time>2026-05-03T12:51:16Z</time></trkpt><trkpt lat="42.28444600639194" lon="13.477120304861572"><ele>821.0</ele><time>2026-05-03T12:51:17Z</time></trkpt><trkpt lat="42.284409599549384" lon="13.476997399042315"><ele>821.0</ele><time>2026-05-03T12:51:18Z</time></trkpt><trkpt lat="42.284380461920975" lon="13.476891700458577"><ele>821.0</ele><time>2026-05-03T12:51:19Z</time></trkpt><trkpt lat="42.28435629252082" lon="13.476804033224917"><ele>821.0000000000001</ele><time>2026-05-03T12:51:20Z</time></trkpt><trkpt lat="42.28433241016406" lon="13.476707013350826"><ele>821.0</ele><time>2026-05-03T12:51:21Z</time></trkpt><trkpt lat="42.28431773046049" lon="13.476606609567511"><ele>822.5000000000001</ele><time>2026-05-03T12:51:22Z</time></trkpt><trkpt lat="42.284325669681074" lon="13.47651482343684"><ele>824.0</ele><time>2026-05-03T12:51:23Z</time></trkpt><trkpt lat="42.28434555299297" lon="13.476412950679501"><ele>825.5</ele><time>2026-05-03T12:51:24Z</time></trkpt><trkpt lat="42.284392014942625" lon="13.476326449508953"><ele>827.0</ele><time>2026-05-03T12:51:25Z</time></trkpt><trkpt lat="42.28443409404535" lon="13.476247286977259"><ele>828.5000000000001</ele><time>2026-05-03T12:51:26Z</time></trkpt><trkpt lat="42.28451718517396" lon="13.47613743312718"><ele>830.0</ele><time>2026-05-03T12:51:28Z</time></trkpt><trkpt lat="42.28451069663402" lon="13.476036903269303"><ele>832.0</ele><time>2026-05-03T12:51:29Z</time></trkpt><trkpt lat="42.28451073418069" lon="13.475949500898295"><ele>834.0</ele><time>2026-05-03T12:51:30Z</time></trkpt><trkpt lat="42.28447807716636" lon="13.475795160208719"><ele>836.0</ele><time>2026-05-03T12:51:32Z</time></trkpt><trkpt lat="42.284433062607334" lon="13.475701447280986"><ele>838.0</ele><time>2026-05-03T12:51:33Z</time></trkpt><trkpt lat="42.28440553220505" lon="13.475582794588014"><ele>840.0</ele><time>2026-05-03T12:51:34Z</time></trkpt><trkpt lat="42.28435122038898" lon="13.47547636894669"><ele>841.6666666666666</ele><time>2026-05-03T12:51:35Z</time></trkpt><trkpt lat="42.28429872119039" lon="13.475373495172052"><ele>843.3333333333333</ele><time>2026-05-03T12:51:36Z</time></trkpt><trkpt lat="42.284254852878526" lon="13.47528753387529"><ele>845.0</ele><time>2026-05-03T12:51:37Z</time></trkpt><trkpt lat="42.28421118559167" lon="13.475201966499375"><ele>846.6666666666666</ele><time>2026-05-03T12:51:38Z</time></trkpt><trkpt lat="42.28417040062042" lon="13.475125578544853"><ele>848.3333333333333</ele><time>2026-05-03T12:51:39Z</time></trkpt><trkpt lat="42.284109782204034" lon="13.475021210043984"><ele>850.0</ele><time>2026-05-03T12:51:41Z</time></trkpt><trkpt lat="42.28405918240572" lon="13.474912818681158"><ele>850.0</ele><time>2026-05-03T12:51:43Z</time></trkpt><trkpt lat="42.284033462700705" lon="13.474814870950754"><ele>850.0</ele><time>2026-05-03T12:51:44Z</time></trkpt><trkpt lat="42.283916606263695" lon="13.47469623101802"><ele>850.0</ele><time>2026-05-03T12:51:45Z</time></trkpt><trkpt lat="42.28383517928646" lon="13.474544937013576"><ele>850.0</ele><time>2026-05-03T12:51:46Z</time></trkpt><trkpt lat="42.283737225024204" lon="13.474366752207088"><ele>851.0</ele><time>2026-05-03T12:51:47Z</time></trkpt><trkpt lat="42.28362451044232" lon="13.474163379650077"><ele>852.0</ele><time>2026-05-03T12:51:48Z</time></trkpt><trkpt lat="42.283491064727556" lon="13.473943746603728"><ele>853.0</ele><time>2026-05-03T12:51:49Z</time></trkpt><trkpt lat="42.28339533421296" lon="13.47372600268818"><ele>854.0</ele><time>2026-05-03T12:51:50Z</time></trkpt><trkpt lat="42.28331385415075" lon="13.473543587091813"><ele>855.0</ele><time>2026-05-03T12:51:51Z</time></trkpt><trkpt lat="42.283222550430374" lon="13.473394627757685"><ele>856.0</ele><time>2026-05-03T12:51:52Z</time></trkpt><trkpt lat="42.28314557840632" lon="13.473254569961549"><ele>857.0</ele><time>2026-05-03T12:51:53Z</time></trkpt><trkpt lat="42.28307618058282" lon="13.4731293259715"><ele>861.0</ele><time>2026-05-03T12:51:54Z</time></trkpt><trkpt lat="42.2829143430078" lon="13.47287747674162"><ele>865.0</ele><time>2026-05-03T12:51:55Z</time></trkpt><trkpt lat="42.28282651888316" lon="13.472720979653841"><ele>869.0</ele><time>2026-05-03T12:51:56Z</time></trkpt><trkpt lat="42.28272946202305" lon="13.472586536814498"><ele>869.0</ele><time>2026-05-03T12:51:57Z</time></trkpt><trkpt lat="42.282611476335894" lon="13.472474110414275"><ele>869.0</ele><time>2026-05-03T12:51:58Z</time></trkpt><trkpt lat="42.28247907205723" lon="13.472377516182222"><ele>869.0</ele><time>2026-05-03T12:51:59Z</time></trkpt><trkpt lat="42.28234789499741" lon="13.472286669816114"><ele>869.0</ele><time>2026-05-03T12:52:00Z</time></trkpt><trkpt lat="42.28221400579117" lon="13.472213837405667"><ele>868.3333333333334</ele><time>2026-05-03T12:52:01Z</time></trkpt><trkpt lat="42.2820776229566" lon="13.472127000836956"><ele>867.6666666666667</ele><time>2026-05-03T12:52:02Z</time></trkpt><trkpt lat="42.28194441691271" lon="13.472020818356015"><ele>867.0</ele><time>2026-05-03T12:52:03Z</time></trkpt><trkpt lat="42.281825303596584" lon="13.471858568943507"><ele>870.3333333333333</ele><time>2026-05-03T12:52:04Z</time></trkpt><trkpt lat="42.28170463718316" lon="13.471669847832521"><ele>873.6666666666666</ele><time>2026-05-03T12:52:05Z</time></trkpt><trkpt lat="42.28157343560303" lon="13.471461724583573"><ele>877.0</ele><time>2026-05-03T12:52:06Z</time></trkpt><trkpt lat="42.28143745180421" lon="13.471277727023649"><ele>880.0</ele><time>2026-05-03T12:52:07Z</time></trkpt><trkpt lat="42.28131736333222" lon="13.471078771868127"><ele>883.0</ele><time>2026-05-03T12:52:08Z</time></trkpt><trkpt lat="42.28119883383902" lon="13.470917132838254"><ele>886.0</ele><time>2026-05-03T12:52:09Z</time></trkpt><trkpt lat="42.28107339503772" lon="13.470767654518728"><ele>886.0</ele><time>2026-05-03T12:52:10Z</time></trkpt><trkpt lat="42.28093458220123" lon="13.470629257476775"><ele>886.0</ele><time>2026-05-03T12:52:11Z</time></trkpt><trkpt lat="42.280802457483034" lon="13.470501346651181"><ele>886.0</ele><time>2026-05-03T12:52:12Z</time></trkpt><trkpt lat="42.280672543754854" lon="13.47039257469777"><ele>889.5</ele><time>2026-05-03T12:52:13Z</time></trkpt><trkpt lat="42.28055802489958" lon="13.470290674279969"><ele>893.0</ele><time>2026-05-03T12:52:14Z</time></trkpt><trkpt lat="42.280447733490746" lon="13.47017539000698"><ele>896.5</ele><time>2026-05-03T12:52:15Z</time></trkpt><trkpt lat="42.280368157413264" lon="13.470029689922482"><ele>900.0</ele><time>2026-05-03T12:52:16Z</time></trkpt><trkpt lat="42.28032029426149" lon="13.469869107288188"><ele>900.0</ele><time>2026-05-03T12:52:17Z</time></trkpt><trkpt lat="42.28031286113509" lon="13.469698617345765"><ele>900.0</ele><time>2026-05-03T12:52:18Z</time></trkpt><trkpt lat="42.280308704431064" lon="13.469498418754256"><ele>900.0</ele><time>2026-05-03T12:52:19Z</time></trkpt><trkpt lat="42.280297934548734" lon="13.469296011252952"><ele>900.0</ele><time>2026-05-03T12:52:20Z</time></trkpt><trkpt lat="42.28030682597615" lon="13.4690895942266"><ele>901.3333333333333</ele><time>2026-05-03T12:52:21Z</time></trkpt><trkpt lat="42.280293692682" lon="13.46884030636713"><ele>902.6666666666666</ele><time>2026-05-03T12:52:22Z</time></trkpt><trkpt lat="42.280271414822465" lon="13.468605110625846"><ele>904.0</ele><time>2026-05-03T12:52:23Z</time></trkpt><trkpt lat="42.28023105436081" lon="13.468347445846176"><ele>904.6666666666666</ele><time>2026-05-03T12:52:24Z</time></trkpt><trkpt lat="42.28018213993154" lon="13.46808521293428"><ele>905.3333333333333</ele><time>2026-05-03T12:52:25Z</time></trkpt><trkpt lat="42.28012958519604" lon="13.467812372093602"><ele>906.0</ele><time>2026-05-03T12:52:26Z</time></trkpt><trkpt lat="42.280080424311706" lon="13.467532547418836"><ele>906.0</ele><time>2026-05-03T12:52:27Z</time></trkpt><trkpt lat="42.280047744135835" lon="13.467250585214325"><ele>906.0</ele><time>2026-05-03T12:52:28Z</time></trkpt><trkpt lat="42.280003023557875" lon="13.466988144051394"><ele>906.0</ele><time>2026-05-03T12:52:29Z</time></trkpt><trkpt lat="42.279960135709025" lon="13.466728911844859"><ele>906.6666666666667</ele><time>2026-05-03T12:52:30Z</time></trkpt><trkpt lat="42.279916190769626" lon="13.466463290183013"><ele>907.3333333333334</ele><time>2026-05-03T12:52:31Z</time></trkpt><trkpt lat="42.27987717330343" lon="13.466205722690892"><ele>908.0</ele><time>2026-05-03T12:52:32Z</time></trkpt><trkpt lat="42.27982832878472" lon="13.465945985901318"><ele>909.0</ele><time>2026-05-03T12:52:33Z</time></trkpt><trkpt lat="42.27982147387814" lon="13.46567606400838"><ele>910.0</ele><time>2026-05-03T12:52:34Z</time></trkpt><trkpt lat="42.27980923666881" lon="13.465388936866473"><ele>911.0</ele><time>2026-05-03T12:52:35Z</time></trkpt><trkpt lat="42.27980718020002" lon="13.465093572153467"><ele>913.5</ele><time>2026-05-03T12:52:36Z</time></trkpt><trkpt lat="42.27981175785286" lon="13.464785581985282"><ele>916.0</ele><time>2026-05-03T12:52:37Z</time></trkpt><trkpt lat="42.27981984433993" lon="13.46446972754674"><ele>919.5</ele><time>2026-05-03T12:52:38Z</time></trkpt><trkpt lat="42.27982911952372" lon="13.464153542993067"><ele>923.0</ele><time>2026-05-03T12:52:39Z</time></trkpt><trkpt lat="42.27983569482244" lon="13.463851808263414"><ele>924.6666666666667</ele><time>2026-05-03T12:52:40Z</time></trkpt><trkpt lat="42.27983292116903" lon="13.463566175235503"><ele>926.3333333333333</ele><time>2026-05-03T12:52:41Z</time></trkpt><trkpt lat="42.27983483825149" lon="13.463283526154179"><ele>928.0</ele><time>2026-05-03T12:52:42Z</time></trkpt><trkpt lat="42.27982056764093" lon="13.463005406560002"><ele>929.0</ele><time>2026-05-03T12:52:43Z</time></trkpt><trkpt lat="42.27979714424437" lon="13.462721572446611"><ele>930.0</ele><time>2026-05-03T12:52:44Z</time></trkpt><trkpt lat="42.27977581531988" lon="13.462442373924517"><ele>931.0</ele><time>2026-05-03T12:52:45Z</time></trkpt><trkpt lat="42.27970070429583" lon="13.462162075456163"><ele>936.0</ele><time>2026-05-03T12:52:46Z</time></trkpt><trkpt lat="42.279617811405615" lon="13.461917324180405"><ele>941.0</ele><time>2026-05-03T12:52:47Z</time></trkpt><trkpt lat="42.27955055721244" lon="13.461689216459302"><ele>946.0</ele><time>2026-05-03T12:52:48Z</time></trkpt><trkpt lat="42.27948381398297" lon="13.46148509021552"><ele>947.0</ele><time>2026-05-03T12:52:49Z</time></trkpt><trkpt lat="42.27943809009644" lon="13.461280192786603"><ele>948.0</ele><time>2026-05-03T12:52:50Z</time></trkpt><trkpt lat="42.27938887132471" lon="13.461088897102483"><ele>949.0</ele><time>2026-05-03T12:52:51Z</time></trkpt><trkpt lat="42.27936893692882" lon="13.460908552461511"><ele>950.0</ele><time>2026-05-03T12:52:52Z</time></trkpt><trkpt lat="42.279381191910495" lon="13.460736532430143"><ele>950.0</ele><time>2026-05-03T12:52:53Z</time></trkpt><trkpt lat="42.27942624368937" lon="13.460576297687904"><ele>950.0</ele><time>2026-05-03T12:52:54Z</time></trkpt><trkpt lat="42.279494258374044" lon="13.460416404987141"><ele>950.0</ele><time>2026-05-03T12:52:55Z</time></trkpt><trkpt lat="42.27957642366431" lon="13.460256987872873"><ele>950.0</ele><time>2026-05-03T12:52:56Z</time></trkpt><trkpt lat="42.279684324238694" lon="13.46012114642321"><ele>949.75</ele><time>2026-05-03T12:52:57Z</time></trkpt><trkpt lat="42.27979965129803" lon="13.460014108101495"><ele>949.5</ele><time>2026-05-03T12:52:58Z</time></trkpt><trkpt lat="42.27992571469997" lon="13.45993682933679"><ele>949.25</ele><time>2026-05-03T12:52:59Z</time></trkpt><trkpt lat="42.280072931045" lon="13.459898858187168"><ele>949.0</ele><time>2026-05-03T12:53:00Z</time></trkpt><trkpt lat="42.28021539142856" lon="13.459838208911956"><ele>949.0</ele><time>2026-05-03T12:53:01Z</time></trkpt><trkpt lat="42.28035992117605" lon="13.459801370876937"><ele>949.0</ele><time>2026-05-03T12:53:02Z</time></trkpt><trkpt lat="42.28050067175058" lon="13.459755608414307"><ele>949.0</ele><time>2026-05-03T12:53:03Z</time></trkpt><trkpt lat="42.28062636270373" lon="13.459704991551385"><ele>949.0</ele><time>2026-05-03T12:53:04Z</time></trkpt><trkpt lat="42.280733892814446" lon="13.459680622045877"><ele>950.5</ele><time>2026-05-03T12:53:05Z</time></trkpt><trkpt lat="42.28084196527646" lon="13.45960898475653"><ele>952.0</ele><time>2026-05-03T12:53:06Z</time></trkpt><trkpt lat="42.28093698438892" lon="13.459509952459669"><ele>953.5</ele><time>2026-05-03T12:53:07Z</time></trkpt><trkpt lat="42.28101047927054" lon="13.459411163362262"><ele>955.0</ele><time>2026-05-03T12:53:08Z</time></trkpt><trkpt lat="42.28109124943751" lon="13.459287880603977"><ele>955.0</ele><time>2026-05-03T12:53:09Z</time></trkpt><trkpt lat="42.281144216226316" lon="13.459176867334852"><ele>955.0</ele><time>2026-05-03T12:53:10Z</time></trkpt><trkpt lat="42.28117543915329" lon="13.459080868055828"><ele>955.0</ele><time>2026-05-03T12:53:11Z</time></trkpt><trkpt lat="42.281192165336925" lon="13.458930344828595"><ele>955.0</ele><time>2026-05-03T12:53:13Z</time></trkpt><trkpt lat="42.28117676186624" lon="13.458828071241683"><ele>955.0</ele><time>2026-05-03T12:53:15Z</time></trkpt><trkpt lat="42.28101298926581" lon="13.458907456626227"><ele>955.0</ele><time>2026-05-03T12:53:20Z</time></trkpt><trkpt lat="42.280966607019245" lon="13.459020339902635"><ele>955.0</ele><time>2026-05-03T12:53:22Z</time></trkpt><trkpt lat="42.28090296539138" lon="13.45909226591722"><ele>955.0</ele><time>2026-05-03T12:53:25Z</time></trkpt><trkpt lat="42.28086921163671" lon="13.459178799420323"><ele>955.0</ele><time>2026-05-03T12:53:27Z</time></trkpt><trkpt lat="42.28076932594074" lon="13.459316643729494"><ele>955.0</ele><time>2026-05-03T12:53:29Z</time></trkpt><trkpt lat="42.280670298838984" lon="13.459387408603734"><ele>958.25</ele><time>2026-05-03T12:53:30Z</time></trkpt><trkpt lat="42.28053743475951" lon="13.459452026106474"><ele>961.5</ele><time>2026-05-03T12:53:31Z</time></trkpt><trkpt lat="42.280398248063804" lon="13.45947170093368"><ele>964.75</ele><time>2026-05-03T12:53:32Z</time></trkpt><trkpt lat="42.28024112286289" lon="13.459462672529526"><ele>968.0</ele><time>2026-05-03T12:53:33Z</time></trkpt><trkpt lat="42.28007069146655" lon="13.459442423914917"><ele>968.0</ele><time>2026-05-03T12:53:34Z</time></trkpt><trkpt lat="42.27991823008535" lon="13.459423053171172"><ele>968.0</ele><time>2026-05-03T12:53:35Z</time></trkpt><trkpt lat="42.27978197645895" lon="13.459442779291034"><ele>968.0</ele><time>2026-05-03T12:53:36Z</time></trkpt><trkpt lat="42.27963699329793" lon="13.4594969805073"><ele>968.0</ele><time>2026-05-03T12:53:37Z</time></trkpt><trkpt lat="42.27949434892878" lon="13.459576175301256"><ele>965.3333333333334</ele><time>2026-05-03T12:53:38Z</time></trkpt><trkpt lat="42.279336032942155" lon="13.45967661774925"><ele>962.6666666666667</ele><time>2026-05-03T12:53:39Z</time></trkpt><trkpt lat="42.279174865359494" lon="13.459785643947018"><ele>960.0</ele><time>2026-05-03T12:53:40Z</time></trkpt><trkpt lat="42.279017921483174" lon="13.45991733801968"><ele>964.3333333333333</ele><time>2026-05-03T12:53:41Z</time></trkpt><trkpt lat="42.27886721864902" lon="13.460065199703058"><ele>968.6666666666666</ele><time>2026-05-03T12:53:42Z</time></trkpt><trkpt lat="42.278726340456764" lon="13.46020573497575"><ele>973.0</ele><time>2026-05-03T12:53:43Z</time></trkpt><trkpt lat="42.27859196749291" lon="13.460358269637387"><ele>971.3333333333333</ele><time>2026-05-03T12:53:44Z</time></trkpt><trkpt lat="42.278476658525655" lon="13.460528123478886"><ele>969.6666666666667</ele><time>2026-05-03T12:53:45Z</time></trkpt><trkpt lat="42.27838776210249" lon="13.460716808055697"><ele>968.0</ele><time>2026-05-03T12:53:46Z</time></trkpt><trkpt lat="42.2783185121616" lon="13.46092032531788"><ele>968.0</ele><time>2026-05-03T12:53:47Z</time></trkpt><trkpt lat="42.278262019009595" lon="13.461141127316962"><ele>968.0</ele><time>2026-05-03T12:53:48Z</time></trkpt><trkpt lat="42.278194289390434" lon="13.461353231782907"><ele>968.0</ele><time>2026-05-03T12:53:49Z</time></trkpt><trkpt lat="42.278125186270245" lon="13.461541749130062"><ele>970.0</ele><time>2026-05-03T12:53:50Z</time></trkpt><trkpt lat="42.27806327188129" lon="13.46170295898811"><ele>972.0</ele><time>2026-05-03T12:53:51Z</time></trkpt><trkpt lat="42.27800821707092" lon="13.461834369105867"><ele>974.0</ele><time>2026-05-03T12:53:52Z</time></trkpt><trkpt lat="42.27796085911374" lon="13.461951680102167"><ele>976.0</ele><time>2026-05-03T12:53:53Z</time></trkpt><trkpt lat="42.277918231576066" lon="13.462058978583242"><ele>978.0</ele><time>2026-05-03T12:53:54Z</time></trkpt><trkpt lat="42.27788139704398" lon="13.462159808842374"><ele>978.0</ele><time>2026-05-03T12:53:55Z</time></trkpt><trkpt lat="42.2778300252355" lon="13.462235432776994"><ele>978.0</ele><time>2026-05-03T12:53:56Z</time></trkpt><trkpt lat="42.277790440034515" lon="13.462322491109445"><ele>978.0</ele><time>2026-05-03T12:53:57Z</time></trkpt><trkpt lat="42.27787708288562" lon="13.462495946221143"><ele>978.0</ele><time>2026-05-03T12:53:58Z</time></trkpt><trkpt lat="42.27792135190484" lon="13.462609508119707"><ele>978.0</ele><time>2026-05-03T12:53:59Z</time></trkpt><trkpt lat="42.27796146420517" lon="13.462739887374859"><ele>978.0</ele><time>2026-05-03T12:54:00Z</time></trkpt><trkpt lat="42.27799151094083" lon="13.462880935171627"><ele>978.0</ele><time>2026-05-03T12:54:01Z</time></trkpt><trkpt lat="42.27801370621096" lon="13.463022676703984"><ele>978.0</ele><time>2026-05-03T12:54:02Z</time></trkpt><trkpt lat="42.27803397037761" lon="13.463152555160494"><ele>978.0</ele><time>2026-05-03T12:54:03Z</time></trkpt><trkpt lat="42.2780557037327" lon="13.463254730785586"><ele>978.0</ele><time>2026-05-03T12:54:04Z</time></trkpt><trkpt lat="42.27808441994586" lon="13.463394469930037"><ele>978.0</ele><time>2026-05-03T12:54:06Z</time></trkpt><trkpt lat="42.27810110105604" lon="13.463482736863211"><ele>978.0</ele><time>2026-05-03T12:54:08Z</time></trkpt><trkpt lat="42.27811429537278" lon="13.463599197131783"><ele>978.0</ele><time>2026-05-03T12:54:10Z</time></trkpt><trkpt lat="42.27813192267212" lon="13.46375769553238"><ele>978.0</ele><time>2026-05-03T12:54:12Z</time></trkpt><trkpt lat="42.27814202411484" lon="13.463848134786076"><ele>978.0</ele><time>2026-05-03T12:54:13Z</time></trkpt><trkpt lat="42.27815997525203" lon="13.463955577982919"><ele>978.0</ele><time>2026-05-03T12:54:14Z</time></trkpt><trkpt lat="42.27818353402286" lon="13.464100913290562"><ele>978.0</ele><time>2026-05-03T12:54:15Z</time></trkpt><trkpt lat="42.2781832477329" lon="13.464277515032967"><ele>978.0</ele><time>2026-05-03T12:54:16Z</time></trkpt><trkpt lat="42.27816726745048" lon="13.464471961373896"><ele>978.0</ele><time>2026-05-03T12:54:17Z</time></trkpt><trkpt lat="42.27814620743076" lon="13.464708346544661"><ele>991.3333333333333</ele><time>2026-05-03T12:54:18Z</time></trkpt><trkpt lat="42.27809399542291" lon="13.464974339905773"><ele>1004.6666666666666</ele><time>2026-05-03T12:54:19Z</time></trkpt><trkpt lat="42.27805044994967" lon="13.465221730854976"><ele>1018.0</ele><time>2026-05-03T12:54:20Z</time></trkpt><trkpt lat="42.27801250117016" lon="13.465490935260203"><ele>1021.5</ele><time>2026-05-03T12:54:21Z</time></trkpt><trkpt lat="42.27797794431836" lon="13.46580469951938"><ele>1025.0</ele><time>2026-05-03T12:54:22Z</time></trkpt><trkpt lat="42.27793736638896" lon="13.466150617255208"><ele>1027.5</ele><time>2026-05-03T12:54:23Z</time></trkpt><trkpt lat="42.27789670034897" lon="13.466518909337143"><ele>1030.0</ele><time>2026-05-03T12:54:24Z</time></trkpt><trkpt lat="42.27785830475217" lon="13.466905822272206"><ele>1030.5</ele><time>2026-05-03T12:54:25Z</time></trkpt><trkpt lat="42.277820571151345" lon="13.467278795724429"><ele>1031.0</ele><time>2026-05-03T12:54:26Z</time></trkpt><trkpt lat="42.277792083293235" lon="13.467621028683345"><ele>1031.0</ele><time>2026-05-03T12:54:27Z</time></trkpt><trkpt lat="42.277764090121295" lon="13.467924743724886"><ele>1031.0</ele><time>2026-05-03T12:54:28Z</time></trkpt><trkpt lat="42.27773695439465" lon="13.468212648368285"><ele>1031.0</ele><time>2026-05-03T12:54:29Z</time></trkpt><trkpt lat="42.27771337716196" lon="13.46848943925527"><ele>1030.3333333333335</ele><time>2026-05-03T12:54:30Z</time></trkpt><trkpt lat="42.2776943159004" lon="13.468744043112657"><ele>1029.6666666666667</ele><time>2026-05-03T12:54:31Z</time></trkpt><trkpt lat="42.2776790808637" lon="13.468985328275275"><ele>1029.0</ele><time>2026-05-03T12:54:32Z</time></trkpt><trkpt lat="42.27766425458963" lon="13.469225306383114"><ele>1030.0</ele><time>2026-05-03T12:54:33Z</time></trkpt><trkpt lat="42.277647444475825" lon="13.46946078415633"><ele>1031.0</ele><time>2026-05-03T12:54:34Z</time></trkpt><trkpt lat="42.27762467712982" lon="13.469704763979896"><ele>1032.0</ele><time>2026-05-03T12:54:35Z</time></trkpt><trkpt lat="42.27759514293237" lon="13.469957408288575"><ele>1032.0</ele><time>2026-05-03T12:54:36Z</time></trkpt><trkpt lat="42.277552668594986" lon="13.470222860704974"><ele>1032.0</ele><time>2026-05-03T12:54:37Z</time></trkpt><trkpt lat="42.277497851532324" lon="13.470499716865948"><ele>1032.0</ele><time>2026-05-03T12:54:38Z</time></trkpt><trkpt lat="42.277441010226795" lon="13.470788423536984"><ele>1027.0</ele><time>2026-05-03T12:54:39Z</time></trkpt><trkpt lat="42.27738390007568" lon="13.471086094365411"><ele>1022.0</ele><time>2026-05-03T12:54:40Z</time></trkpt><trkpt lat="42.27732155751294" lon="13.47139512617531"><ele>1051.0</ele><time>2026-05-03T12:54:41Z</time></trkpt><trkpt lat="42.27726246967034" lon="13.471700200669975"><ele>1080.0</ele><time>2026-05-03T12:54:42Z</time></trkpt><trkpt lat="42.27720795730426" lon="13.471994088260896"><ele>1079.3333333333333</ele><time>2026-05-03T12:54:43Z</time></trkpt><trkpt lat="42.27715733215135" lon="13.47226871365814"><ele>1078.6666666666665</ele><time>2026-05-03T12:54:44Z</time></trkpt><trkpt lat="42.27710642447746" lon="13.47253296879147"><ele>1078.0</ele><time>2026-05-03T12:54:45Z</time></trkpt><trkpt lat="42.277060050497475" lon="13.472773102944059"><ele>1075.3333333333333</ele><time>2026-05-03T12:54:46Z</time></trkpt><trkpt lat="42.27701561025514" lon="13.473012274458544"><ele>1072.6666666666667</ele><time>2026-05-03T12:54:47Z</time></trkpt><trkpt lat="42.27698225348627" lon="13.473261055556652"><ele>1070.0</ele><time>2026-05-03T12:54:48Z</time></trkpt><trkpt lat="42.27697278338841" lon="13.473521509373564"><ele>1069.6666666666667</ele><time>2026-05-03T12:54:49Z</time></trkpt><trkpt lat="42.276972104663415" lon="13.473784148693428"><ele>1069.3333333333333</ele><time>2026-05-03T12:54:50Z</time></trkpt><trkpt lat="42.27696709210866" lon="13.474050379438427"><ele>1069.0</ele><time>2026-05-03T12:54:51Z</time></trkpt><trkpt lat="42.27695328764671" lon="13.474319717629593"><ele>1069.0</ele><time>2026-05-03T12:54:52Z</time></trkpt><trkpt lat="42.276919989860936" lon="13.474594610167301"><ele>1069.0</ele><time>2026-05-03T12:54:53Z</time></trkpt><trkpt lat="42.27687659528875" lon="13.474861130007522"><ele>1069.0</ele><time>2026-05-03T12:54:54Z</time></trkpt><trkpt lat="42.27684133442713" lon="13.475106226728304"><ele>1067.3333333333333</ele><time>2026-05-03T12:54:55Z</time></trkpt><trkpt lat="42.276802569875564" lon="13.475347975602679"><ele>1065.6666666666667</ele><time>2026-05-03T12:54:56Z</time></trkpt><trkpt lat="42.276772148928664" lon="13.475584877671777"><ele>1064.0</ele><time>2026-05-03T12:54:57Z</time></trkpt><trkpt lat="42.276741602604254" lon="13.475811961122778"><ele>1063.0</ele><time>2026-05-03T12:54:58Z</time></trkpt><trkpt lat="42.27670520182814" lon="13.476042613165554"><ele>1062.0</ele><time>2026-05-03T12:54:59Z</time></trkpt><trkpt lat="42.276661502275424" lon="13.47627845779614"><ele>1061.0</ele><time>2026-05-03T12:55:00Z</time></trkpt><trkpt lat="42.276608292558585" lon="13.476511485405815"><ele>1057.6666666666667</ele><time>2026-05-03T12:55:01Z</time></trkpt><trkpt lat="42.2765474982827" lon="13.476754191478063"><ele>1054.3333333333333</ele><time>2026-05-03T12:55:02Z</time></trkpt><trkpt lat="42.27648898664891" lon="13.477007069299537"><ele>1051.0</ele><time>2026-05-03T12:55:03Z</time></trkpt><trkpt lat="42.27642979073539" lon="13.477267137017911"><ele>1063.0</ele><time>2026-05-03T12:55:04Z</time></trkpt><trkpt lat="42.27636849930005" lon="13.477532110698041"><ele>1075.0</ele><time>2026-05-03T12:55:05Z</time></trkpt><trkpt lat="42.27630674392613" lon="13.477808854638083"><ele>1087.0</ele><time>2026-05-03T12:55:06Z</time></trkpt><trkpt lat="42.276243686873535" lon="13.478091094928091"><ele>1087.0</ele><time>2026-05-03T12:55:07Z</time></trkpt><trkpt lat="42.27617973276766" lon="13.478376854159025"><ele>1087.0</ele><time>2026-05-03T12:55:08Z</time></trkpt><trkpt lat="42.27611582452982" lon="13.478656581515168"><ele>1087.0</ele><time>2026-05-03T12:55:09Z</time></trkpt><trkpt lat="42.27605449480997" lon="13.478937821542969"><ele>1084.0</ele><time>2026-05-03T12:55:10Z</time></trkpt><trkpt lat="42.275981989800236" lon="13.47921610399153"><ele>1081.0</ele><time>2026-05-03T12:55:11Z</time></trkpt><trkpt lat="42.27588746421908" lon="13.479490885733615"><ele>1078.0</ele><time>2026-05-03T12:55:12Z</time></trkpt><trkpt lat="42.27578687518162" lon="13.479760196790854"><ele>1073.6666666666665</ele><time>2026-05-03T12:55:13Z</time></trkpt><trkpt lat="42.27569398835544" lon="13.480022367096211"><ele>1069.3333333333333</ele><time>2026-05-03T12:55:14Z</time></trkpt><trkpt lat="42.27561571782683" lon="13.480271548594517"><ele>1065.0</ele><time>2026-05-03T12:55:15Z</time></trkpt><trkpt lat="42.27555266317444" lon="13.480501242678997"><ele>1074.6666666666667</ele><time>2026-05-03T12:55:16Z</time></trkpt><trkpt lat="42.275490465349314" lon="13.480709865330125"><ele>1084.3333333333335</ele><time>2026-05-03T12:55:17Z</time></trkpt><trkpt lat="42.275431323205" lon="13.480912570844614"><ele>1094.0</ele><time>2026-05-03T12:55:18Z</time></trkpt><trkpt lat="42.275372946079635" lon="13.48109867299998"><ele>1094.0</ele><time>2026-05-03T12:55:19Z</time></trkpt><trkpt lat="42.27532036127539" lon="13.481246539747932"><ele>1094.0</ele><time>2026-05-03T12:55:20Z</time></trkpt><trkpt lat="42.27526449605835" lon="13.481371957205027"><ele>1094.0</ele><time>2026-05-03T12:55:21Z</time></trkpt><trkpt lat="42.275194387931585" lon="13.481448343284852"><ele>1094.0</ele><time>2026-05-03T12:55:22Z</time></trkpt><trkpt lat="42.27511207876809" lon="13.481471851830088"><ele>1094.0</ele><time>2026-05-03T12:55:23Z</time></trkpt><trkpt lat="42.27502980842691" lon="13.481437180511417"><ele>1094.0</ele><time>2026-05-03T12:55:24Z</time></trkpt><trkpt lat="42.27495537874076" lon="13.481349675130227"><ele>1094.0</ele><time>2026-05-03T12:55:25Z</time></trkpt><trkpt lat="42.27493628357377" lon="13.481225332463515"><ele>1094.0</ele><time>2026-05-03T12:55:26Z</time></trkpt><trkpt lat="42.27494869010671" lon="13.48109722957448"><ele>1094.0</ele><time>2026-05-03T12:55:27Z</time></trkpt><trkpt lat="42.27498447229249" lon="13.480963935980647"><ele>1094.0</ele><time>2026-05-03T12:55:28Z</time></trkpt><trkpt lat="42.27503388366351" lon="13.48078456976041"><ele>1094.0</ele><time>2026-05-03T12:55:29Z</time></trkpt><trkpt lat="42.275082857679116" lon="13.480576642120633"><ele>1094.0</ele><time>2026-05-03T12:55:30Z</time></trkpt><trkpt lat="42.275136383427764" lon="13.480341390346895"><ele>1094.0</ele><time>2026-05-03T12:55:31Z</time></trkpt><trkpt lat="42.27519701318998" lon="13.48007162283402"><ele>1094.5</ele><time>2026-05-03T12:55:32Z</time></trkpt><trkpt lat="42.27526502285083" lon="13.47976846002142"><ele>1095.0</ele><time>2026-05-03T12:55:33Z</time></trkpt><trkpt lat="42.27532923067585" lon="13.479482244490779"><ele>1095.0</ele><time>2026-05-03T12:55:34Z</time></trkpt><trkpt lat="42.2753915722538" lon="13.479194329786854"><ele>1095.0</ele><time>2026-05-03T12:55:35Z</time></trkpt><trkpt lat="42.27545116146387" lon="13.478909312362973"><ele>1095.0</ele><time>2026-05-03T12:55:36Z</time></trkpt><trkpt lat="42.27549194516503" lon="13.478637748605882"><ele>1095.0</ele><time>2026-05-03T12:55:37Z</time></trkpt><trkpt lat="42.275557798557436" lon="13.478399262473397"><ele>1095.0</ele><time>2026-05-03T12:55:38Z</time></trkpt><trkpt lat="42.27560519819961" lon="13.478166696271028"><ele>1095.0</ele><time>2026-05-03T12:55:39Z</time></trkpt><trkpt lat="42.27565181881802" lon="13.477937486217604"><ele>1093.25</ele><time>2026-05-03T12:55:40Z</time></trkpt><trkpt lat="42.275694632912725" lon="13.477733509572781"><ele>1091.5</ele><time>2026-05-03T12:55:41Z</time></trkpt><trkpt lat="42.27570883653228" lon="13.477530080481374"><ele>1089.75</ele><time>2026-05-03T12:55:42Z</time></trkpt><trkpt lat="42.2756906415188" lon="13.47734649291148"><ele>1088.0</ele><time>2026-05-03T12:55:43Z</time></trkpt><trkpt lat="42.275640065594025" lon="13.477174961469807"><ele>1091.0</ele><time>2026-05-03T12:55:44Z</time></trkpt><trkpt lat="42.27556268923261" lon="13.477055050599526"><ele>1094.0</ele><time>2026-05-03T12:55:45Z</time></trkpt><trkpt lat="42.27543310496142" lon="13.476939573823444"><ele>1097.0</ele><time>2026-05-03T12:55:46Z</time></trkpt><trkpt lat="42.27530313082069" lon="13.476841441246458"><ele>1100.0</ele><time>2026-05-03T12:55:47Z</time></trkpt><trkpt lat="42.27516038397044" lon="13.476790986601575"><ele>1100.0</ele><time>2026-05-03T12:55:48Z</time></trkpt><trkpt lat="42.27501647714897" lon="13.476790888582947"><ele>1100.0</ele><time>2026-05-03T12:55:49Z</time></trkpt><trkpt lat="42.27487788037115" lon="13.476855172808284"><ele>1100.0</ele><time>2026-05-03T12:55:50Z</time></trkpt><trkpt lat="42.274760237406696" lon="13.476960077416022"><ele>1100.0</ele><time>2026-05-03T12:55:51Z</time></trkpt><trkpt lat="42.2746521537294" lon="13.477097250743803"><ele>1105.0</ele><time>2026-05-03T12:55:52Z</time></trkpt><trkpt lat="42.27457549495492" lon="13.477279088159797"><ele>1110.0</ele><time>2026-05-03T12:55:53Z</time></trkpt><trkpt lat="42.27451632769554" lon="13.477490746913162"><ele>1115.0</ele><time>2026-05-03T12:55:54Z</time></trkpt><trkpt lat="42.27446188329933" lon="13.477717202142145"><ele>1116.3333333333335</ele><time>2026-05-03T12:55:55Z</time></trkpt><trkpt lat="42.274407109820025" lon="13.477948501852078"><ele>1117.6666666666667</ele><time>2026-05-03T12:55:56Z</time></trkpt><trkpt lat="42.274379076207374" lon="13.478203492866632"><ele>1119.0</ele><time>2026-05-03T12:55:57Z</time></trkpt><trkpt lat="42.27437904589695" lon="13.4784671636895"><ele>1119.0</ele><time>2026-05-03T12:55:58Z</time></trkpt><trkpt lat="42.27440912954579" lon="13.478739858846325"><ele>1119.0</ele><time>2026-05-03T12:55:59Z</time></trkpt><trkpt lat="42.274433563280134" lon="13.47900952770568"><ele>1119.0</ele><time>2026-05-03T12:56:00Z</time></trkpt><trkpt lat="42.27444339898492" lon="13.479266436202904"><ele>1118.6666666666667</ele><time>2026-05-03T12:56:01Z</time></trkpt><trkpt lat="42.27446294963423" lon="13.479514941383767"><ele>1118.3333333333335</ele><time>2026-05-03T12:56:02Z</time></trkpt><trkpt lat="42.27448120823545" lon="13.479749221951876"><ele>1118.0</ele><time>2026-05-03T12:56:03Z</time></trkpt><trkpt lat="42.274499082627614" lon="13.479978573410104"><ele>1119.3333333333335</ele><time>2026-05-03T12:56:04Z</time></trkpt><trkpt lat="42.274516605612405" lon="13.48020341551629"><ele>1120.6666666666667</ele><time>2026-05-03T12:56:05Z</time></trkpt><trkpt lat="42.27453118512269" lon="13.48042912205339"><ele>1122.0</ele><time>2026-05-03T12:56:06Z</time></trkpt><trkpt lat="42.27453854977162" lon="13.48066672003284"><ele>1122.3333333333333</ele><time>2026-05-03T12:56:07Z</time></trkpt><trkpt lat="42.274514644232426" lon="13.480901103676219"><ele>1122.6666666666665</ele><time>2026-05-03T12:56:08Z</time></trkpt><trkpt lat="42.27448659874092" lon="13.481149536534488"><ele>1123.0</ele><time>2026-05-03T12:56:09Z</time></trkpt><trkpt lat="42.2744551599606" lon="13.481413560186914"><ele>1123.0</ele><time>2026-05-03T12:56:10Z</time></trkpt><trkpt lat="42.27442383006093" lon="13.481700319926091"><ele>1123.0</ele><time>2026-05-03T12:56:11Z</time></trkpt><trkpt lat="42.274363829662526" lon="13.481978937750752"><ele>1123.0</ele><time>2026-05-03T12:56:12Z</time></trkpt><trkpt lat="42.27429881001272" lon="13.482249290606246"><ele>1121.0</ele><time>2026-05-03T12:56:13Z</time></trkpt><trkpt lat="42.27420957828944" lon="13.482528940694467"><ele>1119.0</ele><time>2026-05-03T12:56:14Z</time></trkpt><trkpt lat="42.27411059839249" lon="13.482822226996394"><ele>1116.5</ele><time>2026-05-03T12:56:15Z</time></trkpt><trkpt lat="42.274060827126036" lon="13.483161252982589"><ele>1114.0</ele><time>2026-05-03T12:56:16Z</time></trkpt><trkpt lat="42.274037844721796" lon="13.48350736121829"><ele>1114.0</ele><time>2026-05-03T12:56:17Z</time></trkpt><trkpt lat="42.273992762177876" lon="13.4838158352845"><ele>1114.0</ele><time>2026-05-03T12:56:18Z</time></trkpt><trkpt lat="42.27395237795338" lon="13.484103890023512"><ele>1117.6666666666665</ele><time>2026-05-03T12:56:19Z</time></trkpt><trkpt lat="42.27391361556073" lon="13.484368668102489"><ele>1121.3333333333333</ele><time>2026-05-03T12:56:20Z</time></trkpt><trkpt lat="42.27387959590945" lon="13.48459709012355"><ele>1125.0</ele><time>2026-05-03T12:56:21Z</time></trkpt><trkpt lat="42.2738485416311" lon="13.484797539935347"><ele>1127.0</ele><time>2026-05-03T12:56:22Z</time></trkpt><trkpt lat="42.27381621680316" lon="13.48496768768163"><ele>1129.0</ele><time>2026-05-03T12:56:23Z</time></trkpt><trkpt lat="42.273775253382766" lon="13.485130152858632"><ele>1131.0</ele><time>2026-05-03T12:56:24Z</time></trkpt><trkpt lat="42.273701585934425" lon="13.485266895461239"><ele>1133.0</ele><time>2026-05-03T12:56:25Z</time></trkpt><trkpt lat="42.273613086000466" lon="13.485361562372898"><ele>1133.0</ele><time>2026-05-03T12:56:26Z</time></trkpt><trkpt lat="42.273498327764734" lon="13.48537722329704"><ele>1133.0</ele><time>2026-05-03T12:56:27Z</time></trkpt><trkpt lat="42.27338126170914" lon="13.485350979900108"><ele>1133.0</ele><time>2026-05-03T12:56:28Z</time></trkpt><trkpt lat="42.27323213081886" lon="13.485322623945374"><ele>1133.0</ele><time>2026-05-03T12:56:29Z</time></trkpt><trkpt lat="42.273082453957485" lon="13.485241661324174"><ele>1135.0</ele><time>2026-05-03T12:56:30Z</time></trkpt><trkpt lat="42.27291865547369" lon="13.485171199045237"><ele>1137.0</ele><time>2026-05-03T12:56:31Z</time></trkpt><trkpt lat="42.27275422279972" lon="13.485103231904997"><ele>1139.0</ele><time>2026-05-03T12:56:32Z</time></trkpt><trkpt lat="42.27260359266057" lon="13.485041527101616"><ele>1139.0</ele><time>2026-05-03T12:56:33Z</time></trkpt><trkpt lat="42.27247017970924" lon="13.484982186301812"><ele>1139.0</ele><time>2026-05-03T12:56:34Z</time></trkpt><trkpt lat="42.2723532397731" lon="13.484963028128853"><ele>1139.0</ele><time>2026-05-03T12:56:35Z</time></trkpt><trkpt lat="42.272254683483375" lon="13.485003774919305"><ele>1139.0</ele><time>2026-05-03T12:56:36Z</time></trkpt><trkpt lat="42.272173255165576" lon="13.485092467119523"><ele>1144.75</ele><time>2026-05-03T12:56:37Z</time></trkpt><trkpt lat="42.27210057227478" lon="13.485258230814454"><ele>1150.5</ele><time>2026-05-03T12:56:38Z</time></trkpt><trkpt lat="42.272085668685385" lon="13.485427785981694"><ele>1156.25</ele><time>2026-05-03T12:56:39Z</time></trkpt><trkpt lat="42.27210531285883" lon="13.485619957584417"><ele>1162.0</ele><time>2026-05-03T12:56:40Z</time></trkpt><trkpt lat="42.27217142004455" lon="13.48579958177074"><ele>1160.3333333333333</ele><time>2026-05-03T12:56:41Z</time></trkpt><trkpt lat="42.27227465127613" lon="13.485975943095884"><ele>1158.6666666666667</ele><time>2026-05-03T12:56:42Z</time></trkpt><trkpt lat="42.27238269616192" lon="13.486170244852849"><ele>1157.0</ele><time>2026-05-03T12:56:43Z</time></trkpt><trkpt lat="42.272502400963205" lon="13.486376127667981"><ele>1157.0</ele><time>2026-05-03T12:56:44Z</time></trkpt><trkpt lat="42.272613466434464" lon="13.48657770221854"><ele>1157.0</ele><time>2026-05-03T12:56:45Z</time></trkpt><trkpt lat="42.27269356490872" lon="13.48677099216329"><ele>1157.0</ele><time>2026-05-03T12:56:46Z</time></trkpt><trkpt lat="42.272781788298616" lon="13.486951500197652"><ele>1159.3333333333335</ele><time>2026-05-03T12:56:47Z</time></trkpt><trkpt lat="42.27284468634498" lon="13.487128000223343"><ele>1161.6666666666667</ele><time>2026-05-03T12:56:48Z</time></trkpt><trkpt lat="42.27284508493127" lon="13.487329891283386"><ele>1164.0</ele><time>2026-05-03T12:56:49Z</time></trkpt><trkpt lat="42.27282208187096" lon="13.487558739705769"><ele>1164.0</ele><time>2026-05-03T12:56:50Z</time></trkpt><trkpt lat="42.27280226167862" lon="13.487818687676997"><ele>1164.0</ele><time>2026-05-03T12:56:51Z</time></trkpt><trkpt lat="42.272760582260204" lon="13.488097138943656"><ele>1164.0</ele><time>2026-05-03T12:56:52Z</time></trkpt><trkpt lat="42.27272249799263" lon="13.488393481077274"><ele>1164.3333333333333</ele><time>2026-05-03T12:56:53Z</time></trkpt><trkpt lat="42.27268373718458" lon="13.488654705129708"><ele>1164.6666666666665</ele><time>2026-05-03T12:56:54Z</time></trkpt><trkpt lat="42.27265604342422" lon="13.488899994823596"><ele>1165.0</ele><time>2026-05-03T12:56:55Z</time></trkpt><trkpt lat="42.2726224787761" lon="13.489122972169296"><ele>1165.0</ele><time>2026-05-03T12:56:56Z</time></trkpt><trkpt lat="42.27257319590166" lon="13.48933101945961"><ele>1165.0</ele><time>2026-05-03T12:56:57Z</time></trkpt><trkpt lat="42.272484553542874" lon="13.48951904567804"><ele>1165.0</ele><time>2026-05-03T12:56:58Z</time></trkpt><trkpt lat="42.27235200418344" lon="13.489662679483258"><ele>1168.6666666666665</ele><time>2026-05-03T12:56:59Z</time></trkpt><trkpt lat="42.27220562921091" lon="13.489801923293127"><ele>1172.3333333333333</ele><time>2026-05-03T12:57:00Z</time></trkpt><trkpt lat="42.27204407194972" lon="13.48994719751779"><ele>1176.0</ele><time>2026-05-03T12:57:01Z</time></trkpt><trkpt lat="42.27187246341737" lon="13.490081377835144"><ele>1176.0</ele><time>2026-05-03T12:57:02Z</time></trkpt><trkpt lat="42.27171846289824" lon="13.490213207482448"><ele>1176.0</ele><time>2026-05-03T12:57:03Z</time></trkpt><trkpt lat="42.27159177706662" lon="13.490340180275927"><ele>1176.0</ele><time>2026-05-03T12:57:04Z</time></trkpt><trkpt lat="42.271496219487666" lon="13.490484556811785"><ele>1174.3333333333333</ele><time>2026-05-03T12:57:05Z</time></trkpt><trkpt lat="42.27142763070482" lon="13.490669199820317"><ele>1172.6666666666665</ele><time>2026-05-03T12:57:06Z</time></trkpt><trkpt lat="42.27139447880916" lon="13.490883835994229"><ele>1171.0</ele><time>2026-05-03T12:57:07Z</time></trkpt><trkpt lat="42.271410866282224" lon="13.49111388833396"><ele>1171.3333333333333</ele><time>2026-05-03T12:57:08Z</time></trkpt><trkpt lat="42.27145689273496" lon="13.491353129268715"><ele>1171.6666666666667</ele><time>2026-05-03T12:57:09Z</time></trkpt><trkpt lat="42.271493977325356" lon="13.491615761713984"><ele>1172.0</ele><time>2026-05-03T12:57:10Z</time></trkpt><trkpt lat="42.27152465321954" lon="13.491909439055776"><ele>1173.0</ele><time>2026-05-03T12:57:11Z</time></trkpt><trkpt lat="42.27155228646482" lon="13.49222383912226"><ele>1174.0</ele><time>2026-05-03T12:57:12Z</time></trkpt><trkpt lat="42.271580417915345" lon="13.492546240429467"><ele>1174.0</ele><time>2026-05-03T12:57:13Z</time></trkpt><trkpt lat="42.271608049487476" lon="13.492852201459922"><ele>1174.0</ele><time>2026-05-03T12:57:14Z</time></trkpt><trkpt lat="42.27163729223437" lon="13.493145227190228"><ele>1174.0</ele><time>2026-05-03T12:57:15Z</time></trkpt><trkpt lat="42.271665233714714" lon="13.493426481911591"><ele>1173.0</ele><time>2026-05-03T12:57:16Z</time></trkpt><trkpt lat="42.27166366260991" lon="13.49370922039276"><ele>1172.0</ele><time>2026-05-03T12:57:17Z</time></trkpt><trkpt lat="42.2716644801756" lon="13.493991860949345"><ele>1171.0</ele><time>2026-05-03T12:57:18Z</time></trkpt><trkpt lat="42.271612780237376" lon="13.49427789536993"><ele>1170.6666666666665</ele><time>2026-05-03T12:57:19Z</time></trkpt><trkpt lat="42.27158255355611" lon="13.494575849618476"><ele>1170.3333333333333</ele><time>2026-05-03T12:57:20Z</time></trkpt><trkpt lat="42.27153339709093" lon="13.494875127930834"><ele>1170.0</ele><time>2026-05-03T12:57:21Z</time></trkpt><trkpt lat="42.27148835743398" lon="13.495179403985174"><ele>1169.6666666666667</ele><time>2026-05-03T12:57:22Z</time></trkpt><trkpt lat="42.271449040758476" lon="13.495482155206853"><ele>1169.3333333333335</ele><time>2026-05-03T12:57:23Z</time></trkpt><trkpt lat="42.27140706790166" lon="13.49577030606872"><ele>1169.0</ele><time>2026-05-03T12:57:24Z</time></trkpt><trkpt lat="42.271368272794085" lon="13.49603284977753"><ele>1169.6666666666667</ele><time>2026-05-03T12:57:25Z</time></trkpt><trkpt lat="42.27134099346152" lon="13.496267859983114"><ele>1170.3333333333333</ele><time>2026-05-03T12:57:26Z</time></trkpt><trkpt lat="42.27130785025752" lon="13.496478061495944"><ele>1171.0</ele><time>2026-05-03T12:57:27Z</time></trkpt><trkpt lat="42.27122926587873" lon="13.496632517599503"><ele>1171.0</ele><time>2026-05-03T12:57:28Z</time></trkpt><trkpt lat="42.271155812892786" lon="13.496777623169654"><ele>1171.0</ele><time>2026-05-03T12:57:29Z</time></trkpt><trkpt lat="42.27103142099817" lon="13.496846255763097"><ele>1171.0</ele><time>2026-05-03T12:57:30Z</time></trkpt><trkpt lat="42.27089480453325" lon="13.4968939672865"><ele>1171.0</ele><time>2026-05-03T12:57:31Z</time></trkpt><trkpt lat="42.270740135480764" lon="13.496940255645482"><ele>1171.0</ele><time>2026-05-03T12:57:32Z</time></trkpt><trkpt lat="42.27054417681905" lon="13.497012249888442"><ele>1171.0</ele><time>2026-05-03T12:57:33Z</time></trkpt><trkpt lat="42.270347810930446" lon="13.497062177826963"><ele>1171.0</ele><time>2026-05-03T12:57:34Z</time></trkpt><trkpt lat="42.27017704226365" lon="13.497114879380037"><ele>1171.0</ele><time>2026-05-03T12:57:35Z</time></trkpt><trkpt lat="42.27001856733055" lon="13.497151107477022"><ele>1171.0</ele><time>2026-05-03T12:57:36Z</time></trkpt><trkpt lat="42.26987324746551" lon="13.497150629016309"><ele>1171.0</ele><time>2026-05-03T12:57:37Z</time></trkpt><trkpt lat="42.26974092196316" lon="13.49706537493116"><ele>1175.3333333333333</ele><time>2026-05-03T12:57:38Z</time></trkpt><trkpt lat="42.269596956591506" lon="13.496970819079113"><ele>1179.6666666666667</ele><time>2026-05-03T12:57:39Z</time></trkpt><trkpt lat="42.269439280443926" lon="13.496855878916556"><ele>1184.0</ele><time>2026-05-03T12:57:40Z</time></trkpt><trkpt lat="42.26929992235906" lon="13.496747534185301"><ele>1184.0</ele><time>2026-05-03T12:57:41Z</time></trkpt><trkpt lat="42.26916982212509" lon="13.496657144298945"><ele>1184.0</ele><time>2026-05-03T12:57:42Z</time></trkpt><trkpt lat="42.26904828700242" lon="13.496603539087634"><ele>1184.0</ele><time>2026-05-03T12:57:43Z</time></trkpt><trkpt lat="42.2689223521321" lon="13.49661938097656"><ele>1184.0</ele><time>2026-05-03T12:57:44Z</time></trkpt><trkpt lat="42.26881065881414" lon="13.496688874694676"><ele>1187.75</ele><time>2026-05-03T12:57:45Z</time></trkpt><trkpt lat="42.2687104977754" lon="13.49680871187024"><ele>1191.5</ele><time>2026-05-03T12:57:46Z</time></trkpt><trkpt lat="42.26861980362614" lon="13.496961874804768"><ele>1195.25</ele><time>2026-05-03T12:57:47Z</time></trkpt><trkpt lat="42.268533623316664" lon="13.497153383639025"><ele>1199.0</ele><time>2026-05-03T12:57:48Z</time></trkpt><trkpt lat="42.26844115490742" lon="13.497365187253562"><ele>1199.0</ele><time>2026-05-03T12:57:49Z</time></trkpt><trkpt lat="42.26833929056935" lon="13.497575858434837"><ele>1199.0</ele><time>2026-05-03T12:57:50Z</time></trkpt><trkpt lat="42.268241624788764" lon="13.497789657983132"><ele>1199.0</ele><time>2026-05-03T12:57:51Z</time></trkpt><trkpt lat="42.26816287135401" lon="13.498030291770931"><ele>1200.6666666666667</ele><time>2026-05-03T12:57:52Z</time></trkpt><trkpt lat="42.26810641260366" lon="13.49832801494893"><ele>1202.3333333333333</ele><time>2026-05-03T12:57:53Z</time></trkpt><trkpt lat="42.26806556182777" lon="13.498563722688086"><ele>1204.0</ele><time>2026-05-03T12:57:54Z</time></trkpt><trkpt lat="42.26803757267456" lon="13.498814117506477"><ele>1207.6666666666665</ele><time>2026-05-03T12:57:55Z</time></trkpt><trkpt lat="42.2680319966744" lon="13.499066882576457"><ele>1211.3333333333333</ele><time>2026-05-03T12:57:56Z</time></trkpt><trkpt lat="42.268069733695725" lon="13.499327520827523"><ele>1215.0</ele><time>2026-05-03T12:57:57Z</time></trkpt><trkpt lat="42.26814125804039" lon="13.499608514143752"><ele>1207.6666666666667</ele><time>2026-05-03T12:57:58Z</time></trkpt><trkpt lat="42.2682426435154" lon="13.49987456764421"><ele>1200.3333333333335</ele><time>2026-05-03T12:57:59Z</time></trkpt><trkpt lat="42.26831314379716" lon="13.500116177539352"><ele>1193.0</ele><time>2026-05-03T12:58:00Z</time></trkpt><trkpt lat="42.26838383176148" lon="13.50034811979719"><ele>1195.0</ele><time>2026-05-03T12:58:01Z</time></trkpt><trkpt lat="42.26843710888032" lon="13.500583740838723"><ele>1197.0</ele><time>2026-05-03T12:58:02Z</time></trkpt><trkpt lat="42.26845873114449" lon="13.500840008931606"><ele>1199.0</ele><time>2026-05-03T12:58:03Z</time></trkpt><trkpt lat="42.26845672231468" lon="13.501082747094868"><ele>1198.0</ele><time>2026-05-03T12:58:04Z</time></trkpt><trkpt lat="42.26843723931618" lon="13.501323303772383"><ele>1197.0</ele><time>2026-05-03T12:58:05Z</time></trkpt><trkpt lat="42.26841084454381" lon="13.501548872709389"><ele>1196.0</ele><time>2026-05-03T12:58:06Z</time></trkpt><trkpt lat="42.26836437192692" lon="13.501779514105367"><ele>1196.0</ele><time>2026-05-03T12:58:07Z</time></trkpt><trkpt lat="42.26828538209843" lon="13.502019637366796"><ele>1196.0</ele><time>2026-05-03T12:58:08Z</time></trkpt><trkpt lat="42.26818667642195" lon="13.50228222997268"><ele>1196.0</ele><time>2026-05-03T12:58:09Z</time></trkpt><trkpt lat="42.26808049986467" lon="13.502566017190244"><ele>1202.5</ele><time>2026-05-03T12:58:10Z</time></trkpt><trkpt lat="42.267968424134644" lon="13.502860588296391"><ele>1209.0</ele><time>2026-05-03T12:58:11Z</time></trkpt><trkpt lat="42.267848490371776" lon="13.503142105976211"><ele>1209.0</ele><time>2026-05-03T12:58:12Z</time></trkpt><trkpt lat="42.26772500020585" lon="13.503415132518763"><ele>1209.0</ele><time>2026-05-03T12:58:13Z</time></trkpt><trkpt lat="42.267602738273304" lon="13.503674872203122"><ele>1203.0</ele><time>2026-05-03T12:58:14Z</time></trkpt><trkpt lat="42.26748908685636" lon="13.503918690395082"><ele>1197.0</ele><time>2026-05-03T12:58:15Z</time></trkpt><trkpt lat="42.26738071732751" lon="13.504160738801017"><ele>1191.0</ele><time>2026-05-03T12:58:16Z</time></trkpt><trkpt lat="42.267279742463806" lon="13.504379173805537"><ele>1194.0</ele><time>2026-05-03T12:58:17Z</time></trkpt><trkpt lat="42.26717830400532" lon="13.504568040411987"><ele>1197.0</ele><time>2026-05-03T12:58:18Z</time></trkpt><trkpt lat="42.267059300732605" lon="13.5047362702807"><ele>1200.0</ele><time>2026-05-03T12:58:19Z</time></trkpt><trkpt lat="42.266916349244944" lon="13.504887305429039"><ele>1200.0</ele><time>2026-05-03T12:58:20Z</time></trkpt><trkpt lat="42.26674327016985" lon="13.505011323235665"><ele>1200.0</ele><time>2026-05-03T12:58:21Z</time></trkpt><trkpt lat="42.26655079538563" lon="13.505125019348137"><ele>1200.0</ele><time>2026-05-03T12:58:22Z</time></trkpt><trkpt lat="42.266363367524974" lon="13.505235742096206"><ele>1199.3333333333333</ele><time>2026-05-03T12:58:23Z</time></trkpt><trkpt lat="42.26619096732355" lon="13.505347860930282"><ele>1198.6666666666665</ele><time>2026-05-03T12:58:24Z</time></trkpt><trkpt lat="42.266036872380376" lon="13.505449076251605"><ele>1198.0</ele><time>2026-05-03T12:58:25Z</time></trkpt><trkpt lat="42.2658983283498" lon="13.50553071754866"><ele>1198.0</ele><time>2026-05-03T12:58:26Z</time></trkpt><trkpt lat="42.26576191820794" lon="13.505581295935684"><ele>1198.0</ele><time>2026-05-03T12:58:27Z</time></trkpt><trkpt lat="42.26562469557298" lon="13.50558911125461"><ele>1198.0</ele><time>2026-05-03T12:58:28Z</time></trkpt><trkpt lat="42.2654896846512" lon="13.50553549416557"><ele>1198.0</ele><time>2026-05-03T12:58:29Z</time></trkpt><trkpt lat="42.265348551020686" lon="13.505418593535568"><ele>1201.5</ele><time>2026-05-03T12:58:30Z</time></trkpt><trkpt lat="42.26521014988805" lon="13.505307194821954"><ele>1205.0</ele><time>2026-05-03T12:58:31Z</time></trkpt><trkpt lat="42.265097659390875" lon="13.505181884290593"><ele>1208.5</ele><time>2026-05-03T12:58:32Z</time></trkpt><trkpt lat="42.26498164359352" lon="13.50507912056371"><ele>1212.0</ele><time>2026-05-03T12:58:33Z</time></trkpt><trkpt lat="42.264863214771665" lon="13.505009990549947"><ele>1217.25</ele><time>2026-05-03T12:58:34Z</time></trkpt><trkpt lat="42.26473975702516" lon="13.505012853876002"><ele>1222.5</ele><time>2026-05-03T12:58:35Z</time></trkpt><trkpt lat="42.26463281830077" lon="13.505059434405734"><ele>1227.75</ele><time>2026-05-03T12:58:36Z</time></trkpt><trkpt lat="42.2645349610186" lon="13.505151347155028"><ele>1233.0</ele><time>2026-05-03T12:58:37Z</time></trkpt><trkpt lat="42.26446006972887" lon="13.505284511064122"><ele>1230.3333333333333</ele><time>2026-05-03T12:58:38Z</time></trkpt><trkpt lat="42.26439874531076" lon="13.505476438111703"><ele>1227.6666666666665</ele><time>2026-05-03T12:58:39Z</time></trkpt><trkpt lat="42.264324115776404" lon="13.50572041641593"><ele>1225.0</ele><time>2026-05-03T12:58:40Z</time></trkpt><trkpt lat="42.264249332002954" lon="13.506001254008217"><ele>1220.0</ele><time>2026-05-03T12:58:41Z</time></trkpt><trkpt lat="42.26416230439448" lon="13.506294544932056"><ele>1215.0</ele><time>2026-05-03T12:58:42Z</time></trkpt><trkpt lat="42.26407428761424" lon="13.506582669443567"><ele>1215.0</ele><time>2026-05-03T12:58:43Z</time></trkpt><trkpt lat="42.263984424609404" lon="13.506836038618609"><ele>1215.0</ele><time>2026-05-03T12:58:44Z</time></trkpt><trkpt lat="42.26388963666382" lon="13.50704650229366"><ele>1215.0</ele><time>2026-05-03T12:58:45Z</time></trkpt><trkpt lat="42.26383892821263" lon="13.50723859870055"><ele>1217.6666666666667</ele><time>2026-05-03T12:58:46Z</time></trkpt><trkpt lat="42.26380474009535" lon="13.507417116549835"><ele>1220.3333333333335</ele><time>2026-05-03T12:58:47Z</time></trkpt><trkpt lat="42.26375427170829" lon="13.507833255906556"><ele>1223.0</ele><time>2026-05-03T12:58:48Z</time></trkpt><trkpt lat="42.26372398660974" lon="13.50806811228985"><ele>1223.0</ele><time>2026-05-03T12:58:49Z</time></trkpt><trkpt lat="42.26366975077284" lon="13.508298432258284"><ele>1223.0</ele><time>2026-05-03T12:58:50Z</time></trkpt><trkpt lat="42.2635626858172" lon="13.508475604068776"><ele>1223.0</ele><time>2026-05-03T12:58:51Z</time></trkpt><trkpt lat="42.263431628086" lon="13.508640902195497"><ele>1223.0</ele><time>2026-05-03T12:58:52Z</time></trkpt><trkpt lat="42.26330151374684" lon="13.508829231076279"><ele>1223.0</ele><time>2026-05-03T12:58:53Z</time></trkpt><trkpt lat="42.26312523301573" lon="13.50895708162615"><ele>1223.0</ele><time>2026-05-03T12:58:54Z</time></trkpt><trkpt lat="42.26295252737797" lon="13.509077942304698"><ele>1223.0</ele><time>2026-05-03T12:58:55Z</time></trkpt><trkpt lat="42.262770573278985" lon="13.509183940644816"><ele>1223.0</ele><time>2026-05-03T12:58:56Z</time></trkpt><trkpt lat="42.262568001738224" lon="13.509291257998086"><ele>1223.0</ele><time>2026-05-03T12:58:57Z</time></trkpt><trkpt lat="42.262353801872514" lon="13.50942680446355"><ele>1223.5</ele><time>2026-05-03T12:58:58Z</time></trkpt><trkpt lat="42.26211817046165" lon="13.50954906034732"><ele>1224.0</ele><time>2026-05-03T12:58:59Z</time></trkpt><trkpt lat="42.26188551737364" lon="13.509681209984455"><ele>1224.0</ele><time>2026-05-03T12:59:00Z</time></trkpt><trkpt lat="42.26165711724046" lon="13.509794186997087"><ele>1224.0</ele><time>2026-05-03T12:59:01Z</time></trkpt><trkpt lat="42.261439719721146" lon="13.509912177490644"><ele>1222.6666666666667</ele><time>2026-05-03T12:59:02Z</time></trkpt><trkpt lat="42.261227108939444" lon="13.51002500045913"><ele>1221.3333333333335</ele><time>2026-05-03T12:59:03Z</time></trkpt><trkpt lat="42.26102457566469" lon="13.51012332969561"><ele>1220.0</ele><time>2026-05-03T12:59:04Z</time></trkpt><trkpt lat="42.26083095649703" lon="13.510208161305181"><ele>1220.0</ele><time>2026-05-03T12:59:05Z</time></trkpt><trkpt lat="42.26063876004805" lon="13.510266885913849"><ele>1220.0</ele><time>2026-05-03T12:59:06Z</time></trkpt><trkpt lat="42.26044434123956" lon="13.510258683395037"><ele>1220.0</ele><time>2026-05-03T12:59:07Z</time></trkpt><trkpt lat="42.260252270190215" lon="13.510232102155324"><ele>1221.6666666666667</ele><time>2026-05-03T12:59:08Z</time></trkpt><trkpt lat="42.26004465437617" lon="13.510172252910166"><ele>1223.3333333333333</ele><time>2026-05-03T12:59:09Z</time></trkpt><trkpt lat="42.259816435962996" lon="13.5101007602523"><ele>1225.0</ele><time>2026-05-03T12:59:10Z</time></trkpt><trkpt lat="42.25955550006229" lon="13.510034022579738"><ele>1225.0</ele><time>2026-05-03T12:59:11Z</time></trkpt><trkpt lat="42.25930526672354" lon="13.509951278421395"><ele>1225.0</ele><time>2026-05-03T12:59:12Z</time></trkpt><trkpt lat="42.259073271740945" lon="13.509857665699286"><ele>1225.3333333333333</ele><time>2026-05-03T12:59:13Z</time></trkpt><trkpt lat="42.25884989858674" lon="13.50980414953756"><ele>1225.6666666666667</ele><time>2026-05-03T12:59:14Z</time></trkpt><trkpt lat="42.25864335877228" lon="13.5097090087404"><ele>1226.0</ele><time>2026-05-03T12:59:15Z</time></trkpt><trkpt lat="42.258441898530414" lon="13.509641732649692"><ele>1226.0</ele><time>2026-05-03T12:59:16Z</time></trkpt><trkpt lat="42.25824080916392" lon="13.509578769489364"><ele>1226.0</ele><time>2026-05-03T12:59:17Z</time></trkpt><trkpt lat="42.2580309096273" lon="13.509531418958408"><ele>1226.0</ele><time>2026-05-03T12:59:18Z</time></trkpt><trkpt lat="42.25783372426899" lon="13.509459998319223"><ele>1225.6666666666667</ele><time>2026-05-03T12:59:19Z</time></trkpt><trkpt lat="42.25763100827921" lon="13.509366300792184"><ele>1225.3333333333333</ele><time>2026-05-03T12:59:20Z</time></trkpt><trkpt lat="42.25742581763747" lon="13.50923170965644"><ele>1225.0</ele><time>2026-05-03T12:59:21Z</time></trkpt><trkpt lat="42.257224741211544" lon="13.509026249054294"><ele>1227.0</ele><time>2026-05-03T12:59:22Z</time></trkpt><trkpt lat="42.25700809026643" lon="13.5088410109238"><ele>1229.0</ele><time>2026-05-03T12:59:23Z</time></trkpt><trkpt lat="42.25680969276852" lon="13.50867137975128"><ele>1229.0</ele><time>2026-05-03T12:59:24Z</time></trkpt><trkpt lat="42.25662386957786" lon="13.508513214793698"><ele>1229.0</ele><time>2026-05-03T12:59:25Z</time></trkpt><trkpt lat="42.25644318180929" lon="13.508369440064293"><ele>1229.0</ele><time>2026-05-03T12:59:26Z</time></trkpt><trkpt lat="42.256258826408406" lon="13.508252330944527"><ele>1230.0</ele><time>2026-05-03T12:59:27Z</time></trkpt><trkpt lat="42.25607109667677" lon="13.50813019943534"><ele>1231.0</ele><time>2026-05-03T12:59:28Z</time></trkpt><trkpt lat="42.255867598425525" lon="13.50801560558062"><ele>1232.0</ele><time>2026-05-03T12:59:29Z</time></trkpt><trkpt lat="42.25566714469386" lon="13.507919702976434"><ele>1232.6666666666667</ele><time>2026-05-03T12:59:30Z</time></trkpt><trkpt lat="42.25546882858694" lon="13.507839335046935"><ele>1233.3333333333333</ele><time>2026-05-03T12:59:31Z</time></trkpt><trkpt lat="42.2552822371666" lon="13.507766378318209"><ele>1234.0</ele><time>2026-05-03T12:59:32Z</time></trkpt><trkpt lat="42.2551043386715" lon="13.507697190746189"><ele>1234.0</ele><time>2026-05-03T12:59:33Z</time></trkpt><trkpt lat="42.25492011266595" lon="13.50763600220659"><ele>1234.0</ele><time>2026-05-03T12:59:34Z</time></trkpt><trkpt lat="42.25473268944909" lon="13.507606050122787"><ele>1234.0</ele><time>2026-05-03T12:59:35Z</time></trkpt><trkpt lat="42.25455035044392" lon="13.507614207805704"><ele>1239.6666666666665</ele><time>2026-05-03T12:59:36Z</time></trkpt><trkpt lat="42.2543768345635" lon="13.507681125266647"><ele>1245.3333333333333</ele><time>2026-05-03T12:59:37Z</time></trkpt><trkpt lat="42.25421432001717" lon="13.507769562468354"><ele>1251.0</ele><time>2026-05-03T12:59:38Z</time></trkpt><trkpt lat="42.25405626312723" lon="13.507899199540965"><ele>1253.3333333333333</ele><time>2026-05-03T12:59:39Z</time></trkpt><trkpt lat="42.25390138231618" lon="13.508062155447247"><ele>1255.6666666666665</ele><time>2026-05-03T12:59:40Z</time></trkpt><trkpt lat="42.25374368063204" lon="13.508239036681607"><ele>1258.0</ele><time>2026-05-03T12:59:41Z</time></trkpt><trkpt lat="42.253586548053434" lon="13.508404098398742"><ele>1258.0</ele><time>2026-05-03T12:59:42Z</time></trkpt><trkpt lat="42.25342999443509" lon="13.508574407363222"><ele>1258.0</ele><time>2026-05-03T12:59:43Z</time></trkpt><trkpt lat="42.25327105335862" lon="13.508742097395698"><ele>1258.0</ele><time>2026-05-03T12:59:44Z</time></trkpt><trkpt lat="42.25311316837085" lon="13.50891467522187"><ele>1267.3333333333333</ele><time>2026-05-03T12:59:45Z</time></trkpt><trkpt lat="42.25296863988183" lon="13.50909826413675"><ele>1276.6666666666667</ele><time>2026-05-03T12:59:46Z</time></trkpt><trkpt lat="42.25284195669535" lon="13.50932492686333"><ele>1286.0</ele><time>2026-05-03T12:59:47Z</time></trkpt><trkpt lat="42.252725712500094" lon="13.5095717703003"><ele>1280.6666666666667</ele><time>2026-05-03T12:59:48Z</time></trkpt><trkpt lat="42.25260757264102" lon="13.509810208195105"><ele>1275.3333333333333</ele><time>2026-05-03T12:59:49Z</time></trkpt><trkpt lat="42.252488044986904" lon="13.510044096756147"><ele>1270.0</ele><time>2026-05-03T12:59:50Z</time></trkpt><trkpt lat="42.25298764279969" lon="13.510712357777317"><ele>1266.0</ele><time>2026-05-03T12:59:51Z</time></trkpt><trkpt lat="42.252855510939916" lon="13.510951795105886"><ele>1262.0</ele><time>2026-05-03T12:59:52Z</time></trkpt><trkpt lat="42.25272526293274" lon="13.511191145812372"><ele>1258.0</ele><time>2026-05-03T12:59:53Z</time></trkpt><trkpt lat="42.252611662728384" lon="13.511422145330275"><ele>1255.3333333333333</ele><time>2026-05-03T12:59:54Z</time></trkpt><trkpt lat="42.252505603458964" lon="13.511656013733838"><ele>1252.6666666666667</ele><time>2026-05-03T12:59:55Z</time></trkpt><trkpt lat="42.252409898155676" lon="13.511875220571058"><ele>1250.0</ele><time>2026-05-03T12:59:56Z</time></trkpt><trkpt lat="42.25213284970709" lon="13.511946084858549"><ele>1263.6666666666667</ele><time>2026-05-03T12:59:57Z</time></trkpt><trkpt lat="42.252084164048995" lon="13.512210260284402"><ele>1277.3333333333333</ele><time>2026-05-03T12:59:58Z</time></trkpt><trkpt lat="42.25202232774333" lon="13.512480337623701"><ele>1291.0</ele><time>2026-05-03T12:59:59Z</time></trkpt><trkpt lat="42.25194494732567" lon="13.51274435591006"><ele>1285.6666666666665</ele><time>2026-05-03T13:00:00Z</time></trkpt><trkpt lat="42.25184364296249" lon="13.512992676112976"><ele>1280.3333333333333</ele><time>2026-05-03T13:00:01Z</time></trkpt><trkpt lat="42.25172691531967" lon="13.513226541773749"><ele>1275.0</ele><time>2026-05-03T13:00:02Z</time></trkpt><trkpt lat="42.25160625993391" lon="13.51344574808251"><ele>1275.0</ele><time>2026-05-03T13:00:03Z</time></trkpt><trkpt lat="42.25146839591158" lon="13.513670180213943"><ele>1275.0</ele><time>2026-05-03T13:00:04Z</time></trkpt><trkpt lat="42.251308431727615" lon="13.513884082998901"><ele>1275.0</ele><time>2026-05-03T13:00:05Z</time></trkpt><trkpt lat="42.2511420266486" lon="13.514094061169743"><ele>1274.6666666666667</ele><time>2026-05-03T13:00:06Z</time></trkpt><trkpt lat="42.250974950996294" lon="13.514305001274408"><ele>1274.3333333333335</ele><time>2026-05-03T13:00:07Z</time></trkpt><trkpt lat="42.25081639554429" lon="13.51450668541115"><ele>1274.0</ele><time>2026-05-03T13:00:08Z</time></trkpt><trkpt lat="42.25066931177942" lon="13.514694397782632"><ele>1281.0</ele><time>2026-05-03T13:00:09Z</time></trkpt><trkpt lat="42.25052981618037" lon="13.514873452311685"><ele>1288.0</ele><time>2026-05-03T13:00:10Z</time></trkpt><trkpt lat="42.25040084880023" lon="13.515059490627603"><ele>1295.0</ele><time>2026-05-03T13:00:11Z</time></trkpt><trkpt lat="42.25029261694572" lon="13.515269932605591"><ele>1294.6666666666667</ele><time>2026-05-03T13:00:12Z</time></trkpt><trkpt lat="42.2502276330028" lon="13.515503209260336"><ele>1294.3333333333333</ele><time>2026-05-03T13:00:13Z</time></trkpt><trkpt lat="42.25020768792936" lon="13.515756395860981"><ele>1294.0</ele><time>2026-05-03T13:00:14Z</time></trkpt><trkpt lat="42.25021295842892" lon="13.51601836252092"><ele>1295.0</ele><time>2026-05-03T13:00:15Z</time></trkpt><trkpt lat="42.25020872175703" lon="13.516272346724161"><ele>1296.0</ele><time>2026-05-03T13:00:16Z</time></trkpt><trkpt lat="42.25018267500653" lon="13.516520503128579"><ele>1297.0</ele><time>2026-05-03T13:00:17Z</time></trkpt><trkpt lat="42.250132911359614" lon="13.516758883792216"><ele>1297.0</ele><time>2026-05-03T13:00:18Z</time></trkpt><trkpt lat="42.250049164011344" lon="13.516995315305229"><ele>1297.0</ele><time>2026-05-03T13:00:19Z</time></trkpt><trkpt lat="42.24994182632345" lon="13.517231144603272"><ele>1297.0</ele><time>2026-05-03T13:00:20Z</time></trkpt><trkpt lat="42.24982483536687" lon="13.517468187531795"><ele>1301.0</ele><time>2026-05-03T13:00:21Z</time></trkpt><trkpt lat="42.24970531568708" lon="13.517728571437148"><ele>1305.0</ele><time>2026-05-03T13:00:22Z</time></trkpt><trkpt lat="42.249582974480035" lon="13.517993295328477"><ele>1305.0</ele><time>2026-05-03T13:00:23Z</time></trkpt><trkpt lat="42.2494686894528" lon="13.518246853660536"><ele>1305.0</ele><time>2026-05-03T13:00:24Z</time></trkpt><trkpt lat="42.249361695065886" lon="13.51849484026728"><ele>1305.0</ele><time>2026-05-03T13:00:25Z</time></trkpt><trkpt lat="42.24925770538265" lon="13.518739821157839"><ele>1301.0</ele><time>2026-05-03T13:00:26Z</time></trkpt><trkpt lat="42.249160858111665" lon="13.518972652279624"><ele>1297.0</ele><time>2026-05-03T13:00:27Z</time></trkpt><trkpt lat="42.24906741293786" lon="13.51920174755549"><ele>1293.0</ele><time>2026-05-03T13:00:28Z</time></trkpt><trkpt lat="42.2489720533107" lon="13.519428035761907"><ele>1293.3333333333333</ele><time>2026-05-03T13:00:29Z</time></trkpt><trkpt lat="42.24887562879343" lon="13.519645639233621"><ele>1293.6666666666665</ele><time>2026-05-03T13:00:30Z</time></trkpt><trkpt lat="42.24876134071102" lon="13.519834137477956"><ele>1294.0</ele><time>2026-05-03T13:00:31Z</time></trkpt><trkpt lat="42.248620417780266" lon="13.520001504603451"><ele>1294.0</ele><time>2026-05-03T13:00:32Z</time></trkpt><trkpt lat="42.248445549992454" lon="13.52013707474518"><ele>1294.0</ele><time>2026-05-03T13:00:33Z</time></trkpt><trkpt lat="42.248239790703444" lon="13.520243595190953"><ele>1294.0</ele><time>2026-05-03T13:00:34Z</time></trkpt><trkpt lat="42.24800725161477" lon="13.520324663254213"><ele>1294.5</ele><time>2026-05-03T13:00:35Z</time></trkpt><trkpt lat="42.24775572801945" lon="13.52039504062287"><ele>1295.0</ele><time>2026-05-03T13:00:36Z</time></trkpt><trkpt lat="42.247491941828656" lon="13.520471928393151"><ele>1295.5</ele><time>2026-05-03T13:00:37Z</time></trkpt><trkpt lat="42.24722935615804" lon="13.520553939347879"><ele>1296.0</ele><time>2026-05-03T13:00:38Z</time></trkpt><trkpt lat="42.24698158869616" lon="13.520628826414464"><ele>1296.0</ele><time>2026-05-03T13:00:39Z</time></trkpt><trkpt lat="42.24674510170116" lon="13.520699778304685"><ele>1296.0</ele><time>2026-05-03T13:00:40Z</time></trkpt><trkpt lat="42.24651603365766" lon="13.520754475412735"><ele>1298.5</ele><time>2026-05-03T13:00:41Z</time></trkpt><trkpt lat="42.246291386306844" lon="13.520810049238124"><ele>1301.0</ele><time>2026-05-03T13:00:42Z</time></trkpt><trkpt lat="42.24606578835642" lon="13.520882964182558"><ele>1301.0</ele><time>2026-05-03T13:00:43Z</time></trkpt><trkpt lat="42.24583369366247" lon="13.520992576498474"><ele>1301.0</ele><time>2026-05-03T13:00:44Z</time></trkpt><trkpt lat="42.24559938669469" lon="13.521134852967307"><ele>1296.0</ele><time>2026-05-03T13:00:45Z</time></trkpt><trkpt lat="42.245365118188964" lon="13.521297007623165"><ele>1291.0</ele><time>2026-05-03T13:00:46Z</time></trkpt><trkpt lat="42.245132008528465" lon="13.52147125829187"><ele>1291.0</ele><time>2026-05-03T13:00:47Z</time></trkpt><trkpt lat="42.24490446933278" lon="13.52163599219111"><ele>1291.0</ele><time>2026-05-03T13:00:48Z</time></trkpt><trkpt lat="42.244684663272075" lon="13.521786926696182"><ele>1291.5</ele><time>2026-05-03T13:00:49Z</time></trkpt><trkpt lat="42.244471226780504" lon="13.521937217035546"><ele>1292.0</ele><time>2026-05-03T13:00:50Z</time></trkpt><trkpt lat="42.24426390082283" lon="13.522117112049012"><ele>1292.0</ele><time>2026-05-03T13:00:51Z</time></trkpt><trkpt lat="42.24406776570798" lon="13.522334049301145"><ele>1292.0</ele><time>2026-05-03T13:00:52Z</time></trkpt><trkpt lat="42.243873223343165" lon="13.522565478809899"><ele>1291.5</ele><time>2026-05-03T13:00:53Z</time></trkpt><trkpt lat="42.24368901938256" lon="13.522816047074505"><ele>1291.0</ele><time>2026-05-03T13:00:54Z</time></trkpt><trkpt lat="42.243520426701565" lon="13.5230636436564"><ele>1291.0</ele><time>2026-05-03T13:00:55Z</time></trkpt><trkpt lat="42.24336993442626" lon="13.523295355732783"><ele>1291.0</ele><time>2026-05-03T13:00:56Z</time></trkpt><trkpt lat="42.243223067213876" lon="13.523530610131317"><ele>1293.3333333333333</ele><time>2026-05-03T13:00:57Z</time></trkpt><trkpt lat="42.243093092482525" lon="13.523770145591543"><ele>1295.6666666666667</ele><time>2026-05-03T13:00:58Z</time></trkpt><trkpt lat="42.242961555332336" lon="13.523996103087773"><ele>1298.0</ele><time>2026-05-03T13:00:59Z</time></trkpt><trkpt lat="42.24283903968082" lon="13.524204699117925"><ele>1298.0</ele><time>2026-05-03T13:01:00Z</time></trkpt><trkpt lat="42.242718706677714" lon="13.524386892475706"><ele>1298.0</ele><time>2026-05-03T13:01:01Z</time></trkpt><trkpt lat="42.242601119450335" lon="13.52452811431536"><ele>1298.0</ele><time>2026-05-03T13:01:02Z</time></trkpt><trkpt lat="42.24245604574178" lon="13.524595695173028"><ele>1297.6666666666667</ele><time>2026-05-03T13:01:03Z</time></trkpt><trkpt lat="42.2423034995978" lon="13.524637619119437"><ele>1297.3333333333333</ele><time>2026-05-03T13:01:04Z</time></trkpt><trkpt lat="42.242117361038275" lon="13.524658682050973"><ele>1297.0</ele><time>2026-05-03T13:01:05Z</time></trkpt><trkpt lat="42.24191310353434" lon="13.524694281024283"><ele>1297.0</ele><time>2026-05-03T13:01:06Z</time></trkpt><trkpt lat="42.24169288712848" lon="13.524705380075982"><ele>1297.0</ele><time>2026-05-03T13:01:07Z</time></trkpt><trkpt lat="42.24146801557551" lon="13.524719407354745"><ele>1297.0</ele><time>2026-05-03T13:01:08Z</time></trkpt><trkpt lat="42.24125406089263" lon="13.524732204616553"><ele>1296.6666666666665</ele><time>2026-05-03T13:01:09Z</time></trkpt><trkpt lat="42.24105871025459" lon="13.524744262083173"><ele>1296.3333333333333</ele><time>2026-05-03T13:01:10Z</time></trkpt><trkpt lat="42.24087103010806" lon="13.524760670967476"><ele>1296.0</ele><time>2026-05-03T13:01:11Z</time></trkpt><trkpt lat="42.24069146439798" lon="13.524795870861057"><ele>1297.6666666666667</ele><time>2026-05-03T13:01:12Z</time></trkpt><trkpt lat="42.24053207416023" lon="13.524884867808773"><ele>1299.3333333333335</ele><time>2026-05-03T13:01:13Z</time></trkpt><trkpt lat="42.24038633795318" lon="13.52502222714529"><ele>1301.0</ele><time>2026-05-03T13:01:14Z</time></trkpt><trkpt lat="42.24025040954002" lon="13.525149247178257"><ele>1301.0</ele><time>2026-05-03T13:01:15Z</time></trkpt><trkpt lat="42.240159160868465" lon="13.525314560875856"><ele>1301.0</ele><time>2026-05-03T13:01:16Z</time></trkpt><trkpt lat="42.240097632339165" lon="13.525618032806728"><ele>1301.0</ele><time>2026-05-03T13:01:17Z</time></trkpt><trkpt lat="42.24001409911443" lon="13.525865244299565"><ele>1301.0</ele><time>2026-05-03T13:01:18Z</time></trkpt><trkpt lat="42.23989071158018" lon="13.5260960973111"><ele>1301.0</ele><time>2026-05-03T13:01:19Z</time></trkpt><trkpt lat="42.239750969018296" lon="13.526352229528635"><ele>1301.0</ele><time>2026-05-03T13:01:20Z</time></trkpt><trkpt lat="42.239609316457695" lon="13.526573173889266"><ele>1301.0</ele><time>2026-05-03T13:01:21Z</time></trkpt><trkpt lat="42.23945309680859" lon="13.52677368919805"><ele>1301.0</ele><time>2026-05-03T13:01:22Z</time></trkpt><trkpt lat="42.239306336652675" lon="13.526955895665667"><ele>1301.0</ele><time>2026-05-03T13:01:23Z</time></trkpt><trkpt lat="42.23915861463454" lon="13.527109853005534"><ele>1299.6666666666667</ele><time>2026-05-03T13:01:24Z</time></trkpt><trkpt lat="42.239010924610774" lon="13.527261753499799"><ele>1298.3333333333333</ele><time>2026-05-03T13:01:25Z</time></trkpt><trkpt lat="42.23886810448519" lon="13.527398248888522"><ele>1297.0</ele><time>2026-05-03T13:01:26Z</time></trkpt><trkpt lat="42.23873740209436" lon="13.527520265453614"><ele>1297.25</ele><time>2026-05-03T13:01:27Z</time></trkpt><trkpt lat="42.23861929254839" lon="13.52763171195146"><ele>1297.5</ele><time>2026-05-03T13:01:28Z</time></trkpt><trkpt lat="42.23851390778459" lon="13.527732525703106"><ele>1297.75</ele><time>2026-05-03T13:01:29Z</time></trkpt><trkpt lat="42.23841992917368" lon="13.527830722046065"><ele>1298.0</ele><time>2026-05-03T13:01:30Z</time></trkpt><trkpt lat="42.23832539165479" lon="13.527938814144111"><ele>1298.0</ele><time>2026-05-03T13:01:31Z</time></trkpt><trkpt lat="42.2382269718642" lon="13.528052345773622"><ele>1298.0</ele><time>2026-05-03T13:01:32Z</time></trkpt><trkpt lat="42.23810813048897" lon="13.528187431120198"><ele>1298.0</ele><time>2026-05-03T13:01:33Z</time></trkpt><trkpt lat="42.23798239413988" lon="13.528350650422034"><ele>1295.0</ele><time>2026-05-03T13:01:34Z</time></trkpt><trkpt lat="42.23784697994279" lon="13.528531691904094"><ele>1292.0</ele><time>2026-05-03T13:01:35Z</time></trkpt><trkpt lat="42.237707886169545" lon="13.528742664575816"><ele>1289.0</ele><time>2026-05-03T13:01:36Z</time></trkpt><trkpt lat="42.2375386676538" lon="13.528953038478567"><ele>1289.0</ele><time>2026-05-03T13:01:37Z</time></trkpt><trkpt lat="42.23737237098916" lon="13.52918744687536"><ele>1289.0</ele><time>2026-05-03T13:01:38Z</time></trkpt><trkpt lat="42.2372013403741" lon="13.52942551313387"><ele>1286.0</ele><time>2026-05-03T13:01:39Z</time></trkpt><trkpt lat="42.23703379558434" lon="13.529659511719064"><ele>1283.0</ele><time>2026-05-03T13:01:40Z</time></trkpt><trkpt lat="42.236871820762175" lon="13.529889223269526"><ele>1283.0</ele><time>2026-05-03T13:01:41Z</time></trkpt><trkpt lat="42.23672844598839" lon="13.530128849986873"><ele>1283.0</ele><time>2026-05-03T13:01:42Z</time></trkpt><trkpt lat="42.23658497179778" lon="13.530351823635662"><ele>1283.0</ele><time>2026-05-03T13:01:43Z</time></trkpt><trkpt lat="42.23644588590391" lon="13.53055746081548"><ele>1280.3333333333335</ele><time>2026-05-03T13:01:44Z</time></trkpt><trkpt lat="42.23632788867691" lon="13.530767505957945"><ele>1277.6666666666667</ele><time>2026-05-03T13:01:45Z</time></trkpt><trkpt lat="42.23621917714759" lon="13.530963831905343"><ele>1275.0</ele><time>2026-05-03T13:01:46Z</time></trkpt><trkpt lat="42.236117467928864" lon="13.531154773536384"><ele>1276.25</ele><time>2026-05-03T13:01:47Z</time></trkpt><trkpt lat="42.23602907581952" lon="13.531328840074872"><ele>1277.5</ele><time>2026-05-03T13:01:48Z</time></trkpt><trkpt lat="42.23594704308594" lon="13.531490074102495"><ele>1278.75</ele><time>2026-05-03T13:01:49Z</time></trkpt><trkpt lat="42.23588662832756" lon="13.531645355492127"><ele>1280.0</ele><time>2026-05-03T13:01:50Z</time></trkpt><trkpt lat="42.23580889711166" lon="13.531776937876263"><ele>1280.0</ele><time>2026-05-03T13:01:51Z</time></trkpt><trkpt lat="42.235733852037384" lon="13.53188364861769"><ele>1280.0</ele><time>2026-05-03T13:01:52Z</time></trkpt><trkpt lat="42.2356796071191" lon="13.531987294993263"><ele>1280.0</ele><time>2026-05-03T13:01:53Z</time></trkpt><trkpt lat="42.23563135751542" lon="13.532083147569402"><ele>1280.0</ele><time>2026-05-03T13:01:54Z</time></trkpt><trkpt lat="42.235585303558715" lon="13.532184815183124"><ele>1280.0</ele><time>2026-05-03T13:01:55Z</time></trkpt><trkpt lat="42.23553971880553" lon="13.53229126388633"><ele>1278.6666666666667</ele><time>2026-05-03T13:01:56Z</time></trkpt><trkpt lat="42.235497030887835" lon="13.532395709079944"><ele>1277.3333333333335</ele><time>2026-05-03T13:01:57Z</time></trkpt><trkpt lat="42.23546804803491" lon="13.532511292608662"><ele>1276.0</ele><time>2026-05-03T13:01:58Z</time></trkpt><trkpt lat="42.23543251912013" lon="13.532614877632518"><ele>1274.6666666666667</ele><time>2026-05-03T13:01:59Z</time></trkpt><trkpt lat="42.23540527535975" lon="13.532701003011079"><ele>1273.3333333333333</ele><time>2026-05-03T13:02:00Z</time></trkpt><trkpt lat="42.23537515068345" lon="13.532779423851549"><ele>1272.0</ele><time>2026-05-03T13:02:01Z</time></trkpt><trkpt lat="42.235349114312584" lon="13.532862556316925"><ele>1272.5</ele><time>2026-05-03T13:02:02Z</time></trkpt><trkpt lat="42.235315076212736" lon="13.5329389620722"><ele>1273.0</ele><time>2026-05-03T13:02:03Z</time></trkpt><trkpt lat="42.235288815327955" lon="13.53302680522965"><ele>1273.5</ele><time>2026-05-03T13:02:04Z</time></trkpt><trkpt lat="42.23526514468365" lon="13.53312074474129"><ele>1274.0</ele><time>2026-05-03T13:02:05Z</time></trkpt><trkpt lat="42.235233647529185" lon="13.533215089773641"><ele>1274.5</ele><time>2026-05-03T13:02:06Z</time></trkpt><trkpt lat="42.23520561676053" lon="13.53332124903576"><ele>1275.0</ele><time>2026-05-03T13:02:07Z</time></trkpt><trkpt lat="42.2351748742184" lon="13.533425345710084"><ele>1275.0</ele><time>2026-05-03T13:02:08Z</time></trkpt><trkpt lat="42.235109847818" lon="13.533518686438558"><ele>1275.0</ele><time>2026-05-03T13:02:09Z</time></trkpt><trkpt lat="42.23507326966955" lon="13.533634438067677"><ele>1275.0</ele><time>2026-05-03T13:02:10Z</time></trkpt><trkpt lat="42.23503559632911" lon="13.53375365544883"><ele>1275.0</ele><time>2026-05-03T13:02:11Z</time></trkpt><trkpt lat="42.23500066160277" lon="13.533867848090205"><ele>1275.0</ele><time>2026-05-03T13:02:12Z</time></trkpt><trkpt lat="42.23496615442513" lon="13.533982059979824"><ele>1275.5</ele><time>2026-05-03T13:02:13Z</time></trkpt><trkpt lat="42.23493420415387" lon="13.534087809036476"><ele>1276.0</ele><time>2026-05-03T13:02:14Z</time></trkpt><trkpt lat="42.23490265083317" lon="13.534192244253397"><ele>1276.5</ele><time>2026-05-03T13:02:15Z</time></trkpt><trkpt lat="42.234870089012816" lon="13.53429675509393"><ele>1277.0</ele><time>2026-05-03T13:02:16Z</time></trkpt><trkpt lat="42.23483898431617" lon="13.534389357423546"><ele>1277.5</ele><time>2026-05-03T13:02:17Z</time></trkpt><trkpt lat="42.234809712180464" lon="13.534475652006828"><ele>1278.0</ele><time>2026-05-03T13:02:18Z</time></trkpt><trkpt lat="42.23478231054851" lon="13.534553380406843"><ele>1276.8</ele><time>2026-05-03T13:02:19Z</time></trkpt><trkpt lat="42.234653597710434" lon="13.53463744025679"><ele>1275.6</ele><time>2026-05-03T13:02:21Z</time></trkpt><trkpt lat="42.2345750663402" lon="13.534672351326634"><ele>1274.4</ele><time>2026-05-03T13:02:22Z</time></trkpt><trkpt lat="42.23448543009292" lon="13.534700130295267"><ele>1273.2</ele><time>2026-05-03T13:02:23Z</time></trkpt><trkpt lat="42.23438311400733" lon="13.534744683010807"><ele>1272.0</ele><time>2026-05-03T13:02:24Z</time></trkpt><trkpt lat="42.234262670560035" lon="13.534789288659836"><ele>1272.0</ele><time>2026-05-03T13:02:25Z</time></trkpt><trkpt lat="42.234144134438345" lon="13.534804437055755"><ele>1272.0</ele><time>2026-05-03T13:02:26Z</time></trkpt><trkpt lat="42.234010454475325" lon="13.53484147905736"><ele>1272.0</ele><time>2026-05-03T13:02:27Z</time></trkpt><trkpt lat="42.2338638300136" lon="13.534865170554893"><ele>1272.0</ele><time>2026-05-03T13:02:28Z</time></trkpt><trkpt lat="42.23372831647057" lon="13.534873283034761"><ele>1272.25</ele><time>2026-05-03T13:02:29Z</time></trkpt><trkpt lat="42.233572737599005" lon="13.534843994478951"><ele>1272.5</ele><time>2026-05-03T13:02:30Z</time></trkpt><trkpt lat="42.23343092505947" lon="13.534791060391266"><ele>1272.75</ele><time>2026-05-03T13:02:31Z</time></trkpt><trkpt lat="42.23330444616375" lon="13.53476807565332"><ele>1273.0</ele><time>2026-05-03T13:02:32Z</time></trkpt><trkpt lat="42.233190381920906" lon="13.534730887311566"><ele>1273.5</ele><time>2026-05-03T13:02:33Z</time></trkpt><trkpt lat="42.23306921703932" lon="13.534690606016886"><ele>1274.0</ele><time>2026-05-03T13:02:34Z</time></trkpt><trkpt lat="42.23295836952324" lon="13.534606485038898"><ele>1274.5</ele><time>2026-05-03T13:02:35Z</time></trkpt><trkpt lat="42.232849497379604" lon="13.534562795387751"><ele>1275.0</ele><time>2026-05-03T13:02:36Z</time></trkpt><trkpt lat="42.23275533245728" lon="13.534498292952994"><ele>1275.0</ele><time>2026-05-03T13:02:37Z</time></trkpt><trkpt lat="42.23265667603378" lon="13.5344412111077"><ele>1275.0</ele><time>2026-05-03T13:02:38Z</time></trkpt><trkpt lat="42.232540617587894" lon="13.534381781366411"><ele>1275.0</ele><time>2026-05-03T13:02:39Z</time></trkpt><trkpt lat="42.23240506873878" lon="13.534350984680223"><ele>1275.0</ele><time>2026-05-03T13:02:40Z</time></trkpt><trkpt lat="42.232269197161884" lon="13.534292351224344"><ele>1274.5</ele><time>2026-05-03T13:02:41Z</time></trkpt><trkpt lat="42.23211254289161" lon="13.53427391987864"><ele>1274.0</ele><time>2026-05-03T13:02:42Z</time></trkpt><trkpt lat="42.231970658631646" lon="13.534237844134935"><ele>1273.5</ele><time>2026-05-03T13:02:43Z</time></trkpt><trkpt lat="42.23184137920447" lon="13.534180890274548"><ele>1273.0</ele><time>2026-05-03T13:02:44Z</time></trkpt><trkpt lat="42.23171296704562" lon="13.534145942072554"><ele>1273.0</ele><time>2026-05-03T13:02:45Z</time></trkpt><trkpt lat="42.23157663787294" lon="13.534110491926826"><ele>1273.0</ele><time>2026-05-03T13:02:46Z</time></trkpt><trkpt lat="42.23144088450278" lon="13.534075881945176"><ele>1273.0</ele><time>2026-05-03T13:02:47Z</time></trkpt><trkpt lat="42.23130709148771" lon="13.534042870888022"><ele>1273.0</ele><time>2026-05-03T13:02:48Z</time></trkpt><trkpt lat="42.231149137780996" lon="13.534003898606226"><ele>1272.3333333333333</ele><time>2026-05-03T13:02:49Z</time></trkpt><trkpt lat="42.23097264883504" lon="13.53396035308181"><ele>1271.6666666666667</ele><time>2026-05-03T13:02:50Z</time></trkpt><trkpt lat="42.230765887042665" lon="13.533909338265264"><ele>1271.0</ele><time>2026-05-03T13:02:51Z</time></trkpt><trkpt lat="42.23055088672255" lon="13.533856290736864"><ele>1268.5</ele><time>2026-05-03T13:02:52Z</time></trkpt><trkpt lat="42.230332416601456" lon="13.533802387100584"><ele>1266.0</ele><time>2026-05-03T13:02:53Z</time></trkpt><trkpt lat="42.2301063533439" lon="13.533762719001535"><ele>1264.5</ele><time>2026-05-03T13:02:54Z</time></trkpt><trkpt lat="42.22987420048186" lon="13.533692296064816"><ele>1263.0</ele><time>2026-05-03T13:02:55Z</time></trkpt><trkpt lat="42.229641194922166" lon="13.533619212435964"><ele>1261.0</ele><time>2026-05-03T13:02:56Z</time></trkpt><trkpt lat="42.229410577128824" lon="13.533532269980126"><ele>1259.0</ele><time>2026-05-03T13:02:57Z</time></trkpt><trkpt lat="42.229180830794355" lon="13.533420729567261"><ele>1258.0</ele><time>2026-05-03T13:02:58Z</time></trkpt><trkpt lat="42.228955439505" lon="13.533290400981418"><ele>1257.0</ele><time>2026-05-03T13:02:59Z</time></trkpt><trkpt lat="42.22874019065798" lon="13.533159601734596"><ele>1257.0</ele><time>2026-05-03T13:03:00Z</time></trkpt><trkpt lat="42.22853748159032" lon="13.533048690003245"><ele>1257.0</ele><time>2026-05-03T13:03:01Z</time></trkpt><trkpt lat="42.22833422240649" lon="13.532930328381832"><ele>1257.0</ele><time>2026-05-03T13:03:02Z</time></trkpt><trkpt lat="42.22815542850897" lon="13.532833743192109"><ele>1257.6666666666667</ele><time>2026-05-03T13:03:03Z</time></trkpt><trkpt lat="42.22797833722503" lon="13.532732194713475"><ele>1258.3333333333335</ele><time>2026-05-03T13:03:04Z</time></trkpt><trkpt lat="42.22780154221308" lon="13.532631859501162"><ele>1259.0</ele><time>2026-05-03T13:03:05Z</time></trkpt><trkpt lat="42.227626261143264" lon="13.53253527511342"><ele>1259.0</ele><time>2026-05-03T13:03:06Z</time></trkpt><trkpt lat="42.227454887571724" lon="13.532441703530965"><ele>1259.0</ele><time>2026-05-03T13:03:07Z</time></trkpt><trkpt lat="42.22728195299157" lon="13.532361716672684"><ele>1259.0</ele><time>2026-05-03T13:03:08Z</time></trkpt><trkpt lat="42.22709450515205" lon="13.532312161534659"><ele>1260.0</ele><time>2026-05-03T13:03:09Z</time></trkpt><trkpt lat="42.22689513799878" lon="13.532313474558883"><ele>1261.0</ele><time>2026-05-03T13:03:10Z</time></trkpt><trkpt lat="42.22668901723503" lon="13.532358143870816"><ele>1262.0</ele><time>2026-05-03T13:03:11Z</time></trkpt><trkpt lat="42.22648044877661" lon="13.532389389345196"><ele>1262.3333333333335</ele><time>2026-05-03T13:03:12Z</time></trkpt><trkpt lat="42.226271150191906" lon="13.532449853259124"><ele>1262.6666666666667</ele><time>2026-05-03T13:03:13Z</time></trkpt><trkpt lat="42.226057927945156" lon="13.532497413425737"><ele>1263.0</ele><time>2026-05-03T13:03:14Z</time></trkpt><trkpt lat="42.225840012682895" lon="13.53252174903543"><ele>1261.6666666666667</ele><time>2026-05-03T13:03:15Z</time></trkpt><trkpt lat="42.2256219447874" lon="13.532566790259049"><ele>1260.3333333333335</ele><time>2026-05-03T13:03:16Z</time></trkpt><trkpt lat="42.22539858676919" lon="13.532612924139942"><ele>1259.0</ele><time>2026-05-03T13:03:17Z</time></trkpt><trkpt lat="42.22517512688336" lon="13.53265871290664"><ele>1259.0</ele><time>2026-05-03T13:03:18Z</time></trkpt><trkpt lat="42.224954375444014" lon="13.532703842418474"><ele>1259.0</ele><time>2026-05-03T13:03:19Z</time></trkpt><trkpt lat="42.2247327238467" lon="13.532750122034585"><ele>1259.0</ele><time>2026-05-03T13:03:20Z</time></trkpt><trkpt lat="42.224496668727696" lon="13.532800723552297"><ele>1260.0</ele><time>2026-05-03T13:03:21Z</time></trkpt><trkpt lat="42.224258657641805" lon="13.532851744354218"><ele>1261.0</ele><time>2026-05-03T13:03:22Z</time></trkpt><trkpt lat="42.22402611370211" lon="13.53292321765761"><ele>1261.5</ele><time>2026-05-03T13:03:23Z</time></trkpt><trkpt lat="42.22379317365007" lon="13.532970774429419"><ele>1262.0</ele><time>2026-05-03T13:03:24Z</time></trkpt><trkpt lat="42.22355546451013" lon="13.53300423499506"><ele>1262.0</ele><time>2026-05-03T13:03:25Z</time></trkpt><trkpt lat="42.223327315891275" lon="13.533071629232232"><ele>1262.0</ele><time>2026-05-03T13:03:26Z</time></trkpt><trkpt lat="42.22310588950718" lon="13.533166777279025"><ele>1262.3333333333335</ele><time>2026-05-03T13:03:27Z</time></trkpt><trkpt lat="42.22290908572946" lon="13.533284051971172"><ele>1262.6666666666667</ele><time>2026-05-03T13:03:28Z</time></trkpt><trkpt lat="42.222721025642095" lon="13.533393710504564"><ele>1263.0</ele><time>2026-05-03T13:03:29Z</time></trkpt><trkpt lat="42.22253781943975" lon="13.533494412666235"><ele>1263.0</ele><time>2026-05-03T13:03:30Z</time></trkpt><trkpt lat="42.22237258279366" lon="13.533567078624259"><ele>1263.0</ele><time>2026-05-03T13:03:31Z</time></trkpt><trkpt lat="42.22220894644854" lon="13.533558313070287"><ele>1263.0</ele><time>2026-05-03T13:03:32Z</time></trkpt><trkpt lat="42.22204903771936" lon="13.533491488817988"><ele>1263.6666666666667</ele><time>2026-05-03T13:03:33Z</time></trkpt><trkpt lat="42.2218840735809" lon="13.533379154068554"><ele>1264.3333333333335</ele><time>2026-05-03T13:03:34Z</time></trkpt><trkpt lat="42.22171336620853" lon="13.533242425765794"><ele>1265.0</ele><time>2026-05-03T13:03:35Z</time></trkpt><trkpt lat="42.221550111637505" lon="13.533081792343634"><ele>1264.3333333333335</ele><time>2026-05-03T13:03:36Z</time></trkpt><trkpt lat="42.22137282088983" lon="13.532918748082793"><ele>1263.6666666666667</ele><time>2026-05-03T13:03:37Z</time></trkpt><trkpt lat="42.22119539067332" lon="13.532754381575494"><ele>1263.0</ele><time>2026-05-03T13:03:38Z</time></trkpt><trkpt lat="42.22102654608764" lon="13.532580528433524"><ele>1263.0</ele><time>2026-05-03T13:03:39Z</time></trkpt><trkpt lat="42.22083804824752" lon="13.53243255575407"><ele>1263.0</ele><time>2026-05-03T13:03:40Z</time></trkpt><trkpt lat="42.220631856248964" lon="13.532306864431948"><ele>1263.0</ele><time>2026-05-03T13:03:41Z</time></trkpt><trkpt lat="42.220412584305166" lon="13.532192187392512"><ele>1262.0</ele><time>2026-05-03T13:03:42Z</time></trkpt><trkpt lat="42.22019001769756" lon="13.532098784463296"><ele>1261.0</ele><time>2026-05-03T13:03:43Z</time></trkpt><trkpt lat="42.219989343747024" lon="13.531971760346398"><ele>1261.0</ele><time>2026-05-03T13:03:44Z</time></trkpt><trkpt lat="42.21978166643594" lon="13.53183755104075"><ele>1261.0</ele><time>2026-05-03T13:03:45Z</time></trkpt><trkpt lat="42.219570804273765" lon="13.531703816505326"><ele>1261.0</ele><time>2026-05-03T13:03:46Z</time></trkpt><trkpt lat="42.21934055441753" lon="13.531596591443709"><ele>1261.0</ele><time>2026-05-03T13:03:47Z</time></trkpt><trkpt lat="42.21912432921723" lon="13.531462482517389"><ele>1260.5</ele><time>2026-05-03T13:03:48Z</time></trkpt><trkpt lat="42.21885445722034" lon="13.531458445558487"><ele>1260.0</ele><time>2026-05-03T13:03:49Z</time></trkpt><trkpt lat="42.21862004061294" lon="13.53133431866766"><ele>1261.5</ele><time>2026-05-03T13:03:50Z</time></trkpt><trkpt lat="42.21838982795781" lon="13.531211864677255"><ele>1263.0</ele><time>2026-05-03T13:03:51Z</time></trkpt><trkpt lat="42.21816373956334" lon="13.531095448056368"><ele>1263.5</ele><time>2026-05-03T13:03:52Z</time></trkpt><trkpt lat="42.21794280312479" lon="13.530983135640856"><ele>1264.0</ele><time>2026-05-03T13:03:53Z</time></trkpt><trkpt lat="42.21772641503136" lon="13.530865094028282"><ele>1264.0</ele><time>2026-05-03T13:03:54Z</time></trkpt><trkpt lat="42.21750567445031" lon="13.530756305576308"><ele>1264.0</ele><time>2026-05-03T13:03:55Z</time></trkpt><trkpt lat="42.217290200300525" lon="13.530639249689775"><ele>1263.5</ele><time>2026-05-03T13:03:56Z</time></trkpt><trkpt lat="42.2170820124953" lon="13.53052138415531"><ele>1263.0</ele><time>2026-05-03T13:03:57Z</time></trkpt><trkpt lat="42.21687772718639" lon="13.53038706062937"><ele>1263.0</ele><time>2026-05-03T13:03:58Z</time></trkpt><trkpt lat="42.21668758814256" lon="13.530256384618907"><ele>1263.0</ele><time>2026-05-03T13:03:59Z</time></trkpt><trkpt lat="42.2165078941721" lon="13.530131194262745"><ele>1263.0</ele><time>2026-05-03T13:04:00Z</time></trkpt><trkpt lat="42.2163318653042" lon="13.530018039581664"><ele>1263.6666666666667</ele><time>2026-05-03T13:04:01Z</time></trkpt><trkpt lat="42.21616843366007" lon="13.52989974981327"><ele>1264.3333333333335</ele><time>2026-05-03T13:04:02Z</time></trkpt><trkpt lat="42.216011038487245" lon="13.529789050795818"><ele>1265.0</ele><time>2026-05-03T13:04:03Z</time></trkpt><trkpt lat="42.21585577165439" lon="13.529680343341303"><ele>1265.0</ele><time>2026-05-03T13:04:04Z</time></trkpt><trkpt lat="42.21570442861866" lon="13.52957802892381"><ele>1265.0</ele><time>2026-05-03T13:04:05Z</time></trkpt><trkpt lat="42.21554905059169" lon="13.529479280101997"><ele>1265.0</ele><time>2026-05-03T13:04:06Z</time></trkpt><trkpt lat="42.2153926142958" lon="13.52936724742088"><ele>1265.6666666666667</ele><time>2026-05-03T13:04:07Z</time></trkpt><trkpt lat="42.215239913059" lon="13.529258796749012"><ele>1266.3333333333333</ele><time>2026-05-03T13:04:08Z</time></trkpt><trkpt lat="42.21509284410642" lon="13.529135790434443"><ele>1267.0</ele><time>2026-05-03T13:04:09Z</time></trkpt><trkpt lat="42.214965551689474" lon="13.529003949045764"><ele>1267.0</ele><time>2026-05-03T13:04:10Z</time></trkpt><trkpt lat="42.21483792721297" lon="13.528821207770712"><ele>1267.0</ele><time>2026-05-03T13:04:11Z</time></trkpt><trkpt lat="42.21471130444718" lon="13.528711179129091"><ele>1267.0</ele><time>2026-05-03T13:04:12Z</time></trkpt><trkpt lat="42.21458839094259" lon="13.528577636889956"><ele>1267.25</ele><time>2026-05-03T13:04:13Z</time></trkpt><trkpt lat="42.21447191474665" lon="13.528458263597612"><ele>1267.5</ele><time>2026-05-03T13:04:14Z</time></trkpt><trkpt lat="42.21435187156074" lon="13.528334760992628"><ele>1267.75</ele><time>2026-05-03T13:04:15Z</time></trkpt><trkpt lat="42.21423380697599" lon="13.528219073369888"><ele>1268.0</ele><time>2026-05-03T13:04:16Z</time></trkpt><trkpt lat="42.214119131565845" lon="13.528095702639838"><ele>1268.0</ele><time>2026-05-03T13:04:17Z</time></trkpt><trkpt lat="42.21400871614275" lon="13.527966764111657"><ele>1268.0</ele><time>2026-05-03T13:04:18Z</time></trkpt><trkpt lat="42.213922951121816" lon="13.527799293763955"><ele>1268.0</ele><time>2026-05-03T13:04:19Z</time></trkpt><trkpt lat="42.21385220554232" lon="13.527622541437605"><ele>1268.0</ele><time>2026-05-03T13:04:20Z</time></trkpt><trkpt lat="42.21381200051425" lon="13.527419734843528"><ele>1267.75</ele><time>2026-05-03T13:04:21Z</time></trkpt><trkpt lat="42.213789776567886" lon="13.527218545976739"><ele>1267.5</ele><time>2026-05-03T13:04:22Z</time></trkpt><trkpt lat="42.21377225488072" lon="13.527022828980929"><ele>1267.25</ele><time>2026-05-03T13:04:23Z</time></trkpt><trkpt lat="42.21375387678909" lon="13.526825201055214"><ele>1267.0</ele><time>2026-05-03T13:04:24Z</time></trkpt><trkpt lat="42.21372824851671" lon="13.526638149021982"><ele>1267.75</ele><time>2026-05-03T13:04:25Z</time></trkpt><trkpt lat="42.21370114488747" lon="13.526446357752063"><ele>1268.5</ele><time>2026-05-03T13:04:26Z</time></trkpt><trkpt lat="42.21366403214389" lon="13.526261163601264"><ele>1269.25</ele><time>2026-05-03T13:04:27Z</time></trkpt><trkpt lat="42.21362781165674" lon="13.52607355467454"><ele>1270.0</ele><time>2026-05-03T13:04:28Z</time></trkpt><trkpt lat="42.21357967201735" lon="13.525882426220603"><ele>1270.0</ele><time>2026-05-03T13:04:29Z</time></trkpt><trkpt lat="42.21351701924258" lon="13.525690803412688"><ele>1270.0</ele><time>2026-05-03T13:04:30Z</time></trkpt><trkpt lat="42.21344038374258" lon="13.525501370424035"><ele>1270.0</ele><time>2026-05-03T13:04:31Z</time></trkpt><trkpt lat="42.21335308211962" lon="13.5253043206515"><ele>1270.0</ele><time>2026-05-03T13:04:32Z</time></trkpt><trkpt lat="42.213256233374054" lon="13.52511280001087"><ele>1270.0</ele><time>2026-05-03T13:04:33Z</time></trkpt><trkpt lat="42.21315153826331" lon="13.52492471931154"><ele>1270.0</ele><time>2026-05-03T13:04:34Z</time></trkpt><trkpt lat="42.21304196048764" lon="13.524750886633067"><ele>1271.0</ele><time>2026-05-03T13:04:35Z</time></trkpt><trkpt lat="42.21293459400805" lon="13.524593266169353"><ele>1272.0</ele><time>2026-05-03T13:04:36Z</time></trkpt><trkpt lat="42.21283064757178" lon="13.524432242138944"><ele>1273.0</ele><time>2026-05-03T13:04:37Z</time></trkpt><trkpt lat="42.212732666484975" lon="13.524276415537548"><ele>1273.0</ele><time>2026-05-03T13:04:38Z</time></trkpt><trkpt lat="42.2126369030271" lon="13.524116401709136"><ele>1273.0</ele><time>2026-05-03T13:04:39Z</time></trkpt><trkpt lat="42.21254281231286" lon="13.523956287739603"><ele>1273.0</ele><time>2026-05-03T13:04:40Z</time></trkpt><trkpt lat="42.212449864854314" lon="13.52380553245136"><ele>1273.0</ele><time>2026-05-03T13:04:41Z</time></trkpt><trkpt lat="42.21235920894497" lon="13.523657707618431"><ele>1275.2</ele><time>2026-05-03T13:04:42Z</time></trkpt><trkpt lat="42.21227760676676" lon="13.523518209559843"><ele>1277.4</ele><time>2026-05-03T13:04:43Z</time></trkpt><trkpt lat="42.21221088768391" lon="13.523417390619535"><ele>1279.6000000000001</ele><time>2026-05-03T13:04:44Z</time></trkpt><trkpt lat="42.212156786450265" lon="13.523321004526409"><ele>1281.8</ele><time>2026-05-03T13:04:45Z</time></trkpt><trkpt lat="42.212099248578426" lon="13.523221311146898"><ele>1284.0</ele><time>2026-05-03T13:04:46Z</time></trkpt><trkpt lat="42.21204199135643" lon="13.523123100015962"><ele>1284.0</ele><time>2026-05-03T13:04:47Z</time></trkpt><trkpt lat="42.21198954496881" lon="13.523038100641172"><ele>1284.0</ele><time>2026-05-03T13:04:48Z</time></trkpt><trkpt lat="42.211946646678896" lon="13.522967868703727"><ele>1284.0</ele><time>2026-05-03T13:04:49Z</time></trkpt><trkpt lat="42.21194721226905" lon="13.522796233013855"><ele>1284.0</ele><time>2026-05-03T13:04:51Z</time></trkpt><trkpt lat="42.211917007274124" lon="13.522717954363028"><ele>1284.0</ele><time>2026-05-03T13:04:53Z</time></trkpt><trkpt lat="42.2117432117424" lon="13.522714592707205"><ele>1283.8333333333333</ele><time>2026-05-03T13:04:56Z</time></trkpt><trkpt lat="42.211665218663235" lon="13.5226920116867"><ele>1283.6666666666667</ele><time>2026-05-03T13:04:59Z</time></trkpt><trkpt lat="42.21160129193406" lon="13.522643576626889"><ele>1283.5</ele><time>2026-05-03T13:05:03Z</time></trkpt><trkpt lat="42.21151401125713" lon="13.522588089211538"><ele>1283.3333333333335</ele><time>2026-05-03T13:05:40Z</time></trkpt><trkpt lat="42.2114450845827" lon="13.522539847875134"><ele>1283.1666666666667</ele><time>2026-05-03T13:05:41Z</time></trkpt><trkpt lat="42.21136428766802" lon="13.522482072287673"><ele>1283.0</ele><time>2026-05-03T13:05:42Z</time></trkpt><trkpt lat="42.211273173396705" lon="13.522408300583718"><ele>1283.0</ele><time>2026-05-03T13:05:43Z</time></trkpt><trkpt lat="42.21116468944423" lon="13.522304324854892"><ele>1283.0</ele><time>2026-05-03T13:05:44Z</time></trkpt><trkpt lat="42.211043579919604" lon="13.522179690885483"><ele>1283.0</ele><time>2026-05-03T13:05:45Z</time></trkpt><trkpt lat="42.21091637996276" lon="13.522041371040412"><ele>1283.0</ele><time>2026-05-03T13:05:46Z</time></trkpt><trkpt lat="42.2107840783294" lon="13.521894834459912"><ele>1282.3333333333335</ele><time>2026-05-03T13:05:47Z</time></trkpt><trkpt lat="42.21065702632101" lon="13.521753081705592"><ele>1281.6666666666667</ele><time>2026-05-03T13:05:48Z</time></trkpt><trkpt lat="42.210536749044465" lon="13.521618887579166"><ele>1281.0</ele><time>2026-05-03T13:05:49Z</time></trkpt><trkpt lat="42.21041858125829" lon="13.521487501120298"><ele>1281.0</ele><time>2026-05-03T13:05:50Z</time></trkpt><trkpt lat="42.210311388768034" lon="13.52137010922019"><ele>1281.0</ele><time>2026-05-03T13:05:51Z</time></trkpt><trkpt lat="42.21022115528953" lon="13.521271786883194"><ele>1281.0</ele><time>2026-05-03T13:05:52Z</time></trkpt><trkpt lat="42.21012660235905" lon="13.521169068277704"><ele>1281.0</ele><time>2026-05-03T13:05:53Z</time></trkpt><trkpt lat="42.21004353953692" lon="13.521078832077693"><ele>1280.0</ele><time>2026-05-03T13:05:54Z</time></trkpt><trkpt lat="42.20994510245426" lon="13.520971893878171"><ele>1279.0</ele><time>2026-05-03T13:05:55Z</time></trkpt><trkpt lat="42.20985226420733" lon="13.52087918312918"><ele>1278.0</ele><time>2026-05-03T13:05:56Z</time></trkpt><trkpt lat="42.20974491439206" lon="13.52081549404179"><ele>1277.0</ele><time>2026-05-03T13:05:57Z</time></trkpt><trkpt lat="42.20964778033747" lon="13.520752286477304"><ele>1277.0</ele><time>2026-05-03T13:05:58Z</time></trkpt><trkpt lat="42.20953749674038" lon="13.520754597509676"><ele>1277.0</ele><time>2026-05-03T13:05:59Z</time></trkpt><trkpt lat="42.20942643118129" lon="13.520768988660015"><ele>1277.0</ele><time>2026-05-03T13:06:00Z</time></trkpt><trkpt lat="42.20932422925317" lon="13.520782761453724"><ele>1277.0</ele><time>2026-05-03T13:06:01Z</time></trkpt><trkpt lat="42.20922051036799" lon="13.52077987421086"><ele>1277.0</ele><time>2026-05-03T13:06:02Z</time></trkpt><trkpt lat="42.20913923035702" lon="13.520734588373447"><ele>1277.0</ele><time>2026-05-03T13:06:03Z</time></trkpt><trkpt lat="42.209071907750214" lon="13.520679445851991"><ele>1277.0</ele><time>2026-05-03T13:06:04Z</time></trkpt><trkpt lat="42.20899026392085" lon="13.520616899122954"><ele>1277.0</ele><time>2026-05-03T13:06:05Z</time></trkpt><trkpt lat="42.20892072104422" lon="13.520557705040222"><ele>1277.0</ele><time>2026-05-03T13:06:06Z</time></trkpt><trkpt lat="42.208850835065704" lon="13.520497113313676"><ele>1277.0</ele><time>2026-05-03T13:06:07Z</time></trkpt><trkpt lat="42.208777580880344" lon="13.52042952391073"><ele>1277.0</ele><time>2026-05-03T13:06:08Z</time></trkpt><trkpt lat="42.20870378392528" lon="13.520358644631678"><ele>1278.2</ele><time>2026-05-03T13:06:09Z</time></trkpt><trkpt lat="42.20863433719068" lon="13.520286637175747"><ele>1279.4</ele><time>2026-05-03T13:06:10Z</time></trkpt><trkpt lat="42.208564337384615" lon="13.520200729152375"><ele>1280.6000000000001</ele><time>2026-05-03T13:06:11Z</time></trkpt><trkpt lat="42.20849718091981" lon="13.52010345554952"><ele>1281.8000000000002</ele><time>2026-05-03T13:06:12Z</time></trkpt><trkpt lat="42.20844079812021" lon="13.519997023191122"><ele>1283.0</ele><time>2026-05-03T13:06:13Z</time></trkpt><trkpt lat="42.208383920570654" lon="13.519874171191844"><ele>1283.0</ele><time>2026-05-03T13:06:14Z</time></trkpt><trkpt lat="42.20832331719894" lon="13.519741338939461"><ele>1283.0</ele><time>2026-05-03T13:06:15Z</time></trkpt><trkpt lat="42.20826667099556" lon="13.519617180121966"><ele>1283.0</ele><time>2026-05-03T13:06:16Z</time></trkpt><trkpt lat="42.20820027238074" lon="13.51950801087053"><ele>1283.0</ele><time>2026-05-03T13:06:17Z</time></trkpt><trkpt lat="42.20815461842622" lon="13.519386528465532"><ele>1283.0</ele><time>2026-05-03T13:06:18Z</time></trkpt><trkpt lat="42.20809532587431" lon="13.519282557377903"><ele>1283.5</ele><time>2026-05-03T13:06:19Z</time></trkpt><trkpt lat="42.20804231543186" lon="13.519174810118267"><ele>1284.0</ele><time>2026-05-03T13:06:20Z</time></trkpt><trkpt lat="42.207958707677484" lon="13.51909578534076"><ele>1284.5</ele><time>2026-05-03T13:06:21Z</time></trkpt><trkpt lat="42.20787324547626" lon="13.519041058923623"><ele>1285.0</ele><time>2026-05-03T13:06:22Z</time></trkpt><trkpt lat="42.20779382609606" lon="13.519003114948857"><ele>1285.5</ele><time>2026-05-03T13:06:23Z</time></trkpt><trkpt lat="42.207730722799646" lon="13.518974303650683"><ele>1286.0</ele><time>2026-05-03T13:06:24Z</time></trkpt><trkpt lat="42.207623873283985" lon="13.518909376966686"><ele>1286.0</ele><time>2026-05-03T13:06:26Z</time></trkpt><trkpt lat="42.20754417314677" lon="13.518844642910286"><ele>1286.0</ele><time>2026-05-03T13:06:28Z</time></trkpt><trkpt lat="42.20751829440888" lon="13.51871714332577"><ele>1286.0</ele><time>2026-05-03T13:06:30Z</time></trkpt><trkpt lat="42.20752786153643" lon="13.518589618259718"><ele>1286.0</ele><time>2026-05-03T13:06:32Z</time></trkpt><trkpt lat="42.20752596705409" lon="13.518476649798787"><ele>1286.0</ele><time>2026-05-03T13:06:34Z</time></trkpt><trkpt lat="42.207524247872115" lon="13.518374134576673"><ele>1286.0</ele><time>2026-05-03T13:06:36Z</time></trkpt><trkpt lat="42.20752244690656" lon="13.518266742502162"><ele>1285.0</ele><time>2026-05-03T13:06:39Z</time></trkpt><trkpt lat="42.20735384515383" lon="13.518191953452027"><ele>1284.0</ele><time>2026-05-03T13:06:42Z</time></trkpt><trkpt lat="42.20728998778903" lon="13.518205020945874"><ele>1283.0</ele><time>2026-05-03T13:06:43Z</time></trkpt><trkpt lat="42.20721003871164" lon="13.518221381372365"><ele>1282.0</ele><time>2026-05-03T13:06:44Z</time></trkpt><trkpt lat="42.20712105790268" lon="13.518239590047795"><ele>1281.0</ele><time>2026-05-03T13:06:45Z</time></trkpt><trkpt lat="42.207023446381285" lon="13.518260705171894"><ele>1281.0</ele><time>2026-05-03T13:06:46Z</time></trkpt><trkpt lat="42.20692277416688" lon="13.518282069083526"><ele>1281.0</ele><time>2026-05-03T13:06:47Z</time></trkpt><trkpt lat="42.206816177910014" lon="13.518305407937994"><ele>1281.0</ele><time>2026-05-03T13:06:48Z</time></trkpt><trkpt lat="42.206692503308005" lon="13.518332614185866"><ele>1281.0</ele><time>2026-05-03T13:06:49Z</time></trkpt><trkpt lat="42.206569656476276" lon="13.51835963833501"><ele>1281.25</ele><time>2026-05-03T13:06:50Z</time></trkpt><trkpt lat="42.20644901891603" lon="13.51838617648416"><ele>1281.5</ele><time>2026-05-03T13:06:51Z</time></trkpt><trkpt lat="42.20632504409442" lon="13.51841344877038"><ele>1281.75</ele><time>2026-05-03T13:06:52Z</time></trkpt><trkpt lat="42.20620091503617" lon="13.51844075498595"><ele>1282.0</ele><time>2026-05-03T13:06:53Z</time></trkpt><trkpt lat="42.20607681710896" lon="13.518468045491657"><ele>1282.0</ele><time>2026-05-03T13:06:54Z</time></trkpt><trkpt lat="42.2059530944336" lon="13.518514516436218"><ele>1282.0</ele><time>2026-05-03T13:06:55Z</time></trkpt><trkpt lat="42.205833137346225" lon="13.518541889203826"><ele>1282.0</ele><time>2026-05-03T13:06:56Z</time></trkpt><trkpt lat="42.2057164406291" lon="13.518564861374255"><ele>1282.0</ele><time>2026-05-03T13:06:57Z</time></trkpt><trkpt lat="42.205611131030956" lon="13.518579434080795"><ele>1282.1666666666665</ele><time>2026-05-03T13:06:58Z</time></trkpt><trkpt lat="42.20552797012602" lon="13.518591567495077"><ele>1282.3333333333333</ele><time>2026-05-03T13:06:59Z</time></trkpt><trkpt lat="42.20545163166602" lon="13.518604512013003"><ele>1282.5</ele><time>2026-05-03T13:07:00Z</time></trkpt><trkpt lat="42.20537936755124" lon="13.51860656843618"><ele>1282.6666666666667</ele><time>2026-05-03T13:07:01Z</time></trkpt><trkpt lat="42.20531059184984" lon="13.518637388130736"><ele>1282.8333333333335</ele><time>2026-05-03T13:07:02Z</time></trkpt><trkpt lat="42.20524802089134" lon="13.518654383543465"><ele>1283.0</ele><time>2026-05-03T13:07:03Z</time></trkpt><trkpt lat="42.2051528411682" lon="13.518674703018467"><ele>1283.0</ele><time>2026-05-03T13:07:05Z</time></trkpt><trkpt lat="42.20507985196564" lon="13.518676557670776"><ele>1283.0</ele><time>2026-05-03T13:07:07Z</time></trkpt><trkpt lat="42.20499041634825" lon="13.518659190223174"><ele>1283.0</ele><time>2026-05-03T13:07:10Z</time></trkpt><trkpt lat="42.20495702996742" lon="13.518485042087379"><ele>1283.0</ele><time>2026-05-03T13:07:14Z</time></trkpt><trkpt lat="42.20488113832349" lon="13.518411979761757"><ele>1283.0</ele><time>2026-05-03T13:07:17Z</time></trkpt><trkpt lat="42.20482693626609" lon="13.518351918019645"><ele>1282.0</ele><time>2026-05-03T13:07:20Z</time></trkpt><trkpt lat="42.20477022581565" lon="13.518292030465544"><ele>1282.0</ele><time>2026-05-03T13:07:33Z</time></trkpt></trkseg><trkseg><trkpt lat="42.20471661969122" lon="13.518309211305386"><ele>1282.0</ele><time>2026-05-03T13:44:01.998Z</time></trkpt><trkpt lat="42.204781862359695" lon="13.518372003331011"><ele>1282.0</ele><time>2026-05-03T13:44:04.998Z</time></trkpt><trkpt lat="42.20486977995992" lon="13.518452035447586"><ele>1282.0</ele><time>2026-05-03T13:44:06.998Z</time></trkpt><trkpt lat="42.20492512091252" lon="13.5185142909955"><ele>1282.0</ele><time>2026-05-03T13:44:08.998Z</time></trkpt><trkpt lat="42.20495995329412" lon="13.518586492006417"><ele>1282.0</ele><time>2026-05-03T13:44:10.998Z</time></trkpt><trkpt lat="42.204927762792764" lon="13.518711906079446"><ele>1282.0</ele><time>2026-05-03T13:44:13.998Z</time></trkpt><trkpt lat="42.20487090913583" lon="13.518753701225695"><ele>1282.3999999999999</ele><time>2026-05-03T13:44:14.998Z</time></trkpt><trkpt lat="42.20478483227014" lon="13.518790074473126"><ele>1282.8</ele><time>2026-05-03T13:44:15.998Z</time></trkpt><trkpt lat="42.20467807685563" lon="13.51880990032797"><ele>1283.2</ele><time>2026-05-03T13:44:16.998Z</time></trkpt><trkpt lat="42.20457962969854" lon="13.518827585662626"><ele>1283.6</ele><time>2026-05-03T13:44:17.998Z</time></trkpt><trkpt lat="42.2044746950092" lon="13.51884649315293"><ele>1284.0</ele><time>2026-05-03T13:44:18.998Z</time></trkpt><trkpt lat="42.20436787682726" lon="13.5188687025136"><ele>1284.0</ele><time>2026-05-03T13:44:19.998Z</time></trkpt><trkpt lat="42.20425787804945" lon="13.518888159934292"><ele>1284.0</ele><time>2026-05-03T13:44:20.998Z</time></trkpt><trkpt lat="42.204150075064014" lon="13.518911418715243"><ele>1284.0</ele><time>2026-05-03T13:44:21.998Z</time></trkpt><trkpt lat="42.2040428524262" lon="13.518927572236917"><ele>1284.0</ele><time>2026-05-03T13:44:22.998Z</time></trkpt><trkpt lat="42.203943284507616" lon="13.518945985656707"><ele>1284.0</ele><time>2026-05-03T13:44:23.999Z</time></trkpt><trkpt lat="42.20384716587846" lon="13.518964610761756"><ele>1283.6</ele><time>2026-05-03T13:44:24.999Z</time></trkpt><trkpt lat="42.203748034391644" lon="13.518982070993586"><ele>1283.2</ele><time>2026-05-03T13:44:25.999Z</time></trkpt><trkpt lat="42.203647514716266" lon="13.518999423232664"><ele>1282.8</ele><time>2026-05-03T13:44:26.999Z</time></trkpt><trkpt lat="42.20354188505922" lon="13.519024613579376"><ele>1282.3999999999999</ele><time>2026-05-03T13:44:27.999Z</time></trkpt><trkpt lat="42.20343281265912" lon="13.519052629672009"><ele>1282.0</ele><time>2026-05-03T13:44:28.999Z</time></trkpt><trkpt lat="42.20331901236863" lon="13.519080656969196"><ele>1282.0</ele><time>2026-05-03T13:44:29.999Z</time></trkpt><trkpt lat="42.20320313711416" lon="13.519110079332997"><ele>1282.0</ele><time>2026-05-03T13:44:30.999Z</time></trkpt><trkpt lat="42.20307910338935" lon="13.51913524797387"><ele>1282.0</ele><time>2026-05-03T13:44:31.999Z</time></trkpt><trkpt lat="42.20295731577627" lon="13.519161713181251"><ele>1282.0</ele><time>2026-05-03T13:44:32.999Z</time></trkpt><trkpt lat="42.20283546230389" lon="13.519185385855646"><ele>1281.75</ele><time>2026-05-03T13:44:33.999Z</time></trkpt><trkpt lat="42.202717549267454" lon="13.519216388880908"><ele>1281.5</ele><time>2026-05-03T13:44:34.999Z</time></trkpt><trkpt lat="42.20259977456818" lon="13.519239375956445"><ele>1281.25</ele><time>2026-05-03T13:44:35.999Z</time></trkpt><trkpt lat="42.20248696679111" lon="13.519267884506444"><ele>1281.0</ele><time>2026-05-03T13:44:37Z</time></trkpt><trkpt lat="42.20237664714893" lon="13.519296149722821"><ele>1281.1999999999998</ele><time>2026-05-03T13:44:38Z</time></trkpt><trkpt lat="42.20226637797216" lon="13.519315726679492"><ele>1281.3999999999999</ele><time>2026-05-03T13:44:39Z</time></trkpt><trkpt lat="42.2021587428472" lon="13.519333723143555"><ele>1281.6</ele><time>2026-05-03T13:44:40Z</time></trkpt><trkpt lat="42.20205346861282" lon="13.519359321216442"><ele>1281.8</ele><time>2026-05-03T13:44:41Z</time></trkpt><trkpt lat="42.20194962071724" lon="13.519388584330667"><ele>1282.0</ele><time>2026-05-03T13:44:42Z</time></trkpt><trkpt lat="42.20184771079636" lon="13.51941419290823"><ele>1282.0</ele><time>2026-05-03T13:44:42.999Z</time></trkpt><trkpt lat="42.201740251116824" lon="13.519439815994865"><ele>1282.0</ele><time>2026-05-03T13:44:43.999Z</time></trkpt><trkpt lat="42.201633986341506" lon="13.519457684631806"><ele>1282.0</ele><time>2026-05-03T13:44:44.999Z</time></trkpt><trkpt lat="42.201530384974376" lon="13.519478353104718"><ele>1282.0</ele><time>2026-05-03T13:44:45.999Z</time></trkpt><trkpt lat="42.20143121998928" lon="13.519503234555645"><ele>1282.0</ele><time>2026-05-03T13:44:46.999Z</time></trkpt><trkpt lat="42.2013370675444" lon="13.51952433176719"><ele>1282.1666666666665</ele><time>2026-05-03T13:44:47.999Z</time></trkpt><trkpt lat="42.20124110668026" lon="13.519538603940681"><ele>1282.3333333333333</ele><time>2026-05-03T13:44:48.999Z</time></trkpt><trkpt lat="42.20115219843789" lon="13.519540902779987"><ele>1282.5</ele><time>2026-05-03T13:44:49.999Z</time></trkpt><trkpt lat="42.201081269923115" lon="13.519568293376702"><ele>1282.6666666666667</ele><time>2026-05-03T13:44:50.999Z</time></trkpt><trkpt lat="42.20101072783826" lon="13.519575276289869"><ele>1282.8333333333335</ele><time>2026-05-03T13:44:51.999Z</time></trkpt><trkpt lat="42.20094586513959" lon="13.519567838982814"><ele>1283.0</ele><time>2026-05-03T13:44:52.999Z</time></trkpt><trkpt lat="42.20087464705403" lon="13.519557128520955"><ele>1283.0</ele><time>2026-05-03T13:44:53.999Z</time></trkpt><trkpt lat="42.20078562968476" lon="13.51958437020487"><ele>1283.0</ele><time>2026-05-03T13:44:54.999Z</time></trkpt><trkpt lat="42.200703821835226" lon="13.519651777060943"><ele>1283.0</ele><time>2026-05-03T13:44:55.999Z</time></trkpt><trkpt lat="42.20059861631761" lon="13.51968113939464"><ele>1283.0</ele><time>2026-05-03T13:44:56.999Z</time></trkpt><trkpt lat="42.20048175230298" lon="13.5197102126008"><ele>1283.0</ele><time>2026-05-03T13:44:57.999Z</time></trkpt><trkpt lat="42.200353597087705" lon="13.519732749786638"><ele>1283.25</ele><time>2026-05-03T13:44:58.999Z</time></trkpt><trkpt lat="42.20021806796348" lon="13.519759151261248"><ele>1283.5</ele><time>2026-05-03T13:44:59.999Z</time></trkpt><trkpt lat="42.20007970701412" lon="13.519790445390155"><ele>1283.75</ele><time>2026-05-03T13:45:00.999Z</time></trkpt><trkpt lat="42.19992097894429" lon="13.519823985117997"><ele>1284.0</ele><time>2026-05-03T13:45:01.999Z</time></trkpt><trkpt lat="42.19975750334237" lon="13.519859128444812"><ele>1283.3333333333333</ele><time>2026-05-03T13:45:02.999Z</time></trkpt><trkpt lat="42.199595762506" lon="13.51989267166083"><ele>1282.6666666666665</ele><time>2026-05-03T13:45:03.999Z</time></trkpt><trkpt lat="42.19941799602802" lon="13.519925230579549"><ele>1282.0</ele><time>2026-05-03T13:45:04.999Z</time></trkpt><trkpt lat="42.19924633155722" lon="13.519970866909057"><ele>1282.0</ele><time>2026-05-03T13:45:05.999Z</time></trkpt><trkpt lat="42.19906666083638" lon="13.520007783739295"><ele>1282.0</ele><time>2026-05-03T13:45:06.999Z</time></trkpt><trkpt lat="42.19888401891169" lon="13.520045665736443"><ele>1282.0</ele><time>2026-05-03T13:45:07.999Z</time></trkpt><trkpt lat="42.19869979413857" lon="13.520090332853282"><ele>1281.6666666666665</ele><time>2026-05-03T13:45:08.999Z</time></trkpt><trkpt lat="42.19851217314159" lon="13.520115662502558"><ele>1281.3333333333333</ele><time>2026-05-03T13:45:09.999Z</time></trkpt><trkpt lat="42.1983239915871" lon="13.52015682721516"><ele>1281.0</ele><time>2026-05-03T13:45:10.999Z</time></trkpt><trkpt lat="42.19812009338561" lon="13.520218148035267"><ele>1281.6666666666667</ele><time>2026-05-03T13:45:11.999Z</time></trkpt><trkpt lat="42.19791961427439" lon="13.520259622229107"><ele>1282.3333333333335</ele><time>2026-05-03T13:45:12.999Z</time></trkpt><trkpt lat="42.1977205372776" lon="13.520302916931234"><ele>1283.0</ele><time>2026-05-03T13:45:13.999Z</time></trkpt><trkpt lat="42.19753108534034" lon="13.520328765743992"><ele>1283.6666666666667</ele><time>2026-05-03T13:45:14.999Z</time></trkpt><trkpt lat="42.19733454158964" lon="13.520371203118163"><ele>1284.3333333333333</ele><time>2026-05-03T13:45:15.999Z</time></trkpt><trkpt lat="42.19714552021415" lon="13.520435989754748"><ele>1285.0</ele><time>2026-05-03T13:45:16.999Z</time></trkpt><trkpt lat="42.19695780795743" lon="13.520472847810565"><ele>1285.0</ele><time>2026-05-03T13:45:17.999Z</time></trkpt><trkpt lat="42.196770912749855" lon="13.52051452612028"><ele>1285.0</ele><time>2026-05-03T13:45:18.999Z</time></trkpt><trkpt lat="42.19658232274628" lon="13.520552789108203"><ele>1285.0</ele><time>2026-05-03T13:45:19.999Z</time></trkpt><trkpt lat="42.19640620419912" lon="13.520588545976613"><ele>1285.6666666666665</ele><time>2026-05-03T13:45:20.999Z</time></trkpt><trkpt lat="42.196226286724134" lon="13.520628299434703"><ele>1286.3333333333333</ele><time>2026-05-03T13:45:21.999Z</time></trkpt><trkpt lat="42.19604711467346" lon="13.520669493339481"><ele>1287.0</ele><time>2026-05-03T13:45:22.999Z</time></trkpt><trkpt lat="42.19586952827002" lon="13.520704014872843"><ele>1287.0</ele><time>2026-05-03T13:45:23.999Z</time></trkpt><trkpt lat="42.19569601244055" lon="13.520737662964926"><ele>1287.0</ele><time>2026-05-03T13:45:24.999Z</time></trkpt><trkpt lat="42.195526985912814" lon="13.520776328109847"><ele>1287.0</ele><time>2026-05-03T13:45:25.999Z</time></trkpt><trkpt lat="42.19536136228858" lon="13.520814538270951"><ele>1288.3333333333333</ele><time>2026-05-03T13:45:26.999Z</time></trkpt><trkpt lat="42.19518114501201" lon="13.520845023042714"><ele>1289.6666666666665</ele><time>2026-05-03T13:45:27.999Z</time></trkpt><trkpt lat="42.19503558090375" lon="13.520893721267248"><ele>1291.0</ele><time>2026-05-03T13:45:28.999Z</time></trkpt><trkpt lat="42.19487024083566" lon="13.520931762049763"><ele>1291.6666666666665</ele><time>2026-05-03T13:45:29.999Z</time></trkpt><trkpt lat="42.19471184712894" lon="13.520965533091665"><ele>1292.3333333333333</ele><time>2026-05-03T13:45:30.999Z</time></trkpt><trkpt lat="42.19455729586433" lon="13.521002817155154"><ele>1293.0</ele><time>2026-05-03T13:45:31.999Z</time></trkpt><trkpt lat="42.19439763339168" lon="13.521037123373524"><ele>1293.0</ele><time>2026-05-03T13:45:32.999Z</time></trkpt><trkpt lat="42.194243359470406" lon="13.521071507159567"><ele>1293.0</ele><time>2026-05-03T13:45:33.999Z</time></trkpt><trkpt lat="42.194085350754825" lon="13.521105734276595"><ele>1293.0</ele><time>2026-05-03T13:45:34.999Z</time></trkpt><trkpt lat="42.19392563756959" lon="13.521141264928707"><ele>1293.6666666666667</ele><time>2026-05-03T13:45:35.999Z</time></trkpt><trkpt lat="42.19376234545888" lon="13.521175873153252"><ele>1294.3333333333335</ele><time>2026-05-03T13:45:36.999Z</time></trkpt><trkpt lat="42.19359231524065" lon="13.521193073629664"><ele>1295.0</ele><time>2026-05-03T13:45:37.999Z</time></trkpt><trkpt lat="42.19341893753555" lon="13.52124854745732"><ele>1295.3333333333335</ele><time>2026-05-03T13:45:38.999Z</time></trkpt><trkpt lat="42.19324128581483" lon="13.521272996561871"><ele>1295.6666666666667</ele><time>2026-05-03T13:45:39.999Z</time></trkpt><trkpt lat="42.19305923426316" lon="13.521331665692902"><ele>1296.0</ele><time>2026-05-03T13:45:40.999Z</time></trkpt><trkpt lat="42.19286907622933" lon="13.521355842411095"><ele>1297.6666666666667</ele><time>2026-05-03T13:45:41.999Z</time></trkpt><trkpt lat="42.19267755000884" lon="13.521414392278944"><ele>1299.3333333333335</ele><time>2026-05-03T13:45:42.999Z</time></trkpt><trkpt lat="42.19248970696361" lon="13.5214480524682"><ele>1301.0</ele><time>2026-05-03T13:45:43.999Z</time></trkpt><trkpt lat="42.192296993562785" lon="13.52147644338323"><ele>1302.3333333333335</ele><time>2026-05-03T13:45:44.999Z</time></trkpt><trkpt lat="42.192108803544805" lon="13.521501753764824"><ele>1303.6666666666667</ele><time>2026-05-03T13:45:45.999Z</time></trkpt><trkpt lat="42.19191000380583" lon="13.52149054210429"><ele>1305.0</ele><time>2026-05-03T13:45:46.999Z</time></trkpt><trkpt lat="42.19170800726306" lon="13.521459451483592"><ele>1304.6666666666667</ele><time>2026-05-03T13:45:47.999Z</time></trkpt><trkpt lat="42.19150504561264" lon="13.521413147217892"><ele>1304.3333333333335</ele><time>2026-05-03T13:45:48.999Z</time></trkpt><trkpt lat="42.19130059552218" lon="13.52134791615559"><ele>1304.0</ele><time>2026-05-03T13:45:49.998Z</time></trkpt><trkpt lat="42.19110122314715" lon="13.521243308301104"><ele>1304.0</ele><time>2026-05-03T13:45:50.998Z</time></trkpt><trkpt lat="42.19089043085102" lon="13.52116115510191"><ele>1304.0</ele><time>2026-05-03T13:45:51.998Z</time></trkpt><trkpt lat="42.190684997031894" lon="13.521029334569983"><ele>1304.0</ele><time>2026-05-03T13:45:52.998Z</time></trkpt><trkpt lat="42.190488036365515" lon="13.520879421558858"><ele>1303.6666666666667</ele><time>2026-05-03T13:45:53.998Z</time></trkpt><trkpt lat="42.19031012761277" lon="13.520715513669183"><ele>1303.3333333333333</ele><time>2026-05-03T13:45:54.998Z</time></trkpt><trkpt lat="42.19016050908425" lon="13.520519345093449"><ele>1303.0</ele><time>2026-05-03T13:45:55.998Z</time></trkpt><trkpt lat="42.19002815468174" lon="13.520320153907798"><ele>1304.0</ele><time>2026-05-03T13:45:56.998Z</time></trkpt><trkpt lat="42.18989951767274" lon="13.520091511340203"><ele>1305.0</ele><time>2026-05-03T13:45:57.998Z</time></trkpt><trkpt lat="42.18976967909921" lon="13.519840695049105"><ele>1306.0</ele><time>2026-05-03T13:45:58.998Z</time></trkpt><trkpt lat="42.18962213432484" lon="13.519579237232437"><ele>1308.0</ele><time>2026-05-03T13:45:59.998Z</time></trkpt><trkpt lat="42.189489000205285" lon="13.519297053848131"><ele>1310.0</ele><time>2026-05-03T13:46:00.998Z</time></trkpt><trkpt lat="42.189351269878465" lon="13.519025419183656"><ele>1310.0</ele><time>2026-05-03T13:46:01.998Z</time></trkpt><trkpt lat="42.18922955674034" lon="13.518753863652448"><ele>1310.0</ele><time>2026-05-03T13:46:02.998Z</time></trkpt><trkpt lat="42.189100038192215" lon="13.518493397788495"><ele>1310.0</ele><time>2026-05-03T13:46:03.998Z</time></trkpt><trkpt lat="42.18896563161427" lon="13.518259374140907"><ele>1310.0</ele><time>2026-05-03T13:46:04.998Z</time></trkpt><trkpt lat="42.1888586685031" lon="13.51800799609775"><ele>1310.0</ele><time>2026-05-03T13:46:05.998Z</time></trkpt><trkpt lat="42.18874058766445" lon="13.51777125062824"><ele>1310.0</ele><time>2026-05-03T13:46:06.998Z</time></trkpt><trkpt lat="42.18862411672027" lon="13.517537785400203"><ele>1310.0</ele><time>2026-05-03T13:46:07.998Z</time></trkpt><trkpt lat="42.188504096416096" lon="13.517297206609344"><ele>1310.0</ele><time>2026-05-03T13:46:08.998Z</time></trkpt><trkpt lat="42.1883829513565" lon="13.517053781959271"><ele>1311.0</ele><time>2026-05-03T13:46:09.998Z</time></trkpt><trkpt lat="42.18825810477611" lon="13.516802977601847"><ele>1312.0</ele><time>2026-05-03T13:46:10.998Z</time></trkpt><trkpt lat="42.188134524494664" lon="13.516555689291927"><ele>1313.0</ele><time>2026-05-03T13:46:11.998Z</time></trkpt><trkpt lat="42.18801670877767" lon="13.51631993531229"><ele>1313.0</ele><time>2026-05-03T13:46:12.998Z</time></trkpt><trkpt lat="42.18788821025363" lon="13.516103197505084"><ele>1313.0</ele><time>2026-05-03T13:46:13.998Z</time></trkpt><trkpt lat="42.18778939265181" lon="13.515868550605674"><ele>1313.0</ele><time>2026-05-03T13:46:14.998Z</time></trkpt><trkpt lat="42.18768104699184" lon="13.51565124318981"><ele>1313.0</ele><time>2026-05-03T13:46:15.998Z</time></trkpt><trkpt lat="42.1875612205769" lon="13.515450820263743"><ele>1313.0</ele><time>2026-05-03T13:46:16.998Z</time></trkpt><trkpt lat="42.18746108033291" lon="13.515245970507715"><ele>1313.0</ele><time>2026-05-03T13:46:17.998Z</time></trkpt><trkpt lat="42.187349446168625" lon="13.515072127879533"><ele>1314.3333333333335</ele><time>2026-05-03T13:46:18.998Z</time></trkpt><trkpt lat="42.18723328588568" lon="13.514970384893502"><ele>1315.6666666666667</ele><time>2026-05-03T13:46:19.998Z</time></trkpt><trkpt lat="42.18708096609514" lon="13.514908420120646"><ele>1317.0</ele><time>2026-05-03T13:46:20.998Z</time></trkpt><trkpt lat="42.1869110824658" lon="13.514879398257596"><ele>1317.0</ele><time>2026-05-03T13:46:21.998Z</time></trkpt><trkpt lat="42.186725228334645" lon="13.514878185492913"><ele>1317.0</ele><time>2026-05-03T13:46:22.998Z</time></trkpt><trkpt lat="42.18653252263817" lon="13.514867201601676"><ele>1317.0</ele><time>2026-05-03T13:46:23.998Z</time></trkpt><trkpt lat="42.18634120499425" lon="13.514844085094902"><ele>1318.0</ele><time>2026-05-03T13:46:24.998Z</time></trkpt><trkpt lat="42.186152177232806" lon="13.514804894312219"><ele>1319.0</ele><time>2026-05-03T13:46:25.998Z</time></trkpt><trkpt lat="42.18596640547811" lon="13.5147813936004"><ele>1320.0</ele><time>2026-05-03T13:46:26.998Z</time></trkpt><trkpt lat="42.18577915954258" lon="13.51472522749677"><ele>1319.3333333333333</ele><time>2026-05-03T13:46:27.998Z</time></trkpt><trkpt lat="42.185581184994156" lon="13.514684575765825"><ele>1318.6666666666665</ele><time>2026-05-03T13:46:28.999Z</time></trkpt><trkpt lat="42.185373861884415" lon="13.514658994939365"><ele>1318.0</ele><time>2026-05-03T13:46:29.999Z</time></trkpt><trkpt lat="42.18517245501728" lon="13.514612918331775"><ele>1318.6666666666665</ele><time>2026-05-03T13:46:30.999Z</time></trkpt><trkpt lat="42.184967641144816" lon="13.514570544476854"><ele>1319.3333333333333</ele><time>2026-05-03T13:46:31.999Z</time></trkpt><trkpt lat="42.18476172105543" lon="13.514527871021377"><ele>1320.0</ele><time>2026-05-03T13:46:32.999Z</time></trkpt><trkpt lat="42.18455653379169" lon="13.514486427180216"><ele>1320.6666666666667</ele><time>2026-05-03T13:46:33.999Z</time></trkpt><trkpt lat="42.184348521218986" lon="13.514444575574613"><ele>1321.3333333333335</ele><time>2026-05-03T13:46:34.999Z</time></trkpt><trkpt lat="42.184139460768066" lon="13.514401525860528"><ele>1322.0</ele><time>2026-05-03T13:46:35.999Z</time></trkpt><trkpt lat="42.18393145913411" lon="13.514355392954887"><ele>1323.3333333333335</ele><time>2026-05-03T13:46:36.999Z</time></trkpt><trkpt lat="42.183723200843446" lon="13.514311534002372"><ele>1324.6666666666667</ele><time>2026-05-03T13:46:37.999Z</time></trkpt><trkpt lat="42.18352099890465" lon="13.514268840372102"><ele>1326.0</ele><time>2026-05-03T13:46:38.999Z</time></trkpt><trkpt lat="42.183325477038444" lon="13.5142305497713"><ele>1326.6666666666667</ele><time>2026-05-03T13:46:39.999Z</time></trkpt><trkpt lat="42.18313788830704" lon="13.514200100989893"><ele>1327.3333333333335</ele><time>2026-05-03T13:46:40.999Z</time></trkpt><trkpt lat="42.18293771814792" lon="13.514175273407394"><ele>1328.0</ele><time>2026-05-03T13:46:41.999Z</time></trkpt><trkpt lat="42.182742433752004" lon="13.514176630194475"><ele>1328.0</ele><time>2026-05-03T13:46:42.999Z</time></trkpt><trkpt lat="42.18254609312426" lon="13.51420855151338"><ele>1328.0</ele><time>2026-05-03T13:46:43.999Z</time></trkpt><trkpt lat="42.18235272974292" lon="13.514264710277809"><ele>1328.0</ele><time>2026-05-03T13:46:44.999Z</time></trkpt><trkpt lat="42.182162952787614" lon="13.514344995975373"><ele>1328.0</ele><time>2026-05-03T13:46:45.999Z</time></trkpt><trkpt lat="42.18197815854187" lon="13.514455174687566"><ele>1328.0</ele><time>2026-05-03T13:46:46.999Z</time></trkpt><trkpt lat="42.18180325092676" lon="13.514591074086216"><ele>1328.0</ele><time>2026-05-03T13:46:47.999Z</time></trkpt><trkpt lat="42.181643659139986" lon="13.514747382940472"><ele>1330.6666666666667</ele><time>2026-05-03T13:46:48.999Z</time></trkpt><trkpt lat="42.18149982062888" lon="13.514908100285648"><ele>1333.3333333333333</ele><time>2026-05-03T13:46:49.999Z</time></trkpt><trkpt lat="42.181368159554935" lon="13.515058996466589"><ele>1336.0</ele><time>2026-05-03T13:46:50.999Z</time></trkpt><trkpt lat="42.18126006576418" lon="13.515180959139231"><ele>1336.0</ele><time>2026-05-03T13:46:51.999Z</time></trkpt><trkpt lat="42.1811358797359" lon="13.515254361637028"><ele>1336.0</ele><time>2026-05-03T13:46:52.999Z</time></trkpt><trkpt lat="42.1810059724746" lon="13.515274829253423"><ele>1336.0</ele><time>2026-05-03T13:46:53.999Z</time></trkpt><trkpt lat="42.1808702741871" lon="13.515251488293618"><ele>1336.0</ele><time>2026-05-03T13:46:54.999Z</time></trkpt><trkpt lat="42.18072941661318" lon="13.51518389046188"><ele>1337.3333333333333</ele><time>2026-05-03T13:46:55.999Z</time></trkpt><trkpt lat="42.18057530190837" lon="13.515086682378644"><ele>1338.6666666666667</ele><time>2026-05-03T13:46:56.999Z</time></trkpt><trkpt lat="42.180415697048865" lon="13.514983779596596"><ele>1340.0</ele><time>2026-05-03T13:46:57.999Z</time></trkpt><trkpt lat="42.18024955769067" lon="13.514882967567065"><ele>1340.0</ele><time>2026-05-03T13:46:58.999Z</time></trkpt><trkpt lat="42.18009209923769" lon="13.514786047094525"><ele>1340.0</ele><time>2026-05-03T13:46:59.999Z</time></trkpt><trkpt lat="42.179940436345106" lon="13.514692797252584"><ele>1340.0</ele><time>2026-05-03T13:47:00.999Z</time></trkpt><trkpt lat="42.179796467474205" lon="13.51461960571134"><ele>1343.25</ele><time>2026-05-03T13:47:01.999Z</time></trkpt><trkpt lat="42.17966819003995" lon="13.514602671173398"><ele>1346.5</ele><time>2026-05-03T13:47:02.999Z</time></trkpt><trkpt lat="42.17955660202126" lon="13.514690252204897"><ele>1349.75</ele><time>2026-05-03T13:47:03.999Z</time></trkpt><trkpt lat="42.17947855404099" lon="13.514788179599975"><ele>1353.0</ele><time>2026-05-03T13:47:04.999Z</time></trkpt><trkpt lat="42.17941857921142" lon="13.514923541333411"><ele>1353.0</ele><time>2026-05-03T13:47:05.999Z</time></trkpt><trkpt lat="42.17938157362664" lon="13.515094614948287"><ele>1353.0</ele><time>2026-05-03T13:47:06.999Z</time></trkpt><trkpt lat="42.179353867199666" lon="13.515287087164431"><ele>1353.0</ele><time>2026-05-03T13:47:07.999Z</time></trkpt><trkpt lat="42.17931273280545" lon="13.515497084873896"><ele>1353.0</ele><time>2026-05-03T13:47:08.999Z</time></trkpt><trkpt lat="42.17926937313322" lon="13.515714971513333"><ele>1353.3333333333333</ele><time>2026-05-03T13:47:09.999Z</time></trkpt><trkpt lat="42.179221668869296" lon="13.515930271251515"><ele>1353.6666666666665</ele><time>2026-05-03T13:47:10.999Z</time></trkpt><trkpt lat="42.17917853405359" lon="13.516128885016753"><ele>1354.0</ele><time>2026-05-03T13:47:11.999Z</time></trkpt><trkpt lat="42.17913575028031" lon="13.516310577833169"><ele>1354.5</ele><time>2026-05-03T13:47:12.999Z</time></trkpt><trkpt lat="42.17908144603353" lon="13.516451718444094"><ele>1355.0</ele><time>2026-05-03T13:47:13.999Z</time></trkpt><trkpt lat="42.1790088179956" lon="13.516561506990852"><ele>1355.5</ele><time>2026-05-03T13:47:14.999Z</time></trkpt><trkpt lat="42.17890363069417" lon="13.51662259735168"><ele>1356.0</ele><time>2026-05-03T13:47:15.999Z</time></trkpt><trkpt lat="42.178784342344834" lon="13.516652019296478"><ele>1356.0</ele><time>2026-05-03T13:47:16.999Z</time></trkpt><trkpt lat="42.17863103230458" lon="13.516640469593916"><ele>1356.0</ele><time>2026-05-03T13:47:17.999Z</time></trkpt><trkpt lat="42.17846907284196" lon="13.516606176659147"><ele>1356.0</ele><time>2026-05-03T13:47:18.999Z</time></trkpt><trkpt lat="42.17829997070197" lon="13.516551530624904"><ele>1357.75</ele><time>2026-05-03T13:47:19.999Z</time></trkpt><trkpt lat="42.178148653130265" lon="13.516473721718276"><ele>1359.5</ele><time>2026-05-03T13:47:20.999Z</time></trkpt><trkpt lat="42.17801949314994" lon="13.51638481760434"><ele>1361.25</ele><time>2026-05-03T13:47:21.999Z</time></trkpt><trkpt lat="42.17790472215251" lon="13.51628948841951"><ele>1363.0</ele><time>2026-05-03T13:47:22.999Z</time></trkpt><trkpt lat="42.17779590783267" lon="13.516192856845008"><ele>1363.0</ele><time>2026-05-03T13:47:23.999Z</time></trkpt><trkpt lat="42.177691863808576" lon="13.51610188319844"><ele>1363.0</ele><time>2026-05-03T13:47:24.999Z</time></trkpt><trkpt lat="42.177587010966086" lon="13.51602393722141"><ele>1363.0</ele><time>2026-05-03T13:47:25.999Z</time></trkpt><trkpt lat="42.17748525350967" lon="13.515957102064261"><ele>1363.0</ele><time>2026-05-03T13:47:26.999Z</time></trkpt><trkpt lat="42.177384712229234" lon="13.515876972445954"><ele>1362.75</ele><time>2026-05-03T13:47:27.999Z</time></trkpt><trkpt lat="42.17728282668949" lon="13.51579392979705"><ele>1362.5</ele><time>2026-05-03T13:47:28.999Z</time></trkpt><trkpt lat="42.17716724940911" lon="13.515736070937663"><ele>1362.25</ele><time>2026-05-03T13:47:29.999Z</time></trkpt><trkpt lat="42.17703795853846" lon="13.515693396894171"><ele>1362.0</ele><time>2026-05-03T13:47:30.999Z</time></trkpt><trkpt lat="42.176898275670666" lon="13.5156786818154"><ele>1362.0</ele><time>2026-05-03T13:47:31.999Z</time></trkpt><trkpt lat="42.176759100565796" lon="13.515688989238111"><ele>1362.0</ele><time>2026-05-03T13:47:32.999Z</time></trkpt><trkpt lat="42.17661601373292" lon="13.51572714045899"><ele>1362.0</ele><time>2026-05-03T13:47:33.999Z</time></trkpt><trkpt lat="42.17646897189663" lon="13.515773818494704"><ele>1362.0</ele><time>2026-05-03T13:47:34.999Z</time></trkpt><trkpt lat="42.17633520897896" lon="13.515789057255084"><ele>1360.75</ele><time>2026-05-03T13:47:35.999Z</time></trkpt><trkpt lat="42.17618793824427" lon="13.515687851933004"><ele>1359.5</ele><time>2026-05-03T13:47:36.999Z</time></trkpt><trkpt lat="42.17608391740326" lon="13.515710095015965"><ele>1358.25</ele><time>2026-05-03T13:47:37.999Z</time></trkpt><trkpt lat="42.1759883670372" lon="13.515733573110694"><ele>1357.0</ele><time>2026-05-03T13:47:38.999Z</time></trkpt><trkpt lat="42.17585948806254" lon="13.515779694927991"><ele>1357.0</ele><time>2026-05-03T13:47:39.999Z</time></trkpt><trkpt lat="42.17572874090734" lon="13.515808654706477"><ele>1357.0</ele><time>2026-05-03T13:47:40.999Z</time></trkpt><trkpt lat="42.175591950279944" lon="13.51583360375928"><ele>1357.0</ele><time>2026-05-03T13:47:41.999Z</time></trkpt><trkpt lat="42.175457046241036" lon="13.515855485370631"><ele>1357.0</ele><time>2026-05-03T13:47:42.999Z</time></trkpt><trkpt lat="42.17532736322538" lon="13.515883719678142"><ele>1356.5</ele><time>2026-05-03T13:47:43.999Z</time></trkpt><trkpt lat="42.175201810831446" lon="13.515905585696848"><ele>1356.0</ele><time>2026-05-03T13:47:44.999Z</time></trkpt><trkpt lat="42.17508903472923" lon="13.515934347677026"><ele>1355.5</ele><time>2026-05-03T13:47:45.999Z</time></trkpt><trkpt lat="42.17498549807499" lon="13.51597343671569"><ele>1355.0</ele><time>2026-05-03T13:47:46.999Z</time></trkpt><trkpt lat="42.17488196896692" lon="13.515983721281064"><ele>1354.8333333333335</ele><time>2026-05-03T13:47:47.999Z</time></trkpt><trkpt lat="42.17478159032439" lon="13.515993944013607"><ele>1354.6666666666667</ele><time>2026-05-03T13:47:48.999Z</time></trkpt><trkpt lat="42.174697748481265" lon="13.516018526044144"><ele>1354.5</ele><time>2026-05-03T13:47:49.999Z</time></trkpt><trkpt lat="42.1746192640853" lon="13.516034127397576"><ele>1354.3333333333333</ele><time>2026-05-03T13:47:50.999Z</time></trkpt><trkpt lat="42.17454433128943" lon="13.51604372962662"><ele>1354.1666666666665</ele><time>2026-05-03T13:47:51.999Z</time></trkpt><trkpt lat="42.17446438569651" lon="13.516044725481956"><ele>1354.0</ele><time>2026-05-03T13:47:52.999Z</time></trkpt><trkpt lat="42.17439195046878" lon="13.516015669146828"><ele>1354.0</ele><time>2026-05-03T13:47:53.999Z</time></trkpt><trkpt lat="42.17432215915615" lon="13.515957513371564"><ele>1354.0</ele><time>2026-05-03T13:47:54.999Z</time></trkpt><trkpt lat="42.17420937904833" lon="13.51601268277271"><ele>1354.0</ele><time>2026-05-03T13:47:55.999Z</time></trkpt><trkpt lat="42.17413882432681" lon="13.515995503204314"><ele>1354.0</ele><time>2026-05-03T13:47:56.999Z</time></trkpt><trkpt lat="42.17405950553341" lon="13.516129369989391"><ele>1354.0</ele><time>2026-05-03T13:47:57.999Z</time></trkpt><trkpt lat="42.17398159536625" lon="13.5161953879776"><ele>1353.3333333333333</ele><time>2026-05-03T13:47:58.999Z</time></trkpt><trkpt lat="42.173885109812566" lon="13.516264795209915"><ele>1352.6666666666667</ele><time>2026-05-03T13:47:59.999Z</time></trkpt><trkpt lat="42.173733378014575" lon="13.516316818470132"><ele>1352.0</ele><time>2026-05-03T13:48:00.999Z</time></trkpt><trkpt lat="42.17353973677495" lon="13.516368401514027"><ele>1352.0</ele><time>2026-05-03T13:48:01.999Z</time></trkpt><trkpt lat="42.17330955374467" lon="13.516361804230709"><ele>1352.0</ele><time>2026-05-03T13:48:02.999Z</time></trkpt><trkpt lat="42.173066142035104" lon="13.516418948667367"><ele>1350.5</ele><time>2026-05-03T13:48:03.999Z</time></trkpt><trkpt lat="42.172828638225766" lon="13.516474257187996"><ele>1349.0</ele><time>2026-05-03T13:48:04.999Z</time></trkpt><trkpt lat="42.17259635376772" lon="13.516528350256506"><ele>1349.0</ele><time>2026-05-03T13:48:05.998Z</time></trkpt><trkpt lat="42.17235919077608" lon="13.516583579411188"><ele>1349.0</ele><time>2026-05-03T13:48:06.998Z</time></trkpt><trkpt lat="42.17211251897434" lon="13.516641022922876"><ele>1349.0</ele><time>2026-05-03T13:48:07.998Z</time></trkpt><trkpt lat="42.17186349599246" lon="13.516699013963608"><ele>1349.0</ele><time>2026-05-03T13:48:08.998Z</time></trkpt><trkpt lat="42.17162261842695" lon="13.516755108146421"><ele>1348.0</ele><time>2026-05-03T13:48:09.998Z</time></trkpt><trkpt lat="42.171364855806125" lon="13.516815860302428"><ele>1347.0</ele><time>2026-05-03T13:48:10.998Z</time></trkpt><trkpt lat="42.17109791358738" lon="13.516879109332164"><ele>1347.0</ele><time>2026-05-03T13:48:11.998Z</time></trkpt><trkpt lat="42.17081351260185" lon="13.516946495025087"><ele>1347.0</ele><time>2026-05-03T13:48:12.998Z</time></trkpt><trkpt lat="42.170521991868604" lon="13.517015567661714"><ele>1348.5</ele><time>2026-05-03T13:48:13.998Z</time></trkpt><trkpt lat="42.17022414015715" lon="13.517086140355842"><ele>1350.0</ele><time>2026-05-03T13:48:14.998Z</time></trkpt><trkpt lat="42.169918282572716" lon="13.517158731166694"><ele>1350.5</ele><time>2026-05-03T13:48:15.998Z</time></trkpt><trkpt lat="42.16960695561518" lon="13.517232730722068"><ele>1351.0</ele><time>2026-05-03T13:48:16.998Z</time></trkpt><trkpt lat="42.16930168593706" lon="13.517305290626869"><ele>1349.0</ele><time>2026-05-03T13:48:17.998Z</time></trkpt><trkpt lat="42.16901111946437" lon="13.51737356130639"><ele>1347.0</ele><time>2026-05-03T13:48:18.998Z</time></trkpt><trkpt lat="42.16870714323317" lon="13.517443861998078"><ele>1347.0</ele><time>2026-05-03T13:48:19.998Z</time></trkpt><trkpt lat="42.16840551549949" lon="13.517514583335256"><ele>1347.0</ele><time>2026-05-03T13:48:20.998Z</time></trkpt><trkpt lat="42.168105704372636" lon="13.517585313735342"><ele>1349.0</ele><time>2026-05-03T13:48:21.998Z</time></trkpt><trkpt lat="42.167820577929234" lon="13.517652579743796"><ele>1351.0</ele><time>2026-05-03T13:48:22.998Z</time></trkpt><trkpt lat="42.16755356863309" lon="13.517730245610167"><ele>1355.0</ele><time>2026-05-03T13:48:23.998Z</time></trkpt><trkpt lat="42.167290196139064" lon="13.517795200225452"><ele>1359.0</ele><time>2026-05-03T13:48:24.998Z</time></trkpt><trkpt lat="42.16702159719554" lon="13.517857055639245"><ele>1356.5</ele><time>2026-05-03T13:48:25.998Z</time></trkpt><trkpt lat="42.166761904944195" lon="13.517917679697028"><ele>1354.0</ele><time>2026-05-03T13:48:26.998Z</time></trkpt><trkpt lat="42.16650555684282" lon="13.51797476689654"><ele>1354.0</ele><time>2026-05-03T13:48:27.998Z</time></trkpt><trkpt lat="42.166253780158534" lon="13.518037151771912"><ele>1354.0</ele><time>2026-05-03T13:48:28.998Z</time></trkpt><trkpt lat="42.16599880007062" lon="13.518101999935425"><ele>1354.0</ele><time>2026-05-03T13:48:29.998Z</time></trkpt><trkpt lat="42.16574620205811" lon="13.518161633417622"><ele>1354.0</ele><time>2026-05-03T13:48:30.998Z</time></trkpt><trkpt lat="42.16550165074875" lon="13.518222181665461"><ele>1355.0</ele><time>2026-05-03T13:48:31.998Z</time></trkpt><trkpt lat="42.16526578331225" lon="13.51827445097868"><ele>1356.0</ele><time>2026-05-03T13:48:32.998Z</time></trkpt><trkpt lat="42.16502991258084" lon="13.518302448587724"><ele>1356.0</ele><time>2026-05-03T13:48:33.998Z</time></trkpt><trkpt lat="42.164793750537115" lon="13.51827668019595"><ele>1356.0</ele><time>2026-05-03T13:48:34.999Z</time></trkpt><trkpt lat="42.164552739479134" lon="13.518257167554879"><ele>1356.0</ele><time>2026-05-03T13:48:35.999Z</time></trkpt><trkpt lat="42.16429916994172" lon="13.518236638175535"><ele>1356.0</ele><time>2026-05-03T13:48:36.999Z</time></trkpt><trkpt lat="42.16404643618405" lon="13.51821617644539"><ele>1356.0</ele><time>2026-05-03T13:48:37.999Z</time></trkpt><trkpt lat="42.163796640985005" lon="13.518196443618855"><ele>1356.0</ele><time>2026-05-03T13:48:38.999Z</time></trkpt><trkpt lat="42.16355272939107" lon="13.518177237617273"><ele>1356.0</ele><time>2026-05-03T13:48:39.999Z</time></trkpt><trkpt lat="42.163317913211976" lon="13.518172598733829"><ele>1356.0</ele><time>2026-05-03T13:48:40.999Z</time></trkpt><trkpt lat="42.16307823843941" lon="13.518152497729007"><ele>1355.0</ele><time>2026-05-03T13:48:41.999Z</time></trkpt><trkpt lat="42.162842455227356" lon="13.518143451160526"><ele>1354.0</ele><time>2026-05-03T13:48:42.999Z</time></trkpt><trkpt lat="42.16260591947715" lon="13.518128744864141"><ele>1354.0</ele><time>2026-05-03T13:48:43.999Z</time></trkpt><trkpt lat="42.16235613733423" lon="13.518105043068973"><ele>1354.0</ele><time>2026-05-03T13:48:44.999Z</time></trkpt><trkpt lat="42.16208787574493" lon="13.518088858725022"><ele>1354.0</ele><time>2026-05-03T13:48:45.999Z</time></trkpt><trkpt lat="42.16179363119891" lon="13.518073349237364"><ele>1354.0</ele><time>2026-05-03T13:48:46.999Z</time></trkpt><trkpt lat="42.161481638013896" lon="13.518056907765052"><ele>1355.5</ele><time>2026-05-03T13:48:47.999Z</time></trkpt><trkpt lat="42.161161574987815" lon="13.51803709943535"><ele>1357.0</ele><time>2026-05-03T13:48:48.999Z</time></trkpt><trkpt lat="42.160840790502135" lon="13.518015565119446"><ele>1357.5</ele><time>2026-05-03T13:48:49.999Z</time></trkpt><trkpt lat="42.16053601177437" lon="13.517977887718736"><ele>1358.0</ele><time>2026-05-03T13:48:50.999Z</time></trkpt><trkpt lat="42.16024134527316" lon="13.517941366292018"><ele>1358.0</ele><time>2026-05-03T13:48:51.999Z</time></trkpt><trkpt lat="42.15995672266023" lon="13.517914614644967"><ele>1358.0</ele><time>2026-05-03T13:48:52.999Z</time></trkpt><trkpt lat="42.15968303868794" lon="13.517891600510774"><ele>1358.5</ele><time>2026-05-03T13:48:53.999Z</time></trkpt><trkpt lat="42.159419947088125" lon="13.5178742198584"><ele>1359.0</ele><time>2026-05-03T13:48:54.999Z</time></trkpt><trkpt lat="42.159155370328705" lon="13.517857602774304"><ele>1360.0</ele><time>2026-05-03T13:48:55.999Z</time></trkpt><trkpt lat="42.15889581124856" lon="13.517838073253252"><ele>1361.0</ele><time>2026-05-03T13:48:56.999Z</time></trkpt><trkpt lat="42.158626042766414" lon="13.517816352219887"><ele>1361.0</ele><time>2026-05-03T13:48:57.999Z</time></trkpt><trkpt lat="42.1583431465169" lon="13.51779272996225"><ele>1361.0</ele><time>2026-05-03T13:48:58.999Z</time></trkpt><trkpt lat="42.15804306808395" lon="13.517767416228109"><ele>1360.5</ele><time>2026-05-03T13:48:59.999Z</time></trkpt><trkpt lat="42.15773317010734" lon="13.517736134175994"><ele>1360.0</ele><time>2026-05-03T13:49:00.999Z</time></trkpt><trkpt lat="42.157429296409305" lon="13.517714228200573"><ele>1360.5</ele><time>2026-05-03T13:49:01.999Z</time></trkpt><trkpt lat="42.15712950704287" lon="13.51769084256172"><ele>1361.0</ele><time>2026-05-03T13:49:02.999Z</time></trkpt><trkpt lat="42.15684445935819" lon="13.517677843148087"><ele>1361.0</ele><time>2026-05-03T13:49:03.999Z</time></trkpt><trkpt lat="42.15656603247927" lon="13.517665066655105"><ele>1361.0</ele><time>2026-05-03T13:49:04.999Z</time></trkpt><trkpt lat="42.15629888808328" lon="13.517662717907573"><ele>1362.5</ele><time>2026-05-03T13:49:05.999Z</time></trkpt><trkpt lat="42.156031576101554" lon="13.517661406824402"><ele>1364.0</ele><time>2026-05-03T13:49:06.999Z</time></trkpt><trkpt lat="42.15577159768184" lon="13.517674810026376"><ele>1363.5</ele><time>2026-05-03T13:49:07.999Z</time></trkpt><trkpt lat="42.155509697208785" lon="13.517698528243292"><ele>1363.0</ele><time>2026-05-03T13:49:08.999Z</time></trkpt><trkpt lat="42.15524736343281" lon="13.517725805538886"><ele>1363.0</ele><time>2026-05-03T13:49:09.999Z</time></trkpt><trkpt lat="42.15499791458135" lon="13.517752680203758"><ele>1363.0</ele><time>2026-05-03T13:49:10.999Z</time></trkpt><trkpt lat="42.15475662592893" lon="13.517770477626053"><ele>1362.5</ele><time>2026-05-03T13:49:11.999Z</time></trkpt><trkpt lat="42.15452642737227" lon="13.517792044407596"><ele>1362.0</ele><time>2026-05-03T13:49:12.999Z</time></trkpt><trkpt lat="42.15429304681373" lon="13.517812814435421"><ele>1362.0</ele><time>2026-05-03T13:49:13.999Z</time></trkpt><trkpt lat="42.1540672695824" lon="13.517846777336954"><ele>1362.0</ele><time>2026-05-03T13:49:14.999Z</time></trkpt><trkpt lat="42.153854279808414" lon="13.517912239253747"><ele>1362.0</ele><time>2026-05-03T13:49:15.999Z</time></trkpt><trkpt lat="42.153640738452445" lon="13.518008107808924"><ele>1361.5</ele><time>2026-05-03T13:49:16.999Z</time></trkpt><trkpt lat="42.15341510619963" lon="13.51811654618565"><ele>1361.0</ele><time>2026-05-03T13:49:17.999Z</time></trkpt><trkpt lat="42.15317890134121" lon="13.51824487877363"><ele>1360.0</ele><time>2026-05-03T13:49:18.999Z</time></trkpt><trkpt lat="42.15293703300526" lon="13.518361499773249"><ele>1359.0</ele><time>2026-05-03T13:49:19.999Z</time></trkpt><trkpt lat="42.152696502455555" lon="13.51846209321272"><ele>1359.0</ele><time>2026-05-03T13:49:20.999Z</time></trkpt><trkpt lat="42.15246178856947" lon="13.518567986005992"><ele>1359.0</ele><time>2026-05-03T13:49:21.999Z</time></trkpt><trkpt lat="42.15222153544467" lon="13.518674758427355"><ele>1359.0</ele><time>2026-05-03T13:49:22.999Z</time></trkpt><trkpt lat="42.15198096997776" lon="13.518788438115694"><ele>1359.0</ele><time>2026-05-03T13:49:23.999Z</time></trkpt><trkpt lat="42.15173045905869" lon="13.51890256808402"><ele>1357.5</ele><time>2026-05-03T13:49:24.999Z</time></trkpt><trkpt lat="42.15147562918501" lon="13.519024211456536"><ele>1356.0</ele><time>2026-05-03T13:49:25.999Z</time></trkpt><trkpt lat="42.15122469294011" lon="13.519148696628015"><ele>1356.0</ele><time>2026-05-03T13:49:26.999Z</time></trkpt><trkpt lat="42.15096269235063" lon="13.519270281054329"><ele>1356.0</ele><time>2026-05-03T13:49:27.999Z</time></trkpt><trkpt lat="42.15069544679569" lon="13.519385802048655"><ele>1356.0</ele><time>2026-05-03T13:49:28.999Z</time></trkpt><trkpt lat="42.15043222418479" lon="13.519475679704593"><ele>1356.0</ele><time>2026-05-03T13:49:29.999Z</time></trkpt><trkpt lat="42.15015537266076" lon="13.519543132333018"><ele>1355.0</ele><time>2026-05-03T13:49:30.999Z</time></trkpt><trkpt lat="42.14987227674885" lon="13.51957825258555"><ele>1354.0</ele><time>2026-05-03T13:49:31.999Z</time></trkpt><trkpt lat="42.14957971284753" lon="13.51960498534901"><ele>1354.0</ele><time>2026-05-03T13:49:32.999Z</time></trkpt><trkpt lat="42.14928824105399" lon="13.519636651380685"><ele>1354.0</ele><time>2026-05-03T13:49:33.999Z</time></trkpt><trkpt lat="42.14898276059847" lon="13.51967341884082"><ele>1354.0</ele><time>2026-05-03T13:49:34.999Z</time></trkpt><trkpt lat="42.148679763878484" lon="13.51970863408508"><ele>1354.0</ele><time>2026-05-03T13:49:35.999Z</time></trkpt><trkpt lat="42.148372493204015" lon="13.519745363075929"><ele>1352.5</ele><time>2026-05-03T13:49:36.999Z</time></trkpt><trkpt lat="42.14807183510956" lon="13.519781643135412"><ele>1351.0</ele><time>2026-05-03T13:49:37.999Z</time></trkpt><trkpt lat="42.14774225616748" lon="13.519813873762992"><ele>1351.0</ele><time>2026-05-03T13:49:38.999Z</time></trkpt><trkpt lat="42.147429197967796" lon="13.51984719072446"><ele>1351.0</ele><time>2026-05-03T13:49:39.999Z</time></trkpt><trkpt lat="42.14712158878435" lon="13.519881213682806"><ele>1354.0</ele><time>2026-05-03T13:49:40.999Z</time></trkpt><trkpt lat="42.14682978507424" lon="13.51991457115183"><ele>1357.0</ele><time>2026-05-03T13:49:41.999Z</time></trkpt><trkpt lat="42.146538330612216" lon="13.519927741644723"><ele>1358.0</ele><time>2026-05-03T13:49:42.999Z</time></trkpt><trkpt lat="42.1462465790286" lon="13.519961487565844"><ele>1359.0</ele><time>2026-05-03T13:49:43.999Z</time></trkpt><trkpt lat="42.14599406087963" lon="13.519973317210841"><ele>1359.0</ele><time>2026-05-03T13:49:44.999Z</time></trkpt><trkpt lat="42.14573238875981" lon="13.5199793829385"><ele>1359.0</ele><time>2026-05-03T13:49:45.999Z</time></trkpt><trkpt lat="42.14549304407896" lon="13.519961313775392"><ele>1358.0</ele><time>2026-05-03T13:49:46.999Z</time></trkpt><trkpt lat="42.1452540242481" lon="13.519931510155343"><ele>1357.0</ele><time>2026-05-03T13:49:47.999Z</time></trkpt><trkpt lat="42.145014320161785" lon="13.51989763091368"><ele>1357.5</ele><time>2026-05-03T13:49:48.999Z</time></trkpt><trkpt lat="42.14478238812834" lon="13.519869202257333"><ele>1358.0</ele><time>2026-05-03T13:49:49.999Z</time></trkpt><trkpt lat="42.14456481339408" lon="13.519848907144638"><ele>1358.0</ele><time>2026-05-03T13:49:50.999Z</time></trkpt><trkpt lat="42.144359019862236" lon="13.519825797588997"><ele>1358.0</ele><time>2026-05-03T13:49:51.999Z</time></trkpt><trkpt lat="42.144170537165884" lon="13.519795156731215"><ele>1358.0</ele><time>2026-05-03T13:49:52.999Z</time></trkpt><trkpt lat="42.14401146549974" lon="13.519718389197335"><ele>1357.3333333333335</ele><time>2026-05-03T13:49:53.999Z</time></trkpt><trkpt lat="42.14384808352659" lon="13.519627140486357"><ele>1356.6666666666667</ele><time>2026-05-03T13:49:54.999Z</time></trkpt><trkpt lat="42.143663145375726" lon="13.51950486675037"><ele>1356.0</ele><time>2026-05-03T13:49:55.999Z</time></trkpt><trkpt lat="42.14346397104294" lon="13.519396377878135"><ele>1356.0</ele><time>2026-05-03T13:49:56.999Z</time></trkpt><trkpt lat="42.143268625701175" lon="13.519264738810763"><ele>1356.0</ele><time>2026-05-03T13:49:57.999Z</time></trkpt><trkpt lat="42.14307727086556" lon="13.519117583957476"><ele>1356.0</ele><time>2026-05-03T13:49:58.999Z</time></trkpt><trkpt lat="42.14288395413002" lon="13.518990188795309"><ele>1353.6666666666667</ele><time>2026-05-03T13:49:59.999Z</time></trkpt><trkpt lat="42.14269588826056" lon="13.518866350277236"><ele>1351.3333333333335</ele><time>2026-05-03T13:50:00.999Z</time></trkpt><trkpt lat="42.142506916881665" lon="13.51874062034132"><ele>1349.0</ele><time>2026-05-03T13:50:01.999Z</time></trkpt><trkpt lat="42.14232153508854" lon="13.518616976387982"><ele>1349.0</ele><time>2026-05-03T13:50:02.999Z</time></trkpt><trkpt lat="42.14214666588757" lon="13.518500344018221"><ele>1349.0</ele><time>2026-05-03T13:50:03.999Z</time></trkpt><trkpt lat="42.141985926799215" lon="13.518398726109911"><ele>1349.0</ele><time>2026-05-03T13:50:04.999Z</time></trkpt><trkpt lat="42.14184380566988" lon="13.518321570366643"><ele>1349.0</ele><time>2026-05-03T13:50:05.999Z</time></trkpt><trkpt lat="42.14171613643251" lon="13.518272518962874"><ele>1349.0</ele><time>2026-05-03T13:50:06.999Z</time></trkpt><trkpt lat="42.141605480352574" lon="13.518263217188291"><ele>1349.0</ele><time>2026-05-03T13:50:07.999Z</time></trkpt><trkpt lat="42.14149592330279" lon="13.518231885588591"><ele>1349.0</ele><time>2026-05-03T13:50:08.999Z</time></trkpt><trkpt lat="42.14140814178531" lon="13.518179109903665"><ele>1348.6</ele><time>2026-05-03T13:50:09.999Z</time></trkpt><trkpt lat="42.14133367439209" lon="13.518100468165338"><ele>1348.2</ele><time>2026-05-03T13:50:10.999Z</time></trkpt><trkpt lat="42.1412739515786" lon="13.51799020851075"><ele>1347.8</ele><time>2026-05-03T13:50:11.999Z</time></trkpt><trkpt lat="42.14122480834522" lon="13.517876923794015"><ele>1347.3999999999999</ele><time>2026-05-03T13:50:12.999Z</time></trkpt><trkpt lat="42.14119670688871" lon="13.517755577826879"><ele>1347.0</ele><time>2026-05-03T13:50:13.999Z</time></trkpt><trkpt lat="42.1412057531425" lon="13.517612747178731"><ele>1348.5</ele><time>2026-05-03T13:50:14.999Z</time></trkpt><trkpt lat="42.14125349086831" lon="13.517459365367056"><ele>1350.0</ele><time>2026-05-03T13:50:15.999Z</time></trkpt><trkpt lat="42.14128263071537" lon="13.51728551615479"><ele>1351.5</ele><time>2026-05-03T13:50:16.999Z</time></trkpt><trkpt lat="42.1413220039848" lon="13.517100892314884"><ele>1353.0</ele><time>2026-05-03T13:50:17.999Z</time></trkpt><trkpt lat="42.14136781397501" lon="13.51690274740905"><ele>1354.3333333333333</ele><time>2026-05-03T13:50:18.999Z</time></trkpt><trkpt lat="42.141424450815684" lon="13.51669554418589"><ele>1355.6666666666665</ele><time>2026-05-03T13:50:19.999Z</time></trkpt><trkpt lat="42.14147442083094" lon="13.516485264580526"><ele>1357.0</ele><time>2026-05-03T13:50:20.999Z</time></trkpt><trkpt lat="42.14152213102422" lon="13.516272367109778"><ele>1355.6666666666665</ele><time>2026-05-03T13:50:21.999Z</time></trkpt><trkpt lat="42.14157027250595" lon="13.516064097444593"><ele>1354.3333333333333</ele><time>2026-05-03T13:50:22.999Z</time></trkpt><trkpt lat="42.1416248357678" lon="13.515858156370678"><ele>1353.0</ele><time>2026-05-03T13:50:23.999Z</time></trkpt><trkpt lat="42.141675669271415" lon="13.51565743017661"><ele>1353.0</ele><time>2026-05-03T13:50:24.999Z</time></trkpt><trkpt lat="42.14171820939792" lon="13.515472183076543"><ele>1353.0</ele><time>2026-05-03T13:50:25.999Z</time></trkpt><trkpt lat="42.14175918208563" lon="13.515296281629466"><ele>1353.0</ele><time>2026-05-03T13:50:26.999Z</time></trkpt><trkpt lat="42.141791490047794" lon="13.515129370377313"><ele>1353.0</ele><time>2026-05-03T13:50:27.999Z</time></trkpt><trkpt lat="42.141786459459226" lon="13.514976282668677"><ele>1353.0</ele><time>2026-05-03T13:50:28.998Z</time></trkpt><trkpt lat="42.141744525120075" lon="13.51482635950867"><ele>1353.0</ele><time>2026-05-03T13:50:29.998Z</time></trkpt><trkpt lat="42.1416448054388" lon="13.514727887287297"><ele>1353.0</ele><time>2026-05-03T13:50:30.998Z</time></trkpt><trkpt lat="42.14153233332874" lon="13.514612537676129"><ele>1353.0</ele><time>2026-05-03T13:50:31.998Z</time></trkpt><trkpt lat="42.14142762366002" lon="13.514480760624135"><ele>1355.3333333333333</ele><time>2026-05-03T13:50:32.998Z</time></trkpt><trkpt lat="42.14130502078042" lon="13.514355415736429"><ele>1357.6666666666665</ele><time>2026-05-03T13:50:33.998Z</time></trkpt><trkpt lat="42.14117275296262" lon="13.514218168020172"><ele>1360.0</ele><time>2026-05-03T13:50:34.998Z</time></trkpt><trkpt lat="42.14104316058733" lon="13.514080976124523"><ele>1360.0</ele><time>2026-05-03T13:50:35.998Z</time></trkpt><trkpt lat="42.1409196418044" lon="13.513943724279658"><ele>1360.0</ele><time>2026-05-03T13:50:36.998Z</time></trkpt><trkpt lat="42.140803331191776" lon="13.513811442699923"><ele>1360.0</ele><time>2026-05-03T13:50:37.998Z</time></trkpt><trkpt lat="42.140696740424055" lon="13.513693202122276"><ele>1361.0</ele><time>2026-05-03T13:50:38.998Z</time></trkpt><trkpt lat="42.140592241738744" lon="13.5135841383486"><ele>1362.0</ele><time>2026-05-03T13:50:39.998Z</time></trkpt><trkpt lat="42.140511520123624" lon="13.513495212838889"><ele>1363.0</ele><time>2026-05-03T13:50:41Z</time></trkpt><trkpt lat="42.14044606380921" lon="13.513415919716511"><ele>1364.0</ele><time>2026-05-03T13:50:42Z</time></trkpt><trkpt lat="42.14037913307949" lon="13.51332632533144"><ele>1365.0</ele><time>2026-05-03T13:50:44Z</time></trkpt><trkpt lat="42.14038793599751" lon="13.513216004112945"><ele>1365.0</ele><time>2026-05-03T13:50:46Z</time></trkpt><trkpt lat="42.14050585266541" lon="13.51314260292954"><ele>1365.0</ele><time>2026-05-03T13:50:47Z</time></trkpt><trkpt lat="42.14057670640468" lon="13.51312045082982"><ele>1365.0</ele><time>2026-05-03T13:50:48Z</time></trkpt><trkpt lat="42.14058875044345" lon="13.512881018760973"><ele>1365.0</ele><time>2026-05-03T13:50:50Z</time></trkpt><trkpt lat="42.14055526059707" lon="13.51277217247315"><ele>1362.75</ele><time>2026-05-03T13:50:51Z</time></trkpt><trkpt lat="42.14052281178593" lon="13.51263892577309"><ele>1360.5</ele><time>2026-05-03T13:50:52Z</time></trkpt><trkpt lat="42.14053391883474" lon="13.512436092778499"><ele>1358.25</ele><time>2026-05-03T13:50:53Z</time></trkpt><trkpt lat="42.140530472134095" lon="13.512206262906457"><ele>1356.0</ele><time>2026-05-03T13:50:54Z</time></trkpt><trkpt lat="42.140527388287104" lon="13.511983540128414"><ele>1352.5</ele><time>2026-05-03T13:50:55Z</time></trkpt><trkpt lat="42.14052476182408" lon="13.511772802028622"><ele>1349.0</ele><time>2026-05-03T13:50:56Z</time></trkpt><trkpt lat="42.14052228538985" lon="13.511574101621077"><ele>1345.5</ele><time>2026-05-03T13:50:57Z</time></trkpt><trkpt lat="42.14051983397957" lon="13.51137740943064"><ele>1342.0</ele><time>2026-05-03T13:50:58Z</time></trkpt><trkpt lat="42.14051727526577" lon="13.511183177944265"><ele>1341.0</ele><time>2026-05-03T13:50:59Z</time></trkpt><trkpt lat="42.140513679509695" lon="13.511001461978921"><ele>1340.0</ele><time>2026-05-03T13:51:00Z</time></trkpt><trkpt lat="42.14051075172333" lon="13.510823167954102"><ele>1339.0</ele><time>2026-05-03T13:51:01Z</time></trkpt><trkpt lat="42.140514066357454" lon="13.510656139861764"><ele>1338.0</ele><time>2026-05-03T13:51:02Z</time></trkpt><trkpt lat="42.1405258964938" lon="13.510504803496122"><ele>1337.25</ele><time>2026-05-03T13:51:03Z</time></trkpt><trkpt lat="42.14055554931437" lon="13.510376054766356"><ele>1336.5</ele><time>2026-05-03T13:51:04Z</time></trkpt><trkpt lat="42.14066302860594" lon="13.510312309698442"><ele>1335.75</ele><time>2026-05-03T13:51:05Z</time></trkpt><trkpt lat="42.140761855358996" lon="13.510200522347661"><ele>1335.0</ele><time>2026-05-03T13:51:06Z</time></trkpt><trkpt lat="42.14087641521434" lon="13.510114649167821"><ele>1338.75</ele><time>2026-05-03T13:51:07Z</time></trkpt><trkpt lat="42.14097010006643" lon="13.50998694436481"><ele>1342.5</ele><time>2026-05-03T13:51:08Z</time></trkpt><trkpt lat="42.14101992251727" lon="13.509825249866623"><ele>1346.25</ele><time>2026-05-03T13:51:09Z</time></trkpt><trkpt lat="42.14103995760365" lon="13.509664225284691"><ele>1350.0</ele><time>2026-05-03T13:51:10Z</time></trkpt><trkpt lat="42.141023547372235" lon="13.509499451067674"><ele>1350.25</ele><time>2026-05-03T13:51:11Z</time></trkpt><trkpt lat="42.14099171421356" lon="13.509345673763146"><ele>1350.5</ele><time>2026-05-03T13:51:12Z</time></trkpt><trkpt lat="42.14090636910847" lon="13.509211795851279"><ele>1350.75</ele><time>2026-05-03T13:51:13Z</time></trkpt><trkpt lat="42.14079711654607" lon="13.509113278400454"><ele>1351.0</ele><time>2026-05-03T13:51:14Z</time></trkpt><trkpt lat="42.14068917384722" lon="13.509023861498857"><ele>1349.0</ele><time>2026-05-03T13:51:15Z</time></trkpt><trkpt lat="42.14056193363704" lon="13.508979915639646"><ele>1347.0</ele><time>2026-05-03T13:51:16Z</time></trkpt><trkpt lat="42.140438379592986" lon="13.508973858960612"><ele>1345.0</ele><time>2026-05-03T13:51:17Z</time></trkpt><trkpt lat="42.140313309896946" lon="13.50901953342782"><ele>1343.0</ele><time>2026-05-03T13:51:18Z</time></trkpt><trkpt lat="42.14019505572686" lon="13.509101207898526"><ele>1343.0</ele><time>2026-05-03T13:51:19Z</time></trkpt><trkpt lat="42.14010053622869" lon="13.509223093316061"><ele>1343.0</ele><time>2026-05-03T13:51:20Z</time></trkpt><trkpt lat="42.14000571282759" lon="13.509373891494556"><ele>1343.0</ele><time>2026-05-03T13:51:21Z</time></trkpt><trkpt lat="42.13997115371788" lon="13.509567148420413"><ele>1343.0</ele><time>2026-05-03T13:51:22Z</time></trkpt><trkpt lat="42.13993104973232" lon="13.509774586524944"><ele>1340.3333333333335</ele><time>2026-05-03T13:51:23Z</time></trkpt><trkpt lat="42.13990145258099" lon="13.509996903920179"><ele>1337.6666666666667</ele><time>2026-05-03T13:51:24Z</time></trkpt><trkpt lat="42.13987083227402" lon="13.510216950724853"><ele>1335.0</ele><time>2026-05-03T13:51:25Z</time></trkpt><trkpt lat="42.139832434414906" lon="13.510437511350045"><ele>1332.0</ele><time>2026-05-03T13:51:26Z</time></trkpt><trkpt lat="42.13978763737106" lon="13.510648069295558"><ele>1329.0</ele><time>2026-05-03T13:51:27Z</time></trkpt><trkpt lat="42.139739949243136" lon="13.510839753036391"><ele>1326.0</ele><time>2026-05-03T13:51:28Z</time></trkpt><trkpt lat="42.13968738293661" lon="13.511022260301575"><ele>1326.0</ele><time>2026-05-03T13:51:29Z</time></trkpt><trkpt lat="42.139619833426835" lon="13.511168864935813"><ele>1326.0</ele><time>2026-05-03T13:51:30Z</time></trkpt><trkpt lat="42.139520821626206" lon="13.511265064761707"><ele>1326.0</ele><time>2026-05-03T13:51:31Z</time></trkpt><trkpt lat="42.13940500626537" lon="13.511314415645671"><ele>1326.0</ele><time>2026-05-03T13:51:32Z</time></trkpt><trkpt lat="42.139286150197734" lon="13.511312307164907"><ele>1327.25</ele><time>2026-05-03T13:51:33Z</time></trkpt><trkpt lat="42.13915820611276" lon="13.511267608870668"><ele>1328.5</ele><time>2026-05-03T13:51:34Z</time></trkpt><trkpt lat="42.13903222433513" lon="13.511187251179196"><ele>1329.75</ele><time>2026-05-03T13:51:34.999Z</time></trkpt><trkpt lat="42.13892894282903" lon="13.511076392161737"><ele>1331.0</ele><time>2026-05-03T13:51:35.999Z</time></trkpt><trkpt lat="42.13885232113311" lon="13.510939329966291"><ele>1331.0</ele><time>2026-05-03T13:51:36.999Z</time></trkpt><trkpt lat="42.138832234477796" lon="13.510745839924084"><ele>1331.0</ele><time>2026-05-03T13:51:37.999Z</time></trkpt><trkpt lat="42.138805821114666" lon="13.51054406032483"><ele>1331.0</ele><time>2026-05-03T13:51:38.999Z</time></trkpt><trkpt lat="42.138774653553206" lon="13.510359280166483"><ele>1331.0</ele><time>2026-05-03T13:51:39.999Z</time></trkpt><trkpt lat="42.13875994780219" lon="13.510176219242359"><ele>1329.4</ele><time>2026-05-03T13:51:40.999Z</time></trkpt><trkpt lat="42.13874178517873" lon="13.510007579700936"><ele>1327.8</ele><time>2026-05-03T13:51:41.999Z</time></trkpt><trkpt lat="42.13872790205586" lon="13.509851504723448"><ele>1326.2</ele><time>2026-05-03T13:51:42.999Z</time></trkpt><trkpt lat="42.138714122836916" lon="13.509711919032789"><ele>1324.6000000000001</ele><time>2026-05-03T13:51:43.999Z</time></trkpt><trkpt lat="42.1387208745822" lon="13.509594746783481"><ele>1323.0</ele><time>2026-05-03T13:51:44.999Z</time></trkpt><trkpt lat="42.138691208967394" lon="13.509420282784784"><ele>1318.8000000000002</ele><time>2026-05-03T13:51:46.999Z</time></trkpt><trkpt lat="42.13869076181787" lon="13.50929299744147"><ele>1314.6</ele><time>2026-05-03T13:51:48.999Z</time></trkpt><trkpt lat="42.13877346638051" lon="13.50917129697455"><ele>1310.4</ele><time>2026-05-03T13:51:49.999Z</time></trkpt><trkpt lat="42.138818089466575" lon="13.509066162412271"><ele>1306.1999999999998</ele><time>2026-05-03T13:51:50.999Z</time></trkpt><trkpt lat="42.13886846125391" lon="13.508935403284557"><ele>1302.0</ele><time>2026-05-03T13:51:51.999Z</time></trkpt><trkpt lat="42.13892652112428" lon="13.508785377516448"><ele>1298.5</ele><time>2026-05-03T13:51:52.999Z</time></trkpt><trkpt lat="42.13898740607401" lon="13.508628261847186"><ele>1295.0</ele><time>2026-05-03T13:51:53.999Z</time></trkpt><trkpt lat="42.13904758737938" lon="13.508475484353726"><ele>1291.5</ele><time>2026-05-03T13:51:54.999Z</time></trkpt><trkpt lat="42.139107171227394" lon="13.508325514844316"><ele>1288.0</ele><time>2026-05-03T13:51:55.999Z</time></trkpt><trkpt lat="42.139159464869074" lon="13.508191992754819"><ele>1290.3333333333333</ele><time>2026-05-03T13:51:56.999Z</time></trkpt><trkpt lat="42.13920629488659" lon="13.508095036715597"><ele>1292.6666666666665</ele><time>2026-05-03T13:51:57.999Z</time></trkpt><trkpt lat="42.13926708589542" lon="13.507986130099052"><ele>1295.0</ele><time>2026-05-03T13:51:58.999Z</time></trkpt><trkpt lat="42.13932765135375" lon="13.507876775384975"><ele>1297.3333333333333</ele><time>2026-05-03T13:51:59.999Z</time></trkpt><trkpt lat="42.13937126770595" lon="13.507784561583517"><ele>1299.6666666666667</ele><time>2026-05-03T13:52:00.999Z</time></trkpt><trkpt lat="42.13940469663485" lon="13.507705065093493"><ele>1302.0</ele><time>2026-05-03T13:52:01.999Z</time></trkpt><trkpt lat="42.13941643553505" lon="13.507618873748935"><ele>1302.0</ele><time>2026-05-03T13:52:02.999Z</time></trkpt><trkpt lat="42.13939565956323" lon="13.507534724823069"><ele>1302.0</ele><time>2026-05-03T13:52:03.999Z</time></trkpt><trkpt lat="42.13934175648286" lon="13.507477488278933"><ele>1302.0</ele><time>2026-05-03T13:52:04.999Z</time></trkpt><trkpt lat="42.139265364560366" lon="13.507473236255366"><ele>1302.0</ele><time>2026-05-03T13:52:05.999Z</time></trkpt><trkpt lat="42.139172509202936" lon="13.507426613684261"><ele>1302.0</ele><time>2026-05-03T13:52:06.999Z</time></trkpt><trkpt lat="42.13908342674206" lon="13.507533017896213"><ele>1302.0</ele><time>2026-05-03T13:52:07.999Z</time></trkpt><trkpt lat="42.1390291313072" lon="13.507684477410608"><ele>1298.5</ele><time>2026-05-03T13:52:08.999Z</time></trkpt><trkpt lat="42.13897962376825" lon="13.507839380048683"><ele>1295.0</ele><time>2026-05-03T13:52:09.999Z</time></trkpt><trkpt lat="42.13891989586321" lon="13.508029503334877"><ele>1291.5</ele><time>2026-05-03T13:52:10.999Z</time></trkpt><trkpt lat="42.13885427625037" lon="13.508194486098715"><ele>1288.0</ele><time>2026-05-03T13:52:11.999Z</time></trkpt><trkpt lat="42.138772021881714" lon="13.508352107216675"><ele>1288.0</ele><time>2026-05-03T13:52:12.999Z</time></trkpt><trkpt lat="42.13868500750422" lon="13.50850726749649"><ele>1288.0</ele><time>2026-05-03T13:52:13.999Z</time></trkpt><trkpt lat="42.138599700892115" lon="13.50865762637456"><ele>1288.0</ele><time>2026-05-03T13:52:14.999Z</time></trkpt><trkpt lat="42.138516111399845" lon="13.50880329919044"><ele>1288.0</ele><time>2026-05-03T13:52:15.999Z</time></trkpt><trkpt lat="42.138424075263835" lon="13.508945838094794"><ele>1288.25</ele><time>2026-05-03T13:52:16.999Z</time></trkpt><trkpt lat="42.13831580485527" lon="13.509057689124559"><ele>1288.5</ele><time>2026-05-03T13:52:17.999Z</time></trkpt><trkpt lat="42.138178829378255" lon="13.509136128219199"><ele>1288.75</ele><time>2026-05-03T13:52:18.999Z</time></trkpt><trkpt lat="42.13802411678204" lon="13.509157815349722"><ele>1289.0</ele><time>2026-05-03T13:52:19.999Z</time></trkpt><trkpt lat="42.13787405312822" lon="13.509182143488465"><ele>1289.0</ele><time>2026-05-03T13:52:20.999Z</time></trkpt><trkpt lat="42.13772476401702" lon="13.50921450198366"><ele>1289.0</ele><time>2026-05-03T13:52:21.999Z</time></trkpt><trkpt lat="42.1375759961797" lon="13.509260396320546"><ele>1289.0</ele><time>2026-05-03T13:52:22.999Z</time></trkpt><trkpt lat="42.13743019563626" lon="13.509311802258615"><ele>1292.6666666666667</ele><time>2026-05-03T13:52:23.999Z</time></trkpt><trkpt lat="42.13725705934368" lon="13.50938088621176"><ele>1296.3333333333333</ele><time>2026-05-03T13:52:24.999Z</time></trkpt><trkpt lat="42.137054698798394" lon="13.509496284548897"><ele>1300.0</ele><time>2026-05-03T13:52:25.999Z</time></trkpt><trkpt lat="42.136860686266935" lon="13.509620955554794"><ele>1300.0</ele><time>2026-05-03T13:52:26.999Z</time></trkpt><trkpt lat="42.13666481889228" lon="13.509743915535523"><ele>1300.0</ele><time>2026-05-03T13:52:27.999Z</time></trkpt><trkpt lat="42.13646558772418" lon="13.509868278750517"><ele>1300.0</ele><time>2026-05-03T13:52:28.999Z</time></trkpt><trkpt lat="42.136277126720394" lon="13.509977826234598"><ele>1293.0</ele><time>2026-05-03T13:52:29.999Z</time></trkpt><trkpt lat="42.13608153553504" lon="13.510080701077273"><ele>1286.0</ele><time>2026-05-03T13:52:30.999Z</time></trkpt><trkpt lat="42.135896642667745" lon="13.51018048786464"><ele>1279.0</ele><time>2026-05-03T13:52:31.999Z</time></trkpt><trkpt lat="42.13569954517154" lon="13.510291780143767"><ele>1278.5</ele><time>2026-05-03T13:52:32.999Z</time></trkpt><trkpt lat="42.13550012459758" lon="13.510433593181821"><ele>1278.0</ele><time>2026-05-03T13:52:33.999Z</time></trkpt><trkpt lat="42.13529292076282" lon="13.510619740468782"><ele>1278.0</ele><time>2026-05-03T13:52:34.999Z</time></trkpt><trkpt lat="42.13507310579159" lon="13.510820801963275"><ele>1278.0</ele><time>2026-05-03T13:52:35.999Z</time></trkpt><trkpt lat="42.13487377128084" lon="13.5110062539733"><ele>1274.5</ele><time>2026-05-03T13:52:36.999Z</time></trkpt><trkpt lat="42.134677636689894" lon="13.51118824189333"><ele>1271.0</ele><time>2026-05-03T13:52:37.999Z</time></trkpt><trkpt lat="42.13448840528171" lon="13.511361412620685"><ele>1271.0</ele><time>2026-05-03T13:52:38.999Z</time></trkpt><trkpt lat="42.13430361221314" lon="13.511528807050704"><ele>1271.0</ele><time>2026-05-03T13:52:39.999Z</time></trkpt><trkpt lat="42.134126499557254" lon="13.511705964191878"><ele>1271.0</ele><time>2026-05-03T13:52:40.999Z</time></trkpt><trkpt lat="42.13395382734016" lon="13.511876415840675"><ele>1270.3333333333335</ele><time>2026-05-03T13:52:41.999Z</time></trkpt><trkpt lat="42.133775889551046" lon="13.5120297556183"><ele>1269.6666666666667</ele><time>2026-05-03T13:52:42.999Z</time></trkpt><trkpt lat="42.13358788986812" lon="13.512162614678013"><ele>1269.0</ele><time>2026-05-03T13:52:43.999Z</time></trkpt><trkpt lat="42.13340910108198" lon="13.512320044027604"><ele>1269.0</ele><time>2026-05-03T13:52:44.999Z</time></trkpt><trkpt lat="42.133250588991174" lon="13.512479591894598"><ele>1269.0</ele><time>2026-05-03T13:52:45.999Z</time></trkpt><trkpt lat="42.13309710427995" lon="13.51263927801235"><ele>1269.0</ele><time>2026-05-03T13:52:47Z</time></trkpt><trkpt lat="42.1329522167353" lon="13.512791025836721"><ele>1271.3333333333333</ele><time>2026-05-03T13:52:48Z</time></trkpt><trkpt lat="42.13280334168691" lon="13.512891070785294"><ele>1273.6666666666665</ele><time>2026-05-03T13:52:49Z</time></trkpt><trkpt lat="42.13259877228144" lon="13.512960837994477"><ele>1276.0</ele><time>2026-05-03T13:52:50Z</time></trkpt><trkpt lat="42.13237756527494" lon="13.513044599343393"><ele>1267.5</ele><time>2026-05-03T13:52:51Z</time></trkpt><trkpt lat="42.13214264446954" lon="13.51314882182705"><ele>1259.0</ele><time>2026-05-03T13:52:52Z</time></trkpt><trkpt lat="42.131904831789534" lon="13.51322788813"><ele>1259.0</ele><time>2026-05-03T13:52:53Z</time></trkpt><trkpt lat="42.13167035977304" lon="13.513301294735898"><ele>1259.0</ele><time>2026-05-03T13:52:54Z</time></trkpt><trkpt lat="42.13142998726177" lon="13.51334541229785"><ele>1254.0</ele><time>2026-05-03T13:52:55Z</time></trkpt><trkpt lat="42.1311944633477" lon="13.513394362828379"><ele>1249.0</ele><time>2026-05-03T13:52:56Z</time></trkpt><trkpt lat="42.13096599628734" lon="13.513440882192011"><ele>1249.0</ele><time>2026-05-03T13:52:57Z</time></trkpt><trkpt lat="42.13074474234663" lon="13.513486651265953"><ele>1249.0</ele><time>2026-05-03T13:52:58Z</time></trkpt><trkpt lat="42.13053210231823" lon="13.51353077907387"><ele>1249.0</ele><time>2026-05-03T13:52:59Z</time></trkpt><trkpt lat="42.1303235384217" lon="13.513573603611189"><ele>1242.0</ele><time>2026-05-03T13:53:00Z</time></trkpt><trkpt lat="42.130127669788116" lon="13.51362542090447"><ele>1235.0</ele><time>2026-05-03T13:53:01Z</time></trkpt><trkpt lat="42.12993344261441" lon="13.513660306898135"><ele>1228.0</ele><time>2026-05-03T13:53:02Z</time></trkpt><trkpt lat="42.129747800290566" lon="13.513700061516868"><ele>1237.3333333333333</ele><time>2026-05-03T13:53:03Z</time></trkpt><trkpt lat="42.12956895478481" lon="13.513746226751982"><ele>1246.6666666666667</ele><time>2026-05-03T13:53:04Z</time></trkpt><trkpt lat="42.12939834444552" lon="13.513806695077623"><ele>1256.0</ele><time>2026-05-03T13:53:05Z</time></trkpt><trkpt lat="42.12923227798536" lon="13.513857602450864"><ele>1256.0</ele><time>2026-05-03T13:53:06Z</time></trkpt><trkpt lat="42.12906968224596" lon="13.513900025555436"><ele>1256.0</ele><time>2026-05-03T13:53:07Z</time></trkpt><trkpt lat="42.12892246938579" lon="13.513943221879838"><ele>1256.0</ele><time>2026-05-03T13:53:08Z</time></trkpt><trkpt lat="42.12879600902531" lon="13.513992229686648"><ele>1256.0</ele><time>2026-05-03T13:53:09Z</time></trkpt><trkpt lat="42.12869368604663" lon="13.514054569111467"><ele>1252.8333333333335</ele><time>2026-05-03T13:53:10Z</time></trkpt><trkpt lat="42.12859475545651" lon="13.514073385081335"><ele>1249.6666666666667</ele><time>2026-05-03T13:53:11Z</time></trkpt><trkpt lat="42.12852711510607" lon="13.514089197181132"><ele>1246.5</ele><time>2026-05-03T13:53:12Z</time></trkpt><trkpt lat="42.12846551134237" lon="13.514042682696214"><ele>1243.3333333333333</ele><time>2026-05-03T13:53:14Z</time></trkpt><trkpt lat="42.12846170397384" lon="13.513921697064934"><ele>1240.1666666666665</ele><time>2026-05-03T13:53:15Z</time></trkpt><trkpt lat="42.128529722307974" lon="13.513832392709924"><ele>1237.0</ele><time>2026-05-03T13:53:16Z</time></trkpt><trkpt lat="42.1286146811845" lon="13.513794972908627"><ele>1237.0</ele><time>2026-05-03T13:53:17Z</time></trkpt><trkpt lat="42.1287173046501" lon="13.513763956248974"><ele>1237.0</ele><time>2026-05-03T13:53:18Z</time></trkpt><trkpt lat="42.12886316995797" lon="13.513756537144383"><ele>1237.0</ele><time>2026-05-03T13:53:19Z</time></trkpt><trkpt lat="42.12904315581094" lon="13.513702633162142"><ele>1237.0</ele><time>2026-05-03T13:53:20Z</time></trkpt><trkpt lat="42.129240887857385" lon="13.513639362560337"><ele>1229.5</ele><time>2026-05-03T13:53:21Z</time></trkpt><trkpt lat="42.129462442800296" lon="13.513539376174327"><ele>1222.0</ele><time>2026-05-03T13:53:22Z</time></trkpt><trkpt lat="42.12967924025782" lon="13.513433814673244"><ele>1225.0</ele><time>2026-05-03T13:53:23Z</time></trkpt><trkpt lat="42.129897279017605" lon="13.513328419547168"><ele>1228.0</ele><time>2026-05-03T13:53:24Z</time></trkpt><trkpt lat="42.13011562311153" lon="13.513222962011593"><ele>1228.0</ele><time>2026-05-03T13:53:25Z</time></trkpt><trkpt lat="42.13034250011526" lon="13.513111065939528"><ele>1228.0</ele><time>2026-05-03T13:53:26Z</time></trkpt><trkpt lat="42.130556000951216" lon="13.51298431007209"><ele>1222.0</ele><time>2026-05-03T13:53:27Z</time></trkpt><trkpt lat="42.13076596348382" lon="13.512888045477764"><ele>1216.0</ele><time>2026-05-03T13:53:28Z</time></trkpt><trkpt lat="42.130956181275266" lon="13.512791090842374"><ele>1210.0</ele><time>2026-05-03T13:53:29Z</time></trkpt><trkpt lat="42.13113487775886" lon="13.51270270101326"><ele>1210.0</ele><time>2026-05-03T13:53:30Z</time></trkpt><trkpt lat="42.13129962422438" lon="13.512639596933269"><ele>1210.0</ele><time>2026-05-03T13:53:31Z</time></trkpt><trkpt lat="42.13145845011698" lon="13.512557453965204"><ele>1210.0</ele><time>2026-05-03T13:53:32Z</time></trkpt><trkpt lat="42.13160642004762" lon="13.512511745912445"><ele>1212.2</ele><time>2026-05-03T13:53:33Z</time></trkpt><trkpt lat="42.13173985113481" lon="13.512500088472349"><ele>1214.4</ele><time>2026-05-03T13:53:34Z</time></trkpt><trkpt lat="42.131849765340526" lon="13.512513394837837"><ele>1216.6</ele><time>2026-05-03T13:53:35Z</time></trkpt><trkpt lat="42.131944836705" lon="13.512496193417794"><ele>1218.8</ele><time>2026-05-03T13:53:36Z</time></trkpt><trkpt lat="42.13201414814626" lon="13.512454854350894"><ele>1221.0</ele><time>2026-05-03T13:53:37Z</time></trkpt><trkpt lat="42.1320704990446" lon="13.512366614787465"><ele>1221.0</ele><time>2026-05-03T13:53:38Z</time></trkpt><trkpt lat="42.132083926690136" lon="13.51224368976954"><ele>1221.0</ele><time>2026-05-03T13:53:39Z</time></trkpt><trkpt lat="42.1320414181099" lon="13.51216240666986"><ele>1221.0</ele><time>2026-05-03T13:53:40Z</time></trkpt><trkpt lat="42.13199377707944" lon="13.51207857762331"><ele>1221.0</ele><time>2026-05-03T13:53:41Z</time></trkpt><trkpt lat="42.13188114584604" lon="13.512100470767892"><ele>1221.0</ele><time>2026-05-03T13:53:42Z</time></trkpt><trkpt lat="42.13176541014522" lon="13.512151085783751"><ele>1221.0</ele><time>2026-05-03T13:53:43Z</time></trkpt><trkpt lat="42.13161272415127" lon="13.512236512377946"><ele>1221.0</ele><time>2026-05-03T13:53:44Z</time></trkpt><trkpt lat="42.13142186388214" lon="13.512312826859166"><ele>1221.0</ele><time>2026-05-03T13:53:45Z</time></trkpt><trkpt lat="42.13120714677493" lon="13.51236817780652"><ele>1217.3333333333333</ele><time>2026-05-03T13:53:46Z</time></trkpt><trkpt lat="42.13099459902624" lon="13.512410861435923"><ele>1213.6666666666665</ele><time>2026-05-03T13:53:46.999Z</time></trkpt><trkpt lat="42.13076755293308" lon="13.51244619101291"><ele>1210.0</ele><time>2026-05-03T13:53:47.999Z</time></trkpt><trkpt lat="42.130536857395505" lon="13.512491990089545"><ele>1204.5</ele><time>2026-05-03T13:53:48.999Z</time></trkpt><trkpt lat="42.130278815012375" lon="13.512545818445322"><ele>1199.0</ele><time>2026-05-03T13:53:49.999Z</time></trkpt><trkpt lat="42.1300318188201" lon="13.512595258302952"><ele>1192.0</ele><time>2026-05-03T13:53:50.999Z</time></trkpt><trkpt lat="42.12979602510623" lon="13.512646355110222"><ele>1185.0</ele><time>2026-05-03T13:53:51.999Z</time></trkpt><trkpt lat="42.12956509444408" lon="13.512676066679774"><ele>1185.0</ele><time>2026-05-03T13:53:52.999Z</time></trkpt><trkpt lat="42.12934700089774" lon="13.512725600219024"><ele>1185.0</ele><time>2026-05-03T13:53:53.999Z</time></trkpt><trkpt lat="42.12912131872256" lon="13.512759756389022"><ele>1185.0</ele><time>2026-05-03T13:53:54.999Z</time></trkpt><trkpt lat="42.128908075186516" lon="13.512775248731037"><ele>1183.0</ele><time>2026-05-03T13:53:55.999Z</time></trkpt><trkpt lat="42.12869527986487" lon="13.512775816154353"><ele>1181.0</ele><time>2026-05-03T13:53:56.999Z</time></trkpt><trkpt lat="42.128490124400805" lon="13.512766779618243"><ele>1179.0</ele><time>2026-05-03T13:53:57.999Z</time></trkpt><trkpt lat="42.12829533178264" lon="13.512757197954043"><ele>1175.6666666666667</ele><time>2026-05-03T13:53:58.999Z</time></trkpt><trkpt lat="42.128104549840664" lon="13.512757235286855"><ele>1172.3333333333335</ele><time>2026-05-03T13:53:59.999Z</time></trkpt><trkpt lat="42.12792175442164" lon="13.512801113154241"><ele>1169.0</ele><time>2026-05-03T13:54:00.999Z</time></trkpt><trkpt lat="42.12773232361706" lon="13.512872981297159"><ele>1171.3333333333335</ele><time>2026-05-03T13:54:01.999Z</time></trkpt><trkpt lat="42.12755959612898" lon="13.512963469204735"><ele>1173.6666666666667</ele><time>2026-05-03T13:54:02.999Z</time></trkpt><trkpt lat="42.12737771665163" lon="13.513030170599817"><ele>1176.0</ele><time>2026-05-03T13:54:03.999Z</time></trkpt><trkpt lat="42.12720679004723" lon="13.513127752442958"><ele>1176.0</ele><time>2026-05-03T13:54:04.999Z</time></trkpt><trkpt lat="42.127059478660165" lon="13.513227243965241"><ele>1176.0</ele><time>2026-05-03T13:54:05.999Z</time></trkpt><trkpt lat="42.12691340866316" lon="13.513332314894418"><ele>1176.0</ele><time>2026-05-03T13:54:06.999Z</time></trkpt><trkpt lat="42.12677253634854" lon="13.513459845836506"><ele>1176.0</ele><time>2026-05-03T13:54:07.999Z</time></trkpt><trkpt lat="42.12664548493716" lon="13.513560510961993"><ele>1176.0</ele><time>2026-05-03T13:54:08.999Z</time></trkpt><trkpt lat="42.12651452081988" lon="13.513651156004514"><ele>1176.0</ele><time>2026-05-03T13:54:09.999Z</time></trkpt><trkpt lat="42.126371906983955" lon="13.513696261001058"><ele>1176.0</ele><time>2026-05-03T13:54:10.999Z</time></trkpt><trkpt lat="42.1262335077458" lon="13.513771305059317"><ele>1176.5</ele><time>2026-05-03T13:54:11.999Z</time></trkpt><trkpt lat="42.12610908998615" lon="13.513821539643661"><ele>1177.0</ele><time>2026-05-03T13:54:12.999Z</time></trkpt><trkpt lat="42.12597712015102" lon="13.513885179681102"><ele>1177.5</ele><time>2026-05-03T13:54:13.999Z</time></trkpt><trkpt lat="42.12586203293128" lon="13.51398578549407"><ele>1178.0</ele><time>2026-05-03T13:54:14.999Z</time></trkpt><trkpt lat="42.125768067374324" lon="13.514121872878617"><ele>1173.0</ele><time>2026-05-03T13:54:15.999Z</time></trkpt><trkpt lat="42.12566422129212" lon="13.514235502056037"><ele>1168.0</ele><time>2026-05-03T13:54:16.999Z</time></trkpt><trkpt lat="42.125574393171576" lon="13.514349674446416"><ele>1163.0</ele><time>2026-05-03T13:54:17.999Z</time></trkpt><trkpt lat="42.12548751546802" lon="13.514436731758204"><ele>1158.0</ele><time>2026-05-03T13:54:18.999Z</time></trkpt><trkpt lat="42.12540513865826" lon="13.514520709304314"><ele>1158.0</ele><time>2026-05-03T13:54:19.999Z</time></trkpt><trkpt lat="42.12530944354605" lon="13.514540850296052"><ele>1158.0</ele><time>2026-05-03T13:54:20.999Z</time></trkpt><trkpt lat="42.125221972376245" lon="13.514518978795918"><ele>1158.0</ele><time>2026-05-03T13:54:21.999Z</time></trkpt><trkpt lat="42.125147571901884" lon="13.514490741046366"><ele>1158.0</ele><time>2026-05-03T13:54:22.999Z</time></trkpt><trkpt lat="42.12507158580799" lon="13.514451659203509"><ele>1158.0</ele><time>2026-05-03T13:54:23.999Z</time></trkpt><trkpt lat="42.12499381174121" lon="13.5144291392672"><ele>1158.0</ele><time>2026-05-03T13:54:24.999Z</time></trkpt><trkpt lat="42.12490916887262" lon="13.514434562598302"><ele>1156.4285714285713</ele><time>2026-05-03T13:54:25.999Z</time></trkpt><trkpt lat="42.124835372207784" lon="13.514490919099861"><ele>1154.857142857143</ele><time>2026-05-03T13:54:26.999Z</time></trkpt><trkpt lat="42.12478655257398" lon="13.51458206966446"><ele>1153.2857142857142</ele><time>2026-05-03T13:54:27.999Z</time></trkpt><trkpt lat="42.12474869675748" lon="13.514675766575303"><ele>1151.7142857142858</ele><time>2026-05-03T13:54:28.999Z</time></trkpt><trkpt lat="42.124703285677924" lon="13.514736427523802"><ele>1150.142857142857</ele><time>2026-05-03T13:54:29.999Z</time></trkpt><trkpt lat="42.12463550684327" lon="13.514756684867747"><ele>1148.5714285714284</ele><time>2026-05-03T13:54:30.999Z</time></trkpt><trkpt lat="42.12457150543744" lon="13.514738227831803"><ele>1147.0</ele><time>2026-05-03T13:54:31.999Z</time></trkpt><trkpt lat="42.12452089538036" lon="13.51465686625584"><ele>1147.0</ele><time>2026-05-03T13:54:32.999Z</time></trkpt><trkpt lat="42.12451260037681" lon="13.514569528724532"><ele>1147.0</ele><time>2026-05-03T13:54:33.999Z</time></trkpt><trkpt lat="42.124547530075155" lon="13.514475194002285"><ele>1147.0</ele><time>2026-05-03T13:54:34.999Z</time></trkpt><trkpt lat="42.1246275098819" lon="13.514413544843945"><ele>1147.0</ele><time>2026-05-03T13:54:35.999Z</time></trkpt><trkpt lat="42.12470491925807" lon="13.514326156420239"><ele>1147.0</ele><time>2026-05-03T13:54:36.999Z</time></trkpt><trkpt lat="42.124785683403495" lon="13.514252269980481"><ele>1147.0</ele><time>2026-05-03T13:54:37.999Z</time></trkpt><trkpt lat="42.124873672218726" lon="13.514214492760617"><ele>1149.75</ele><time>2026-05-03T13:54:38.999Z</time></trkpt><trkpt lat="42.12497412397781" lon="13.51420007222625"><ele>1152.5</ele><time>2026-05-03T13:54:39.999Z</time></trkpt><trkpt lat="42.12508687881687" lon="13.514207269739513"><ele>1155.25</ele><time>2026-05-03T13:54:40.999Z</time></trkpt><trkpt lat="42.125196980391166" lon="13.514178531429755"><ele>1158.0</ele><time>2026-05-03T13:54:41.999Z</time></trkpt><trkpt lat="42.12529558434463" lon="13.51404881364809"><ele>1158.0</ele><time>2026-05-03T13:54:42.999Z</time></trkpt><trkpt lat="42.125348234859025" lon="13.513861644570717"><ele>1158.0</ele><time>2026-05-03T13:54:43.999Z</time></trkpt><trkpt lat="42.12543768608508" lon="13.513668198008226"><ele>1158.0</ele><time>2026-05-03T13:54:44.999Z</time></trkpt><trkpt lat="42.125544461882825" lon="13.513473025398905"><ele>1156.0</ele><time>2026-05-03T13:54:45.999Z</time></trkpt><trkpt lat="42.12567458227843" lon="13.513310437775637"><ele>1154.0</ele><time>2026-05-03T13:54:46.999Z</time></trkpt><trkpt lat="42.12585359791544" lon="13.513214959259862"><ele>1152.0</ele><time>2026-05-03T13:54:47.999Z</time></trkpt><trkpt lat="42.125994592379165" lon="13.513058918463035"><ele>1145.6666666666667</ele><time>2026-05-03T13:54:48.999Z</time></trkpt><trkpt lat="42.126127054564925" lon="13.51289755423759"><ele>1139.3333333333335</ele><time>2026-05-03T13:54:49.999Z</time></trkpt><trkpt lat="42.12623156665285" lon="13.512719240865096"><ele>1133.0</ele><time>2026-05-03T13:54:50.999Z</time></trkpt><trkpt lat="42.12630722499595" lon="13.512518278140211"><ele>1133.0</ele><time>2026-05-03T13:54:51.999Z</time></trkpt><trkpt lat="42.126382949216236" lon="13.512339073070711"><ele>1133.0</ele><time>2026-05-03T13:54:53Z</time></trkpt><trkpt lat="42.12648933286966" lon="13.512189077651499"><ele>1133.0</ele><time>2026-05-03T13:54:54Z</time></trkpt><trkpt lat="42.12660624735529" lon="13.512050329385549"><ele>1135.75</ele><time>2026-05-03T13:54:55Z</time></trkpt><trkpt lat="42.12671489476444" lon="13.511947676066946"><ele>1138.5</ele><time>2026-05-03T13:54:56Z</time></trkpt><trkpt lat="42.126816966515065" lon="13.511901883422917"><ele>1141.25</ele><time>2026-05-03T13:54:57Z</time></trkpt><trkpt lat="42.12692104022762" lon="13.511863492055824"><ele>1144.0</ele><time>2026-05-03T13:54:58Z</time></trkpt><trkpt lat="42.12701926797799" lon="13.511826741230545"><ele>1144.0</ele><time>2026-05-03T13:54:59Z</time></trkpt><trkpt lat="42.127102249682274" lon="13.511730546300525"><ele>1144.0</ele><time>2026-05-03T13:55:00Z</time></trkpt><trkpt lat="42.12710189736763" lon="13.511533278158984"><ele>1144.0</ele><time>2026-05-03T13:55:01Z</time></trkpt><trkpt lat="42.127044979267296" lon="13.511449554903061"><ele>1144.0</ele><time>2026-05-03T13:55:02Z</time></trkpt><trkpt lat="42.12695785009022" lon="13.511457726395914"><ele>1144.0</ele><time>2026-05-03T13:55:03Z</time></trkpt><trkpt lat="42.12687178857451" lon="13.51148364489857"><ele>1144.0</ele><time>2026-05-03T13:55:04Z</time></trkpt><trkpt lat="42.12677620172366" lon="13.511574494585599"><ele>1144.0</ele><time>2026-05-03T13:55:05Z</time></trkpt><trkpt lat="42.12665918903431" lon="13.511684154545897"><ele>1144.0</ele><time>2026-05-03T13:55:06Z</time></trkpt><trkpt lat="42.12651777522547" lon="13.511810178650405"><ele>1144.0</ele><time>2026-05-03T13:55:07Z</time></trkpt><trkpt lat="42.126347539148554" lon="13.511955202658644"><ele>1140.3333333333333</ele><time>2026-05-03T13:55:08Z</time></trkpt><trkpt lat="42.12616304673459" lon="13.51211570776022"><ele>1136.6666666666667</ele><time>2026-05-03T13:55:09Z</time></trkpt><trkpt lat="42.12598359737685" lon="13.512277035157162"><ele>1133.0</ele><time>2026-05-03T13:55:10Z</time></trkpt><trkpt lat="42.125794428404895" lon="13.512446374834699"><ele>1126.0</ele><time>2026-05-03T13:55:11Z</time></trkpt><trkpt lat="42.12560291335558" lon="13.512618144064984"><ele>1119.0</ele><time>2026-05-03T13:55:12Z</time></trkpt><trkpt lat="42.12541383373243" lon="13.512788118524137"><ele>1117.6666666666667</ele><time>2026-05-03T13:55:13Z</time></trkpt><trkpt lat="42.125228032242035" lon="13.512954499624076"><ele>1116.3333333333335</ele><time>2026-05-03T13:55:14Z</time></trkpt><trkpt lat="42.12504538058901" lon="13.51310840073186"><ele>1115.0</ele><time>2026-05-03T13:55:15Z</time></trkpt><trkpt lat="42.12486527806949" lon="13.513221835160788"><ele>1115.0</ele><time>2026-05-03T13:55:16Z</time></trkpt><trkpt lat="42.12469502247597" lon="13.513326775142737"><ele>1115.0</ele><time>2026-05-03T13:55:17Z</time></trkpt><trkpt lat="42.124503788557185" lon="13.513384429559666"><ele>1115.0</ele><time>2026-05-03T13:55:18Z</time></trkpt><trkpt lat="42.12431247706634" lon="13.513410520227387"><ele>1115.0</ele><time>2026-05-03T13:55:19Z</time></trkpt><trkpt lat="42.12415392980323" lon="13.513417314290068"><ele>1115.0</ele><time>2026-05-03T13:55:20Z</time></trkpt><trkpt lat="42.12402090285063" lon="13.513428809677237"><ele>1115.0</ele><time>2026-05-03T13:55:21Z</time></trkpt><trkpt lat="42.12389996666409" lon="13.513439728112582"><ele>1115.0</ele><time>2026-05-03T13:55:22Z</time></trkpt><trkpt lat="42.12377298727067" lon="13.513402621554086"><ele>1112.75</ele><time>2026-05-03T13:55:23Z</time></trkpt><trkpt lat="42.12365309316511" lon="13.513329354286713"><ele>1110.5</ele><time>2026-05-03T13:55:24Z</time></trkpt><trkpt lat="42.12354623849016" lon="13.51327416373824"><ele>1108.25</ele><time>2026-05-03T13:55:25Z</time></trkpt><trkpt lat="42.123430697039375" lon="13.51327426678944"><ele>1106.0</ele><time>2026-05-03T13:55:26Z</time></trkpt><trkpt lat="42.12333324098968" lon="13.513335582714088"><ele>1106.0</ele><time>2026-05-03T13:55:27Z</time></trkpt><trkpt lat="42.123253590076445" lon="13.513452444707537"><ele>1106.0</ele><time>2026-05-03T13:55:28Z</time></trkpt><trkpt lat="42.123201102706616" lon="13.51361166195691"><ele>1106.0</ele><time>2026-05-03T13:55:29Z</time></trkpt><trkpt lat="42.123142047603636" lon="13.513772372498591"><ele>1106.0</ele><time>2026-05-03T13:55:30Z</time></trkpt><trkpt lat="42.123050348400106" lon="13.513921524150367"><ele>1103.5</ele><time>2026-05-03T13:55:31Z</time></trkpt><trkpt lat="42.12293896950169" lon="13.514061938509766"><ele>1101.0</ele><time>2026-05-03T13:55:32Z</time></trkpt><trkpt lat="42.122840762157516" lon="13.514179117280298"><ele>1098.5</ele><time>2026-05-03T13:55:33Z</time></trkpt><trkpt lat="42.12274799546445" lon="13.514295791535963"><ele>1096.0</ele><time>2026-05-03T13:55:34Z</time></trkpt><trkpt lat="42.12265909511285" lon="13.514403832696813"><ele>1096.0</ele><time>2026-05-03T13:55:35Z</time></trkpt><trkpt lat="42.12257592857242" lon="13.514476788809063"><ele>1096.0</ele><time>2026-05-03T13:55:36Z</time></trkpt><trkpt lat="42.122488278494096" lon="13.514546681690925"><ele>1096.0</ele><time>2026-05-03T13:55:37Z</time></trkpt><trkpt lat="42.12238008120447" lon="13.514557461521466"><ele>1096.0</ele><time>2026-05-03T13:55:38Z</time></trkpt><trkpt lat="42.12225790284715" lon="13.514583989183661"><ele>1096.0</ele><time>2026-05-03T13:55:39Z</time></trkpt><trkpt lat="42.12215088300507" lon="13.514603044288046"><ele>1097.75</ele><time>2026-05-03T13:55:40Z</time></trkpt><trkpt lat="42.12203400232704" lon="13.514634657141132"><ele>1099.5</ele><time>2026-05-03T13:55:41Z</time></trkpt><trkpt lat="42.12190909407757" lon="13.514651613104151"><ele>1101.25</ele><time>2026-05-03T13:55:42Z</time></trkpt><trkpt lat="42.12179093835981" lon="13.514695077258805"><ele>1103.0</ele><time>2026-05-03T13:55:43Z</time></trkpt><trkpt lat="42.121680366000255" lon="13.51474625650125"><ele>1103.0</ele><time>2026-05-03T13:55:44Z</time></trkpt><trkpt lat="42.121581493096" lon="13.514799128631127"><ele>1103.0</ele><time>2026-05-03T13:55:45Z</time></trkpt><trkpt lat="42.121490659799484" lon="13.514854527116839"><ele>1103.0</ele><time>2026-05-03T13:55:46Z</time></trkpt><trkpt lat="42.12140106471927" lon="13.514909170442666"><ele>1103.0</ele><time>2026-05-03T13:55:47Z</time></trkpt><trkpt lat="42.12130265466186" lon="13.514968958385976"><ele>1103.0</ele><time>2026-05-03T13:55:48Z</time></trkpt><trkpt lat="42.12121300636505" lon="13.515054321336864"><ele>1103.25</ele><time>2026-05-03T13:55:49Z</time></trkpt><trkpt lat="42.12113313332036" lon="13.515154892153104"><ele>1103.5</ele><time>2026-05-03T13:55:50Z</time></trkpt><trkpt lat="42.12105675464048" lon="13.515261706957535"><ele>1103.75</ele><time>2026-05-03T13:55:50.999Z</time></trkpt><trkpt lat="42.12094602989483" lon="13.515319842680691"><ele>1104.0</ele><time>2026-05-03T13:55:51.999Z</time></trkpt><trkpt lat="42.12082922676513" lon="13.515404214635696"><ele>1098.5</ele><time>2026-05-03T13:55:52.999Z</time></trkpt><trkpt lat="42.12069229122565" lon="13.51550331784165"><ele>1093.0</ele><time>2026-05-03T13:55:53.999Z</time></trkpt><trkpt lat="42.12056390381532" lon="13.515596233405681"><ele>1087.5</ele><time>2026-05-03T13:55:54.999Z</time></trkpt><trkpt lat="42.12045144981502" lon="13.515677944838973"><ele>1082.0</ele><time>2026-05-03T13:55:55.999Z</time></trkpt><trkpt lat="42.12035148214094" lon="13.515752245929214"><ele>1082.0</ele><time>2026-05-03T13:55:56.999Z</time></trkpt><trkpt lat="42.12025080348461" lon="13.51583774871443"><ele>1082.0</ele><time>2026-05-03T13:55:57.999Z</time></trkpt><trkpt lat="42.12015321111952" lon="13.515943479929145"><ele>1082.0</ele><time>2026-05-03T13:55:58.999Z</time></trkpt><trkpt lat="42.120056218337886" lon="13.516058564456385"><ele>1082.0</ele><time>2026-05-03T13:55:59.999Z</time></trkpt><trkpt lat="42.119943491822305" lon="13.516194688037166"><ele>1078.75</ele><time>2026-05-03T13:56:00.999Z</time></trkpt><trkpt lat="42.11984394776744" lon="13.516342806516638"><ele>1075.5</ele><time>2026-05-03T13:56:01.999Z</time></trkpt><trkpt lat="42.11974843849652" lon="13.516448093567002"><ele>1072.25</ele><time>2026-05-03T13:56:02.999Z</time></trkpt><trkpt lat="42.11966392456876" lon="13.516540421933984"><ele>1069.0</ele><time>2026-05-03T13:56:03.999Z</time></trkpt><trkpt lat="42.11959234773767" lon="13.516608934780027"><ele>1069.0</ele><time>2026-05-03T13:56:04.999Z</time></trkpt><trkpt lat="42.11952594388653" lon="13.516673703545479"><ele>1069.0</ele><time>2026-05-03T13:56:05.999Z</time></trkpt><trkpt lat="42.11944558401299" lon="13.5167148196719"><ele>1069.0</ele><time>2026-05-03T13:56:06.999Z</time></trkpt><trkpt lat="42.11938587110454" lon="13.516761679688758"><ele>1069.0</ele><time>2026-05-03T13:56:07.999Z</time></trkpt><trkpt lat="42.11931796271541" lon="13.51690390660008"><ele>1069.0</ele><time>2026-05-03T13:56:09.999Z</time></trkpt><trkpt lat="42.119415671293254" lon="13.517212403506974"><ele>1072.3333333333333</ele><time>2026-05-03T13:56:10.999Z</time></trkpt><trkpt lat="42.11944559399198" lon="13.517445456455658"><ele>1075.6666666666667</ele><time>2026-05-03T13:56:11.999Z</time></trkpt><trkpt lat="42.11946736810018" lon="13.517650028291719"><ele>1079.0</ele><time>2026-05-03T13:56:12.999Z</time></trkpt><trkpt lat="42.119498373267575" lon="13.517835574204714"><ele>1082.5</ele><time>2026-05-03T13:56:13.999Z</time></trkpt><trkpt lat="42.11955249415854" lon="13.517984121681897"><ele>1086.0</ele><time>2026-05-03T13:56:14.999Z</time></trkpt><trkpt lat="42.11957252952122" lon="13.518106627368478"><ele>1089.5</ele><time>2026-05-03T13:56:15.999Z</time></trkpt><trkpt lat="42.11960337348987" lon="13.518194661289717"><ele>1093.0</ele><time>2026-05-03T13:56:16.999Z</time></trkpt><trkpt lat="42.1195461956141" lon="13.518266752215126"><ele>1096.5</ele><time>2026-05-03T13:56:17.999Z</time></trkpt><trkpt lat="42.11949542862882" lon="13.518326223509996"><ele>1100.0</ele><time>2026-05-03T13:56:18.999Z</time></trkpt><trkpt lat="42.11941253027586" lon="13.51831831817387"><ele>1100.0</ele><time>2026-05-03T13:56:19.999Z</time></trkpt><trkpt lat="42.11936187940753" lon="13.518195928605099"><ele>1100.0</ele><time>2026-05-03T13:56:20.999Z</time></trkpt><trkpt lat="42.11927748638575" lon="13.518086475467257"><ele>1100.0</ele><time>2026-05-03T13:56:21.999Z</time></trkpt><trkpt lat="42.119192915715985" lon="13.517957955515486"><ele>1100.0</ele><time>2026-05-03T13:56:22.999Z</time></trkpt><trkpt lat="42.11908464203843" lon="13.517785902947132"><ele>1092.75</ele><time>2026-05-03T13:56:23.999Z</time></trkpt><trkpt lat="42.11898728755902" lon="13.517640835629267"><ele>1085.5</ele><time>2026-05-03T13:56:24.999Z</time></trkpt><trkpt lat="42.118864471021574" lon="13.517562533320017"><ele>1078.25</ele><time>2026-05-03T13:56:25.999Z</time></trkpt><trkpt lat="42.118737582919344" lon="13.51751403058562"><ele>1071.0</ele><time>2026-05-03T13:56:26.999Z</time></trkpt><trkpt lat="42.11859604268445" lon="13.51746793424363"><ele>1071.0</ele><time>2026-05-03T13:56:27.999Z</time></trkpt><trkpt lat="42.11840033580269" lon="13.517527151191615"><ele>1071.0</ele><time>2026-05-03T13:56:28.999Z</time></trkpt><trkpt lat="42.11819519208162" lon="13.517613126977276"><ele>1071.0</ele><time>2026-05-03T13:56:29.999Z</time></trkpt><trkpt lat="42.11798315337423" lon="13.517674746299884"><ele>1066.3333333333333</ele><time>2026-05-03T13:56:30.999Z</time></trkpt><trkpt lat="42.117769860107835" lon="13.51773144215256"><ele>1061.6666666666665</ele><time>2026-05-03T13:56:31.999Z</time></trkpt><trkpt lat="42.11755930264995" lon="13.51779579571737"><ele>1057.0</ele><time>2026-05-03T13:56:32.999Z</time></trkpt><trkpt lat="42.11732698088368" lon="13.517883542439069"><ele>1060.6666666666665</ele><time>2026-05-03T13:56:33.999Z</time></trkpt><trkpt lat="42.117128581859895" lon="13.517975632806776"><ele>1064.3333333333333</ele><time>2026-05-03T13:56:34.999Z</time></trkpt><trkpt lat="42.1169222940636" lon="13.518049750849269"><ele>1068.0</ele><time>2026-05-03T13:56:35.999Z</time></trkpt><trkpt lat="42.11671144026639" lon="13.51811328087267"><ele>1065.6666666666667</ele><time>2026-05-03T13:56:36.999Z</time></trkpt><trkpt lat="42.11651001939834" lon="13.518169900969905"><ele>1063.3333333333335</ele><time>2026-05-03T13:56:37.999Z</time></trkpt><trkpt lat="42.11630569234725" lon="13.51821878302008"><ele>1061.0</ele><time>2026-05-03T13:56:38.999Z</time></trkpt><trkpt lat="42.1161156626705" lon="13.518268573527841"><ele>1061.0</ele><time>2026-05-03T13:56:39.999Z</time></trkpt><trkpt lat="42.11591807111216" lon="13.518320332969086"><ele>1061.0</ele><time>2026-05-03T13:56:40.999Z</time></trkpt><trkpt lat="42.115714257565784" lon="13.518401753439448"><ele>1061.0</ele><time>2026-05-03T13:56:41.999Z</time></trkpt><trkpt lat="42.11550374354166" lon="13.518522039431588"><ele>1062.5</ele><time>2026-05-03T13:56:42.999Z</time></trkpt><trkpt lat="42.115287666305726" lon="13.518653061884674"><ele>1064.0</ele><time>2026-05-03T13:56:43.999Z</time></trkpt><trkpt lat="42.115076836591854" lon="13.518787360559909"><ele>1058.6666666666667</ele><time>2026-05-03T13:56:44.999Z</time></trkpt><trkpt lat="42.114878686283866" lon="13.518919071913784"><ele>1053.3333333333333</ele><time>2026-05-03T13:56:45.999Z</time></trkpt><trkpt lat="42.11467632579164" lon="13.51904040864898"><ele>1048.0</ele><time>2026-05-03T13:56:46.999Z</time></trkpt><trkpt lat="42.11447669838944" lon="13.519167424540601"><ele>1048.0</ele><time>2026-05-03T13:56:47.999Z</time></trkpt><trkpt lat="42.11427654730414" lon="13.519285676916564"><ele>1048.0</ele><time>2026-05-03T13:56:48.999Z</time></trkpt><trkpt lat="42.11407652978349" lon="13.519413117618999"><ele>1048.0</ele><time>2026-05-03T13:56:49.999Z</time></trkpt><trkpt lat="42.11387620335292" lon="13.519554321883295"><ele>1047.3333333333333</ele><time>2026-05-03T13:56:50.999Z</time></trkpt><trkpt lat="42.113684699650456" lon="13.519713970478733"><ele>1046.6666666666667</ele><time>2026-05-03T13:56:51.999Z</time></trkpt><trkpt lat="42.11350608583545" lon="13.519866293665293"><ele>1046.0</ele><time>2026-05-03T13:56:52.999Z</time></trkpt><trkpt lat="42.11333307580795" lon="13.520015898608758"><ele>1042.3333333333335</ele><time>2026-05-03T13:56:53.999Z</time></trkpt><trkpt lat="42.11315564159549" lon="13.520155958921332"><ele>1038.6666666666667</ele><time>2026-05-03T13:56:54.999Z</time></trkpt><trkpt lat="42.11297544112441" lon="13.520287518077495"><ele>1035.0</ele><time>2026-05-03T13:56:55.999Z</time></trkpt><trkpt lat="42.11277886694788" lon="13.520387246129653"><ele>1038.3333333333333</ele><time>2026-05-03T13:56:56.999Z</time></trkpt><trkpt lat="42.11256881239708" lon="13.520430848469292"><ele>1041.6666666666665</ele><time>2026-05-03T13:56:57.999Z</time></trkpt><trkpt lat="42.11235582940395" lon="13.520450812281116"><ele>1045.0</ele><time>2026-05-03T13:56:59Z</time></trkpt><trkpt lat="42.112127517431" lon="13.520440689448549"><ele>1045.0</ele><time>2026-05-03T13:57:00Z</time></trkpt><trkpt lat="42.11191212037573" lon="13.520444267479935"><ele>1045.0</ele><time>2026-05-03T13:57:01Z</time></trkpt><trkpt lat="42.11170318600203" lon="13.520408186110576"><ele>1045.0</ele><time>2026-05-03T13:57:02Z</time></trkpt><trkpt lat="42.111499639935865" lon="13.5204026808707"><ele>1040.6666666666665</ele><time>2026-05-03T13:57:03Z</time></trkpt><trkpt lat="42.11130445823391" lon="13.520439246802402"><ele>1036.3333333333333</ele><time>2026-05-03T13:57:04Z</time></trkpt><trkpt lat="42.11110958267148" lon="13.520525184014776"><ele>1032.0</ele><time>2026-05-03T13:57:05Z</time></trkpt><trkpt lat="42.11092297160725" lon="13.520660237544238"><ele>1028.6666666666667</ele><time>2026-05-03T13:57:06Z</time></trkpt><trkpt lat="42.110735478750385" lon="13.520824669829613"><ele>1025.3333333333335</ele><time>2026-05-03T13:57:07Z</time></trkpt><trkpt lat="42.11055277881016" lon="13.520982498243882"><ele>1022.0</ele><time>2026-05-03T13:57:08Z</time></trkpt><trkpt lat="42.110374075292846" lon="13.521120087371623"><ele>1023.0</ele><time>2026-05-03T13:57:09Z</time></trkpt><trkpt lat="42.1101993670229" lon="13.521249284700653"><ele>1024.0</ele><time>2026-05-03T13:57:10Z</time></trkpt><trkpt lat="42.110014803296444" lon="13.521360594693073"><ele>1025.0</ele><time>2026-05-03T13:57:11Z</time></trkpt><trkpt lat="42.10981225729628" lon="13.521402752756531"><ele>1025.0</ele><time>2026-05-03T13:57:12Z</time></trkpt><trkpt lat="42.109603865257725" lon="13.521442201282387"><ele>1025.0</ele><time>2026-05-03T13:57:13Z</time></trkpt><trkpt lat="42.10940895155521" lon="13.521492833370003"><ele>1025.0</ele><time>2026-05-03T13:57:14Z</time></trkpt><trkpt lat="42.10922230923638" lon="13.521520848091871"><ele>1021.6666666666667</ele><time>2026-05-03T13:57:15Z</time></trkpt><trkpt lat="42.10905134346206" lon="13.521560084903845"><ele>1018.3333333333333</ele><time>2026-05-03T13:57:16Z</time></trkpt><trkpt lat="42.10887324777093" lon="13.52164035083202"><ele>1015.0</ele><time>2026-05-03T13:57:17Z</time></trkpt><trkpt lat="42.10869160935048" lon="13.52175317655837"><ele>1015.0</ele><time>2026-05-03T13:57:18Z</time></trkpt><trkpt lat="42.10852525531904" lon="13.521875700844083"><ele>1015.0</ele><time>2026-05-03T13:57:19Z</time></trkpt><trkpt lat="42.108368937948576" lon="13.522030751951005"><ele>1015.0</ele><time>2026-05-03T13:57:20Z</time></trkpt><trkpt lat="42.10820584255097" lon="13.5221577902772"><ele>1014.3333333333333</ele><time>2026-05-03T13:57:21Z</time></trkpt><trkpt lat="42.108049447495425" lon="13.522275382704056"><ele>1013.6666666666667</ele><time>2026-05-03T13:57:22Z</time></trkpt><trkpt lat="42.1079152760445" lon="13.522388124336409"><ele>1013.0</ele><time>2026-05-03T13:57:23Z</time></trkpt><trkpt lat="42.10777504087591" lon="13.522499004448926"><ele>1013.0</ele><time>2026-05-03T13:57:24Z</time></trkpt><trkpt lat="42.10765144439582" lon="13.522599753998422"><ele>1013.0</ele><time>2026-05-03T13:57:25Z</time></trkpt><trkpt lat="42.10751785864499" lon="13.522708889965834"><ele>1013.0</ele><time>2026-05-03T13:57:26Z</time></trkpt><trkpt lat="42.107364533103386" lon="13.522837769838613"><ele>1010.0</ele><time>2026-05-03T13:57:27Z</time></trkpt><trkpt lat="42.10720342161481" lon="13.52297006551657"><ele>1007.0</ele><time>2026-05-03T13:57:28Z</time></trkpt><trkpt lat="42.107048637566635" lon="13.523090096727145"><ele>1004.0</ele><time>2026-05-03T13:57:29Z</time></trkpt><trkpt lat="42.10688307838616" lon="13.523217181942826"><ele>1004.0</ele><time>2026-05-03T13:57:30Z</time></trkpt><trkpt lat="42.10672460827245" lon="13.523368351036654"><ele>1004.0</ele><time>2026-05-03T13:57:31Z</time></trkpt><trkpt lat="42.10657883062983" lon="13.523550525009147"><ele>1004.0</ele><time>2026-05-03T13:57:32Z</time></trkpt><trkpt lat="42.10644606668871" lon="13.523757322617717"><ele>998.6666666666667</ele><time>2026-05-03T13:57:33Z</time></trkpt><trkpt lat="42.106338773222845" lon="13.523957802818758"><ele>993.3333333333333</ele><time>2026-05-03T13:57:34Z</time></trkpt><trkpt lat="42.10623897636005" lon="13.52416538891152"><ele>988.0</ele><time>2026-05-03T13:57:35Z</time></trkpt><trkpt lat="42.1061282779347" lon="13.524327484363202"><ele>988.0</ele><time>2026-05-03T13:57:36Z</time></trkpt><trkpt lat="42.10603745163631" lon="13.524488358815532"><ele>988.0</ele><time>2026-05-03T13:57:37Z</time></trkpt><trkpt lat="42.10593637606805" lon="13.524610705146738"><ele>988.0</ele><time>2026-05-03T13:57:38Z</time></trkpt><trkpt lat="42.10581672299886" lon="13.524665549152026"><ele>988.0</ele><time>2026-05-03T13:57:39Z</time></trkpt><trkpt lat="42.10570938768874" lon="13.524710845593093"><ele>986.75</ele><time>2026-05-03T13:57:40Z</time></trkpt><trkpt lat="42.105619838542616" lon="13.524805690886053"><ele>985.5</ele><time>2026-05-03T13:57:41Z</time></trkpt><trkpt lat="42.10557883430264" lon="13.524951552287046"><ele>984.25</ele><time>2026-05-03T13:57:42Z</time></trkpt><trkpt lat="42.10558334114011" lon="13.525135267368462"><ele>983.0</ele><time>2026-05-03T13:57:43Z</time></trkpt><trkpt lat="42.105606358808664" lon="13.525335765878324"><ele>988.0</ele><time>2026-05-03T13:57:44Z</time></trkpt><trkpt lat="42.1056158755003" lon="13.525513811248215"><ele>993.0</ele><time>2026-05-03T13:57:44.999Z</time></trkpt><trkpt lat="42.105600964503" lon="13.525663568886579"><ele>998.0</ele><time>2026-05-03T13:57:45.999Z</time></trkpt><trkpt lat="42.10553855860053" lon="13.525789246322681"><ele>1003.0</ele><time>2026-05-03T13:57:46.999Z</time></trkpt><trkpt lat="42.10544422016626" lon="13.525876565808352"><ele>1003.0</ele><time>2026-05-03T13:57:47.999Z</time></trkpt><trkpt lat="42.10532207284452" lon="13.525898153165818"><ele>1003.0</ele><time>2026-05-03T13:57:48.999Z</time></trkpt><trkpt lat="42.1051968450609" lon="13.525865730728562"><ele>1003.0</ele><time>2026-05-03T13:57:49.999Z</time></trkpt><trkpt lat="42.10507962245117" lon="13.525763409360549"><ele>1003.0</ele><time>2026-05-03T13:57:50.999Z</time></trkpt><trkpt lat="42.104973734124414" lon="13.525619040137448"><ele>1003.0</ele><time>2026-05-03T13:57:51.999Z</time></trkpt><trkpt lat="42.10487050414904" lon="13.525453060551738"><ele>1003.0</ele><time>2026-05-03T13:57:52.999Z</time></trkpt><trkpt lat="42.10476846659043" lon="13.525297163473553"><ele>1003.0</ele><time>2026-05-03T13:57:53.999Z</time></trkpt><trkpt lat="42.10464326389627" lon="13.525187414058681"><ele>996.0</ele><time>2026-05-03T13:57:54.999Z</time></trkpt><trkpt lat="42.10450899550809" lon="13.525127087726842"><ele>989.0</ele><time>2026-05-03T13:57:55.999Z</time></trkpt><trkpt lat="42.104337997679174" lon="13.525144952268127"><ele>982.0</ele><time>2026-05-03T13:57:56.999Z</time></trkpt><trkpt lat="42.104158426447995" lon="13.52519411153833"><ele>983.0</ele><time>2026-05-03T13:57:57.999Z</time></trkpt><trkpt lat="42.10398684482662" lon="13.525222015555256"><ele>984.0</ele><time>2026-05-03T13:57:58.999Z</time></trkpt><trkpt lat="42.103816290243415" lon="13.5252094810474"><ele>985.0</ele><time>2026-05-03T13:57:59.999Z</time></trkpt><trkpt lat="42.10364989427288" lon="13.525165202025569"><ele>985.0</ele><time>2026-05-03T13:58:00.999Z</time></trkpt><trkpt lat="42.10348617867471" lon="13.525093885936137"><ele>985.0</ele><time>2026-05-03T13:58:01.999Z</time></trkpt><trkpt lat="42.10333388932121" lon="13.524991825436095"><ele>985.0</ele><time>2026-05-03T13:58:02.999Z</time></trkpt><trkpt lat="42.10319073202696" lon="13.524869780994225"><ele>987.6666666666666</ele><time>2026-05-03T13:58:03.999Z</time></trkpt><trkpt lat="42.10306047584611" lon="13.524735046415717"><ele>990.3333333333333</ele><time>2026-05-03T13:58:04.999Z</time></trkpt><trkpt lat="42.1029399327772" lon="13.524596615737767"><ele>993.0</ele><time>2026-05-03T13:58:05.999Z</time></trkpt><trkpt lat="42.10282601942667" lon="13.524478503987792"><ele>985.3333333333333</ele><time>2026-05-03T13:58:06.999Z</time></trkpt><trkpt lat="42.10269752387832" lon="13.524374799409657"><ele>977.6666666666666</ele><time>2026-05-03T13:58:07.999Z</time></trkpt><trkpt lat="42.102554619677306" lon="13.524305080994683"><ele>970.0</ele><time>2026-05-03T13:58:08.999Z</time></trkpt><trkpt lat="42.10238848563779" lon="13.524280984561615"><ele>968.5</ele><time>2026-05-03T13:58:09.999Z</time></trkpt><trkpt lat="42.102218142174706" lon="13.524277755108177"><ele>967.0</ele><time>2026-05-03T13:58:10.999Z</time></trkpt><trkpt lat="42.10207768925216" lon="13.524272681826101"><ele>965.5</ele><time>2026-05-03T13:58:11.999Z</time></trkpt><trkpt lat="42.10194985538204" lon="13.524279241883756"><ele>964.0</ele><time>2026-05-03T13:58:12.999Z</time></trkpt><trkpt lat="42.101789760263735" lon="13.524235977582514"><ele>964.0</ele><time>2026-05-03T13:58:13.999Z</time></trkpt><trkpt lat="42.1017077398844" lon="13.524270795523133"><ele>964.0</ele><time>2026-05-03T13:58:14.999Z</time></trkpt><trkpt lat="42.10156538098206" lon="13.524324811669594"><ele>964.0</ele><time>2026-05-03T13:58:15.999Z</time></trkpt><trkpt lat="42.101437306789656" lon="13.524415492178395"><ele>964.0</ele><time>2026-05-03T13:58:16.999Z</time></trkpt><trkpt lat="42.101313687420145" lon="13.524504519007046"><ele>965.5</ele><time>2026-05-03T13:58:17.999Z</time></trkpt><trkpt lat="42.10118951745553" lon="13.524570207108116"><ele>967.0</ele><time>2026-05-03T13:58:18.999Z</time></trkpt><trkpt lat="42.10106329209595" lon="13.524609569636517"><ele>968.5</ele><time>2026-05-03T13:58:19.999Z</time></trkpt><trkpt lat="42.100945045574335" lon="13.524638179541355"><ele>970.0</ele><time>2026-05-03T13:58:20.999Z</time></trkpt><trkpt lat="42.10082397129848" lon="13.52465712737093"><ele>968.0</ele><time>2026-05-03T13:58:21.999Z</time></trkpt><trkpt lat="42.10071155347211" lon="13.52466452795827"><ele>966.0</ele><time>2026-05-03T13:58:22.999Z</time></trkpt><trkpt lat="42.100611032462375" lon="13.52466651056047"><ele>964.0</ele><time>2026-05-03T13:58:23.999Z</time></trkpt><trkpt lat="42.10051414571036" lon="13.52467722567639"><ele>962.0</ele><time>2026-05-03T13:58:24.999Z</time></trkpt><trkpt lat="42.100408869867145" lon="13.524703207808773"><ele>960.0</ele><time>2026-05-03T13:58:25.999Z</time></trkpt><trkpt lat="42.10031178340527" lon="13.524768848915713"><ele>960.0</ele><time>2026-05-03T13:58:26.999Z</time></trkpt><trkpt lat="42.10023844643577" lon="13.52486515831581"><ele>960.0</ele><time>2026-05-03T13:58:27.999Z</time></trkpt><trkpt lat="42.100171068607345" lon="13.52496671604457"><ele>960.0</ele><time>2026-05-03T13:58:28.999Z</time></trkpt><trkpt lat="42.10011866086687" lon="13.525074697765179"><ele>960.0</ele><time>2026-05-03T13:58:29.999Z</time></trkpt><trkpt lat="42.10006559721163" lon="13.525177333693609"><ele>960.0</ele><time>2026-05-03T13:58:30.999Z</time></trkpt><trkpt lat="42.10001717401279" lon="13.525276700488554"><ele>960.0</ele><time>2026-05-03T13:58:31.999Z</time></trkpt><trkpt lat="42.09995290869689" lon="13.525342511811093"><ele>960.0</ele><time>2026-05-03T13:58:32.999Z</time></trkpt><trkpt lat="42.09990612521312" lon="13.52543067840328"><ele>960.0</ele><time>2026-05-03T13:58:33.999Z</time></trkpt><trkpt lat="42.099864250432915" lon="13.525540245375723"><ele>960.0</ele><time>2026-05-03T13:58:34.999Z</time></trkpt><trkpt lat="42.09981560079335" lon="13.52565560459541"><ele>960.0</ele><time>2026-05-03T13:58:35.999Z</time></trkpt><trkpt lat="42.09976903561526" lon="13.525764932848531"><ele>960.0</ele><time>2026-05-03T13:58:36.999Z</time></trkpt><trkpt lat="42.09975960306075" lon="13.525874054922308"><ele>955.6</ele><time>2026-05-03T13:58:37.999Z</time></trkpt><trkpt lat="42.09973359907378" lon="13.526024558623929"><ele>951.2</ele><time>2026-05-03T13:58:38.999Z</time></trkpt><trkpt lat="42.09974604468521" lon="13.526177479862328"><ele>946.8</ele><time>2026-05-03T13:58:39.999Z</time></trkpt><trkpt lat="42.099736810833576" lon="13.526317568527483"><ele>942.4</ele><time>2026-05-03T13:58:40.999Z</time></trkpt><trkpt lat="42.09974667568408" lon="13.526439046130536"><ele>938.0</ele><time>2026-05-03T13:58:41.999Z</time></trkpt><trkpt lat="42.09976925995386" lon="13.526551022661971"><ele>937.5999999999999</ele><time>2026-05-03T13:58:42.999Z</time></trkpt><trkpt lat="42.099782847228695" lon="13.52666596169969"><ele>937.1999999999999</ele><time>2026-05-03T13:58:43.999Z</time></trkpt><trkpt lat="42.09979796021357" lon="13.526790026945138"><ele>936.8</ele><time>2026-05-03T13:58:44.999Z</time></trkpt><trkpt lat="42.099810478011086" lon="13.526918842376107"><ele>936.4</ele><time>2026-05-03T13:58:45.999Z</time></trkpt><trkpt lat="42.099806901222706" lon="13.527042295412098"><ele>936.0</ele><time>2026-05-03T13:58:46.999Z</time></trkpt><trkpt lat="42.09977313499" lon="13.527171370246846"><ele>937.0</ele><time>2026-05-03T13:58:47.999Z</time></trkpt><trkpt lat="42.09971818406163" lon="13.52728757521277"><ele>938.0</ele><time>2026-05-03T13:58:48.999Z</time></trkpt><trkpt lat="42.099663427322305" lon="13.527412260447122"><ele>939.0</ele><time>2026-05-03T13:58:49.999Z</time></trkpt><trkpt lat="42.099596838631626" lon="13.52754718123145"><ele>940.0</ele><time>2026-05-03T13:58:50.999Z</time></trkpt><trkpt lat="42.0994989537062" lon="13.527680943596838"><ele>940.0</ele><time>2026-05-03T13:58:51.999Z</time></trkpt><trkpt lat="42.09940804605385" lon="13.527797036065975"><ele>940.0</ele><time>2026-05-03T13:58:52.999Z</time></trkpt><trkpt lat="42.099338795248485" lon="13.52786231845185"><ele>940.0</ele><time>2026-05-03T13:58:53.999Z</time></trkpt><trkpt lat="42.09926925135944" lon="13.52793171426044"><ele>940.0</ele><time>2026-05-03T13:58:54.999Z</time></trkpt><trkpt lat="42.09920500703564" lon="13.528013216952504"><ele>940.0</ele><time>2026-05-03T13:58:55.999Z</time></trkpt><trkpt lat="42.09913753640913" lon="13.528082351850134"><ele>936.4</ele><time>2026-05-03T13:58:56.999Z</time></trkpt><trkpt lat="42.09906305334871" lon="13.528173224351885"><ele>932.8</ele><time>2026-05-03T13:58:57.999Z</time></trkpt><trkpt lat="42.09901177345773" lon="13.52827089064338"><ele>929.2</ele><time>2026-05-03T13:58:58.999Z</time></trkpt><trkpt lat="42.09896044278377" lon="13.528371191556571"><ele>925.6</ele><time>2026-05-03T13:58:59.999Z</time></trkpt><trkpt lat="42.098916121408166" lon="13.52847457564163"><ele>922.0</ele><time>2026-05-03T13:59:00.999Z</time></trkpt><trkpt lat="42.098897704916176" lon="13.528587639838516"><ele>922.0</ele><time>2026-05-03T13:59:01.999Z</time></trkpt><trkpt lat="42.098899687013144" lon="13.52869300673707"><ele>922.0</ele><time>2026-05-03T13:59:02.999Z</time></trkpt><trkpt lat="42.098900114964096" lon="13.528816689041845"><ele>922.0</ele><time>2026-05-03T13:59:03.999Z</time></trkpt><trkpt lat="42.09895469555722" lon="13.528976752594774"><ele>922.0</ele><time>2026-05-03T13:59:04.999Z</time></trkpt><trkpt lat="42.099029386536415" lon="13.529147620888512"><ele>922.0</ele><time>2026-05-03T13:59:05.999Z</time></trkpt><trkpt lat="42.09910557004679" lon="13.529314866540213"><ele>925.75</ele><time>2026-05-03T13:59:06.999Z</time></trkpt><trkpt lat="42.0991910992078" lon="13.529466586254856"><ele>929.5</ele><time>2026-05-03T13:59:07.999Z</time></trkpt><trkpt lat="42.09924152149403" lon="13.529636456962184"><ele>933.25</ele><time>2026-05-03T13:59:08.999Z</time></trkpt><trkpt lat="42.09927424458968" lon="13.529819648332495"><ele>937.0</ele><time>2026-05-03T13:59:09.999Z</time></trkpt><trkpt lat="42.099285078040026" lon="13.530011745153983"><ele>937.0</ele><time>2026-05-03T13:59:10.999Z</time></trkpt><trkpt lat="42.09927510069928" lon="13.530199172784357"><ele>937.0</ele><time>2026-05-03T13:59:11.999Z</time></trkpt><trkpt lat="42.09923418718316" lon="13.53038539642393"><ele>937.0</ele><time>2026-05-03T13:59:12.999Z</time></trkpt><trkpt lat="42.09916821986109" lon="13.53057410428357"><ele>937.0</ele><time>2026-05-03T13:59:13.999Z</time></trkpt><trkpt lat="42.099091714454325" lon="13.530773726062137"><ele>933.3333333333333</ele><time>2026-05-03T13:59:14.999Z</time></trkpt><trkpt lat="42.09897243020447" lon="13.530995019062033"><ele>929.6666666666667</ele><time>2026-05-03T13:59:15.999Z</time></trkpt><trkpt lat="42.09886224551219" lon="13.53122779977417"><ele>926.0</ele><time>2026-05-03T13:59:16.999Z</time></trkpt><trkpt lat="42.0987264449443" lon="13.531459203308302"><ele>926.0</ele><time>2026-05-03T13:59:17.999Z</time></trkpt><trkpt lat="42.09858908376815" lon="13.531669900840047"><ele>926.0</ele><time>2026-05-03T13:59:18.999Z</time></trkpt><trkpt lat="42.09846300160702" lon="13.531891766122026"><ele>926.0</ele><time>2026-05-03T13:59:19.999Z</time></trkpt><trkpt lat="42.09835479418462" lon="13.532101407630796"><ele>919.0</ele><time>2026-05-03T13:59:20.999Z</time></trkpt><trkpt lat="42.098234424652404" lon="13.532304636532249"><ele>912.0</ele><time>2026-05-03T13:59:21.999Z</time></trkpt><trkpt lat="42.09809607777782" lon="13.532505660235081"><ele>905.0</ele><time>2026-05-03T13:59:22.999Z</time></trkpt><trkpt lat="42.097951406147445" lon="13.532701198138925"><ele>905.0</ele><time>2026-05-03T13:59:23.999Z</time></trkpt><trkpt lat="42.097771519862505" lon="13.53288814869383"><ele>905.0</ele><time>2026-05-03T13:59:24.999Z</time></trkpt><trkpt lat="42.097570310655996" lon="13.53308600075686"><ele>901.0</ele><time>2026-05-03T13:59:25.999Z</time></trkpt><trkpt lat="42.097360854573765" lon="13.533291528186831"><ele>897.0</ele><time>2026-05-03T13:59:26.999Z</time></trkpt><trkpt lat="42.09716834688775" lon="13.533492631431018"><ele>897.0</ele><time>2026-05-03T13:59:27.999Z</time></trkpt><trkpt lat="42.09697864098444" lon="13.533685335778456"><ele>897.0</ele><time>2026-05-03T13:59:28.999Z</time></trkpt><trkpt lat="42.09678647696695" lon="13.53387133646641"><ele>896.5</ele><time>2026-05-03T13:59:29.999Z</time></trkpt><trkpt lat="42.096602072366885" lon="13.534056534448487"><ele>896.0</ele><time>2026-05-03T13:59:30.999Z</time></trkpt><trkpt lat="42.09642502997877" lon="13.53425156312616"><ele>896.0</ele><time>2026-05-03T13:59:31.999Z</time></trkpt><trkpt lat="42.096249206321744" lon="13.534432680875911"><ele>896.0</ele><time>2026-05-03T13:59:32.999Z</time></trkpt><trkpt lat="42.09607815733941" lon="13.534615630359902"><ele>896.0</ele><time>2026-05-03T13:59:33.999Z</time></trkpt><trkpt lat="42.09589473458273" lon="13.534795407877539"><ele>892.3333333333334</ele><time>2026-05-03T13:59:34.999Z</time></trkpt><trkpt lat="42.09571616921999" lon="13.534970647306915"><ele>888.6666666666667</ele><time>2026-05-03T13:59:35.999Z</time></trkpt><trkpt lat="42.095547956630426" lon="13.535138489676829"><ele>885.0</ele><time>2026-05-03T13:59:36.999Z</time></trkpt><trkpt lat="42.09537619549185" lon="13.535300543772806"><ele>883.6666666666667</ele><time>2026-05-03T13:59:37.999Z</time></trkpt><trkpt lat="42.09520434076954" lon="13.535453680050667"><ele>882.3333333333334</ele><time>2026-05-03T13:59:38.999Z</time></trkpt><trkpt lat="42.095028681784655" lon="13.535587020867155"><ele>881.0</ele><time>2026-05-03T13:59:39.999Z</time></trkpt><trkpt lat="42.094851685292575" lon="13.535710714419665"><ele>881.0</ele><time>2026-05-03T13:59:40.999Z</time></trkpt><trkpt lat="42.09468857495825" lon="13.53583012646326"><ele>881.0</ele><time>2026-05-03T13:59:41.999Z</time></trkpt><trkpt lat="42.0945350290726" lon="13.536001565799408"><ele>881.0</ele><time>2026-05-03T13:59:42.999Z</time></trkpt><trkpt lat="42.094397250428706" lon="13.536197883241767"><ele>880.3333333333334</ele><time>2026-05-03T13:59:43.999Z</time></trkpt><trkpt lat="42.09428386927685" lon="13.536377289420525"><ele>879.6666666666667</ele><time>2026-05-03T13:59:44.999Z</time></trkpt><trkpt lat="42.094188944427266" lon="13.536519269098015"><ele>879.0</ele><time>2026-05-03T13:59:45.999Z</time></trkpt><trkpt lat="42.09407619626013" lon="13.536649253258641"><ele>879.0</ele><time>2026-05-03T13:59:46.999Z</time></trkpt><trkpt lat="42.09392769388534" lon="13.536712582209825"><ele>879.0</ele><time>2026-05-03T13:59:47.999Z</time></trkpt><trkpt lat="42.09376217505967" lon="13.536758884276125"><ele>879.0</ele><time>2026-05-03T13:59:48.999Z</time></trkpt><trkpt lat="42.09357502168605" lon="13.536788627107642"><ele>879.0</ele><time>2026-05-03T13:59:49.999Z</time></trkpt><trkpt lat="42.09339184670884" lon="13.536836099704"><ele>879.0</ele><time>2026-05-03T13:59:50.999Z</time></trkpt><trkpt lat="42.093200092096936" lon="13.536925981422614"><ele>879.0</ele><time>2026-05-03T13:59:51.999Z</time></trkpt><trkpt lat="42.09302186841165" lon="13.537041221023676"><ele>878.3333333333333</ele><time>2026-05-03T13:59:52.999Z</time></trkpt><trkpt lat="42.09285167899812" lon="13.537173698598965"><ele>877.6666666666666</ele><time>2026-05-03T13:59:53.999Z</time></trkpt><trkpt lat="42.09267981961044" lon="13.537318968200248"><ele>877.0</ele><time>2026-05-03T13:59:54.999Z</time></trkpt><trkpt lat="42.092519587598" lon="13.537494623220741"><ele>874.3333333333333</ele><time>2026-05-03T13:59:55.999Z</time></trkpt><trkpt lat="42.092362035991734" lon="13.537660077427937"><ele>871.6666666666667</ele><time>2026-05-03T13:59:56.999Z</time></trkpt><trkpt lat="42.092216975170736" lon="13.537828788423615"><ele>869.0</ele><time>2026-05-03T13:59:57.999Z</time></trkpt><trkpt lat="42.09207530799402" lon="13.537978482818941"><ele>869.0</ele><time>2026-05-03T13:59:58.999Z</time></trkpt><trkpt lat="42.09193103510083" lon="13.53812428893461"><ele>869.0</ele><time>2026-05-03T13:59:59.999Z</time></trkpt><trkpt lat="42.091793038425074" lon="13.538291097052658"><ele>869.0</ele><time>2026-05-03T14:00:00.999Z</time></trkpt><trkpt lat="42.09166555857256" lon="13.538477419427743"><ele>863.6666666666667</ele><time>2026-05-03T14:00:01.999Z</time></trkpt><trkpt lat="42.09154511539241" lon="13.538684507926144"><ele>858.3333333333333</ele><time>2026-05-03T14:00:02.999Z</time></trkpt><trkpt lat="42.091436797566885" lon="13.538922060819596"><ele>853.0</ele><time>2026-05-03T14:00:03.999Z</time></trkpt><trkpt lat="42.09132223958807" lon="13.539146122242371"><ele>853.0</ele><time>2026-05-03T14:00:04.999Z</time></trkpt><trkpt lat="42.09123671255376" lon="13.539367843000198"><ele>853.0</ele><time>2026-05-03T14:00:05.999Z</time></trkpt><trkpt lat="42.09114038333944" lon="13.539560341799046"><ele>853.0</ele><time>2026-05-03T14:00:06.999Z</time></trkpt><trkpt lat="42.091019184355396" lon="13.5397052540096"><ele>856.0</ele><time>2026-05-03T14:00:07.999Z</time></trkpt><trkpt lat="42.09089897561434" lon="13.539844117980994"><ele>859.0</ele><time>2026-05-03T14:00:08.999Z</time></trkpt><trkpt lat="42.09079068583403" lon="13.540010057645505"><ele>862.0</ele><time>2026-05-03T14:00:09.999Z</time></trkpt><trkpt lat="42.090696655994705" lon="13.540215853872251"><ele>855.6666666666666</ele><time>2026-05-03T14:00:10.999Z</time></trkpt><trkpt lat="42.09062775624981" lon="13.540460848457966"><ele>849.3333333333333</ele><time>2026-05-03T14:00:11.999Z</time></trkpt><trkpt lat="42.09057536955338" lon="13.540686524605581"><ele>843.0</ele><time>2026-05-03T14:00:12.999Z</time></trkpt><trkpt lat="42.090468545895845" lon="13.540887119580058"><ele>843.0</ele><time>2026-05-03T14:00:13.999Z</time></trkpt><trkpt lat="42.09034091516149" lon="13.541086293452768"><ele>843.0</ele><time>2026-05-03T14:00:14.999Z</time></trkpt><trkpt lat="42.09019801195094" lon="13.541285324497021"><ele>843.0</ele><time>2026-05-03T14:00:15.999Z</time></trkpt><trkpt lat="42.09005687751032" lon="13.54149059357491"><ele>845.6666666666667</ele><time>2026-05-03T14:00:16.999Z</time></trkpt><trkpt lat="42.089919729334824" lon="13.54168626080497"><ele>848.3333333333334</ele><time>2026-05-03T14:00:17.999Z</time></trkpt><trkpt lat="42.08977767170824" lon="13.541877255825856"><ele>851.0</ele><time>2026-05-03T14:00:18.999Z</time></trkpt><trkpt lat="42.08963050925154" lon="13.542052946947475"><ele>851.0</ele><time>2026-05-03T14:00:19.999Z</time></trkpt><trkpt lat="42.089482174836895" lon="13.542210917646813"><ele>851.0</ele><time>2026-05-03T14:00:20.999Z</time></trkpt><trkpt lat="42.08933323866874" lon="13.542342317706401"><ele>851.0</ele><time>2026-05-03T14:00:21.999Z</time></trkpt><trkpt lat="42.089204184113854" lon="13.542461555048115"><ele>838.3333333333334</ele><time>2026-05-03T14:00:22.999Z</time></trkpt><trkpt lat="42.08908324884578" lon="13.542568796810125"><ele>825.6666666666667</ele><time>2026-05-03T14:00:23.999Z</time></trkpt><trkpt lat="42.08897382922047" lon="13.54269650351773"><ele>813.0</ele><time>2026-05-03T14:00:24.999Z</time></trkpt><trkpt lat="42.08886790977249" lon="13.542859408613152"><ele>820.0</ele><time>2026-05-03T14:00:25.999Z</time></trkpt><trkpt lat="42.08879196184666" lon="13.543036867431972"><ele>827.0</ele><time>2026-05-03T14:00:26.999Z</time></trkpt><trkpt lat="42.08873043496682" lon="13.543219249084078"><ele>834.0</ele><time>2026-05-03T14:00:27.999Z</time></trkpt><trkpt lat="42.08865222967308" lon="13.54335008599431"><ele>841.0</ele><time>2026-05-03T14:00:28.999Z</time></trkpt><trkpt lat="42.088551171664214" lon="13.543463385987494"><ele>841.0</ele><time>2026-05-03T14:00:29.999Z</time></trkpt><trkpt lat="42.08842834354282" lon="13.543536945689032"><ele>841.0</ele><time>2026-05-03T14:00:30.999Z</time></trkpt><trkpt lat="42.08831159739319" lon="13.543592045968506"><ele>841.0</ele><time>2026-05-03T14:00:31.999Z</time></trkpt><trkpt lat="42.08819273696391" lon="13.543650598330467"><ele>841.0</ele><time>2026-05-03T14:00:32.999Z</time></trkpt><trkpt lat="42.08808764331142" lon="13.543709104113898"><ele>839.9999999999999</ele><time>2026-05-03T14:00:33.999Z</time></trkpt><trkpt lat="42.08800194034923" lon="13.543770699976283"><ele>839.0</ele><time>2026-05-03T14:00:34.999Z</time></trkpt><trkpt lat="42.08793359313673" lon="13.54382980552476"><ele>838.0</ele><time>2026-05-03T14:00:35.999Z</time></trkpt><trkpt lat="42.08787298671044" lon="13.54389332431814"><ele>837.0</ele><time>2026-05-03T14:00:36.999Z</time></trkpt><trkpt lat="42.0878248221961" lon="13.543957843792537"><ele>835.9999999999999</ele><time>2026-05-03T14:00:37.999Z</time></trkpt><trkpt lat="42.08775704402447" lon="13.544053021365855"><ele>835.0</ele><time>2026-05-03T14:00:39.999Z</time></trkpt><trkpt lat="42.08769537461971" lon="13.544115435988223"><ele>835.0</ele><time>2026-05-03T14:00:41.999Z</time></trkpt><trkpt lat="42.08761925865626" lon="13.544168388221388"><ele>835.0</ele><time>2026-05-03T14:01:55.999Z</time></trkpt><trkpt lat="42.08769719053779" lon="13.544158944779344"><ele>835.0</ele><time>2026-05-03T14:02:09.999Z</time></trkpt><trkpt lat="42.08783956900486" lon="13.543997264009722"><ele>835.0</ele><time>2026-05-03T14:02:11.999Z</time></trkpt><trkpt lat="42.08791759706574" lon="13.543911783378295"><ele>835.0</ele><time>2026-05-03T14:02:12.999Z</time></trkpt><trkpt lat="42.08801715976383" lon="13.543827730965797"><ele>835.0</ele><time>2026-05-03T14:02:13.999Z</time></trkpt><trkpt lat="42.088122302830705" lon="13.543741069555926"><ele>835.0</ele><time>2026-05-03T14:02:14.999Z</time></trkpt><trkpt lat="42.08825040826695" lon="13.543672069299538"><ele>835.0</ele><time>2026-05-03T14:02:15.999Z</time></trkpt><trkpt lat="42.0883930785539" lon="13.543585188331772"><ele>836.5</ele><time>2026-05-03T14:02:16.999Z</time></trkpt><trkpt lat="42.088526101616516" lon="13.543509967304006"><ele>838.0</ele><time>2026-05-03T14:02:17.999Z</time></trkpt><trkpt lat="42.088634652207894" lon="13.543402207058266"><ele>839.5</ele><time>2026-05-03T14:02:18.999Z</time></trkpt><trkpt lat="42.08871630986574" lon="13.543256050573461"><ele>841.0</ele><time>2026-05-03T14:02:19.999Z</time></trkpt><trkpt lat="42.088780190062124" lon="13.543072391835237"><ele>841.0</ele><time>2026-05-03T14:02:20.999Z</time></trkpt><trkpt lat="42.08886690432744" lon="13.542908905221758"><ele>841.0</ele><time>2026-05-03T14:02:21.999Z</time></trkpt><trkpt lat="42.08895505077475" lon="13.542741198974959"><ele>841.0</ele><time>2026-05-03T14:02:22.999Z</time></trkpt><trkpt lat="42.08910286255838" lon="13.542589014488195"><ele>844.3333333333333</ele><time>2026-05-03T14:02:23.999Z</time></trkpt><trkpt lat="42.08926823052489" lon="13.542448864871945"><ele>847.6666666666667</ele><time>2026-05-03T14:02:24.999Z</time></trkpt><trkpt lat="42.08941457885545" lon="13.542325832917271"><ele>851.0</ele><time>2026-05-03T14:02:25.999Z</time></trkpt><trkpt lat="42.08954455463416" lon="13.54219454641469"><ele>841.3333333333334</ele><time>2026-05-03T14:02:26.999Z</time></trkpt><trkpt lat="42.08966996774086" lon="13.54204210521494"><ele>831.6666666666667</ele><time>2026-05-03T14:02:27.999Z</time></trkpt><trkpt lat="42.08979479581979" lon="13.541873837222255"><ele>822.0</ele><time>2026-05-03T14:02:28.999Z</time></trkpt><trkpt lat="42.08992135442489" lon="13.54171406976846"><ele>835.0</ele><time>2026-05-03T14:02:29.999Z</time></trkpt><trkpt lat="42.09003480252126" lon="13.541566243633243"><ele>848.0</ele><time>2026-05-03T14:02:30.999Z</time></trkpt><trkpt lat="42.090142213120046" lon="13.541423808426456"><ele>861.0</ele><time>2026-05-03T14:02:31.999Z</time></trkpt><trkpt lat="42.090248841695846" lon="13.541277989221133"><ele>856.5</ele><time>2026-05-03T14:02:32.999Z</time></trkpt><trkpt lat="42.09034913582259" lon="13.54113615151417"><ele>852.0</ele><time>2026-05-03T14:02:33.999Z</time></trkpt><trkpt lat="42.09044506455445" lon="13.541002232036437"><ele>847.5</ele><time>2026-05-03T14:02:34.999Z</time></trkpt><trkpt lat="42.090529146648926" lon="13.54086686932665"><ele>843.0</ele><time>2026-05-03T14:02:35.999Z</time></trkpt><trkpt lat="42.09060717033049" lon="13.54071645958489"><ele>843.0</ele><time>2026-05-03T14:02:36.999Z</time></trkpt><trkpt lat="42.09064028776184" lon="13.540500224512506"><ele>843.0</ele><time>2026-05-03T14:02:37.999Z</time></trkpt><trkpt lat="42.090712347213476" lon="13.540279196959418"><ele>843.0</ele><time>2026-05-03T14:02:38.999Z</time></trkpt><trkpt lat="42.09079983167115" lon="13.540056962365677"><ele>846.3333333333333</ele><time>2026-05-03T14:02:39.999Z</time></trkpt><trkpt lat="42.09092983311554" lon="13.539839097533244"><ele>849.6666666666666</ele><time>2026-05-03T14:02:40.999Z</time></trkpt><trkpt lat="42.09110166831363" lon="13.539678207422623"><ele>853.0</ele><time>2026-05-03T14:02:41.999Z</time></trkpt><trkpt lat="42.091223548513895" lon="13.539484932884033"><ele>853.0</ele><time>2026-05-03T14:02:42.999Z</time></trkpt><trkpt lat="42.09132186840029" lon="13.539252713714959"><ele>853.0</ele><time>2026-05-03T14:02:43.999Z</time></trkpt><trkpt lat="42.0914175830916" lon="13.53899630454245"><ele>853.0</ele><time>2026-05-03T14:02:44.999Z</time></trkpt><trkpt lat="42.09153055267858" lon="13.538758415324523"><ele>858.3333333333333</ele><time>2026-05-03T14:02:45.999Z</time></trkpt><trkpt lat="42.091662503440276" lon="13.538538554253458"><ele>863.6666666666667</ele><time>2026-05-03T14:02:46.999Z</time></trkpt><trkpt lat="42.091792764387954" lon="13.538346371663147"><ele>869.0</ele><time>2026-05-03T14:02:47.999Z</time></trkpt><trkpt lat="42.09196885145604" lon="13.53817465705894"><ele>869.0</ele><time>2026-05-03T14:02:48.999Z</time></trkpt><trkpt lat="42.09214651420039" lon="13.537970705715043"><ele>869.0</ele><time>2026-05-03T14:02:49.999Z</time></trkpt><trkpt lat="42.09233201953904" lon="13.537778069022936"><ele>871.6666666666667</ele><time>2026-05-03T14:02:50.999Z</time></trkpt><trkpt lat="42.092504196523315" lon="13.53759743837615"><ele>874.3333333333333</ele><time>2026-05-03T14:02:51.999Z</time></trkpt><trkpt lat="42.09265108349353" lon="13.537435973154327"><ele>877.0</ele><time>2026-05-03T14:02:52.999Z</time></trkpt><trkpt lat="42.09278892665389" lon="13.53729403712811"><ele>877.0</ele><time>2026-05-03T14:02:53.999Z</time></trkpt><trkpt lat="42.09293423095734" lon="13.537160075950993"><ele>877.0</ele><time>2026-05-03T14:02:54.999Z</time></trkpt><trkpt lat="42.093087644088584" lon="13.537029289574903"><ele>877.0</ele><time>2026-05-03T14:02:55.999Z</time></trkpt><trkpt lat="42.09324787321112" lon="13.536934904128838"><ele>877.6666666666666</ele><time>2026-05-03T14:02:56.999Z</time></trkpt><trkpt lat="42.09340395154577" lon="13.536857612179535"><ele>878.3333333333333</ele><time>2026-05-03T14:02:57.999Z</time></trkpt><trkpt lat="42.093558850324456" lon="13.536805907225686"><ele>879.0</ele><time>2026-05-03T14:02:58.999Z</time></trkpt><trkpt lat="42.09371088992173" lon="13.536830037999739"><ele>879.0</ele><time>2026-05-03T14:02:59.999Z</time></trkpt><trkpt lat="42.093861500202856" lon="13.536797602566645"><ele>879.0</ele><time>2026-05-03T14:03:00.999Z</time></trkpt><trkpt lat="42.09401163631915" lon="13.536729038254732"><ele>879.0</ele><time>2026-05-03T14:03:01.999Z</time></trkpt><trkpt lat="42.09414773527468" lon="13.536642611763824"><ele>879.6666666666667</ele><time>2026-05-03T14:03:02.999Z</time></trkpt><trkpt lat="42.094259828259936" lon="13.536466156933615"><ele>880.3333333333334</ele><time>2026-05-03T14:03:03.999Z</time></trkpt><trkpt lat="42.09438272541482" lon="13.536313058184174"><ele>881.0</ele><time>2026-05-03T14:03:04.999Z</time></trkpt><trkpt lat="42.09449263362491" lon="13.536151974770199"><ele>881.0</ele><time>2026-05-03T14:03:05.999Z</time></trkpt><trkpt lat="42.09459846728787" lon="13.536006921491788"><ele>881.0</ele><time>2026-05-03T14:03:06.999Z</time></trkpt><trkpt lat="42.09472055207566" lon="13.535871040570369"><ele>881.0</ele><time>2026-05-03T14:03:07.999Z</time></trkpt><trkpt lat="42.094824321811224" lon="13.535782593757908"><ele>881.0</ele><time>2026-05-03T14:03:08.999Z</time></trkpt><trkpt lat="42.09493207957648" lon="13.535708725816203"><ele>882.3333333333334</ele><time>2026-05-03T14:03:09.999Z</time></trkpt><trkpt lat="42.095060947225264" lon="13.535626936505903"><ele>883.6666666666667</ele><time>2026-05-03T14:03:10.999Z</time></trkpt><trkpt lat="42.09520391578794" lon="13.5355220286997"><ele>885.0</ele><time>2026-05-03T14:03:11.999Z</time></trkpt><trkpt lat="42.09536352073423" lon="13.53537816849431"><ele>885.0</ele><time>2026-05-03T14:03:12.999Z</time></trkpt><trkpt lat="42.09552157164141" lon="13.535216856887104"><ele>885.0</ele><time>2026-05-03T14:03:13.999Z</time></trkpt><trkpt lat="42.095692166820584" lon="13.535043893234127"><ele>885.0</ele><time>2026-05-03T14:03:14.999Z</time></trkpt><trkpt lat="42.095864344679" lon="13.534870087584965"><ele>888.6666666666667</ele><time>2026-05-03T14:03:15.999Z</time></trkpt><trkpt lat="42.09603778595085" lon="13.534695006163354"><ele>892.3333333333334</ele><time>2026-05-03T14:03:17Z</time></trkpt><trkpt lat="42.0962091581817" lon="13.534520709369138"><ele>896.0</ele><time>2026-05-03T14:03:18Z</time></trkpt><trkpt lat="42.096375999700236" lon="13.53435024692569"><ele>896.0</ele><time>2026-05-03T14:03:19Z</time></trkpt><trkpt lat="42.09654160527951" lon="13.534181047512822"><ele>896.0</ele><time>2026-05-03T14:03:20Z</time></trkpt><trkpt lat="42.09670590590659" lon="13.53401510928281"><ele>896.0</ele><time>2026-05-03T14:03:21Z</time></trkpt><trkpt lat="42.096865932801805" lon="13.533852397237784"><ele>896.3333333333334</ele><time>2026-05-03T14:03:22Z</time></trkpt><trkpt lat="42.0970251292069" lon="13.533688096004388"><ele>896.6666666666667</ele><time>2026-05-03T14:03:23Z</time></trkpt><trkpt lat="42.09718375244917" lon="13.53353200212162"><ele>897.0</ele><time>2026-05-03T14:03:24Z</time></trkpt><trkpt lat="42.097339016280586" lon="13.533375707682083"><ele>899.6666666666667</ele><time>2026-05-03T14:03:25Z</time></trkpt><trkpt lat="42.097485224251436" lon="13.533200248766443"><ele>902.3333333333334</ele><time>2026-05-03T14:03:26Z</time></trkpt><trkpt lat="42.09763975790596" lon="13.533042110448477"><ele>905.0</ele><time>2026-05-03T14:03:27Z</time></trkpt><trkpt lat="42.097789913075836" lon="13.532886566936046"><ele>905.0</ele><time>2026-05-03T14:03:28Z</time></trkpt><trkpt lat="42.09793340149609" lon="13.53273163829313"><ele>905.0</ele><time>2026-05-03T14:03:29Z</time></trkpt><trkpt lat="42.09807245106027" lon="13.532566483117243"><ele>905.0</ele><time>2026-05-03T14:03:30Z</time></trkpt><trkpt lat="42.09820127154141" lon="13.532390622377013"><ele>912.0</ele><time>2026-05-03T14:03:31Z</time></trkpt><trkpt lat="42.09831957892811" lon="13.532194282616954"><ele>919.0</ele><time>2026-05-03T14:03:32Z</time></trkpt><trkpt lat="42.09843741536392" lon="13.531981813195268"><ele>926.0</ele><time>2026-05-03T14:03:33Z</time></trkpt><trkpt lat="42.098574424871074" lon="13.53176941717261"><ele>926.0</ele><time>2026-05-03T14:03:34Z</time></trkpt><trkpt lat="42.09870366734219" lon="13.531542829562877"><ele>926.0</ele><time>2026-05-03T14:03:35Z</time></trkpt><trkpt lat="42.09883140151892" lon="13.53131960921136"><ele>926.0</ele><time>2026-05-03T14:03:36Z</time></trkpt><trkpt lat="42.098953815743116" lon="13.531071177165806"><ele>923.6666666666667</ele><time>2026-05-03T14:03:37Z</time></trkpt><trkpt lat="42.099081203067456" lon="13.530851739724035"><ele>921.3333333333333</ele><time>2026-05-03T14:03:38Z</time></trkpt><trkpt lat="42.099194997859634" lon="13.530651080236655"><ele>919.0</ele><time>2026-05-03T14:03:39Z</time></trkpt><trkpt lat="42.09927046776056" lon="13.530438913286996"><ele>925.0</ele><time>2026-05-03T14:03:40Z</time></trkpt><trkpt lat="42.09931331652917" lon="13.530221709198685"><ele>931.0</ele><time>2026-05-03T14:03:41Z</time></trkpt><trkpt lat="42.09931532986917" lon="13.529992406314953"><ele>937.0</ele><time>2026-05-03T14:03:42Z</time></trkpt><trkpt lat="42.099299424913404" lon="13.529753804734215"><ele>939.3333333333333</ele><time>2026-05-03T14:03:43Z</time></trkpt><trkpt lat="42.099243631254694" lon="13.52951865832264"><ele>941.6666666666667</ele><time>2026-05-03T14:03:44Z</time></trkpt><trkpt lat="42.09915580834496" lon="13.529301825623387"><ele>944.0</ele><time>2026-05-03T14:03:45Z</time></trkpt><trkpt lat="42.099046596706465" lon="13.529100127430766"><ele>939.0</ele><time>2026-05-03T14:03:46Z</time></trkpt><trkpt lat="42.09896676852895" lon="13.528937063880482"><ele>934.0</ele><time>2026-05-03T14:03:47Z</time></trkpt><trkpt lat="42.09892312164418" lon="13.528778385548437"><ele>929.0</ele><time>2026-05-03T14:03:48Z</time></trkpt><trkpt lat="42.098910121725346" lon="13.52861987450593"><ele>924.0</ele><time>2026-05-03T14:03:49Z</time></trkpt><trkpt lat="42.098961211143234" lon="13.52845950793492"><ele>923.3333333333333</ele><time>2026-05-03T14:03:50Z</time></trkpt><trkpt lat="42.09903539204909" lon="13.528297261561649"><ele>922.6666666666666</ele><time>2026-05-03T14:03:51Z</time></trkpt><trkpt lat="42.09914915111313" lon="13.52811978478453"><ele>922.0</ele><time>2026-05-03T14:03:52Z</time></trkpt><trkpt lat="42.099287152300334" lon="13.527959154727405"><ele>928.0</ele><time>2026-05-03T14:03:53Z</time></trkpt><trkpt lat="42.09944723477968" lon="13.52780012943536"><ele>934.0</ele><time>2026-05-03T14:03:54Z</time></trkpt><trkpt lat="42.09957078628562" lon="13.527599597958432"><ele>940.0</ele><time>2026-05-03T14:03:55Z</time></trkpt><trkpt lat="42.09967344147485" lon="13.527436828772892"><ele>940.0</ele><time>2026-05-03T14:03:56Z</time></trkpt><trkpt lat="42.099766635283494" lon="13.527249903336747"><ele>940.0</ele><time>2026-05-03T14:03:57Z</time></trkpt><trkpt lat="42.09981329621659" lon="13.527068430014019"><ele>940.0</ele><time>2026-05-03T14:03:58Z</time></trkpt><trkpt lat="42.09982933037646" lon="13.526854520296652"><ele>939.3333333333333</ele><time>2026-05-03T14:03:59Z</time></trkpt><trkpt lat="42.0998087834566" lon="13.526635832643434"><ele>938.6666666666667</ele><time>2026-05-03T14:04:00Z</time></trkpt><trkpt lat="42.09976936837713" lon="13.526409667990189"><ele>938.0</ele><time>2026-05-03T14:04:01Z</time></trkpt><trkpt lat="42.099765153891184" lon="13.526183300120953"><ele>938.0</ele><time>2026-05-03T14:04:02Z</time></trkpt><trkpt lat="42.099773011451795" lon="13.525956691980479"><ele>938.0</ele><time>2026-05-03T14:04:03Z</time></trkpt><trkpt lat="42.0998152678304" lon="13.52572300881798"><ele>938.0</ele><time>2026-05-03T14:04:04Z</time></trkpt><trkpt lat="42.099900225515256" lon="13.525521275276919"><ele>945.3333333333334</ele><time>2026-05-03T14:04:05Z</time></trkpt><trkpt lat="42.09999145662947" lon="13.525311624386378"><ele>952.6666666666667</ele><time>2026-05-03T14:04:06Z</time></trkpt><trkpt lat="42.10010602334772" lon="13.525115870522132"><ele>960.0</ele><time>2026-05-03T14:04:07Z</time></trkpt><trkpt lat="42.10020009221399" lon="13.524954061753084"><ele>960.0</ele><time>2026-05-03T14:04:08Z</time></trkpt><trkpt lat="42.10029917261962" lon="13.524827567800516"><ele>960.0</ele><time>2026-05-03T14:04:09Z</time></trkpt><trkpt lat="42.10042750699319" lon="13.524735192862208"><ele>960.0</ele><time>2026-05-03T14:04:10Z</time></trkpt><trkpt lat="42.10058907839357" lon="13.524716017284412"><ele>960.0</ele><time>2026-05-03T14:04:11Z</time></trkpt><trkpt lat="42.100764417449824" lon="13.52469519435718"><ele>963.3333333333333</ele><time>2026-05-03T14:04:12Z</time></trkpt><trkpt lat="42.10095633141493" lon="13.524667688744413"><ele>966.6666666666666</ele><time>2026-05-03T14:04:13Z</time></trkpt><trkpt lat="42.10115886534649" lon="13.5246164187945"><ele>970.0</ele><time>2026-05-03T14:04:14Z</time></trkpt><trkpt lat="42.1013398952285" lon="13.524529289785344"><ele>968.0</ele><time>2026-05-03T14:04:15Z</time></trkpt><trkpt lat="42.101494741706176" lon="13.524421379218685"><ele>966.0</ele><time>2026-05-03T14:04:16Z</time></trkpt><trkpt lat="42.101635007657826" lon="13.524345450009035"><ele>964.0</ele><time>2026-05-03T14:04:17Z</time></trkpt><trkpt lat="42.1017981594592" lon="13.524307761100877"><ele>964.0</ele><time>2026-05-03T14:04:18Z</time></trkpt><trkpt lat="42.101974893852876" lon="13.524314340610704"><ele>964.0</ele><time>2026-05-03T14:04:19Z</time></trkpt><trkpt lat="42.102175061187864" lon="13.52432293143542"><ele>964.0</ele><time>2026-05-03T14:04:20Z</time></trkpt><trkpt lat="42.102357287825036" lon="13.524335908562085"><ele>966.0</ele><time>2026-05-03T14:04:21Z</time></trkpt><trkpt lat="42.10251697790599" lon="13.52435644900494"><ele>968.0</ele><time>2026-05-03T14:04:22Z</time></trkpt><trkpt lat="42.10267555150526" lon="13.524420561511102"><ele>970.0</ele><time>2026-05-03T14:04:23Z</time></trkpt><trkpt lat="42.10283382052039" lon="13.524544839715013"><ele>975.0</ele><time>2026-05-03T14:04:24Z</time></trkpt><trkpt lat="42.103001295284315" lon="13.52470998959664"><ele>980.0</ele><time>2026-05-03T14:04:25Z</time></trkpt><trkpt lat="42.103150136469736" lon="13.524857861132242"><ele>985.0</ele><time>2026-05-03T14:04:26Z</time></trkpt><trkpt lat="42.10329964251045" lon="13.524999775222213"><ele>985.0</ele><time>2026-05-03T14:04:27Z</time></trkpt><trkpt lat="42.10347626378565" lon="13.525119963721401"><ele>985.0</ele><time>2026-05-03T14:04:28Z</time></trkpt><trkpt lat="42.103671224725794" lon="13.525209358685741"><ele>985.0</ele><time>2026-05-03T14:04:29Z</time></trkpt><trkpt lat="42.10387683704926" lon="13.525257194819952"><ele>984.0</ele><time>2026-05-03T14:04:30Z</time></trkpt><trkpt lat="42.10408829445784" lon="13.525263316890419"><ele>983.0</ele><time>2026-05-03T14:04:31Z</time></trkpt><trkpt lat="42.10427248825341" lon="13.52524459852077"><ele>982.0</ele><time>2026-05-03T14:04:32Z</time></trkpt><trkpt lat="42.10442531583649" lon="13.525223341803866"><ele>982.0</ele><time>2026-05-03T14:04:33Z</time></trkpt><trkpt lat="42.10456655316284" lon="13.525227791978342"><ele>982.0</ele><time>2026-05-03T14:04:34Z</time></trkpt><trkpt lat="42.10469543712479" lon="13.525296469979516"><ele>982.0</ele><time>2026-05-03T14:04:35Z</time></trkpt><trkpt lat="42.104818582242466" lon="13.525428594591688"><ele>982.0</ele><time>2026-05-03T14:04:36Z</time></trkpt><trkpt lat="42.10494177639143" lon="13.525570681653573"><ele>987.25</ele><time>2026-05-03T14:04:37Z</time></trkpt><trkpt lat="42.10505402513743" lon="13.52572506310077"><ele>992.5</ele><time>2026-05-03T14:04:38Z</time></trkpt><trkpt lat="42.10516367846445" lon="13.525847675590715"><ele>997.75</ele><time>2026-05-03T14:04:39Z</time></trkpt><trkpt lat="42.105290271399525" lon="13.52591003420449"><ele>1003.0</ele><time>2026-05-03T14:04:40Z</time></trkpt><trkpt lat="42.105420093681595" lon="13.525907947334897"><ele>1003.0</ele><time>2026-05-03T14:04:41Z</time></trkpt><trkpt lat="42.105533235225934" lon="13.52583783988298"><ele>1003.0</ele><time>2026-05-03T14:04:42Z</time></trkpt><trkpt lat="42.10561417487353" lon="13.525691606547312"><ele>1003.0</ele><time>2026-05-03T14:04:43Z</time></trkpt><trkpt lat="42.10564758458372" lon="13.525519843727864"><ele>1003.0</ele><time>2026-05-03T14:04:44Z</time></trkpt><trkpt lat="42.105642531931004" lon="13.525343027104846"><ele>1002.0</ele><time>2026-05-03T14:04:45Z</time></trkpt><trkpt lat="42.10562618351402" lon="13.525156349267922"><ele>1001.0</ele><time>2026-05-03T14:04:46Z</time></trkpt><trkpt lat="42.10564186864162" lon="13.524973493063218"><ele>1000.0</ele><time>2026-05-03T14:04:47Z</time></trkpt><trkpt lat="42.105677185335765" lon="13.524821942166515"><ele>999.0</ele><time>2026-05-03T14:04:48Z</time></trkpt><trkpt lat="42.10575325423695" lon="13.524713008179246"><ele>999.0</ele><time>2026-05-03T14:04:49Z</time></trkpt><trkpt lat="42.105869884486836" lon="13.524663229003826"><ele>999.0</ele><time>2026-05-03T14:04:50Z</time></trkpt><trkpt lat="42.10600059272719" lon="13.524586628007949"><ele>999.0</ele><time>2026-05-03T14:04:51Z</time></trkpt><trkpt lat="42.10610185524604" lon="13.524458321073707"><ele>999.0</ele><time>2026-05-03T14:04:51.999Z</time></trkpt><trkpt lat="42.1061941624301" lon="13.52429913535396"><ele>995.3333333333333</ele><time>2026-05-03T14:04:52.999Z</time></trkpt><trkpt lat="42.106298401568154" lon="13.524118531973805"><ele>991.6666666666666</ele><time>2026-05-03T14:04:53.999Z</time></trkpt><trkpt lat="42.10639876319691" lon="13.5239224214118"><ele>988.0</ele><time>2026-05-03T14:04:54.999Z</time></trkpt><trkpt lat="42.106508888564484" lon="13.523729474447366"><ele>993.3333333333333</ele><time>2026-05-03T14:04:55.999Z</time></trkpt><trkpt lat="42.10662597744005" lon="13.523551748709336"><ele>998.6666666666667</ele><time>2026-05-03T14:04:56.999Z</time></trkpt><trkpt lat="42.10674026536728" lon="13.523385165307232"><ele>1004.0</ele><time>2026-05-03T14:04:57.999Z</time></trkpt><trkpt lat="42.10687582758551" lon="13.523258605224663"><ele>1004.0</ele><time>2026-05-03T14:04:58.999Z</time></trkpt><trkpt lat="42.10702534210135" lon="13.523144589135306"><ele>1004.0</ele><time>2026-05-03T14:04:59.999Z</time></trkpt><trkpt lat="42.10717105110519" lon="13.523029211386847"><ele>1004.0</ele><time>2026-05-03T14:05:00.999Z</time></trkpt><trkpt lat="42.10730561192206" lon="13.5229206654594"><ele>1005.8000000000001</ele><time>2026-05-03T14:05:01.999Z</time></trkpt><trkpt lat="42.107425172692714" lon="13.522825360114913"><ele>1007.6000000000001</ele><time>2026-05-03T14:05:02.999Z</time></trkpt><trkpt lat="42.107528197382656" lon="13.522744140770822"><ele>1009.4</ele><time>2026-05-03T14:05:03.999Z</time></trkpt><trkpt lat="42.10761190304103" lon="13.522677095175647"><ele>1011.2</ele><time>2026-05-03T14:05:04.999Z</time></trkpt><trkpt lat="42.10768138359732" lon="13.52262130669866"><ele>1013.0</ele><time>2026-05-03T14:05:05.999Z</time></trkpt><trkpt lat="42.107744991959656" lon="13.522569859971817"><ele>1013.0</ele><time>2026-05-03T14:05:06.999Z</time></trkpt><trkpt lat="42.10781197150177" lon="13.522515195938322"><ele>1013.0</ele><time>2026-05-03T14:05:07.999Z</time></trkpt><trkpt lat="42.10788264609583" lon="13.522457516844074"><ele>1013.0</ele><time>2026-05-03T14:05:08.999Z</time></trkpt><trkpt lat="42.10790906029198" lon="13.522291273735616"><ele>1013.0</ele><time>2026-05-03T14:05:09.999Z</time></trkpt><trkpt lat="42.107963466899854" lon="13.522128407219247"><ele>1013.0</ele><time>2026-05-03T14:05:10.999Z</time></trkpt><trkpt lat="42.10803763415038" lon="13.521916264674443"><ele>1010.6666666666667</ele><time>2026-05-03T14:05:11.999Z</time></trkpt><trkpt lat="42.10811795676042" lon="13.521689464819822"><ele>1008.3333333333333</ele><time>2026-05-03T14:05:12.999Z</time></trkpt><trkpt lat="42.10820141914357" lon="13.521439117022581"><ele>1006.0</ele><time>2026-05-03T14:05:13.999Z</time></trkpt><trkpt lat="42.10828688780162" lon="13.52117989547885"><ele>1006.0</ele><time>2026-05-03T14:05:14.999Z</time></trkpt><trkpt lat="42.10837214715103" lon="13.520926480157154"><ele>1006.0</ele><time>2026-05-03T14:05:15.999Z</time></trkpt><trkpt lat="42.10845246680896" lon="13.520684241149462"><ele>1006.0</ele><time>2026-05-03T14:05:16.999Z</time></trkpt><trkpt lat="42.108531592100334" lon="13.520448949988015"><ele>1003.3333333333333</ele><time>2026-05-03T14:05:17.999Z</time></trkpt><trkpt lat="42.10860387859806" lon="13.520216785442756"><ele>1000.6666666666667</ele><time>2026-05-03T14:05:18.999Z</time></trkpt><trkpt lat="42.10868838637299" lon="13.520021879580705"><ele>998.0</ele><time>2026-05-03T14:05:19.999Z</time></trkpt><trkpt lat="42.10875758829408" lon="13.519819411543722"><ele>998.0</ele><time>2026-05-03T14:05:20.999Z</time></trkpt><trkpt lat="42.10881429301439" lon="13.519630476454331"><ele>998.0</ele><time>2026-05-03T14:05:21.999Z</time></trkpt><trkpt lat="42.10888666801207" lon="13.519470324948093"><ele>998.0</ele><time>2026-05-03T14:05:23.001Z</time></trkpt><trkpt lat="42.10897885250089" lon="13.51934467937087"><ele>998.0</ele><time>2026-05-03T14:05:24.001Z</time></trkpt><trkpt lat="42.10906826202239" lon="13.519213933864577"><ele>998.5</ele><time>2026-05-03T14:05:25.001Z</time></trkpt><trkpt lat="42.109134157115065" lon="13.519092024222138"><ele>999.0</ele><time>2026-05-03T14:05:26.001Z</time></trkpt><trkpt lat="42.10921196440929" lon="13.51897736217187"><ele>999.5</ele><time>2026-05-03T14:05:27.001Z</time></trkpt><trkpt lat="42.10926755647183" lon="13.518826715334978"><ele>1000.0</ele><time>2026-05-03T14:05:28.001Z</time></trkpt><trkpt lat="42.10928297733923" lon="13.518649488941907"><ele>999.0</ele><time>2026-05-03T14:05:29.001Z</time></trkpt><trkpt lat="42.109258165111804" lon="13.518484976440423"><ele>998.0</ele><time>2026-05-03T14:05:30.001Z</time></trkpt><trkpt lat="42.10920223566843" lon="13.518345458383795"><ele>997.0</ele><time>2026-05-03T14:05:31.001Z</time></trkpt><trkpt lat="42.10914571585054" lon="13.51820181958699"><ele>996.0</ele><time>2026-05-03T14:05:32.001Z</time></trkpt><trkpt lat="42.109077492636075" lon="13.518061850346477"><ele>996.0</ele><time>2026-05-03T14:05:33.001Z</time></trkpt><trkpt lat="42.10902896722982" lon="13.517937705590755"><ele>995.9999999999999</ele><time>2026-05-03T14:05:34.001Z</time></trkpt><trkpt lat="42.108972347163025" lon="13.517801436253333"><ele>995.9999999999999</ele><time>2026-05-03T14:05:35.001Z</time></trkpt><trkpt lat="42.10891370045946" lon="13.51766810810823"><ele>996.0</ele><time>2026-05-03T14:05:36.001Z</time></trkpt><trkpt lat="42.10885459878314" lon="13.517550570175105"><ele>996.0</ele><time>2026-05-03T14:05:37.001Z</time></trkpt><trkpt lat="42.10880034822526" lon="13.517435482945684"><ele>996.0</ele><time>2026-05-03T14:05:38.001Z</time></trkpt><trkpt lat="42.108729083796746" lon="13.517340445419674"><ele>995.9999999999999</ele><time>2026-05-03T14:05:39.001Z</time></trkpt><trkpt lat="42.108644814089324" lon="13.517271100885695"><ele>995.9999999999999</ele><time>2026-05-03T14:05:40.001Z</time></trkpt><trkpt lat="42.10854916621438" lon="13.517257397789557"><ele>996.0</ele><time>2026-05-03T14:05:41.001Z</time></trkpt><trkpt lat="42.10843660525291" lon="13.517251723185655"><ele>996.0</ele><time>2026-05-03T14:05:42Z</time></trkpt><trkpt lat="42.108320676523334" lon="13.517364345558995"><ele>997.25</ele><time>2026-05-03T14:05:43Z</time></trkpt><trkpt lat="42.10819566408547" lon="13.517461743388855"><ele>998.5</ele><time>2026-05-03T14:05:44Z</time></trkpt><trkpt lat="42.108061198546956" lon="13.517574814599957"><ele>999.75</ele><time>2026-05-03T14:05:45Z</time></trkpt><trkpt lat="42.10793702548085" lon="13.517677229049001"><ele>1001.0</ele><time>2026-05-03T14:05:46Z</time></trkpt><trkpt lat="42.10781657695785" lon="13.517778961206266"><ele>1001.0</ele><time>2026-05-03T14:05:47Z</time></trkpt><trkpt lat="42.107710838053066" lon="13.517884821094126"><ele>1001.0</ele><time>2026-05-03T14:05:48Z</time></trkpt><trkpt lat="42.10763036841334" lon="13.518012548689834"><ele>1001.0</ele><time>2026-05-03T14:05:49Z</time></trkpt><trkpt lat="42.107571116798546" lon="13.51818065114357"><ele>1001.0</ele><time>2026-05-03T14:05:50Z</time></trkpt><trkpt lat="42.107531989737495" lon="13.518422142507458"><ele>1000.0</ele><time>2026-05-03T14:05:51Z</time></trkpt><trkpt lat="42.10751117802071" lon="13.518626857995255"><ele>999.0</ele><time>2026-05-03T14:05:52Z</time></trkpt><trkpt lat="42.10745088356335" lon="13.518810723878957"><ele>998.0</ele><time>2026-05-03T14:05:53Z</time></trkpt><trkpt lat="42.107362982097456" lon="13.519009136420026"><ele>1000.3333333333334</ele><time>2026-05-03T14:05:54Z</time></trkpt><trkpt lat="42.10726953682656" lon="13.519222038804529"><ele>1002.6666666666667</ele><time>2026-05-03T14:05:55Z</time></trkpt><trkpt lat="42.107144484160244" lon="13.51952301628925"><ele>1005.0</ele><time>2026-05-03T14:05:56Z</time></trkpt><trkpt lat="42.10706172433008" lon="13.51973352342085"><ele>1005.0</ele><time>2026-05-03T14:05:57Z</time></trkpt><trkpt lat="42.10698352685987" lon="13.519910680586507"><ele>1005.0</ele><time>2026-05-03T14:05:58Z</time></trkpt><trkpt lat="42.1068995989723" lon="13.520059157300617"><ele>1005.0</ele><time>2026-05-03T14:05:59Z</time></trkpt><trkpt lat="42.106779303372406" lon="13.520143090538163"><ele>1005.0</ele><time>2026-05-03T14:06:00Z</time></trkpt><trkpt lat="42.10664530995902" lon="13.52020401238872"><ele>1004.3333333333333</ele><time>2026-05-03T14:06:01Z</time></trkpt><trkpt lat="42.106497393169064" lon="13.520246468158765"><ele>1003.6666666666666</ele><time>2026-05-03T14:06:02Z</time></trkpt><trkpt lat="42.106346527465895" lon="13.520318084966252"><ele>1003.0</ele><time>2026-05-03T14:06:03Z</time></trkpt><trkpt lat="42.10621419975159" lon="13.520459169696453"><ele>1003.0</ele><time>2026-05-03T14:06:04Z</time></trkpt><trkpt lat="42.106079639225506" lon="13.520601077850943"><ele>1003.0</ele><time>2026-05-03T14:06:05Z</time></trkpt><trkpt lat="42.10595562286026" lon="13.520751726697943"><ele>1003.0</ele><time>2026-05-03T14:06:06Z</time></trkpt><trkpt lat="42.10586300672569" lon="13.520873277492056"><ele>1003.5</ele><time>2026-05-03T14:06:07Z</time></trkpt><trkpt lat="42.10571695764063" lon="13.520954594211755"><ele>1004.0</ele><time>2026-05-03T14:06:08Z</time></trkpt><trkpt lat="42.105605872199334" lon="13.521015891135747"><ele>1004.5</ele><time>2026-05-03T14:06:09Z</time></trkpt><trkpt lat="42.10550830282053" lon="13.521056859162641"><ele>1005.0</ele><time>2026-05-03T14:06:10Z</time></trkpt><trkpt lat="42.10540774718996" lon="13.521031491871183"><ele>1005.0</ele><time>2026-05-03T14:06:11Z</time></trkpt><trkpt lat="42.105318975147306" lon="13.520925344912802"><ele>1005.0</ele><time>2026-05-03T14:06:12Z</time></trkpt><trkpt lat="42.105210267288555" lon="13.520786235631036"><ele>1005.0</ele><time>2026-05-03T14:06:13Z</time></trkpt><trkpt lat="42.10507944486751" lon="13.52064566553935"><ele>1005.0</ele><time>2026-05-03T14:06:14Z</time></trkpt><trkpt lat="42.10494549868689" lon="13.520459531237698"><ele>1002.6666666666667</ele><time>2026-05-03T14:06:15Z</time></trkpt><trkpt lat="42.10481670714499" lon="13.520306197504148"><ele>1000.3333333333334</ele><time>2026-05-03T14:06:16Z</time></trkpt><trkpt lat="42.10470135303166" lon="13.520146286294256"><ele>998.0</ele><time>2026-05-03T14:06:17Z</time></trkpt><trkpt lat="42.10460063284375" lon="13.51999391111972"><ele>998.0</ele><time>2026-05-03T14:06:18Z</time></trkpt><trkpt lat="42.104520731112665" lon="13.519810692978387"><ele>998.0</ele><time>2026-05-03T14:06:19Z</time></trkpt><trkpt lat="42.10446942997558" lon="13.519600571437389"><ele>998.0</ele><time>2026-05-03T14:06:20Z</time></trkpt><trkpt lat="42.104405505205435" lon="13.51941492168773"><ele>999.0</ele><time>2026-05-03T14:06:21Z</time></trkpt><trkpt lat="42.10435509414235" lon="13.519233527113226"><ele>1000.0</ele><time>2026-05-03T14:06:22Z</time></trkpt><trkpt lat="42.10426964750823" lon="13.519056116904324"><ele>1001.0</ele><time>2026-05-03T14:06:23Z</time></trkpt><trkpt lat="42.10415604465854" lon="13.51890099260658"><ele>999.0</ele><time>2026-05-03T14:06:24Z</time></trkpt><trkpt lat="42.10402740077155" lon="13.51876851442562"><ele>997.0</ele><time>2026-05-03T14:06:25Z</time></trkpt><trkpt lat="42.10387371182134" lon="13.518655605574265"><ele>995.0</ele><time>2026-05-03T14:06:26Z</time></trkpt><trkpt lat="42.103700315821605" lon="13.51855703441367"><ele>995.0</ele><time>2026-05-03T14:06:27Z</time></trkpt><trkpt lat="42.10353278775589" lon="13.518459575197927"><ele>995.0</ele><time>2026-05-03T14:06:28Z</time></trkpt><trkpt lat="42.103401807627236" lon="13.51839481130847"><ele>995.0</ele><time>2026-05-03T14:06:29Z</time></trkpt><trkpt lat="42.10326958481237" lon="13.518323727765118"><ele>993.25</ele><time>2026-05-03T14:06:30Z</time></trkpt><trkpt lat="42.103131689001145" lon="13.518299505200277"><ele>991.5</ele><time>2026-05-03T14:06:31Z</time></trkpt><trkpt lat="42.10297440129128" lon="13.518325610915817"><ele>989.75</ele><time>2026-05-03T14:06:32Z</time></trkpt><trkpt lat="42.102831308484625" lon="13.518361380167985"><ele>988.0</ele><time>2026-05-03T14:06:33Z</time></trkpt><trkpt lat="42.102702492404354" lon="13.518384907091768"><ele>988.0</ele><time>2026-05-03T14:06:34Z</time></trkpt><trkpt lat="42.10258112030938" lon="13.51836599423256"><ele>988.0</ele><time>2026-05-03T14:06:35Z</time></trkpt><trkpt lat="42.102475069102255" lon="13.518329747870835"><ele>988.0</ele><time>2026-05-03T14:06:36Z</time></trkpt><trkpt lat="42.10237801979564" lon="13.518251570173883"><ele>988.0</ele><time>2026-05-03T14:06:37Z</time></trkpt><trkpt lat="42.10231544982608" lon="13.518118939436208"><ele>982.25</ele><time>2026-05-03T14:06:38Z</time></trkpt><trkpt lat="42.102274841085105" lon="13.517970307972774"><ele>976.5</ele><time>2026-05-03T14:06:39Z</time></trkpt><trkpt lat="42.10225348365929" lon="13.517768829050677"><ele>970.75</ele><time>2026-05-03T14:06:40Z</time></trkpt><trkpt lat="42.10226540224751" lon="13.517545767754646"><ele>965.0</ele><time>2026-05-03T14:06:41Z</time></trkpt><trkpt lat="42.10228778291079" lon="13.517311700647888"><ele>965.0</ele><time>2026-05-03T14:06:42Z</time></trkpt><trkpt lat="42.10229545278896" lon="13.517063386495314"><ele>965.0</ele><time>2026-05-03T14:06:43Z</time></trkpt><trkpt lat="42.10226720682037" lon="13.516813361960917"><ele>965.0</ele><time>2026-05-03T14:06:44Z</time></trkpt><trkpt lat="42.102211862786085" lon="13.516563047161773"><ele>965.0</ele><time>2026-05-03T14:06:45Z</time></trkpt><trkpt lat="42.10216226564252" lon="13.516331947703577"><ele>965.0</ele><time>2026-05-03T14:06:46Z</time></trkpt><trkpt lat="42.10212999439993" lon="13.516055157641294"><ele>965.0</ele><time>2026-05-03T14:06:47Z</time></trkpt><trkpt lat="42.10211801281191" lon="13.515801522354048"><ele>965.0</ele><time>2026-05-03T14:06:48Z</time></trkpt><trkpt lat="42.10211234706883" lon="13.515530212028198"><ele>965.0</ele><time>2026-05-03T14:06:49Z</time></trkpt><trkpt lat="42.102107150007384" lon="13.515263450204866"><ele>965.0</ele><time>2026-05-03T14:06:50Z</time></trkpt><trkpt lat="42.10210177886554" lon="13.514987751485572"><ele>964.0</ele><time>2026-05-03T14:06:51Z</time></trkpt><trkpt lat="42.10209652784272" lon="13.514718218611282"><ele>963.0</ele><time>2026-05-03T14:06:52Z</time></trkpt><trkpt lat="42.102091642549404" lon="13.514434621801016"><ele>962.0</ele><time>2026-05-03T14:06:53Z</time></trkpt><trkpt lat="42.10208845281066" lon="13.51420201248164"><ele>960.6666666666667</ele><time>2026-05-03T14:06:54Z</time></trkpt><trkpt lat="42.10210363484722" lon="13.513948900420523"><ele>959.3333333333333</ele><time>2026-05-03T14:06:55Z</time></trkpt><trkpt lat="42.102132123945026" lon="13.51367445823013"><ele>958.0</ele><time>2026-05-03T14:06:56Z</time></trkpt><trkpt lat="42.10214489807717" lon="13.513397323561675"><ele>957.3333333333333</ele><time>2026-05-03T14:06:57Z</time></trkpt><trkpt lat="42.102174512075536" lon="13.513151281563065"><ele>956.6666666666667</ele><time>2026-05-03T14:06:58Z</time></trkpt><trkpt lat="42.10221550078197" lon="13.512928634688944"><ele>956.0</ele><time>2026-05-03T14:06:59Z</time></trkpt><trkpt lat="42.10223357579466" lon="13.512731207603043"><ele>956.0</ele><time>2026-05-03T14:07:00Z</time></trkpt><trkpt lat="42.10224343613182" lon="13.512542699692506"><ele>956.0</ele><time>2026-05-03T14:07:01Z</time></trkpt><trkpt lat="42.10222872941571" lon="13.512377310910288"><ele>956.0</ele><time>2026-05-03T14:07:02Z</time></trkpt><trkpt lat="42.10221449239516" lon="13.512196617152398"><ele>956.0</ele><time>2026-05-03T14:07:02.999Z</time></trkpt><trkpt lat="42.10218108928699" lon="13.511988588585218"><ele>957.25</ele><time>2026-05-03T14:07:03.999Z</time></trkpt><trkpt lat="42.10213985169416" lon="13.511807858085456"><ele>958.5</ele><time>2026-05-03T14:07:04.999Z</time></trkpt><trkpt lat="42.10210104774201" lon="13.511628972578576"><ele>959.75</ele><time>2026-05-03T14:07:05.999Z</time></trkpt><trkpt lat="42.102013039062626" lon="13.511470241601302"><ele>961.0</ele><time>2026-05-03T14:07:06.999Z</time></trkpt><trkpt lat="42.101889823059174" lon="13.511295277703294"><ele>963.0</ele><time>2026-05-03T14:07:07.999Z</time></trkpt><trkpt lat="42.10175545758118" lon="13.511112148124223"><ele>965.0</ele><time>2026-05-03T14:07:08.999Z</time></trkpt><trkpt lat="42.10162410762899" lon="13.510917859723136"><ele>967.0</ele><time>2026-05-03T14:07:09.999Z</time></trkpt><trkpt lat="42.1014905000065" lon="13.510736981673501"><ele>963.6666666666666</ele><time>2026-05-03T14:07:10.999Z</time></trkpt><trkpt lat="42.10135982790213" lon="13.510563363072327"><ele>960.3333333333333</ele><time>2026-05-03T14:07:11.999Z</time></trkpt><trkpt lat="42.10124161577718" lon="13.510391431157423"><ele>957.0</ele><time>2026-05-03T14:07:12.999Z</time></trkpt><trkpt lat="42.101129463263035" lon="13.510227934409622"><ele>957.0</ele><time>2026-05-03T14:07:13.999Z</time></trkpt><trkpt lat="42.10103458275197" lon="13.510102873455137"><ele>957.0</ele><time>2026-05-03T14:07:14.999Z</time></trkpt><trkpt lat="42.100951548985314" lon="13.509997763985995"><ele>957.0</ele><time>2026-05-03T14:07:15.999Z</time></trkpt><trkpt lat="42.100875169167395" lon="13.509909642987058"><ele>957.0</ele><time>2026-05-03T14:07:16.999Z</time></trkpt><trkpt lat="42.1008265716231" lon="13.509840439864611"><ele>957.0</ele><time>2026-05-03T14:07:17.999Z</time></trkpt><trkpt lat="42.10078988743217" lon="13.509729267604424"><ele>956.8333333333334</ele><time>2026-05-03T14:07:19.999Z</time></trkpt><trkpt lat="42.10081890134719" lon="13.509566046067777"><ele>956.6666666666667</ele><time>2026-05-03T14:07:22.999Z</time></trkpt><trkpt lat="42.10088477838119" lon="13.509484745279961"><ele>956.5</ele><time>2026-05-03T14:07:24.999Z</time></trkpt><trkpt lat="42.10094457418101" lon="13.50938077940038"><ele>956.3333333333334</ele><time>2026-05-03T14:07:26.999Z</time></trkpt><trkpt lat="42.10098196986035" lon="13.509302621012129"><ele>956.1666666666667</ele><time>2026-05-03T14:07:29Z</time></trkpt><trkpt lat="42.101019156995356" lon="13.509230868878502"><ele>956.0</ele><time>2026-05-03T14:07:31Z</time></trkpt><trkpt lat="42.1010697048848" lon="13.50916191991455"><ele>956.0000000000001</ele><time>2026-05-03T14:07:33Z</time></trkpt><trkpt lat="42.10112151186378" lon="13.509085562350766"><ele>956.0</ele><time>2026-05-03T14:07:35Z</time></trkpt><trkpt lat="42.10118443088323" lon="13.508998694173924"><ele>956.0</ele><time>2026-05-03T14:07:37Z</time></trkpt><trkpt lat="42.10125274546734" lon="13.508909742913632"><ele>956.0</ele><time>2026-05-03T14:07:39Z</time></trkpt><trkpt lat="42.10131737278795" lon="13.508824914972958"><ele>956.0000000000001</ele><time>2026-05-03T14:07:41Z</time></trkpt><trkpt lat="42.10138253383019" lon="13.508749519149175"><ele>956.0</ele><time>2026-05-03T14:07:43Z</time></trkpt><trkpt lat="42.1014768738193" lon="13.508627340041592"><ele>955.4</ele><time>2026-05-03T14:07:45Z</time></trkpt><trkpt lat="42.101544917203945" lon="13.508533219677384"><ele>954.8</ele><time>2026-05-03T14:07:46Z</time></trkpt><trkpt lat="42.10162636154322" lon="13.508430388006063"><ele>954.1999999999999</ele><time>2026-05-03T14:07:47Z</time></trkpt><trkpt lat="42.10170712646097" lon="13.508326311591977"><ele>953.5999999999999</ele><time>2026-05-03T14:07:48Z</time></trkpt><trkpt lat="42.1017925670341" lon="13.508214685920501"><ele>953.0</ele><time>2026-05-03T14:07:49Z</time></trkpt><trkpt lat="42.101879832138316" lon="13.508098740655674"><ele>953.0</ele><time>2026-05-03T14:07:50Z</time></trkpt><trkpt lat="42.10196879032859" lon="13.507977841834538"><ele>953.0</ele><time>2026-05-03T14:07:51Z</time></trkpt><trkpt lat="42.10205575587795" lon="13.507852798048333"><ele>953.0</ele><time>2026-05-03T14:07:52Z</time></trkpt><trkpt lat="42.10213540215437" lon="13.507723257379695"><ele>953.0</ele><time>2026-05-03T14:07:53Z</time></trkpt><trkpt lat="42.102225900998405" lon="13.50760753416609"><ele>951.5</ele><time>2026-05-03T14:07:54Z</time></trkpt><trkpt lat="42.1022876548183" lon="13.507453866655242"><ele>950.0</ele><time>2026-05-03T14:07:55Z</time></trkpt><trkpt lat="42.10236948141444" lon="13.507311185052654"><ele>948.5</ele><time>2026-05-03T14:07:56Z</time></trkpt><trkpt lat="42.10243888266229" lon="13.507140874128288"><ele>947.0</ele><time>2026-05-03T14:07:57Z</time></trkpt><trkpt lat="42.10250348145882" lon="13.506978405714356"><ele>950.0</ele><time>2026-05-03T14:07:58Z</time></trkpt><trkpt lat="42.102568023960224" lon="13.506822665696777"><ele>953.0</ele><time>2026-05-03T14:07:59Z</time></trkpt><trkpt lat="42.10263151740468" lon="13.506665367445356"><ele>956.0</ele><time>2026-05-03T14:08:00Z</time></trkpt><trkpt lat="42.1026913553672" lon="13.50649283231281"><ele>959.0</ele><time>2026-05-03T14:08:01Z</time></trkpt><trkpt lat="42.10274787962138" lon="13.506300358472723"><ele>956.3333333333334</ele><time>2026-05-03T14:08:02Z</time></trkpt><trkpt lat="42.10280059706562" lon="13.506115609733625"><ele>953.6666666666667</ele><time>2026-05-03T14:08:03Z</time></trkpt><trkpt lat="42.10285242956849" lon="13.505923027703679"><ele>951.0</ele><time>2026-05-03T14:08:04Z</time></trkpt><trkpt lat="42.10290704215067" lon="13.50572503707267"><ele>951.0</ele><time>2026-05-03T14:08:05Z</time></trkpt><trkpt lat="42.1029597259142" lon="13.505532207075817"><ele>951.0</ele><time>2026-05-03T14:08:06Z</time></trkpt><trkpt lat="42.103019741465026" lon="13.50534771452949"><ele>951.0</ele><time>2026-05-03T14:08:07Z</time></trkpt><trkpt lat="42.10308796312202" lon="13.505182195923453"><ele>951.0</ele><time>2026-05-03T14:08:08Z</time></trkpt><trkpt lat="42.10317708502086" lon="13.505038604198232"><ele>956.3333333333333</ele><time>2026-05-03T14:08:09Z</time></trkpt><trkpt lat="42.103291395036635" lon="13.504918306932503"><ele>961.6666666666666</ele><time>2026-05-03T14:08:10Z</time></trkpt><trkpt lat="42.10342610507828" lon="13.504823664402593"><ele>967.0</ele><time>2026-05-03T14:08:11Z</time></trkpt><trkpt lat="42.10357729458718" lon="13.504750100810165"><ele>967.0</ele><time>2026-05-03T14:08:12Z</time></trkpt><trkpt lat="42.103737444747" lon="13.504653793548561"><ele>967.0</ele><time>2026-05-03T14:08:13Z</time></trkpt><trkpt lat="42.10389603882408" lon="13.504528623402628"><ele>967.0</ele><time>2026-05-03T14:08:14Z</time></trkpt><trkpt lat="42.10404361288686" lon="13.504384284495531"><ele>968.3333333333333</ele><time>2026-05-03T14:08:15Z</time></trkpt><trkpt lat="42.10418631261449" lon="13.50424891828309"><ele>969.6666666666667</ele><time>2026-05-03T14:08:16Z</time></trkpt><trkpt lat="42.104298619118985" lon="13.504093742379332"><ele>971.0</ele><time>2026-05-03T14:08:17Z</time></trkpt><trkpt lat="42.10440398707824" lon="13.503913131218209"><ele>970.0</ele><time>2026-05-03T14:08:18Z</time></trkpt><trkpt lat="42.10450004794288" lon="13.503719601247377"><ele>969.0</ele><time>2026-05-03T14:08:19Z</time></trkpt><trkpt lat="42.104591583700376" lon="13.503526722750498"><ele>968.0</ele><time>2026-05-03T14:08:20Z</time></trkpt><trkpt lat="42.10467776502871" lon="13.50333723519215"><ele>968.0</ele><time>2026-05-03T14:08:21Z</time></trkpt><trkpt lat="42.1047456487055" lon="13.503132332155065"><ele>968.0</ele><time>2026-05-03T14:08:22Z</time></trkpt><trkpt lat="42.10484049962681" lon="13.502934777235529"><ele>968.0</ele><time>2026-05-03T14:08:23Z</time></trkpt><trkpt lat="42.104914716578755" lon="13.502708237587527"><ele>973.6666666666667</ele><time>2026-05-03T14:08:24Z</time></trkpt><trkpt lat="42.10498030371136" lon="13.502480418442119"><ele>979.3333333333333</ele><time>2026-05-03T14:08:25Z</time></trkpt><trkpt lat="42.10502666139009" lon="13.502258218447968"><ele>985.0</ele><time>2026-05-03T14:08:26Z</time></trkpt><trkpt lat="42.10508879895465" lon="13.502040163229903"><ele>985.0</ele><time>2026-05-03T14:08:27Z</time></trkpt><trkpt lat="42.10514894586125" lon="13.501813322317973"><ele>985.0</ele><time>2026-05-03T14:08:28Z</time></trkpt><trkpt lat="42.10521654647226" lon="13.501592351684371"><ele>985.0</ele><time>2026-05-03T14:08:29Z</time></trkpt><trkpt lat="42.1052738303415" lon="13.501355119637998"><ele>984.6666666666666</ele><time>2026-05-03T14:08:30Z</time></trkpt><trkpt lat="42.10532677229539" lon="13.501117126360095"><ele>984.3333333333333</ele><time>2026-05-03T14:08:31Z</time></trkpt><trkpt lat="42.10537488744328" lon="13.500874933852055"><ele>984.0</ele><time>2026-05-03T14:08:32Z</time></trkpt><trkpt lat="42.10539163786039" lon="13.500651438566674"><ele>984.0</ele><time>2026-05-03T14:08:33Z</time></trkpt><trkpt lat="42.10539830498409" lon="13.500441107086962"><ele>984.0</ele><time>2026-05-03T14:08:34Z</time></trkpt><trkpt lat="42.10541530395493" lon="13.50027191325083"><ele>984.0</ele><time>2026-05-03T14:08:35Z</time></trkpt><trkpt lat="42.1054164214345" lon="13.50010422699336"><ele>984.0</ele><time>2026-05-03T14:08:36Z</time></trkpt><trkpt lat="42.105401577573154" lon="13.499915177023178"><ele>986.6666666666667</ele><time>2026-05-03T14:08:37Z</time></trkpt><trkpt lat="42.105334181839154" lon="13.499735786846603"><ele>989.3333333333334</ele><time>2026-05-03T14:08:38Z</time></trkpt><trkpt lat="42.10522126090932" lon="13.499585370274106"><ele>992.0</ele><time>2026-05-03T14:08:39Z</time></trkpt><trkpt lat="42.105097184969146" lon="13.499424895087511"><ele>992.0</ele><time>2026-05-03T14:08:40Z</time></trkpt><trkpt lat="42.104975171501245" lon="13.499255028720928"><ele>992.0</ele><time>2026-05-03T14:08:41Z</time></trkpt><trkpt lat="42.10484937369292" lon="13.49910906875876"><ele>992.0</ele><time>2026-05-03T14:08:42Z</time></trkpt><trkpt lat="42.10476457745489" lon="13.498996410021823"><ele>992.0</ele><time>2026-05-03T14:08:43Z</time></trkpt><trkpt lat="42.10467214894629" lon="13.498882358979001"><ele>992.0</ele><time>2026-05-03T14:08:44Z</time></trkpt><trkpt lat="42.10459691793114" lon="13.498714148212581"><ele>992.0</ele><time>2026-05-03T14:08:45Z</time></trkpt><trkpt lat="42.104550009333195" lon="13.498535192932732"><ele>992.0</ele><time>2026-05-03T14:08:46Z</time></trkpt><trkpt lat="42.10452301717308" lon="13.49834692088493"><ele>992.5</ele><time>2026-05-03T14:08:47Z</time></trkpt><trkpt lat="42.104526877005284" lon="13.498157687947996"><ele>993.0</ele><time>2026-05-03T14:08:48Z</time></trkpt><trkpt lat="42.10456471085293" lon="13.49798545351259"><ele>993.5</ele><time>2026-05-03T14:08:49Z</time></trkpt><trkpt lat="42.10466037318879" lon="13.497840882361825"><ele>994.0</ele><time>2026-05-03T14:08:50Z</time></trkpt><trkpt lat="42.104757623850624" lon="13.497683981798327"><ele>994.0</ele><time>2026-05-03T14:08:50.999Z</time></trkpt><trkpt lat="42.10489597615567" lon="13.497552186747495"><ele>994.0</ele><time>2026-05-03T14:08:51.999Z</time></trkpt><trkpt lat="42.105055718134096" lon="13.497416813359349"><ele>994.0</ele><time>2026-05-03T14:08:52.999Z</time></trkpt><trkpt lat="42.10522892285114" lon="13.497272600902672"><ele>996.3333333333333</ele><time>2026-05-03T14:08:53.999Z</time></trkpt><trkpt lat="42.10540969578332" lon="13.497122333766972"><ele>998.6666666666667</ele><time>2026-05-03T14:08:54.999Z</time></trkpt><trkpt lat="42.10559542450777" lon="13.49697036933366"><ele>1001.0</ele><time>2026-05-03T14:08:55.999Z</time></trkpt><trkpt lat="42.10577717418484" lon="13.496818432851999"><ele>1004.0</ele><time>2026-05-03T14:08:56.999Z</time></trkpt><trkpt lat="42.10595396967914" lon="13.496673633714089"><ele>1007.0</ele><time>2026-05-03T14:08:57.999Z</time></trkpt><trkpt lat="42.106116607609565" lon="13.496544315721785"><ele>1010.0</ele><time>2026-05-03T14:08:58.999Z</time></trkpt><trkpt lat="42.106268244244035" lon="13.496402309142308"><ele>1009.0</ele><time>2026-05-03T14:08:59.999Z</time></trkpt><trkpt lat="42.10640494244547" lon="13.496220996022869"><ele>1008.0</ele><time>2026-05-03T14:09:00.999Z</time></trkpt><trkpt lat="42.10651579080622" lon="13.496022314374391"><ele>1007.0</ele><time>2026-05-03T14:09:01.999Z</time></trkpt><trkpt lat="42.106600751568195" lon="13.495804658224431"><ele>1010.6666666666667</ele><time>2026-05-03T14:09:02.999Z</time></trkpt><trkpt lat="42.106667621019085" lon="13.495556588275173"><ele>1014.3333333333333</ele><time>2026-05-03T14:09:03.999Z</time></trkpt><trkpt lat="42.106719266405584" lon="13.4952866108797"><ele>1018.0</ele><time>2026-05-03T14:09:04.999Z</time></trkpt><trkpt lat="42.10676487483248" lon="13.4950158066033"><ele>1018.0</ele><time>2026-05-03T14:09:05.999Z</time></trkpt><trkpt lat="42.10680640473116" lon="13.494774925539414"><ele>1018.0</ele><time>2026-05-03T14:09:06.999Z</time></trkpt><trkpt lat="42.106858840644634" lon="13.4945514908429"><ele>1018.0</ele><time>2026-05-03T14:09:07.999Z</time></trkpt><trkpt lat="42.10693775830592" lon="13.49433569993113"><ele>1017.3333333333333</ele><time>2026-05-03T14:09:08.999Z</time></trkpt><trkpt lat="42.10705109073842" lon="13.494134075773584"><ele>1016.6666666666667</ele><time>2026-05-03T14:09:09.999Z</time></trkpt><trkpt lat="42.1071789526724" lon="13.49395588446081"><ele>1016.0</ele><time>2026-05-03T14:09:10.999Z</time></trkpt><trkpt lat="42.107304831386365" lon="13.493798173711692"><ele>1020.6666666666667</ele><time>2026-05-03T14:09:11.999Z</time></trkpt><trkpt lat="42.10741263365005" lon="13.493641219142742"><ele>1025.3333333333333</ele><time>2026-05-03T14:09:12.999Z</time></trkpt><trkpt lat="42.10751751876849" lon="13.493485345448237"><ele>1030.0</ele><time>2026-05-03T14:09:13.999Z</time></trkpt><trkpt lat="42.10760778122724" lon="13.493338758420713"><ele>1030.0</ele><time>2026-05-03T14:09:14.999Z</time></trkpt><trkpt lat="42.10766155039614" lon="13.493170765320023"><ele>1030.0</ele><time>2026-05-03T14:09:15.999Z</time></trkpt><trkpt lat="42.107679730489444" lon="13.492980402783072"><ele>1030.0</ele><time>2026-05-03T14:09:16.999Z</time></trkpt><trkpt lat="42.10765870395064" lon="13.49277776411694"><ele>1030.0</ele><time>2026-05-03T14:09:17.999Z</time></trkpt><trkpt lat="42.10760347863807" lon="13.492554777106758"><ele>1032.0</ele><time>2026-05-03T14:09:18.999Z</time></trkpt><trkpt lat="42.107553743724736" lon="13.492326118309382"><ele>1034.0</ele><time>2026-05-03T14:09:19.999Z</time></trkpt><trkpt lat="42.107504415150586" lon="13.492102836214286"><ele>1036.0</ele><time>2026-05-03T14:09:20.999Z</time></trkpt><trkpt lat="42.10744244706531" lon="13.491895070719952"><ele>1030.6666666666665</ele><time>2026-05-03T14:09:21.999Z</time></trkpt><trkpt lat="42.10736754616904" lon="13.491702452571708"><ele>1025.3333333333333</ele><time>2026-05-03T14:09:22.999Z</time></trkpt><trkpt lat="42.10726528218009" lon="13.49153335798203"><ele>1020.0</ele><time>2026-05-03T14:09:23.999Z</time></trkpt><trkpt lat="42.10715387194243" lon="13.491381236148818"><ele>1023.0</ele><time>2026-05-03T14:09:24.999Z</time></trkpt><trkpt lat="42.10708400082245" lon="13.491206833133068"><ele>1026.0</ele><time>2026-05-03T14:09:25.999Z</time></trkpt><trkpt lat="42.107062144232906" lon="13.49099742930316"><ele>1029.0</ele><time>2026-05-03T14:09:26.999Z</time></trkpt><trkpt lat="42.10707436270135" lon="13.490775479343665"><ele>1029.0</ele><time>2026-05-03T14:09:27.999Z</time></trkpt><trkpt lat="42.10711543574621" lon="13.49053383780067"><ele>1029.0</ele><time>2026-05-03T14:09:28.999Z</time></trkpt><trkpt lat="42.10716399803026" lon="13.490287018694161"><ele>1029.0</ele><time>2026-05-03T14:09:29.999Z</time></trkpt><trkpt lat="42.10721691824294" lon="13.49002311636834"><ele>1030.3333333333333</ele><time>2026-05-03T14:09:30.999Z</time></trkpt><trkpt lat="42.10726833732788" lon="13.489757605179632"><ele>1031.6666666666665</ele><time>2026-05-03T14:09:31.999Z</time></trkpt><trkpt lat="42.10730849790653" lon="13.489520160027062"><ele>1033.0</ele><time>2026-05-03T14:09:32.999Z</time></trkpt><trkpt lat="42.10734905002847" lon="13.489300111061825"><ele>1035.0</ele><time>2026-05-03T14:09:33.999Z</time></trkpt><trkpt lat="42.10739725015113" lon="13.489088084890106"><ele>1037.0</ele><time>2026-05-03T14:09:35Z</time></trkpt><trkpt lat="42.10747015377194" lon="13.488889892495669"><ele>1039.0</ele><time>2026-05-03T14:09:36Z</time></trkpt><trkpt lat="42.10757072111312" lon="13.488732248915431"><ele>1041.6666666666665</ele><time>2026-05-03T14:09:37Z</time></trkpt><trkpt lat="42.107699799256956" lon="13.48861040492652"><ele>1044.3333333333333</ele><time>2026-05-03T14:09:38Z</time></trkpt><trkpt lat="42.1078549927455" lon="13.488511170932814"><ele>1047.0</ele><time>2026-05-03T14:09:39Z</time></trkpt><trkpt lat="42.10803888625269" lon="13.48846313774686"><ele>1047.0</ele><time>2026-05-03T14:09:40Z</time></trkpt><trkpt lat="42.10823089518329" lon="13.488378571336272"><ele>1047.0</ele><time>2026-05-03T14:09:41Z</time></trkpt><trkpt lat="42.10843241022057" lon="13.488280403438988"><ele>1047.0</ele><time>2026-05-03T14:09:42Z</time></trkpt><trkpt lat="42.108594094702354" lon="13.488135919212949"><ele>1050.3333333333333</ele><time>2026-05-03T14:09:43Z</time></trkpt><trkpt lat="42.10874490307762" lon="13.48795850486613"><ele>1053.6666666666665</ele><time>2026-05-03T14:09:44Z</time></trkpt><trkpt lat="42.10889195113391" lon="13.487742651146117"><ele>1057.0</ele><time>2026-05-03T14:09:45Z</time></trkpt><trkpt lat="42.10902733832157" lon="13.48749341699625"><ele>1063.0</ele><time>2026-05-03T14:09:46Z</time></trkpt><trkpt lat="42.10915627580216" lon="13.487229184465948"><ele>1069.0</ele><time>2026-05-03T14:09:47Z</time></trkpt><trkpt lat="42.109294905361466" lon="13.486984370467251"><ele>1069.0</ele><time>2026-05-03T14:09:48Z</time></trkpt><trkpt lat="42.1094117518488" lon="13.486744334440084"><ele>1069.0</ele><time>2026-05-03T14:09:49Z</time></trkpt><trkpt lat="42.10952220669297" lon="13.48651689823839"><ele>1069.0</ele><time>2026-05-03T14:09:50Z</time></trkpt><trkpt lat="42.10963603367235" lon="13.486269247752633"><ele>1067.3333333333333</ele><time>2026-05-03T14:09:51Z</time></trkpt><trkpt lat="42.109755617769146" lon="13.486045088535501"><ele>1065.6666666666667</ele><time>2026-05-03T14:09:52Z</time></trkpt><trkpt lat="42.10985747019219" lon="13.485835592660472"><ele>1064.0</ele><time>2026-05-03T14:09:53Z</time></trkpt><trkpt lat="42.10994782996782" lon="13.48563757342365"><ele>1069.6666666666667</ele><time>2026-05-03T14:09:54Z</time></trkpt><trkpt lat="42.11000674558847" lon="13.485437399800599"><ele>1075.3333333333333</ele><time>2026-05-03T14:09:55Z</time></trkpt><trkpt lat="42.11003380927494" lon="13.485212846707645"><ele>1081.0</ele><time>2026-05-03T14:09:56Z</time></trkpt><trkpt lat="42.11003059907193" lon="13.484969397309516"><ele>1081.6666666666665</ele><time>2026-05-03T14:09:57Z</time></trkpt><trkpt lat="42.11000584299773" lon="13.484717917421115"><ele>1082.3333333333333</ele><time>2026-05-03T14:09:58Z</time></trkpt><trkpt lat="42.109949231386146" lon="13.484474491855238"><ele>1083.0</ele><time>2026-05-03T14:09:59Z</time></trkpt><trkpt lat="42.10993595382859" lon="13.484224911575623"><ele>1084.6666666666667</ele><time>2026-05-03T14:10:00Z</time></trkpt><trkpt lat="42.10993100226238" lon="13.48399438177034"><ele>1086.3333333333335</ele><time>2026-05-03T14:10:01Z</time></trkpt><trkpt lat="42.10994634336918" lon="13.483760604810016"><ele>1088.0</ele><time>2026-05-03T14:10:02Z</time></trkpt><trkpt lat="42.109994813085095" lon="13.483524216860975"><ele>1088.0</ele><time>2026-05-03T14:10:03Z</time></trkpt><trkpt lat="42.11007092327565" lon="13.483302708936684"><ele>1088.0</ele><time>2026-05-03T14:10:04Z</time></trkpt><trkpt lat="42.11019044885884" lon="13.483096172171672"><ele>1088.0</ele><time>2026-05-03T14:10:05Z</time></trkpt><trkpt lat="42.110312692905204" lon="13.482895154186993"><ele>1085.6666666666667</ele><time>2026-05-03T14:10:06Z</time></trkpt><trkpt lat="42.110456562927205" lon="13.482714239807278"><ele>1083.3333333333333</ele><time>2026-05-03T14:10:07Z</time></trkpt><trkpt lat="42.110604791801066" lon="13.482544521494999"><ele>1081.0</ele><time>2026-05-03T14:10:08Z</time></trkpt><trkpt lat="42.110738372579895" lon="13.48236017468487"><ele>1086.0</ele><time>2026-05-03T14:10:09Z</time></trkpt><trkpt lat="42.11086105754363" lon="13.482206396021848"><ele>1091.0</ele><time>2026-05-03T14:10:10Z</time></trkpt><trkpt lat="42.11096938777577" lon="13.482009257423352"><ele>1096.0</ele><time>2026-05-03T14:10:11Z</time></trkpt><trkpt lat="42.1110504509007" lon="13.48177103231276"><ele>1096.0</ele><time>2026-05-03T14:10:12Z</time></trkpt><trkpt lat="42.11111317074458" lon="13.481516346546716"><ele>1096.0</ele><time>2026-05-03T14:10:13Z</time></trkpt><trkpt lat="42.11115661430578" lon="13.481249081108688"><ele>1096.0</ele><time>2026-05-03T14:10:14Z</time></trkpt><trkpt lat="42.11122286295879" lon="13.480978959409384"><ele>1096.3333333333333</ele><time>2026-05-03T14:10:15Z</time></trkpt><trkpt lat="42.11127030844414" lon="13.480703843989113"><ele>1096.6666666666667</ele><time>2026-05-03T14:10:16Z</time></trkpt><trkpt lat="42.11130021487939" lon="13.48045111027688"><ele>1097.0</ele><time>2026-05-03T14:10:17Z</time></trkpt><trkpt lat="42.11131797463224" lon="13.480198920864678"><ele>1097.6666666666667</ele><time>2026-05-03T14:10:18Z</time></trkpt><trkpt lat="42.11133975245212" lon="13.479929764301929"><ele>1098.3333333333333</ele><time>2026-05-03T14:10:19Z</time></trkpt><trkpt lat="42.11128966251967" lon="13.479659395388898"><ele>1099.0</ele><time>2026-05-03T14:10:20Z</time></trkpt><trkpt lat="42.111228061142654" lon="13.479391238851289"><ele>1102.0</ele><time>2026-05-03T14:10:21Z</time></trkpt><trkpt lat="42.11116461291131" lon="13.47911352034049"><ele>1105.0</ele><time>2026-05-03T14:10:22Z</time></trkpt><trkpt lat="42.11109566969295" lon="13.478847984134607"><ele>1108.0</ele><time>2026-05-03T14:10:23Z</time></trkpt><trkpt lat="42.11103436739863" lon="13.478599558305037"><ele>1108.6666666666665</ele><time>2026-05-03T14:10:24Z</time></trkpt><trkpt lat="42.11097260901339" lon="13.47834045366877"><ele>1109.3333333333333</ele><time>2026-05-03T14:10:25Z</time></trkpt><trkpt lat="42.11097183879671" lon="13.478063775578002"><ele>1110.0</ele><time>2026-05-03T14:10:26Z</time></trkpt><trkpt lat="42.11094771045762" lon="13.477795982514483"><ele>1110.0</ele><time>2026-05-03T14:10:27Z</time></trkpt><trkpt lat="42.11092956918307" lon="13.477532281281498"><ele>1110.0</ele><time>2026-05-03T14:10:28Z</time></trkpt><trkpt lat="42.11087950210407" lon="13.47728105685398"><ele>1110.0</ele><time>2026-05-03T14:10:29Z</time></trkpt><trkpt lat="42.11080223869504" lon="13.477029542129694"><ele>1105.6666666666667</ele><time>2026-05-03T14:10:30Z</time></trkpt><trkpt lat="42.110685334388776" lon="13.476836882458503"><ele>1101.3333333333335</ele><time>2026-05-03T14:10:31Z</time></trkpt><trkpt lat="42.110557199571716" lon="13.476630577269985"><ele>1097.0</ele><time>2026-05-03T14:10:32Z</time></trkpt><trkpt lat="42.11042580803628" lon="13.47642012914465"><ele>1098.6666666666667</ele><time>2026-05-03T14:10:33Z</time></trkpt><trkpt lat="42.11031887799817" lon="13.476196271138058"><ele>1100.3333333333333</ele><time>2026-05-03T14:10:34Z</time></trkpt><trkpt lat="42.11023906787853" lon="13.47594070376795"><ele>1102.0</ele><time>2026-05-03T14:10:35Z</time></trkpt><trkpt lat="42.11018086632909" lon="13.47565179643706"><ele>1101.5</ele><time>2026-05-03T14:10:36Z</time></trkpt><trkpt lat="42.11013814084567" lon="13.475349958710956"><ele>1101.0</ele><time>2026-05-03T14:10:37Z</time></trkpt><trkpt lat="42.11010097965419" lon="13.475053731506378"><ele>1101.0</ele><time>2026-05-03T14:10:38Z</time></trkpt><trkpt lat="42.11003302902409" lon="13.47476426372145"><ele>1101.0</ele><time>2026-05-03T14:10:38.999Z</time></trkpt><trkpt lat="42.109919684737264" lon="13.474469266661554"><ele>1095.0</ele><time>2026-05-03T14:10:39.999Z</time></trkpt><trkpt lat="42.10978002090875" lon="13.47416917005978"><ele>1089.0</ele><time>2026-05-03T14:10:40.999Z</time></trkpt><trkpt lat="42.10964341567157" lon="13.47386408191638"><ele>1091.5</ele><time>2026-05-03T14:10:41.999Z</time></trkpt><trkpt lat="42.109514364080106" lon="13.4735719646071"><ele>1094.0</ele><time>2026-05-03T14:10:42.999Z</time></trkpt><trkpt lat="42.10939655195495" lon="13.473297283798658"><ele>1094.0</ele><time>2026-05-03T14:10:43.999Z</time></trkpt><trkpt lat="42.109281091855166" lon="13.473023648326368"><ele>1094.0</ele><time>2026-05-03T14:10:44.999Z</time></trkpt><trkpt lat="42.10918218260631" lon="13.472744098844931"><ele>1095.5</ele><time>2026-05-03T14:10:45.999Z</time></trkpt><trkpt lat="42.109101917584994" lon="13.472438984007454"><ele>1097.0</ele><time>2026-05-03T14:10:46.999Z</time></trkpt><trkpt lat="42.109033996994185" lon="13.47214007332293"><ele>1094.6666666666667</ele><time>2026-05-03T14:10:47.999Z</time></trkpt><trkpt lat="42.10896707489917" lon="13.471861502695885"><ele>1092.3333333333333</ele><time>2026-05-03T14:10:48.999Z</time></trkpt><trkpt lat="42.10888669919877" lon="13.471586070560218"><ele>1090.0</ele><time>2026-05-03T14:10:49.999Z</time></trkpt><trkpt lat="42.10884496567004" lon="13.471320687726266"><ele>1090.3333333333333</ele><time>2026-05-03T14:10:50.999Z</time></trkpt><trkpt lat="42.108811162180615" lon="13.471057117278397"><ele>1090.6666666666667</ele><time>2026-05-03T14:10:51.999Z</time></trkpt><trkpt lat="42.10882638673584" lon="13.470784116517288"><ele>1091.0</ele><time>2026-05-03T14:10:52.999Z</time></trkpt><trkpt lat="42.10882349927844" lon="13.470515991142035"><ele>1089.6666666666667</ele><time>2026-05-03T14:10:53.999Z</time></trkpt><trkpt lat="42.10883863772951" lon="13.470253465365678"><ele>1088.3333333333333</ele><time>2026-05-03T14:10:54.999Z</time></trkpt><trkpt lat="42.10882856657093" lon="13.46999375949722"><ele>1087.0</ele><time>2026-05-03T14:10:55.999Z</time></trkpt><trkpt lat="42.108781463544894" lon="13.46972711546329"><ele>1086.5</ele><time>2026-05-03T14:10:56.999Z</time></trkpt><trkpt lat="42.10869604335101" lon="13.469447965525928"><ele>1086.0</ele><time>2026-05-03T14:10:57.999Z</time></trkpt><trkpt lat="42.10858025530605" lon="13.469141479985208"><ele>1086.0</ele><time>2026-05-03T14:10:58.999Z</time></trkpt><trkpt lat="42.1084850631208" lon="13.46881498196218"><ele>1086.0</ele><time>2026-05-03T14:10:59.999Z</time></trkpt><trkpt lat="42.108336374587225" lon="13.468501978629856"><ele>1087.0</ele><time>2026-05-03T14:11:00.999Z</time></trkpt><trkpt lat="42.10821777081527" lon="13.468155902010079"><ele>1088.0</ele><time>2026-05-03T14:11:01.999Z</time></trkpt><trkpt lat="42.10809462633975" lon="13.467813683075018"><ele>1088.0</ele><time>2026-05-03T14:11:02.999Z</time></trkpt><trkpt lat="42.10797719800767" lon="13.467494868832159"><ele>1088.0</ele><time>2026-05-03T14:11:03.999Z</time></trkpt><trkpt lat="42.10786747780712" lon="13.467189471273679"><ele>1090.5</ele><time>2026-05-03T14:11:04.999Z</time></trkpt><trkpt lat="42.10775823396461" lon="13.466897768137"><ele>1093.0</ele><time>2026-05-03T14:11:05.999Z</time></trkpt><trkpt lat="42.10766916929126" lon="13.46663633490141"><ele>1093.0</ele><time>2026-05-03T14:11:06.999Z</time></trkpt><trkpt lat="42.107571846049304" lon="13.466373368017175"><ele>1093.0</ele><time>2026-05-03T14:11:07.999Z</time></trkpt><trkpt lat="42.1074892676551" lon="13.466127103187022"><ele>1093.0</ele><time>2026-05-03T14:11:08.999Z</time></trkpt><trkpt lat="42.10743269958157" lon="13.46588854215886"><ele>1094.0</ele><time>2026-05-03T14:11:09.999Z</time></trkpt><trkpt lat="42.107395976420705" lon="13.465652689829016"><ele>1095.0</ele><time>2026-05-03T14:11:10.999Z</time></trkpt><trkpt lat="42.107384693919975" lon="13.465418621686505"><ele>1096.0</ele><time>2026-05-03T14:11:11.999Z</time></trkpt><trkpt lat="42.10740041273831" lon="13.465185718142665"><ele>1097.0</ele><time>2026-05-03T14:11:12.999Z</time></trkpt><trkpt lat="42.10744939020362" lon="13.464956730720514"><ele>1098.0</ele><time>2026-05-03T14:11:13.999Z</time></trkpt><trkpt lat="42.107523806697216" lon="13.464738608640578"><ele>1099.0</ele><time>2026-05-03T14:11:14.999Z</time></trkpt><trkpt lat="42.107626872675105" lon="13.464521775544904"><ele>1099.0</ele><time>2026-05-03T14:11:15.999Z</time></trkpt><trkpt lat="42.107747669789816" lon="13.464303162782599"><ele>1099.0</ele><time>2026-05-03T14:11:16.999Z</time></trkpt><trkpt lat="42.10787600020983" lon="13.464072376764515"><ele>1099.0</ele><time>2026-05-03T14:11:17.999Z</time></trkpt><trkpt lat="42.1080085971473" lon="13.46382665703434"><ele>1099.0</ele><time>2026-05-03T14:11:18.999Z</time></trkpt><trkpt lat="42.108145382146645" lon="13.463564421833066"><ele>1099.0</ele><time>2026-05-03T14:11:19.999Z</time></trkpt><trkpt lat="42.10827982354119" lon="13.463301692274037"><ele>1101.6666666666665</ele><time>2026-05-03T14:11:20.999Z</time></trkpt><trkpt lat="42.10838960830475" lon="13.463058813700945"><ele>1104.3333333333333</ele><time>2026-05-03T14:11:21.999Z</time></trkpt><trkpt lat="42.10848177817828" lon="13.462817311699574"><ele>1107.0</ele><time>2026-05-03T14:11:22.999Z</time></trkpt><trkpt lat="42.10855817101489" lon="13.462574627348486"><ele>1108.3333333333333</ele><time>2026-05-03T14:11:23.999Z</time></trkpt><trkpt lat="42.108616874358376" lon="13.46234320961526"><ele>1109.6666666666665</ele><time>2026-05-03T14:11:24.999Z</time></trkpt><trkpt lat="42.10867532401312" lon="13.462121658951798"><ele>1111.0</ele><time>2026-05-03T14:11:25.999Z</time></trkpt><trkpt lat="42.10873572161853" lon="13.461899418700066"><ele>1111.3333333333333</ele><time>2026-05-03T14:11:26.999Z</time></trkpt><trkpt lat="42.10879404624979" lon="13.461658121341316"><ele>1111.6666666666667</ele><time>2026-05-03T14:11:27.999Z</time></trkpt><trkpt lat="42.10884745802221" lon="13.46143266240137"><ele>1112.0</ele><time>2026-05-03T14:11:28.999Z</time></trkpt><trkpt lat="42.10890120035839" lon="13.46120907078405"><ele>1111.3333333333335</ele><time>2026-05-03T14:11:29.999Z</time></trkpt><trkpt lat="42.10896584049229" lon="13.46097544704633"><ele>1110.6666666666667</ele><time>2026-05-03T14:11:30.999Z</time></trkpt><trkpt lat="42.10906617421478" lon="13.460763829615031"><ele>1110.0</ele><time>2026-05-03T14:11:31.999Z</time></trkpt><trkpt lat="42.10918807548536" lon="13.46058176616773"><ele>1106.6666666666667</ele><time>2026-05-03T14:11:32.999Z</time></trkpt><trkpt lat="42.10932587785896" lon="13.460423724324144"><ele>1103.3333333333335</ele><time>2026-05-03T14:11:33.999Z</time></trkpt><trkpt lat="42.10946299237197" lon="13.46026481872472"><ele>1100.0</ele><time>2026-05-03T14:11:34.999Z</time></trkpt><trkpt lat="42.10960592091964" lon="13.460094874194136"><ele>1100.0</ele><time>2026-05-03T14:11:35.999Z</time></trkpt><trkpt lat="42.10974805111766" lon="13.459929749915656"><ele>1100.0</ele><time>2026-05-03T14:11:36.999Z</time></trkpt><trkpt lat="42.10988833989578" lon="13.459756308517235"><ele>1100.0</ele><time>2026-05-03T14:11:37.999Z</time></trkpt><trkpt lat="42.110028250357495" lon="13.459582143761642"><ele>1098.3333333333335</ele><time>2026-05-03T14:11:38.999Z</time></trkpt><trkpt lat="42.11015516510473" lon="13.459412471248667"><ele>1096.6666666666667</ele><time>2026-05-03T14:11:39.999Z</time></trkpt><trkpt lat="42.11024348740105" lon="13.459223282675419"><ele>1095.0</ele><time>2026-05-03T14:11:41Z</time></trkpt><trkpt lat="42.110318341031125" lon="13.459038144638354"><ele>1095.0</ele><time>2026-05-03T14:11:42Z</time></trkpt><trkpt lat="42.1103777794649" lon="13.458857549794285"><ele>1095.0</ele><time>2026-05-03T14:11:43Z</time></trkpt><trkpt lat="42.11042321797001" lon="13.45863093713048"><ele>1095.0</ele><time>2026-05-03T14:11:44Z</time></trkpt><trkpt lat="42.11045234207098" lon="13.458376484724448"><ele>1093.0</ele><time>2026-05-03T14:11:45Z</time></trkpt><trkpt lat="42.11030543620307" lon="13.45798965007808"><ele>1091.0</ele><time>2026-05-03T14:11:46Z</time></trkpt><trkpt lat="42.1102865844125" lon="13.457700138782421"><ele>1089.6666666666667</ele><time>2026-05-03T14:11:47Z</time></trkpt><trkpt lat="42.11028184796966" lon="13.45741335071974"><ele>1088.3333333333333</ele><time>2026-05-03T14:11:48Z</time></trkpt><trkpt lat="42.11031139209551" lon="13.457136351330176"><ele>1087.0</ele><time>2026-05-03T14:11:49Z</time></trkpt><trkpt lat="42.11036798422263" lon="13.45687715097248"><ele>1084.5</ele><time>2026-05-03T14:11:50Z</time></trkpt><trkpt lat="42.11046002608441" lon="13.456608005531427"><ele>1082.0</ele><time>2026-05-03T14:11:51Z</time></trkpt><trkpt lat="42.11057600136572" lon="13.456336490848607"><ele>1083.0</ele><time>2026-05-03T14:11:52Z</time></trkpt><trkpt lat="42.110691854165445" lon="13.456079661855348"><ele>1084.0</ele><time>2026-05-03T14:11:53Z</time></trkpt><trkpt lat="42.11080095391469" lon="13.455832543541403"><ele>1085.0</ele><time>2026-05-03T14:11:54Z</time></trkpt><trkpt lat="42.11089836050891" lon="13.455605366572861"><ele>1082.0</ele><time>2026-05-03T14:11:55Z</time></trkpt><trkpt lat="42.11099670943668" lon="13.455383237718404"><ele>1079.0</ele><time>2026-05-03T14:11:56Z</time></trkpt><trkpt lat="42.111075218181014" lon="13.455150494356491"><ele>1076.0</ele><time>2026-05-03T14:11:57Z</time></trkpt><trkpt lat="42.11112171052803" lon="13.454890667125627"><ele>1076.0</ele><time>2026-05-03T14:11:58Z</time></trkpt><trkpt lat="42.11114014457034" lon="13.454626044734388"><ele>1076.0</ele><time>2026-05-03T14:11:59Z</time></trkpt><trkpt lat="42.111166396965906" lon="13.454370036863747"><ele>1076.0</ele><time>2026-05-03T14:12:00Z</time></trkpt><trkpt lat="42.11120229987073" lon="13.45410947571912"><ele>1075.6666666666667</ele><time>2026-05-03T14:12:01Z</time></trkpt><trkpt lat="42.11125372409086" lon="13.453841005985932"><ele>1075.3333333333333</ele><time>2026-05-03T14:12:02Z</time></trkpt><trkpt lat="42.11132332113226" lon="13.453576030429554"><ele>1075.0</ele><time>2026-05-03T14:12:03Z</time></trkpt><trkpt lat="42.111416171434996" lon="13.453303929333858"><ele>1071.0</ele><time>2026-05-03T14:12:04Z</time></trkpt><trkpt lat="42.11153422957476" lon="13.453004170904428"><ele>1067.0</ele><time>2026-05-03T14:12:05Z</time></trkpt><trkpt lat="42.11171051696528" lon="13.452708634474186"><ele>1067.0</ele><time>2026-05-03T14:12:06Z</time></trkpt><trkpt lat="42.11185334189743" lon="13.452369900241223"><ele>1067.0</ele><time>2026-05-03T14:12:07Z</time></trkpt><trkpt lat="42.11198403053716" lon="13.452061060020364"><ele>1063.0</ele><time>2026-05-03T14:12:08Z</time></trkpt><trkpt lat="42.112104467943325" lon="13.451769026963651"><ele>1059.0</ele><time>2026-05-03T14:12:09Z</time></trkpt><trkpt lat="42.11221460043777" lon="13.451496317547274"><ele>1060.0</ele><time>2026-05-03T14:12:10Z</time></trkpt><trkpt lat="42.112321083635514" lon="13.451212618457806"><ele>1061.0</ele><time>2026-05-03T14:12:11Z</time></trkpt><trkpt lat="42.11241191471233" lon="13.450931136833507"><ele>1061.0</ele><time>2026-05-03T14:12:12Z</time></trkpt><trkpt lat="42.11249265563034" lon="13.45063871741678"><ele>1061.0</ele><time>2026-05-03T14:12:13Z</time></trkpt><trkpt lat="42.1125659877111" lon="13.450324302117695"><ele>1057.0</ele><time>2026-05-03T14:12:14Z</time></trkpt><trkpt lat="42.11265840391282" lon="13.45001546620199"><ele>1053.0</ele><time>2026-05-03T14:12:15Z</time></trkpt><trkpt lat="42.11273379855497" lon="13.44972059441086"><ele>1050.5</ele><time>2026-05-03T14:12:16Z</time></trkpt><trkpt lat="42.112807924287964" lon="13.44942966028647"><ele>1048.0</ele><time>2026-05-03T14:12:17Z</time></trkpt><trkpt lat="42.112881717521006" lon="13.44914097636844"><ele>1048.0</ele><time>2026-05-03T14:12:18Z</time></trkpt><trkpt lat="42.11293896031788" lon="13.44885679819224"><ele>1048.0</ele><time>2026-05-03T14:12:19Z</time></trkpt><trkpt lat="42.113020533505576" lon="13.448600605023229"><ele>1048.0</ele><time>2026-05-03T14:12:20Z</time></trkpt><trkpt lat="42.11306899361206" lon="13.448351035913852"><ele>1046.0</ele><time>2026-05-03T14:12:21Z</time></trkpt><trkpt lat="42.113126346212766" lon="13.448125850491333"><ele>1044.0</ele><time>2026-05-03T14:12:22Z</time></trkpt><trkpt lat="42.1131861992637" lon="13.44792082501758"><ele>1042.0</ele><time>2026-05-03T14:12:23Z</time></trkpt><trkpt lat="42.11322829028607" lon="13.447730782702337"><ele>1040.5</ele><time>2026-05-03T14:12:24Z</time></trkpt><trkpt lat="42.1132319890233" lon="13.447541562704528"><ele>1039.0</ele><time>2026-05-03T14:12:25Z</time></trkpt><trkpt lat="42.113216386411736" lon="13.447381693805205"><ele>1037.5</ele><time>2026-05-03T14:12:26Z</time></trkpt><trkpt lat="42.11317537162773" lon="13.447237161842805"><ele>1036.0</ele><time>2026-05-03T14:12:27Z</time></trkpt><trkpt lat="42.11310715233528" lon="13.447187533425565"><ele>1036.0</ele><time>2026-05-03T14:12:28Z</time></trkpt><trkpt lat="42.11303870416707" lon="13.447134201996379"><ele>1036.0</ele><time>2026-05-03T14:12:29Z</time></trkpt><trkpt lat="42.112936752900026" lon="13.447194885482"><ele>1036.0</ele><time>2026-05-03T14:12:30Z</time></trkpt><trkpt lat="42.11286719538343" lon="13.447255211973143"><ele>1036.0</ele><time>2026-05-03T14:12:31Z</time></trkpt><trkpt lat="42.11283182748233" lon="13.44740626210246"><ele>1036.0</ele><time>2026-05-03T14:12:32Z</time></trkpt><trkpt lat="42.11282437564171" lon="13.447572537683724"><ele>1036.0</ele><time>2026-05-03T14:12:33Z</time></trkpt><trkpt lat="42.11281113616157" lon="13.447719368834926"><ele>1036.0</ele><time>2026-05-03T14:12:34Z</time></trkpt><trkpt lat="42.11277303387266" lon="13.447812427125816"><ele>1036.0</ele><time>2026-05-03T14:12:35Z</time></trkpt><trkpt lat="42.112716316483606" lon="13.447866474306599"><ele>1036.0</ele><time>2026-05-03T14:12:36Z</time></trkpt><trkpt lat="42.112638049719195" lon="13.447831762805968"><ele>1036.0</ele><time>2026-05-03T14:12:37Z</time></trkpt><trkpt lat="42.112581748474305" lon="13.447742971682809"><ele>1036.0</ele><time>2026-05-03T14:12:38Z</time></trkpt><trkpt lat="42.112571718224636" lon="13.447590895737843"><ele>1036.0</ele><time>2026-05-03T14:12:39Z</time></trkpt><trkpt lat="42.11256746407897" lon="13.447417578275166"><ele>1036.0</ele><time>2026-05-03T14:12:40Z</time></trkpt><trkpt lat="42.112552729669815" lon="13.44722141271852"><ele>1036.0</ele><time>2026-05-03T14:12:41Z</time></trkpt><trkpt lat="42.11251088212192" lon="13.44704105423299"><ele>1036.0</ele><time>2026-05-03T14:12:42Z</time></trkpt><trkpt lat="42.11248301854107" lon="13.446873554940836"><ele>1035.6666666666665</ele><time>2026-05-03T14:12:43Z</time></trkpt><trkpt lat="42.112451683015294" lon="13.446737679687836"><ele>1035.3333333333333</ele><time>2026-05-03T14:12:44Z</time></trkpt><trkpt lat="42.11242018972385" lon="13.446631695108632"><ele>1035.0</ele><time>2026-05-03T14:12:45Z</time></trkpt><trkpt lat="42.11238713680343" lon="13.44653950916429"><ele>1034.6666666666667</ele><time>2026-05-03T14:12:46Z</time></trkpt><trkpt lat="42.112366419966435" lon="13.446433735325291"><ele>1034.3333333333335</ele><time>2026-05-03T14:12:47Z</time></trkpt><trkpt lat="42.112360154852006" lon="13.44632706525443"><ele>1034.0</ele><time>2026-05-03T14:12:47.999Z</time></trkpt><trkpt lat="42.112384797416745" lon="13.446205691464801"><ele>1033.3333333333335</ele><time>2026-05-03T14:12:48.999Z</time></trkpt><trkpt lat="42.11240581954618" lon="13.446086303017433"><ele>1032.6666666666667</ele><time>2026-05-03T14:12:49.999Z</time></trkpt><trkpt lat="42.112429319239965" lon="13.445993661099909"><ele>1032.0</ele><time>2026-05-03T14:12:50.999Z</time></trkpt><trkpt lat="42.11246996189971" lon="13.445897830068766"><ele>1031.3333333333333</ele><time>2026-05-03T14:12:51.999Z</time></trkpt><trkpt lat="42.11250134008354" lon="13.445795893523622"><ele>1030.6666666666665</ele><time>2026-05-03T14:12:52.999Z</time></trkpt><trkpt lat="42.112542448810196" lon="13.445724411182512"><ele>1030.0</ele><time>2026-05-03T14:12:53.999Z</time></trkpt><trkpt lat="42.112595743927464" lon="13.445660265954373"><ele>1030.0</ele><time>2026-05-03T14:12:54.999Z</time></trkpt><trkpt lat="42.11262266229194" lon="13.445548469711483"><ele>1030.0</ele><time>2026-05-03T14:12:56.999Z</time></trkpt><trkpt lat="42.112590208602214" lon="13.445363049621982"><ele>1030.0</ele><time>2026-05-03T14:12:58.999Z</time></trkpt><trkpt lat="42.112539023902535" lon="13.445255071164503"><ele>1030.0</ele><time>2026-05-03T14:12:59.999Z</time></trkpt><trkpt lat="42.11251336785578" lon="13.445149507757879"><ele>1030.0</ele><time>2026-05-03T14:13:00.999Z</time></trkpt><trkpt lat="42.11250811804275" lon="13.445032718416705"><ele>1029.0</ele><time>2026-05-03T14:13:01.999Z</time></trkpt><trkpt lat="42.112494604663844" lon="13.444924074693285"><ele>1028.0</ele><time>2026-05-03T14:13:02.999Z</time></trkpt><trkpt lat="42.11249348245239" lon="13.444809428561813"><ele>1027.0</ele><time>2026-05-03T14:13:03.999Z</time></trkpt><trkpt lat="42.11249032546818" lon="13.444700370148743"><ele>1026.0</ele><time>2026-05-03T14:13:04.999Z</time></trkpt><trkpt lat="42.112474061183036" lon="13.444597395376473"><ele>1025.0</ele><time>2026-05-03T14:13:05.999Z</time></trkpt><trkpt lat="42.11244936680071" lon="13.444496064341898"><ele>1024.0</ele><time>2026-05-03T14:13:06.999Z</time></trkpt><trkpt lat="42.11241838178139" lon="13.444386568230474"><ele>1021.6</ele><time>2026-05-03T14:13:07.999Z</time></trkpt><trkpt lat="42.11234549875596" lon="13.444304231140999"><ele>1019.2</ele><time>2026-05-03T14:13:08.999Z</time></trkpt><trkpt lat="42.112283804092" lon="13.444197780711448"><ele>1016.8000000000001</ele><time>2026-05-03T14:13:09.999Z</time></trkpt><trkpt lat="42.112210603590185" lon="13.444085956609392"><ele>1014.4000000000001</ele><time>2026-05-03T14:13:10.999Z</time></trkpt><trkpt lat="42.11214113636407" lon="13.443979837982825"><ele>1012.0</ele><time>2026-05-03T14:13:11.999Z</time></trkpt><trkpt lat="42.1120705101888" lon="13.443873765212484"><ele>1012.0</ele><time>2026-05-03T14:13:12.999Z</time></trkpt><trkpt lat="42.112004660327486" lon="13.443774335834759"><ele>1012.0</ele><time>2026-05-03T14:13:13.999Z</time></trkpt><trkpt lat="42.111942464863226" lon="13.443680424282741"><ele>1012.0</ele><time>2026-05-03T14:13:14.999Z</time></trkpt><trkpt lat="42.11187604559138" lon="13.443580135163074"><ele>1012.0</ele><time>2026-05-03T14:13:15.999Z</time></trkpt><trkpt lat="42.11179538614081" lon="13.443491039353528"><ele>1012.0</ele><time>2026-05-03T14:13:16.999Z</time></trkpt><trkpt lat="42.111739178088364" lon="13.443386058702965"><ele>1012.0</ele><time>2026-05-03T14:13:17.999Z</time></trkpt><trkpt lat="42.111676237479934" lon="13.443285535856438"><ele>1012.0</ele><time>2026-05-03T14:13:18.999Z</time></trkpt><trkpt lat="42.11161014065931" lon="13.44319252589456"><ele>1012.0</ele><time>2026-05-03T14:13:19.999Z</time></trkpt><trkpt lat="42.111554503713926" lon="13.443098130468835"><ele>1012.0</ele><time>2026-05-03T14:13:20.999Z</time></trkpt><trkpt lat="42.11150585451594" lon="13.44300180024374"><ele>1012.0</ele><time>2026-05-03T14:13:21.999Z</time></trkpt><trkpt lat="42.111440187201495" lon="13.442931060768556"><ele>1011.4999999999999</ele><time>2026-05-03T14:13:22.999Z</time></trkpt><trkpt lat="42.111377106820285" lon="13.442850696172513"><ele>1011.0</ele><time>2026-05-03T14:13:23.999Z</time></trkpt><trkpt lat="42.111312534772956" lon="13.44276994283673"><ele>1010.5</ele><time>2026-05-03T14:13:24.999Z</time></trkpt><trkpt lat="42.11125264921934" lon="13.442692789368088"><ele>1010.0</ele><time>2026-05-03T14:13:25.999Z</time></trkpt><trkpt lat="42.11119165186258" lon="13.442614579523132"><ele>1009.4999999999999</ele><time>2026-05-03T14:13:26.999Z</time></trkpt><trkpt lat="42.1111260278939" lon="13.442540643597422"><ele>1009.0</ele><time>2026-05-03T14:13:27.999Z</time></trkpt><trkpt lat="42.11106107332155" lon="13.442464033427926"><ele>1009.0</ele><time>2026-05-03T14:13:28.999Z</time></trkpt><trkpt lat="42.11098798864335" lon="13.442382087431897"><ele>1009.0000000000001</ele><time>2026-05-03T14:13:29.999Z</time></trkpt><trkpt lat="42.11091222287052" lon="13.442290264292918"><ele>1009.0000000000001</ele><time>2026-05-03T14:13:30.999Z</time></trkpt><trkpt lat="42.11083619887471" lon="13.442190097859827"><ele>1009.0</ele><time>2026-05-03T14:13:31.999Z</time></trkpt><trkpt lat="42.1107534356554" lon="13.442087036987187"><ele>1009.0</ele><time>2026-05-03T14:13:32.999Z</time></trkpt><trkpt lat="42.1106665404276" lon="13.44197325552799"><ele>1008.5</ele><time>2026-05-03T14:13:33.999Z</time></trkpt><trkpt lat="42.11057464844685" lon="13.441873534833247"><ele>1008.0</ele><time>2026-05-03T14:13:34.999Z</time></trkpt><trkpt lat="42.11048786769945" lon="13.441766641381939"><ele>1007.5</ele><time>2026-05-03T14:13:35.999Z</time></trkpt><trkpt lat="42.11041710114856" lon="13.441637110437618"><ele>1007.0</ele><time>2026-05-03T14:13:36.999Z</time></trkpt><trkpt lat="42.11032583240417" lon="13.441537487626016"><ele>1007.0</ele><time>2026-05-03T14:13:37.999Z</time></trkpt><trkpt lat="42.11024570631545" lon="13.441425429042184"><ele>1007.0</ele><time>2026-05-03T14:13:38.999Z</time></trkpt><trkpt lat="42.110166120699525" lon="13.441312276171312"><ele>1007.0</ele><time>2026-05-03T14:13:39.999Z</time></trkpt><trkpt lat="42.11007613724219" lon="13.441215950280686"><ele>1007.0</ele><time>2026-05-03T14:13:40.999Z</time></trkpt><trkpt lat="42.10999908896402" lon="13.441110677214255"><ele>1007.4000000000001</ele><time>2026-05-03T14:13:41.999Z</time></trkpt><trkpt lat="42.10991108531792" lon="13.441013999836226"><ele>1007.8000000000001</ele><time>2026-05-03T14:13:42.999Z</time></trkpt><trkpt lat="42.109832808835286" lon="13.440906961790308"><ele>1008.2</ele><time>2026-05-03T14:13:43.999Z</time></trkpt><trkpt lat="42.10975564708593" lon="13.440802418505225"><ele>1008.6</ele><time>2026-05-03T14:13:44.999Z</time></trkpt><trkpt lat="42.10967171847704" lon="13.440701589814015"><ele>1009.0</ele><time>2026-05-03T14:13:45.999Z</time></trkpt><trkpt lat="42.10958560907514" lon="13.440613020779207"><ele>1008.75</ele><time>2026-05-03T14:13:47Z</time></trkpt><trkpt lat="42.10949005809037" lon="13.440526309729037"><ele>1008.5</ele><time>2026-05-03T14:13:48Z</time></trkpt><trkpt lat="42.109378241844134" lon="13.44045730397178"><ele>1008.25</ele><time>2026-05-03T14:13:49Z</time></trkpt><trkpt lat="42.1092627943244" lon="13.440405741924883"><ele>1008.0</ele><time>2026-05-03T14:13:50Z</time></trkpt><trkpt lat="42.109161062937886" lon="13.440325583319932"><ele>1007.2</ele><time>2026-05-03T14:13:51Z</time></trkpt><trkpt lat="42.10904676946041" lon="13.440317934993871"><ele>1006.4</ele><time>2026-05-03T14:13:52Z</time></trkpt><trkpt lat="42.10895073947036" lon="13.44028888032673"><ele>1005.6000000000001</ele><time>2026-05-03T14:13:53Z</time></trkpt><trkpt lat="42.10885041896428" lon="13.440252330548795"><ele>1004.8000000000001</ele><time>2026-05-03T14:13:54Z</time></trkpt><trkpt lat="42.108748305339645" lon="13.440223412806699"><ele>1004.0</ele><time>2026-05-03T14:13:55Z</time></trkpt><trkpt lat="42.10865058062769" lon="13.440193542835452"><ele>1004.0</ele><time>2026-05-03T14:13:56Z</time></trkpt><trkpt lat="42.10854076261146" lon="13.440162574170175"><ele>1004.0</ele><time>2026-05-03T14:13:57Z</time></trkpt><trkpt lat="42.10841864669968" lon="13.440131283431365"><ele>1004.0</ele><time>2026-05-03T14:13:58Z</time></trkpt><trkpt lat="42.10828414357145" lon="13.440093444807198"><ele>1004.0</ele><time>2026-05-03T14:13:59Z</time></trkpt><trkpt lat="42.10815080474735" lon="13.440047746288508"><ele>1003.0</ele><time>2026-05-03T14:14:00Z</time></trkpt><trkpt lat="42.10802493715181" lon="13.4400172589348"><ele>1002.0000000000001</ele><time>2026-05-03T14:14:01Z</time></trkpt><trkpt lat="42.1079143908377" lon="13.43998782290864"><ele>1001.0000000000001</ele><time>2026-05-03T14:14:02Z</time></trkpt><trkpt lat="42.10782843092872" lon="13.439968498607035"><ele>1000.0</ele><time>2026-05-03T14:14:03Z</time></trkpt><trkpt lat="42.107748592598476" lon="13.439947294907448"><ele>999.0</ele><time>2026-05-03T14:14:04Z</time></trkpt><trkpt lat="42.107656306958276" lon="13.439927378153795"><ele>999.0</ele><time>2026-05-03T14:14:05Z</time></trkpt><trkpt lat="42.10756324936383" lon="13.439900350862441"><ele>999.0000000000001</ele><time>2026-05-03T14:14:06Z</time></trkpt><trkpt lat="42.10746679869491" lon="13.439860095887202"><ele>999.0000000000001</ele><time>2026-05-03T14:14:07Z</time></trkpt><trkpt lat="42.10736403479289" lon="13.439827352931054"><ele>999.0</ele><time>2026-05-03T14:14:08Z</time></trkpt><trkpt lat="42.107253611803415" lon="13.43978824542587"><ele>999.0</ele><time>2026-05-03T14:14:09Z</time></trkpt><trkpt lat="42.10713996361717" lon="13.439750984593825"><ele>998.25</ele><time>2026-05-03T14:14:10Z</time></trkpt><trkpt lat="42.10701716954022" lon="13.439718347471333"><ele>997.5</ele><time>2026-05-03T14:14:11Z</time></trkpt><trkpt lat="42.106886136277936" lon="13.439681368047044"><ele>996.75</ele><time>2026-05-03T14:14:12Z</time></trkpt><trkpt lat="42.106745148503514" lon="13.439638866065254"><ele>996.0</ele><time>2026-05-03T14:14:13Z</time></trkpt><trkpt lat="42.10658497362228" lon="13.439592332615021"><ele>994.6666666666667</ele><time>2026-05-03T14:14:14Z</time></trkpt><trkpt lat="42.106427781752686" lon="13.439540765622716"><ele>993.3333333333334</ele><time>2026-05-03T14:14:15Z</time></trkpt><trkpt lat="42.106273233140506" lon="13.439482491971273"><ele>992.0</ele><time>2026-05-03T14:14:16Z</time></trkpt><trkpt lat="42.10611816611384" lon="13.439419664791464"><ele>992.0</ele><time>2026-05-03T14:14:17Z</time></trkpt><trkpt lat="42.105963353416975" lon="13.439354729899781"><ele>992.0</ele><time>2026-05-03T14:14:18Z</time></trkpt><trkpt lat="42.105804309887645" lon="13.439290803528145"><ele>992.0</ele><time>2026-05-03T14:14:19Z</time></trkpt><trkpt lat="42.10564501070495" lon="13.439221914557944"><ele>990.0</ele><time>2026-05-03T14:14:20Z</time></trkpt><trkpt lat="42.10547360455682" lon="13.43914785478573"><ele>988.0</ele><time>2026-05-03T14:14:21Z</time></trkpt><trkpt lat="42.105312113217465" lon="13.439056823136783"><ele>986.0</ele><time>2026-05-03T14:14:22Z</time></trkpt><trkpt lat="42.10513950933865" lon="13.438983305996665"><ele>986.0</ele><time>2026-05-03T14:14:23Z</time></trkpt><trkpt lat="42.1049641820852" lon="13.438909379712662"><ele>986.0</ele><time>2026-05-03T14:14:24Z</time></trkpt><trkpt lat="42.10477331962363" lon="13.43881949378327"><ele>986.0</ele><time>2026-05-03T14:14:25Z</time></trkpt><trkpt lat="42.104577696791786" lon="13.438714691474862"><ele>986.6666666666667</ele><time>2026-05-03T14:14:26Z</time></trkpt><trkpt lat="42.10439991765413" lon="13.438610949721157"><ele>987.3333333333333</ele><time>2026-05-03T14:14:27Z</time></trkpt><trkpt lat="42.10422623055068" lon="13.438497919246359"><ele>988.0</ele><time>2026-05-03T14:14:28Z</time></trkpt><trkpt lat="42.10404868391144" lon="13.438374904670097"><ele>986.6666666666666</ele><time>2026-05-03T14:14:29Z</time></trkpt><trkpt lat="42.1038705004856" lon="13.438251890852468"><ele>985.3333333333333</ele><time>2026-05-03T14:14:30Z</time></trkpt><trkpt lat="42.10369641460874" lon="13.43813083543709"><ele>984.0</ele><time>2026-05-03T14:14:31Z</time></trkpt><trkpt lat="42.103526413783214" lon="13.438013330657133"><ele>984.0</ele><time>2026-05-03T14:14:32Z</time></trkpt><trkpt lat="42.103357469895386" lon="13.437890640369774"><ele>984.0</ele><time>2026-05-03T14:14:33Z</time></trkpt><trkpt lat="42.10320368254906" lon="13.437742914133484"><ele>984.0</ele><time>2026-05-03T14:14:34Z</time></trkpt><trkpt lat="42.10302752182341" lon="13.437614242620576"><ele>984.0</ele><time>2026-05-03T14:14:35Z</time></trkpt><trkpt lat="42.102871366218736" lon="13.437458971438573"><ele>984.0</ele><time>2026-05-03T14:14:36Z</time></trkpt><trkpt lat="42.10272264671142" lon="13.437310904824193"><ele>984.0</ele><time>2026-05-03T14:14:37Z</time></trkpt><trkpt lat="42.102576286642815" lon="13.437161426167519"><ele>984.6666666666667</ele><time>2026-05-03T14:14:38Z</time></trkpt><trkpt lat="42.10242911934488" lon="13.43700803122345"><ele>985.3333333333334</ele><time>2026-05-03T14:14:39Z</time></trkpt><trkpt lat="42.10227908420172" lon="13.436859221840866"><ele>986.0</ele><time>2026-05-03T14:14:40Z</time></trkpt><trkpt lat="42.10213021628342" lon="13.436711175547446"><ele>985.3333333333334</ele><time>2026-05-03T14:14:41Z</time></trkpt><trkpt lat="42.10198220883117" lon="13.436560181502404"><ele>984.6666666666667</ele><time>2026-05-03T14:14:42Z</time></trkpt><trkpt lat="42.10183102071981" lon="13.436408418689076"><ele>984.0</ele><time>2026-05-03T14:14:43Z</time></trkpt><trkpt lat="42.101676611613065" lon="13.436253363406609"><ele>982.3333333333333</ele><time>2026-05-03T14:14:44Z</time></trkpt><trkpt lat="42.10152215095676" lon="13.436100882171843"><ele>980.6666666666666</ele><time>2026-05-03T14:14:45Z</time></trkpt><trkpt lat="42.10135999790114" lon="13.435939091635234"><ele>979.0</ele><time>2026-05-03T14:14:46Z</time></trkpt><trkpt lat="42.10119744200476" lon="13.435749488439678"><ele>979.0</ele><time>2026-05-03T14:14:47Z</time></trkpt><trkpt lat="42.10101888681505" lon="13.435569960849943"><ele>979.0</ele><time>2026-05-03T14:14:48Z</time></trkpt><trkpt lat="42.10081799303319" lon="13.435385289867442"><ele>977.5</ele><time>2026-05-03T14:14:49Z</time></trkpt><trkpt lat="42.1006280833216" lon="13.435187815985229"><ele>976.0</ele><time>2026-05-03T14:14:50Z</time></trkpt><trkpt lat="42.100440572935504" lon="13.43500068454517"><ele>976.0</ele><time>2026-05-03T14:14:51Z</time></trkpt><trkpt lat="42.10025129010524" lon="13.43481395137568"><ele>976.0</ele><time>2026-05-03T14:14:52Z</time></trkpt><trkpt lat="42.10006107358299" lon="13.43462422063517"><ele>975.5</ele><time>2026-05-03T14:14:53Z</time></trkpt><trkpt lat="42.099872700000496" lon="13.434421317383846"><ele>975.0</ele><time>2026-05-03T14:14:54Z</time></trkpt><trkpt lat="42.09968320758557" lon="13.434224321998629"><ele>975.0</ele><time>2026-05-03T14:14:55Z</time></trkpt><trkpt lat="42.09948844529359" lon="13.434031336754176"><ele>975.0</ele><time>2026-05-03T14:14:55.999Z</time></trkpt><trkpt lat="42.0992951336137" lon="13.433822865548871"><ele>973.5</ele><time>2026-05-03T14:14:56.999Z</time></trkpt><trkpt lat="42.09910476009623" lon="13.433615605614012"><ele>972.0</ele><time>2026-05-03T14:14:57.999Z</time></trkpt><trkpt lat="42.09890331461041" lon="13.433447842697788"><ele>972.0</ele><time>2026-05-03T14:14:58.999Z</time></trkpt><trkpt lat="42.09870627936646" lon="13.433260719872033"><ele>972.0</ele><time>2026-05-03T14:14:59.999Z</time></trkpt><trkpt lat="42.098517336778606" lon="13.433069079155617"><ele>970.5</ele><time>2026-05-03T14:15:00.999Z</time></trkpt><trkpt lat="42.098331592710416" lon="13.43288388858413"><ele>969.0</ele><time>2026-05-03T14:15:01.999Z</time></trkpt><trkpt lat="42.09815210808956" lon="13.432701197971813"><ele>969.0</ele><time>2026-05-03T14:15:02.999Z</time></trkpt><trkpt lat="42.09797771830381" lon="13.432517802541287"><ele>969.0</ele><time>2026-05-03T14:15:03.999Z</time></trkpt><trkpt lat="42.097802929592696" lon="13.432337382163452"><ele>969.0</ele><time>2026-05-03T14:15:04.999Z</time></trkpt><trkpt lat="42.097627421111135" lon="13.4321521016794"><ele>966.0</ele><time>2026-05-03T14:15:05.999Z</time></trkpt><trkpt lat="42.09745333027065" lon="13.431954460659135"><ele>963.0</ele><time>2026-05-03T14:15:06.999Z</time></trkpt><trkpt lat="42.09728107683239" lon="13.431746735477018"><ele>963.0</ele><time>2026-05-03T14:15:07.999Z</time></trkpt><trkpt lat="42.097113500566984" lon="13.431533818081958"><ele>963.0</ele><time>2026-05-03T14:15:08.999Z</time></trkpt><trkpt lat="42.09695221437863" lon="13.431317287348913"><ele>963.0</ele><time>2026-05-03T14:15:09.999Z</time></trkpt><trkpt lat="42.09679341700276" lon="13.431098163574553"><ele>963.0</ele><time>2026-05-03T14:15:10.999Z</time></trkpt><trkpt lat="42.09663669189035" lon="13.430882927560294"><ele>962.0</ele><time>2026-05-03T14:15:11.999Z</time></trkpt><trkpt lat="42.09648237001349" lon="13.430674686753353"><ele>961.0</ele><time>2026-05-03T14:15:12.999Z</time></trkpt><trkpt lat="42.096333681466604" lon="13.43046765424333"><ele>960.0</ele><time>2026-05-03T14:15:13.999Z</time></trkpt><trkpt lat="42.09618674091402" lon="13.430262914134232"><ele>959.3333333333333</ele><time>2026-05-03T14:15:14.999Z</time></trkpt><trkpt lat="42.096040711207216" lon="13.43006514678181"><ele>958.6666666666666</ele><time>2026-05-03T14:15:15.999Z</time></trkpt><trkpt lat="42.09589086593491" lon="13.429867514656891"><ele>958.0</ele><time>2026-05-03T14:15:16.999Z</time></trkpt><trkpt lat="42.095743953047695" lon="13.429667317797724"><ele>956.6666666666666</ele><time>2026-05-03T14:15:17.999Z</time></trkpt><trkpt lat="42.09559727561561" lon="13.429467437528436"><ele>955.3333333333333</ele><time>2026-05-03T14:15:18.999Z</time></trkpt><trkpt lat="42.095455871534305" lon="13.429270280114691"><ele>954.0</ele><time>2026-05-03T14:15:19.999Z</time></trkpt><trkpt lat="42.09531559868699" lon="13.429076532055165"><ele>954.0</ele><time>2026-05-03T14:15:20.999Z</time></trkpt><trkpt lat="42.09517901817005" lon="13.428882010875869"><ele>954.0</ele><time>2026-05-03T14:15:21.999Z</time></trkpt><trkpt lat="42.09503902990157" lon="13.42868772425693"><ele>954.0</ele><time>2026-05-03T14:15:22.999Z</time></trkpt><trkpt lat="42.094897598387824" lon="13.42849669560862"><ele>953.0</ele><time>2026-05-03T14:15:23.999Z</time></trkpt><trkpt lat="42.09475874937105" lon="13.428307315725352"><ele>952.0</ele><time>2026-05-03T14:15:24.999Z</time></trkpt><trkpt lat="42.09462197348098" lon="13.428116639691886"><ele>951.0</ele><time>2026-05-03T14:15:25.999Z</time></trkpt><trkpt lat="42.09448874380124" lon="13.427931882250597"><ele>950.6666666666667</ele><time>2026-05-03T14:15:26.999Z</time></trkpt><trkpt lat="42.094363053797345" lon="13.427741415927253"><ele>950.3333333333334</ele><time>2026-05-03T14:15:27.999Z</time></trkpt><trkpt lat="42.094241204329656" lon="13.427545452477336"><ele>950.0</ele><time>2026-05-03T14:15:28.999Z</time></trkpt><trkpt lat="42.09412884978009" lon="13.427361532777628"><ele>948.6666666666667</ele><time>2026-05-03T14:15:29.999Z</time></trkpt><trkpt lat="42.09400843833719" lon="13.427170206627485"><ele>947.3333333333333</ele><time>2026-05-03T14:15:30.999Z</time></trkpt><trkpt lat="42.09389098646069" lon="13.426998733476609"><ele>946.0</ele><time>2026-05-03T14:15:31.999Z</time></trkpt><trkpt lat="42.09376004366805" lon="13.426826573262522"><ele>946.0</ele><time>2026-05-03T14:15:32.999Z</time></trkpt><trkpt lat="42.09363210370598" lon="13.42667454883554"><ele>946.0</ele><time>2026-05-03T14:15:33.999Z</time></trkpt><trkpt lat="42.093491979757076" lon="13.42654451899649"><ele>946.0</ele><time>2026-05-03T14:15:34.999Z</time></trkpt><trkpt lat="42.09336567499746" lon="13.426384947944825"><ele>943.3333333333333</ele><time>2026-05-03T14:15:35.999Z</time></trkpt><trkpt lat="42.093242573624984" lon="13.426225373483321"><ele>940.6666666666667</ele><time>2026-05-03T14:15:36.999Z</time></trkpt><trkpt lat="42.093121927993096" lon="13.426068027700929"><ele>938.0</ele><time>2026-05-03T14:15:37.999Z</time></trkpt><trkpt lat="42.093019457494655" lon="13.425895313518966"><ele>938.0</ele><time>2026-05-03T14:15:38.999Z</time></trkpt><trkpt lat="42.092908293069605" lon="13.42574087972577"><ele>938.0</ele><time>2026-05-03T14:15:39.999Z</time></trkpt><trkpt lat="42.09279253682469" lon="13.425611694330662"><ele>938.0</ele><time>2026-05-03T14:15:40.999Z</time></trkpt><trkpt lat="42.09269994455551" lon="13.425470661029788"><ele>937.5999999999999</ele><time>2026-05-03T14:15:41.999Z</time></trkpt><trkpt lat="42.09261233639631" lon="13.425343074008664"><ele>937.1999999999999</ele><time>2026-05-03T14:15:42.999Z</time></trkpt><trkpt lat="42.092530691559695" lon="13.425229005411559"><ele>936.8</ele><time>2026-05-03T14:15:43.999Z</time></trkpt><trkpt lat="42.092455757321204" lon="13.425132009169484"><ele>936.4</ele><time>2026-05-03T14:15:44.999Z</time></trkpt><trkpt lat="42.09239111246178" lon="13.42504323107489"><ele>936.0</ele><time>2026-05-03T14:15:45.999Z</time></trkpt><trkpt lat="42.09233082928973" lon="13.424970451713008"><ele>935.5</ele><time>2026-05-03T14:15:46.999Z</time></trkpt><trkpt lat="42.09228269500704" lon="13.424901057868507"><ele>935.0</ele><time>2026-05-03T14:15:47.999Z</time></trkpt><trkpt lat="42.0922296099017" lon="13.42482354899991"><ele>934.5</ele><time>2026-05-03T14:15:49.999Z</time></trkpt><trkpt lat="42.092169716155524" lon="13.424780341093754"><ele>934.0</ele><time>2026-05-03T14:16:12Z</time></trkpt><trkpt lat="42.09208393699154" lon="13.424834682745153"><ele>933.5</ele><time>2026-05-03T14:16:14Z</time></trkpt><trkpt lat="42.092044391016984" lon="13.424901070663434"><ele>933.0</ele><time>2026-05-03T14:16:15Z</time></trkpt><trkpt lat="42.09199021278463" lon="13.42499387991227"><ele>933.0</ele><time>2026-05-03T14:16:16Z</time></trkpt><trkpt lat="42.09193837317838" lon="13.425086091834666"><ele>933.0</ele><time>2026-05-03T14:16:17Z</time></trkpt><trkpt lat="42.09187287022993" lon="13.425181919662183"><ele>933.0</ele><time>2026-05-03T14:16:18Z</time></trkpt><trkpt lat="42.09179315896229" lon="13.42528090990934"><ele>933.0</ele><time>2026-05-03T14:16:19Z</time></trkpt><trkpt lat="42.091697118803275" lon="13.42537129936605"><ele>933.0</ele><time>2026-05-03T14:16:20Z</time></trkpt><trkpt lat="42.091593086477914" lon="13.425463980340115"><ele>932.25</ele><time>2026-05-03T14:16:21Z</time></trkpt><trkpt lat="42.09148872636802" lon="13.425554935808435"><ele>931.5</ele><time>2026-05-03T14:16:22Z</time></trkpt><trkpt lat="42.09138645297084" lon="13.425639419284412"><ele>930.75</ele><time>2026-05-03T14:16:23Z</time></trkpt><trkpt lat="42.09127372126088" lon="13.425726219044014"><ele>930.0</ele><time>2026-05-03T14:16:24Z</time></trkpt><trkpt lat="42.09115864809592" lon="13.425821450778603"><ele>930.0</ele><time>2026-05-03T14:16:25Z</time></trkpt><trkpt lat="42.09102970126312" lon="13.425910196324073"><ele>930.0</ele><time>2026-05-03T14:16:26Z</time></trkpt><trkpt lat="42.090888170692594" lon="13.425989646968546"><ele>930.0</ele><time>2026-05-03T14:16:27Z</time></trkpt><trkpt lat="42.090739655456844" lon="13.42605335058402"><ele>928.0</ele><time>2026-05-03T14:16:28Z</time></trkpt><trkpt lat="42.090587607763084" lon="13.42610264330436"><ele>926.0</ele><time>2026-05-03T14:16:29Z</time></trkpt><trkpt lat="42.09043499945052" lon="13.426139004781476"><ele>924.0</ele><time>2026-05-03T14:16:30Z</time></trkpt><trkpt lat="42.090289429786516" lon="13.426164257720645"><ele>924.0</ele><time>2026-05-03T14:16:31Z</time></trkpt><trkpt lat="42.09014866091576" lon="13.426189214429037"><ele>924.0</ele><time>2026-05-03T14:16:32Z</time></trkpt><trkpt lat="42.090009271810565" lon="13.426211893933019"><ele>924.0</ele><time>2026-05-03T14:16:33Z</time></trkpt><trkpt lat="42.08986188501732" lon="13.426223962195634"><ele>924.0</ele><time>2026-05-03T14:16:34Z</time></trkpt><trkpt lat="42.089709157977495" lon="13.426198090634724"><ele>923.0</ele><time>2026-05-03T14:16:35Z</time></trkpt><trkpt lat="42.08955309324974" lon="13.426169298625553"><ele>922.0</ele><time>2026-05-03T14:16:36Z</time></trkpt><trkpt lat="42.08938255493102" lon="13.42613809050488"><ele>921.0</ele><time>2026-05-03T14:16:37Z</time></trkpt><trkpt lat="42.089200571744996" lon="13.426099944234409"><ele>921.5</ele><time>2026-05-03T14:16:38Z</time></trkpt><trkpt lat="42.0891345495571" lon="13.426505861130064"><ele>922.0</ele><time>2026-05-03T14:16:39Z</time></trkpt><trkpt lat="42.08898628124161" lon="13.426560989407415"><ele>920.25</ele><time>2026-05-03T14:16:40Z</time></trkpt><trkpt lat="42.08884792751896" lon="13.426616117599647"><ele>918.5</ele><time>2026-05-03T14:16:41Z</time></trkpt><trkpt lat="42.08871132287908" lon="13.42667924611105"><ele>916.75</ele><time>2026-05-03T14:16:42Z</time></trkpt><trkpt lat="42.08858303595427" lon="13.42674103955777"><ele>915.0</ele><time>2026-05-03T14:16:43Z</time></trkpt><trkpt lat="42.088456192467824" lon="13.426804422022183"><ele>915.0</ele><time>2026-05-03T14:16:44Z</time></trkpt><trkpt lat="42.08832076529796" lon="13.426869918800488"><ele>915.0</ele><time>2026-05-03T14:16:45Z</time></trkpt><trkpt lat="42.08819382435931" lon="13.426937718046368"><ele>915.0</ele><time>2026-05-03T14:16:46Z</time></trkpt><trkpt lat="42.08807037131981" lon="13.42701058879022"><ele>915.0</ele><time>2026-05-03T14:16:47Z</time></trkpt><trkpt lat="42.087942986500025" lon="13.427087829276385"><ele>914.0</ele><time>2026-05-03T14:16:48Z</time></trkpt><trkpt lat="42.0878191987975" lon="13.427154880089018"><ele>913.0</ele><time>2026-05-03T14:16:49Z</time></trkpt><trkpt lat="42.08767060961295" lon="13.427245790832716"><ele>912.0</ele><time>2026-05-03T14:16:50Z</time></trkpt><trkpt lat="42.08751179333813" lon="13.427344125922954"><ele>910.3333333333333</ele><time>2026-05-03T14:16:51Z</time></trkpt><trkpt lat="42.087351134926514" lon="13.42744060335477"><ele>908.6666666666666</ele><time>2026-05-03T14:16:52Z</time></trkpt><trkpt lat="42.087181763675204" lon="13.427547245896639"><ele>907.0</ele><time>2026-05-03T14:16:53Z</time></trkpt><trkpt lat="42.08701128784219" lon="13.427646680625244"><ele>907.0</ele><time>2026-05-03T14:16:54Z</time></trkpt><trkpt lat="42.08682631910376" lon="13.427748816662666"><ele>907.0</ele><time>2026-05-03T14:16:55Z</time></trkpt><trkpt lat="42.08665254690608" lon="13.427845696113023"><ele>907.0</ele><time>2026-05-03T14:16:56Z</time></trkpt><trkpt lat="42.08648064078332" lon="13.4279408264517"><ele>905.3333333333333</ele><time>2026-05-03T14:16:57Z</time></trkpt><trkpt lat="42.08631176897405" lon="13.428041442657603"><ele>903.6666666666667</ele><time>2026-05-03T14:16:58Z</time></trkpt><trkpt lat="42.08614940296978" lon="13.428137459310658"><ele>902.0</ele><time>2026-05-03T14:16:59Z</time></trkpt><trkpt lat="42.08598049428989" lon="13.428242510888376"><ele>902.0</ele><time>2026-05-03T14:17:00Z</time></trkpt><trkpt lat="42.08581168100542" lon="13.428352177795858"><ele>902.0</ele><time>2026-05-03T14:17:01Z</time></trkpt><trkpt lat="42.08563547236594" lon="13.428447000663942"><ele>902.0</ele><time>2026-05-03T14:17:02Z</time></trkpt><trkpt lat="42.08546502517552" lon="13.428532567540735"><ele>899.0</ele><time>2026-05-03T14:17:03Z</time></trkpt><trkpt lat="42.08529198241031" lon="13.428624969837589"><ele>896.0</ele><time>2026-05-03T14:17:04Z</time></trkpt><trkpt lat="42.08511671855522" lon="13.428730936761196"><ele>893.0</ele><time>2026-05-03T14:17:05Z</time></trkpt><trkpt lat="42.08493199316901" lon="13.428788518309036"><ele>890.6666666666667</ele><time>2026-05-03T14:17:06Z</time></trkpt><trkpt lat="42.084751974014985" lon="13.428851905959032"><ele>888.3333333333333</ele><time>2026-05-03T14:17:06.999Z</time></trkpt><trkpt lat="42.084569055389096" lon="13.428898099153606"><ele>886.0</ele><time>2026-05-03T14:17:07.999Z</time></trkpt><trkpt lat="42.08440074362719" lon="13.428945484459067"><ele>886.0</ele><time>2026-05-03T14:17:08.999Z</time></trkpt><trkpt lat="42.0842159445553" lon="13.42896745248398"><ele>886.0</ele><time>2026-05-03T14:17:09.999Z</time></trkpt><trkpt lat="42.0840302292943" lon="13.42900791167421"><ele>886.0</ele><time>2026-05-03T14:17:10.999Z</time></trkpt><trkpt lat="42.08385067960957" lon="13.429048845598981"><ele>885.0</ele><time>2026-05-03T14:17:11.999Z</time></trkpt><trkpt lat="42.08367867735211" lon="13.429086962806801"><ele>884.0</ele><time>2026-05-03T14:17:12.999Z</time></trkpt><trkpt lat="42.08351102371118" lon="13.429117579448116"><ele>883.0</ele><time>2026-05-03T14:17:13.999Z</time></trkpt><trkpt lat="42.08334168697644" lon="13.429154771069971"><ele>881.6666666666666</ele><time>2026-05-03T14:17:14.999Z</time></trkpt><trkpt lat="42.08317566646087" lon="13.429179850333702"><ele>880.3333333333333</ele><time>2026-05-03T14:17:15.999Z</time></trkpt><trkpt lat="42.083020306353234" lon="13.429205250459141"><ele>879.0</ele><time>2026-05-03T14:17:16.999Z</time></trkpt><trkpt lat="42.082855393302765" lon="13.429237986660395"><ele>879.0</ele><time>2026-05-03T14:17:17.999Z</time></trkpt><trkpt lat="42.082698306849394" lon="13.429259102890672"><ele>879.0</ele><time>2026-05-03T14:17:18.999Z</time></trkpt><trkpt lat="42.08253544433175" lon="13.429249674369588"><ele>879.0</ele><time>2026-05-03T14:17:19.999Z</time></trkpt><trkpt lat="42.082355528077244" lon="13.429281708253303"><ele>879.0</ele><time>2026-05-03T14:17:20.999Z</time></trkpt><trkpt lat="42.082158509847844" lon="13.429271330376874"><ele>879.0</ele><time>2026-05-03T14:17:21.999Z</time></trkpt><trkpt lat="42.0819582833495" lon="13.42927936562068"><ele>879.0</ele><time>2026-05-03T14:17:22.999Z</time></trkpt><trkpt lat="42.08179316987683" lon="13.429293659597167"><ele>880.3333333333333</ele><time>2026-05-03T14:17:23.999Z</time></trkpt><trkpt lat="42.08157045464787" lon="13.429311083378456"><ele>881.6666666666666</ele><time>2026-05-03T14:17:24.999Z</time></trkpt><trkpt lat="42.081376063000725" lon="13.429315048525151"><ele>883.0</ele><time>2026-05-03T14:17:25.999Z</time></trkpt><trkpt lat="42.081185519673674" lon="13.429320520398656"><ele>883.0</ele><time>2026-05-03T14:17:26.999Z</time></trkpt><trkpt lat="42.08100035446634" lon="13.429311865633492"><ele>883.0</ele><time>2026-05-03T14:17:27.999Z</time></trkpt><trkpt lat="42.080817901321005" lon="13.429316091262246"><ele>883.0</ele><time>2026-05-03T14:17:28.999Z</time></trkpt><trkpt lat="42.08063674256019" lon="13.42933685478976"><ele>882.0</ele><time>2026-05-03T14:17:29.999Z</time></trkpt><trkpt lat="42.080455311516616" lon="13.42934265135162"><ele>881.0</ele><time>2026-05-03T14:17:30.999Z</time></trkpt><trkpt lat="42.08027054983538" lon="13.429353352221566"><ele>880.0</ele><time>2026-05-03T14:17:31.999Z</time></trkpt><trkpt lat="42.08008709601163" lon="13.429343401904445"><ele>878.6666666666666</ele><time>2026-05-03T14:17:32.999Z</time></trkpt><trkpt lat="42.07991116871387" lon="13.429382203938397"><ele>877.3333333333333</ele><time>2026-05-03T14:17:33.999Z</time></trkpt><trkpt lat="42.079736872966585" lon="13.429399838276815"><ele>876.0</ele><time>2026-05-03T14:17:34.999Z</time></trkpt><trkpt lat="42.0795610399278" lon="13.429423945795833"><ele>876.0</ele><time>2026-05-03T14:17:35.999Z</time></trkpt><trkpt lat="42.07938515441055" lon="13.429456151543324"><ele>876.0</ele><time>2026-05-03T14:17:36.999Z</time></trkpt><trkpt lat="42.079211442079085" lon="13.42949088402032"><ele>876.0</ele><time>2026-05-03T14:17:37.999Z</time></trkpt><trkpt lat="42.079038067288536" lon="13.429515212721434"><ele>874.6666666666667</ele><time>2026-05-03T14:17:38.999Z</time></trkpt><trkpt lat="42.07887081713384" lon="13.429559226098606"><ele>873.3333333333334</ele><time>2026-05-03T14:17:39.999Z</time></trkpt><trkpt lat="42.07870106809483" lon="13.429613253804435"><ele>872.0</ele><time>2026-05-03T14:17:40.999Z</time></trkpt><trkpt lat="42.07853434903914" lon="13.429670252776129"><ele>872.0</ele><time>2026-05-03T14:17:41.999Z</time></trkpt><trkpt lat="42.078374895248075" lon="13.429753226777066"><ele>872.0</ele><time>2026-05-03T14:17:42.999Z</time></trkpt><trkpt lat="42.078210526075424" lon="13.429810287795622"><ele>872.0</ele><time>2026-05-03T14:17:43.999Z</time></trkpt><trkpt lat="42.07804486690623" lon="13.42987544621883"><ele>870.3333333333334</ele><time>2026-05-03T14:17:44.999Z</time></trkpt><trkpt lat="42.07788821209941" lon="13.429940838252785"><ele>868.6666666666667</ele><time>2026-05-03T14:17:45.999Z</time></trkpt><trkpt lat="42.07771186148923" lon="13.429990253379978"><ele>867.0</ele><time>2026-05-03T14:17:46.999Z</time></trkpt><trkpt lat="42.07754852824292" lon="13.430055046912623"><ele>865.3333333333333</ele><time>2026-05-03T14:17:47.999Z</time></trkpt><trkpt lat="42.07737495883667" lon="13.430124004742945"><ele>863.6666666666666</ele><time>2026-05-03T14:17:48.999Z</time></trkpt><trkpt lat="42.077200193619525" lon="13.430193437652099"><ele>862.0</ele><time>2026-05-03T14:17:49.999Z</time></trkpt><trkpt lat="42.07701106387404" lon="13.4302694272211"><ele>862.0</ele><time>2026-05-03T14:17:50.999Z</time></trkpt><trkpt lat="42.076822614365305" lon="13.430366487123939"><ele>862.0</ele><time>2026-05-03T14:17:51.999Z</time></trkpt><trkpt lat="42.076630990714634" lon="13.430441992300572"><ele>862.0</ele><time>2026-05-03T14:17:52.999Z</time></trkpt><trkpt lat="42.07643787429683" lon="13.430499947379301"><ele>861.3333333333333</ele><time>2026-05-03T14:17:53.999Z</time></trkpt><trkpt lat="42.07624337701281" lon="13.430578168530058"><ele>860.6666666666667</ele><time>2026-05-03T14:17:54.999Z</time></trkpt><trkpt lat="42.07605150777195" lon="13.43067622152141"><ele>860.0</ele><time>2026-05-03T14:17:55.999Z</time></trkpt><trkpt lat="42.0758618144311" lon="13.43072992008465"><ele>858.0</ele><time>2026-05-03T14:17:56.999Z</time></trkpt><trkpt lat="42.07567994500031" lon="13.430801753139676"><ele>856.0</ele><time>2026-05-03T14:17:57.999Z</time></trkpt><trkpt lat="42.07547079989437" lon="13.430906313996989"><ele>854.0</ele><time>2026-05-03T14:17:59Z</time></trkpt><trkpt lat="42.075279898255545" lon="13.430982848639891"><ele>854.0</ele><time>2026-05-03T14:18:00Z</time></trkpt><trkpt lat="42.07509739732185" lon="13.43105539553043"><ele>854.0</ele><time>2026-05-03T14:18:01Z</time></trkpt><trkpt lat="42.07490204454814" lon="13.43113897765228"><ele>854.0</ele><time>2026-05-03T14:18:02Z</time></trkpt><trkpt lat="42.074717848395274" lon="13.431253470353814"><ele>852.3333333333334</ele><time>2026-05-03T14:18:03Z</time></trkpt><trkpt lat="42.0745439143558" lon="13.43138110975363"><ele>850.6666666666667</ele><time>2026-05-03T14:18:04Z</time></trkpt><trkpt lat="42.07437456930108" lon="13.431515255606914"><ele>849.0</ele><time>2026-05-03T14:18:05Z</time></trkpt><trkpt lat="42.07418807098329" lon="13.431668402343687"><ele>846.5</ele><time>2026-05-03T14:18:06Z</time></trkpt><trkpt lat="42.0740005172628" lon="13.431842320840746"><ele>844.0</ele><time>2026-05-03T14:18:07Z</time></trkpt><trkpt lat="42.07382443376128" lon="13.43203748947446"><ele>844.0</ele><time>2026-05-03T14:18:08Z</time></trkpt><trkpt lat="42.07363470043377" lon="13.432190926795611"><ele>844.0</ele><time>2026-05-03T14:18:09Z</time></trkpt><trkpt lat="42.07345282414328" lon="13.43236270361988"><ele>844.0</ele><time>2026-05-03T14:18:10Z</time></trkpt><trkpt lat="42.073278766402126" lon="13.432527443503062"><ele>841.6666666666666</ele><time>2026-05-03T14:18:11Z</time></trkpt><trkpt lat="42.07310268944277" lon="13.432695174975072"><ele>839.3333333333333</ele><time>2026-05-03T14:18:12Z</time></trkpt><trkpt lat="42.07293067341385" lon="13.432859037988068"><ele>837.0</ele><time>2026-05-03T14:18:13Z</time></trkpt><trkpt lat="42.07275166852269" lon="13.433029558632748"><ele>836.6666666666667</ele><time>2026-05-03T14:18:14Z</time></trkpt><trkpt lat="42.07257907622148" lon="13.433218468479133"><ele>836.3333333333334</ele><time>2026-05-03T14:18:15Z</time></trkpt><trkpt lat="42.07240532291228" lon="13.433355666258423"><ele>836.0</ele><time>2026-05-03T14:18:16Z</time></trkpt><trkpt lat="42.07221540435989" lon="13.433558213139106"><ele>835.0</ele><time>2026-05-03T14:18:17Z</time></trkpt><trkpt lat="42.07202388182179" lon="13.433743104667814"><ele>834.0</ele><time>2026-05-03T14:18:18Z</time></trkpt><trkpt lat="42.071836150112766" lon="13.433916836460643"><ele>834.0</ele><time>2026-05-03T14:18:19Z</time></trkpt><trkpt lat="42.07165988841896" lon="13.434092597114706"><ele>834.0</ele><time>2026-05-03T14:18:20Z</time></trkpt><trkpt lat="42.07147520159342" lon="13.434255195647626"><ele>834.0</ele><time>2026-05-03T14:18:21Z</time></trkpt><trkpt lat="42.07129910539629" lon="13.434401022030867"><ele>832.6666666666667</ele><time>2026-05-03T14:18:22Z</time></trkpt><trkpt lat="42.07111933332978" lon="13.434531785394837"><ele>831.3333333333334</ele><time>2026-05-03T14:18:23Z</time></trkpt><trkpt lat="42.07095167638243" lon="13.434640703680483"><ele>830.0</ele><time>2026-05-03T14:18:24Z</time></trkpt><trkpt lat="42.070745309069565" lon="13.434741800419943"><ele>827.6666666666667</ele><time>2026-05-03T14:18:25Z</time></trkpt><trkpt lat="42.07053955940076" lon="13.434815790577929"><ele>825.3333333333333</ele><time>2026-05-03T14:18:26Z</time></trkpt><trkpt lat="42.07031864078458" lon="13.43485434468379"><ele>823.0</ele><time>2026-05-03T14:18:27Z</time></trkpt><trkpt lat="42.070094807601706" lon="13.434891354028142"><ele>820.0</ele><time>2026-05-03T14:18:28Z</time></trkpt><trkpt lat="42.069859733091256" lon="13.434940478537628"><ele>817.0</ele><time>2026-05-03T14:18:29Z</time></trkpt><trkpt lat="42.06962071444633" lon="13.434971848058854"><ele>817.0</ele><time>2026-05-03T14:18:30Z</time></trkpt><trkpt lat="42.06937830025921" lon="13.435004814322035"><ele>817.0</ele><time>2026-05-03T14:18:31Z</time></trkpt><trkpt lat="42.069140439496195" lon="13.435038816322047"><ele>815.5</ele><time>2026-05-03T14:18:32Z</time></trkpt><trkpt lat="42.068896461594676" lon="13.4350593569465"><ele>814.0</ele><time>2026-05-03T14:18:33Z</time></trkpt><trkpt lat="42.06867499223421" lon="13.435111816513828"><ele>814.0</ele><time>2026-05-03T14:18:34Z</time></trkpt><trkpt lat="42.0684505148109" lon="13.435143729539982"><ele>814.0</ele><time>2026-05-03T14:18:35Z</time></trkpt><trkpt lat="42.06823036335921" lon="13.435153977417896"><ele>814.0</ele><time>2026-05-03T14:18:36Z</time></trkpt><trkpt lat="42.068026429013074" lon="13.435183015218827"><ele>813.3333333333333</ele><time>2026-05-03T14:18:37Z</time></trkpt><trkpt lat="42.06782175950334" lon="13.43521216695348"><ele>812.6666666666667</ele><time>2026-05-03T14:18:38Z</time></trkpt><trkpt lat="42.06762975345218" lon="13.43525419787211"><ele>812.0</ele><time>2026-05-03T14:18:39Z</time></trkpt><trkpt lat="42.06744442746433" lon="13.435272572394735"><ele>812.0</ele><time>2026-05-03T14:18:40Z</time></trkpt><trkpt lat="42.067260030149676" lon="13.435294189195131"><ele>812.0</ele><time>2026-05-03T14:18:41Z</time></trkpt><trkpt lat="42.06707171889689" lon="13.435313662715812"><ele>812.0</ele><time>2026-05-03T14:18:42Z</time></trkpt><trkpt lat="42.06688638281328" lon="13.435339203206034"><ele>812.0</ele><time>2026-05-03T14:18:43Z</time></trkpt><trkpt lat="42.066694882199855" lon="13.4353756089794"><ele>812.0</ele><time>2026-05-03T14:18:44Z</time></trkpt><trkpt lat="42.066500545648374" lon="13.43539162718851"><ele>812.0</ele><time>2026-05-03T14:18:45Z</time></trkpt><trkpt lat="42.066307251176106" lon="13.435388733204789"><ele>810.3333333333334</ele><time>2026-05-03T14:18:46Z</time></trkpt><trkpt lat="42.06611205677649" lon="13.435386656750216"><ele>808.6666666666667</ele><time>2026-05-03T14:18:47Z</time></trkpt><trkpt lat="42.06591578450851" lon="13.435384634823365"><ele>807.0</ele><time>2026-05-03T14:18:48Z</time></trkpt><trkpt lat="42.06571921767002" lon="13.435364217244583"><ele>805.6666666666667</ele><time>2026-05-03T14:18:49Z</time></trkpt><trkpt lat="42.06551804853972" lon="13.435336111765885"><ele>804.3333333333334</ele><time>2026-05-03T14:18:50Z</time></trkpt><trkpt lat="42.06531776354599" lon="13.435313071490954"><ele>803.0</ele><time>2026-05-03T14:18:51Z</time></trkpt><trkpt lat="42.065118802649096" lon="13.435294686992394"><ele>802.6666666666667</ele><time>2026-05-03T14:18:52Z</time></trkpt><trkpt lat="42.06492232069238" lon="13.435276418910833"><ele>802.3333333333333</ele><time>2026-05-03T14:18:53Z</time></trkpt><trkpt lat="42.06473140602271" lon="13.435247307041196"><ele>802.0</ele><time>2026-05-03T14:18:54Z</time></trkpt><trkpt lat="42.06454697632859" lon="13.435218660448236"><ele>802.0</ele><time>2026-05-03T14:18:55Z</time></trkpt><trkpt lat="42.0643508825137" lon="13.435195258005464"><ele>802.0</ele><time>2026-05-03T14:18:56Z</time></trkpt><trkpt lat="42.064160404765005" lon="13.435166430997871"><ele>802.0</ele><time>2026-05-03T14:18:57Z</time></trkpt><trkpt lat="42.06396380839604" lon="13.435139500674092"><ele>801.3333333333333</ele><time>2026-05-03T14:18:58Z</time></trkpt><trkpt lat="42.063769353937" lon="13.43512066801045"><ele>800.6666666666667</ele><time>2026-05-03T14:18:59Z</time></trkpt><trkpt lat="42.06357357409" lon="13.435087870613964"><ele>800.0</ele><time>2026-05-03T14:19:00Z</time></trkpt><trkpt lat="42.06337318139872" lon="13.435064507283743"><ele>798.0</ele><time>2026-05-03T14:19:01Z</time></trkpt><trkpt lat="42.06317333300068" lon="13.435038804484218"><ele>796.0</ele><time>2026-05-03T14:19:02Z</time></trkpt><trkpt lat="42.06297102325058" lon="13.435009095590411"><ele>794.0</ele><time>2026-05-03T14:19:03Z</time></trkpt><trkpt lat="42.06276820102707" lon="13.434986582946182"><ele>794.0</ele><time>2026-05-03T14:19:04Z</time></trkpt><trkpt lat="42.062570585445044" lon="13.434956833719546"><ele>794.0</ele><time>2026-05-03T14:19:05Z</time></trkpt><trkpt lat="42.062371323126065" lon="13.434924059323755"><ele>794.0</ele><time>2026-05-03T14:19:06Z</time></trkpt><trkpt lat="42.06216917192405" lon="13.434903864411936"><ele>792.6666666666667</ele><time>2026-05-03T14:19:07Z</time></trkpt><trkpt lat="42.06196729142434" lon="13.434882936681035"><ele>791.3333333333333</ele><time>2026-05-03T14:19:08Z</time></trkpt><trkpt lat="42.06176769923017" lon="13.434866838758724"><ele>790.0</ele><time>2026-05-03T14:19:09Z</time></trkpt><trkpt lat="42.06157717878796" lon="13.434840512218159"><ele>788.6666666666666</ele><time>2026-05-03T14:19:10Z</time></trkpt><trkpt lat="42.061386937533705" lon="13.434815527094317"><ele>787.3333333333333</ele><time>2026-05-03T14:19:11Z</time></trkpt><trkpt lat="42.061188201298336" lon="13.4347906718124"><ele>786.0</ele><time>2026-05-03T14:19:12Z</time></trkpt><trkpt lat="42.06099645158377" lon="13.434758557947553"><ele>786.0</ele><time>2026-05-03T14:19:13Z</time></trkpt><trkpt lat="42.06079941430364" lon="13.434729946969384"><ele>786.0</ele><time>2026-05-03T14:19:14Z</time></trkpt><trkpt lat="42.06059539309034" lon="13.434703696464608"><ele>786.0</ele><time>2026-05-03T14:19:15Z</time></trkpt><trkpt lat="42.06038596601746" lon="13.434677406237713"><ele>786.0</ele><time>2026-05-03T14:19:15.999Z</time></trkpt><trkpt lat="42.06018449274547" lon="13.434652566422884"><ele>786.0</ele><time>2026-05-03T14:19:16.999Z</time></trkpt><trkpt lat="42.05998587010537" lon="13.434634163942912"><ele>786.0</ele><time>2026-05-03T14:19:17.999Z</time></trkpt><trkpt lat="42.059791936241474" lon="13.434617759329152"><ele>784.3333333333333</ele><time>2026-05-03T14:19:18.999Z</time></trkpt><trkpt lat="42.05960741850208" lon="13.43458985157162"><ele>782.6666666666666</ele><time>2026-05-03T14:19:19.999Z</time></trkpt><trkpt lat="42.059415971189516" lon="13.434561155807632"><ele>781.0</ele><time>2026-05-03T14:19:20.999Z</time></trkpt><trkpt lat="42.059227664953475" lon="13.4345288753277"><ele>779.3333333333333</ele><time>2026-05-03T14:19:21.999Z</time></trkpt><trkpt lat="42.05903914922211" lon="13.434499864406675"><ele>777.6666666666667</ele><time>2026-05-03T14:19:22.999Z</time></trkpt><trkpt lat="42.058866876380606" lon="13.434481016315795"><ele>776.0</ele><time>2026-05-03T14:19:23.999Z</time></trkpt><trkpt lat="42.058704690190424" lon="13.434459848361485"><ele>776.0</ele><time>2026-05-03T14:19:24.999Z</time></trkpt><trkpt lat="42.05855014952059" lon="13.434440270149327"><ele>776.0</ele><time>2026-05-03T14:19:25.999Z</time></trkpt><trkpt lat="42.05840145970729" lon="13.434420353107573"><ele>776.0</ele><time>2026-05-03T14:19:26.999Z</time></trkpt><trkpt lat="42.05825955187847" lon="13.434401555102285"><ele>776.0</ele><time>2026-05-03T14:19:27.999Z</time></trkpt><trkpt lat="42.0581318584056" lon="13.43438424248881"><ele>774.8</ele><time>2026-05-03T14:19:28.999Z</time></trkpt><trkpt lat="42.058008430624575" lon="13.434368558666435"><ele>773.5999999999999</ele><time>2026-05-03T14:19:29.999Z</time></trkpt><trkpt lat="42.05789311033766" lon="13.434354256191103"><ele>772.4</ele><time>2026-05-03T14:19:30.999Z</time></trkpt><trkpt lat="42.05778869846983" lon="13.43434013058847"><ele>771.2</ele><time>2026-05-03T14:19:31.999Z</time></trkpt><trkpt lat="42.05768881453762" lon="13.434329251832581"><ele>770.0</ele><time>2026-05-03T14:19:32.999Z</time></trkpt><trkpt lat="42.05760055746455" lon="13.434313623284067"><ele>770.0</ele><time>2026-05-03T14:19:33.999Z</time></trkpt><trkpt lat="42.057520468304524" lon="13.43430237239349"><ele>770.0</ele><time>2026-05-03T14:19:34.999Z</time></trkpt><trkpt lat="42.057456931034146" lon="13.434285863038314"><ele>770.0</ele><time>2026-05-03T14:19:35.999Z</time></trkpt><trkpt lat="42.05739866555534" lon="13.434249958839487"><ele>770.0</ele><time>2026-05-03T14:19:36.999Z</time></trkpt><trkpt lat="42.05735146768818" lon="13.434191826280623"><ele>770.0</ele><time>2026-05-03T14:19:37.999Z</time></trkpt><trkpt lat="42.057300281692186" lon="13.434119348986878"><ele>770.0</ele><time>2026-05-03T14:19:38.999Z</time></trkpt><trkpt lat="42.05726396673344" lon="13.434033608397767"><ele>770.0</ele><time>2026-05-03T14:19:39.999Z</time></trkpt><trkpt lat="42.05725356446052" lon="13.433937045194721"><ele>769.4</ele><time>2026-05-03T14:19:40.999Z</time></trkpt><trkpt lat="42.057259205010155" lon="13.433838243628573"><ele>768.8</ele><time>2026-05-03T14:19:41.999Z</time></trkpt><trkpt lat="42.057270835895046" lon="13.433728232301524"><ele>768.2</ele><time>2026-05-03T14:19:42.999Z</time></trkpt><trkpt lat="42.05730160264599" lon="13.433603053439029"><ele>767.6</ele><time>2026-05-03T14:19:43.999Z</time></trkpt><trkpt lat="42.057335881240604" lon="13.433465361879982"><ele>767.0</ele><time>2026-05-03T14:19:44.999Z</time></trkpt><trkpt lat="42.05737639349488" lon="13.433317586695079"><ele>767.0</ele><time>2026-05-03T14:19:45.999Z</time></trkpt><trkpt lat="42.05741391761533" lon="13.433159757498261"><ele>767.0</ele><time>2026-05-03T14:19:46.999Z</time></trkpt><trkpt lat="42.05745414616528" lon="13.432987025232231"><ele>767.0</ele><time>2026-05-03T14:19:47.999Z</time></trkpt><trkpt lat="42.057494682778376" lon="13.432809506404295"><ele>767.0</ele><time>2026-05-03T14:19:48.999Z</time></trkpt><trkpt lat="42.057531135997415" lon="13.4326176513414"><ele>767.75</ele><time>2026-05-03T14:19:49.999Z</time></trkpt><trkpt lat="42.05756258768342" lon="13.432428628183679"><ele>768.5</ele><time>2026-05-03T14:19:50.999Z</time></trkpt><trkpt lat="42.05759105938063" lon="13.432229301730255"><ele>769.25</ele><time>2026-05-03T14:19:51.999Z</time></trkpt><trkpt lat="42.05761517185214" lon="13.432036852904915"><ele>770.0</ele><time>2026-05-03T14:19:52.999Z</time></trkpt><trkpt lat="42.05765874010906" lon="13.43185207457471"><ele>770.5</ele><time>2026-05-03T14:19:53.999Z</time></trkpt><trkpt lat="42.05768678555824" lon="13.431663815012293"><ele>771.0</ele><time>2026-05-03T14:19:54.999Z</time></trkpt><trkpt lat="42.05770525882111" lon="13.431475479404385"><ele>771.5</ele><time>2026-05-03T14:19:55.999Z</time></trkpt><trkpt lat="42.057730341114045" lon="13.431300850106743"><ele>772.0</ele><time>2026-05-03T14:19:56.999Z</time></trkpt><trkpt lat="42.05776052883932" lon="13.431137518389416"><ele>772.0</ele><time>2026-05-03T14:19:57.999Z</time></trkpt><trkpt lat="42.05778223303782" lon="13.430977094953734"><ele>772.0</ele><time>2026-05-03T14:19:58.999Z</time></trkpt><trkpt lat="42.057802274086235" lon="13.430819248477828"><ele>772.0</ele><time>2026-05-03T14:19:59.999Z</time></trkpt><trkpt lat="42.0578196405006" lon="13.430652492751673"><ele>772.0</ele><time>2026-05-03T14:20:00.999Z</time></trkpt><trkpt lat="42.057837519583" lon="13.430477823896728"><ele>771.75</ele><time>2026-05-03T14:20:01.999Z</time></trkpt><trkpt lat="42.05785370956326" lon="13.430306285600341"><ele>771.5</ele><time>2026-05-03T14:20:02.999Z</time></trkpt><trkpt lat="42.05786779014145" lon="13.43013382914947"><ele>771.25</ele><time>2026-05-03T14:20:03.999Z</time></trkpt><trkpt lat="42.05788552331598" lon="13.429965815338042"><ele>771.0</ele><time>2026-05-03T14:20:05Z</time></trkpt><trkpt lat="42.05790682358479" lon="13.429793374453428"><ele>771.0</ele><time>2026-05-03T14:20:06Z</time></trkpt><trkpt lat="42.057932340748295" lon="13.429614978028484"><ele>771.0</ele><time>2026-05-03T14:20:07Z</time></trkpt><trkpt lat="42.05796280386538" lon="13.429432618585578"><ele>771.0</ele><time>2026-05-03T14:20:08Z</time></trkpt><trkpt lat="42.0579960430707" lon="13.429247456465045"><ele>771.0</ele><time>2026-05-03T14:20:09Z</time></trkpt><trkpt lat="42.05802516487958" lon="13.429069194167226"><ele>771.0</ele><time>2026-05-03T14:20:10Z</time></trkpt><trkpt lat="42.05804782962564" lon="13.428892588292209"><ele>771.0</ele><time>2026-05-03T14:20:11Z</time></trkpt><trkpt lat="42.05806480920691" lon="13.428714316544644"><ele>771.0</ele><time>2026-05-03T14:20:12Z</time></trkpt><trkpt lat="42.058081742889684" lon="13.42853894906352"><ele>771.0</ele><time>2026-05-03T14:20:13Z</time></trkpt><trkpt lat="42.05809860176458" lon="13.428364539171085"><ele>771.0</ele><time>2026-05-03T14:20:14Z</time></trkpt><trkpt lat="42.05811175908691" lon="13.428187291647193"><ele>771.0</ele><time>2026-05-03T14:20:15Z</time></trkpt><trkpt lat="42.05812698335832" lon="13.428002090659238"><ele>771.0</ele><time>2026-05-03T14:20:16Z</time></trkpt><trkpt lat="42.05814398750666" lon="13.42780400399981"><ele>771.0</ele><time>2026-05-03T14:20:17Z</time></trkpt><trkpt lat="42.05815793617504" lon="13.427603431047332"><ele>771.0</ele><time>2026-05-03T14:20:18Z</time></trkpt><trkpt lat="42.058175972278974" lon="13.427397182105675"><ele>771.0</ele><time>2026-05-03T14:20:19Z</time></trkpt><trkpt lat="42.05819619552457" lon="13.427187758115785"><ele>771.0</ele><time>2026-05-03T14:20:20Z</time></trkpt><trkpt lat="42.05821484253706" lon="13.426978832324714"><ele>770.3333333333333</ele><time>2026-05-03T14:20:21Z</time></trkpt><trkpt lat="42.058234447508745" lon="13.426772047814344"><ele>769.6666666666666</ele><time>2026-05-03T14:20:22Z</time></trkpt><trkpt lat="42.05825160003274" lon="13.426565348795801"><ele>769.0</ele><time>2026-05-03T14:20:23Z</time></trkpt><trkpt lat="42.0582740567448" lon="13.426350976434858"><ele>770.0</ele><time>2026-05-03T14:20:24Z</time></trkpt><trkpt lat="42.05829352284847" lon="13.426138577820545"><ele>771.0</ele><time>2026-05-03T14:20:25Z</time></trkpt><trkpt lat="42.05831894022373" lon="13.425918556020328"><ele>772.0</ele><time>2026-05-03T14:20:26Z</time></trkpt><trkpt lat="42.05834285071814" lon="13.425709098136672"><ele>772.0</ele><time>2026-05-03T14:20:27Z</time></trkpt><trkpt lat="42.05836410073423" lon="13.425495884592376"><ele>772.0</ele><time>2026-05-03T14:20:28Z</time></trkpt><trkpt lat="42.05838608095587" lon="13.42528394440646"><ele>772.0</ele><time>2026-05-03T14:20:29Z</time></trkpt><trkpt lat="42.05841394633742" lon="13.42506733174693"><ele>772.3333333333333</ele><time>2026-05-03T14:20:30Z</time></trkpt><trkpt lat="42.058450398958186" lon="13.424854121967382"><ele>772.6666666666667</ele><time>2026-05-03T14:20:31Z</time></trkpt><trkpt lat="42.05849794185448" lon="13.424628932060278"><ele>773.0</ele><time>2026-05-03T14:20:32Z</time></trkpt><trkpt lat="42.05855595452245" lon="13.424419527651402"><ele>772.3333333333334</ele><time>2026-05-03T14:20:33Z</time></trkpt><trkpt lat="42.05860336049468" lon="13.424196538146417"><ele>771.6666666666667</ele><time>2026-05-03T14:20:34Z</time></trkpt><trkpt lat="42.058662365193946" lon="13.423980232041071"><ele>771.0</ele><time>2026-05-03T14:20:35Z</time></trkpt><trkpt lat="42.058719570813935" lon="13.423760797299053"><ele>771.0</ele><time>2026-05-03T14:20:36Z</time></trkpt><trkpt lat="42.05877360125975" lon="13.423543826965306"><ele>771.0</ele><time>2026-05-03T14:20:37Z</time></trkpt><trkpt lat="42.0588289230447" lon="13.423326571232975"><ele>771.0</ele><time>2026-05-03T14:20:38Z</time></trkpt><trkpt lat="42.058882214287614" lon="13.4231132608482"><ele>770.3333333333333</ele><time>2026-05-03T14:20:39Z</time></trkpt><trkpt lat="42.058937228373324" lon="13.422910689891816"><ele>769.6666666666666</ele><time>2026-05-03T14:20:40Z</time></trkpt><trkpt lat="42.05899287213543" lon="13.422718810591789"><ele>769.0</ele><time>2026-05-03T14:20:41Z</time></trkpt><trkpt lat="42.05904993839562" lon="13.422528839022032"><ele>769.0</ele><time>2026-05-03T14:20:42Z</time></trkpt><trkpt lat="42.05910959549852" lon="13.422339924160239"><ele>769.0</ele><time>2026-05-03T14:20:43Z</time></trkpt><trkpt lat="42.05917227713544" lon="13.422147601238484"><ele>769.0</ele><time>2026-05-03T14:20:44Z</time></trkpt><trkpt lat="42.059231546035846" lon="13.421954752620742"><ele>770.0</ele><time>2026-05-03T14:20:45Z</time></trkpt><trkpt lat="42.05929351423239" lon="13.42175750695843"><ele>771.0</ele><time>2026-05-03T14:20:46Z</time></trkpt><trkpt lat="42.05935301632612" lon="13.421564503258395"><ele>772.0</ele><time>2026-05-03T14:20:47Z</time></trkpt><trkpt lat="42.059409742650395" lon="13.421374731188278"><ele>771.6666666666666</ele><time>2026-05-03T14:20:48Z</time></trkpt><trkpt lat="42.05946952928483" lon="13.421189241655288"><ele>771.3333333333333</ele><time>2026-05-03T14:20:49Z</time></trkpt><trkpt lat="42.05953352003501" lon="13.421004665161856"><ele>771.0</ele><time>2026-05-03T14:20:50Z</time></trkpt><trkpt lat="42.05960000999699" lon="13.420817078712805"><ele>771.0</ele><time>2026-05-03T14:20:51Z</time></trkpt><trkpt lat="42.05966396799033" lon="13.420633429184733"><ele>771.0</ele><time>2026-05-03T14:20:51.999Z</time></trkpt><trkpt lat="42.05971843729838" lon="13.420454255695612"><ele>771.0</ele><time>2026-05-03T14:20:52.999Z</time></trkpt><trkpt lat="42.059793846328134" lon="13.420280981471667"><ele>771.0</ele><time>2026-05-03T14:20:53.999Z</time></trkpt><trkpt lat="42.059862469040205" lon="13.42009421228545"><ele>770.6666666666667</ele><time>2026-05-03T14:20:54.999Z</time></trkpt><trkpt lat="42.05993348273985" lon="13.419899895088427"><ele>770.3333333333334</ele><time>2026-05-03T14:20:55.999Z</time></trkpt><trkpt lat="42.06000427048998" lon="13.419701342067658"><ele>770.0</ele><time>2026-05-03T14:20:56.999Z</time></trkpt><trkpt lat="42.06007423354341" lon="13.419505102236602"><ele>771.25</ele><time>2026-05-03T14:20:57.999Z</time></trkpt><trkpt lat="42.06013892651466" lon="13.419320773405909"><ele>772.5</ele><time>2026-05-03T14:20:58.999Z</time></trkpt><trkpt lat="42.0601987908952" lon="13.419149176889386"><ele>773.75</ele><time>2026-05-03T14:20:59.999Z</time></trkpt><trkpt lat="42.06025030270786" lon="13.419001522340121"><ele>775.0</ele><time>2026-05-03T14:21:00.999Z</time></trkpt><trkpt lat="42.06029595809845" lon="13.4188706547737"><ele>775.25</ele><time>2026-05-03T14:21:01.999Z</time></trkpt><trkpt lat="42.06033734550823" lon="13.418720188640618"><ele>775.5</ele><time>2026-05-03T14:21:02.999Z</time></trkpt><trkpt lat="42.060409951108234" lon="13.418577233799137"><ele>775.75</ele><time>2026-05-03T14:21:03.999Z</time></trkpt><trkpt lat="42.06047742127841" lon="13.418417283210802"><ele>776.0</ele><time>2026-05-03T14:21:04.999Z</time></trkpt><trkpt lat="42.0605325811668" lon="13.41824523228412"><ele>776.0</ele><time>2026-05-03T14:21:05.999Z</time></trkpt><trkpt lat="42.06058256370425" lon="13.41807314808689"><ele>776.0</ele><time>2026-05-03T14:21:06.999Z</time></trkpt><trkpt lat="42.060634328944964" lon="13.41790180230244"><ele>776.0</ele><time>2026-05-03T14:21:07.999Z</time></trkpt><trkpt lat="42.06069078402479" lon="13.417717521371374"><ele>776.0</ele><time>2026-05-03T14:21:08.999Z</time></trkpt><trkpt lat="42.06072090686297" lon="13.417555260088877"><ele>776.0</ele><time>2026-05-03T14:21:09.999Z</time></trkpt><trkpt lat="42.06075987501715" lon="13.41735536981692"><ele>776.0</ele><time>2026-05-03T14:21:10.999Z</time></trkpt><trkpt lat="42.0608438925357" lon="13.417163039171893"><ele>776.0</ele><time>2026-05-03T14:21:11.999Z</time></trkpt><trkpt lat="42.060923497019296" lon="13.41698835148314"><ele>776.0</ele><time>2026-05-03T14:21:12.999Z</time></trkpt><trkpt lat="42.06099816271762" lon="13.416840615397414"><ele>776.0</ele><time>2026-05-03T14:21:13.999Z</time></trkpt><trkpt lat="42.060960383525114" lon="13.416604765313913"><ele>776.0</ele><time>2026-05-03T14:21:14.999Z</time></trkpt><trkpt lat="42.06096709577298" lon="13.416386735964602"><ele>774.6666666666667</ele><time>2026-05-03T14:21:15.999Z</time></trkpt><trkpt lat="42.06096514477742" lon="13.416156863553388"><ele>773.3333333333333</ele><time>2026-05-03T14:21:16.999Z</time></trkpt><trkpt lat="42.06096087069432" lon="13.415936331864206"><ele>772.0</ele><time>2026-05-03T14:21:17.999Z</time></trkpt><trkpt lat="42.060956019762386" lon="13.415707817231617"><ele>772.0</ele><time>2026-05-03T14:21:18.999Z</time></trkpt><trkpt lat="42.06096433583205" lon="13.415489109489435"><ele>772.0</ele><time>2026-05-03T14:21:19.999Z</time></trkpt><trkpt lat="42.060969839566745" lon="13.415278033169656"><ele>772.0</ele><time>2026-05-03T14:21:20.999Z</time></trkpt><trkpt lat="42.06097344929333" lon="13.415071170978381"><ele>771.75</ele><time>2026-05-03T14:21:21.999Z</time></trkpt><trkpt lat="42.06098405699658" lon="13.414872583275342"><ele>771.5</ele><time>2026-05-03T14:21:22.999Z</time></trkpt><trkpt lat="42.0609972868608" lon="13.414668484298302"><ele>771.25</ele><time>2026-05-03T14:21:23.999Z</time></trkpt><trkpt lat="42.06101715704063" lon="13.41446922236895"><ele>771.0</ele><time>2026-05-03T14:21:24.999Z</time></trkpt><trkpt lat="42.06104254786993" lon="13.414271767855286"><ele>770.5</ele><time>2026-05-03T14:21:25.999Z</time></trkpt><trkpt lat="42.061080384627516" lon="13.414087201020033"><ele>770.0</ele><time>2026-05-03T14:21:26.999Z</time></trkpt><trkpt lat="42.06112219903144" lon="13.413912939544609"><ele>769.5</ele><time>2026-05-03T14:21:27.999Z</time></trkpt><trkpt lat="42.06117246489939" lon="13.413742982985601"><ele>769.0</ele><time>2026-05-03T14:21:28.999Z</time></trkpt><trkpt lat="42.06121708986394" lon="13.413590707324596"><ele>768.8000000000001</ele><time>2026-05-03T14:21:29.999Z</time></trkpt><trkpt lat="42.06124471056255" lon="13.413427576650854"><ele>768.6</ele><time>2026-05-03T14:21:30.999Z</time></trkpt><trkpt lat="42.061288376116316" lon="13.413299054344234"><ele>768.4</ele><time>2026-05-03T14:21:31.999Z</time></trkpt><trkpt lat="42.061313118025154" lon="13.413163424904683"><ele>768.2</ele><time>2026-05-03T14:21:32.999Z</time></trkpt><trkpt lat="42.06134675657981" lon="13.41302646402155"><ele>768.0</ele><time>2026-05-03T14:21:33.999Z</time></trkpt><trkpt lat="42.061378464751236" lon="13.412890643031192"><ele>767.5999999999999</ele><time>2026-05-03T14:21:34.999Z</time></trkpt><trkpt lat="42.06140390498039" lon="13.412751365917263"><ele>767.1999999999999</ele><time>2026-05-03T14:21:35.999Z</time></trkpt><trkpt lat="42.061438884344064" lon="13.412613594119838"><ele>766.8</ele><time>2026-05-03T14:21:36.999Z</time></trkpt><trkpt lat="42.061474777556036" lon="13.41247070698152"><ele>766.4</ele><time>2026-05-03T14:21:37.999Z</time></trkpt><trkpt lat="42.061505811684036" lon="13.412329832357965"><ele>766.0</ele><time>2026-05-03T14:21:38.999Z</time></trkpt><trkpt lat="42.061536232451125" lon="13.412188029357361"><ele>765.75</ele><time>2026-05-03T14:21:39.999Z</time></trkpt><trkpt lat="42.06159125158793" lon="13.412056326988635"><ele>765.5</ele><time>2026-05-03T14:21:40.999Z</time></trkpt><trkpt lat="42.06163097695054" lon="13.411899348505811"><ele>765.25</ele><time>2026-05-03T14:21:41.999Z</time></trkpt><trkpt lat="42.06168465403518" lon="13.411745737851525"><ele>765.0</ele><time>2026-05-03T14:21:42.999Z</time></trkpt><trkpt lat="42.06174527261129" lon="13.41158398058867"><ele>765.0</ele><time>2026-05-03T14:21:43.999Z</time></trkpt><trkpt lat="42.06180751138514" lon="13.411412590501257"><ele>765.0</ele><time>2026-05-03T14:21:44.999Z</time></trkpt><trkpt lat="42.06186578128708" lon="13.411236348431204"><ele>765.0</ele><time>2026-05-03T14:21:45.999Z</time></trkpt><trkpt lat="42.061907242428454" lon="13.411041093281687"><ele>765.0</ele><time>2026-05-03T14:21:46.999Z</time></trkpt><trkpt lat="42.06194466422307" lon="13.41081253319133"><ele>764.0</ele><time>2026-05-03T14:21:47.999Z</time></trkpt><trkpt lat="42.06198722916619" lon="13.410542183559558"><ele>763.0</ele><time>2026-05-03T14:21:48.999Z</time></trkpt><trkpt lat="42.062038702932504" lon="13.410261246740252"><ele>762.0</ele><time>2026-05-03T14:21:49.999Z</time></trkpt><trkpt lat="42.06209895968072" lon="13.409981810446773"><ele>761.3333333333334</ele><time>2026-05-03T14:21:50.999Z</time></trkpt><trkpt lat="42.06216106024615" lon="13.409737775426079"><ele>760.6666666666667</ele><time>2026-05-03T14:21:51.999Z</time></trkpt><trkpt lat="42.062217658590995" lon="13.409494316885096"><ele>760.0</ele><time>2026-05-03T14:21:52.999Z</time></trkpt><trkpt lat="42.06227919089965" lon="13.409255983074873"><ele>759.3333333333334</ele><time>2026-05-03T14:21:53.999Z</time></trkpt><trkpt lat="42.06232961239249" lon="13.40901569050359"><ele>758.6666666666666</ele><time>2026-05-03T14:21:54.999Z</time></trkpt><trkpt lat="42.06239538636656" lon="13.408795531285715"><ele>758.0</ele><time>2026-05-03T14:21:55.999Z</time></trkpt><trkpt lat="42.062435540760646" lon="13.408573616619085"><ele>758.3333333333333</ele><time>2026-05-03T14:21:56.999Z</time></trkpt><trkpt lat="42.06248421492828" lon="13.4083651640081"><ele>758.6666666666666</ele><time>2026-05-03T14:21:57.999Z</time></trkpt><trkpt lat="42.062544293262356" lon="13.408154799538869"><ele>759.0</ele><time>2026-05-03T14:21:58.999Z</time></trkpt><trkpt lat="42.062599613552365" lon="13.407925147141842"><ele>757.3333333333334</ele><time>2026-05-03T14:21:59.999Z</time></trkpt><trkpt lat="42.062675140061735" lon="13.407706962969657"><ele>755.6666666666667</ele><time>2026-05-03T14:22:00.999Z</time></trkpt><trkpt lat="42.06272477057212" lon="13.407478389905508"><ele>754.0</ele><time>2026-05-03T14:22:01.999Z</time></trkpt><trkpt lat="42.062807629792694" lon="13.407269185169598"><ele>753.6666666666667</ele><time>2026-05-03T14:22:02.999Z</time></trkpt><trkpt lat="42.0628566732493" lon="13.407064114649911"><ele>753.3333333333334</ele><time>2026-05-03T14:22:03.999Z</time></trkpt><trkpt lat="42.06292131631555" lon="13.406866452015139"><ele>753.0</ele><time>2026-05-03T14:22:04.999Z</time></trkpt><trkpt lat="42.06298715937406" lon="13.40666633647616"><ele>753.0</ele><time>2026-05-03T14:22:05.999Z</time></trkpt><trkpt lat="42.06305827292253" lon="13.406461108855439"><ele>753.0</ele><time>2026-05-03T14:22:06.999Z</time></trkpt><trkpt lat="42.06313178846361" lon="13.406247896876621"><ele>753.0</ele><time>2026-05-03T14:22:07.999Z</time></trkpt><trkpt lat="42.06322808028354" lon="13.406036939344325"><ele>753.0</ele><time>2026-05-03T14:22:08.999Z</time></trkpt><trkpt lat="42.06330438883717" lon="13.40580300632035"><ele>753.0</ele><time>2026-05-03T14:22:09.999Z</time></trkpt><trkpt lat="42.06339475279801" lon="13.405593147111517"><ele>753.0</ele><time>2026-05-03T14:22:10.999Z</time></trkpt><trkpt lat="42.06348838273849" lon="13.405370235193475"><ele>750.6666666666666</ele><time>2026-05-03T14:22:11.999Z</time></trkpt><trkpt lat="42.06359010091469" lon="13.405153408509433"><ele>748.3333333333333</ele><time>2026-05-03T14:22:12.999Z</time></trkpt><trkpt lat="42.0637012959767" lon="13.404946520970373"><ele>746.0</ele><time>2026-05-03T14:22:13.999Z</time></trkpt><trkpt lat="42.063824339825025" lon="13.404762605202219"><ele>744.6666666666666</ele><time>2026-05-03T14:22:14.999Z</time></trkpt><trkpt lat="42.06394006885809" lon="13.404569443736401"><ele>743.3333333333334</ele><time>2026-05-03T14:22:15.999Z</time></trkpt><trkpt lat="42.06405865523449" lon="13.404387342888096"><ele>742.0</ele><time>2026-05-03T14:22:16.999Z</time></trkpt><trkpt lat="42.06416818348506" lon="13.40420150165916"><ele>742.0</ele><time>2026-05-03T14:22:17.999Z</time></trkpt><trkpt lat="42.06427976476357" lon="13.40401819288375"><ele>742.0</ele><time>2026-05-03T14:22:18.999Z</time></trkpt><trkpt lat="42.064381188137276" lon="13.403829185489965"><ele>742.0</ele><time>2026-05-03T14:22:19.999Z</time></trkpt><trkpt lat="42.064461875771904" lon="13.403624154562278"><ele>741.0</ele><time>2026-05-03T14:22:20.999Z</time></trkpt><trkpt lat="42.06453157002613" lon="13.403391488280485"><ele>740.0</ele><time>2026-05-03T14:22:21.999Z</time></trkpt><trkpt lat="42.06459039341786" lon="13.403138813587724"><ele>739.0</ele><time>2026-05-03T14:22:22.999Z</time></trkpt><trkpt lat="42.06464603932326" lon="13.402868870586168"><ele>738.0</ele><time>2026-05-03T14:22:23.999Z</time></trkpt><trkpt lat="42.06470302341428" lon="13.402587022436679"><ele>737.0</ele><time>2026-05-03T14:22:24.999Z</time></trkpt><trkpt lat="42.064772375245425" lon="13.402282088130946"><ele>736.0</ele><time>2026-05-03T14:22:25.999Z</time></trkpt><trkpt lat="42.06486396242944" lon="13.401962141915572"><ele>735.0</ele><time>2026-05-03T14:22:26.999Z</time></trkpt><trkpt lat="42.06494014512601" lon="13.401642910016404"><ele>735.0</ele><time>2026-05-03T14:22:27.999Z</time></trkpt><trkpt lat="42.06501227745256" lon="13.40133625785957"><ele>735.0</ele><time>2026-05-03T14:22:28.999Z</time></trkpt><trkpt lat="42.065083598856226" lon="13.401033824951202"><ele>734.0</ele><time>2026-05-03T14:22:29.999Z</time></trkpt><trkpt lat="42.065141647961255" lon="13.400722863431746"><ele>733.0</ele><time>2026-05-03T14:22:30.999Z</time></trkpt><trkpt lat="42.065217737970094" lon="13.40041043356873"><ele>731.5</ele><time>2026-05-03T14:22:31.999Z</time></trkpt><trkpt lat="42.06529172619148" lon="13.400106665190913"><ele>730.0</ele><time>2026-05-03T14:22:32.999Z</time></trkpt><trkpt lat="42.065368533809206" lon="13.399796889090394"><ele>728.5</ele><time>2026-05-03T14:22:33.999Z</time></trkpt><trkpt lat="42.06544575208447" lon="13.39947783943029"><ele>727.0</ele><time>2026-05-03T14:22:34.999Z</time></trkpt><trkpt lat="42.06552010959955" lon="13.399163876493832"><ele>727.0</ele><time>2026-05-03T14:22:35.999Z</time></trkpt><trkpt lat="42.06559339461929" lon="13.398857122175727"><ele>727.0</ele><time>2026-05-03T14:22:36.999Z</time></trkpt><trkpt lat="42.065669676727055" lon="13.398544077135796"><ele>726.5</ele><time>2026-05-03T14:22:37.999Z</time></trkpt><trkpt lat="42.06574872283075" lon="13.398220728734614"><ele>726.0</ele><time>2026-05-03T14:22:38.999Z</time></trkpt><trkpt lat="42.06583070152876" lon="13.397893475324691"><ele>723.0</ele><time>2026-05-03T14:22:39.999Z</time></trkpt><trkpt lat="42.06590995624863" lon="13.397555052774202"><ele>720.0</ele><time>2026-05-03T14:22:40.999Z</time></trkpt><trkpt lat="42.06598514236085" lon="13.397232427346122"><ele>719.0</ele><time>2026-05-03T14:22:41.999Z</time></trkpt><trkpt lat="42.06606474351301" lon="13.396916504309406"><ele>718.0</ele><time>2026-05-03T14:22:42.999Z</time></trkpt><trkpt lat="42.06614162008276" lon="13.396610755626957"><ele>718.0</ele><time>2026-05-03T14:22:43.999Z</time></trkpt><trkpt lat="42.06621862901125" lon="13.396305369684123"><ele>718.0</ele><time>2026-05-03T14:22:44.999Z</time></trkpt><trkpt lat="42.06628795529545" lon="13.396003001950529"><ele>718.0</ele><time>2026-05-03T14:22:45.999Z</time></trkpt><trkpt lat="42.066363237270245" lon="13.395696520215463"><ele>718.0</ele><time>2026-05-03T14:22:46.999Z</time></trkpt><trkpt lat="42.06643917598965" lon="13.395396240584612"><ele>717.3333333333334</ele><time>2026-05-03T14:22:47.999Z</time></trkpt><trkpt lat="42.06650251367319" lon="13.395111264521836"><ele>716.6666666666666</ele><time>2026-05-03T14:22:48.999Z</time></trkpt><trkpt lat="42.066562594786575" lon="13.394838857435127"><ele>716.0</ele><time>2026-05-03T14:22:49.999Z</time></trkpt><trkpt lat="42.06663279839844" lon="13.394570203757047"><ele>715.6666666666666</ele><time>2026-05-03T14:22:50.999Z</time></trkpt><trkpt lat="42.06669692106508" lon="13.39430165527504"><ele>715.3333333333334</ele><time>2026-05-03T14:22:51.999Z</time></trkpt><trkpt lat="42.06676152067561" lon="13.394037673864535"><ele>715.0</ele><time>2026-05-03T14:22:52.999Z</time></trkpt><trkpt lat="42.0668240914983" lon="13.393776774398207"><ele>715.0</ele><time>2026-05-03T14:22:53.999Z</time></trkpt><trkpt lat="42.06688461810839" lon="13.393527833088521"><ele>715.0</ele><time>2026-05-03T14:22:54.999Z</time></trkpt><trkpt lat="42.06694986683111" lon="13.39327645018811"><ele>715.0</ele><time>2026-05-03T14:22:55.999Z</time></trkpt><trkpt lat="42.06702184932363" lon="13.393033345523449"><ele>714.3333333333334</ele><time>2026-05-03T14:22:56.999Z</time></trkpt><trkpt lat="42.0670973172895" lon="13.392793409475615"><ele>713.6666666666666</ele><time>2026-05-03T14:22:57.999Z</time></trkpt><trkpt lat="42.06717173564235" lon="13.392551252947715"><ele>713.0</ele><time>2026-05-03T14:22:58.999Z</time></trkpt><trkpt lat="42.067246786575986" lon="13.39230259818741"><ele>712.6666666666666</ele><time>2026-05-03T14:22:59.999Z</time></trkpt><trkpt lat="42.067322659727616" lon="13.39205057609895"><ele>712.3333333333334</ele><time>2026-05-03T14:23:00.999Z</time></trkpt><trkpt lat="42.06740107743481" lon="13.39179260765588"><ele>712.0</ele><time>2026-05-03T14:23:01.999Z</time></trkpt><trkpt lat="42.067473218921776" lon="13.391540399717961"><ele>712.6666666666667</ele><time>2026-05-03T14:23:02.999Z</time></trkpt><trkpt lat="42.067544655357125" lon="13.391280826453668"><ele>713.3333333333334</ele><time>2026-05-03T14:23:03.999Z</time></trkpt><trkpt lat="42.06761527829168" lon="13.391022756952122"><ele>714.0</ele><time>2026-05-03T14:23:04.999Z</time></trkpt><trkpt lat="42.06769991968831" lon="13.390769813418926"><ele>714.0</ele><time>2026-05-03T14:23:05.999Z</time></trkpt><trkpt lat="42.06780486913603" lon="13.39052042514891"><ele>714.0</ele><time>2026-05-03T14:23:06.999Z</time></trkpt><trkpt lat="42.067927906266284" lon="13.390270095503181"><ele>714.0</ele><time>2026-05-03T14:23:07.999Z</time></trkpt><trkpt lat="42.0680603223309" lon="13.390011279805472"><ele>713.0</ele><time>2026-05-03T14:23:08.999Z</time></trkpt><trkpt lat="42.06819752100946" lon="13.389745708777559"><ele>712.0</ele><time>2026-05-03T14:23:09.999Z</time></trkpt><trkpt lat="42.06834468288624" lon="13.389477094872575"><ele>712.0</ele><time>2026-05-03T14:23:10.999Z</time></trkpt><trkpt lat="42.06849211134586" lon="13.389193490276984"><ele>712.0</ele><time>2026-05-03T14:23:11.999Z</time></trkpt><trkpt lat="42.06863776092629" lon="13.388921581401814"><ele>712.5</ele><time>2026-05-03T14:23:12.999Z</time></trkpt><trkpt lat="42.068777472079645" lon="13.388652763247036"><ele>713.0</ele><time>2026-05-03T14:23:13.999Z</time></trkpt><trkpt lat="42.06891139807345" lon="13.388389870001358"><ele>713.0</ele><time>2026-05-03T14:23:14.999Z</time></trkpt><trkpt lat="42.069044987898266" lon="13.388139840210517"><ele>713.0</ele><time>2026-05-03T14:23:15.999Z</time></trkpt><trkpt lat="42.06917991181177" lon="13.38789314088907"><ele>713.5</ele><time>2026-05-03T14:23:16.999Z</time></trkpt><trkpt lat="42.0693113934671" lon="13.387643352733537"><ele>714.0</ele><time>2026-05-03T14:23:17.999Z</time></trkpt><trkpt lat="42.06944216015303" lon="13.387398654792477"><ele>714.0</ele><time>2026-05-03T14:23:18.999Z</time></trkpt><trkpt lat="42.069573713872664" lon="13.387153939702065"><ele>714.0</ele><time>2026-05-03T14:23:19.999Z</time></trkpt><trkpt lat="42.06969731798369" lon="13.386914110030098"><ele>714.0</ele><time>2026-05-03T14:23:20.999Z</time></trkpt><trkpt lat="42.06982160304898" lon="13.386687245674871"><ele>714.0</ele><time>2026-05-03T14:23:21.999Z</time></trkpt><trkpt lat="42.06994161695507" lon="13.386454838587213"><ele>714.0</ele><time>2026-05-03T14:23:22.999Z</time></trkpt><trkpt lat="42.07006596269728" lon="13.386226787518606"><ele>714.0</ele><time>2026-05-03T14:23:23.999Z</time></trkpt><trkpt lat="42.07019590585811" lon="13.38599130902043"><ele>715.0</ele><time>2026-05-03T14:23:24.999Z</time></trkpt><trkpt lat="42.070323386068786" lon="13.385760544966587"><ele>716.0</ele><time>2026-05-03T14:23:25.999Z</time></trkpt><trkpt lat="42.070452243488674" lon="13.385531476815771"><ele>717.0</ele><time>2026-05-03T14:23:26.999Z</time></trkpt><trkpt lat="42.070576314349" lon="13.385301064533426"><ele>717.0</ele><time>2026-05-03T14:23:27.999Z</time></trkpt><trkpt lat="42.07069613757096" lon="13.385061831939732"><ele>717.0</ele><time>2026-05-03T14:23:28.999Z</time></trkpt><trkpt lat="42.07081397251819" lon="13.384825590973673"><ele>717.0</ele><time>2026-05-03T14:23:29.999Z</time></trkpt><trkpt lat="42.07093075298433" lon="13.384609280733336"><ele>718.0</ele><time>2026-05-03T14:23:30.999Z</time></trkpt><trkpt lat="42.07104879060597" lon="13.384407254158553"><ele>719.0</ele><time>2026-05-03T14:23:31.999Z</time></trkpt><trkpt lat="42.07117505964497" lon="13.384221532131587"><ele>720.0</ele><time>2026-05-03T14:23:32.999Z</time></trkpt><trkpt lat="42.07131845782039" lon="13.3840664188239"><ele>720.0</ele><time>2026-05-03T14:23:33.999Z</time></trkpt><trkpt lat="42.07145821637872" lon="13.383912086841267"><ele>720.0</ele><time>2026-05-03T14:23:34.999Z</time></trkpt><trkpt lat="42.071584507571565" lon="13.38374786195827"><ele>720.0</ele><time>2026-05-03T14:23:35.999Z</time></trkpt><trkpt lat="42.0716937217581" lon="13.383584207193493"><ele>721.0</ele><time>2026-05-03T14:23:36.999Z</time></trkpt><trkpt lat="42.07177626953942" lon="13.383436624758994"><ele>722.0</ele><time>2026-05-03T14:23:37.999Z</time></trkpt><trkpt lat="42.07186184082768" lon="13.383302584547028"><ele>723.0</ele><time>2026-05-03T14:23:38.999Z</time></trkpt><trkpt lat="42.071939704723455" lon="13.38318318738845"><ele>724.0</ele><time>2026-05-03T14:23:39.999Z</time></trkpt><trkpt lat="42.072013037015914" lon="13.383079993996946"><ele>723.6</ele><time>2026-05-03T14:23:40.999Z</time></trkpt><trkpt lat="42.07209687780836" lon="13.382994167017205"><ele>723.2</ele><time>2026-05-03T14:23:41.999Z</time></trkpt><trkpt lat="42.07218255791714" lon="13.382926032668044"><ele>722.8000000000001</ele><time>2026-05-03T14:23:42.999Z</time></trkpt><trkpt lat="42.07225877183144" lon="13.382847587006076"><ele>722.4000000000001</ele><time>2026-05-03T14:23:43.999Z</time></trkpt><trkpt lat="42.07230364677181" lon="13.382768958364458"><ele>722.0</ele><time>2026-05-03T14:23:44.999Z</time></trkpt><trkpt lat="42.072303060101646" lon="13.38263069861069"><ele>722.0</ele><time>2026-05-03T14:23:46.999Z</time></trkpt><trkpt lat="42.0722128191078" lon="13.38250638465575"><ele>722.0</ele><time>2026-05-03T14:23:48.999Z</time></trkpt><trkpt lat="42.07213948838711" lon="13.382483204548821"><ele>722.0</ele><time>2026-05-03T14:23:49.999Z</time></trkpt><trkpt lat="42.07205744102484" lon="13.382508585297533"><ele>722.0</ele><time>2026-05-03T14:23:50.999Z</time></trkpt><trkpt lat="42.07197735390822" lon="13.38260013646822"><ele>722.0</ele><time>2026-05-03T14:23:51.999Z</time></trkpt><trkpt lat="42.07190718365901" lon="13.38266034106397"><ele>722.0</ele><time>2026-05-03T14:23:52.999Z</time></trkpt><trkpt lat="42.071809354218914" lon="13.382685113211366"><ele>722.0</ele><time>2026-05-03T14:23:53.999Z</time></trkpt><trkpt lat="42.07169113112359" lon="13.38266420677041"><ele>722.0</ele><time>2026-05-03T14:23:54.999Z</time></trkpt><trkpt lat="42.071563063428975" lon="13.382613081215784"><ele>722.0</ele><time>2026-05-03T14:23:55.999Z</time></trkpt><trkpt lat="42.071415935554136" lon="13.382564446408471"><ele>722.0</ele><time>2026-05-03T14:23:56.999Z</time></trkpt><trkpt lat="42.07121639564384" lon="13.382481229501204"><ele>722.0</ele><time>2026-05-03T14:23:57.999Z</time></trkpt><trkpt lat="42.07105548934022" lon="13.38240571716063"><ele>722.0</ele><time>2026-05-03T14:23:58.999Z</time></trkpt><trkpt lat="42.07090248298821" lon="13.38231796769608"><ele>721.25</ele><time>2026-05-03T14:23:59.999Z</time></trkpt><trkpt lat="42.07076580082856" lon="13.382227127789575"><ele>720.5</ele><time>2026-05-03T14:24:00.999Z</time></trkpt><trkpt lat="42.07063647061874" lon="13.382148874433083"><ele>719.75</ele><time>2026-05-03T14:24:01.999Z</time></trkpt><trkpt lat="42.070496864083935" lon="13.382076715657417"><ele>719.0</ele><time>2026-05-03T14:24:02.999Z</time></trkpt><trkpt lat="42.07036830454669" lon="13.381974373382835"><ele>718.5</ele><time>2026-05-03T14:24:03.999Z</time></trkpt><trkpt lat="42.070244950809354" lon="13.381921611108913"><ele>718.0</ele><time>2026-05-03T14:24:04.999Z</time></trkpt><trkpt lat="42.070131750092074" lon="13.381835783657786"><ele>717.5</ele><time>2026-05-03T14:24:05.999Z</time></trkpt><trkpt lat="42.070012730126976" lon="13.381778032522012"><ele>717.0</ele><time>2026-05-03T14:24:06.999Z</time></trkpt><trkpt lat="42.06989632227306" lon="13.381731180058619"><ele>716.8</ele><time>2026-05-03T14:24:07.999Z</time></trkpt><trkpt lat="42.06978515402383" lon="13.38168966139284"><ele>716.6</ele><time>2026-05-03T14:24:08.999Z</time></trkpt><trkpt lat="42.06967656443558" lon="13.381651203832261"><ele>716.4</ele><time>2026-05-03T14:24:09.999Z</time></trkpt><trkpt lat="42.0695710509249" lon="13.381615380390645"><ele>716.1999999999999</ele><time>2026-05-03T14:24:10.999Z</time></trkpt><trkpt lat="42.06946341199389" lon="13.381578752972466"><ele>716.0</ele><time>2026-05-03T14:24:11.999Z</time></trkpt><trkpt lat="42.06934440629762" lon="13.381538256270193"><ele>716.0</ele><time>2026-05-03T14:24:12.999Z</time></trkpt><trkpt lat="42.0692229527251" lon="13.381498662159151"><ele>716.0</ele><time>2026-05-03T14:24:13.999Z</time></trkpt><trkpt lat="42.06909925777222" lon="13.381456299483265"><ele>716.0</ele><time>2026-05-03T14:24:14.999Z</time></trkpt><trkpt lat="42.06897187315045" lon="13.381411795682965"><ele>716.0</ele><time>2026-05-03T14:24:15.999Z</time></trkpt><trkpt lat="42.068837715554814" lon="13.381384579444092"><ele>715.8</ele><time>2026-05-03T14:24:17Z</time></trkpt><trkpt lat="42.06870987255957" lon="13.381320467547802"><ele>715.5999999999999</ele><time>2026-05-03T14:24:18Z</time></trkpt><trkpt lat="42.068600219091394" lon="13.381283521771431"><ele>715.4</ele><time>2026-05-03T14:24:19Z</time></trkpt><trkpt lat="42.06850852708901" lon="13.381252627587827"><ele>715.2</ele><time>2026-05-03T14:24:20Z</time></trkpt><trkpt lat="42.068415361204416" lon="13.381221236931587"><ele>715.0</ele><time>2026-05-03T14:24:21Z</time></trkpt><trkpt lat="42.068325947270544" lon="13.38119110985488"><ele>714.5</ele><time>2026-05-03T14:24:22Z</time></trkpt><trkpt lat="42.068242885823075" lon="13.381163927012732"><ele>714.0</ele><time>2026-05-03T14:24:23Z</time></trkpt><trkpt lat="42.06816352662644" lon="13.381138885755743"><ele>713.5</ele><time>2026-05-03T14:24:24Z</time></trkpt><trkpt lat="42.0680969445166" lon="13.381116376006768"><ele>713.0</ele><time>2026-05-03T14:24:25Z</time></trkpt><trkpt lat="42.06800529344832" lon="13.381075270201197"><ele>712.5</ele><time>2026-05-03T14:24:27Z</time></trkpt><trkpt lat="42.06792167681345" lon="13.381037893670467"><ele>712.0</ele><time>2026-05-03T14:24:29Z</time></trkpt><trkpt lat="42.06786426585108" lon="13.380956772831448"><ele>712.0</ele><time>2026-05-03T14:24:31Z</time></trkpt><trkpt lat="42.06780777200967" lon="13.380905989275256"><ele>712.0</ele><time>2026-05-03T14:24:33Z</time></trkpt><trkpt lat="42.06772630755975" lon="13.380822113089426"><ele>712.0</ele><time>2026-05-03T14:24:37Z</time></trkpt><trkpt lat="42.0676005689173" lon="13.380895105265612"><ele>712.0</ele><time>2026-05-03T14:24:39Z</time></trkpt><trkpt lat="42.06752287645186" lon="13.380949512304927"><ele>712.0</ele><time>2026-05-03T14:24:40Z</time></trkpt><trkpt lat="42.06742742113741" lon="13.381011774683301"><ele>712.0</ele><time>2026-05-03T14:24:41Z</time></trkpt><trkpt lat="42.06733108624632" lon="13.381078806604012"><ele>712.0</ele><time>2026-05-03T14:24:42Z</time></trkpt><trkpt lat="42.06721121712901" lon="13.38113667302479"><ele>712.0</ele><time>2026-05-03T14:24:43Z</time></trkpt><trkpt lat="42.0671014126022" lon="13.381208617204466"><ele>712.0</ele><time>2026-05-03T14:24:44Z</time></trkpt><trkpt lat="42.06697785897523" lon="13.381289569727622"><ele>712.0</ele><time>2026-05-03T14:24:45Z</time></trkpt><trkpt lat="42.06685847319203" lon="13.381367827922269"><ele>712.0</ele><time>2026-05-03T14:24:46Z</time></trkpt><trkpt lat="42.06674962706328" lon="13.381439210622021"><ele>712.0</ele><time>2026-05-03T14:24:47Z</time></trkpt><trkpt lat="42.06663942956012" lon="13.38150828340379"><ele>712.0</ele><time>2026-05-03T14:24:48Z</time></trkpt><trkpt lat="42.06653837687578" lon="13.38157351309737"><ele>711.8</ele><time>2026-05-03T14:24:49Z</time></trkpt><trkpt lat="42.066443156943" lon="13.381636957770501"><ele>711.6</ele><time>2026-05-03T14:24:50Z</time></trkpt><trkpt lat="42.06636213512095" lon="13.381729275272374"><ele>711.4</ele><time>2026-05-03T14:24:51Z</time></trkpt><trkpt lat="42.066285557303836" lon="13.381799219890048"><ele>711.1999999999999</ele><time>2026-05-03T14:24:52Z</time></trkpt><trkpt lat="42.06621237610801" lon="13.381872202400592"><ele>711.0</ele><time>2026-05-03T14:24:53Z</time></trkpt><trkpt lat="42.066153184255846" lon="13.381945378273214"><ele>711.0</ele><time>2026-05-03T14:24:54Z</time></trkpt><trkpt lat="42.066087950782205" lon="13.382015822699291"><ele>711.0</ele><time>2026-05-03T14:24:55Z</time></trkpt><trkpt lat="42.06603316288744" lon="13.38208419800382"><ele>711.0</ele><time>2026-05-03T14:24:56Z</time></trkpt><trkpt lat="42.065940455736474" lon="13.382130432914206"><ele>711.0</ele><time>2026-05-03T14:24:58Z</time></trkpt><trkpt lat="42.06586825831863" lon="13.382047320633955"><ele>711.0</ele><time>2026-05-03T14:25:00Z</time></trkpt><trkpt lat="42.065876707726765" lon="13.381904367371217"><ele>711.0</ele><time>2026-05-03T14:25:01Z</time></trkpt><trkpt lat="42.06586850066451" lon="13.381794569833222"><ele>711.0</ele><time>2026-05-03T14:25:02Z</time></trkpt><trkpt lat="42.065857666321854" lon="13.381682048327363"><ele>711.0</ele><time>2026-05-03T14:25:03Z</time></trkpt><trkpt lat="42.06584786301895" lon="13.381565933029096"><ele>711.0</ele><time>2026-05-03T14:25:04Z</time></trkpt><trkpt lat="42.065838304732885" lon="13.381457620334952"><ele>711.0</ele><time>2026-05-03T14:25:05Z</time></trkpt><trkpt lat="42.06583485965432" lon="13.381326807394041"><ele>711.0</ele><time>2026-05-03T14:25:06Z</time></trkpt><trkpt lat="42.06581850841863" lon="13.381218824577514"><ele>711.0</ele><time>2026-05-03T14:25:07Z</time></trkpt><trkpt lat="42.065827553624665" lon="13.381106412013928"><ele>711.0</ele><time>2026-05-03T14:25:08Z</time></trkpt><trkpt lat="42.06583104179317" lon="13.380952290114854"><ele>711.0</ele><time>2026-05-03T14:25:09Z</time></trkpt><trkpt lat="42.06585793985556" lon="13.380798781337512"><ele>711.0</ele><time>2026-05-03T14:25:10Z</time></trkpt><trkpt lat="42.06589006451914" lon="13.380639476329725"><ele>711.0</ele><time>2026-05-03T14:25:11Z</time></trkpt><trkpt lat="42.065924491662976" lon="13.380484136169567"><ele>710.75</ele><time>2026-05-03T14:25:12Z</time></trkpt><trkpt lat="42.065971728891476" lon="13.380322559085663"><ele>710.5</ele><time>2026-05-03T14:25:13Z</time></trkpt><trkpt lat="42.06600664436229" lon="13.380153646434925"><ele>710.25</ele><time>2026-05-03T14:25:14Z</time></trkpt><trkpt lat="42.066044419164456" lon="13.379974136818959"><ele>710.0</ele><time>2026-05-03T14:25:15Z</time></trkpt><trkpt lat="42.06608445007011" lon="13.37980190440064"><ele>709.5</ele><time>2026-05-03T14:25:16Z</time></trkpt><trkpt lat="42.06612619211045" lon="13.37963644889197"><ele>709.0</ele><time>2026-05-03T14:25:17Z</time></trkpt><trkpt lat="42.066162297085505" lon="13.3794761370173"><ele>708.5</ele><time>2026-05-03T14:25:18Z</time></trkpt><trkpt lat="42.06620448706646" lon="13.379307607146565"><ele>708.0</ele><time>2026-05-03T14:25:19Z</time></trkpt><trkpt lat="42.06624572371906" lon="13.379133811173629"><ele>708.0</ele><time>2026-05-03T14:25:20Z</time></trkpt><trkpt lat="42.066292778193834" lon="13.37896923797733"><ele>708.0</ele><time>2026-05-03T14:25:21Z</time></trkpt><trkpt lat="42.06633723124288" lon="13.37878842866388"><ele>708.0</ele><time>2026-05-03T14:25:22Z</time></trkpt><trkpt lat="42.06637803519668" lon="13.378608340477129"><ele>708.0</ele><time>2026-05-03T14:25:23Z</time></trkpt><trkpt lat="42.0664155621353" lon="13.378421252089336"><ele>708.0</ele><time>2026-05-03T14:25:24Z</time></trkpt><trkpt lat="42.06647669291899" lon="13.378222936135256"><ele>708.0</ele><time>2026-05-03T14:25:25Z</time></trkpt><trkpt lat="42.06650763939471" lon="13.37801867672664"><ele>708.0</ele><time>2026-05-03T14:25:26Z</time></trkpt><trkpt lat="42.06655665756606" lon="13.37781064306394"><ele>708.0</ele><time>2026-05-03T14:25:27Z</time></trkpt><trkpt lat="42.06660760373278" lon="13.37759192335744"><ele>708.0</ele><time>2026-05-03T14:25:28Z</time></trkpt><trkpt lat="42.06667577877307" lon="13.377375040409962"><ele>708.0</ele><time>2026-05-03T14:25:29Z</time></trkpt><trkpt lat="42.066729211269106" lon="13.37714630118936"><ele>707.6666666666666</ele><time>2026-05-03T14:25:30Z</time></trkpt><trkpt lat="42.06678264452992" lon="13.37691838486302"><ele>707.3333333333333</ele><time>2026-05-03T14:25:31Z</time></trkpt><trkpt lat="42.066839238280615" lon="13.37668228222401"><ele>707.0</ele><time>2026-05-03T14:25:32Z</time></trkpt><trkpt lat="42.066893557674476" lon="13.376449127403685"><ele>706.6666666666666</ele><time>2026-05-03T14:25:33Z</time></trkpt><trkpt lat="42.066937088348645" lon="13.37619334936305"><ele>706.3333333333334</ele><time>2026-05-03T14:25:33.999Z</time></trkpt><trkpt lat="42.06699755105564" lon="13.375943572374064"><ele>706.0</ele><time>2026-05-03T14:25:34.999Z</time></trkpt><trkpt lat="42.06705605717751" lon="13.375691230077091"><ele>705.6666666666667</ele><time>2026-05-03T14:25:35.999Z</time></trkpt><trkpt lat="42.06711675004744" lon="13.375438677768129"><ele>705.3333333333334</ele><time>2026-05-03T14:25:36.999Z</time></trkpt><trkpt lat="42.06717382973771" lon="13.375188353859752"><ele>705.0</ele><time>2026-05-03T14:25:37.999Z</time></trkpt><trkpt lat="42.06722981433917" lon="13.374956187325678"><ele>705.0</ele><time>2026-05-03T14:25:38.999Z</time></trkpt><trkpt lat="42.067285763837056" lon="13.374727080758875"><ele>705.0</ele><time>2026-05-03T14:25:39.999Z</time></trkpt><trkpt lat="42.06733756578938" lon="13.37451411112849"><ele>705.0</ele><time>2026-05-03T14:25:40.999Z</time></trkpt><trkpt lat="42.06738448823466" lon="13.374308491317661"><ele>704.6666666666666</ele><time>2026-05-03T14:25:41.999Z</time></trkpt><trkpt lat="42.067433092745944" lon="13.374109685603834"><ele>704.3333333333333</ele><time>2026-05-03T14:25:42.999Z</time></trkpt><trkpt lat="42.067495925015244" lon="13.3739151448721"><ele>704.0</ele><time>2026-05-03T14:25:43.999Z</time></trkpt><trkpt lat="42.067546731687465" lon="13.37370109125496"><ele>703.6666666666666</ele><time>2026-05-03T14:25:44.999Z</time></trkpt><trkpt lat="42.06760147568251" lon="13.3734715569284"><ele>703.3333333333334</ele><time>2026-05-03T14:25:45.999Z</time></trkpt><trkpt lat="42.06765269867823" lon="13.373204221490864"><ele>703.0</ele><time>2026-05-03T14:25:46.999Z</time></trkpt><trkpt lat="42.06771518380565" lon="13.372941038067706"><ele>701.6666666666667</ele><time>2026-05-03T14:25:47.999Z</time></trkpt><trkpt lat="42.06777794782098" lon="13.37268665016353"><ele>700.3333333333334</ele><time>2026-05-03T14:25:48.999Z</time></trkpt><trkpt lat="42.06784078858244" lon="13.372428006144647"><ele>699.0</ele><time>2026-05-03T14:25:49.999Z</time></trkpt><trkpt lat="42.067902938121655" lon="13.372169730935223"><ele>698.6666666666666</ele><time>2026-05-03T14:25:50.999Z</time></trkpt><trkpt lat="42.06796675346294" lon="13.37190377344444"><ele>698.3333333333333</ele><time>2026-05-03T14:25:51.999Z</time></trkpt><trkpt lat="42.068029787969216" lon="13.371640171508027"><ele>698.0</ele><time>2026-05-03T14:25:52.999Z</time></trkpt><trkpt lat="42.068094014286686" lon="13.371372785850708"><ele>698.3333333333333</ele><time>2026-05-03T14:25:53.999Z</time></trkpt><trkpt lat="42.068160020386415" lon="13.371108799979059"><ele>698.6666666666666</ele><time>2026-05-03T14:25:54.999Z</time></trkpt><trkpt lat="42.068225658477374" lon="13.37083375186743"><ele>699.0</ele><time>2026-05-03T14:25:55.999Z</time></trkpt><trkpt lat="42.068290291460464" lon="13.370557905783427"><ele>699.0</ele><time>2026-05-03T14:25:56.999Z</time></trkpt><trkpt lat="42.06835868609919" lon="13.370277414265978"><ele>699.0</ele><time>2026-05-03T14:25:57.999Z</time></trkpt><trkpt lat="42.06842971888958" lon="13.369990655618158"><ele>699.0</ele><time>2026-05-03T14:25:58.999Z</time></trkpt><trkpt lat="42.068496878017804" lon="13.36971069085352"><ele>698.6666666666666</ele><time>2026-05-03T14:25:59.999Z</time></trkpt><trkpt lat="42.06856027443047" lon="13.369433007271772"><ele>698.3333333333333</ele><time>2026-05-03T14:26:00.999Z</time></trkpt><trkpt lat="42.068625704982374" lon="13.369147732270823"><ele>698.0</ele><time>2026-05-03T14:26:01.999Z</time></trkpt><trkpt lat="42.0686945256751" lon="13.368874497696236"><ele>697.0</ele><time>2026-05-03T14:26:02.999Z</time></trkpt><trkpt lat="42.06875820895361" lon="13.368602602486842"><ele>696.0</ele><time>2026-05-03T14:26:03.999Z</time></trkpt><trkpt lat="42.06882311224947" lon="13.368342645238362"><ele>695.0</ele><time>2026-05-03T14:26:04.999Z</time></trkpt><trkpt lat="42.068884714587384" lon="13.368090065530469"><ele>694.6666666666666</ele><time>2026-05-03T14:26:05.999Z</time></trkpt><trkpt lat="42.06894330304473" lon="13.367837885007672"><ele>694.3333333333334</ele><time>2026-05-03T14:26:06.999Z</time></trkpt><trkpt lat="42.06900059501618" lon="13.367587295328262"><ele>694.0</ele><time>2026-05-03T14:26:07.999Z</time></trkpt><trkpt lat="42.06906037451801" lon="13.367344526341675"><ele>695.6666666666667</ele><time>2026-05-03T14:26:08.999Z</time></trkpt><trkpt lat="42.069119326995356" lon="13.36710241108784"><ele>697.3333333333334</ele><time>2026-05-03T14:26:09.999Z</time></trkpt><trkpt lat="42.06918865990476" lon="13.366865471807838"><ele>699.0</ele><time>2026-05-03T14:26:10.999Z</time></trkpt><trkpt lat="42.06925030927713" lon="13.366609379742904"><ele>699.0</ele><time>2026-05-03T14:26:11.999Z</time></trkpt><trkpt lat="42.069316999560435" lon="13.366331897277837"><ele>699.0</ele><time>2026-05-03T14:26:12.999Z</time></trkpt><trkpt lat="42.06936940676983" lon="13.366044439027373"><ele>699.0</ele><time>2026-05-03T14:26:13.999Z</time></trkpt><trkpt lat="42.069458696756996" lon="13.365742329008219"><ele>698.5</ele><time>2026-05-03T14:26:14.999Z</time></trkpt><trkpt lat="42.069532559963946" lon="13.365433264035069"><ele>698.0</ele><time>2026-05-03T14:26:15.999Z</time></trkpt><trkpt lat="42.0696014029779" lon="13.36514519713918"><ele>698.0</ele><time>2026-05-03T14:26:16.999Z</time></trkpt><trkpt lat="42.0696733217452" lon="13.364845604021124"><ele>698.0</ele><time>2026-05-03T14:26:17.999Z</time></trkpt><trkpt lat="42.06973888012679" lon="13.364570862893713"><ele>698.0</ele><time>2026-05-03T14:26:18.999Z</time></trkpt><trkpt lat="42.069785751794036" lon="13.364310319051258"><ele>698.0</ele><time>2026-05-03T14:26:19.999Z</time></trkpt><trkpt lat="42.06984736156223" lon="13.364051463233913"><ele>698.0</ele><time>2026-05-03T14:26:20.999Z</time></trkpt><trkpt lat="42.06992812836641" lon="13.363779818269219"><ele>698.0</ele><time>2026-05-03T14:26:21.999Z</time></trkpt><trkpt lat="42.069986519494016" lon="13.363471208228779"><ele>698.0</ele><time>2026-05-03T14:26:23Z</time></trkpt><trkpt lat="42.07007534837555" lon="13.363150057850284"><ele>698.0</ele><time>2026-05-03T14:26:24Z</time></trkpt><trkpt lat="42.07015750035809" lon="13.36279957733705"><ele>698.0</ele><time>2026-05-03T14:26:25Z</time></trkpt><trkpt lat="42.07024985543951" lon="13.36242414918851"><ele>698.0</ele><time>2026-05-03T14:26:26Z</time></trkpt><trkpt lat="42.070330137469846" lon="13.362077782798773"><ele>698.5</ele><time>2026-05-03T14:26:27Z</time></trkpt><trkpt lat="42.070405910496454" lon="13.361759125560216"><ele>699.0</ele><time>2026-05-03T14:26:28Z</time></trkpt><trkpt lat="42.070478209486396" lon="13.361454875523359"><ele>698.6666666666666</ele><time>2026-05-03T14:26:29Z</time></trkpt><trkpt lat="42.070543878386914" lon="13.361162355887878"><ele>698.3333333333333</ele><time>2026-05-03T14:26:30Z</time></trkpt><trkpt lat="42.07060764103495" lon="13.36088191455741"><ele>698.0</ele><time>2026-05-03T14:26:31Z</time></trkpt><trkpt lat="42.07066929053318" lon="13.360606522836585"><ele>698.3333333333333</ele><time>2026-05-03T14:26:32Z</time></trkpt><trkpt lat="42.07072832217541" lon="13.360360842957494"><ele>698.6666666666666</ele><time>2026-05-03T14:26:33Z</time></trkpt><trkpt lat="42.07078548862304" lon="13.36012027414106"><ele>699.0</ele><time>2026-05-03T14:26:34Z</time></trkpt><trkpt lat="42.070840221750196" lon="13.359882471075682"><ele>699.0</ele><time>2026-05-03T14:26:35Z</time></trkpt><trkpt lat="42.070883153201606" lon="13.35965264992996"><ele>699.0</ele><time>2026-05-03T14:26:36Z</time></trkpt><trkpt lat="42.0709048097249" lon="13.359410936014065"><ele>699.0</ele><time>2026-05-03T14:26:37Z</time></trkpt><trkpt lat="42.070942118273706" lon="13.359156451804756"><ele>699.0</ele><time>2026-05-03T14:26:38Z</time></trkpt><trkpt lat="42.070966028036274" lon="13.358911855981674"><ele>699.0</ele><time>2026-05-03T14:26:39Z</time></trkpt><trkpt lat="42.07087654154835" lon="13.35864185024929"><ele>699.0</ele><time>2026-05-03T14:26:40Z</time></trkpt><trkpt lat="42.070829396229385" lon="13.35837830821687"><ele>698.6666666666666</ele><time>2026-05-03T14:26:41Z</time></trkpt><trkpt lat="42.070763112537115" lon="13.35811800040904"><ele>698.3333333333333</ele><time>2026-05-03T14:26:42Z</time></trkpt><trkpt lat="42.07068598300038" lon="13.357852752874647"><ele>698.0</ele><time>2026-05-03T14:26:43Z</time></trkpt><trkpt lat="42.0705776791947" lon="13.357602008876686"><ele>698.0</ele><time>2026-05-03T14:26:44Z</time></trkpt><trkpt lat="42.07046597235597" lon="13.357341622281247"><ele>698.0</ele><time>2026-05-03T14:26:45Z</time></trkpt><trkpt lat="42.07035354387943" lon="13.357068515323132"><ele>698.0</ele><time>2026-05-03T14:26:46Z</time></trkpt><trkpt lat="42.070237905511874" lon="13.35679279376356"><ele>698.0</ele><time>2026-05-03T14:26:47Z</time></trkpt><trkpt lat="42.070121054172006" lon="13.35651796751179"><ele>696.5</ele><time>2026-05-03T14:26:48Z</time></trkpt><trkpt lat="42.070005852343066" lon="13.356239839166683"><ele>695.0</ele><time>2026-05-03T14:26:49Z</time></trkpt><trkpt lat="42.0698916719366" lon="13.355969804594956"><ele>695.0</ele><time>2026-05-03T14:26:50Z</time></trkpt><trkpt lat="42.06978081826354" lon="13.355703113705104"><ele>695.0</ele><time>2026-05-03T14:26:51Z</time></trkpt><trkpt lat="42.06966923726656" lon="13.355426628976565"><ele>695.5</ele><time>2026-05-03T14:26:52Z</time></trkpt><trkpt lat="42.06956101923742" lon="13.355154454759726"><ele>696.0</ele><time>2026-05-03T14:26:53Z</time></trkpt><trkpt lat="42.06944955305549" lon="13.354885498331745"><ele>696.0</ele><time>2026-05-03T14:26:54Z</time></trkpt><trkpt lat="42.06933879172235" lon="13.354621137536283"><ele>696.0</ele><time>2026-05-03T14:26:55Z</time></trkpt><trkpt lat="42.069222882269386" lon="13.35435769694936"><ele>696.0</ele><time>2026-05-03T14:26:56Z</time></trkpt><trkpt lat="42.06911175693499" lon="13.354081914916483"><ele>696.0</ele><time>2026-05-03T14:26:57Z</time></trkpt><trkpt lat="42.068999812363366" lon="13.35380259795663"><ele>696.5</ele><time>2026-05-03T14:26:58Z</time></trkpt><trkpt lat="42.06888394261169" lon="13.353527030248518"><ele>697.0</ele><time>2026-05-03T14:26:59Z</time></trkpt><trkpt lat="42.06877202976799" lon="13.353249265087456"><ele>696.5</ele><time>2026-05-03T14:27:00Z</time></trkpt><trkpt lat="42.0686565217659" lon="13.35297231564466"><ele>696.0</ele><time>2026-05-03T14:27:01Z</time></trkpt><trkpt lat="42.068539655554176" lon="13.352685270708527"><ele>696.0</ele><time>2026-05-03T14:27:02Z</time></trkpt><trkpt lat="42.06841999990612" lon="13.352403581289991"><ele>696.0</ele><time>2026-05-03T14:27:03Z</time></trkpt><trkpt lat="42.06830692323878" lon="13.352126524672855"><ele>696.3333333333334</ele><time>2026-05-03T14:27:04Z</time></trkpt><trkpt lat="42.068197165703225" lon="13.351858538314458"><ele>696.6666666666667</ele><time>2026-05-03T14:27:05Z</time></trkpt><trkpt lat="42.0680900338995" lon="13.351602092595405"><ele>697.0</ele><time>2026-05-03T14:27:06Z</time></trkpt><trkpt lat="42.06798852475778" lon="13.351349810859205"><ele>697.0</ele><time>2026-05-03T14:27:07Z</time></trkpt><trkpt lat="42.067884824776264" lon="13.35109740864686"><ele>697.0</ele><time>2026-05-03T14:27:08Z</time></trkpt><trkpt lat="42.06778224723734" lon="13.35084646308947"><ele>697.0</ele><time>2026-05-03T14:27:09Z</time></trkpt><trkpt lat="42.06768031186909" lon="13.35059754818986"><ele>697.0</ele><time>2026-05-03T14:27:10Z</time></trkpt><trkpt lat="42.067585806971444" lon="13.35034480141426"><ele>697.0</ele><time>2026-05-03T14:27:11Z</time></trkpt><trkpt lat="42.067487111406535" lon="13.350093376987866"><ele>697.0</ele><time>2026-05-03T14:27:12Z</time></trkpt><trkpt lat="42.067385711645" lon="13.349841265058457"><ele>696.6666666666667</ele><time>2026-05-03T14:27:13Z</time></trkpt><trkpt lat="42.06728464709267" lon="13.349593021549614"><ele>696.3333333333334</ele><time>2026-05-03T14:27:14Z</time></trkpt><trkpt lat="42.067185555532745" lon="13.349344619526056"><ele>696.0</ele><time>2026-05-03T14:27:15Z</time></trkpt><trkpt lat="42.06708884256947" lon="13.349101672062872"><ele>696.0</ele><time>2026-05-03T14:27:16Z</time></trkpt><trkpt lat="42.06699238480658" lon="13.348852236381374"><ele>696.0</ele><time>2026-05-03T14:27:17Z</time></trkpt><trkpt lat="42.0668943201411" lon="13.348603134149428"><ele>696.0</ele><time>2026-05-03T14:27:18Z</time></trkpt><trkpt lat="42.06679577816355" lon="13.348364150928214"><ele>696.0</ele><time>2026-05-03T14:27:19Z</time></trkpt><trkpt lat="42.06670162846478" lon="13.348132670447185"><ele>696.0</ele><time>2026-05-03T14:27:20Z</time></trkpt><trkpt lat="42.06660364051682" lon="13.347893128847566"><ele>696.0</ele><time>2026-05-03T14:27:21Z</time></trkpt><trkpt lat="42.06649861208975" lon="13.347639950136372"><ele>696.3333333333334</ele><time>2026-05-03T14:27:22Z</time></trkpt><trkpt lat="42.066397442646746" lon="13.347386782970052"><ele>696.6666666666667</ele><time>2026-05-03T14:27:23Z</time></trkpt><trkpt lat="42.06629932116128" lon="13.347140090297835"><ele>697.0</ele><time>2026-05-03T14:27:24Z</time></trkpt><trkpt lat="42.06620460766558" lon="13.346903950398165"><ele>697.0</ele><time>2026-05-03T14:27:25Z</time></trkpt><trkpt lat="42.06610904261475" lon="13.346674182272764"><ele>697.0</ele><time>2026-05-03T14:27:26Z</time></trkpt><trkpt lat="42.06601966634845" lon="13.346454093007452"><ele>697.0</ele><time>2026-05-03T14:27:27Z</time></trkpt><trkpt lat="42.065932268395144" lon="13.346231650929065"><ele>697.6666666666667</ele><time>2026-05-03T14:27:28Z</time></trkpt><trkpt lat="42.065844200474054" lon="13.346008974482665"><ele>698.3333333333334</ele><time>2026-05-03T14:27:29Z</time></trkpt><trkpt lat="42.06575443009305" lon="13.345780013633116"><ele>699.0</ele><time>2026-05-03T14:27:30Z</time></trkpt><trkpt lat="42.06566631633595" lon="13.345553433980218"><ele>699.3333333333334</ele><time>2026-05-03T14:27:31Z</time></trkpt><trkpt lat="42.06557999607811" lon="13.345329105065083"><ele>699.6666666666667</ele><time>2026-05-03T14:27:32Z</time></trkpt><trkpt lat="42.065493251727986" lon="13.345102023840154"><ele>700.0</ele><time>2026-05-03T14:27:33Z</time></trkpt><trkpt lat="42.06540626993819" lon="13.34489007893363"><ele>700.3333333333334</ele><time>2026-05-03T14:27:34Z</time></trkpt><trkpt lat="42.065318016549554" lon="13.344692424725103"><ele>700.6666666666666</ele><time>2026-05-03T14:27:35Z</time></trkpt><trkpt lat="42.065233710208524" lon="13.34450444139599"><ele>701.0</ele><time>2026-05-03T14:27:36Z</time></trkpt><trkpt lat="42.065148086850265" lon="13.34433585360419"><ele>701.0</ele><time>2026-05-03T14:27:37Z</time></trkpt><trkpt lat="42.06506165073441" lon="13.344172710870291"><ele>701.0</ele><time>2026-05-03T14:27:38Z</time></trkpt><trkpt lat="42.06497072972858" lon="13.344011408215007"><ele>701.0</ele><time>2026-05-03T14:27:39Z</time></trkpt><trkpt lat="42.06488347664375" lon="13.343856200854356"><ele>701.0</ele><time>2026-05-03T14:27:40Z</time></trkpt><trkpt lat="42.064798748042975" lon="13.343709068675711"><ele>701.5</ele><time>2026-05-03T14:27:41Z</time></trkpt><trkpt lat="42.06472095127459" lon="13.343565966117447"><ele>702.0</ele><time>2026-05-03T14:27:42Z</time></trkpt><trkpt lat="42.064652291789415" lon="13.34343606353947"><ele>702.5</ele><time>2026-05-03T14:27:43Z</time></trkpt><trkpt lat="42.06458698976383" lon="13.343300429638681"><ele>703.0</ele><time>2026-05-03T14:27:44Z</time></trkpt><trkpt lat="42.064516031676085" lon="13.34315950197683"><ele>702.75</ele><time>2026-05-03T14:27:45Z</time></trkpt><trkpt lat="42.0644553432468" lon="13.34298035640095"><ele>702.5</ele><time>2026-05-03T14:27:46Z</time></trkpt><trkpt lat="42.06437912177885" lon="13.34280263811238"><ele>702.25</ele><time>2026-05-03T14:27:47Z</time></trkpt><trkpt lat="42.06429869658142" lon="13.342667768258877"><ele>702.0</ele><time>2026-05-03T14:27:48Z</time></trkpt><trkpt lat="42.064256088968875" lon="13.34251375390507"><ele>702.0</ele><time>2026-05-03T14:27:49Z</time></trkpt><trkpt lat="42.06420200511142" lon="13.342410483667352"><ele>702.0</ele><time>2026-05-03T14:27:50Z</time></trkpt><trkpt lat="42.06414865792246" lon="13.34231114838891"><ele>702.0</ele><time>2026-05-03T14:27:51Z</time></trkpt><trkpt lat="42.06409325705444" lon="13.342218143423002"><ele>702.0</ele><time>2026-05-03T14:27:52Z</time></trkpt><trkpt lat="42.06404345177498" lon="13.342112695205621"><ele>702.0</ele><time>2026-05-03T14:27:53Z</time></trkpt><trkpt lat="42.06399652586944" lon="13.342021667199154"><ele>702.0</ele><time>2026-05-03T14:27:54Z</time></trkpt><trkpt lat="42.06394850664086" lon="13.341924300640475"><ele>701.8</ele><time>2026-05-03T14:27:55Z</time></trkpt><trkpt lat="42.063907765781494" lon="13.341817374305213"><ele>701.6</ele><time>2026-05-03T14:27:56Z</time></trkpt><trkpt lat="42.06386868871862" lon="13.341708865121925"><ele>701.4</ele><time>2026-05-03T14:27:57Z</time></trkpt><trkpt lat="42.063826251788925" lon="13.341591012036602"><ele>701.1999999999999</ele><time>2026-05-03T14:27:58Z</time></trkpt><trkpt lat="42.06378935641555" lon="13.341482614493833"><ele>701.0</ele><time>2026-05-03T14:27:59Z</time></trkpt><trkpt lat="42.063750286058415" lon="13.34135743190281"><ele>701.0</ele><time>2026-05-03T14:28:00Z</time></trkpt><trkpt lat="42.0637219699219" lon="13.34123303477339"><ele>701.0</ele><time>2026-05-03T14:28:01Z</time></trkpt><trkpt lat="42.06370078556974" lon="13.341105519557091"><ele>701.0</ele><time>2026-05-03T14:28:02Z</time></trkpt><trkpt lat="42.06368189585629" lon="13.340986309852703"><ele>701.0</ele><time>2026-05-03T14:28:03Z</time></trkpt><trkpt lat="42.06366221830001" lon="13.340870751589113"><ele>701.0</ele><time>2026-05-03T14:28:04Z</time></trkpt><trkpt lat="42.06365001094592" lon="13.340755265781679"><ele>701.0</ele><time>2026-05-03T14:28:05Z</time></trkpt><trkpt lat="42.06363051712241" lon="13.340636265214288"><ele>701.0</ele><time>2026-05-03T14:28:06Z</time></trkpt><trkpt lat="42.06360579591176" lon="13.340510256846175"><ele>701.0</ele><time>2026-05-03T14:28:07Z</time></trkpt><trkpt lat="42.06357841972948" lon="13.340379109990439"><ele>701.0</ele><time>2026-05-03T14:28:08Z</time></trkpt><trkpt lat="42.063540728186716" lon="13.340246156912071"><ele>701.0</ele><time>2026-05-03T14:28:09Z</time></trkpt><trkpt lat="42.06349073712141" lon="13.340108853801198"><ele>701.0</ele><time>2026-05-03T14:28:10Z</time></trkpt><trkpt lat="42.06342878692856" lon="13.339968417805876"><ele>701.0</ele><time>2026-05-03T14:28:10.999Z</time></trkpt><trkpt lat="42.063360818102026" lon="13.339820583190988"><ele>701.0</ele><time>2026-05-03T14:28:11.999Z</time></trkpt><trkpt lat="42.06329872824515" lon="13.339673481134895"><ele>701.0</ele><time>2026-05-03T14:28:12.999Z</time></trkpt><trkpt lat="42.0632371439583" lon="13.339526994344817"><ele>700.5</ele><time>2026-05-03T14:28:13.999Z</time></trkpt><trkpt lat="42.06318422955857" lon="13.339365497075896"><ele>700.0</ele><time>2026-05-03T14:28:14.999Z</time></trkpt><trkpt lat="42.06312797049822" lon="13.339212601682197"><ele>699.5</ele><time>2026-05-03T14:28:15.999Z</time></trkpt><trkpt lat="42.063066588620444" lon="13.339058233609572"><ele>699.0</ele><time>2026-05-03T14:28:16.999Z</time></trkpt><trkpt lat="42.06300841714136" lon="13.338904180474147"><ele>699.0</ele><time>2026-05-03T14:28:17.999Z</time></trkpt><trkpt lat="42.06294557558409" lon="13.338736493573965"><ele>699.0</ele><time>2026-05-03T14:28:18.999Z</time></trkpt><trkpt lat="42.0628795823715" lon="13.33857243062414"><ele>699.0</ele><time>2026-05-03T14:28:19.999Z</time></trkpt><trkpt lat="42.06280932497075" lon="13.338402633028194"><ele>699.0</ele><time>2026-05-03T14:28:20.999Z</time></trkpt><trkpt lat="42.06274252565952" lon="13.338225962492592"><ele>699.0</ele><time>2026-05-03T14:28:21.999Z</time></trkpt><trkpt lat="42.062671214787954" lon="13.338055166683072"><ele>699.0</ele><time>2026-05-03T14:28:22.999Z</time></trkpt><trkpt lat="42.06259953215355" lon="13.337871612284479"><ele>699.0</ele><time>2026-05-03T14:28:23.999Z</time></trkpt><trkpt lat="42.062521902650296" lon="13.337690743077339"><ele>698.6666666666666</ele><time>2026-05-03T14:28:24.999Z</time></trkpt><trkpt lat="42.06244670341681" lon="13.337500314942197"><ele>698.3333333333333</ele><time>2026-05-03T14:28:25.999Z</time></trkpt><trkpt lat="42.06237131126201" lon="13.33730571612602"><ele>698.0</ele><time>2026-05-03T14:28:26.999Z</time></trkpt><trkpt lat="42.06229181242555" lon="13.337109605579013"><ele>699.0</ele><time>2026-05-03T14:28:27.999Z</time></trkpt><trkpt lat="42.06220331797454" lon="13.33694163753752"><ele>700.0</ele><time>2026-05-03T14:28:29Z</time></trkpt><trkpt lat="42.062123004455906" lon="13.336746504467653"><ele>701.0</ele><time>2026-05-03T14:28:30Z</time></trkpt><trkpt lat="42.06204207919954" lon="13.336553103792772"><ele>701.3333333333333</ele><time>2026-05-03T14:28:31Z</time></trkpt><trkpt lat="42.06198138816834" lon="13.336354940571503"><ele>701.6666666666666</ele><time>2026-05-03T14:28:32Z</time></trkpt><trkpt lat="42.06190323539841" lon="13.336158868732156"><ele>702.0</ele><time>2026-05-03T14:28:33Z</time></trkpt><trkpt lat="42.06182231754176" lon="13.33595623330248"><ele>702.0</ele><time>2026-05-03T14:28:34Z</time></trkpt><trkpt lat="42.06173732610045" lon="13.335743340472005"><ele>702.0</ele><time>2026-05-03T14:28:35Z</time></trkpt><trkpt lat="42.06165342714565" lon="13.335533184745811"><ele>702.0</ele><time>2026-05-03T14:28:36Z</time></trkpt><trkpt lat="42.06156933179258" lon="13.335322536837834"><ele>702.3333333333334</ele><time>2026-05-03T14:28:37Z</time></trkpt><trkpt lat="42.06147400086955" lon="13.33512427992245"><ele>702.6666666666667</ele><time>2026-05-03T14:28:38Z</time></trkpt><trkpt lat="42.061394427103416" lon="13.334919385603815"><ele>703.0</ele><time>2026-05-03T14:28:39Z</time></trkpt><trkpt lat="42.06131462012878" lon="13.334714852811357"><ele>704.6666666666667</ele><time>2026-05-03T14:28:40Z</time></trkpt><trkpt lat="42.06123896862296" lon="13.334516164550598"><ele>706.3333333333334</ele><time>2026-05-03T14:28:41Z</time></trkpt><trkpt lat="42.06116526314799" lon="13.33431629481888"><ele>708.0</ele><time>2026-05-03T14:28:42Z</time></trkpt><trkpt lat="42.06109091922748" lon="13.3341205405765"><ele>708.0</ele><time>2026-05-03T14:28:43Z</time></trkpt><trkpt lat="42.06101032697591" lon="13.333920809377476"><ele>708.0</ele><time>2026-05-03T14:28:44Z</time></trkpt><trkpt lat="42.060928860993755" lon="13.333711512080965"><ele>708.0</ele><time>2026-05-03T14:28:45Z</time></trkpt><trkpt lat="42.06084799902926" lon="13.333510668334533"><ele>708.3333333333334</ele><time>2026-05-03T14:28:46Z</time></trkpt><trkpt lat="42.06077266018725" lon="13.333316819798489"><ele>708.6666666666667</ele><time>2026-05-03T14:28:47Z</time></trkpt><trkpt lat="42.06069527296922" lon="13.33312750409284"><ele>709.0</ele><time>2026-05-03T14:28:48Z</time></trkpt><trkpt lat="42.06061938438796" lon="13.33293911959305"><ele>711.3333333333334</ele><time>2026-05-03T14:28:49Z</time></trkpt><trkpt lat="42.06054567976638" lon="13.332751764209796"><ele>713.6666666666666</ele><time>2026-05-03T14:28:50Z</time></trkpt><trkpt lat="42.06047578434027" lon="13.332569813268552"><ele>716.0</ele><time>2026-05-03T14:28:51Z</time></trkpt><trkpt lat="42.06040931426607" lon="13.332387795039894"><ele>717.6666666666666</ele><time>2026-05-03T14:28:52Z</time></trkpt><trkpt lat="42.06033801739399" lon="13.332210715178862"><ele>719.3333333333334</ele><time>2026-05-03T14:28:53Z</time></trkpt><trkpt lat="42.060267685255326" lon="13.332030020559055"><ele>721.0</ele><time>2026-05-03T14:28:54Z</time></trkpt><trkpt lat="42.06019355974305" lon="13.331853507195705"><ele>721.0</ele><time>2026-05-03T14:28:55Z</time></trkpt><trkpt lat="42.060120247288545" lon="13.33167713198338"><ele>721.0</ele><time>2026-05-03T14:28:56Z</time></trkpt><trkpt lat="42.060048113057626" lon="13.33150521538792"><ele>721.0</ele><time>2026-05-03T14:28:57Z</time></trkpt><trkpt lat="42.05997859616256" lon="13.331340301672794"><ele>721.0</ele><time>2026-05-03T14:28:58Z</time></trkpt><trkpt lat="42.05991391475409" lon="13.33116498572109"><ele>719.0</ele><time>2026-05-03T14:28:59Z</time></trkpt><trkpt lat="42.059842061179964" lon="13.330975512502281"><ele>717.0</ele><time>2026-05-03T14:29:00Z</time></trkpt><trkpt lat="42.05975844945127" lon="13.330795535704409"><ele>715.0</ele><time>2026-05-03T14:29:01Z</time></trkpt><trkpt lat="42.05968817769458" lon="13.33059808779272"><ele>714.0</ele><time>2026-05-03T14:29:02Z</time></trkpt><trkpt lat="42.059611016302114" lon="13.330392391324914"><ele>713.0</ele><time>2026-05-03T14:29:03Z</time></trkpt><trkpt lat="42.059526452015476" lon="13.330175565841273"><ele>712.0</ele><time>2026-05-03T14:29:04Z</time></trkpt><trkpt lat="42.059433968505765" lon="13.329951719029317"><ele>712.0</ele><time>2026-05-03T14:29:05Z</time></trkpt><trkpt lat="42.05934263453769" lon="13.329713279893333"><ele>712.0</ele><time>2026-05-03T14:29:06Z</time></trkpt><trkpt lat="42.05925045820777" lon="13.329467116132168"><ele>712.0</ele><time>2026-05-03T14:29:07Z</time></trkpt><trkpt lat="42.05913911720844" lon="13.329221882674425"><ele>712.0</ele><time>2026-05-03T14:29:08Z</time></trkpt><trkpt lat="42.05903953391399" lon="13.328936864471979"><ele>712.0</ele><time>2026-05-03T14:29:09Z</time></trkpt><trkpt lat="42.05892288620505" lon="13.328674565578922"><ele>712.0</ele><time>2026-05-03T14:29:10Z</time></trkpt><trkpt lat="42.058806793971215" lon="13.328431550955647"><ele>712.0</ele><time>2026-05-03T14:29:11Z</time></trkpt><trkpt lat="42.05870148039403" lon="13.328218059674484"><ele>712.0</ele><time>2026-05-03T14:29:12Z</time></trkpt><trkpt lat="42.05859162143495" lon="13.32799404319537"><ele>713.0</ele><time>2026-05-03T14:29:13Z</time></trkpt><trkpt lat="42.058484436611195" lon="13.327768234451877"><ele>714.0</ele><time>2026-05-03T14:29:14Z</time></trkpt><trkpt lat="42.058383144263566" lon="13.327548185160714"><ele>715.0</ele><time>2026-05-03T14:29:15Z</time></trkpt><trkpt lat="42.05828681975157" lon="13.32733450378691"><ele>715.6666666666667</ele><time>2026-05-03T14:29:16Z</time></trkpt><trkpt lat="42.0581933577438" lon="13.327112036498471"><ele>716.3333333333334</ele><time>2026-05-03T14:29:17Z</time></trkpt><trkpt lat="42.05809576258975" lon="13.326873982623699"><ele>717.0</ele><time>2026-05-03T14:29:18Z</time></trkpt><trkpt lat="42.05799235535077" lon="13.32661804843975"><ele>718.3333333333334</ele><time>2026-05-03T14:29:19Z</time></trkpt><trkpt lat="42.05788009509059" lon="13.326372145424862"><ele>719.6666666666667</ele><time>2026-05-03T14:29:20Z</time></trkpt><trkpt lat="42.05778353034624" lon="13.326115622931633"><ele>721.0</ele><time>2026-05-03T14:29:21Z</time></trkpt><trkpt lat="42.05769020458847" lon="13.325854681678912"><ele>721.0</ele><time>2026-05-03T14:29:22Z</time></trkpt><trkpt lat="42.05758772674977" lon="13.325606532787694"><ele>721.0</ele><time>2026-05-03T14:29:23Z</time></trkpt><trkpt lat="42.057487176821766" lon="13.32535576522107"><ele>721.0</ele><time>2026-05-03T14:29:24Z</time></trkpt><trkpt lat="42.05738808766477" lon="13.32510904349848"><ele>721.0</ele><time>2026-05-03T14:29:25Z</time></trkpt><trkpt lat="42.05728744268188" lon="13.324860311682286"><ele>721.0</ele><time>2026-05-03T14:29:26Z</time></trkpt><trkpt lat="42.05718785891729" lon="13.32461732172968"><ele>721.0</ele><time>2026-05-03T14:29:27Z</time></trkpt><trkpt lat="42.05709154298688" lon="13.324376388654315"><ele>721.0</ele><time>2026-05-03T14:29:28Z</time></trkpt><trkpt lat="42.05699115376347" lon="13.324124542729043"><ele>721.0</ele><time>2026-05-03T14:29:29Z</time></trkpt><trkpt lat="42.0568888881927" lon="13.323870209254443"><ele>721.0</ele><time>2026-05-03T14:29:30Z</time></trkpt><trkpt lat="42.05678968967478" lon="13.323619863986906"><ele>720.6666666666667</ele><time>2026-05-03T14:29:31Z</time></trkpt><trkpt lat="42.056689770059776" lon="13.323361204238713"><ele>720.3333333333334</ele><time>2026-05-03T14:29:32Z</time></trkpt><trkpt lat="42.05658858157122" lon="13.32309737751605"><ele>720.0</ele><time>2026-05-03T14:29:33Z</time></trkpt><trkpt lat="42.05648431747637" lon="13.32282638339762"><ele>719.5</ele><time>2026-05-03T14:29:34Z</time></trkpt><trkpt lat="42.056371307498225" lon="13.32255313713394"><ele>719.0</ele><time>2026-05-03T14:29:35Z</time></trkpt><trkpt lat="42.056259348318335" lon="13.322283418357147"><ele>720.5</ele><time>2026-05-03T14:29:36Z</time></trkpt><trkpt lat="42.05614681962856" lon="13.322005668963412"><ele>722.0</ele><time>2026-05-03T14:29:37Z</time></trkpt><trkpt lat="42.056031969783696" lon="13.321718896743809"><ele>722.0</ele><time>2026-05-03T14:29:38Z</time></trkpt><trkpt lat="42.055919576880704" lon="13.321439725061573"><ele>722.0</ele><time>2026-05-03T14:29:39Z</time></trkpt><trkpt lat="42.0558085868703" lon="13.321159607327264"><ele>721.0</ele><time>2026-05-03T14:29:40Z</time></trkpt><trkpt lat="42.05569396924207" lon="13.320878306176315"><ele>720.0</ele><time>2026-05-03T14:29:41Z</time></trkpt><trkpt lat="42.05557979552148" lon="13.320597476409056"><ele>722.0</ele><time>2026-05-03T14:29:42Z</time></trkpt><trkpt lat="42.05546232307803" lon="13.320319245775988"><ele>724.0</ele><time>2026-05-03T14:29:43Z</time></trkpt><trkpt lat="42.05535004156411" lon="13.320040669018988"><ele>724.0</ele><time>2026-05-03T14:29:44Z</time></trkpt><trkpt lat="42.05523784291364" lon="13.319764127491027"><ele>724.0</ele><time>2026-05-03T14:29:45Z</time></trkpt><trkpt lat="42.05512674926688" lon="13.319482818172517"><ele>724.5</ele><time>2026-05-03T14:29:46Z</time></trkpt><trkpt lat="42.05501514140563" lon="13.319200959559856"><ele>725.0</ele><time>2026-05-03T14:29:47Z</time></trkpt><trkpt lat="42.054897079588685" lon="13.318919152291928"><ele>722.5</ele><time>2026-05-03T14:29:48Z</time></trkpt><trkpt lat="42.054776038057526" lon="13.31862987491692"><ele>720.0</ele><time>2026-05-03T14:29:49Z</time></trkpt><trkpt lat="42.05465621577623" lon="13.318336957808162"><ele>720.0</ele><time>2026-05-03T14:29:50Z</time></trkpt><trkpt lat="42.054534090299605" lon="13.318035120444934"><ele>720.0</ele><time>2026-05-03T14:29:51Z</time></trkpt><trkpt lat="42.054414509384124" lon="13.317730218885485"><ele>720.0</ele><time>2026-05-03T14:29:52Z</time></trkpt><trkpt lat="42.054295085035164" lon="13.31741327850086"><ele>720.0</ele><time>2026-05-03T14:29:53Z</time></trkpt><trkpt lat="42.05418108789174" lon="13.317093920165608"><ele>721.5</ele><time>2026-05-03T14:29:54Z</time></trkpt><trkpt lat="42.054066005243136" lon="13.316782669822762"><ele>723.0</ele><time>2026-05-03T14:29:55Z</time></trkpt><trkpt lat="42.05394260457212" lon="13.316483748910638"><ele>725.0</ele><time>2026-05-03T14:29:56Z</time></trkpt><trkpt lat="42.05381014354094" lon="13.316195820493682"><ele>727.0</ele><time>2026-05-03T14:29:57Z</time></trkpt><trkpt lat="42.053680612333736" lon="13.315901929629488"><ele>727.0</ele><time>2026-05-03T14:29:58Z</time></trkpt><trkpt lat="42.05356034221073" lon="13.315616089405514"><ele>727.0</ele><time>2026-05-03T14:29:59Z</time></trkpt><trkpt lat="42.053452900017945" lon="13.315335729486444"><ele>728.0</ele><time>2026-05-03T14:30:00Z</time></trkpt><trkpt lat="42.05334015754519" lon="13.315063883192373"><ele>729.0</ele><time>2026-05-03T14:30:01Z</time></trkpt><trkpt lat="42.05323388880301" lon="13.314804500578692"><ele>728.6666666666666</ele><time>2026-05-03T14:30:02Z</time></trkpt><trkpt lat="42.05313686086756" lon="13.314557591930024"><ele>728.3333333333333</ele><time>2026-05-03T14:30:03Z</time></trkpt><trkpt lat="42.053037389018115" lon="13.314315648251222"><ele>728.0</ele><time>2026-05-03T14:30:04Z</time></trkpt><trkpt lat="42.05293275846961" lon="13.314064543130458"><ele>728.0</ele><time>2026-05-03T14:30:04.999Z</time></trkpt><trkpt lat="42.05283212557588" lon="13.313806529609131"><ele>728.0</ele><time>2026-05-03T14:30:05.999Z</time></trkpt><trkpt lat="42.05273015193856" lon="13.313547044729953"><ele>728.0</ele><time>2026-05-03T14:30:06.999Z</time></trkpt><trkpt lat="42.052624065179394" lon="13.313276433762086"><ele>728.5</ele><time>2026-05-03T14:30:07.999Z</time></trkpt><trkpt lat="42.05251307968232" lon="13.313008258127283"><ele>729.0</ele><time>2026-05-03T14:30:08.999Z</time></trkpt><trkpt lat="42.05240318689081" lon="13.312739740908365"><ele>729.0</ele><time>2026-05-03T14:30:09.999Z</time></trkpt><trkpt lat="42.05229634878815" lon="13.312476946544798"><ele>729.0</ele><time>2026-05-03T14:30:10.999Z</time></trkpt><trkpt lat="42.052195464403546" lon="13.312221482903425"><ele>729.0</ele><time>2026-05-03T14:30:11.999Z</time></trkpt><trkpt lat="42.05209667084785" lon="13.31196819480344"><ele>728.0</ele><time>2026-05-03T14:30:12.999Z</time></trkpt><trkpt lat="42.052000041172214" lon="13.31171321479546"><ele>727.0</ele><time>2026-05-03T14:30:13.999Z</time></trkpt><trkpt lat="42.05189918230133" lon="13.311471496811121"><ele>726.0</ele><time>2026-05-03T14:30:14.999Z</time></trkpt><trkpt lat="42.051806795209025" lon="13.311223133279842"><ele>726.0</ele><time>2026-05-03T14:30:15.999Z</time></trkpt><trkpt lat="42.05171466710451" lon="13.310979298389467"><ele>726.0</ele><time>2026-05-03T14:30:16.999Z</time></trkpt><trkpt lat="42.051617799063386" lon="13.310752908545513"><ele>726.0</ele><time>2026-05-03T14:30:17.999Z</time></trkpt><trkpt lat="42.05153013148851" lon="13.310514113015316"><ele>725.3333333333334</ele><time>2026-05-03T14:30:18.999Z</time></trkpt><trkpt lat="42.05145337917723" lon="13.310302049720079"><ele>724.6666666666667</ele><time>2026-05-03T14:30:19.999Z</time></trkpt><trkpt lat="42.051381315202484" lon="13.31011377298111"><ele>724.0</ele><time>2026-05-03T14:30:20.999Z</time></trkpt><trkpt lat="42.051306981500666" lon="13.309939453213733"><ele>724.0</ele><time>2026-05-03T14:30:21.999Z</time></trkpt><trkpt lat="42.05124220527981" lon="13.309761655933158"><ele>724.0</ele><time>2026-05-03T14:30:22.999Z</time></trkpt><trkpt lat="42.05117399187299" lon="13.30958037044646"><ele>724.0</ele><time>2026-05-03T14:30:23.999Z</time></trkpt><trkpt lat="42.05110642598516" lon="13.309408814455425"><ele>724.0</ele><time>2026-05-03T14:30:24.999Z</time></trkpt><trkpt lat="42.05103497434635" lon="13.309225560293585"><ele>724.25</ele><time>2026-05-03T14:30:25.999Z</time></trkpt><trkpt lat="42.050974665447754" lon="13.309038774621383"><ele>724.5</ele><time>2026-05-03T14:30:26.999Z</time></trkpt><trkpt lat="42.050929302119094" lon="13.308853491284028"><ele>724.75</ele><time>2026-05-03T14:30:27.999Z</time></trkpt><trkpt lat="42.0508969617147" lon="13.308672617227888"><ele>725.0</ele><time>2026-05-03T14:30:28.999Z</time></trkpt><trkpt lat="42.050883628194526" lon="13.308482645650072"><ele>725.0</ele><time>2026-05-03T14:30:29.999Z</time></trkpt><trkpt lat="42.05088712430823" lon="13.308303727899139"><ele>725.0</ele><time>2026-05-03T14:30:30.999Z</time></trkpt><trkpt lat="42.05090680408871" lon="13.308111097974606"><ele>725.0</ele><time>2026-05-03T14:30:31.999Z</time></trkpt><trkpt lat="42.0509359675126" lon="13.30790553707072"><ele>725.0</ele><time>2026-05-03T14:30:32.999Z</time></trkpt><trkpt lat="42.050991064301144" lon="13.307688737547815"><ele>723.6666666666666</ele><time>2026-05-03T14:30:33.999Z</time></trkpt><trkpt lat="42.05106905819856" lon="13.307461115876935"><ele>722.3333333333334</ele><time>2026-05-03T14:30:35Z</time></trkpt><trkpt lat="42.05116352728972" lon="13.307236736108857"><ele>721.0</ele><time>2026-05-03T14:30:36Z</time></trkpt><trkpt lat="42.05126001805525" lon="13.307011492833432"><ele>720.3333333333334</ele><time>2026-05-03T14:30:37Z</time></trkpt><trkpt lat="42.05135581620244" lon="13.30677809806639"><ele>719.6666666666666</ele><time>2026-05-03T14:30:38Z</time></trkpt><trkpt lat="42.05144219538763" lon="13.30654083674062"><ele>719.0</ele><time>2026-05-03T14:30:39Z</time></trkpt><trkpt lat="42.051526094714035" lon="13.306305680136678"><ele>719.0</ele><time>2026-05-03T14:30:40Z</time></trkpt><trkpt lat="42.0516156388737" lon="13.306082958793986"><ele>719.0</ele><time>2026-05-03T14:30:41Z</time></trkpt><trkpt lat="42.0517130901228" lon="13.305852739867477"><ele>719.0</ele><time>2026-05-03T14:30:42Z</time></trkpt><trkpt lat="42.05180405308398" lon="13.305612486994335"><ele>719.3333333333333</ele><time>2026-05-03T14:30:43Z</time></trkpt><trkpt lat="42.05189631124974" lon="13.305382657305852"><ele>719.6666666666666</ele><time>2026-05-03T14:30:44Z</time></trkpt><trkpt lat="42.05198987373272" lon="13.305163750371017"><ele>720.0</ele><time>2026-05-03T14:30:45Z</time></trkpt><trkpt lat="42.052083581061076" lon="13.304946562944481"><ele>719.6666666666666</ele><time>2026-05-03T14:30:46Z</time></trkpt><trkpt lat="42.052173524102535" lon="13.304729805056208"><ele>719.3333333333333</ele><time>2026-05-03T14:30:47Z</time></trkpt><trkpt lat="42.05226281935994" lon="13.304511248938347"><ele>719.0</ele><time>2026-05-03T14:30:48Z</time></trkpt><trkpt lat="42.052356894852466" lon="13.304288330727793"><ele>719.0</ele><time>2026-05-03T14:30:49Z</time></trkpt><trkpt lat="42.0524590194413" lon="13.304040781036"><ele>719.0</ele><time>2026-05-03T14:30:50Z</time></trkpt><trkpt lat="42.052560092062144" lon="13.303766551868877"><ele>719.0</ele><time>2026-05-03T14:30:51Z</time></trkpt><trkpt lat="42.052675767108" lon="13.303480400903634"><ele>719.0</ele><time>2026-05-03T14:30:52Z</time></trkpt><trkpt lat="42.052803695266554" lon="13.303182314047064"><ele>719.0</ele><time>2026-05-03T14:30:53Z</time></trkpt><trkpt lat="42.05293064885023" lon="13.302902710091947"><ele>719.0</ele><time>2026-05-03T14:30:54Z</time></trkpt><trkpt lat="42.05305091329478" lon="13.302645540846491"><ele>719.0</ele><time>2026-05-03T14:30:55Z</time></trkpt><trkpt lat="42.053159453195086" lon="13.302392985828961"><ele>719.0</ele><time>2026-05-03T14:30:56Z</time></trkpt><trkpt lat="42.05326352279922" lon="13.302130729941776"><ele>720.0</ele><time>2026-05-03T14:30:57Z</time></trkpt><trkpt lat="42.05336921962933" lon="13.30186235306512"><ele>721.0</ele><time>2026-05-03T14:30:58Z</time></trkpt><trkpt lat="42.0534778117676" lon="13.301598243029503"><ele>720.5</ele><time>2026-05-03T14:30:59Z</time></trkpt><trkpt lat="42.05358605138611" lon="13.301329740799755"><ele>720.0</ele><time>2026-05-03T14:31:00Z</time></trkpt><trkpt lat="42.05369390501751" lon="13.30106522857799"><ele>720.0</ele><time>2026-05-03T14:31:01Z</time></trkpt><trkpt lat="42.05380098773497" lon="13.300801265839361"><ele>720.0</ele><time>2026-05-03T14:31:02Z</time></trkpt><trkpt lat="42.05391261734649" lon="13.300539036722974"><ele>720.0</ele><time>2026-05-03T14:31:03Z</time></trkpt><trkpt lat="42.05401949178958" lon="13.300275433231628"><ele>720.0</ele><time>2026-05-03T14:31:04Z</time></trkpt><trkpt lat="42.05412705058173" lon="13.300012062334268"><ele>720.0</ele><time>2026-05-03T14:31:05Z</time></trkpt><trkpt lat="42.054254539632495" lon="13.299751464832147"><ele>719.5</ele><time>2026-05-03T14:31:06Z</time></trkpt><trkpt lat="42.05437202801365" lon="13.299470858484517"><ele>719.0</ele><time>2026-05-03T14:31:07Z</time></trkpt><trkpt lat="42.054497076242185" lon="13.299172629761395"><ele>718.5</ele><time>2026-05-03T14:31:08Z</time></trkpt><trkpt lat="42.054620208907345" lon="13.298879047561828"><ele>718.0</ele><time>2026-05-03T14:31:09Z</time></trkpt><trkpt lat="42.05473732523334" lon="13.29860021815417"><ele>718.0</ele><time>2026-05-03T14:31:10Z</time></trkpt><trkpt lat="42.05485299397155" lon="13.29832604796769"><ele>718.0</ele><time>2026-05-03T14:31:11Z</time></trkpt><trkpt lat="42.05496817092154" lon="13.298052792834177"><ele>717.5</ele><time>2026-05-03T14:31:12Z</time></trkpt><trkpt lat="42.05508710509191" lon="13.297769792604909"><ele>717.0</ele><time>2026-05-03T14:31:13Z</time></trkpt><trkpt lat="42.05519455550949" lon="13.29751599598099"><ele>717.0</ele><time>2026-05-03T14:31:14Z</time></trkpt><trkpt lat="42.05527790989339" lon="13.297277762483057"><ele>717.0</ele><time>2026-05-03T14:31:15Z</time></trkpt><trkpt lat="42.055370545138786" lon="13.29707339470651"><ele>717.0</ele><time>2026-05-03T14:31:16Z</time></trkpt><trkpt lat="42.0554577341949" lon="13.296877034823648"><ele>717.0</ele><time>2026-05-03T14:31:17Z</time></trkpt><trkpt lat="42.05554308561761" lon="13.296670585154802"><ele>717.0</ele><time>2026-05-03T14:31:18Z</time></trkpt><trkpt lat="42.055628575826525" lon="13.296468921914057"><ele>717.0</ele><time>2026-05-03T14:31:19Z</time></trkpt><trkpt lat="42.05571242713927" lon="13.29627781658705"><ele>717.6666666666666</ele><time>2026-05-03T14:31:20Z</time></trkpt><trkpt lat="42.05579491804924" lon="13.296086387695379"><ele>718.3333333333333</ele><time>2026-05-03T14:31:21Z</time></trkpt><trkpt lat="42.05587035134187" lon="13.295904993195354"><ele>719.0</ele><time>2026-05-03T14:31:22Z</time></trkpt><trkpt lat="42.05593598067158" lon="13.295714635400731"><ele>719.3333333333333</ele><time>2026-05-03T14:31:23Z</time></trkpt><trkpt lat="42.05600585891171" lon="13.295519605745495"><ele>719.6666666666666</ele><time>2026-05-03T14:31:24Z</time></trkpt><trkpt lat="42.05608626058532" lon="13.295324417157808"><ele>720.0</ele><time>2026-05-03T14:31:25Z</time></trkpt><trkpt lat="42.05614588970863" lon="13.295087574036657"><ele>720.0</ele><time>2026-05-03T14:31:26Z</time></trkpt><trkpt lat="42.0562104095389" lon="13.29482415731341"><ele>720.0</ele><time>2026-05-03T14:31:27Z</time></trkpt><trkpt lat="42.05626401614402" lon="13.294544328749765"><ele>720.0</ele><time>2026-05-03T14:31:28Z</time></trkpt><trkpt lat="42.05633212449655" lon="13.294295406891647"><ele>719.6666666666666</ele><time>2026-05-03T14:31:29Z</time></trkpt><trkpt lat="42.0563959201483" lon="13.294062347785847"><ele>719.3333333333333</ele><time>2026-05-03T14:31:30Z</time></trkpt><trkpt lat="42.05647458464981" lon="13.29383133405818"><ele>719.0</ele><time>2026-05-03T14:31:31Z</time></trkpt><trkpt lat="42.05658862530836" lon="13.293600124727387"><ele>719.0</ele><time>2026-05-03T14:31:32Z</time></trkpt><trkpt lat="42.05672472149061" lon="13.29337142723636"><ele>719.0</ele><time>2026-05-03T14:31:33Z</time></trkpt><trkpt lat="42.05687258527336" lon="13.29314001100249"><ele>719.0</ele><time>2026-05-03T14:31:34Z</time></trkpt><trkpt lat="42.05701821220239" lon="13.292920628736061"><ele>718.0</ele><time>2026-05-03T14:31:35Z</time></trkpt><trkpt lat="42.05715185403171" lon="13.29270143807096"><ele>717.0</ele><time>2026-05-03T14:31:36Z</time></trkpt><trkpt lat="42.05728068120776" lon="13.292493344335645"><ele>716.0</ele><time>2026-05-03T14:31:37Z</time></trkpt><trkpt lat="42.05739692155859" lon="13.292308934317186"><ele>716.5</ele><time>2026-05-03T14:31:38Z</time></trkpt><trkpt lat="42.057498395002874" lon="13.292153177957246"><ele>717.0</ele><time>2026-05-03T14:31:39Z</time></trkpt><trkpt lat="42.057595470926046" lon="13.29201423474686"><ele>717.5</ele><time>2026-05-03T14:31:40Z</time></trkpt><trkpt lat="42.0576874742286" lon="13.291883264775265"><ele>718.0</ele><time>2026-05-03T14:31:41Z</time></trkpt><trkpt lat="42.05777376796812" lon="13.291750800406733"><ele>718.0</ele><time>2026-05-03T14:31:42Z</time></trkpt><trkpt lat="42.05785984410307" lon="13.291594543516181"><ele>718.0</ele><time>2026-05-03T14:31:43Z</time></trkpt><trkpt lat="42.0579602340033" lon="13.291429548195369"><ele>718.0</ele><time>2026-05-03T14:31:44Z</time></trkpt><trkpt lat="42.058073022990364" lon="13.291249569345682"><ele>718.0</ele><time>2026-05-03T14:31:45Z</time></trkpt><trkpt lat="42.05820099520596" lon="13.291056018653606"><ele>718.0</ele><time>2026-05-03T14:31:46Z</time></trkpt><trkpt lat="42.05833989612648" lon="13.290849095705061"><ele>718.0</ele><time>2026-05-03T14:31:47Z</time></trkpt><trkpt lat="42.05848183558361" lon="13.290623562980677"><ele>717.6666666666667</ele><time>2026-05-03T14:31:48Z</time></trkpt><trkpt lat="42.058624061356426" lon="13.290387686121887"><ele>717.3333333333334</ele><time>2026-05-03T14:31:49Z</time></trkpt><trkpt lat="42.0587639217351" lon="13.290161200322553"><ele>717.0</ele><time>2026-05-03T14:31:50Z</time></trkpt><trkpt lat="42.0589083936915" lon="13.289936338122555"><ele>717.0</ele><time>2026-05-03T14:31:51Z</time></trkpt><trkpt lat="42.059056102523854" lon="13.289709801553437"><ele>717.0</ele><time>2026-05-03T14:31:52Z</time></trkpt><trkpt lat="42.05920414437035" lon="13.289482209932725"><ele>717.0</ele><time>2026-05-03T14:31:53Z</time></trkpt><trkpt lat="42.059347902913125" lon="13.289236471923862"><ele>717.5</ele><time>2026-05-03T14:31:54Z</time></trkpt><trkpt lat="42.059500841069216" lon="13.288996368008878"><ele>718.0</ele><time>2026-05-03T14:31:55Z</time></trkpt><trkpt lat="42.05966704192423" lon="13.288740891143116"><ele>717.5</ele><time>2026-05-03T14:31:56Z</time></trkpt><trkpt lat="42.05983684303071" lon="13.28847405150656"><ele>717.0</ele><time>2026-05-03T14:31:57Z</time></trkpt><trkpt lat="42.06001815428149" lon="13.288212128201158"><ele>717.5</ele><time>2026-05-03T14:31:58Z</time></trkpt><trkpt lat="42.0601803503823" lon="13.287926342184088"><ele>718.0</ele><time>2026-05-03T14:31:59Z</time></trkpt><trkpt lat="42.06035587826065" lon="13.287658609758331"><ele>718.0</ele><time>2026-05-03T14:32:00Z</time></trkpt><trkpt lat="42.06052483534378" lon="13.287394529654732"><ele>718.0</ele><time>2026-05-03T14:32:01Z</time></trkpt><trkpt lat="42.06068912371985" lon="13.287127431533825"><ele>720.0</ele><time>2026-05-03T14:32:02Z</time></trkpt><trkpt lat="42.060856424251085" lon="13.286861000211214"><ele>722.0</ele><time>2026-05-03T14:32:03Z</time></trkpt><trkpt lat="42.061023968168" lon="13.286600760113576"><ele>722.0</ele><time>2026-05-03T14:32:04Z</time></trkpt><trkpt lat="42.06118408484764" lon="13.286352217109494"><ele>722.0</ele><time>2026-05-03T14:32:05Z</time></trkpt><trkpt lat="42.06134475573952" lon="13.286113279956112"><ele>722.0</ele><time>2026-05-03T14:32:06Z</time></trkpt><trkpt lat="42.06149412857765" lon="13.285879807980617"><ele>722.0</ele><time>2026-05-03T14:32:07Z</time></trkpt><trkpt lat="42.06163830113181" lon="13.28564856757477"><ele>722.6666666666666</ele><time>2026-05-03T14:32:08Z</time></trkpt><trkpt lat="42.06178269874806" lon="13.2854216413132"><ele>723.3333333333334</ele><time>2026-05-03T14:32:09Z</time></trkpt><trkpt lat="42.06192357938101" lon="13.285193212370757"><ele>724.0</ele><time>2026-05-03T14:32:10Z</time></trkpt><trkpt lat="42.06206388286939" lon="13.284969776512483"><ele>723.6666666666667</ele><time>2026-05-03T14:32:11Z</time></trkpt><trkpt lat="42.06220350127327" lon="13.284756622741915"><ele>723.3333333333334</ele><time>2026-05-03T14:32:12Z</time></trkpt><trkpt lat="42.062337326400424" lon="13.284542895421733"><ele>723.0</ele><time>2026-05-03T14:32:13Z</time></trkpt><trkpt lat="42.06246492122418" lon="13.284331541990948"><ele>724.3333333333334</ele><time>2026-05-03T14:32:14Z</time></trkpt><trkpt lat="42.06259096365586" lon="13.284140588324608"><ele>725.6666666666667</ele><time>2026-05-03T14:32:15Z</time></trkpt><trkpt lat="42.06271452097913" lon="13.28394947735313"><ele>727.0</ele><time>2026-05-03T14:32:16Z</time></trkpt><trkpt lat="42.062836149655546" lon="13.28375468622425"><ele>727.0</ele><time>2026-05-03T14:32:17Z</time></trkpt><trkpt lat="42.062956756412085" lon="13.283565456311418"><ele>727.0</ele><time>2026-05-03T14:32:18Z</time></trkpt><trkpt lat="42.063074289758134" lon="13.283379513491521"><ele>727.0</ele><time>2026-05-03T14:32:19Z</time></trkpt><trkpt lat="42.06318949544678" lon="13.283200961765399"><ele>727.6666666666667</ele><time>2026-05-03T14:32:20Z</time></trkpt><trkpt lat="42.063298591315885" lon="13.283027030522952"><ele>728.3333333333334</ele><time>2026-05-03T14:32:21Z</time></trkpt><trkpt lat="42.06341244948715" lon="13.282845971571524"><ele>729.0</ele><time>2026-05-03T14:32:22Z</time></trkpt><trkpt lat="42.06352460552986" lon="13.282664229597458"><ele>729.0</ele><time>2026-05-03T14:32:23Z</time></trkpt><trkpt lat="42.063636521591896" lon="13.282496123611093"><ele>729.0</ele><time>2026-05-03T14:32:24Z</time></trkpt><trkpt lat="42.06376099633277" lon="13.282319827619078"><ele>729.0</ele><time>2026-05-03T14:32:25Z</time></trkpt><trkpt lat="42.06391156293242" lon="13.282160237922934"><ele>728.3333333333334</ele><time>2026-05-03T14:32:26Z</time></trkpt><trkpt lat="42.06407355128623" lon="13.28199878488525"><ele>727.6666666666667</ele><time>2026-05-03T14:32:26.999Z</time></trkpt><trkpt lat="42.06423345550268" lon="13.281830776666336"><ele>727.0</ele><time>2026-05-03T14:32:27.999Z</time></trkpt><trkpt lat="42.06438711535863" lon="13.28166790033219"><ele>728.0</ele><time>2026-05-03T14:32:28.999Z</time></trkpt><trkpt lat="42.06453982318041" lon="13.28149472209091"><ele>729.0</ele><time>2026-05-03T14:32:29.999Z</time></trkpt><trkpt lat="42.06469435472374" lon="13.281328713569607"><ele>730.0</ele><time>2026-05-03T14:32:30.999Z</time></trkpt><trkpt lat="42.064848594867826" lon="13.28115516220869"><ele>730.6666666666667</ele><time>2026-05-03T14:32:31.999Z</time></trkpt><trkpt lat="42.065006335814964" lon="13.280989693524408"><ele>731.3333333333334</ele><time>2026-05-03T14:32:32.999Z</time></trkpt><trkpt lat="42.06516112335048" lon="13.280822908546263"><ele>732.0</ele><time>2026-05-03T14:32:33.999Z</time></trkpt><trkpt lat="42.065316751462625" lon="13.280652867642742"><ele>732.0</ele><time>2026-05-03T14:32:34.999Z</time></trkpt><trkpt lat="42.06545777473873" lon="13.280459148244569"><ele>732.0</ele><time>2026-05-03T14:32:35.999Z</time></trkpt><trkpt lat="42.06557772726405" lon="13.28023924998019"><ele>732.0</ele><time>2026-05-03T14:32:36.999Z</time></trkpt><trkpt lat="42.06568396433163" lon="13.28000146408838"><ele>732.0</ele><time>2026-05-03T14:32:37.999Z</time></trkpt><trkpt lat="42.0657764182825" lon="13.27975275041657"><ele>732.0</ele><time>2026-05-03T14:32:38.999Z</time></trkpt><trkpt lat="42.06586352398981" lon="13.27950141471051"><ele>732.0</ele><time>2026-05-03T14:32:39.999Z</time></trkpt><trkpt lat="42.06594153002425" lon="13.27925803327408"><ele>732.0</ele><time>2026-05-03T14:32:41Z</time></trkpt><trkpt lat="42.06601476276397" lon="13.279020283868727"><ele>732.0</ele><time>2026-05-03T14:32:42Z</time></trkpt><trkpt lat="42.06609340197205" lon="13.27879037689142"><ele>732.0</ele><time>2026-05-03T14:32:43Z</time></trkpt><trkpt lat="42.066175006527196" lon="13.278572266612196"><ele>730.6666666666666</ele><time>2026-05-03T14:32:44Z</time></trkpt><trkpt lat="42.06627695576755" lon="13.278376051221867"><ele>729.3333333333333</ele><time>2026-05-03T14:32:45Z</time></trkpt><trkpt lat="42.06640766836811" lon="13.278213306790306"><ele>728.0</ele><time>2026-05-03T14:32:46Z</time></trkpt><trkpt lat="42.06656652437557" lon="13.27808011448316"><ele>727.3333333333333</ele><time>2026-05-03T14:32:47Z</time></trkpt><trkpt lat="42.06673889922844" lon="13.277958369909737"><ele>726.6666666666666</ele><time>2026-05-03T14:32:48Z</time></trkpt><trkpt lat="42.0669009280917" lon="13.277831897906943"><ele>726.0</ele><time>2026-05-03T14:32:49Z</time></trkpt><trkpt lat="42.06704385091781" lon="13.277682782921962"><ele>726.0</ele><time>2026-05-03T14:32:50Z</time></trkpt><trkpt lat="42.06716717078516" lon="13.277526455681222"><ele>726.0</ele><time>2026-05-03T14:32:51Z</time></trkpt><trkpt lat="42.067249087366164" lon="13.277343342978002"><ele>726.0</ele><time>2026-05-03T14:32:52Z</time></trkpt><trkpt lat="42.067292859116755" lon="13.277140743859855"><ele>725.3333333333334</ele><time>2026-05-03T14:32:53Z</time></trkpt><trkpt lat="42.06733141924258" lon="13.276908076625107"><ele>724.6666666666667</ele><time>2026-05-03T14:32:54Z</time></trkpt><trkpt lat="42.06736884100748" lon="13.276651471389588"><ele>724.0</ele><time>2026-05-03T14:32:55Z</time></trkpt><trkpt lat="42.0674014282945" lon="13.276376376092264"><ele>724.0</ele><time>2026-05-03T14:32:56Z</time></trkpt><trkpt lat="42.06743494709824" lon="13.276082110324518"><ele>724.0</ele><time>2026-05-03T14:32:57Z</time></trkpt><trkpt lat="42.0674711893744" lon="13.275790152535146"><ele>724.0</ele><time>2026-05-03T14:32:58Z</time></trkpt><trkpt lat="42.067507838858944" lon="13.275497497434532"><ele>724.0</ele><time>2026-05-03T14:32:59Z</time></trkpt><trkpt lat="42.06754762463536" lon="13.275216808416172"><ele>724.0</ele><time>2026-05-03T14:33:00Z</time></trkpt><trkpt lat="42.06758018394911" lon="13.274938609109459"><ele>724.0</ele><time>2026-05-03T14:33:01Z</time></trkpt><trkpt lat="42.06761127196836" lon="13.274641223463242"><ele>724.0</ele><time>2026-05-03T14:33:02Z</time></trkpt><trkpt lat="42.06764381999134" lon="13.27431519780604"><ele>724.0</ele><time>2026-05-03T14:33:03Z</time></trkpt><trkpt lat="42.067684222883805" lon="13.273990141878437"><ele>724.0</ele><time>2026-05-03T14:33:04Z</time></trkpt><trkpt lat="42.067735396563364" lon="13.273699735042662"><ele>724.0</ele><time>2026-05-03T14:33:05Z</time></trkpt><trkpt lat="42.06777703634773" lon="13.273414311634832"><ele>724.0</ele><time>2026-05-03T14:33:06Z</time></trkpt><trkpt lat="42.06781282013525" lon="13.273137124579517"><ele>724.0</ele><time>2026-05-03T14:33:07Z</time></trkpt><trkpt lat="42.06784719486978" lon="13.272854701466278"><ele>724.0</ele><time>2026-05-03T14:33:08Z</time></trkpt><trkpt lat="42.06788365215191" lon="13.272568430048967"><ele>724.0</ele><time>2026-05-03T14:33:09Z</time></trkpt><trkpt lat="42.06792072949459" lon="13.272274900836548"><ele>724.0</ele><time>2026-05-03T14:33:10Z</time></trkpt><trkpt lat="42.067955885835026" lon="13.271983437109746"><ele>724.0</ele><time>2026-05-03T14:33:11Z</time></trkpt><trkpt lat="42.06799165536988" lon="13.2716975539131"><ele>724.0</ele><time>2026-05-03T14:33:12Z</time></trkpt><trkpt lat="42.06802944779645" lon="13.27141353485563"><ele>724.0</ele><time>2026-05-03T14:33:13Z</time></trkpt><trkpt lat="42.06806147321259" lon="13.27112329263048"><ele>724.0</ele><time>2026-05-03T14:33:14Z</time></trkpt><trkpt lat="42.06810560199516" lon="13.270824677598263"><ele>724.0</ele><time>2026-05-03T14:33:15Z</time></trkpt><trkpt lat="42.06813819984108" lon="13.270523621395359"><ele>724.5</ele><time>2026-05-03T14:33:16Z</time></trkpt><trkpt lat="42.06817786580853" lon="13.270211673832872"><ele>725.0</ele><time>2026-05-03T14:33:17Z</time></trkpt><trkpt lat="42.0682200068914" lon="13.269904341196987"><ele>725.5</ele><time>2026-05-03T14:33:18Z</time></trkpt><trkpt lat="42.06826167929624" lon="13.269594833833734"><ele>726.0</ele><time>2026-05-03T14:33:19Z</time></trkpt><trkpt lat="42.068297963843634" lon="13.26929254156171"><ele>726.0</ele><time>2026-05-03T14:33:20Z</time></trkpt><trkpt lat="42.06833609794685" lon="13.26900233771797"><ele>726.0</ele><time>2026-05-03T14:33:21Z</time></trkpt><trkpt lat="42.06836712895052" lon="13.268734720045641"><ele>726.0</ele><time>2026-05-03T14:33:22Z</time></trkpt><trkpt lat="42.06840643962379" lon="13.268457712331278"><ele>725.6666666666666</ele><time>2026-05-03T14:33:23Z</time></trkpt><trkpt lat="42.06844194603157" lon="13.268187080110978"><ele>725.3333333333333</ele><time>2026-05-03T14:33:24Z</time></trkpt><trkpt lat="42.06848015579654" lon="13.267908659512837"><ele>725.0</ele><time>2026-05-03T14:33:25Z</time></trkpt><trkpt lat="42.068515905624544" lon="13.267627333989262"><ele>725.0</ele><time>2026-05-03T14:33:26Z</time></trkpt><trkpt lat="42.06855421025895" lon="13.267339391326814"><ele>725.0</ele><time>2026-05-03T14:33:27Z</time></trkpt><trkpt lat="42.068590778606705" lon="13.267046265390787"><ele>725.0</ele><time>2026-05-03T14:33:28Z</time></trkpt><trkpt lat="42.068628213065566" lon="13.266751757987835"><ele>725.0</ele><time>2026-05-03T14:33:29Z</time></trkpt><trkpt lat="42.06866299467784" lon="13.266450248147422"><ele>725.0</ele><time>2026-05-03T14:33:30Z</time></trkpt><trkpt lat="42.06869673691598" lon="13.266151603451691"><ele>725.6666666666666</ele><time>2026-05-03T14:33:31Z</time></trkpt><trkpt lat="42.068736145955555" lon="13.265868305026295"><ele>726.3333333333334</ele><time>2026-05-03T14:33:32Z</time></trkpt><trkpt lat="42.068771274894154" lon="13.265593901168268"><ele>727.0</ele><time>2026-05-03T14:33:33Z</time></trkpt><trkpt lat="42.0688048735341" lon="13.26532569612822"><ele>727.0</ele><time>2026-05-03T14:33:34Z</time></trkpt><trkpt lat="42.06883658400338" lon="13.265063681131434"><ele>727.0</ele><time>2026-05-03T14:33:35Z</time></trkpt><trkpt lat="42.06886555934447" lon="13.26479852299557"><ele>727.0</ele><time>2026-05-03T14:33:36Z</time></trkpt><trkpt lat="42.068897352778" lon="13.2645509818142"><ele>727.0</ele><time>2026-05-03T14:33:37Z</time></trkpt><trkpt lat="42.06894021995755" lon="13.264315619668674"><ele>727.0</ele><time>2026-05-03T14:33:38Z</time></trkpt><trkpt lat="42.068954903909436" lon="13.264084212238528"><ele>727.0</ele><time>2026-05-03T14:33:39Z</time></trkpt><trkpt lat="42.068999427379815" lon="13.263883692277526"><ele>727.0</ele><time>2026-05-03T14:33:40Z</time></trkpt><trkpt lat="42.06900768836964" lon="13.263695826633814"><ele>727.0</ele><time>2026-05-03T14:33:41Z</time></trkpt><trkpt lat="42.06903611595226" lon="13.263533229126152"><ele>727.0</ele><time>2026-05-03T14:33:42Z</time></trkpt><trkpt lat="42.06905629362736" lon="13.263404983058377"><ele>727.0</ele><time>2026-05-03T14:33:43Z</time></trkpt><trkpt lat="42.06907283139903" lon="13.26330919873159"><ele>727.0</ele><time>2026-05-03T14:33:44Z</time></trkpt><trkpt lat="42.069091898915325" lon="13.263205671157866"><ele>727.3333333333334</ele><time>2026-05-03T14:33:46Z</time></trkpt><trkpt lat="42.069152099372666" lon="13.263161036979374"><ele>727.6666666666667</ele><time>2026-05-03T14:33:49Z</time></trkpt><trkpt lat="42.06921620845157" lon="13.263171330729866"><ele>728.0</ele><time>2026-05-03T14:33:51Z</time></trkpt><trkpt lat="42.0692795253488" lon="13.26317888910105"><ele>728.3333333333334</ele><time>2026-05-03T14:33:53Z</time></trkpt><trkpt lat="42.06931439041516" lon="13.26305192315321"><ele>728.6666666666666</ele><time>2026-05-03T14:33:54Z</time></trkpt><trkpt lat="42.069331061342595" lon="13.262942816861575"><ele>729.0</ele><time>2026-05-03T14:33:55Z</time></trkpt><trkpt lat="42.0693608726105" lon="13.262816378716504"><ele>729.0</ele><time>2026-05-03T14:33:56Z</time></trkpt><trkpt lat="42.06940687310127" lon="13.26266642077194"><ele>729.0</ele><time>2026-05-03T14:33:57Z</time></trkpt><trkpt lat="42.069461295411585" lon="13.262503032400888"><ele>729.0</ele><time>2026-05-03T14:33:58Z</time></trkpt><trkpt lat="42.06951094930681" lon="13.262352795108196"><ele>729.0</ele><time>2026-05-03T14:33:59Z</time></trkpt><trkpt lat="42.069561704379296" lon="13.26219454005661"><ele>729.25</ele><time>2026-05-03T14:34:00Z</time></trkpt><trkpt lat="42.06960425167087" lon="13.262039525942319"><ele>729.5</ele><time>2026-05-03T14:34:01Z</time></trkpt><trkpt lat="42.0696472866848" lon="13.261881679761881"><ele>729.75</ele><time>2026-05-03T14:34:02Z</time></trkpt><trkpt lat="42.069694971877674" lon="13.261726878749501"><ele>730.0</ele><time>2026-05-03T14:34:03Z</time></trkpt><trkpt lat="42.06974496840605" lon="13.261570212997269"><ele>730.0</ele><time>2026-05-03T14:34:04Z</time></trkpt><trkpt lat="42.06979431467869" lon="13.26140969236303"><ele>730.0</ele><time>2026-05-03T14:34:05Z</time></trkpt><trkpt lat="42.06984572220037" lon="13.261246625684448"><ele>730.0</ele><time>2026-05-03T14:34:06Z</time></trkpt><trkpt lat="42.06990096082686" lon="13.261078681318523"><ele>730.0</ele><time>2026-05-03T14:34:07Z</time></trkpt><trkpt lat="42.06995276974777" lon="13.260904758094254"><ele>730.25</ele><time>2026-05-03T14:34:08Z</time></trkpt><trkpt lat="42.07000648209734" lon="13.260728744622725"><ele>730.5</ele><time>2026-05-03T14:34:09Z</time></trkpt><trkpt lat="42.07006756930554" lon="13.260552051919078"><ele>730.75</ele><time>2026-05-03T14:34:10Z</time></trkpt><trkpt lat="42.07012046709482" lon="13.260373968426766"><ele>731.0</ele><time>2026-05-03T14:34:11Z</time></trkpt><trkpt lat="42.0701735646095" lon="13.260195937166493"><ele>731.25</ele><time>2026-05-03T14:34:12Z</time></trkpt><trkpt lat="42.07021968877792" lon="13.260031346315413"><ele>731.5</ele><time>2026-05-03T14:34:13Z</time></trkpt><trkpt lat="42.070259754323786" lon="13.25987027942578"><ele>731.75</ele><time>2026-05-03T14:34:14Z</time></trkpt><trkpt lat="42.07030054462142" lon="13.25970949645107"><ele>732.0</ele><time>2026-05-03T14:34:15Z</time></trkpt><trkpt lat="42.07034437979057" lon="13.259548194073586"><ele>732.0</ele><time>2026-05-03T14:34:16Z</time></trkpt><trkpt lat="42.0703893131841" lon="13.259383004975668"><ele>732.0</ele><time>2026-05-03T14:34:17Z</time></trkpt><trkpt lat="42.07043369606341" lon="13.259211341091257"><ele>732.0</ele><time>2026-05-03T14:34:18Z</time></trkpt><trkpt lat="42.07047361795576" lon="13.25903433320989"><ele>732.0</ele><time>2026-05-03T14:34:19Z</time></trkpt><trkpt lat="42.07051032878597" lon="13.258856240902885"><ele>732.0</ele><time>2026-05-03T14:34:20Z</time></trkpt><trkpt lat="42.0705473424662" lon="13.258676298113393"><ele>732.0</ele><time>2026-05-03T14:34:21Z</time></trkpt><trkpt lat="42.07058235218254" lon="13.258500745698937"><ele>732.0</ele><time>2026-05-03T14:34:22Z</time></trkpt><trkpt lat="42.07061613938873" lon="13.258325720196707"><ele>732.0</ele><time>2026-05-03T14:34:23Z</time></trkpt><trkpt lat="42.070647322037786" lon="13.258155676833649"><ele>732.0</ele><time>2026-05-03T14:34:24Z</time></trkpt><trkpt lat="42.07067792189192" lon="13.257982085970784"><ele>732.0</ele><time>2026-05-03T14:34:25Z</time></trkpt><trkpt lat="42.070711737788486" lon="13.257813317990003"><ele>732.0</ele><time>2026-05-03T14:34:26Z</time></trkpt><trkpt lat="42.07074479921298" lon="13.25764062272625"><ele>732.0</ele><time>2026-05-03T14:34:27Z</time></trkpt><trkpt lat="42.07077719645165" lon="13.257462681721169"><ele>732.25</ele><time>2026-05-03T14:34:28Z</time></trkpt><trkpt lat="42.070808939963186" lon="13.25728723152123"><ele>732.5</ele><time>2026-05-03T14:34:29Z</time></trkpt><trkpt lat="42.07083565478045" lon="13.257112483446518"><ele>732.75</ele><time>2026-05-03T14:34:30Z</time></trkpt><trkpt lat="42.07085958109092" lon="13.256933713261146"><ele>733.0</ele><time>2026-05-03T14:34:31Z</time></trkpt><trkpt lat="42.070883864163655" lon="13.256759073167753"><ele>733.0</ele><time>2026-05-03T14:34:32Z</time></trkpt><trkpt lat="42.07091100677467" lon="13.256582444077251"><ele>733.0</ele><time>2026-05-03T14:34:33Z</time></trkpt><trkpt lat="42.0709567750768" lon="13.256413685998004"><ele>733.0</ele><time>2026-05-03T14:34:34Z</time></trkpt><trkpt lat="42.07098547846039" lon="13.256246049633686"><ele>733.0</ele><time>2026-05-03T14:34:35Z</time></trkpt><trkpt lat="42.071012905313516" lon="13.256085868604249"><ele>733.0</ele><time>2026-05-03T14:34:36Z</time></trkpt><trkpt lat="42.07103833776206" lon="13.255937335482063"><ele>733.0</ele><time>2026-05-03T14:34:37Z</time></trkpt><trkpt lat="42.0710524563419" lon="13.25579278331739"><ele>733.0</ele><time>2026-05-03T14:34:38Z</time></trkpt><trkpt lat="42.07107531541662" lon="13.255673428756978"><ele>733.0</ele><time>2026-05-03T14:34:39Z</time></trkpt><trkpt lat="42.071093874292835" lon="13.255570611916424"><ele>733.0</ele><time>2026-05-03T14:34:40Z</time></trkpt><trkpt lat="42.07111170562879" lon="13.25548609360459"><ele>733.0</ele><time>2026-05-03T14:34:41Z</time></trkpt><trkpt lat="42.07113236027754" lon="13.255362378506826"><ele>733.0</ele><time>2026-05-03T14:34:43Z</time></trkpt><trkpt lat="42.0711203662403" lon="13.255276917331887"><ele>733.0</ele><time>2026-05-03T14:35:08Z</time></trkpt><trkpt lat="42.07114191186959" lon="13.255116752422834"><ele>733.0</ele><time>2026-05-03T14:35:10Z</time></trkpt><trkpt lat="42.07116669293504" lon="13.25498299535987"><ele>733.0</ele><time>2026-05-03T14:35:11Z</time></trkpt><trkpt lat="42.07122698052752" lon="13.254849559545715"><ele>733.0</ele><time>2026-05-03T14:35:12Z</time></trkpt><trkpt lat="42.07123435001531" lon="13.254711401802453"><ele>733.0</ele><time>2026-05-03T14:35:13Z</time></trkpt><trkpt lat="42.07128231745589" lon="13.254570779281822"><ele>733.0</ele><time>2026-05-03T14:35:14Z</time></trkpt><trkpt lat="42.07134666954249" lon="13.254432468906735"><ele>733.0</ele><time>2026-05-03T14:35:15Z</time></trkpt><trkpt lat="42.07142491775066" lon="13.254286104218686"><ele>733.0</ele><time>2026-05-03T14:35:16Z</time></trkpt><trkpt lat="42.071565477322785" lon="13.254184458951618"><ele>733.0</ele><time>2026-05-03T14:35:17Z</time></trkpt><trkpt lat="42.07167268592507" lon="13.254030631378146"><ele>733.0</ele><time>2026-05-03T14:35:18Z</time></trkpt><trkpt lat="42.07178490573967" lon="13.253869172892138"><ele>734.0</ele><time>2026-05-03T14:35:19Z</time></trkpt><trkpt lat="42.071906637102764" lon="13.253693878886372"><ele>735.0</ele><time>2026-05-03T14:35:20Z</time></trkpt><trkpt lat="42.07202511846347" lon="13.25352326490466"><ele>736.0</ele><time>2026-05-03T14:35:21Z</time></trkpt><trkpt lat="42.07214390350786" lon="13.2533522136174"><ele>736.0</ele><time>2026-05-03T14:35:22Z</time></trkpt><trkpt lat="42.07226314293856" lon="13.253180508010903"><ele>736.0</ele><time>2026-05-03T14:35:23Z</time></trkpt><trkpt lat="42.07238071051415" lon="13.253011147335911"><ele>736.0</ele><time>2026-05-03T14:35:24Z</time></trkpt><trkpt lat="42.07249065062908" lon="13.252852765861991"><ele>737.3333333333334</ele><time>2026-05-03T14:35:25Z</time></trkpt><trkpt lat="42.07259914554233" lon="13.252695750658923"><ele>738.6666666666666</ele><time>2026-05-03T14:35:26Z</time></trkpt><trkpt lat="42.07270428732002" lon="13.25254272476265"><ele>740.0</ele><time>2026-05-03T14:35:27Z</time></trkpt><trkpt lat="42.07280684545181" lon="13.25239735176312"><ele>740.0</ele><time>2026-05-03T14:35:28Z</time></trkpt><trkpt lat="42.0729056919816" lon="13.252258990065217"><ele>740.0</ele><time>2026-05-03T14:35:29Z</time></trkpt><trkpt lat="42.0729933388422" lon="13.252112066649401"><ele>740.0</ele><time>2026-05-03T14:35:30Z</time></trkpt><trkpt lat="42.073090768152944" lon="13.251976440801426"><ele>740.0</ele><time>2026-05-03T14:35:31Z</time></trkpt><trkpt lat="42.07319792559876" lon="13.251862718197305"><ele>740.6666666666666</ele><time>2026-05-03T14:35:32Z</time></trkpt><trkpt lat="42.073309064153534" lon="13.251722862156862"><ele>741.3333333333334</ele><time>2026-05-03T14:35:33Z</time></trkpt><trkpt lat="42.07342002636716" lon="13.251584780668031"><ele>742.0</ele><time>2026-05-03T14:35:34Z</time></trkpt><trkpt lat="42.07353994759548" lon="13.25143484966132"><ele>742.0</ele><time>2026-05-03T14:35:35Z</time></trkpt><trkpt lat="42.073660277432765" lon="13.25128449421094"><ele>742.0</ele><time>2026-05-03T14:35:36Z</time></trkpt><trkpt lat="42.073753494098405" lon="13.25109287762005"><ele>742.0</ele><time>2026-05-03T14:35:37Z</time></trkpt><trkpt lat="42.073877898552595" lon="13.250943127927988"><ele>742.0</ele><time>2026-05-03T14:35:38Z</time></trkpt><trkpt lat="42.07400215168428" lon="13.2507859794224"><ele>742.0</ele><time>2026-05-03T14:35:39Z</time></trkpt><trkpt lat="42.0741306167926" lon="13.250626327521964"><ele>742.0</ele><time>2026-05-03T14:35:40Z</time></trkpt><trkpt lat="42.07428073780845" lon="13.25050599376705"><ele>742.3333333333334</ele><time>2026-05-03T14:35:41Z</time></trkpt><trkpt lat="42.07440067448523" lon="13.250332620596577"><ele>742.6666666666666</ele><time>2026-05-03T14:35:42Z</time></trkpt><trkpt lat="42.07453985990788" lon="13.250154276648141"><ele>743.0</ele><time>2026-05-03T14:35:43Z</time></trkpt><trkpt lat="42.074682980550165" lon="13.249995169816689"><ele>743.0</ele><time>2026-05-03T14:35:44Z</time></trkpt><trkpt lat="42.07482350300118" lon="13.24980954622092"><ele>743.0</ele><time>2026-05-03T14:35:45Z</time></trkpt><trkpt lat="42.07495122810087" lon="13.249601724323735"><ele>743.0</ele><time>2026-05-03T14:35:46Z</time></trkpt><trkpt lat="42.07509398079009" lon="13.24939832914843"><ele>743.6666666666666</ele><time>2026-05-03T14:35:47Z</time></trkpt><trkpt lat="42.07523651594994" lon="13.24920805898631"><ele>744.3333333333334</ele><time>2026-05-03T14:35:48Z</time></trkpt><trkpt lat="42.07537547421294" lon="13.249000235923377"><ele>745.0</ele><time>2026-05-03T14:35:49Z</time></trkpt><trkpt lat="42.075518302738104" lon="13.248788165935622"><ele>747.0</ele><time>2026-05-03T14:35:50Z</time></trkpt><trkpt lat="42.076401255883304" lon="13.247444354666392"><ele>747.6666666666666</ele><time>2026-05-03T14:35:56Z</time></trkpt><trkpt lat="42.07653999689575" lon="13.247214416941121"><ele>748.3333333333333</ele><time>2026-05-03T14:35:57Z</time></trkpt><trkpt lat="42.07667099067523" lon="13.24699704900907"><ele>749.0</ele><time>2026-05-03T14:35:58Z</time></trkpt><trkpt lat="42.076806007534024" lon="13.2467698498101"><ele>749.0</ele><time>2026-05-03T14:35:59Z</time></trkpt><trkpt lat="42.07693920225567" lon="13.246544361202963"><ele>749.0</ele><time>2026-05-03T14:36:00Z</time></trkpt><trkpt lat="42.07707400719725" lon="13.246315736866176"><ele>749.0</ele><time>2026-05-03T14:36:01Z</time></trkpt><trkpt lat="42.07720504251147" lon="13.246093328440042"><ele>749.6666666666666</ele><time>2026-05-03T14:36:02Z</time></trkpt><trkpt lat="42.077336969650084" lon="13.24586889450073"><ele>750.3333333333334</ele><time>2026-05-03T14:36:03Z</time></trkpt><trkpt lat="42.077470596399195" lon="13.245641569196547"><ele>751.0</ele><time>2026-05-03T14:36:04Z</time></trkpt><trkpt lat="42.077604690701826" lon="13.245413448482697"><ele>751.0</ele><time>2026-05-03T14:36:05Z</time></trkpt><trkpt lat="42.07773816112594" lon="13.245188379724187"><ele>751.0</ele><time>2026-05-03T14:36:06Z</time></trkpt><trkpt lat="42.07787515435852" lon="13.244957529187895"><ele>751.0</ele><time>2026-05-03T14:36:07Z</time></trkpt><trkpt lat="42.07801273577672" lon="13.244725235249973"><ele>749.0</ele><time>2026-05-03T14:36:08Z</time></trkpt><trkpt lat="42.078141630579864" lon="13.244472301605233"><ele>747.0</ele><time>2026-05-03T14:36:09Z</time></trkpt><trkpt lat="42.07828833949518" lon="13.244228499190745"><ele>749.5</ele><time>2026-05-03T14:36:10Z</time></trkpt><trkpt lat="42.07843479312331" lon="13.243979544360704"><ele>752.0</ele><time>2026-05-03T14:36:11Z</time></trkpt><trkpt lat="42.07858173702455" lon="13.243726369930272"><ele>752.0</ele><time>2026-05-03T14:36:12Z</time></trkpt><trkpt lat="42.07874500103634" lon="13.243488520255578"><ele>752.0</ele><time>2026-05-03T14:36:13Z</time></trkpt><trkpt lat="42.07889972717855" lon="13.243253967041959"><ele>751.0</ele><time>2026-05-03T14:36:14Z</time></trkpt><trkpt lat="42.079067703751825" lon="13.243031320945656"><ele>750.0</ele><time>2026-05-03T14:36:15Z</time></trkpt><trkpt lat="42.079239174773726" lon="13.242807700891321"><ele>753.0</ele><time>2026-05-03T14:36:16Z</time></trkpt><trkpt lat="42.07940186461186" lon="13.242566169873253"><ele>756.0</ele><time>2026-05-03T14:36:17Z</time></trkpt><trkpt lat="42.079575169378316" lon="13.242338727435321"><ele>754.5</ele><time>2026-05-03T14:36:18Z</time></trkpt><trkpt lat="42.07975547807535" lon="13.242124003088502"><ele>753.0</ele><time>2026-05-03T14:36:19Z</time></trkpt><trkpt lat="42.07992873645066" lon="13.241895461629102"><ele>755.0</ele><time>2026-05-03T14:36:20Z</time></trkpt><trkpt lat="42.08009932825193" lon="13.241671129519306"><ele>757.0</ele><time>2026-05-03T14:36:21Z</time></trkpt><trkpt lat="42.08025189769725" lon="13.241437293586154"><ele>757.0</ele><time>2026-05-03T14:36:22Z</time></trkpt><trkpt lat="42.080411878066535" lon="13.241227188582098"><ele>757.0</ele><time>2026-05-03T14:36:23Z</time></trkpt><trkpt lat="42.080549645763966" lon="13.240986568422525"><ele>757.0</ele><time>2026-05-03T14:36:24Z</time></trkpt><trkpt lat="42.080676384465534" lon="13.240727877328549"><ele>760.6666666666667</ele><time>2026-05-03T14:36:25Z</time></trkpt><trkpt lat="42.08080863187759" lon="13.24047949408357"><ele>764.3333333333334</ele><time>2026-05-03T14:36:26Z</time></trkpt><trkpt lat="42.080926927651" lon="13.24023886649481"><ele>768.0</ele><time>2026-05-03T14:36:27Z</time></trkpt><trkpt lat="42.0810418159759" lon="13.24000517003465"><ele>767.6666666666666</ele><time>2026-05-03T14:36:28Z</time></trkpt><trkpt lat="42.081145430368316" lon="13.239772447120744"><ele>767.3333333333333</ele><time>2026-05-03T14:36:29Z</time></trkpt><trkpt lat="42.08124863548492" lon="13.239550181811863"><ele>767.0</ele><time>2026-05-03T14:36:30Z</time></trkpt><trkpt lat="42.08132516841144" lon="13.239293988608017"><ele>767.0</ele><time>2026-05-03T14:36:31Z</time></trkpt><trkpt lat="42.08137245360858" lon="13.23902601823686"><ele>767.0</ele><time>2026-05-03T14:36:32Z</time></trkpt><trkpt lat="42.08139325867303" lon="13.238756664549276"><ele>767.0</ele><time>2026-05-03T14:36:33Z</time></trkpt><trkpt lat="42.08138423887426" lon="13.238479775504452"><ele>768.3333333333333</ele><time>2026-05-03T14:36:34Z</time></trkpt><trkpt lat="42.08133505363919" lon="13.238199418328715"><ele>769.6666666666666</ele><time>2026-05-03T14:36:35Z</time></trkpt><trkpt lat="42.08127148342767" lon="13.23792196062685"><ele>771.0</ele><time>2026-05-03T14:36:36Z</time></trkpt><trkpt lat="42.08120616492717" lon="13.237658527008115"><ele>774.0</ele><time>2026-05-03T14:36:37Z</time></trkpt><trkpt lat="42.08115029614878" lon="13.237400139795572"><ele>777.0</ele><time>2026-05-03T14:36:38Z</time></trkpt><trkpt lat="42.081115729955606" lon="13.237144169208031"><ele>780.0</ele><time>2026-05-03T14:36:39Z</time></trkpt><trkpt lat="42.08110872483468" lon="13.236889449888814"><ele>781.0</ele><time>2026-05-03T14:36:40Z</time></trkpt><trkpt lat="42.08113180639163" lon="13.23664163770041"><ele>782.0</ele><time>2026-05-03T14:36:41Z</time></trkpt><trkpt lat="42.08118285621939" lon="13.23640223256501"><ele>783.0</ele><time>2026-05-03T14:36:42Z</time></trkpt><trkpt lat="42.08126954953529" lon="13.236166477834395"><ele>783.6666666666667</ele><time>2026-05-03T14:36:43Z</time></trkpt><trkpt lat="42.08138540389222" lon="13.23594503563409"><ele>784.3333333333334</ele><time>2026-05-03T14:36:44Z</time></trkpt><trkpt lat="42.081528949882674" lon="13.235739087995208"><ele>785.0</ele><time>2026-05-03T14:36:45Z</time></trkpt><trkpt lat="42.08167966049284" lon="13.235531725741811"><ele>787.3333333333334</ele><time>2026-05-03T14:36:46Z</time></trkpt><trkpt lat="42.081828069589065" lon="13.235314105465108"><ele>789.6666666666667</ele><time>2026-05-03T14:36:47Z</time></trkpt><trkpt lat="42.08198087781054" lon="13.235090060919097"><ele>792.0</ele><time>2026-05-03T14:36:48Z</time></trkpt><trkpt lat="42.082138039516906" lon="13.23485722372059"><ele>793.0</ele><time>2026-05-03T14:36:49Z</time></trkpt><trkpt lat="42.082295616424865" lon="13.234621535913007"><ele>794.0</ele><time>2026-05-03T14:36:50Z</time></trkpt><trkpt lat="42.082449516365415" lon="13.234399229535946"><ele>794.0</ele><time>2026-05-03T14:36:51Z</time></trkpt><trkpt lat="42.08259519282237" lon="13.23418484837587"><ele>794.0</ele><time>2026-05-03T14:36:52Z</time></trkpt><trkpt lat="42.082735871489504" lon="13.233976451844839"><ele>794.0</ele><time>2026-05-03T14:36:53Z</time></trkpt><trkpt lat="42.0828749082368" lon="13.233766987991746"><ele>797.6666666666667</ele><time>2026-05-03T14:36:54Z</time></trkpt><trkpt lat="42.08299661049889" lon="13.233550465953687"><ele>801.3333333333333</ele><time>2026-05-03T14:36:55Z</time></trkpt><trkpt lat="42.08309632438502" lon="13.23331791105004"><ele>805.0</ele><time>2026-05-03T14:36:56Z</time></trkpt><trkpt lat="42.08316326749878" lon="13.233052792089115"><ele>803.0</ele><time>2026-05-03T14:36:57Z</time></trkpt><trkpt lat="42.08321206166473" lon="13.232775230658229"><ele>801.0</ele><time>2026-05-03T14:36:58Z</time></trkpt><trkpt lat="42.08324656108303" lon="13.232492391756725"><ele>799.0</ele><time>2026-05-03T14:36:59Z</time></trkpt><trkpt lat="42.08327589603432" lon="13.232194414397581"><ele>799.0</ele><time>2026-05-03T14:37:00Z</time></trkpt><trkpt lat="42.08330637065442" lon="13.231893431867135"><ele>799.0</ele><time>2026-05-03T14:37:01Z</time></trkpt><trkpt lat="42.08335067537237" lon="13.231588077593557"><ele>799.0</ele><time>2026-05-03T14:37:02Z</time></trkpt><trkpt lat="42.08338895399367" lon="13.231296051075038"><ele>799.0</ele><time>2026-05-03T14:37:03Z</time></trkpt><trkpt lat="42.08343103553557" lon="13.23100776696368"><ele>799.0</ele><time>2026-05-03T14:37:04Z</time></trkpt><trkpt lat="42.083472731763806" lon="13.230723781388985"><ele>799.0</ele><time>2026-05-03T14:37:05Z</time></trkpt><trkpt lat="42.083528941268916" lon="13.23044069416268"><ele>799.0</ele><time>2026-05-03T14:37:06Z</time></trkpt><trkpt lat="42.08360488350238" lon="13.230159424695946"><ele>799.0</ele><time>2026-05-03T14:37:07Z</time></trkpt><trkpt lat="42.083700599604455" lon="13.229872829191113"><ele>804.0</ele><time>2026-05-03T14:37:08Z</time></trkpt><trkpt lat="42.08380406659984" lon="13.229573845505035"><ele>809.0</ele><time>2026-05-03T14:37:09Z</time></trkpt><trkpt lat="42.08391024928289" lon="13.229262904892655"><ele>812.5</ele><time>2026-05-03T14:37:10Z</time></trkpt><trkpt lat="42.084012693925445" lon="13.228943587434419"><ele>816.0</ele><time>2026-05-03T14:37:11Z</time></trkpt><trkpt lat="42.08411206324335" lon="13.228637266726862"><ele>808.5</ele><time>2026-05-03T14:37:12Z</time></trkpt><trkpt lat="42.08420580404726" lon="13.228342093535087"><ele>801.0</ele><time>2026-05-03T14:37:13Z</time></trkpt><trkpt lat="42.08429638767864" lon="13.228059506814935"><ele>801.0</ele><time>2026-05-03T14:37:14Z</time></trkpt><trkpt lat="42.08438732617397" lon="13.227774463916075"><ele>801.0</ele><time>2026-05-03T14:37:15Z</time></trkpt><trkpt lat="42.084477925426796" lon="13.227508636023693"><ele>801.0</ele><time>2026-05-03T14:37:16Z</time></trkpt><trkpt lat="42.08455904618573" lon="13.227252031058491"><ele>803.0</ele><time>2026-05-03T14:37:17Z</time></trkpt><trkpt lat="42.08464244763515" lon="13.227009668251775"><ele>805.0</ele><time>2026-05-03T14:37:18Z</time></trkpt><trkpt lat="42.08473119701303" lon="13.226780959393306"><ele>807.0</ele><time>2026-05-03T14:37:19Z</time></trkpt><trkpt lat="42.08483182684934" lon="13.226570401672584"><ele>807.6666666666667</ele><time>2026-05-03T14:37:20Z</time></trkpt><trkpt lat="42.08496057225416" lon="13.226396714247072"><ele>808.3333333333334</ele><time>2026-05-03T14:37:21Z</time></trkpt><trkpt lat="42.08512422559177" lon="13.226254482206025"><ele>809.0</ele><time>2026-05-03T14:37:22Z</time></trkpt><trkpt lat="42.085308400221265" lon="13.226116292821455"><ele>809.0</ele><time>2026-05-03T14:37:23Z</time></trkpt><trkpt lat="42.085492248615765" lon="13.225971868241372"><ele>809.0</ele><time>2026-05-03T14:37:24Z</time></trkpt><trkpt lat="42.08568639917389" lon="13.225816447473406"><ele>809.0</ele><time>2026-05-03T14:37:25Z</time></trkpt><trkpt lat="42.08587318155229" lon="13.225614781183664"><ele>815.0</ele><time>2026-05-03T14:37:26Z</time></trkpt><trkpt lat="42.08605516810983" lon="13.225395377587123"><ele>821.0</ele><time>2026-05-03T14:37:27Z</time></trkpt><trkpt lat="42.08623723641284" lon="13.225163984874003"><ele>821.0</ele><time>2026-05-03T14:37:28Z</time></trkpt><trkpt lat="42.086422008555395" lon="13.224940871774892"><ele>821.0</ele><time>2026-05-03T14:37:29Z</time></trkpt><trkpt lat="42.086607550992866" lon="13.22472510744783"><ele>818.0</ele><time>2026-05-03T14:37:30Z</time></trkpt><trkpt lat="42.08679050897286" lon="13.224516150283204"><ele>815.0</ele><time>2026-05-03T14:37:31Z</time></trkpt><trkpt lat="42.08696712860063" lon="13.224310613311394"><ele>815.0</ele><time>2026-05-03T14:37:32Z</time></trkpt><trkpt lat="42.08713407576184" lon="13.224111423650976"><ele>815.0</ele><time>2026-05-03T14:37:33Z</time></trkpt><trkpt lat="42.08731156740685" lon="13.223903055088641"><ele>811.0</ele><time>2026-05-03T14:37:34Z</time></trkpt><trkpt lat="42.087488560001646" lon="13.223686929656257"><ele>807.0</ele><time>2026-05-03T14:37:35Z</time></trkpt><trkpt lat="42.087660563581125" lon="13.223471390159062"><ele>807.0</ele><time>2026-05-03T14:37:36Z</time></trkpt><trkpt lat="42.08784031772904" lon="13.223257989334723"><ele>807.0</ele><time>2026-05-03T14:37:37Z</time></trkpt><trkpt lat="42.08800973378454" lon="13.223041598499856"><ele>807.0</ele><time>2026-05-03T14:37:38Z</time></trkpt><trkpt lat="42.08816641909875" lon="13.22281486818989"><ele>807.0</ele><time>2026-05-03T14:37:39Z</time></trkpt><trkpt lat="42.088318239842266" lon="13.22258634056531"><ele>807.0</ele><time>2026-05-03T14:37:40Z</time></trkpt><trkpt lat="42.088457053262935" lon="13.222368594959606"><ele>807.0</ele><time>2026-05-03T14:37:41Z</time></trkpt><trkpt lat="42.088602388247665" lon="13.222130548719363"><ele>807.0</ele><time>2026-05-03T14:37:42Z</time></trkpt><trkpt lat="42.08875169489427" lon="13.221899522982444"><ele>813.5</ele><time>2026-05-03T14:37:43Z</time></trkpt><trkpt lat="42.08890671277769" lon="13.221670411954474"><ele>820.0</ele><time>2026-05-03T14:37:44Z</time></trkpt><trkpt lat="42.08903407088254" lon="13.221412879820205"><ele>816.6666666666666</ele><time>2026-05-03T14:37:45Z</time></trkpt><trkpt lat="42.089161558027946" lon="13.221157593586861"><ele>813.3333333333333</ele><time>2026-05-03T14:37:46Z</time></trkpt><trkpt lat="42.089250747320555" lon="13.220900000503285"><ele>810.0</ele><time>2026-05-03T14:37:47Z</time></trkpt><trkpt lat="42.08934305063664" lon="13.220644968759117"><ele>810.0</ele><time>2026-05-03T14:37:48Z</time></trkpt><trkpt lat="42.0894446651447" lon="13.220381616720905"><ele>810.0</ele><time>2026-05-03T14:37:49Z</time></trkpt><trkpt lat="42.08954712584793" lon="13.220132473650203"><ele>810.0</ele><time>2026-05-03T14:37:50Z</time></trkpt><trkpt lat="42.089649242704276" lon="13.21988546996816"><ele>813.0</ele><time>2026-05-03T14:37:51Z</time></trkpt><trkpt lat="42.08974135058848" lon="13.219636371313012"><ele>816.0</ele><time>2026-05-03T14:37:52Z</time></trkpt><trkpt lat="42.08981882672094" lon="13.21938302116342"><ele>819.0</ele><time>2026-05-03T14:37:53Z</time></trkpt><trkpt lat="42.089870951985574" lon="13.219110888403053"><ele>820.0</ele><time>2026-05-03T14:37:54Z</time></trkpt><trkpt lat="42.089907104688486" lon="13.218821200514412"><ele>821.0</ele><time>2026-05-03T14:37:55Z</time></trkpt><trkpt lat="42.089936465565664" lon="13.218528255813714"><ele>822.0</ele><time>2026-05-03T14:37:56Z</time></trkpt><trkpt lat="42.08996699966833" lon="13.218241626886934"><ele>818.6666666666667</ele><time>2026-05-03T14:37:57Z</time></trkpt><trkpt lat="42.08999905952475" lon="13.217968775114644"><ele>815.3333333333334</ele><time>2026-05-03T14:37:58Z</time></trkpt><trkpt lat="42.090023356571955" lon="13.217697634070397"><ele>812.0</ele><time>2026-05-03T14:37:59Z</time></trkpt><trkpt lat="42.09005205198111" lon="13.217437800791924"><ele>813.3333333333334</ele><time>2026-05-03T14:38:00Z</time></trkpt><trkpt lat="42.0900769727697" lon="13.217186222805212"><ele>814.6666666666667</ele><time>2026-05-03T14:38:01Z</time></trkpt><trkpt lat="42.09009495156094" lon="13.21694994128107"><ele>816.0</ele><time>2026-05-03T14:38:02Z</time></trkpt><trkpt lat="42.09010353554586" lon="13.21670623651682"><ele>815.6666666666667</ele><time>2026-05-03T14:38:03Z</time></trkpt><trkpt lat="42.09009019642864" lon="13.216477260744112"><ele>815.3333333333334</ele><time>2026-05-03T14:38:04Z</time></trkpt><trkpt lat="42.09006981802232" lon="13.216242571298697"><ele>815.0</ele><time>2026-05-03T14:38:05Z</time></trkpt><trkpt lat="42.090041683448774" lon="13.216000852686065"><ele>815.0</ele><time>2026-05-03T14:38:06Z</time></trkpt><trkpt lat="42.09002614063264" lon="13.215742328863561"><ele>815.0</ele><time>2026-05-03T14:38:07Z</time></trkpt><trkpt lat="42.08998799990268" lon="13.215502560230648"><ele>815.0</ele><time>2026-05-03T14:38:08Z</time></trkpt><trkpt lat="42.089956626884174" lon="13.215262350279158"><ele>815.3333333333334</ele><time>2026-05-03T14:38:09Z</time></trkpt><trkpt lat="42.08992617778528" lon="13.215033627918611"><ele>815.6666666666667</ele><time>2026-05-03T14:38:10Z</time></trkpt><trkpt lat="42.08988018399897" lon="13.214812902519958"><ele>816.0</ele><time>2026-05-03T14:38:11Z</time></trkpt><trkpt lat="42.08980874614153" lon="13.21459284434696"><ele>820.0</ele><time>2026-05-03T14:38:12Z</time></trkpt><trkpt lat="42.089718047268065" lon="13.214387407682834"><ele>824.0</ele><time>2026-05-03T14:38:13Z</time></trkpt><trkpt lat="42.08960439366143" lon="13.214199259048668"><ele>828.0</ele><time>2026-05-03T14:38:14Z</time></trkpt><trkpt lat="42.08946942596871" lon="13.214031417062229"><ele>829.6666666666667</ele><time>2026-05-03T14:38:15Z</time></trkpt><trkpt lat="42.08931735044699" lon="13.213882621875792"><ele>831.3333333333334</ele><time>2026-05-03T14:38:16Z</time></trkpt><trkpt lat="42.08916357063436" lon="13.213773978949751"><ele>833.0</ele><time>2026-05-03T14:38:17Z</time></trkpt><trkpt lat="42.08901137724336" lon="13.213683225775213"><ele>833.0</ele><time>2026-05-03T14:38:18Z</time></trkpt><trkpt lat="42.088870169689095" lon="13.213581566460356"><ele>833.0</ele><time>2026-05-03T14:38:19Z</time></trkpt><trkpt lat="42.088758704725926" lon="13.21343726629508"><ele>833.0</ele><time>2026-05-03T14:38:20Z</time></trkpt><trkpt lat="42.0886612719485" lon="13.21328501022437"><ele>833.0</ele><time>2026-05-03T14:38:21Z</time></trkpt><trkpt lat="42.08857719524841" lon="13.21309862967249"><ele>833.0</ele><time>2026-05-03T14:38:22Z</time></trkpt><trkpt lat="42.08849215735644" lon="13.21289558557527"><ele>833.0</ele><time>2026-05-03T14:38:23Z</time></trkpt><trkpt lat="42.08846398406894" lon="13.212659031988053"><ele>833.0</ele><time>2026-05-03T14:38:24Z</time></trkpt><trkpt lat="42.08844241677582" lon="13.21241246212679"><ele>833.0</ele><time>2026-05-03T14:38:25Z</time></trkpt><trkpt lat="42.088424260407365" lon="13.212176507369474"><ele>833.0</ele><time>2026-05-03T14:38:26Z</time></trkpt><trkpt lat="42.08839940495335" lon="13.211947880311856"><ele>833.0</ele><time>2026-05-03T14:38:27Z</time></trkpt><trkpt lat="42.0883818974953" lon="13.211732389798684"><ele>833.0</ele><time>2026-05-03T14:38:28Z</time></trkpt><trkpt lat="42.08834892180085" lon="13.211531291039613"><ele>833.0</ele><time>2026-05-03T14:38:29Z</time></trkpt><trkpt lat="42.088283938934204" lon="13.211335442042426"><ele>834.6666666666667</ele><time>2026-05-03T14:38:30Z</time></trkpt><trkpt lat="42.088178685938836" lon="13.211142763591203"><ele>836.3333333333333</ele><time>2026-05-03T14:38:31Z</time></trkpt><trkpt lat="42.08805746019532" lon="13.210983123491426"><ele>838.0</ele><time>2026-05-03T14:38:32Z</time></trkpt><trkpt lat="42.08791679140542" lon="13.210850907849608"><ele>838.0</ele><time>2026-05-03T14:38:33Z</time></trkpt><trkpt lat="42.08776793255462" lon="13.21074339892833"><ele>838.0</ele><time>2026-05-03T14:38:34Z</time></trkpt><trkpt lat="42.08762628761164" lon="13.210651027965344"><ele>838.0</ele><time>2026-05-03T14:38:35Z</time></trkpt><trkpt lat="42.08749468900675" lon="13.210555778432951"><ele>838.25</ele><time>2026-05-03T14:38:36Z</time></trkpt><trkpt lat="42.08737189573319" lon="13.210455000374699"><ele>838.5</ele><time>2026-05-03T14:38:37Z</time></trkpt><trkpt lat="42.08725418127559" lon="13.210336147597245"><ele>838.75</ele><time>2026-05-03T14:38:38Z</time></trkpt><trkpt lat="42.08715738917984" lon="13.210176064495544"><ele>839.0</ele><time>2026-05-03T14:38:39Z</time></trkpt><trkpt lat="42.087073398244584" lon="13.210004451713905"><ele>842.0</ele><time>2026-05-03T14:38:40Z</time></trkpt><trkpt lat="42.08700893658509" lon="13.209810740267613"><ele>845.0</ele><time>2026-05-03T14:38:41Z</time></trkpt><trkpt lat="42.08697054089661" lon="13.209604194221253"><ele>848.0</ele><time>2026-05-03T14:38:42Z</time></trkpt><trkpt lat="42.08696325322121" lon="13.209375842581048"><ele>848.0</ele><time>2026-05-03T14:38:43Z</time></trkpt><trkpt lat="42.086978601568724" lon="13.209129588872386"><ele>848.0</ele><time>2026-05-03T14:38:44Z</time></trkpt><trkpt lat="42.0869957030636" lon="13.208890926508312"><ele>848.0</ele><time>2026-05-03T14:38:45Z</time></trkpt><trkpt lat="42.08699903569236" lon="13.208673920175393"><ele>849.75</ele><time>2026-05-03T14:38:46Z</time></trkpt><trkpt lat="42.08701554204021" lon="13.208469833043178"><ele>851.5</ele><time>2026-05-03T14:38:47Z</time></trkpt><trkpt lat="42.087039017778416" lon="13.208273071578414"><ele>853.25</ele><time>2026-05-03T14:38:48Z</time></trkpt><trkpt lat="42.08710219570417" lon="13.208094584381977"><ele>855.0</ele><time>2026-05-03T14:38:49Z</time></trkpt><trkpt lat="42.08717197531516" lon="13.207923741494263"><ele>855.5</ele><time>2026-05-03T14:38:50Z</time></trkpt><trkpt lat="42.08724888179817" lon="13.207758434348532"><ele>856.0</ele><time>2026-05-03T14:38:51Z</time></trkpt><trkpt lat="42.0873699788909" lon="13.207640974502096"><ele>856.5</ele><time>2026-05-03T14:38:52Z</time></trkpt><trkpt lat="42.08749262226658" lon="13.2075261426967"><ele>857.0</ele><time>2026-05-03T14:38:53Z</time></trkpt><trkpt lat="42.087636150657175" lon="13.207410348448333"><ele>857.0</ele><time>2026-05-03T14:38:54Z</time></trkpt><trkpt lat="42.0877777518672" lon="13.207293539262144"><ele>857.0</ele><time>2026-05-03T14:38:55Z</time></trkpt><trkpt lat="42.08793057962912" lon="13.207167469062254"><ele>857.0</ele><time>2026-05-03T14:38:56Z</time></trkpt><trkpt lat="42.088112250679444" lon="13.207017605421138"><ele>856.5</ele><time>2026-05-03T14:38:57Z</time></trkpt><trkpt lat="42.08831279577156" lon="13.206852172450509"><ele>856.0</ele><time>2026-05-03T14:38:58Z</time></trkpt><trkpt lat="42.08853502630899" lon="13.20666906173561"><ele>863.5</ele><time>2026-05-03T14:38:59.001Z</time></trkpt><trkpt lat="42.088776259030396" lon="13.20647032325559"><ele>871.0</ele><time>2026-05-03T14:39:00.001Z</time></trkpt><trkpt lat="42.089006367147604" lon="13.20628074967471"><ele>867.0</ele><time>2026-05-03T14:39:01.001Z</time></trkpt><trkpt lat="42.089222376752524" lon="13.206102791058672"><ele>863.0</ele><time>2026-05-03T14:39:02.001Z</time></trkpt><trkpt lat="42.08943834608435" lon="13.205925754794718"><ele>863.0</ele><time>2026-05-03T14:39:03.001Z</time></trkpt><trkpt lat="42.08966129916973" lon="13.205743125676184"><ele>863.0</ele><time>2026-05-03T14:39:04.001Z</time></trkpt><trkpt lat="42.08986596917447" lon="13.205570971022249"><ele>865.0</ele><time>2026-05-03T14:39:05.001Z</time></trkpt><trkpt lat="42.090048377109916" lon="13.20541698289552"><ele>867.0</ele><time>2026-05-03T14:39:06.001Z</time></trkpt><trkpt lat="42.09021850033111" lon="13.205273327137904"><ele>869.0</ele><time>2026-05-03T14:39:07.001Z</time></trkpt><trkpt lat="42.090375424871816" lon="13.205142439961653"><ele>869.0</ele><time>2026-05-03T14:39:08.001Z</time></trkpt><trkpt lat="42.090548819914666" lon="13.204989358578773"><ele>869.0</ele><time>2026-05-03T14:39:09.001Z</time></trkpt><trkpt lat="42.09072885198849" lon="13.204794187272956"><ele>869.0</ele><time>2026-05-03T14:39:10.001Z</time></trkpt><trkpt lat="42.09091190098923" lon="13.204580245166607"><ele>872.0</ele><time>2026-05-03T14:39:11.001Z</time></trkpt><trkpt lat="42.0910988215937" lon="13.20435860269802"><ele>875.0</ele><time>2026-05-03T14:39:12.001Z</time></trkpt><trkpt lat="42.09128320148185" lon="13.204139267151167"><ele>874.3333333333334</ele><time>2026-05-03T14:39:13.001Z</time></trkpt><trkpt lat="42.091454281686" lon="13.203934015242035"><ele>873.6666666666667</ele><time>2026-05-03T14:39:14.001Z</time></trkpt><trkpt lat="42.09161077737321" lon="13.20374553852596"><ele>873.0</ele><time>2026-05-03T14:39:15.001Z</time></trkpt><trkpt lat="42.09176015167043" lon="13.2035645884956"><ele>873.0</ele><time>2026-05-03T14:39:16.001Z</time></trkpt><trkpt lat="42.09190676384878" lon="13.203387335583583"><ele>873.0</ele><time>2026-05-03T14:39:17.001Z</time></trkpt><trkpt lat="42.09204881813311" lon="13.203219502924084"><ele>873.0</ele><time>2026-05-03T14:39:18.001Z</time></trkpt><trkpt lat="42.0921952055782" lon="13.203049880947527"><ele>876.0</ele><time>2026-05-03T14:39:19.001Z</time></trkpt><trkpt lat="42.092343101727735" lon="13.20289245264992"><ele>879.0</ele><time>2026-05-03T14:39:20.001Z</time></trkpt><trkpt lat="42.09249522850104" lon="13.202761667452918"><ele>882.0</ele><time>2026-05-03T14:39:21.001Z</time></trkpt><trkpt lat="42.09265819698082" lon="13.202657267422207"><ele>882.0</ele><time>2026-05-03T14:39:22.001Z</time></trkpt><trkpt lat="42.09281693895961" lon="13.202581384473804"><ele>882.0</ele><time>2026-05-03T14:39:23.001Z</time></trkpt><trkpt lat="42.09297933094973" lon="13.202526548775841"><ele>882.0</ele><time>2026-05-03T14:39:24.001Z</time></trkpt><trkpt lat="42.093136331503764" lon="13.202506411489924"><ele>882.0</ele><time>2026-05-03T14:39:25.001Z</time></trkpt><trkpt lat="42.093292473676065" lon="13.202500232431197"><ele>882.0</ele><time>2026-05-03T14:39:26.001Z</time></trkpt><trkpt lat="42.093447034451614" lon="13.202508493208779"><ele>882.0</ele><time>2026-05-03T14:39:27.001Z</time></trkpt><trkpt lat="42.09360563598259" lon="13.202552807112877"><ele>882.0</ele><time>2026-05-03T14:39:28.001Z</time></trkpt><trkpt lat="42.093789247751424" lon="13.202629149281385"><ele>882.0</ele><time>2026-05-03T14:39:29.001Z</time></trkpt><trkpt lat="42.09399010205382" lon="13.202723936283055"><ele>882.0</ele><time>2026-05-03T14:39:30.001Z</time></trkpt><trkpt lat="42.09420171904002" lon="13.202826657071533"><ele>883.6666666666667</ele><time>2026-05-03T14:39:31.001Z</time></trkpt><trkpt lat="42.09439877602731" lon="13.202922547248079"><ele>885.3333333333334</ele><time>2026-05-03T14:39:32.001Z</time></trkpt><trkpt lat="42.09458361975235" lon="13.202990399735302"><ele>887.0</ele><time>2026-05-03T14:39:33.001Z</time></trkpt><trkpt lat="42.094764583079176" lon="13.203082079288738"><ele>887.0</ele><time>2026-05-03T14:39:34.001Z</time></trkpt><trkpt lat="42.09494676088423" lon="13.203173059239852"><ele>887.0</ele><time>2026-05-03T14:39:35.001Z</time></trkpt><trkpt lat="42.095130057870854" lon="13.203267543270778"><ele>887.0</ele><time>2026-05-03T14:39:36.001Z</time></trkpt><trkpt lat="42.095300507217914" lon="13.203367484449078"><ele>887.0</ele><time>2026-05-03T14:39:37.001Z</time></trkpt><trkpt lat="42.095472734956545" lon="13.203432781725581"><ele>887.0</ele><time>2026-05-03T14:39:38.001Z</time></trkpt><trkpt lat="42.09564243345938" lon="13.203456280931922"><ele>887.0</ele><time>2026-05-03T14:39:39.001Z</time></trkpt><trkpt lat="42.0958332099386" lon="13.203421577216362"><ele>889.6666666666667</ele><time>2026-05-03T14:39:40Z</time></trkpt><trkpt lat="42.09601167471618" lon="13.20335594905674"><ele>892.3333333333333</ele><time>2026-05-03T14:39:41Z</time></trkpt><trkpt lat="42.09620244069619" lon="13.20324847471493"><ele>895.0</ele><time>2026-05-03T14:39:42Z</time></trkpt><trkpt lat="42.096381606813196" lon="13.203083476458664"><ele>900.5</ele><time>2026-05-03T14:39:43Z</time></trkpt><trkpt lat="42.09658237572522" lon="13.20291719480773"><ele>906.0</ele><time>2026-05-03T14:39:44Z</time></trkpt><trkpt lat="42.09678498911987" lon="13.202730063972991"><ele>906.0</ele><time>2026-05-03T14:39:45Z</time></trkpt><trkpt lat="42.09700696918551" lon="13.202533596619318"><ele>906.0</ele><time>2026-05-03T14:39:46Z</time></trkpt><trkpt lat="42.09722964069357" lon="13.202360620885997"><ele>912.5</ele><time>2026-05-03T14:39:47Z</time></trkpt><trkpt lat="42.09745665502238" lon="13.202193327282925"><ele>919.0</ele><time>2026-05-03T14:39:48Z</time></trkpt><trkpt lat="42.09767947369524" lon="13.202030501754386"><ele>919.0</ele><time>2026-05-03T14:39:49Z</time></trkpt><trkpt lat="42.09789478357263" lon="13.201873163652776"><ele>919.0</ele><time>2026-05-03T14:39:50Z</time></trkpt><trkpt lat="42.09809865813427" lon="13.201724181935473"><ele>923.0</ele><time>2026-05-03T14:39:51Z</time></trkpt><trkpt lat="42.098299034509374" lon="13.201578078705145"><ele>927.0</ele><time>2026-05-03T14:39:52Z</time></trkpt><trkpt lat="42.098488438566996" lon="13.201443401402413"><ele>931.0</ele><time>2026-05-03T14:39:53Z</time></trkpt><trkpt lat="42.098675383219174" lon="13.201288167758024"><ele>931.0</ele><time>2026-05-03T14:39:54Z</time></trkpt><trkpt lat="42.098850675681675" lon="13.201086471202432"><ele>931.0</ele><time>2026-05-03T14:39:55Z</time></trkpt><trkpt lat="42.09901146632504" lon="13.20086276185709"><ele>930.0</ele><time>2026-05-03T14:39:56Z</time></trkpt><trkpt lat="42.09917209987761" lon="13.20063086267698"><ele>929.0</ele><time>2026-05-03T14:39:57Z</time></trkpt><trkpt lat="42.09932337847306" lon="13.2004226010862"><ele>929.0</ele><time>2026-05-03T14:39:58Z</time></trkpt><trkpt lat="42.099479514845555" lon="13.200230465040592"><ele>929.0</ele><time>2026-05-03T14:39:59Z</time></trkpt><trkpt lat="42.09965877023526" lon="13.200062567740428"><ele>929.0</ele><time>2026-05-03T14:40:00Z</time></trkpt><trkpt lat="42.099859356002824" lon="13.19991744748936"><ele>932.0</ele><time>2026-05-03T14:40:01Z</time></trkpt><trkpt lat="42.10007803554851" lon="13.199780601071303"><ele>935.0</ele><time>2026-05-03T14:40:02Z</time></trkpt><trkpt lat="42.100298163780884" lon="13.199656799592614"><ele>935.0</ele><time>2026-05-03T14:40:03Z</time></trkpt><trkpt lat="42.100503045878696" lon="13.199541683478678"><ele>935.0</ele><time>2026-05-03T14:40:04Z</time></trkpt><trkpt lat="42.100695361006224" lon="13.199417391252988"><ele>935.0</ele><time>2026-05-03T14:40:05Z</time></trkpt><trkpt lat="42.10088310859278" lon="13.199276773844245"><ele>930.0</ele><time>2026-05-03T14:40:06Z</time></trkpt><trkpt lat="42.10106238588519" lon="13.199103008755346"><ele>925.0</ele><time>2026-05-03T14:40:07Z</time></trkpt><trkpt lat="42.10123181808979" lon="13.198881941766627"><ele>935.0</ele><time>2026-05-03T14:40:08Z</time></trkpt><trkpt lat="42.10140007745843" lon="13.198631496739447"><ele>945.0</ele><time>2026-05-03T14:40:09Z</time></trkpt><trkpt lat="42.10158027007071" lon="13.198369735888487"><ele>944.0</ele><time>2026-05-03T14:40:10Z</time></trkpt><trkpt lat="42.10176563350709" lon="13.198099432314185"><ele>943.0</ele><time>2026-05-03T14:40:11Z</time></trkpt><trkpt lat="42.101953685246336" lon="13.197825207352322"><ele>943.0</ele><time>2026-05-03T14:40:12Z</time></trkpt><trkpt lat="42.10213499718779" lon="13.197560689582751"><ele>943.0</ele><time>2026-05-03T14:40:13Z</time></trkpt><trkpt lat="42.10229971146067" lon="13.197319555483519"><ele>943.6666666666666</ele><time>2026-05-03T14:40:14Z</time></trkpt><trkpt lat="42.10245529573951" lon="13.197093094666382"><ele>944.3333333333333</ele><time>2026-05-03T14:40:15Z</time></trkpt><trkpt lat="42.102603237183146" lon="13.196881126854615"><ele>945.0</ele><time>2026-05-03T14:40:16Z</time></trkpt><trkpt lat="42.10274682900483" lon="13.19667538550001"><ele>955.0</ele><time>2026-05-03T14:40:17Z</time></trkpt><trkpt lat="42.10286819918085" lon="13.196470877517775"><ele>965.0</ele><time>2026-05-03T14:40:18Z</time></trkpt><trkpt lat="42.103031499087386" lon="13.196334888842593"><ele>975.0</ele><time>2026-05-03T14:40:19Z</time></trkpt><trkpt lat="42.103220475824855" lon="13.196232745014028"><ele>965.0</ele><time>2026-05-03T14:40:20Z</time></trkpt><trkpt lat="42.10338267542551" lon="13.196147383262616"><ele>955.0</ele><time>2026-05-03T14:40:21Z</time></trkpt><trkpt lat="42.10360060253462" lon="13.19618168521364"><ele>945.0</ele><time>2026-05-03T14:40:22Z</time></trkpt><trkpt lat="42.10379104831244" lon="13.196237669287731"><ele>945.0</ele><time>2026-05-03T14:40:23Z</time></trkpt><trkpt lat="42.10399012181224" lon="13.196341198702267"><ele>945.0</ele><time>2026-05-03T14:40:24Z</time></trkpt><trkpt lat="42.10419130403802" lon="13.19646267615757"><ele>945.0</ele><time>2026-05-03T14:40:25Z</time></trkpt><trkpt lat="42.104404583072665" lon="13.196555761930458"><ele>945.6666666666667</ele><time>2026-05-03T14:40:26Z</time></trkpt><trkpt lat="42.10459646885234" lon="13.196645243393792"><ele>946.3333333333334</ele><time>2026-05-03T14:40:27Z</time></trkpt><trkpt lat="42.104794202779104" lon="13.196731595283143"><ele>947.0</ele><time>2026-05-03T14:40:28Z</time></trkpt><trkpt lat="42.10498846241158" lon="13.19682394176674"><ele>947.0</ele><time>2026-05-03T14:40:29Z</time></trkpt><trkpt lat="42.10517017597925" lon="13.196913153163429"><ele>947.0</ele><time>2026-05-03T14:40:30Z</time></trkpt><trkpt lat="42.10534054167449" lon="13.196992822499551"><ele>947.0</ele><time>2026-05-03T14:40:31Z</time></trkpt><trkpt lat="42.1055016521242" lon="13.197068144211046"><ele>947.0</ele><time>2026-05-03T14:40:32Z</time></trkpt><trkpt lat="42.10565889351177" lon="13.197144817284716"><ele>947.0</ele><time>2026-05-03T14:40:33Z</time></trkpt><trkpt lat="42.10582135471142" lon="13.197214487347864"><ele>947.0</ele><time>2026-05-03T14:40:34Z</time></trkpt><trkpt lat="42.105975755099564" lon="13.197284315801657"><ele>947.3333333333334</ele><time>2026-05-03T14:40:35Z</time></trkpt><trkpt lat="42.10613553899481" lon="13.197327504991511"><ele>947.6666666666667</ele><time>2026-05-03T14:40:36Z</time></trkpt><trkpt lat="42.106302217219834" lon="13.19733713165749"><ele>948.0</ele><time>2026-05-03T14:40:37Z</time></trkpt><trkpt lat="42.10648165638108" lon="13.197308141466078"><ele>950.0</ele><time>2026-05-03T14:40:38Z</time></trkpt><trkpt lat="42.10667654077456" lon="13.19726271756352"><ele>952.0</ele><time>2026-05-03T14:40:39Z</time></trkpt><trkpt lat="42.10686878078757" lon="13.197198833573454"><ele>954.0</ele><time>2026-05-03T14:40:40Z</time></trkpt><trkpt lat="42.10705559127044" lon="13.197146921081897"><ele>954.0</ele><time>2026-05-03T14:40:41Z</time></trkpt><trkpt lat="42.10724238928315" lon="13.197099230457596"><ele>954.0</ele><time>2026-05-03T14:40:42Z</time></trkpt><trkpt lat="42.107427607935" lon="13.197052761072648"><ele>954.0</ele><time>2026-05-03T14:40:43Z</time></trkpt><trkpt lat="42.107609199771446" lon="13.197014182193398"><ele>957.6666666666667</ele><time>2026-05-03T14:40:44Z</time></trkpt><trkpt lat="42.10778308744394" lon="13.196985311287765"><ele>961.3333333333334</ele><time>2026-05-03T14:40:45.017Z</time></trkpt><trkpt lat="42.1079483642491" lon="13.196965397320279"><ele>965.0</ele><time>2026-05-03T14:40:46.021Z</time></trkpt><trkpt lat="42.108115273804025" lon="13.196943942187065"><ele>962.75</ele><time>2026-05-03T14:40:47.016Z</time></trkpt><trkpt lat="42.108285623799716" lon="13.196941317894298"><ele>960.5</ele><time>2026-05-03T14:40:48.024Z</time></trkpt><trkpt lat="42.10839119836313" lon="13.196823452089905"><ele>958.25</ele><time>2026-05-03T14:40:49Z</time></trkpt><trkpt lat="42.10848545326764" lon="13.196795367860238"><ele>956.0</ele><time>2026-05-03T14:40:50Z</time></trkpt><trkpt lat="42.1086200175849" lon="13.196767122958965"><ele>956.0</ele><time>2026-05-03T14:40:51Z</time></trkpt><trkpt lat="42.10876308971916" lon="13.196711653211668"><ele>956.0</ele><time>2026-05-03T14:40:52Z</time></trkpt><trkpt lat="42.10890361292492" lon="13.196617153267598"><ele>956.0</ele><time>2026-05-03T14:40:53Z</time></trkpt><trkpt lat="42.109070987493936" lon="13.196492905578808"><ele>963.0</ele><time>2026-05-03T14:40:54Z</time></trkpt><trkpt lat="42.10925869673784" lon="13.196332670302217"><ele>970.0</ele><time>2026-05-03T14:40:55Z</time></trkpt><trkpt lat="42.10943213031506" lon="13.196126765718224"><ele>970.0</ele><time>2026-05-03T14:40:56Z</time></trkpt><trkpt lat="42.109603369200826" lon="13.195944378756998"><ele>970.0</ele><time>2026-05-03T14:40:57Z</time></trkpt><trkpt lat="42.1097700549447" lon="13.195780134460339"><ele>970.0</ele><time>2026-05-03T14:40:58Z</time></trkpt><trkpt lat="42.109932671345916" lon="13.195622526055075"><ele>972.6666666666666</ele><time>2026-05-03T14:40:59Z</time></trkpt><trkpt lat="42.11008782957527" lon="13.195479936224698"><ele>975.3333333333333</ele><time>2026-05-03T14:41:00Z</time></trkpt><trkpt lat="42.11023891573806" lon="13.19536170579619"><ele>978.0</ele><time>2026-05-03T14:41:01Z</time></trkpt><trkpt lat="42.11039818297648" lon="13.195282489056689"><ele>978.0</ele><time>2026-05-03T14:41:02Z</time></trkpt><trkpt lat="42.110575260890045" lon="13.195229916247545"><ele>978.0</ele><time>2026-05-03T14:41:03Z</time></trkpt><trkpt lat="42.11075966631385" lon="13.195221343202062"><ele>978.0</ele><time>2026-05-03T14:41:04Z</time></trkpt><trkpt lat="42.11097954181809" lon="13.195298753708865"><ele>970.5</ele><time>2026-05-03T14:41:05.002Z</time></trkpt><trkpt lat="42.11118531738266" lon="13.19541529905828"><ele>963.0</ele><time>2026-05-03T14:41:06.002Z</time></trkpt><trkpt lat="42.111408971531425" lon="13.195539559153385"><ele>958.5</ele><time>2026-05-03T14:41:07.002Z</time></trkpt><trkpt lat="42.111645120007864" lon="13.19567283823027"><ele>954.0</ele><time>2026-05-03T14:41:08.002Z</time></trkpt><trkpt lat="42.111882355611705" lon="13.195804645501793"><ele>954.0</ele><time>2026-05-03T14:41:09.002Z</time></trkpt><trkpt lat="42.11211457845737" lon="13.195955918725437"><ele>954.0</ele><time>2026-05-03T14:41:10.002Z</time></trkpt><trkpt lat="42.11232510886675" lon="13.19610508482651"><ele>951.0</ele><time>2026-05-03T14:41:11.002Z</time></trkpt><trkpt lat="42.11251703164367" lon="13.196255234655425"><ele>948.0</ele><time>2026-05-03T14:41:12.002Z</time></trkpt><trkpt lat="42.11268826179091" lon="13.196403407942379"><ele>945.0</ele><time>2026-05-03T14:41:13.001Z</time></trkpt><trkpt lat="42.11286677677133" lon="13.196515905177792"><ele>945.0</ele><time>2026-05-03T14:41:14.001Z</time></trkpt><trkpt lat="42.11305185268108" lon="13.1965801099844"><ele>945.0</ele><time>2026-05-03T14:41:15.001Z</time></trkpt><trkpt lat="42.11324021473386" lon="13.196595514410959"><ele>945.0</ele><time>2026-05-03T14:41:16.001Z</time></trkpt><trkpt lat="42.113419906215306" lon="13.19656680469144"><ele>956.6666666666667</ele><time>2026-05-03T14:41:17.001Z</time></trkpt><trkpt lat="42.11358348336951" lon="13.196499254283697"><ele>968.3333333333334</ele><time>2026-05-03T14:41:18.001Z</time></trkpt><trkpt lat="42.1137315142762" lon="13.19637477316465"><ele>980.0</ele><time>2026-05-03T14:41:19.001Z</time></trkpt><trkpt lat="42.11386304400726" lon="13.196216142354508"><ele>980.0</ele><time>2026-05-03T14:41:20.001Z</time></trkpt><trkpt lat="42.11397823648831" lon="13.196022819486542"><ele>980.0</ele><time>2026-05-03T14:41:21.001Z</time></trkpt><trkpt lat="42.11407310168262" lon="13.195791794660767"><ele>980.0</ele><time>2026-05-03T14:41:22.001Z</time></trkpt><trkpt lat="42.11414529874612" lon="13.195519155231628"><ele>981.0</ele><time>2026-05-03T14:41:23.001Z</time></trkpt><trkpt lat="42.11423488963055" lon="13.195247722661405"><ele>982.0</ele><time>2026-05-03T14:41:24.001Z</time></trkpt><trkpt lat="42.114307533218835" lon="13.194980603957918"><ele>983.0</ele><time>2026-05-03T14:41:25.001Z</time></trkpt><trkpt lat="42.114389286740305" lon="13.194735508838301"><ele>983.0</ele><time>2026-05-03T14:41:26.001Z</time></trkpt><trkpt lat="42.11450061291166" lon="13.194539074114818"><ele>983.0</ele><time>2026-05-03T14:41:27.001Z</time></trkpt><trkpt lat="42.114633882310734" lon="13.194370488719454"><ele>983.0</ele><time>2026-05-03T14:41:28.001Z</time></trkpt><trkpt lat="42.114796973986564" lon="13.194231768982837"><ele>977.0</ele><time>2026-05-03T14:41:29.001Z</time></trkpt><trkpt lat="42.114996154272546" lon="13.194129016808247"><ele>971.0</ele><time>2026-05-03T14:41:30.001Z</time></trkpt><trkpt lat="42.11522128230464" lon="13.194022824203268"><ele>981.5</ele><time>2026-05-03T14:41:31.001Z</time></trkpt><trkpt lat="42.11546152044095" lon="13.193908548061957"><ele>992.0</ele><time>2026-05-03T14:41:32.001Z</time></trkpt><trkpt lat="42.11571423224958" lon="13.193776874048677"><ele>986.0</ele><time>2026-05-03T14:41:33.001Z</time></trkpt><trkpt lat="42.115945079549995" lon="13.19363136169286"><ele>980.0</ele><time>2026-05-03T14:41:34.001Z</time></trkpt><trkpt lat="42.11616634855541" lon="13.19347587353372"><ele>980.0</ele><time>2026-05-03T14:41:35.001Z</time></trkpt><trkpt lat="42.11638920922301" lon="13.193314953202618"><ele>980.0</ele><time>2026-05-03T14:41:36.001Z</time></trkpt><trkpt lat="42.116594864240184" lon="13.193164679162948"><ele>983.0</ele><time>2026-05-03T14:41:37.001Z</time></trkpt><trkpt lat="42.1167904064602" lon="13.19302146552585"><ele>986.0</ele><time>2026-05-03T14:41:38.001Z</time></trkpt><trkpt lat="42.11697539618394" lon="13.192880860289101"><ele>989.0</ele><time>2026-05-03T14:41:39.001Z</time></trkpt><trkpt lat="42.117141961900785" lon="13.192727899057557"><ele>989.0</ele><time>2026-05-03T14:41:40.001Z</time></trkpt><trkpt lat="42.11727366071352" lon="13.19254791610236"><ele>989.0</ele><time>2026-05-03T14:41:41.001Z</time></trkpt><trkpt lat="42.11737078069662" lon="13.19235030595996"><ele>989.0</ele><time>2026-05-03T14:41:42.001Z</time></trkpt><trkpt lat="42.11742922904611" lon="13.192099069055041"><ele>985.3333333333334</ele><time>2026-05-03T14:41:43.001Z</time></trkpt><trkpt lat="42.117482897910705" lon="13.191837900351636"><ele>981.6666666666667</ele><time>2026-05-03T14:41:44Z</time></trkpt><trkpt lat="42.11751361770413" lon="13.19154761771571"><ele>978.0</ele><time>2026-05-03T14:41:45Z</time></trkpt><trkpt lat="42.1175410696962" lon="13.191257111217682"><ele>976.0</ele><time>2026-05-03T14:41:46Z</time></trkpt><trkpt lat="42.11756892816508" lon="13.190981222183332"><ele>974.0</ele><time>2026-05-03T14:41:47Z</time></trkpt><trkpt lat="42.11760270730321" lon="13.190706391735485"><ele>972.0</ele><time>2026-05-03T14:41:48Z</time></trkpt><trkpt lat="42.11763404270763" lon="13.190442062318754"><ele>968.3333333333333</ele><time>2026-05-03T14:41:49Z</time></trkpt><trkpt lat="42.117670339519" lon="13.190201759157505"><ele>964.6666666666666</ele><time>2026-05-03T14:41:50Z</time></trkpt><trkpt lat="42.11772968432324" lon="13.189981629407573"><ele>961.0</ele><time>2026-05-03T14:41:51Z</time></trkpt><trkpt lat="42.11781065680539" lon="13.18980098303875"><ele>957.3333333333333</ele><time>2026-05-03T14:41:52Z</time></trkpt><trkpt lat="42.11792503877823" lon="13.18964064198238"><ele>953.6666666666667</ele><time>2026-05-03T14:41:53Z</time></trkpt><trkpt lat="42.118057282157565" lon="13.189522125677897"><ele>950.0</ele><time>2026-05-03T14:41:54Z</time></trkpt><trkpt lat="42.118212844058995" lon="13.189441762982321"><ele>951.0</ele><time>2026-05-03T14:41:55Z</time></trkpt><trkpt lat="42.11839403827165" lon="13.189418577766638"><ele>952.0</ele><time>2026-05-03T14:41:56Z</time></trkpt><trkpt lat="42.118593902590064" lon="13.1893816452505"><ele>953.0</ele><time>2026-05-03T14:41:57Z</time></trkpt><trkpt lat="42.11881029161057" lon="13.189325021784253"><ele>953.0</ele><time>2026-05-03T14:41:58Z</time></trkpt><trkpt lat="42.11901576740376" lon="13.189291321866358"><ele>953.0</ele><time>2026-05-03T14:41:59Z</time></trkpt><trkpt lat="42.119217534295814" lon="13.189261252548906"><ele>953.0</ele><time>2026-05-03T14:42:00Z</time></trkpt><trkpt lat="42.119410957500804" lon="13.189224278079314"><ele>952.0</ele><time>2026-05-03T14:42:01Z</time></trkpt><trkpt lat="42.11960352081228" lon="13.18918203303654"><ele>951.0</ele><time>2026-05-03T14:42:02Z</time></trkpt><trkpt lat="42.11978913654149" lon="13.18911532743744"><ele>950.0</ele><time>2026-05-03T14:42:03Z</time></trkpt><trkpt lat="42.119963913778264" lon="13.189019356815557"><ele>946.3333333333334</ele><time>2026-05-03T14:42:04Z</time></trkpt><trkpt lat="42.12014600614616" lon="13.18890573896066"><ele>942.6666666666667</ele><time>2026-05-03T14:42:05Z</time></trkpt><trkpt lat="42.120312321530584" lon="13.188711371515016"><ele>939.0</ele><time>2026-05-03T14:42:06Z</time></trkpt><trkpt lat="42.120509825342324" lon="13.188528823919741"><ele>939.0</ele><time>2026-05-03T14:42:07Z</time></trkpt><trkpt lat="42.120697204608526" lon="13.188329120642273"><ele>939.0</ele><time>2026-05-03T14:42:08Z</time></trkpt><trkpt lat="42.12088297791753" lon="13.188129648912556"><ele>939.0</ele><time>2026-05-03T14:42:09Z</time></trkpt><trkpt lat="42.121063668906444" lon="13.187936363734117"><ele>939.0</ele><time>2026-05-03T14:42:10Z</time></trkpt><trkpt lat="42.12123953476384" lon="13.187749088962208"><ele>939.0</ele><time>2026-05-03T14:42:11Z</time></trkpt><trkpt lat="42.12140591990503" lon="13.1875719099316"><ele>939.0</ele><time>2026-05-03T14:42:12Z</time></trkpt><trkpt lat="42.12155501331277" lon="13.187413144421551"><ele>939.0</ele><time>2026-05-03T14:42:13Z</time></trkpt><trkpt lat="42.12169645738054" lon="13.18726156745665"><ele>937.6666666666667</ele><time>2026-05-03T14:42:14Z</time></trkpt><trkpt lat="42.12183679489815" lon="13.187110896891205"><ele>936.3333333333334</ele><time>2026-05-03T14:42:15Z</time></trkpt><trkpt lat="42.12196551177887" lon="13.186972702628568"><ele>935.0</ele><time>2026-05-03T14:42:16Z</time></trkpt><trkpt lat="42.12209947206821" lon="13.186827966628162"><ele>935.0</ele><time>2026-05-03T14:42:17Z</time></trkpt><trkpt lat="42.12221590585144" lon="13.186699257131622"><ele>935.0</ele><time>2026-05-03T14:42:18Z</time></trkpt><trkpt lat="42.12233361532043" lon="13.186569137715484"><ele>935.0</ele><time>2026-05-03T14:42:19Z</time></trkpt><trkpt lat="42.122451345438265" lon="13.186438995472336"><ele>935.3333333333334</ele><time>2026-05-03T14:42:20Z</time></trkpt><trkpt lat="42.122502547634426" lon="13.186194878703017"><ele>935.6666666666667</ele><time>2026-05-03T14:42:21Z</time></trkpt><trkpt lat="42.12257768984375" lon="13.185998501774392"><ele>936.0</ele><time>2026-05-03T14:42:22Z</time></trkpt><trkpt lat="42.122636279916385" lon="13.185791186714452"><ele>935.6666666666667</ele><time>2026-05-03T14:42:23Z</time></trkpt><trkpt lat="42.12267741703982" lon="13.185581269245485"><ele>935.3333333333334</ele><time>2026-05-03T14:42:24Z</time></trkpt><trkpt lat="42.12270228870587" lon="13.185384773775574"><ele>935.0</ele><time>2026-05-03T14:42:25Z</time></trkpt><trkpt lat="42.12270433098259" lon="13.185181568044728"><ele>935.0</ele><time>2026-05-03T14:42:26Z</time></trkpt><trkpt lat="42.12269742332421" lon="13.18499446561439"><ele>935.0</ele><time>2026-05-03T14:42:27Z</time></trkpt><trkpt lat="42.12266760580764" lon="13.184781228108337"><ele>935.0</ele><time>2026-05-03T14:42:28Z</time></trkpt><trkpt lat="42.12261111760049" lon="13.184545750286672"><ele>934.6666666666667</ele><time>2026-05-03T14:42:29Z</time></trkpt><trkpt lat="42.122535141431364" lon="13.184286879705196"><ele>934.3333333333333</ele><time>2026-05-03T14:42:30Z</time></trkpt><trkpt lat="42.122459297129375" lon="13.184018466965798"><ele>934.0</ele><time>2026-05-03T14:42:31Z</time></trkpt><trkpt lat="42.12239269452007" lon="13.183769481569286"><ele>932.3333333333333</ele><time>2026-05-03T14:42:32Z</time></trkpt><trkpt lat="42.12231557168715" lon="13.18353599104326"><ele>930.6666666666667</ele><time>2026-05-03T14:42:33Z</time></trkpt><trkpt lat="42.12224033586574" lon="13.183308599993325"><ele>929.0</ele><time>2026-05-03T14:42:34Z</time></trkpt><trkpt lat="42.12217556091099" lon="13.183082331164167"><ele>928.0</ele><time>2026-05-03T14:42:35Z</time></trkpt><trkpt lat="42.12210122870206" lon="13.182862241759581"><ele>927.0</ele><time>2026-05-03T14:42:36Z</time></trkpt><trkpt lat="42.122050457502695" lon="13.182623738154318"><ele>926.0</ele><time>2026-05-03T14:42:37Z</time></trkpt><trkpt lat="42.12202479403448" lon="13.182396553318247"><ele>925.6666666666667</ele><time>2026-05-03T14:42:38Z</time></trkpt><trkpt lat="42.122028456153245" lon="13.182163157636767"><ele>925.3333333333333</ele><time>2026-05-03T14:42:39Z</time></trkpt><trkpt lat="42.12206419838373" lon="13.181929253508859"><ele>925.0</ele><time>2026-05-03T14:42:40Z</time></trkpt><trkpt lat="42.12213603474612" lon="13.181681010850173"><ele>925.0</ele><time>2026-05-03T14:42:41Z</time></trkpt><trkpt lat="42.12222052772107" lon="13.181401889365722"><ele>925.0</ele><time>2026-05-03T14:42:42Z</time></trkpt><trkpt lat="42.12231087561992" lon="13.181091205012427"><ele>924.0</ele><time>2026-05-03T14:42:43Z</time></trkpt><trkpt lat="42.12242123454981" lon="13.18076110130397"><ele>923.0</ele><time>2026-05-03T14:42:44Z</time></trkpt><trkpt lat="42.122533336465956" lon="13.180419387669227"><ele>923.0</ele><time>2026-05-03T14:42:45Z</time></trkpt><trkpt lat="42.12266656591178" lon="13.180080328014535"><ele>923.0</ele><time>2026-05-03T14:42:46Z</time></trkpt><trkpt lat="42.1228143517366" lon="13.179735613925603"><ele>923.0</ele><time>2026-05-03T14:42:47Z</time></trkpt><trkpt lat="42.122950914409365" lon="13.179408533461624"><ele>923.0</ele><time>2026-05-03T14:42:48Z</time></trkpt><trkpt lat="42.12309748072962" lon="13.179070960379166"><ele>926.0</ele><time>2026-05-03T14:42:49Z</time></trkpt><trkpt lat="42.12323397908942" lon="13.17877284324389"><ele>929.0</ele><time>2026-05-03T14:42:50Z</time></trkpt><trkpt lat="42.12337546934366" lon="13.17850303110306"><ele>929.0</ele><time>2026-05-03T14:42:51Z</time></trkpt><trkpt lat="42.12350746577751" lon="13.178244433691763"><ele>929.0</ele><time>2026-05-03T14:42:52Z</time></trkpt><trkpt lat="42.123637795344735" lon="13.178005753888902"><ele>927.0</ele><time>2026-05-03T14:42:53Z</time></trkpt><trkpt lat="42.12376096435827" lon="13.177792752170394"><ele>925.0</ele><time>2026-05-03T14:42:54Z</time></trkpt><trkpt lat="42.12387498393465" lon="13.177602897323798"><ele>923.0</ele><time>2026-05-03T14:42:55Z</time></trkpt><trkpt lat="42.12398270167619" lon="13.177407899073978"><ele>924.6666666666667</ele><time>2026-05-03T14:42:56Z</time></trkpt><trkpt lat="42.12407989545965" lon="13.17720256693895"><ele>926.3333333333333</ele><time>2026-05-03T14:42:57Z</time></trkpt><trkpt lat="42.124153928264505" lon="13.17698442295518"><ele>928.0</ele><time>2026-05-03T14:42:58Z</time></trkpt><trkpt lat="42.124214459430384" lon="13.176740757753628"><ele>921.0</ele><time>2026-05-03T14:42:59Z</time></trkpt><trkpt lat="42.12412800421263" lon="13.175742866231031"><ele>920.3333333333333</ele><time>2026-05-03T14:43:00Z</time></trkpt><trkpt lat="42.12409910984407" lon="13.175476270475356"><ele>919.6666666666666</ele><time>2026-05-03T14:43:01Z</time></trkpt><trkpt lat="42.12403939979508" lon="13.175198464492546"><ele>919.0</ele><time>2026-05-03T14:43:02Z</time></trkpt><trkpt lat="42.123946101426206" lon="13.174905188999448"><ele>918.5</ele><time>2026-05-03T14:43:03Z</time></trkpt><trkpt lat="42.12384481733764" lon="13.174597830097238"><ele>918.0</ele><time>2026-05-03T14:43:04Z</time></trkpt><trkpt lat="42.12374701731664" lon="13.174264802903116"><ele>917.5</ele><time>2026-05-03T14:43:05Z</time></trkpt><trkpt lat="42.12365073019488" lon="13.173929969007784"><ele>917.0</ele><time>2026-05-03T14:43:06Z</time></trkpt><trkpt lat="42.123557940711244" lon="13.173615981733416"><ele>917.0</ele><time>2026-05-03T14:43:07Z</time></trkpt><trkpt lat="42.123470814228796" lon="13.173317401269257"><ele>917.0</ele><time>2026-05-03T14:43:08Z</time></trkpt><trkpt lat="42.12338925353186" lon="13.17301667276727"><ele>918.5</ele><time>2026-05-03T14:43:09Z</time></trkpt><trkpt lat="42.12331176640627" lon="13.172727391760038"><ele>920.0</ele><time>2026-05-03T14:43:10Z</time></trkpt><trkpt lat="42.12322680510186" lon="13.17243387348765"><ele>919.0</ele><time>2026-05-03T14:43:11.001Z</time></trkpt><trkpt lat="42.12314843888868" lon="13.172149109712468"><ele>918.0</ele><time>2026-05-03T14:43:12.001Z</time></trkpt><trkpt lat="42.123076360175865" lon="13.171889904573215"><ele>917.0</ele><time>2026-05-03T14:43:13.001Z</time></trkpt><trkpt lat="42.123000542259646" lon="13.171631211412373"><ele>918.0</ele><time>2026-05-03T14:43:14.001Z</time></trkpt><trkpt lat="42.122920571489495" lon="13.171375602685147"><ele>919.0</ele><time>2026-05-03T14:43:15.001Z</time></trkpt><trkpt lat="42.122841950350924" lon="13.17112824986093"><ele>920.0</ele><time>2026-05-03T14:43:16.001Z</time></trkpt><trkpt lat="42.1227593845291" lon="13.170881745099571"><ele>921.6666666666667</ele><time>2026-05-03T14:43:17.001Z</time></trkpt><trkpt lat="42.1226744500938" lon="13.170649578504259"><ele>923.3333333333333</ele><time>2026-05-03T14:43:18.001Z</time></trkpt><trkpt lat="42.12256307676048" lon="13.170391691742472"><ele>925.0</ele><time>2026-05-03T14:43:19.001Z</time></trkpt><trkpt lat="42.122478042690545" lon="13.170104112124768"><ele>920.0</ele><time>2026-05-03T14:43:20.001Z</time></trkpt><trkpt lat="42.12238610429691" lon="13.169835606445448"><ele>915.0</ele><time>2026-05-03T14:43:21.001Z</time></trkpt><trkpt lat="42.12229185267668" lon="13.169578042634356"><ele>910.0</ele><time>2026-05-03T14:43:22.001Z</time></trkpt><trkpt lat="42.122208885191434" lon="13.169307211516347"><ele>910.0</ele><time>2026-05-03T14:43:23.001Z</time></trkpt><trkpt lat="42.122157874608845" lon="13.169016158301748"><ele>910.0</ele><time>2026-05-03T14:43:24.001Z</time></trkpt><trkpt lat="42.122122647807494" lon="13.168694913889"><ele>910.0</ele><time>2026-05-03T14:43:25.001Z</time></trkpt><trkpt lat="42.122115337423274" lon="13.168344513581735"><ele>910.0</ele><time>2026-05-03T14:43:26.001Z</time></trkpt><trkpt lat="42.12210991802044" lon="13.167976149150467"><ele>909.5</ele><time>2026-05-03T14:43:27.001Z</time></trkpt><trkpt lat="42.12210497365416" lon="13.167610056681232"><ele>909.0</ele><time>2026-05-03T14:43:28.001Z</time></trkpt><trkpt lat="42.12209059329081" lon="13.167266519570944"><ele>908.5</ele><time>2026-05-03T14:43:29.001Z</time></trkpt><trkpt lat="42.12208268311525" lon="13.166938342963984"><ele>908.0</ele><time>2026-05-03T14:43:30.001Z</time></trkpt><trkpt lat="42.12207264613485" lon="13.166605339814272"><ele>907.0</ele><time>2026-05-03T14:43:31.001Z</time></trkpt><trkpt lat="42.122080994022355" lon="13.166269021611246"><ele>906.0</ele><time>2026-05-03T14:43:32.001Z</time></trkpt><trkpt lat="42.12210696880957" lon="13.165940059474194"><ele>907.0</ele><time>2026-05-03T14:43:33.001Z</time></trkpt><trkpt lat="42.12214327555428" lon="13.165602313878443"><ele>908.0</ele><time>2026-05-03T14:43:34.001Z</time></trkpt><trkpt lat="42.12219025700114" lon="13.165239200734007"><ele>908.0</ele><time>2026-05-03T14:43:35.001Z</time></trkpt><trkpt lat="42.122281894755936" lon="13.16487454020048"><ele>908.0</ele><time>2026-05-03T14:43:36.001Z</time></trkpt><trkpt lat="42.122361292997454" lon="13.164524872027911"><ele>908.0</ele><time>2026-05-03T14:43:37.001Z</time></trkpt><trkpt lat="42.12244579493913" lon="13.164214302097632"><ele>908.0</ele><time>2026-05-03T14:43:38.001Z</time></trkpt><trkpt lat="42.122521618830646" lon="13.163899602222832"><ele>908.0</ele><time>2026-05-03T14:43:39.001Z</time></trkpt><trkpt lat="42.12260376906663" lon="13.16359428015436"><ele>908.0</ele><time>2026-05-03T14:43:40.001Z</time></trkpt><trkpt lat="42.122674162299646" lon="13.163293755218913"><ele>907.0</ele><time>2026-05-03T14:43:41.001Z</time></trkpt><trkpt lat="42.12274170525819" lon="13.16299891671545"><ele>906.0</ele><time>2026-05-03T14:43:42Z</time></trkpt><trkpt lat="42.122786011586264" lon="13.162694983907471"><ele>906.0</ele><time>2026-05-03T14:43:43Z</time></trkpt><trkpt lat="42.12280221321776" lon="13.162380581015077"><ele>906.0</ele><time>2026-05-03T14:43:44Z</time></trkpt><trkpt lat="42.122789374294044" lon="13.16203240323807"><ele>906.0</ele><time>2026-05-03T14:43:45Z</time></trkpt><trkpt lat="42.12276055405963" lon="13.161666238509433"><ele>906.0</ele><time>2026-05-03T14:43:46Z</time></trkpt><trkpt lat="42.12271737015933" lon="13.161282477625496"><ele>906.0</ele><time>2026-05-03T14:43:47Z</time></trkpt><trkpt lat="42.12267129832884" lon="13.16087058969052"><ele>906.0</ele><time>2026-05-03T14:43:48Z</time></trkpt><trkpt lat="42.12262978235728" lon="13.160442585728328"><ele>906.0</ele><time>2026-05-03T14:43:49Z</time></trkpt><trkpt lat="42.122588185808134" lon="13.160014250955061"><ele>906.0</ele><time>2026-05-03T14:43:50Z</time></trkpt><trkpt lat="42.12255797490263" lon="13.159626056317567"><ele>906.5</ele><time>2026-05-03T14:43:51Z</time></trkpt><trkpt lat="42.122521684330074" lon="13.15925146566278"><ele>907.0</ele><time>2026-05-03T14:43:52Z</time></trkpt><trkpt lat="42.122487884606606" lon="13.158885594895128"><ele>907.5</ele><time>2026-05-03T14:43:53Z</time></trkpt><trkpt lat="42.122454037432995" lon="13.158533094901957"><ele>908.0</ele><time>2026-05-03T14:43:54Z</time></trkpt><trkpt lat="42.12242547163011" lon="13.158187067413994"><ele>906.5</ele><time>2026-05-03T14:43:55Z</time></trkpt><trkpt lat="42.122392556129896" lon="13.157854408233746"><ele>905.0</ele><time>2026-05-03T14:43:56Z</time></trkpt><trkpt lat="42.12236385860921" lon="13.15754105933589"><ele>905.3333333333334</ele><time>2026-05-03T14:43:57Z</time></trkpt><trkpt lat="42.12233544448851" lon="13.157240728776246"><ele>905.6666666666667</ele><time>2026-05-03T14:43:58Z</time></trkpt><trkpt lat="42.122315756091524" lon="13.156951295151215"><ele>906.0</ele><time>2026-05-03T14:43:59Z</time></trkpt><trkpt lat="42.12232338812731" lon="13.156673715893813"><ele>907.6666666666667</ele><time>2026-05-03T14:44:00Z</time></trkpt><trkpt lat="42.1223858843482" lon="13.156404855960664"><ele>909.3333333333334</ele><time>2026-05-03T14:44:01Z</time></trkpt><trkpt lat="42.12246029734609" lon="13.156126547706881"><ele>911.0</ele><time>2026-05-03T14:44:02Z</time></trkpt><trkpt lat="42.12258220489167" lon="13.155833358655988"><ele>911.5</ele><time>2026-05-03T14:44:03Z</time></trkpt><trkpt lat="42.12269703127646" lon="13.155527330832614"><ele>912.0</ele><time>2026-05-03T14:44:04Z</time></trkpt><trkpt lat="42.122809296865256" lon="13.155216828380434"><ele>912.0</ele><time>2026-05-03T14:44:05Z</time></trkpt><trkpt lat="42.122926972073365" lon="13.154892754807246"><ele>912.0</ele><time>2026-05-03T14:44:06Z</time></trkpt><trkpt lat="42.12308757184412" lon="13.15459483543322"><ele>912.5</ele><time>2026-05-03T14:44:07Z</time></trkpt><trkpt lat="42.123255169366544" lon="13.154282541713506"><ele>913.0</ele><time>2026-05-03T14:44:08Z</time></trkpt><trkpt lat="42.12342292461024" lon="13.15396990760176"><ele>915.5</ele><time>2026-05-03T14:44:09Z</time></trkpt><trkpt lat="42.12359649433178" lon="13.153627952361786"><ele>918.0</ele><time>2026-05-03T14:44:10Z</time></trkpt><trkpt lat="42.123769720701596" lon="13.153328013129379"><ele>920.5</ele><time>2026-05-03T14:44:11Z</time></trkpt><trkpt lat="42.12393445692712" lon="13.153008250681205"><ele>923.0</ele><time>2026-05-03T14:44:12Z</time></trkpt><trkpt lat="42.124103130292475" lon="13.152676236657145"><ele>930.5</ele><time>2026-05-03T14:44:13Z</time></trkpt><trkpt lat="42.124269659021465" lon="13.152349916738494"><ele>938.0</ele><time>2026-05-03T14:44:14Z</time></trkpt><trkpt lat="42.12442954891377" lon="13.152027056118804"><ele>938.0</ele><time>2026-05-03T14:44:15Z</time></trkpt><trkpt lat="42.12458352511553" lon="13.151735420443204"><ele>938.0</ele><time>2026-05-03T14:44:16Z</time></trkpt><trkpt lat="42.124735577601065" lon="13.151433605545057"><ele>935.0</ele><time>2026-05-03T14:44:17Z</time></trkpt><trkpt lat="42.12489291289631" lon="13.151138428834646"><ele>932.0</ele><time>2026-05-03T14:44:18Z</time></trkpt><trkpt lat="42.12504065963228" lon="13.150856179864215"><ele>941.5</ele><time>2026-05-03T14:44:19Z</time></trkpt><trkpt lat="42.1251936541015" lon="13.15057358239022"><ele>951.0</ele><time>2026-05-03T14:44:20Z</time></trkpt><trkpt lat="42.125375898832736" lon="13.150300809048492"><ele>951.0</ele><time>2026-05-03T14:44:21Z</time></trkpt><trkpt lat="42.12554799367483" lon="13.150016423562223"><ele>951.0</ele><time>2026-05-03T14:44:22Z</time></trkpt><trkpt lat="42.125720795152816" lon="13.149768526315897"><ele>943.0</ele><time>2026-05-03T14:44:23Z</time></trkpt><trkpt lat="42.125905055143505" lon="13.149549134238564"><ele>935.0</ele><time>2026-05-03T14:44:24Z</time></trkpt><trkpt lat="42.12608721014786" lon="13.149337831936018"><ele>935.0</ele><time>2026-05-03T14:44:25Z</time></trkpt><trkpt lat="42.12627580878246" lon="13.149168056186411"><ele>935.0</ele><time>2026-05-03T14:44:26Z</time></trkpt><trkpt lat="42.12646714442855" lon="13.149016949801208"><ele>935.0</ele><time>2026-05-03T14:44:27Z</time></trkpt><trkpt lat="42.126630786703984" lon="13.148822290476183"><ele>935.0</ele><time>2026-05-03T14:44:28Z</time></trkpt><trkpt lat="42.126808721011166" lon="13.148596727609558"><ele>935.0</ele><time>2026-05-03T14:44:29Z</time></trkpt><trkpt lat="42.126996294243" lon="13.148331775649492"><ele>950.0</ele><time>2026-05-03T14:44:30Z</time></trkpt><trkpt lat="42.127168584243385" lon="13.148072535269709"><ele>965.0</ele><time>2026-05-03T14:44:31Z</time></trkpt><trkpt lat="42.12733054272039" lon="13.147824598079795"><ele>949.0</ele><time>2026-05-03T14:44:32Z</time></trkpt><trkpt lat="42.12748470273772" lon="13.147592952245141"><ele>933.0</ele><time>2026-05-03T14:44:33Z</time></trkpt><trkpt lat="42.12762467175615" lon="13.147356026961097"><ele>933.0</ele><time>2026-05-03T14:44:34Z</time></trkpt><trkpt lat="42.12776964439218" lon="13.14713389174403"><ele>933.0</ele><time>2026-05-03T14:44:35Z</time></trkpt><trkpt lat="42.12790486428748" lon="13.146899550540693"><ele>933.0</ele><time>2026-05-03T14:44:36Z</time></trkpt><trkpt lat="42.12802672879648" lon="13.146623101080191"><ele>937.0</ele><time>2026-05-03T14:44:37Z</time></trkpt><trkpt lat="42.12813961464258" lon="13.146323591656204"><ele>941.0</ele><time>2026-05-03T14:44:38Z</time></trkpt><trkpt lat="42.128252785202065" lon="13.146012199173429"><ele>931.0</ele><time>2026-05-03T14:44:39Z</time></trkpt><trkpt lat="42.128352943698" lon="13.145715230552417"><ele>921.0</ele><time>2026-05-03T14:44:40Z</time></trkpt><trkpt lat="42.1284508421949" lon="13.145425521634019"><ele>921.0</ele><time>2026-05-03T14:44:41Z</time></trkpt><trkpt lat="42.1285325505445" lon="13.145141803700595"><ele>921.0</ele><time>2026-05-03T14:44:42Z</time></trkpt><trkpt lat="42.12865172995855" lon="13.144897836151468"><ele>921.0</ele><time>2026-05-03T14:44:43Z</time></trkpt><trkpt lat="42.1287775698821" lon="13.144684926278499"><ele>917.6666666666667</ele><time>2026-05-03T14:44:44Z</time></trkpt><trkpt lat="42.128927157131706" lon="13.144500037971099"><ele>914.3333333333334</ele><time>2026-05-03T14:44:45Z</time></trkpt><trkpt lat="42.12910573668607" lon="13.144354657427394"><ele>911.0</ele><time>2026-05-03T14:44:45.999Z</time></trkpt><trkpt lat="42.12931374271593" lon="13.14420306307874"><ele>919.5</ele><time>2026-05-03T14:44:46.999Z</time></trkpt><trkpt lat="42.129535788137844" lon="13.144045135384255"><ele>928.0</ele><time>2026-05-03T14:44:47.999Z</time></trkpt><trkpt lat="42.12974705124604" lon="13.14389255007293"><ele>923.3333333333333</ele><time>2026-05-03T14:44:48.999Z</time></trkpt><trkpt lat="42.12994622224583" lon="13.14374861048666"><ele>918.6666666666667</ele><time>2026-05-03T14:44:49.999Z</time></trkpt><trkpt lat="42.13012988783651" lon="13.143616305245708"><ele>914.0</ele><time>2026-05-03T14:44:50.999Z</time></trkpt><trkpt lat="42.1302959356601" lon="13.143498244719025"><ele>914.0</ele><time>2026-05-03T14:44:51.999Z</time></trkpt><trkpt lat="42.130447696389744" lon="13.143391849384335"><ele>914.0</ele><time>2026-05-03T14:44:52.999Z</time></trkpt><trkpt lat="42.13058612172956" lon="13.143294462492818"><ele>914.0</ele><time>2026-05-03T14:44:53.999Z</time></trkpt><trkpt lat="42.13071822991214" lon="13.143190668137088"><ele>912.75</ele><time>2026-05-03T14:44:54.999Z</time></trkpt><trkpt lat="42.13083703258835" lon="13.143075336274546"><ele>911.5</ele><time>2026-05-03T14:44:55.999Z</time></trkpt><trkpt lat="42.13093180994077" lon="13.142933091388029"><ele>910.25</ele><time>2026-05-03T14:44:56.999Z</time></trkpt><trkpt lat="42.13102312326108" lon="13.142782432461386"><ele>909.0</ele><time>2026-05-03T14:44:57.999Z</time></trkpt><trkpt lat="42.13110633191771" lon="13.142617840660446"><ele>909.0</ele><time>2026-05-03T14:44:58.999Z</time></trkpt><trkpt lat="42.131178446120614" lon="13.142421318334689"><ele>909.0</ele><time>2026-05-03T14:44:59.999Z</time></trkpt><trkpt lat="42.1312486696194" lon="13.142194952752678"><ele>909.0</ele><time>2026-05-03T14:45:00.999Z</time></trkpt><trkpt lat="42.13131112601834" lon="13.141936256224012"><ele>910.0</ele><time>2026-05-03T14:45:01.999Z</time></trkpt><trkpt lat="42.131376870020375" lon="13.141663337014867"><ele>911.0</ele><time>2026-05-03T14:45:02.999Z</time></trkpt><trkpt lat="42.13143226355939" lon="13.141395557303852"><ele>912.0</ele><time>2026-05-03T14:45:03.999Z</time></trkpt><trkpt lat="42.13150511137658" lon="13.141131789291839"><ele>911.3333333333333</ele><time>2026-05-03T14:45:04.999Z</time></trkpt><trkpt lat="42.13157957761934" lon="13.140870122086353"><ele>910.6666666666666</ele><time>2026-05-03T14:45:05.999Z</time></trkpt><trkpt lat="42.131679983601465" lon="13.140612939649685"><ele>910.0</ele><time>2026-05-03T14:45:06.999Z</time></trkpt><trkpt lat="42.13180696295107" lon="13.14037620499508"><ele>910.0</ele><time>2026-05-03T14:45:07.999Z</time></trkpt><trkpt lat="42.13195745363932" lon="13.140159552016183"><ele>910.0</ele><time>2026-05-03T14:45:08.999Z</time></trkpt><trkpt lat="42.132128320257415" lon="13.13994534052327"><ele>909.0</ele><time>2026-05-03T14:45:09.999Z</time></trkpt><trkpt lat="42.13230942412538" lon="13.139746488074652"><ele>908.0</ele><time>2026-05-03T14:45:10.999Z</time></trkpt><trkpt lat="42.13247956057718" lon="13.13956212761591"><ele>908.0</ele><time>2026-05-03T14:45:11.999Z</time></trkpt><trkpt lat="42.13263888631891" lon="13.139381488073132"><ele>908.0</ele><time>2026-05-03T14:45:12.999Z</time></trkpt><trkpt lat="42.13278083060812" lon="13.139209814843134"><ele>908.0</ele><time>2026-05-03T14:45:13.999Z</time></trkpt><trkpt lat="42.13290617120046" lon="13.139054863193042"><ele>905.6666666666667</ele><time>2026-05-03T14:45:14.999Z</time></trkpt><trkpt lat="42.133029152907504" lon="13.138909826638965"><ele>903.3333333333333</ele><time>2026-05-03T14:45:15.999Z</time></trkpt><trkpt lat="42.13315459955137" lon="13.138771943081556"><ele>901.0</ele><time>2026-05-03T14:45:17.001Z</time></trkpt><trkpt lat="42.13327580650082" lon="13.138632203508157"><ele>901.0</ele><time>2026-05-03T14:45:18.001Z</time></trkpt><trkpt lat="42.13339878961019" lon="13.13849184113442"><ele>901.0</ele><time>2026-05-03T14:45:19.001Z</time></trkpt><trkpt lat="42.133530289065476" lon="13.138344582887362"><ele>901.0</ele><time>2026-05-03T14:45:20.001Z</time></trkpt><trkpt lat="42.13364718693754" lon="13.1382007638339"><ele>906.6666666666666</ele><time>2026-05-03T14:45:21.001Z</time></trkpt><trkpt lat="42.13376425212989" lon="13.138036223326568"><ele>912.3333333333333</ele><time>2026-05-03T14:45:22.001Z</time></trkpt><trkpt lat="42.133869802077776" lon="13.137872434379615"><ele>918.0</ele><time>2026-05-03T14:45:23.001Z</time></trkpt><trkpt lat="42.133943957720824" lon="13.137684128207795"><ele>918.0</ele><time>2026-05-03T14:45:24.001Z</time></trkpt><trkpt lat="42.13400882679901" lon="13.137491156670587"><ele>918.0</ele><time>2026-05-03T14:45:25.001Z</time></trkpt><trkpt lat="42.13407125311462" lon="13.137300478252056"><ele>918.0</ele><time>2026-05-03T14:45:26.001Z</time></trkpt><trkpt lat="42.13414225191724" lon="13.13710930351541"><ele>911.3333333333333</ele><time>2026-05-03T14:45:27.001Z</time></trkpt><trkpt lat="42.13420353673562" lon="13.1369360464655"><ele>904.6666666666666</ele><time>2026-05-03T14:45:28.001Z</time></trkpt><trkpt lat="42.13427680707589" lon="13.136749159329852"><ele>898.0</ele><time>2026-05-03T14:45:29.001Z</time></trkpt><trkpt lat="42.13435141301585" lon="13.13656170450098"><ele>899.6666666666666</ele><time>2026-05-03T14:45:30.001Z</time></trkpt><trkpt lat="42.13444474343515" lon="13.136368104442022"><ele>901.3333333333333</ele><time>2026-05-03T14:45:31.001Z</time></trkpt><trkpt lat="42.1345010599037" lon="13.136172396990471"><ele>903.0</ele><time>2026-05-03T14:45:32.001Z</time></trkpt><trkpt lat="42.13458093213493" lon="13.135954278644999"><ele>903.3333333333333</ele><time>2026-05-03T14:45:33.001Z</time></trkpt><trkpt lat="42.13464817791564" lon="13.135713901239122"><ele>903.6666666666666</ele><time>2026-05-03T14:45:34.001Z</time></trkpt><trkpt lat="42.13472084634623" lon="13.135488922286584"><ele>904.0</ele><time>2026-05-03T14:45:35Z</time></trkpt><trkpt lat="42.13475693157237" lon="13.135235639980005"><ele>904.0</ele><time>2026-05-03T14:45:36Z</time></trkpt><trkpt lat="42.1347713107708" lon="13.13497843854323"><ele>904.0</ele><time>2026-05-03T14:45:37Z</time></trkpt><trkpt lat="42.13476379520093" lon="13.134725589812632"><ele>904.0</ele><time>2026-05-03T14:45:38Z</time></trkpt><trkpt lat="42.134734111840125" lon="13.134463750444555"><ele>901.0</ele><time>2026-05-03T14:45:39Z</time></trkpt><trkpt lat="42.13467562923125" lon="13.134204436063941"><ele>898.0</ele><time>2026-05-03T14:45:40Z</time></trkpt><trkpt lat="42.134605328787025" lon="13.133968461825525"><ele>895.0</ele><time>2026-05-03T14:45:41Z</time></trkpt><trkpt lat="42.13450430045121" lon="13.13370649403596"><ele>891.3333333333333</ele><time>2026-05-03T14:45:42Z</time></trkpt><trkpt lat="42.13438068078201" lon="13.133450696322"><ele>887.6666666666667</ele><time>2026-05-03T14:45:43Z</time></trkpt><trkpt lat="42.134255374006955" lon="13.13321402090572"><ele>884.0</ele><time>2026-05-03T14:45:44Z</time></trkpt><trkpt lat="42.134134486777874" lon="13.132951785920882"><ele>881.0</ele><time>2026-05-03T14:45:45Z</time></trkpt><trkpt lat="42.134009107840235" lon="13.132689890011427"><ele>878.0</ele><time>2026-05-03T14:45:46Z</time></trkpt><trkpt lat="42.13388685585857" lon="13.132456942532453"><ele>875.0</ele><time>2026-05-03T14:45:47Z</time></trkpt><trkpt lat="42.133767006785455" lon="13.132209875327668"><ele>874.3333333333334</ele><time>2026-05-03T14:45:48Z</time></trkpt><trkpt lat="42.133651017063826" lon="13.131964128992108"><ele>873.6666666666667</ele><time>2026-05-03T14:45:49Z</time></trkpt><trkpt lat="42.13353306630264" lon="13.131734132139064"><ele>873.0</ele><time>2026-05-03T14:45:50Z</time></trkpt><trkpt lat="42.133420086291096" lon="13.131513726136125"><ele>874.3333333333333</ele><time>2026-05-03T14:45:51Z</time></trkpt><trkpt lat="42.133294306197726" lon="13.131308518551496"><ele>875.6666666666666</ele><time>2026-05-03T14:45:52Z</time></trkpt><trkpt lat="42.13313537030862" lon="13.131096990676047"><ele>877.0</ele><time>2026-05-03T14:45:53Z</time></trkpt><trkpt lat="42.1329562634033" lon="13.130897627433315"><ele>871.0</ele><time>2026-05-03T14:45:54Z</time></trkpt><trkpt lat="42.13277229163754" lon="13.13068017583946"><ele>865.0</ele><time>2026-05-03T14:45:55Z</time></trkpt><trkpt lat="42.132593607466156" lon="13.13046874391741"><ele>865.0</ele><time>2026-05-03T14:45:56Z</time></trkpt><trkpt lat="42.132423184406555" lon="13.130261549866852"><ele>865.0</ele><time>2026-05-03T14:45:57Z</time></trkpt><trkpt lat="42.13225716324235" lon="13.130066393651504"><ele>861.3333333333333</ele><time>2026-05-03T14:45:58Z</time></trkpt><trkpt lat="42.13209740114503" lon="13.129873248430272"><ele>857.6666666666667</ele><time>2026-05-03T14:45:59Z</time></trkpt><trkpt lat="42.13194250560449" lon="13.129681822891543"><ele>854.0</ele><time>2026-05-03T14:46:00Z</time></trkpt><trkpt lat="42.131796612202045" lon="13.129492011335817"><ele>854.0</ele><time>2026-05-03T14:46:01Z</time></trkpt><trkpt lat="42.13165297741508" lon="13.12930427702188"><ele>854.0</ele><time>2026-05-03T14:46:02Z</time></trkpt><trkpt lat="42.131510824816644" lon="13.129131061134547"><ele>854.0</ele><time>2026-05-03T14:46:03Z</time></trkpt><trkpt lat="42.13135077814874" lon="13.128978294957657"><ele>851.0</ele><time>2026-05-03T14:46:04Z</time></trkpt><trkpt lat="42.13117279765236" lon="13.128848429180275"><ele>848.0</ele><time>2026-05-03T14:46:05Z</time></trkpt><trkpt lat="42.13098600647492" lon="13.128749588419067"><ele>845.0</ele><time>2026-05-03T14:46:06Z</time></trkpt><trkpt lat="42.13077905036493" lon="13.128647118680734"><ele>848.5</ele><time>2026-05-03T14:46:07Z</time></trkpt><trkpt lat="42.13055199260435" lon="13.12857005487153"><ele>852.0</ele><time>2026-05-03T14:46:08Z</time></trkpt><trkpt lat="42.130309600214225" lon="13.128486006060273"><ele>852.0</ele><time>2026-05-03T14:46:09Z</time></trkpt><trkpt lat="42.13002717183789" lon="13.128421301893223"><ele>852.0</ele><time>2026-05-03T14:46:10Z</time></trkpt><trkpt lat="42.12979016012717" lon="13.128336858718663"><ele>851.5</ele><time>2026-05-03T14:46:11Z</time></trkpt><trkpt lat="42.12956697876323" lon="13.12823506297062"><ele>851.0</ele><time>2026-05-03T14:46:12Z</time></trkpt><trkpt lat="42.12933624942071" lon="13.128166233791863"><ele>846.6666666666667</ele><time>2026-05-03T14:46:13Z</time></trkpt><trkpt lat="42.129117081334556" lon="13.128089628972264"><ele>842.3333333333333</ele><time>2026-05-03T14:46:14Z</time></trkpt><trkpt lat="42.12890968319477" lon="13.127996297570249"><ele>838.0</ele><time>2026-05-03T14:46:15Z</time></trkpt><trkpt lat="42.12870348219513" lon="13.127917032366822"><ele>836.6666666666666</ele><time>2026-05-03T14:46:16Z</time></trkpt><trkpt lat="42.12850682595084" lon="13.12782282555782"><ele>835.3333333333333</ele><time>2026-05-03T14:46:17Z</time></trkpt><trkpt lat="42.128318872570595" lon="13.127699589736592"><ele>834.0</ele><time>2026-05-03T14:46:18Z</time></trkpt><trkpt lat="42.128128848993924" lon="13.127565066331748"><ele>834.6666666666667</ele><time>2026-05-03T14:46:19Z</time></trkpt><trkpt lat="42.127976223232906" lon="13.12737269982103"><ele>835.3333333333334</ele><time>2026-05-03T14:46:20Z</time></trkpt><trkpt lat="42.12782769327152" lon="13.127167034317832"><ele>836.0</ele><time>2026-05-03T14:46:21Z</time></trkpt><trkpt lat="42.12769707909583" lon="13.126931446597391"><ele>836.0</ele><time>2026-05-03T14:46:22Z</time></trkpt><trkpt lat="42.127565667086735" lon="13.12666042391212"><ele>836.0</ele><time>2026-05-03T14:46:23Z</time></trkpt><trkpt lat="42.12742832436966" lon="13.126365444393715"><ele>843.5</ele><time>2026-05-03T14:46:24Z</time></trkpt><trkpt lat="42.12727699149681" lon="13.126069963861747"><ele>851.0</ele><time>2026-05-03T14:46:25Z</time></trkpt><trkpt lat="42.12713213506176" lon="13.125749203184277"><ele>844.5</ele><time>2026-05-03T14:46:26Z</time></trkpt><trkpt lat="42.12698346756789" lon="13.125426302909405"><ele>838.0</ele><time>2026-05-03T14:46:27Z</time></trkpt><trkpt lat="42.12683637581638" lon="13.125111920144487"><ele>839.5</ele><time>2026-05-03T14:46:27.999Z</time></trkpt><trkpt lat="42.12668736966702" lon="13.124804163350792"><ele>841.0</ele><time>2026-05-03T14:46:28.999Z</time></trkpt><trkpt lat="42.12653807812302" lon="13.124500491667"><ele>841.0</ele><time>2026-05-03T14:46:29.999Z</time></trkpt><trkpt lat="42.12640039793431" lon="13.124198221970897"><ele>841.0</ele><time>2026-05-03T14:46:30.999Z</time></trkpt><trkpt lat="42.126264159262256" lon="13.123902976016065"><ele>837.0</ele><time>2026-05-03T14:46:31.999Z</time></trkpt><trkpt lat="42.126130539165764" lon="13.12362129473931"><ele>833.0</ele><time>2026-05-03T14:46:32.999Z</time></trkpt><trkpt lat="42.125996703567125" lon="13.123353824556462"><ele>829.3333333333334</ele><time>2026-05-03T14:46:33.999Z</time></trkpt><trkpt lat="42.12588767739968" lon="13.123088666444708"><ele>825.6666666666667</ele><time>2026-05-03T14:46:34.999Z</time></trkpt><trkpt lat="42.12578081448654" lon="13.122860489130897"><ele>822.0</ele><time>2026-05-03T14:46:35.999Z</time></trkpt><trkpt lat="42.12567887789109" lon="13.122665082354045"><ele>825.6666666666667</ele><time>2026-05-03T14:46:36.999Z</time></trkpt><trkpt lat="42.125607383773186" lon="13.122471607286673"><ele>829.3333333333334</ele><time>2026-05-03T14:46:37.999Z</time></trkpt><trkpt lat="42.125573370918914" lon="13.122259212734251"><ele>833.0</ele><time>2026-05-03T14:46:38.999Z</time></trkpt><trkpt lat="42.125602817869044" lon="13.122030951957969"><ele>833.0</ele><time>2026-05-03T14:46:39.999Z</time></trkpt><trkpt lat="42.12565438776567" lon="13.12182407976313"><ele>833.0</ele><time>2026-05-03T14:46:40.999Z</time></trkpt><trkpt lat="42.125729046558675" lon="13.121621100586259"><ele>833.0</ele><time>2026-05-03T14:46:41.999Z</time></trkpt><trkpt lat="42.12586503110795" lon="13.121468670399027"><ele>822.0</ele><time>2026-05-03T14:46:42.999Z</time></trkpt><trkpt lat="42.12601632190581" lon="13.121363874882766"><ele>811.0</ele><time>2026-05-03T14:46:43.999Z</time></trkpt><trkpt lat="42.126182706887136" lon="13.121346011854035"><ele>800.0</ele><time>2026-05-03T14:46:44.999Z</time></trkpt><trkpt lat="42.12634339747856" lon="13.121364661929482"><ele>800.0</ele><time>2026-05-03T14:46:45.999Z</time></trkpt><trkpt lat="42.12649588249422" lon="13.121432426962762"><ele>800.0</ele><time>2026-05-03T14:46:46.999Z</time></trkpt><trkpt lat="42.126643439481896" lon="13.121555968424126"><ele>800.0</ele><time>2026-05-03T14:46:47.999Z</time></trkpt><trkpt lat="42.12677893776295" lon="13.121746231976156"><ele>801.6666666666667</ele><time>2026-05-03T14:46:48.999Z</time></trkpt><trkpt lat="42.12693154387731" lon="13.121943638568611"><ele>803.3333333333333</ele><time>2026-05-03T14:46:49.999Z</time></trkpt><trkpt lat="42.12707562873032" lon="13.122176108284334"><ele>805.0</ele><time>2026-05-03T14:46:50.999Z</time></trkpt><trkpt lat="42.12722112107415" lon="13.12240269162737"><ele>802.0</ele><time>2026-05-03T14:46:51.999Z</time></trkpt><trkpt lat="42.12737457618928" lon="13.122632676310682"><ele>799.0</ele><time>2026-05-03T14:46:52.999Z</time></trkpt><trkpt lat="42.1275231305767" lon="13.122865732943115"><ele>799.0</ele><time>2026-05-03T14:46:53.999Z</time></trkpt><trkpt lat="42.12766670320468" lon="13.123081901281056"><ele>799.0</ele><time>2026-05-03T14:46:54.999Z</time></trkpt><trkpt lat="42.127808291097075" lon="13.123288617111317"><ele>799.0</ele><time>2026-05-03T14:46:55.999Z</time></trkpt><trkpt lat="42.127955775737014" lon="13.123481200795858"><ele>801.6666666666666</ele><time>2026-05-03T14:46:56.999Z</time></trkpt><trkpt lat="42.128118807903526" lon="13.123643521852367"><ele>804.3333333333333</ele><time>2026-05-03T14:46:57.999Z</time></trkpt><trkpt lat="42.12830984965478" lon="13.123773822425202"><ele>807.0</ele><time>2026-05-03T14:46:58.999Z</time></trkpt><trkpt lat="42.1285278095859" lon="13.123867520561452"><ele>796.5</ele><time>2026-05-03T14:46:59.999Z</time></trkpt><trkpt lat="42.1287639213662" lon="13.123949818717575"><ele>786.0</ele><time>2026-05-03T14:47:00.999Z</time></trkpt><trkpt lat="42.129000503227665" lon="13.124061643169926"><ele>791.5</ele><time>2026-05-03T14:47:01.999Z</time></trkpt><trkpt lat="42.129232700889084" lon="13.124160545158798"><ele>797.0</ele><time>2026-05-03T14:47:02.999Z</time></trkpt><trkpt lat="42.12945724161293" lon="13.124256487643782"><ele>797.0</ele><time>2026-05-03T14:47:03.999Z</time></trkpt><trkpt lat="42.12967961884973" lon="13.12434948225511"><ele>797.0</ele><time>2026-05-03T14:47:04.999Z</time></trkpt><trkpt lat="42.12989104252227" lon="13.124436863024933"><ele>795.0</ele><time>2026-05-03T14:47:05.999Z</time></trkpt><trkpt lat="42.13009860627627" lon="13.124524523581165"><ele>793.0</ele><time>2026-05-03T14:47:06.999Z</time></trkpt><trkpt lat="42.13030024977392" lon="13.124616559072837"><ele>791.0</ele><time>2026-05-03T14:47:07.999Z</time></trkpt><trkpt lat="42.13049714516795" lon="13.124687080920227"><ele>791.0</ele><time>2026-05-03T14:47:08.999Z</time></trkpt><trkpt lat="42.13066455014381" lon="13.124794793421662"><ele>791.0</ele><time>2026-05-03T14:47:09.999Z</time></trkpt><trkpt lat="42.13083747167828" lon="13.124857806267636"><ele>791.0</ele><time>2026-05-03T14:47:10.999Z</time></trkpt><trkpt lat="42.13101954594787" lon="13.124928777838571"><ele>790.0</ele><time>2026-05-03T14:47:11.999Z</time></trkpt><trkpt lat="42.13121375424807" lon="13.124968016093367"><ele>789.0</ele><time>2026-05-03T14:47:12.999Z</time></trkpt><trkpt lat="42.131406664683944" lon="13.124965780105388"><ele>788.0</ele><time>2026-05-03T14:47:13.999Z</time></trkpt><trkpt lat="42.13159936492534" lon="13.12494015815634"><ele>779.3333333333334</ele><time>2026-05-03T14:47:14.999Z</time></trkpt><trkpt lat="42.13180012002387" lon="13.12487826973519"><ele>770.6666666666667</ele><time>2026-05-03T14:47:15.999Z</time></trkpt><trkpt lat="42.13199269597753" lon="13.124774685976131"><ele>762.0</ele><time>2026-05-03T14:47:16.999Z</time></trkpt><trkpt lat="42.13217169788314" lon="13.124629212991783"><ele>762.0</ele><time>2026-05-03T14:47:17.999Z</time></trkpt><trkpt lat="42.13233645943257" lon="13.124466170315234"><ele>762.0</ele><time>2026-05-03T14:47:18.999Z</time></trkpt><trkpt lat="42.13248310469627" lon="13.12428006853049"><ele>762.0</ele><time>2026-05-03T14:47:19.999Z</time></trkpt><trkpt lat="42.13260946196985" lon="13.124064393007739"><ele>763.6666666666666</ele><time>2026-05-03T14:47:20.999Z</time></trkpt><trkpt lat="42.13271384671662" lon="13.123829679681"><ele>765.3333333333333</ele><time>2026-05-03T14:47:21.999Z</time></trkpt><trkpt lat="42.13280974766744" lon="13.123586009513923"><ele>767.0</ele><time>2026-05-03T14:47:23.001Z</time></trkpt><trkpt lat="42.13289564865239" lon="13.123355785457413"><ele>761.0</ele><time>2026-05-03T14:47:24.001Z</time></trkpt><trkpt lat="42.1329807558651" lon="13.123148500700474"><ele>755.0</ele><time>2026-05-03T14:47:25.001Z</time></trkpt><trkpt lat="42.133050477177875" lon="13.12294537383431"><ele>749.0</ele><time>2026-05-03T14:47:26.001Z</time></trkpt><trkpt lat="42.13308504705579" lon="13.122715460464155"><ele>749.0</ele><time>2026-05-03T14:47:27.001Z</time></trkpt><trkpt lat="42.13308509683393" lon="13.12248579877149"><ele>749.0</ele><time>2026-05-03T14:47:28.001Z</time></trkpt><trkpt lat="42.13304493448858" lon="13.122252938120633"><ele>749.0</ele><time>2026-05-03T14:47:29.001Z</time></trkpt><trkpt lat="42.13296975680077" lon="13.122022445731533"><ele>752.3333333333333</ele><time>2026-05-03T14:47:30.001Z</time></trkpt><trkpt lat="42.1328765241225" lon="13.121784595527725"><ele>755.6666666666666</ele><time>2026-05-03T14:47:31.001Z</time></trkpt><trkpt lat="42.13271717633426" lon="13.121611989968748"><ele>759.0</ele><time>2026-05-03T14:47:32.001Z</time></trkpt><trkpt lat="42.13257269866966" lon="13.121424267016243"><ele>765.3333333333333</ele><time>2026-05-03T14:47:33.001Z</time></trkpt><trkpt lat="42.13244418525537" lon="13.12123744652483"><ele>771.6666666666666</ele><time>2026-05-03T14:47:34Z</time></trkpt><trkpt lat="42.13236697909816" lon="13.121005657844963"><ele>778.0</ele><time>2026-05-03T14:47:35Z</time></trkpt><trkpt lat="42.1323001702788" lon="13.120743536072407"><ele>757.0</ele><time>2026-05-03T14:47:36Z</time></trkpt><trkpt lat="42.1322505281111" lon="13.120439758051399"><ele>736.0</ele><time>2026-05-03T14:47:37Z</time></trkpt><trkpt lat="42.13220266530206" lon="13.120102846314403"><ele>736.0</ele><time>2026-05-03T14:47:38Z</time></trkpt><trkpt lat="42.13215718162831" lon="13.119778859271712"><ele>736.0</ele><time>2026-05-03T14:47:39Z</time></trkpt><trkpt lat="42.13211291142136" lon="13.119472477071772"><ele>736.0</ele><time>2026-05-03T14:47:40Z</time></trkpt><trkpt lat="42.13206612924718" lon="13.11917928700829"><ele>736.0</ele><time>2026-05-03T14:47:41Z</time></trkpt><trkpt lat="42.13199958000636" lon="13.118888038047222"><ele>736.0</ele><time>2026-05-03T14:47:42Z</time></trkpt><trkpt lat="42.13194619092373" lon="13.118598308039369"><ele>737.6666666666667</ele><time>2026-05-03T14:47:43Z</time></trkpt><trkpt lat="42.13189744262027" lon="13.118319120949268"><ele>739.3333333333334</ele><time>2026-05-03T14:47:44Z</time></trkpt><trkpt lat="42.131865274939976" lon="13.118035087085895"><ele>741.0</ele><time>2026-05-03T14:47:45Z</time></trkpt><trkpt lat="42.13188594334694" lon="13.117737175350811"><ele>741.0</ele><time>2026-05-03T14:47:46Z</time></trkpt><trkpt lat="42.13190293387579" lon="13.117418582498948"><ele>741.0</ele><time>2026-05-03T14:47:47Z</time></trkpt><trkpt lat="42.13191959101096" lon="13.117119846444126"><ele>740.3333333333334</ele><time>2026-05-03T14:47:48Z</time></trkpt><trkpt lat="42.13193627376033" lon="13.116817667639348"><ele>739.6666666666667</ele><time>2026-05-03T14:47:49Z</time></trkpt><trkpt lat="42.131910945555546" lon="13.116519879498236"><ele>739.0</ele><time>2026-05-03T14:47:50Z</time></trkpt><trkpt lat="42.13184934213419" lon="13.116267324010106"><ele>743.5</ele><time>2026-05-03T14:47:51Z</time></trkpt><trkpt lat="42.131769452146585" lon="13.11597958623169"><ele>748.0</ele><time>2026-05-03T14:47:52Z</time></trkpt><trkpt lat="42.13168587308368" lon="13.115700244240282"><ele>750.3333333333334</ele><time>2026-05-03T14:47:53Z</time></trkpt><trkpt lat="42.13161644506614" lon="13.115424687957342"><ele>752.6666666666666</ele><time>2026-05-03T14:47:54Z</time></trkpt><trkpt lat="42.13156833132508" lon="13.115133377134738"><ele>755.0</ele><time>2026-05-03T14:47:55Z</time></trkpt><trkpt lat="42.13153557760599" lon="13.114840718525624"><ele>746.0</ele><time>2026-05-03T14:47:56Z</time></trkpt><trkpt lat="42.1315146298727" lon="13.11455983262639"><ele>737.0</ele><time>2026-05-03T14:47:57Z</time></trkpt><trkpt lat="42.13149126714899" lon="13.114281090573229"><ele>728.0</ele><time>2026-05-03T14:47:58Z</time></trkpt><trkpt lat="42.1314467562987" lon="13.114012819248353"><ele>728.0</ele><time>2026-05-03T14:47:59Z</time></trkpt><trkpt lat="42.13138018682414" lon="13.113760720606193"><ele>728.0</ele><time>2026-05-03T14:48:00Z</time></trkpt><trkpt lat="42.13126670937887" lon="13.113536916191178"><ele>728.0</ele><time>2026-05-03T14:48:01Z</time></trkpt><trkpt lat="42.13111487247075" lon="13.113337184395018"><ele>732.3333333333333</ele><time>2026-05-03T14:48:02Z</time></trkpt><trkpt lat="42.13093870181105" lon="13.11316434194394"><ele>736.6666666666666</ele><time>2026-05-03T14:48:03Z</time></trkpt><trkpt lat="42.13075828193017" lon="13.113009192615294"><ele>741.0</ele><time>2026-05-03T14:48:04Z</time></trkpt><trkpt lat="42.130610312220696" lon="13.112843334814793"><ele>732.0</ele><time>2026-05-03T14:48:05Z</time></trkpt><trkpt lat="42.13049445822498" lon="13.112644054011374"><ele>723.0</ele><time>2026-05-03T14:48:06Z</time></trkpt><trkpt lat="42.13044631647548" lon="13.112406930346136"><ele>714.0</ele><time>2026-05-03T14:48:07Z</time></trkpt><trkpt lat="42.130425922051145" lon="13.112169602486619"><ele>714.0</ele><time>2026-05-03T14:48:08Z</time></trkpt><trkpt lat="42.1304329346078" lon="13.11192168322164"><ele>714.0</ele><time>2026-05-03T14:48:09Z</time></trkpt><trkpt lat="42.130440053394636" lon="13.111665571007734"><ele>714.0</ele><time>2026-05-03T14:48:10Z</time></trkpt><trkpt lat="42.13043442613007" lon="13.111439429388536"><ele>716.0</ele><time>2026-05-03T14:48:10.999Z</time></trkpt><trkpt lat="42.13039148985434" lon="13.111223318007486"><ele>718.0</ele><time>2026-05-03T14:48:11.999Z</time></trkpt><trkpt lat="42.13030143236592" lon="13.111033405602413"><ele>720.0</ele><time>2026-05-03T14:48:12.999Z</time></trkpt><trkpt lat="42.13017186685475" lon="13.11087035908314"><ele>720.0</ele><time>2026-05-03T14:48:13.999Z</time></trkpt><trkpt lat="42.130020633179996" lon="13.11075053061122"><ele>720.0</ele><time>2026-05-03T14:48:14.999Z</time></trkpt><trkpt lat="42.129849438186" lon="13.110675192560583"><ele>720.0</ele><time>2026-05-03T14:48:15.999Z</time></trkpt><trkpt lat="42.12966012049401" lon="13.110657119474258"><ele>718.3333333333334</ele><time>2026-05-03T14:48:16.999Z</time></trkpt><trkpt lat="42.1294569892193" lon="13.110691087771801"><ele>716.6666666666667</ele><time>2026-05-03T14:48:17.999Z</time></trkpt><trkpt lat="42.129231879188296" lon="13.110768066462622"><ele>715.0</ele><time>2026-05-03T14:48:18.999Z</time></trkpt><trkpt lat="42.12897984837331" lon="13.110852273478491"><ele>715.0</ele><time>2026-05-03T14:48:19.999Z</time></trkpt><trkpt lat="42.128717773801775" lon="13.110905787399206"><ele>715.0</ele><time>2026-05-03T14:48:20.999Z</time></trkpt><trkpt lat="42.12846225972829" lon="13.11094471615157"><ele>713.0</ele><time>2026-05-03T14:48:21.999Z</time></trkpt><trkpt lat="42.12819719989057" lon="13.110965585187676"><ele>711.0</ele><time>2026-05-03T14:48:22.999Z</time></trkpt><trkpt lat="42.127921770203244" lon="13.11098401538876"><ele>711.0</ele><time>2026-05-03T14:48:23.999Z</time></trkpt><trkpt lat="42.12763160445451" lon="13.110992845892268"><ele>711.0</ele><time>2026-05-03T14:48:24.999Z</time></trkpt><trkpt lat="42.12732577117133" lon="13.110999926965563"><ele>708.5</ele><time>2026-05-03T14:48:25.999Z</time></trkpt><trkpt lat="42.127010299170195" lon="13.111004293099345"><ele>706.0</ele><time>2026-05-03T14:48:26.999Z</time></trkpt><trkpt lat="42.126687448329946" lon="13.111003509962112"><ele>706.5</ele><time>2026-05-03T14:48:27.999Z</time></trkpt><trkpt lat="42.12638272007089" lon="13.111002067629784"><ele>707.0</ele><time>2026-05-03T14:48:28.999Z</time></trkpt><trkpt lat="42.126089373857106" lon="13.111003443130762"><ele>707.0</ele><time>2026-05-03T14:48:29.999Z</time></trkpt><trkpt lat="42.12580378282354" lon="13.11100264210229"><ele>707.0</ele><time>2026-05-03T14:48:30.999Z</time></trkpt><trkpt lat="42.125518575289796" lon="13.111001319880367"><ele>707.5</ele><time>2026-05-03T14:48:31.999Z</time></trkpt><trkpt lat="42.125242238577265" lon="13.111006435731246"><ele>708.0</ele><time>2026-05-03T14:48:32.999Z</time></trkpt><trkpt lat="42.124976408910904" lon="13.110998473548579"><ele>702.0</ele><time>2026-05-03T14:48:33.999Z</time></trkpt><trkpt lat="42.12471050740667" lon="13.110998559649424"><ele>696.0</ele><time>2026-05-03T14:48:34.999Z</time></trkpt><trkpt lat="42.12443967654938" lon="13.110994384511423"><ele>696.0</ele><time>2026-05-03T14:48:35.999Z</time></trkpt><trkpt lat="42.124173062959585" lon="13.110990833758153"><ele>696.0</ele><time>2026-05-03T14:48:36.999Z</time></trkpt><trkpt lat="42.123910874127624" lon="13.110989724971967"><ele>695.0</ele><time>2026-05-03T14:48:37.999Z</time></trkpt><trkpt lat="42.12364759890822" lon="13.110992460010364"><ele>694.0</ele><time>2026-05-03T14:48:38.999Z</time></trkpt><trkpt lat="42.123383900075325" lon="13.11099958870579"><ele>697.0</ele><time>2026-05-03T14:48:39.999Z</time></trkpt><trkpt lat="42.123127602562626" lon="13.111018792892745"><ele>700.0</ele><time>2026-05-03T14:48:40.999Z</time></trkpt><trkpt lat="42.12287997766692" lon="13.111067736800003"><ele>700.0</ele><time>2026-05-03T14:48:41.999Z</time></trkpt><trkpt lat="42.12263803439077" lon="13.111149079655219"><ele>700.0</ele><time>2026-05-03T14:48:42.999Z</time></trkpt><trkpt lat="42.12239685730794" lon="13.111271833118629"><ele>710.5</ele><time>2026-05-03T14:48:43.999Z</time></trkpt><trkpt lat="42.12217181063912" lon="13.111412304069484"><ele>721.0</ele><time>2026-05-03T14:48:44.999Z</time></trkpt><trkpt lat="42.12196471256848" lon="13.111573089574337"><ele>707.5</ele><time>2026-05-03T14:48:45.999Z</time></trkpt><trkpt lat="42.121766075049074" lon="13.111726373056644"><ele>694.0</ele><time>2026-05-03T14:48:46.999Z</time></trkpt><trkpt lat="42.12156215017149" lon="13.11184856619604"><ele>694.0</ele><time>2026-05-03T14:48:47.999Z</time></trkpt><trkpt lat="42.121346178290715" lon="13.111935692877529"><ele>694.0</ele><time>2026-05-03T14:48:48.999Z</time></trkpt><trkpt lat="42.121116896952124" lon="13.111988973315126"><ele>694.0</ele><time>2026-05-03T14:48:49.999Z</time></trkpt><trkpt lat="42.12087323189337" lon="13.11202171613717"><ele>694.0</ele><time>2026-05-03T14:48:50.999Z</time></trkpt><trkpt lat="42.120630825470876" lon="13.112039793844541"><ele>691.0</ele><time>2026-05-03T14:48:51.999Z</time></trkpt><trkpt lat="42.12039197371887" lon="13.112056262319095"><ele>688.0</ele><time>2026-05-03T14:48:52.999Z</time></trkpt><trkpt lat="42.120162732080345" lon="13.112068581334267"><ele>688.0</ele><time>2026-05-03T14:48:53.999Z</time></trkpt><trkpt lat="42.11993926927739" lon="13.112064670810273"><ele>688.0</ele><time>2026-05-03T14:48:54.999Z</time></trkpt><trkpt lat="42.11971885483375" lon="13.11202688688265"><ele>688.0</ele><time>2026-05-03T14:48:55.999Z</time></trkpt><trkpt lat="42.11948187486721" lon="13.111947849915152"><ele>680.5</ele><time>2026-05-03T14:48:56.999Z</time></trkpt><trkpt lat="42.119237682827475" lon="13.111827707898888"><ele>673.0</ele><time>2026-05-03T14:48:57.999Z</time></trkpt><trkpt lat="42.11900459599305" lon="13.111704502567264"><ele>675.0</ele><time>2026-05-03T14:48:58.999Z</time></trkpt><trkpt lat="42.11878719788377" lon="13.111610893083904"><ele>677.0</ele><time>2026-05-03T14:48:59.999Z</time></trkpt><trkpt lat="42.118595721599284" lon="13.111510761911005"><ele>679.0</ele><time>2026-05-03T14:49:00.999Z</time></trkpt><trkpt lat="42.1184153571368" lon="13.11138527905785"><ele>679.0</ele><time>2026-05-03T14:49:01.999Z</time></trkpt><trkpt lat="42.11825514886405" lon="13.111212713752662"><ele>679.0</ele><time>2026-05-03T14:49:02.999Z</time></trkpt><trkpt lat="42.11811577953657" lon="13.1110052994612"><ele>679.0</ele><time>2026-05-03T14:49:03.999Z</time></trkpt><trkpt lat="42.117991934943234" lon="13.110749222985092"><ele>666.5</ele><time>2026-05-03T14:49:04.999Z</time></trkpt><trkpt lat="42.11788176467844" lon="13.110462151771427"><ele>654.0</ele><time>2026-05-03T14:49:05.999Z</time></trkpt><trkpt lat="42.11778332625499" lon="13.11013895196161"><ele>657.0</ele><time>2026-05-03T14:49:06.999Z</time></trkpt><trkpt lat="42.11768506243699" lon="13.109807653031927"><ele>660.0</ele><time>2026-05-03T14:49:07.999Z</time></trkpt><trkpt lat="42.11758308382664" lon="13.109481034559286"><ele>660.0</ele><time>2026-05-03T14:49:08.998Z</time></trkpt><trkpt lat="42.117485577575394" lon="13.109170325283069"><ele>660.0</ele><time>2026-05-03T14:49:09.998Z</time></trkpt><trkpt lat="42.117390953098024" lon="13.108862835364631"><ele>650.0</ele><time>2026-05-03T14:49:10.998Z</time></trkpt><trkpt lat="42.117298750067754" lon="13.108574011792728"><ele>640.0</ele><time>2026-05-03T14:49:11.998Z</time></trkpt><trkpt lat="42.117224184305584" lon="13.108277699632602"><ele>639.5</ele><time>2026-05-03T14:49:12.998Z</time></trkpt><trkpt lat="42.11717226802013" lon="13.107970482752895"><ele>639.0</ele><time>2026-05-03T14:49:13.998Z</time></trkpt><trkpt lat="42.11713787651073" lon="13.107635675524726"><ele>638.5</ele><time>2026-05-03T14:49:14.998Z</time></trkpt><trkpt lat="42.117128269545155" lon="13.107281232093731"><ele>638.0</ele><time>2026-05-03T14:49:15.998Z</time></trkpt><trkpt lat="42.117130418712044" lon="13.10693966490494"><ele>638.0</ele><time>2026-05-03T14:49:16.998Z</time></trkpt><trkpt lat="42.11714055942529" lon="13.106598382613853"><ele>638.0</ele><time>2026-05-03T14:49:17.998Z</time></trkpt><trkpt lat="42.11715870289523" lon="13.106256324356567"><ele>637.5</ele><time>2026-05-03T14:49:18.998Z</time></trkpt><trkpt lat="42.11719504491361" lon="13.10590237603845"><ele>637.0</ele><time>2026-05-03T14:49:19.998Z</time></trkpt><trkpt lat="42.11724852166156" lon="13.105534467152031"><ele>637.0</ele><time>2026-05-03T14:49:20.998Z</time></trkpt><trkpt lat="42.11730686580138" lon="13.105176500786477"><ele>637.0</ele><time>2026-05-03T14:49:21.998Z</time></trkpt><trkpt lat="42.11736919440109" lon="13.104833109326457"><ele>636.0</ele><time>2026-05-03T14:49:22.998Z</time></trkpt><trkpt lat="42.11742765391288" lon="13.104483550657816"><ele>635.0</ele><time>2026-05-03T14:49:23.998Z</time></trkpt><trkpt lat="42.117473585533084" lon="13.104134773396394"><ele>635.0</ele><time>2026-05-03T14:49:24.998Z</time></trkpt><trkpt lat="42.11751621602565" lon="13.103776494213063"><ele>635.0</ele><time>2026-05-03T14:49:25.998Z</time></trkpt><trkpt lat="42.117498683557116" lon="13.103396589816745"><ele>635.0</ele><time>2026-05-03T14:49:26.998Z</time></trkpt><trkpt lat="42.11750514145189" lon="13.103006160722439"><ele>635.0</ele><time>2026-05-03T14:49:27.998Z</time></trkpt><trkpt lat="42.117497023316" lon="13.10261924892691"><ele>635.5</ele><time>2026-05-03T14:49:29Z</time></trkpt><trkpt lat="42.117487451082326" lon="13.102240310354576"><ele>636.0</ele><time>2026-05-03T14:49:30Z</time></trkpt><trkpt lat="42.117479463400485" lon="13.101885180694662"><ele>634.0</ele><time>2026-05-03T14:49:31Z</time></trkpt><trkpt lat="42.11745926385929" lon="13.101544993139559"><ele>632.0</ele><time>2026-05-03T14:49:32Z</time></trkpt><trkpt lat="42.117476412615" lon="13.101214208542471"><ele>632.0</ele><time>2026-05-03T14:49:33Z</time></trkpt><trkpt lat="42.1175208603659" lon="13.100894840903473"><ele>632.0</ele><time>2026-05-03T14:49:34Z</time></trkpt><trkpt lat="42.11758895205907" lon="13.100581964169066"><ele>631.0</ele><time>2026-05-03T14:49:35Z</time></trkpt><trkpt lat="42.117696080701435" lon="13.100295345078342"><ele>630.0</ele><time>2026-05-03T14:49:36Z</time></trkpt><trkpt lat="42.117821719165235" lon="13.100018029885115"><ele>629.0</ele><time>2026-05-03T14:49:37Z</time></trkpt><trkpt lat="42.11796629364943" lon="13.099743131904473"><ele>628.0</ele><time>2026-05-03T14:49:38Z</time></trkpt><trkpt lat="42.11811241581713" lon="13.099450183033705"><ele>628.0</ele><time>2026-05-03T14:49:39Z</time></trkpt><trkpt lat="42.1182645541725" lon="13.099180486493294"><ele>628.0</ele><time>2026-05-03T14:49:40Z</time></trkpt><trkpt lat="42.11840254041813" lon="13.09890477482959"><ele>626.5</ele><time>2026-05-03T14:49:41Z</time></trkpt><trkpt lat="42.11852243714995" lon="13.098601450132431"><ele>625.0</ele><time>2026-05-03T14:49:42Z</time></trkpt><trkpt lat="42.11862182985414" lon="13.098298786141541"><ele>624.5</ele><time>2026-05-03T14:49:43Z</time></trkpt><trkpt lat="42.11870630418636" lon="13.097988937022382"><ele>624.0</ele><time>2026-05-03T14:49:44Z</time></trkpt><trkpt lat="42.118765232850166" lon="13.097656224886014"><ele>623.5</ele><time>2026-05-03T14:49:45Z</time></trkpt><trkpt lat="42.11880698110608" lon="13.097309849543894"><ele>623.0</ele><time>2026-05-03T14:49:46Z</time></trkpt><trkpt lat="42.11882494851349" lon="13.096944044902708"><ele>623.5</ele><time>2026-05-03T14:49:47Z</time></trkpt><trkpt lat="42.11883545284296" lon="13.096583412845467"><ele>624.0</ele><time>2026-05-03T14:49:48Z</time></trkpt><trkpt lat="42.118852300084995" lon="13.096245236364508"><ele>624.0</ele><time>2026-05-03T14:49:49Z</time></trkpt><trkpt lat="42.118865804018924" lon="13.095918103604022"><ele>624.0</ele><time>2026-05-03T14:49:50Z</time></trkpt><trkpt lat="42.11887120527798" lon="13.095594901425992"><ele>624.5</ele><time>2026-05-03T14:49:51Z</time></trkpt><trkpt lat="42.11884600541439" lon="13.095264175467392"><ele>625.0</ele><time>2026-05-03T14:49:52Z</time></trkpt><trkpt lat="42.118791721981516" lon="13.094925376082838"><ele>626.5</ele><time>2026-05-03T14:49:53Z</time></trkpt><trkpt lat="42.11871944908246" lon="13.094573904201859"><ele>628.0</ele><time>2026-05-03T14:49:54Z</time></trkpt><trkpt lat="42.11866282211549" lon="13.094213601115397"><ele>629.5</ele><time>2026-05-03T14:49:55Z</time></trkpt><trkpt lat="42.11859717866244" lon="13.093865133846245"><ele>631.0</ele><time>2026-05-03T14:49:56Z</time></trkpt><trkpt lat="42.11853200542689" lon="13.093520317049201"><ele>631.5</ele><time>2026-05-03T14:49:57Z</time></trkpt><trkpt lat="42.118452801003045" lon="13.093176507615784"><ele>632.0</ele><time>2026-05-03T14:49:58Z</time></trkpt><trkpt lat="42.11838833854787" lon="13.092842066842277"><ele>632.0</ele><time>2026-05-03T14:49:59Z</time></trkpt><trkpt lat="42.11834180476889" lon="13.092515375124773"><ele>632.0</ele><time>2026-05-03T14:50:00Z</time></trkpt><trkpt lat="42.11827175380503" lon="13.092204719152363"><ele>626.5</ele><time>2026-05-03T14:50:01Z</time></trkpt><trkpt lat="42.118223096919436" lon="13.091898370390853"><ele>621.0</ele><time>2026-05-03T14:50:02Z</time></trkpt><trkpt lat="42.118161585548464" lon="13.091600285662718"><ele>621.0</ele><time>2026-05-03T14:50:03Z</time></trkpt><trkpt lat="42.118107112496276" lon="13.091306206474513"><ele>621.0</ele><time>2026-05-03T14:50:04Z</time></trkpt><trkpt lat="42.11805568496961" lon="13.091030386563126"><ele>621.0</ele><time>2026-05-03T14:50:05Z</time></trkpt><trkpt lat="42.11799499525348" lon="13.090756320369415"><ele>620.6666666666666</ele><time>2026-05-03T14:50:06Z</time></trkpt><trkpt lat="42.11792455478817" lon="13.090498419940033"><ele>620.3333333333333</ele><time>2026-05-03T14:50:07Z</time></trkpt><trkpt lat="42.11783312922374" lon="13.090223756190486"><ele>620.0</ele><time>2026-05-03T14:50:08Z</time></trkpt><trkpt lat="42.11773462778669" lon="13.089936317290679"><ele>622.5</ele><time>2026-05-03T14:50:09Z</time></trkpt><trkpt lat="42.117639446684485" lon="13.08962376103947"><ele>625.0</ele><time>2026-05-03T14:50:10Z</time></trkpt><trkpt lat="42.11753870623312" lon="13.089293119718526"><ele>626.0</ele><time>2026-05-03T14:50:11Z</time></trkpt><trkpt lat="42.117440281811106" lon="13.088961582417614"><ele>627.0</ele><time>2026-05-03T14:50:12Z</time></trkpt><trkpt lat="42.11729791616996" lon="13.088615494291698"><ele>624.0</ele><time>2026-05-03T14:50:13Z</time></trkpt><trkpt lat="42.11711195279134" lon="13.088268303566165"><ele>621.0</ele><time>2026-05-03T14:50:14Z</time></trkpt><trkpt lat="42.11698220680488" lon="13.087945861606856"><ele>621.0</ele><time>2026-05-03T14:50:15Z</time></trkpt><trkpt lat="42.11685836090639" lon="13.08761762373737"><ele>621.0</ele><time>2026-05-03T14:50:16Z</time></trkpt><trkpt lat="42.11673584542339" lon="13.087308743487275"><ele>619.5</ele><time>2026-05-03T14:50:17Z</time></trkpt><trkpt lat="42.116621049131474" lon="13.087010517519314"><ele>618.0</ele><time>2026-05-03T14:50:17.999Z</time></trkpt><trkpt lat="42.11650925659276" lon="13.086715605512959"><ele>620.0</ele><time>2026-05-03T14:50:18.999Z</time></trkpt><trkpt lat="42.11639613693611" lon="13.086416403168284"><ele>622.0</ele><time>2026-05-03T14:50:19.999Z</time></trkpt><trkpt lat="42.11628864531364" lon="13.086119930860304"><ele>622.0</ele><time>2026-05-03T14:50:20.999Z</time></trkpt><trkpt lat="42.116180804846174" lon="13.085836744910976"><ele>622.0</ele><time>2026-05-03T14:50:21.999Z</time></trkpt><trkpt lat="42.11606953882659" lon="13.085557923229866"><ele>625.0</ele><time>2026-05-03T14:50:22.999Z</time></trkpt><trkpt lat="42.11594962982732" lon="13.085287241154743"><ele>628.0</ele><time>2026-05-03T14:50:23.999Z</time></trkpt><trkpt lat="42.115805683951386" lon="13.08503560349496"><ele>625.0</ele><time>2026-05-03T14:50:24.999Z</time></trkpt><trkpt lat="42.11564481647878" lon="13.084801610594555"><ele>622.0</ele><time>2026-05-03T14:50:25.999Z</time></trkpt><trkpt lat="42.11547175520107" lon="13.084588166416832"><ele>622.0</ele><time>2026-05-03T14:50:26.999Z</time></trkpt><trkpt lat="42.115303644434846" lon="13.084369734740775"><ele>622.0</ele><time>2026-05-03T14:50:27.999Z</time></trkpt><trkpt lat="42.11513911349796" lon="13.084151672959363"><ele>621.0</ele><time>2026-05-03T14:50:28.999Z</time></trkpt><trkpt lat="42.11496922852323" lon="13.083940338916285"><ele>620.0</ele><time>2026-05-03T14:50:29.999Z</time></trkpt><trkpt lat="42.11466463845495" lon="13.083919944526558"><ele>620.0</ele><time>2026-05-03T14:50:30.999Z</time></trkpt><trkpt lat="42.114467644281476" lon="13.083772594182703"><ele>620.0</ele><time>2026-05-03T14:50:31.999Z</time></trkpt><trkpt lat="42.11426661472628" lon="13.083629730322336"><ele>617.5</ele><time>2026-05-03T14:50:32.999Z</time></trkpt><trkpt lat="42.11405413977494" lon="13.083504930049912"><ele>615.0</ele><time>2026-05-03T14:50:33.999Z</time></trkpt><trkpt lat="42.11383476672667" lon="13.083406110510312"><ele>615.0</ele><time>2026-05-03T14:50:34.999Z</time></trkpt><trkpt lat="42.113609738359294" lon="13.083328385720794"><ele>615.0</ele><time>2026-05-03T14:50:35.999Z</time></trkpt><trkpt lat="42.11337891978741" lon="13.083275808977765"><ele>622.5</ele><time>2026-05-03T14:50:36.999Z</time></trkpt><trkpt lat="42.11314314815488" lon="13.083252795371155"><ele>630.0</ele><time>2026-05-03T14:50:37.999Z</time></trkpt><trkpt lat="42.1129039518949" lon="13.083248564345764"><ele>630.0</ele><time>2026-05-03T14:50:38.999Z</time></trkpt><trkpt lat="42.11265943492955" lon="13.083262175489276"><ele>630.0</ele><time>2026-05-03T14:50:39.999Z</time></trkpt><trkpt lat="42.11242677038279" lon="13.083279209788516"><ele>626.5</ele><time>2026-05-03T14:50:40.999Z</time></trkpt><trkpt lat="42.11220254539629" lon="13.083297240593676"><ele>623.0</ele><time>2026-05-03T14:50:41.999Z</time></trkpt><trkpt lat="42.11197095044226" lon="13.083314212854802"><ele>623.0</ele><time>2026-05-03T14:50:42.999Z</time></trkpt><trkpt lat="42.11173686152756" lon="13.08332144124476"><ele>623.0</ele><time>2026-05-03T14:50:43.999Z</time></trkpt><trkpt lat="42.1115009299927" lon="13.083330740877761"><ele>624.5</ele><time>2026-05-03T14:50:44.999Z</time></trkpt><trkpt lat="42.11126275918662" lon="13.08334136414632"><ele>626.0</ele><time>2026-05-03T14:50:45.999Z</time></trkpt><trkpt lat="42.111019164502956" lon="13.083343932994655"><ele>626.0</ele><time>2026-05-03T14:50:46.999Z</time></trkpt><trkpt lat="42.110765408658445" lon="13.08334041190524"><ele>626.0</ele><time>2026-05-03T14:50:47.999Z</time></trkpt><trkpt lat="42.11049902248204" lon="13.083343808774167"><ele>626.0</ele><time>2026-05-03T14:50:48.999Z</time></trkpt><trkpt lat="42.110241975305335" lon="13.083355826204683"><ele>626.0</ele><time>2026-05-03T14:50:49.999Z</time></trkpt><trkpt lat="42.110008194345305" lon="13.083351526350599"><ele>623.0</ele><time>2026-05-03T14:50:50.999Z</time></trkpt><trkpt lat="42.109774836761886" lon="13.08336670925211"><ele>620.0</ele><time>2026-05-03T14:50:51.999Z</time></trkpt><trkpt lat="42.10955714085226" lon="13.083398430640123"><ele>620.0</ele><time>2026-05-03T14:50:52.999Z</time></trkpt><trkpt lat="42.109339736934885" lon="13.083435069754959"><ele>620.0</ele><time>2026-05-03T14:50:53.999Z</time></trkpt><trkpt lat="42.10914009652476" lon="13.08345781478211"><ele>620.0</ele><time>2026-05-03T14:50:54.999Z</time></trkpt><trkpt lat="42.1089484692189" lon="13.083477214051747"><ele>620.6666666666666</ele><time>2026-05-03T14:50:55.999Z</time></trkpt><trkpt lat="42.1087663091557" lon="13.083494798123475"><ele>621.3333333333334</ele><time>2026-05-03T14:50:56.999Z</time></trkpt><trkpt lat="42.108583339884575" lon="13.083529623449095"><ele>622.0</ele><time>2026-05-03T14:50:57.999Z</time></trkpt><trkpt lat="42.10840759554296" lon="13.083530761931469"><ele>621.6666666666667</ele><time>2026-05-03T14:50:58.999Z</time></trkpt><trkpt lat="42.10824084262431" lon="13.08352302455693"><ele>621.3333333333334</ele><time>2026-05-03T14:50:59.999Z</time></trkpt><trkpt lat="42.108076428930254" lon="13.083497814669192"><ele>621.0</ele><time>2026-05-03T14:51:00.999Z</time></trkpt><trkpt lat="42.107917094139346" lon="13.083457663771876"><ele>621.0</ele><time>2026-05-03T14:51:01.999Z</time></trkpt><trkpt lat="42.10776038809259" lon="13.083413483562392"><ele>621.0</ele><time>2026-05-03T14:51:02.999Z</time></trkpt><trkpt lat="42.10759803682419" lon="13.08336501354489"><ele>621.0</ele><time>2026-05-03T14:51:03.999Z</time></trkpt><trkpt lat="42.107429749994246" lon="13.083325645904964"><ele>620.3333333333334</ele><time>2026-05-03T14:51:04.999Z</time></trkpt><trkpt lat="42.107256068268455" lon="13.08330340649347"><ele>619.6666666666667</ele><time>2026-05-03T14:51:05.999Z</time></trkpt><trkpt lat="42.10707842108595" lon="13.083292251290548"><ele>619.0</ele><time>2026-05-03T14:51:06.999Z</time></trkpt><trkpt lat="42.10689823663146" lon="13.08330392976476"><ele>619.0</ele><time>2026-05-03T14:51:07.999Z</time></trkpt><trkpt lat="42.10673052928404" lon="13.083324918644688"><ele>619.0</ele><time>2026-05-03T14:51:08.999Z</time></trkpt><trkpt lat="42.106577321700094" lon="13.083346519864582"><ele>619.0</ele><time>2026-05-03T14:51:09.999Z</time></trkpt><trkpt lat="42.106419448236416" lon="13.08335965625607"><ele>620.0</ele><time>2026-05-03T14:51:10.999Z</time></trkpt><trkpt lat="42.106257641691265" lon="13.083383232665117"><ele>621.0</ele><time>2026-05-03T14:51:11.999Z</time></trkpt><trkpt lat="42.106095476959084" lon="13.083414910120254"><ele>622.0</ele><time>2026-05-03T14:51:12.999Z</time></trkpt><trkpt lat="42.10593710058955" lon="13.083456870900326"><ele>622.0</ele><time>2026-05-03T14:51:13.999Z</time></trkpt><trkpt lat="42.10578204069857" lon="13.083507159340744"><ele>622.0</ele><time>2026-05-03T14:51:14.999Z</time></trkpt><trkpt lat="42.105628506768156" lon="13.083582310143434"><ele>622.0</ele><time>2026-05-03T14:51:15.999Z</time></trkpt><trkpt lat="42.10548588878042" lon="13.083659988027792"><ele>625.0</ele><time>2026-05-03T14:51:16.998Z</time></trkpt><trkpt lat="42.105348375575936" lon="13.083740775009026"><ele>628.0</ele><time>2026-05-03T14:51:17.998Z</time></trkpt><trkpt lat="42.10521063966261" lon="13.083827884170693"><ele>631.0</ele><time>2026-05-03T14:51:18.998Z</time></trkpt><trkpt lat="42.10508010152989" lon="13.083918064987463"><ele>634.0</ele><time>2026-05-03T14:51:19.998Z</time></trkpt><trkpt lat="42.104944782187005" lon="13.084024284188924"><ele>630.6666666666667</ele><time>2026-05-03T14:51:20.998Z</time></trkpt><trkpt lat="42.104791782720824" lon="13.084130347140219"><ele>627.3333333333334</ele><time>2026-05-03T14:51:21.998Z</time></trkpt><trkpt lat="42.10464713834089" lon="13.084213860625123"><ele>624.0</ele><time>2026-05-03T14:51:22.998Z</time></trkpt><trkpt lat="42.10450652845331" lon="13.084298161151365"><ele>624.0</ele><time>2026-05-03T14:51:23.998Z</time></trkpt><trkpt lat="42.10436538818789" lon="13.084379255077753"><ele>624.0</ele><time>2026-05-03T14:51:24.998Z</time></trkpt><trkpt lat="42.10422070769739" lon="13.084460686236868"><ele>624.0</ele><time>2026-05-03T14:51:25.998Z</time></trkpt><trkpt lat="42.104072546670096" lon="13.084533432014085"><ele>624.3333333333334</ele><time>2026-05-03T14:51:26.998Z</time></trkpt><trkpt lat="42.10392408389327" lon="13.084586518297188"><ele>624.6666666666667</ele><time>2026-05-03T14:51:27.998Z</time></trkpt><trkpt lat="42.103774648715486" lon="13.084624056239942"><ele>625.0</ele><time>2026-05-03T14:51:28.998Z</time></trkpt><trkpt lat="42.10362051524006" lon="13.084645422635392"><ele>625.0</ele><time>2026-05-03T14:51:29.998Z</time></trkpt><trkpt lat="42.10346759692105" lon="13.084664902859112"><ele>625.0</ele><time>2026-05-03T14:51:30.998Z</time></trkpt><trkpt lat="42.10331759606395" lon="13.08467742160805"><ele>625.0</ele><time>2026-05-03T14:51:31.998Z</time></trkpt><trkpt lat="42.10317225695054" lon="13.084672660258576"><ele>625.0</ele><time>2026-05-03T14:51:32.998Z</time></trkpt><trkpt lat="42.1030272767874" lon="13.084658068250171"><ele>623.5</ele><time>2026-05-03T14:51:33.998Z</time></trkpt><trkpt lat="42.10288783807423" lon="13.08463444463008"><ele>622.0</ele><time>2026-05-03T14:51:35Z</time></trkpt><trkpt lat="42.102760091177934" lon="13.084589412328398"><ele>620.5</ele><time>2026-05-03T14:51:36Z</time></trkpt><trkpt lat="42.102640618598215" lon="13.084531195002327"><ele>619.0</ele><time>2026-05-03T14:51:37Z</time></trkpt><trkpt lat="42.102526632446825" lon="13.084470345952912"><ele>616.75</ele><time>2026-05-03T14:51:38Z</time></trkpt><trkpt lat="42.102403746245" lon="13.084404464440412"><ele>614.5</ele><time>2026-05-03T14:51:39Z</time></trkpt><trkpt lat="42.10228533411257" lon="13.084330245546179"><ele>612.25</ele><time>2026-05-03T14:51:40Z</time></trkpt><trkpt lat="42.10216370772059" lon="13.08425209811941"><ele>610.0</ele><time>2026-05-03T14:51:41Z</time></trkpt><trkpt lat="42.102011355665" lon="13.084186396448318"><ele>610.0</ele><time>2026-05-03T14:51:42Z</time></trkpt><trkpt lat="42.10185674858899" lon="13.084119744677778"><ele>610.0</ele><time>2026-05-03T14:51:43Z</time></trkpt><trkpt lat="42.101719116615826" lon="13.084058283360916"><ele>610.0</ele><time>2026-05-03T14:51:44Z</time></trkpt><trkpt lat="42.10158826179217" lon="13.084014357569595"><ele>610.0</ele><time>2026-05-03T14:51:45Z</time></trkpt><trkpt lat="42.10146552945761" lon="13.083993493136068"><ele>612.0</ele><time>2026-05-03T14:51:46Z</time></trkpt><trkpt lat="42.10135223743549" lon="13.08398445450115"><ele>614.0</ele><time>2026-05-03T14:51:47Z</time></trkpt><trkpt lat="42.101245180602525" lon="13.08398708660895"><ele>616.0</ele><time>2026-05-03T14:51:48Z</time></trkpt><trkpt lat="42.10115326065949" lon="13.083989968208616"><ele>618.0</ele><time>2026-05-03T14:51:49Z</time></trkpt><trkpt lat="42.10104640300625" lon="13.083992183598067"><ele>620.0</ele><time>2026-05-03T14:51:50Z</time></trkpt><trkpt lat="42.10093133781374" lon="13.083991727167735"><ele>620.0</ele><time>2026-05-03T14:51:51Z</time></trkpt><trkpt lat="42.10081023449859" lon="13.083993306107288"><ele>620.0</ele><time>2026-05-03T14:51:52Z</time></trkpt><trkpt lat="42.1006833955834" lon="13.083989083086976"><ele>620.0</ele><time>2026-05-03T14:51:53Z</time></trkpt><trkpt lat="42.100553161502305" lon="13.083977193985506"><ele>620.0</ele><time>2026-05-03T14:51:54Z</time></trkpt><trkpt lat="42.10041518150283" lon="13.083960928086187"><ele>619.3333333333333</ele><time>2026-05-03T14:51:55Z</time></trkpt><trkpt lat="42.100262097828804" lon="13.083940100901888"><ele>618.6666666666666</ele><time>2026-05-03T14:51:56Z</time></trkpt><trkpt lat="42.100106546417706" lon="13.083903411374003"><ele>618.0</ele><time>2026-05-03T14:51:57Z</time></trkpt><trkpt lat="42.09994848560058" lon="13.083857917257765"><ele>615.75</ele><time>2026-05-03T14:51:58Z</time></trkpt><trkpt lat="42.09981157580626" lon="13.083818337166509"><ele>613.5</ele><time>2026-05-03T14:51:59Z</time></trkpt><trkpt lat="42.09968426116118" lon="13.083754540840298"><ele>611.25</ele><time>2026-05-03T14:52:00Z</time></trkpt><trkpt lat="42.099565145727176" lon="13.08367537096264"><ele>609.0</ele><time>2026-05-03T14:52:01Z</time></trkpt><trkpt lat="42.09945255325767" lon="13.083592952369616"><ele>609.0</ele><time>2026-05-03T14:52:02Z</time></trkpt><trkpt lat="42.099341765759846" lon="13.083509218861206"><ele>609.0</ele><time>2026-05-03T14:52:03Z</time></trkpt><trkpt lat="42.09923883406482" lon="13.083412904212688"><ele>609.0</ele><time>2026-05-03T14:52:04Z</time></trkpt><trkpt lat="42.099137931136895" lon="13.083314088428732"><ele>609.0</ele><time>2026-05-03T14:52:05Z</time></trkpt><trkpt lat="42.09903148144355" lon="13.083220821468961"><ele>608.25</ele><time>2026-05-03T14:52:06Z</time></trkpt><trkpt lat="42.09892597430302" lon="13.083123526407004"><ele>607.5</ele><time>2026-05-03T14:52:07Z</time></trkpt><trkpt lat="42.09881843488403" lon="13.083014524609533"><ele>606.75</ele><time>2026-05-03T14:52:08Z</time></trkpt><trkpt lat="42.098720130105036" lon="13.08288630675281"><ele>606.0</ele><time>2026-05-03T14:52:09Z</time></trkpt><trkpt lat="42.09861127990472" lon="13.08277729690116"><ele>606.0</ele><time>2026-05-03T14:52:10Z</time></trkpt><trkpt lat="42.09850278778391" lon="13.08266862237581"><ele>606.0</ele><time>2026-05-03T14:52:11Z</time></trkpt><trkpt lat="42.09838855939188" lon="13.082574436733793"><ele>606.0</ele><time>2026-05-03T14:52:12Z</time></trkpt><trkpt lat="42.0982872057562" lon="13.082465041790966"><ele>606.0</ele><time>2026-05-03T14:52:13Z</time></trkpt><trkpt lat="42.09818603300452" lon="13.082351549033833"><ele>605.0</ele><time>2026-05-03T14:52:14Z</time></trkpt><trkpt lat="42.09808227158756" lon="13.082245250368983"><ele>604.0</ele><time>2026-05-03T14:52:14.999Z</time></trkpt><trkpt lat="42.09798243760173" lon="13.082132272891027"><ele>603.0</ele><time>2026-05-03T14:52:15.999Z</time></trkpt><trkpt lat="42.09787291465695" lon="13.0820327165957"><ele>602.0</ele><time>2026-05-03T14:52:16.999Z</time></trkpt><trkpt lat="42.0977617171376" lon="13.081928352082627"><ele>602.0</ele><time>2026-05-03T14:52:17.999Z</time></trkpt><trkpt lat="42.09764757176517" lon="13.081821034291304"><ele>602.0</ele><time>2026-05-03T14:52:18.999Z</time></trkpt><trkpt lat="42.09753046204915" lon="13.081701466313248"><ele>602.0</ele><time>2026-05-03T14:52:19.999Z</time></trkpt><trkpt lat="42.09741329371599" lon="13.081571088310376"><ele>602.0</ele><time>2026-05-03T14:52:20.999Z</time></trkpt><trkpt lat="42.097291138320045" lon="13.08143434451273"><ele>602.0</ele><time>2026-05-03T14:52:21.999Z</time></trkpt><trkpt lat="42.097163567531105" lon="13.081265614607723"><ele>602.0</ele><time>2026-05-03T14:52:22.999Z</time></trkpt><trkpt lat="42.09703472859507" lon="13.08106907310814"><ele>602.0</ele><time>2026-05-03T14:52:23.999Z</time></trkpt><trkpt lat="42.096910951160126" lon="13.080858526644786"><ele>602.0</ele><time>2026-05-03T14:52:24.999Z</time></trkpt><trkpt lat="42.09679647530538" lon="13.080647647461719"><ele>602.0</ele><time>2026-05-03T14:52:25.999Z</time></trkpt><trkpt lat="42.0966788190106" lon="13.080438572601873"><ele>602.0</ele><time>2026-05-03T14:52:26.999Z</time></trkpt><trkpt lat="42.09655739310059" lon="13.08023183814663"><ele>602.0</ele><time>2026-05-03T14:52:27.999Z</time></trkpt><trkpt lat="42.096433484609015" lon="13.080023357905722"><ele>602.0</ele><time>2026-05-03T14:52:28.999Z</time></trkpt><trkpt lat="42.09629784990293" lon="13.079811900818996"><ele>602.0</ele><time>2026-05-03T14:52:29.999Z</time></trkpt><trkpt lat="42.09614002368804" lon="13.079601013704998"><ele>605.0</ele><time>2026-05-03T14:52:30.999Z</time></trkpt><trkpt lat="42.0959585383297" lon="13.079404759764213"><ele>608.0</ele><time>2026-05-03T14:52:31.999Z</time></trkpt><trkpt lat="42.095768284257026" lon="13.079204293827825"><ele>608.5</ele><time>2026-05-03T14:52:32.999Z</time></trkpt><trkpt lat="42.09555203827406" lon="13.079050004647534"><ele>609.0</ele><time>2026-05-03T14:52:33.999Z</time></trkpt><trkpt lat="42.095349512219094" lon="13.078884432583267"><ele>609.0</ele><time>2026-05-03T14:52:34.999Z</time></trkpt><trkpt lat="42.09515133640855" lon="13.078726279627485"><ele>609.0</ele><time>2026-05-03T14:52:35.999Z</time></trkpt><trkpt lat="42.09496003141017" lon="13.078575693338648"><ele>610.3333333333334</ele><time>2026-05-03T14:52:36.999Z</time></trkpt><trkpt lat="42.094777506271576" lon="13.078432593308788"><ele>611.6666666666667</ele><time>2026-05-03T14:52:37.999Z</time></trkpt><trkpt lat="42.09459855178482" lon="13.078275879764952"><ele>613.0</ele><time>2026-05-03T14:52:38.999Z</time></trkpt><trkpt lat="42.094427257245385" lon="13.078096387144502"><ele>613.0</ele><time>2026-05-03T14:52:39.999Z</time></trkpt><trkpt lat="42.09426018437095" lon="13.077893488191496"><ele>613.0</ele><time>2026-05-03T14:52:40.999Z</time></trkpt><trkpt lat="42.09410755573755" lon="13.077667236601595"><ele>609.3333333333334</ele><time>2026-05-03T14:52:41.999Z</time></trkpt><trkpt lat="42.09397841127848" lon="13.07743086182829"><ele>605.6666666666666</ele><time>2026-05-03T14:52:42.999Z</time></trkpt><trkpt lat="42.09387360597901" lon="13.077178883834076"><ele>602.0</ele><time>2026-05-03T14:52:43.999Z</time></trkpt><trkpt lat="42.0937765032866" lon="13.076926890473976"><ele>602.0</ele><time>2026-05-03T14:52:44.999Z</time></trkpt><trkpt lat="42.093698301671516" lon="13.076662790377288"><ele>602.0</ele><time>2026-05-03T14:52:45.999Z</time></trkpt><trkpt lat="42.093662070137825" lon="13.076350326541167"><ele>602.0</ele><time>2026-05-03T14:52:46.999Z</time></trkpt><trkpt lat="42.093641338647274" lon="13.076099665375358"><ele>601.6666666666666</ele><time>2026-05-03T14:52:47.999Z</time></trkpt><trkpt lat="42.09364428878087" lon="13.07581253719019"><ele>601.3333333333334</ele><time>2026-05-03T14:52:48.999Z</time></trkpt><trkpt lat="42.09364092330614" lon="13.075511800164369"><ele>601.0</ele><time>2026-05-03T14:52:49.999Z</time></trkpt><trkpt lat="42.093656055729966" lon="13.075196975303847"><ele>600.0</ele><time>2026-05-03T14:52:50.999Z</time></trkpt><trkpt lat="42.09367633233465" lon="13.074879196398241"><ele>599.0</ele><time>2026-05-03T14:52:51.999Z</time></trkpt><trkpt lat="42.09369569438459" lon="13.074564615537819"><ele>599.0</ele><time>2026-05-03T14:52:52.999Z</time></trkpt><trkpt lat="42.09371306451891" lon="13.074263903969863"><ele>599.0</ele><time>2026-05-03T14:52:53.999Z</time></trkpt><trkpt lat="42.09372665661027" lon="13.073968535963644"><ele>599.0</ele><time>2026-05-03T14:52:54.999Z</time></trkpt><trkpt lat="42.09373574178061" lon="13.07367981516772"><ele>599.0</ele><time>2026-05-03T14:52:55.999Z</time></trkpt><trkpt lat="42.09375039143261" lon="13.073387762384376"><ele>599.0</ele><time>2026-05-03T14:52:56.999Z</time></trkpt><trkpt lat="42.09375372009987" lon="13.073107779041278"><ele>599.0</ele><time>2026-05-03T14:52:57.999Z</time></trkpt><trkpt lat="42.09373004664424" lon="13.072848612421053"><ele>599.0</ele><time>2026-05-03T14:52:58.999Z</time></trkpt><trkpt lat="42.09368200937842" lon="13.07260545351231"><ele>599.0</ele><time>2026-05-03T14:52:59.999Z</time></trkpt><trkpt lat="42.09362872768786" lon="13.072369764711368"><ele>599.0</ele><time>2026-05-03T14:53:00.999Z</time></trkpt><trkpt lat="42.09355044203316" lon="13.072138354551864"><ele>598.3333333333333</ele><time>2026-05-03T14:53:01.999Z</time></trkpt><trkpt lat="42.093436833210106" lon="13.071912261670224"><ele>597.6666666666666</ele><time>2026-05-03T14:53:02.999Z</time></trkpt><trkpt lat="42.09329610682784" lon="13.071689966268252"><ele>597.0</ele><time>2026-05-03T14:53:03.999Z</time></trkpt><trkpt lat="42.093150531770995" lon="13.071468694714495"><ele>595.3333333333334</ele><time>2026-05-03T14:53:04.999Z</time></trkpt><trkpt lat="42.09301540652934" lon="13.071253429036737"><ele>593.6666666666667</ele><time>2026-05-03T14:53:05.999Z</time></trkpt><trkpt lat="42.09288884427118" lon="13.071046158060744"><ele>592.0</ele><time>2026-05-03T14:53:06.999Z</time></trkpt><trkpt lat="42.092767170384555" lon="13.070848342439577"><ele>591.5</ele><time>2026-05-03T14:53:07.999Z</time></trkpt><trkpt lat="42.09265664937511" lon="13.070673813467735"><ele>591.0</ele><time>2026-05-03T14:53:08.999Z</time></trkpt><trkpt lat="42.09256684016394" lon="13.070534530625194"><ele>590.5</ele><time>2026-05-03T14:53:09.999Z</time></trkpt><trkpt lat="42.09248617309078" lon="13.070423509542575"><ele>590.0</ele><time>2026-05-03T14:53:10.999Z</time></trkpt><trkpt lat="42.09240815424119" lon="13.07030999278314"><ele>589.75</ele><time>2026-05-03T14:53:11.999Z</time></trkpt><trkpt lat="42.09233241436784" lon="13.0702054878782"><ele>589.5</ele><time>2026-05-03T14:53:12.998Z</time></trkpt><trkpt lat="42.09224737683804" lon="13.070118980364745"><ele>589.25</ele><time>2026-05-03T14:53:13.998Z</time></trkpt><trkpt lat="42.09215995944273" lon="13.07000789545667"><ele>589.0</ele><time>2026-05-03T14:53:14.998Z</time></trkpt><trkpt lat="42.092074303330094" lon="13.06985413158342"><ele>589.0</ele><time>2026-05-03T14:53:15.998Z</time></trkpt><trkpt lat="42.09198670898233" lon="13.069677656033848"><ele>589.0</ele><time>2026-05-03T14:53:16.998Z</time></trkpt><trkpt lat="42.09188034704228" lon="13.06945739213294"><ele>589.0</ele><time>2026-05-03T14:53:17.998Z</time></trkpt><trkpt lat="42.09176937740685" lon="13.069198883968209"><ele>589.6666666666667</ele><time>2026-05-03T14:53:18.998Z</time></trkpt><trkpt lat="42.091657018243744" lon="13.068949611309355"><ele>590.3333333333334</ele><time>2026-05-03T14:53:19.998Z</time></trkpt><trkpt lat="42.091538670779535" lon="13.06871291106509"><ele>591.0</ele><time>2026-05-03T14:53:20.998Z</time></trkpt><trkpt lat="42.0914208451961" lon="13.06848822807628"><ele>589.6666666666666</ele><time>2026-05-03T14:53:21.998Z</time></trkpt><trkpt lat="42.0913069619631" lon="13.068263964033823"><ele>588.3333333333333</ele><time>2026-05-03T14:53:22.998Z</time></trkpt><trkpt lat="42.091186805908414" lon="13.06804883161137"><ele>587.0</ele><time>2026-05-03T14:53:23.998Z</time></trkpt><trkpt lat="42.091067154893615" lon="13.067840263137244"><ele>587.0</ele><time>2026-05-03T14:53:24.998Z</time></trkpt><trkpt lat="42.09094539464655" lon="13.067628111849478"><ele>587.0</ele><time>2026-05-03T14:53:25.998Z</time></trkpt><trkpt lat="42.090809844932636" lon="13.067428305327608"><ele>587.0</ele><time>2026-05-03T14:53:26.998Z</time></trkpt><trkpt lat="42.090656030522055" lon="13.067266485074331"><ele>586.3333333333333</ele><time>2026-05-03T14:53:27.998Z</time></trkpt><trkpt lat="42.090478619028445" lon="13.067112938106218"><ele>585.6666666666666</ele><time>2026-05-03T14:53:28.998Z</time></trkpt><trkpt lat="42.09030206357953" lon="13.066998964011683"><ele>585.0</ele><time>2026-05-03T14:53:29.998Z</time></trkpt><trkpt lat="42.09012152860301" lon="13.066887704507897"><ele>585.0</ele><time>2026-05-03T14:53:30.998Z</time></trkpt><trkpt lat="42.08993853866998" lon="13.066759741446582"><ele>585.0</ele><time>2026-05-03T14:53:31.998Z</time></trkpt><trkpt lat="42.08975526841081" lon="13.066635480160956"><ele>585.0</ele><time>2026-05-03T14:53:32.998Z</time></trkpt><trkpt lat="42.08958512308539" lon="13.066521857049944"><ele>584.3333333333334</ele><time>2026-05-03T14:53:33.998Z</time></trkpt><trkpt lat="42.089429962857125" lon="13.06640566842377"><ele>583.6666666666667</ele><time>2026-05-03T14:53:34.998Z</time></trkpt><trkpt lat="42.089270420030964" lon="13.066304321643988"><ele>583.0</ele><time>2026-05-03T14:53:35.998Z</time></trkpt><trkpt lat="42.08912319871949" lon="13.06620478321879"><ele>583.6666666666667</ele><time>2026-05-03T14:53:36.998Z</time></trkpt><trkpt lat="42.088983444388674" lon="13.066105708841123"><ele>584.3333333333334</ele><time>2026-05-03T14:53:37.998Z</time></trkpt><trkpt lat="42.08884377166973" lon="13.066009038265838"><ele>585.0</ele><time>2026-05-03T14:53:38.998Z</time></trkpt><trkpt lat="42.0887125264044" lon="13.065920776236313"><ele>585.0</ele><time>2026-05-03T14:53:39.998Z</time></trkpt><trkpt lat="42.08857928670312" lon="13.065841157308968"><ele>585.0</ele><time>2026-05-03T14:53:41Z</time></trkpt><trkpt lat="42.08844570871546" lon="13.065753537921852"><ele>585.0</ele><time>2026-05-03T14:53:42Z</time></trkpt><trkpt lat="42.08831850108372" lon="13.06565833558947"><ele>585.0</ele><time>2026-05-03T14:53:43Z</time></trkpt><trkpt lat="42.088188943315345" lon="13.065567645504903"><ele>586.0</ele><time>2026-05-03T14:53:44Z</time></trkpt><trkpt lat="42.08805527534696" lon="13.06546291882469"><ele>587.0</ele><time>2026-05-03T14:53:45Z</time></trkpt><trkpt lat="42.0879089722769" lon="13.065371637943201"><ele>588.0</ele><time>2026-05-03T14:53:46Z</time></trkpt><trkpt lat="42.08776563134486" lon="13.06528174202336"><ele>588.0</ele><time>2026-05-03T14:53:47Z</time></trkpt><trkpt lat="42.087629851445925" lon="13.065186382258572"><ele>588.0</ele><time>2026-05-03T14:53:48Z</time></trkpt><trkpt lat="42.08749495138112" lon="13.065082803534818"><ele>588.0</ele><time>2026-05-03T14:53:49Z</time></trkpt><trkpt lat="42.08735580711357" lon="13.064976325168402"><ele>588.5</ele><time>2026-05-03T14:53:50Z</time></trkpt><trkpt lat="42.0872260847897" lon="13.064866710303292"><ele>589.0</ele><time>2026-05-03T14:53:51Z</time></trkpt><trkpt lat="42.08710188484926" lon="13.064773532906544"><ele>589.5</ele><time>2026-05-03T14:53:52Z</time></trkpt><trkpt lat="42.08700894136538" lon="13.064683832446256"><ele>590.0</ele><time>2026-05-03T14:53:53Z</time></trkpt><trkpt lat="42.08692753376916" lon="13.064591429166956"><ele>590.0</ele><time>2026-05-03T14:53:54Z</time></trkpt><trkpt lat="42.08684058413076" lon="13.064512297946301"><ele>590.0</ele><time>2026-05-03T14:53:55Z</time></trkpt><trkpt lat="42.086776078996174" lon="13.064439110555771"><ele>590.0</ele><time>2026-05-03T14:53:56Z</time></trkpt><trkpt lat="42.08669629099512" lon="13.064399581684663"><ele>590.0</ele><time>2026-05-03T14:53:57Z</time></trkpt><trkpt lat="42.08658418274563" lon="13.064372553389436"><ele>590.0</ele><time>2026-05-03T14:53:58Z</time></trkpt><trkpt lat="42.086437842624775" lon="13.064305004956593"><ele>590.3333333333333</ele><time>2026-05-03T14:53:59Z</time></trkpt><trkpt lat="42.08629852268573" lon="13.064220240723527"><ele>590.6666666666666</ele><time>2026-05-03T14:54:00Z</time></trkpt><trkpt lat="42.08624605512311" lon="13.063983655842964"><ele>591.0</ele><time>2026-05-03T14:54:01Z</time></trkpt><trkpt lat="42.08614128418623" lon="13.063868986343234"><ele>591.0</ele><time>2026-05-03T14:54:02Z</time></trkpt><trkpt lat="42.0860494650552" lon="13.063756885711024"><ele>591.0</ele><time>2026-05-03T14:54:03Z</time></trkpt><trkpt lat="42.08593952229403" lon="13.063672261503436"><ele>591.0</ele><time>2026-05-03T14:54:04Z</time></trkpt><trkpt lat="42.0858359899267" lon="13.063561700835601"><ele>591.0</ele><time>2026-05-03T14:54:05Z</time></trkpt><trkpt lat="42.08571751078374" lon="13.063475222258448"><ele>591.0</ele><time>2026-05-03T14:54:06Z</time></trkpt><trkpt lat="42.08560743619268" lon="13.06337972587721"><ele>591.0</ele><time>2026-05-03T14:54:07Z</time></trkpt><trkpt lat="42.085497012498685" lon="13.0632831467837"><ele>591.0</ele><time>2026-05-03T14:54:08Z</time></trkpt><trkpt lat="42.08539732627961" lon="13.063179884388056"><ele>591.0</ele><time>2026-05-03T14:54:09Z</time></trkpt><trkpt lat="42.08530844506993" lon="13.063074690203553"><ele>591.0</ele><time>2026-05-03T14:54:10Z</time></trkpt><trkpt lat="42.0852095403489" lon="13.06299267225869"><ele>591.0</ele><time>2026-05-03T14:54:11Z</time></trkpt><trkpt lat="42.08510908883869" lon="13.062898049826947"><ele>591.0</ele><time>2026-05-03T14:54:12Z</time></trkpt><trkpt lat="42.085017536660764" lon="13.062813228469834"><ele>591.0</ele><time>2026-05-03T14:54:13Z</time></trkpt><trkpt lat="42.08494158906045" lon="13.062708192379489"><ele>591.0</ele><time>2026-05-03T14:54:14Z</time></trkpt><trkpt lat="42.08485492020597" lon="13.062626612708703"><ele>591.0</ele><time>2026-05-03T14:54:15Z</time></trkpt><trkpt lat="42.084762938147996" lon="13.062539290002352"><ele>591.0</ele><time>2026-05-03T14:54:16Z</time></trkpt><trkpt lat="42.084679369035875" lon="13.062460080550535"><ele>591.0</ele><time>2026-05-03T14:54:17Z</time></trkpt><trkpt lat="42.08458629021656" lon="13.062394404352402"><ele>591.0</ele><time>2026-05-03T14:54:18Z</time></trkpt><trkpt lat="42.08448986378294" lon="13.062317900238067"><ele>591.0</ele><time>2026-05-03T14:54:19Z</time></trkpt><trkpt lat="42.08438261282141" lon="13.062231632120092"><ele>591.0</ele><time>2026-05-03T14:54:19.999Z</time></trkpt><trkpt lat="42.08427464639277" lon="13.06213008764814"><ele>591.0</ele><time>2026-05-03T14:54:20.999Z</time></trkpt><trkpt lat="42.08415457309358" lon="13.062037065535067"><ele>591.0</ele><time>2026-05-03T14:54:21.999Z</time></trkpt><trkpt lat="42.084042018891935" lon="13.061914052470764"><ele>591.3333333333334</ele><time>2026-05-03T14:54:22.999Z</time></trkpt><trkpt lat="42.08393591284979" lon="13.061760227381102"><ele>591.6666666666667</ele><time>2026-05-03T14:54:23.999Z</time></trkpt><trkpt lat="42.083818414650324" lon="13.06164920786288"><ele>592.0</ele><time>2026-05-03T14:54:24.999Z</time></trkpt><trkpt lat="42.08369431966261" lon="13.06153195526988"><ele>592.0</ele><time>2026-05-03T14:54:25.999Z</time></trkpt><trkpt lat="42.083573029968" lon="13.061417812921315"><ele>592.0</ele><time>2026-05-03T14:54:26.999Z</time></trkpt><trkpt lat="42.08345467065351" lon="13.061306362267231"><ele>592.0</ele><time>2026-05-03T14:54:27.999Z</time></trkpt><trkpt lat="42.08333238699443" lon="13.06119113256489"><ele>592.0</ele><time>2026-05-03T14:54:28.999Z</time></trkpt><trkpt lat="42.08321285150756" lon="13.061078492507363"><ele>593.0</ele><time>2026-05-03T14:54:29.999Z</time></trkpt><trkpt lat="42.08308313998392" lon="13.060973004704692"><ele>594.0</ele><time>2026-05-03T14:54:30.999Z</time></trkpt><trkpt lat="42.08296212265654" lon="13.060849170787547"><ele>595.0</ele><time>2026-05-03T14:54:31.999Z</time></trkpt><trkpt lat="42.08283353434742" lon="13.060722465129974"><ele>595.0</ele><time>2026-05-03T14:54:32.999Z</time></trkpt><trkpt lat="42.08272234371925" lon="13.060581576431737"><ele>595.0</ele><time>2026-05-03T14:54:33.999Z</time></trkpt><trkpt lat="42.08258370001428" lon="13.06048477034865"><ele>595.0</ele><time>2026-05-03T14:54:34.999Z</time></trkpt><trkpt lat="42.08245155283247" lon="13.060369839085515"><ele>595.6666666666667</ele><time>2026-05-03T14:54:35.999Z</time></trkpt><trkpt lat="42.082327622070444" lon="13.060241294278548"><ele>596.3333333333334</ele><time>2026-05-03T14:54:36.999Z</time></trkpt><trkpt lat="42.082204372958785" lon="13.060115070733255"><ele>597.0</ele><time>2026-05-03T14:54:37.999Z</time></trkpt><trkpt lat="42.08208543427351" lon="13.059987455312521"><ele>596.0</ele><time>2026-05-03T14:54:38.999Z</time></trkpt><trkpt lat="42.08196712325462" lon="13.059857775391825"><ele>595.0</ele><time>2026-05-03T14:54:39.999Z</time></trkpt><trkpt lat="42.081834138960026" lon="13.059746452102303"><ele>594.0</ele><time>2026-05-03T14:54:40.999Z</time></trkpt><trkpt lat="42.08170344747475" lon="13.059634708266655"><ele>594.75</ele><time>2026-05-03T14:54:41.999Z</time></trkpt><trkpt lat="42.081582254880985" lon="13.059516127629948"><ele>595.5</ele><time>2026-05-03T14:54:42.999Z</time></trkpt><trkpt lat="42.08146466241838" lon="13.059413212022944"><ele>596.25</ele><time>2026-05-03T14:54:43.999Z</time></trkpt><trkpt lat="42.08135338154987" lon="13.059333565915006"><ele>597.0</ele><time>2026-05-03T14:54:44.999Z</time></trkpt><trkpt lat="42.08125980441115" lon="13.059217396759507"><ele>597.0</ele><time>2026-05-03T14:54:45.999Z</time></trkpt><trkpt lat="42.081200946550155" lon="13.059100480191415"><ele>597.0</ele><time>2026-05-03T14:54:46.999Z</time></trkpt><trkpt lat="42.08116991931224" lon="13.0589784831356"><ele>597.0</ele><time>2026-05-03T14:54:47.999Z</time></trkpt><trkpt lat="42.08116791050797" lon="13.058842418286083"><ele>597.0</ele><time>2026-05-03T14:54:48.999Z</time></trkpt><trkpt lat="42.08119571649693" lon="13.05870782126034"><ele>597.0</ele><time>2026-05-03T14:54:49.999Z</time></trkpt><trkpt lat="42.08122744822102" lon="13.05856676779494"><ele>597.0</ele><time>2026-05-03T14:54:50.999Z</time></trkpt><trkpt lat="42.08125482449662" lon="13.058429040607418"><ele>597.0</ele><time>2026-05-03T14:54:51.999Z</time></trkpt><trkpt lat="42.08124538940281" lon="13.058290747030352"><ele>597.0</ele><time>2026-05-03T14:54:52.999Z</time></trkpt><trkpt lat="42.0812067728025" lon="13.058150160250868"><ele>597.0</ele><time>2026-05-03T14:54:53.999Z</time></trkpt><trkpt lat="42.0811219332906" lon="13.058043918490917"><ele>597.0</ele><time>2026-05-03T14:54:54.999Z</time></trkpt><trkpt lat="42.08101565556511" lon="13.057935625987446"><ele>596.6666666666666</ele><time>2026-05-03T14:54:55.999Z</time></trkpt><trkpt lat="42.08088144409752" lon="13.057833676046215"><ele>596.3333333333333</ele><time>2026-05-03T14:54:56.999Z</time></trkpt><trkpt lat="42.08073277111884" lon="13.057709438853621"><ele>596.0</ele><time>2026-05-03T14:54:57.999Z</time></trkpt><trkpt lat="42.08058682812375" lon="13.05759231550032"><ele>596.0</ele><time>2026-05-03T14:54:58.999Z</time></trkpt><trkpt lat="42.0804577510772" lon="13.05747355261041"><ele>596.0</ele><time>2026-05-03T14:54:59.999Z</time></trkpt><trkpt lat="42.08035117618304" lon="13.057360769927687"><ele>596.0</ele><time>2026-05-03T14:55:00.999Z</time></trkpt><trkpt lat="42.0802389569" lon="13.057265469262878"><ele>596.0</ele><time>2026-05-03T14:55:01.999Z</time></trkpt><trkpt lat="42.08013950336194" lon="13.057185882428378"><ele>596.0</ele><time>2026-05-03T14:55:02.999Z</time></trkpt><trkpt lat="42.08004187017108" lon="13.057138287872874"><ele>596.0</ele><time>2026-05-03T14:55:03.999Z</time></trkpt><trkpt lat="42.079941128274754" lon="13.057122379779335"><ele>596.0</ele><time>2026-05-03T14:55:04.999Z</time></trkpt><trkpt lat="42.07984566222128" lon="13.057140289299216"><ele>596.0</ele><time>2026-05-03T14:55:05.999Z</time></trkpt><trkpt lat="42.07976078130782" lon="13.057164539648445"><ele>596.0</ele><time>2026-05-03T14:55:06.999Z</time></trkpt><trkpt lat="42.07971393030751" lon="13.057234603044625"><ele>596.3333333333333</ele><time>2026-05-03T14:55:07.999Z</time></trkpt><trkpt lat="42.079637227126" lon="13.057210331251163"><ele>596.6666666666666</ele><time>2026-05-03T14:55:08.999Z</time></trkpt><trkpt lat="42.07956603706199" lon="13.057193233773612"><ele>597.0</ele><time>2026-05-03T14:55:09.999Z</time></trkpt><trkpt lat="42.07950267580846" lon="13.057139336751392"><ele>597.3333333333334</ele><time>2026-05-03T14:55:10.999Z</time></trkpt><trkpt lat="42.07943557125088" lon="13.057090095969102"><ele>597.6666666666667</ele><time>2026-05-03T14:55:11.999Z</time></trkpt><trkpt lat="42.079358997014005" lon="13.05705476213728"><ele>598.0</ele><time>2026-05-03T14:55:12.999Z</time></trkpt><trkpt lat="42.07928413675761" lon="13.056998895751855"><ele>598.0</ele><time>2026-05-03T14:55:13.999Z</time></trkpt><trkpt lat="42.07919154313094" lon="13.05696352209647"><ele>598.0</ele><time>2026-05-03T14:55:15.999Z</time></trkpt><trkpt lat="42.07912598433669" lon="13.056934663748594"><ele>598.0</ele><time>2026-05-03T14:55:17.999Z</time></trkpt><trkpt lat="42.079036357874834" lon="13.056935641242456"><ele>598.0</ele><time>2026-05-03T14:55:20.999Z</time></trkpt><trkpt lat="42.07892506981397" lon="13.056933753001402"><ele>598.0</ele><time>2026-05-03T14:55:22.998Z</time></trkpt><trkpt lat="42.07883430709371" lon="13.056936302156881"><ele>598.0</ele><time>2026-05-03T14:55:23.998Z</time></trkpt><trkpt lat="42.078729078079085" lon="13.056897413990216"><ele>598.0</ele><time>2026-05-03T14:55:24.998Z</time></trkpt><trkpt lat="42.07861390783823" lon="13.056838029557726"><ele>598.0</ele><time>2026-05-03T14:55:25.998Z</time></trkpt><trkpt lat="42.07849823902207" lon="13.056756033580289"><ele>598.0</ele><time>2026-05-03T14:55:26.998Z</time></trkpt><trkpt lat="42.078375357182374" lon="13.056660689955482"><ele>598.0</ele><time>2026-05-03T14:55:27.998Z</time></trkpt><trkpt lat="42.07828357235144" lon="13.0565550112609"><ele>598.0</ele><time>2026-05-03T14:55:28.998Z</time></trkpt><trkpt lat="42.07820396918985" lon="13.056472238187578"><ele>598.0</ele><time>2026-05-03T14:55:29.998Z</time></trkpt><trkpt lat="42.07812329838017" lon="13.056401395930866"><ele>598.0</ele><time>2026-05-03T14:55:30.998Z</time></trkpt><trkpt lat="42.07802719301293" lon="13.056324793291134"><ele>598.0</ele><time>2026-05-03T14:55:31.998Z</time></trkpt><trkpt lat="42.07791564143029" lon="13.05622694793562"><ele>598.5</ele><time>2026-05-03T14:55:32.998Z</time></trkpt><trkpt lat="42.077798913426676" lon="13.05611492485623"><ele>599.0</ele><time>2026-05-03T14:55:33.998Z</time></trkpt><trkpt lat="42.077691886550696" lon="13.056002337396217"><ele>599.5</ele><time>2026-05-03T14:55:34.998Z</time></trkpt><trkpt lat="42.0775810933759" lon="13.055896559713347"><ele>600.0</ele><time>2026-05-03T14:55:35.998Z</time></trkpt><trkpt lat="42.07747026191542" lon="13.05578918088965"><ele>599.75</ele><time>2026-05-03T14:55:36.998Z</time></trkpt><trkpt lat="42.077358649656745" lon="13.055680081256797"><ele>599.5</ele><time>2026-05-03T14:55:37.998Z</time></trkpt><trkpt lat="42.077243638317924" lon="13.055568466789353"><ele>599.25</ele><time>2026-05-03T14:55:38.998Z</time></trkpt><trkpt lat="42.07712121416245" lon="13.055457260923575"><ele>599.0</ele><time>2026-05-03T14:55:39.998Z</time></trkpt><trkpt lat="42.07699285046326" lon="13.055341390017084"><ele>599.0</ele><time>2026-05-03T14:55:40.998Z</time></trkpt><trkpt lat="42.07687069570325" lon="13.055214922805794"><ele>599.0</ele><time>2026-05-03T14:55:41.998Z</time></trkpt><trkpt lat="42.07673752093951" lon="13.055098840652649"><ele>599.0</ele><time>2026-05-03T14:55:42.998Z</time></trkpt><trkpt lat="42.076602112128924" lon="13.054972528196206"><ele>600.6666666666666</ele><time>2026-05-03T14:55:43.998Z</time></trkpt><trkpt lat="42.076464269251424" lon="13.05483801264429"><ele>602.3333333333334</ele><time>2026-05-03T14:55:44.998Z</time></trkpt><trkpt lat="42.07633107075993" lon="13.054705063290761"><ele>604.0</ele><time>2026-05-03T14:55:45.998Z</time></trkpt><trkpt lat="42.076194252087184" lon="13.054575143469105"><ele>604.0</ele><time>2026-05-03T14:55:47Z</time></trkpt><trkpt lat="42.076056037015306" lon="13.05444138377173"><ele>604.0</ele><time>2026-05-03T14:55:48Z</time></trkpt><trkpt lat="42.07591540628352" lon="13.054305917972263"><ele>604.0</ele><time>2026-05-03T14:55:49Z</time></trkpt><trkpt lat="42.075773229646934" lon="13.054170725217864"><ele>604.0</ele><time>2026-05-03T14:55:50Z</time></trkpt><trkpt lat="42.07562627489211" lon="13.05403706474125"><ele>604.0</ele><time>2026-05-03T14:55:51Z</time></trkpt><trkpt lat="42.07548265156119" lon="13.05389984206221"><ele>604.0</ele><time>2026-05-03T14:55:52Z</time></trkpt><trkpt lat="42.07533698939237" lon="13.053762819685062"><ele>604.0</ele><time>2026-05-03T14:55:53Z</time></trkpt><trkpt lat="42.075191503636596" lon="13.05362072377228"><ele>604.0</ele><time>2026-05-03T14:55:54Z</time></trkpt><trkpt lat="42.07504661401325" lon="13.053478188185203"><ele>604.0</ele><time>2026-05-03T14:55:55Z</time></trkpt><trkpt lat="42.0749021343995" lon="13.053334310251072"><ele>604.3333333333334</ele><time>2026-05-03T14:55:56Z</time></trkpt><trkpt lat="42.074751399161855" lon="13.053190043026527"><ele>604.6666666666666</ele><time>2026-05-03T14:55:57Z</time></trkpt><trkpt lat="42.07459709589879" lon="13.053053644756032"><ele>605.0</ele><time>2026-05-03T14:55:58Z</time></trkpt><trkpt lat="42.07443998076595" lon="13.052909887368529"><ele>605.0</ele><time>2026-05-03T14:55:59Z</time></trkpt><trkpt lat="42.07428425381994" lon="13.05275277143346"><ele>605.0</ele><time>2026-05-03T14:56:00Z</time></trkpt><trkpt lat="42.07413345024297" lon="13.05260219862098"><ele>605.0</ele><time>2026-05-03T14:56:01Z</time></trkpt><trkpt lat="42.07397037556059" lon="13.05245873855377"><ele>605.6666666666666</ele><time>2026-05-03T14:56:02Z</time></trkpt><trkpt lat="42.07381157946931" lon="13.052315845447078"><ele>606.3333333333334</ele><time>2026-05-03T14:56:03Z</time></trkpt><trkpt lat="42.07366357865869" lon="13.052173518688384"><ele>607.0</ele><time>2026-05-03T14:56:04Z</time></trkpt><trkpt lat="42.07351317328592" lon="13.052030160407616"><ele>607.0</ele><time>2026-05-03T14:56:05Z</time></trkpt><trkpt lat="42.07336315730953" lon="13.051887493366934"><ele>607.0</ele><time>2026-05-03T14:56:06Z</time></trkpt><trkpt lat="42.07319940690743" lon="13.051734603560886"><ele>607.0</ele><time>2026-05-03T14:56:07Z</time></trkpt><trkpt lat="42.07303441973116" lon="13.051580594074236"><ele>606.6666666666667</ele><time>2026-05-03T14:56:08Z</time></trkpt><trkpt lat="42.072882003801475" lon="13.051433730981627"><ele>606.3333333333334</ele><time>2026-05-03T14:56:09Z</time></trkpt><trkpt lat="42.07272713522605" lon="13.051285556498314"><ele>606.0</ele><time>2026-05-03T14:56:10Z</time></trkpt><trkpt lat="42.0725588826163" lon="13.051129809454503"><ele>606.6666666666666</ele><time>2026-05-03T14:56:11Z</time></trkpt><trkpt lat="42.07240214875299" lon="13.050962183566547"><ele>607.3333333333333</ele><time>2026-05-03T14:56:12Z</time></trkpt><trkpt lat="42.07224318172476" lon="13.05081225370683"><ele>608.0</ele><time>2026-05-03T14:56:13Z</time></trkpt><trkpt lat="42.07207501771728" lon="13.050674258824136"><ele>608.0</ele><time>2026-05-03T14:56:14Z</time></trkpt><trkpt lat="42.07191969900592" lon="13.050517365678964"><ele>608.0</ele><time>2026-05-03T14:56:15Z</time></trkpt><trkpt lat="42.07177048311247" lon="13.050371967019391"><ele>608.0</ele><time>2026-05-03T14:56:16Z</time></trkpt><trkpt lat="42.071630931711205" lon="13.050237919395107"><ele>607.6666666666666</ele><time>2026-05-03T14:56:17Z</time></trkpt><trkpt lat="42.07150021695574" lon="13.050115387799462"><ele>607.3333333333334</ele><time>2026-05-03T14:56:18Z</time></trkpt><trkpt lat="42.07137337949473" lon="13.049995877436285"><ele>607.0</ele><time>2026-05-03T14:56:19Z</time></trkpt><trkpt lat="42.071259768020816" lon="13.049886823438142"><ele>607.5</ele><time>2026-05-03T14:56:20Z</time></trkpt><trkpt lat="42.07114999306935" lon="13.04977469683844"><ele>608.0</ele><time>2026-05-03T14:56:21Z</time></trkpt><trkpt lat="42.071054577192164" lon="13.049664466657108"><ele>608.5</ele><time>2026-05-03T14:56:22Z</time></trkpt><trkpt lat="42.07096285362896" lon="13.04955761182455"><ele>609.0</ele><time>2026-05-03T14:56:23Z</time></trkpt><trkpt lat="42.07087299182983" lon="13.0494527742116"><ele>609.0</ele><time>2026-05-03T14:56:24Z</time></trkpt><trkpt lat="42.07077457224864" lon="13.049364255309044"><ele>609.0</ele><time>2026-05-03T14:56:25Z</time></trkpt><trkpt lat="42.07066951751254" lon="13.04929532195335"><ele>609.0</ele><time>2026-05-03T14:56:25.999Z</time></trkpt><trkpt lat="42.070558804336414" lon="13.049216617027207"><ele>609.0</ele><time>2026-05-03T14:56:26.999Z</time></trkpt><trkpt lat="42.0704377761791" lon="13.049095596888058"><ele>608.6666666666666</ele><time>2026-05-03T14:56:27.999Z</time></trkpt><trkpt lat="42.070297052757304" lon="13.048961940667466"><ele>608.3333333333333</ele><time>2026-05-03T14:56:28.999Z</time></trkpt><trkpt lat="42.07013599164737" lon="13.04880886160232"><ele>608.0</ele><time>2026-05-03T14:56:29.999Z</time></trkpt><trkpt lat="42.06996983932377" lon="13.048673233318379"><ele>608.6666666666666</ele><time>2026-05-03T14:56:30.999Z</time></trkpt><trkpt lat="42.069830517312035" lon="13.048528973394772"><ele>609.3333333333334</ele><time>2026-05-03T14:56:31.999Z</time></trkpt><trkpt lat="42.06969297071426" lon="13.048394325055934"><ele>610.0</ele><time>2026-05-03T14:56:32.999Z</time></trkpt><trkpt lat="42.06954085605083" lon="13.048257651347129"><ele>610.0</ele><time>2026-05-03T14:56:33.999Z</time></trkpt><trkpt lat="42.069390331385" lon="13.048105925495362"><ele>610.0</ele><time>2026-05-03T14:56:34.999Z</time></trkpt><trkpt lat="42.069232253168494" lon="13.047960992812904"><ele>610.0</ele><time>2026-05-03T14:56:35.999Z</time></trkpt><trkpt lat="42.069068067441115" lon="13.047806657778603"><ele>610.0</ele><time>2026-05-03T14:56:36.999Z</time></trkpt><trkpt lat="42.06890765006602" lon="13.04763871595561"><ele>610.0</ele><time>2026-05-03T14:56:37.999Z</time></trkpt><trkpt lat="42.06874045337789" lon="13.047479693677051"><ele>610.0</ele><time>2026-05-03T14:56:38.999Z</time></trkpt><trkpt lat="42.06856738482979" lon="13.04733378852722"><ele>610.0</ele><time>2026-05-03T14:56:39.999Z</time></trkpt><trkpt lat="42.068406031819585" lon="13.04716171229072"><ele>610.0</ele><time>2026-05-03T14:56:40.999Z</time></trkpt><trkpt lat="42.06823369983638" lon="13.04699390565622"><ele>610.0</ele><time>2026-05-03T14:56:41.999Z</time></trkpt><trkpt lat="42.06805375898" lon="13.046820219879859"><ele>610.0</ele><time>2026-05-03T14:56:42.999Z</time></trkpt><trkpt lat="42.06785942314549" lon="13.04664249310487"><ele>610.0</ele><time>2026-05-03T14:56:43.999Z</time></trkpt><trkpt lat="42.067656603460854" lon="13.046453072471458"><ele>612.5</ele><time>2026-05-03T14:56:44.999Z</time></trkpt><trkpt lat="42.06745765636231" lon="13.046271431122287"><ele>615.0</ele><time>2026-05-03T14:56:45.999Z</time></trkpt><trkpt lat="42.067252835738586" lon="13.04611185849218"><ele>615.0</ele><time>2026-05-03T14:56:46.999Z</time></trkpt><trkpt lat="42.067034197908185" lon="13.045974220726958"><ele>615.0</ele><time>2026-05-03T14:56:47.999Z</time></trkpt><trkpt lat="42.06681498577134" lon="13.045842181298534"><ele>616.3333333333334</ele><time>2026-05-03T14:56:48.999Z</time></trkpt><trkpt lat="42.06660810327428" lon="13.045710768812507"><ele>617.6666666666667</ele><time>2026-05-03T14:56:49.999Z</time></trkpt><trkpt lat="42.06640614147711" lon="13.04559729701366"><ele>619.0</ele><time>2026-05-03T14:56:50.999Z</time></trkpt><trkpt lat="42.06620898705544" lon="13.045483602983024"><ele>619.0</ele><time>2026-05-03T14:56:51.999Z</time></trkpt><trkpt lat="42.066021298744964" lon="13.045368895571006"><ele>619.0</ele><time>2026-05-03T14:56:52.999Z</time></trkpt><trkpt lat="42.065837553107016" lon="13.04524440843045"><ele>619.0</ele><time>2026-05-03T14:56:53.999Z</time></trkpt><trkpt lat="42.06565763554934" lon="13.045100202698997"><ele>620.0</ele><time>2026-05-03T14:56:54.999Z</time></trkpt><trkpt lat="42.06550052488955" lon="13.044940102946642"><ele>621.0</ele><time>2026-05-03T14:56:55.999Z</time></trkpt><trkpt lat="42.0653646622161" lon="13.044760707590518"><ele>622.0</ele><time>2026-05-03T14:56:56.999Z</time></trkpt><trkpt lat="42.06527128060059" lon="13.044542049479736"><ele>622.0</ele><time>2026-05-03T14:56:57.999Z</time></trkpt><trkpt lat="42.0651729410475" lon="13.044317775536177"><ele>622.0</ele><time>2026-05-03T14:56:58.999Z</time></trkpt><trkpt lat="42.065071179208566" lon="13.044123743448237"><ele>622.0</ele><time>2026-05-03T14:56:59.999Z</time></trkpt><trkpt lat="42.06498853343685" lon="13.043922633672622"><ele>621.75</ele><time>2026-05-03T14:57:00.999Z</time></trkpt><trkpt lat="42.064902336147405" lon="13.043737942104274"><ele>621.5</ele><time>2026-05-03T14:57:01.999Z</time></trkpt><trkpt lat="42.0648286948313" lon="13.043567786123019"><ele>621.25</ele><time>2026-05-03T14:57:02.999Z</time></trkpt><trkpt lat="42.06475736605328" lon="13.04340642026802"><ele>621.0</ele><time>2026-05-03T14:57:03.999Z</time></trkpt><trkpt lat="42.064699579879445" lon="13.043251088076042"><ele>621.4</ele><time>2026-05-03T14:57:04.999Z</time></trkpt><trkpt lat="42.064673027904874" lon="13.043086887480696"><ele>621.8</ele><time>2026-05-03T14:57:05.999Z</time></trkpt><trkpt lat="42.064647717923876" lon="13.042941576862278"><ele>622.1999999999999</ele><time>2026-05-03T14:57:06.999Z</time></trkpt><trkpt lat="42.064587067540266" lon="13.04283867322233"><ele>622.6</ele><time>2026-05-03T14:57:07.999Z</time></trkpt><trkpt lat="42.06450448724922" lon="13.042785076764424"><ele>623.0</ele><time>2026-05-03T14:57:08.999Z</time></trkpt><trkpt lat="42.06440336392144" lon="13.04275883212709"><ele>623.0</ele><time>2026-05-03T14:57:09.999Z</time></trkpt><trkpt lat="42.06429312810739" lon="13.042725509899705"><ele>623.0</ele><time>2026-05-03T14:57:10.999Z</time></trkpt><trkpt lat="42.06417495847493" lon="13.042652992124562"><ele>623.0</ele><time>2026-05-03T14:57:11.999Z</time></trkpt><trkpt lat="42.06404634756209" lon="13.042558866512113"><ele>623.0</ele><time>2026-05-03T14:57:12.999Z</time></trkpt><trkpt lat="42.063937522639975" lon="13.042413219150484"><ele>624.0</ele><time>2026-05-03T14:57:13.999Z</time></trkpt><trkpt lat="42.06380184243934" lon="13.042289683341435"><ele>625.0</ele><time>2026-05-03T14:57:14.999Z</time></trkpt><trkpt lat="42.063645779680684" lon="13.042180324931886"><ele>626.0</ele><time>2026-05-03T14:57:15.999Z</time></trkpt><trkpt lat="42.063511368593275" lon="13.042033182494064"><ele>626.0</ele><time>2026-05-03T14:57:16.999Z</time></trkpt><trkpt lat="42.06336653684527" lon="13.041896326564848"><ele>626.0</ele><time>2026-05-03T14:57:17.999Z</time></trkpt><trkpt lat="42.063214667228195" lon="13.041772650664818"><ele>626.0</ele><time>2026-05-03T14:57:18.999Z</time></trkpt><trkpt lat="42.06305402848716" lon="13.041637414649667"><ele>626.0</ele><time>2026-05-03T14:57:19.999Z</time></trkpt><trkpt lat="42.06288765510892" lon="13.041485304625047"><ele>626.0</ele><time>2026-05-03T14:57:20.999Z</time></trkpt><trkpt lat="42.06272849861289" lon="13.04132882612299"><ele>626.0</ele><time>2026-05-03T14:57:21.999Z</time></trkpt><trkpt lat="42.06257165821847" lon="13.041166111918876"><ele>626.3333333333333</ele><time>2026-05-03T14:57:22.999Z</time></trkpt><trkpt lat="42.06243011681156" lon="13.041026007791842"><ele>626.6666666666666</ele><time>2026-05-03T14:57:23.999Z</time></trkpt><trkpt lat="42.06226879813108" lon="13.040863247368547"><ele>627.0</ele><time>2026-05-03T14:57:24.999Z</time></trkpt><trkpt lat="42.0621375773143" lon="13.04067294734759"><ele>625.6666666666666</ele><time>2026-05-03T14:57:25.999Z</time></trkpt><trkpt lat="42.062019088310365" lon="13.040454496639319"><ele>624.3333333333333</ele><time>2026-05-03T14:57:26.999Z</time></trkpt><trkpt lat="42.06190121375574" lon="13.040229149677595"><ele>623.0</ele><time>2026-05-03T14:57:27.999Z</time></trkpt><trkpt lat="42.06178965454978" lon="13.039998036664988"><ele>622.3333333333333</ele><time>2026-05-03T14:57:28.999Z</time></trkpt><trkpt lat="42.06168781770663" lon="13.039750525957752"><ele>621.6666666666666</ele><time>2026-05-03T14:57:29.999Z</time></trkpt><trkpt lat="42.06160286546396" lon="13.039490170344843"><ele>621.0</ele><time>2026-05-03T14:57:30.998Z</time></trkpt><trkpt lat="42.06152450392489" lon="13.039225501252185"><ele>616.5</ele><time>2026-05-03T14:57:31.998Z</time></trkpt><trkpt lat="42.06145994191439" lon="13.038939070294761"><ele>612.0</ele><time>2026-05-03T14:57:32.998Z</time></trkpt><trkpt lat="42.06140858616237" lon="13.038623658747692"><ele>611.5</ele><time>2026-05-03T14:57:33.998Z</time></trkpt><trkpt lat="42.06137090102962" lon="13.038290408073028"><ele>611.0</ele><time>2026-05-03T14:57:34.998Z</time></trkpt><trkpt lat="42.06133581513864" lon="13.037941894168906"><ele>611.0</ele><time>2026-05-03T14:57:35.998Z</time></trkpt><trkpt lat="42.06133374074528" lon="13.03758720710572"><ele>611.0</ele><time>2026-05-03T14:57:36.998Z</time></trkpt><trkpt lat="42.06132196061148" lon="13.037231699438877"><ele>610.5</ele><time>2026-05-03T14:57:37.998Z</time></trkpt><trkpt lat="42.0613102244547" lon="13.036880824588305"><ele>610.0</ele><time>2026-05-03T14:57:38.998Z</time></trkpt><trkpt lat="42.06128248445746" lon="13.03654723386881"><ele>610.0</ele><time>2026-05-03T14:57:39.998Z</time></trkpt><trkpt lat="42.061274664256416" lon="13.036219889980728"><ele>610.0</ele><time>2026-05-03T14:57:40.998Z</time></trkpt><trkpt lat="42.06125081305807" lon="13.035885839461027"><ele>610.0</ele><time>2026-05-03T14:57:41.998Z</time></trkpt><trkpt lat="42.06120893957422" lon="13.035555343977476"><ele>610.0</ele><time>2026-05-03T14:57:42.998Z</time></trkpt><trkpt lat="42.06115932502771" lon="13.035236185061287"><ele>611.0</ele><time>2026-05-03T14:57:43.998Z</time></trkpt><trkpt lat="42.06110732405962" lon="13.034921649826622"><ele>612.0</ele><time>2026-05-03T14:57:44.998Z</time></trkpt><trkpt lat="42.06104227918655" lon="13.034605876177242"><ele>612.0</ele><time>2026-05-03T14:57:45.998Z</time></trkpt><trkpt lat="42.06097961842928" lon="13.03428461579454"><ele>612.0</ele><time>2026-05-03T14:57:46.998Z</time></trkpt><trkpt lat="42.06093640076195" lon="13.033958244878626"><ele>612.5</ele><time>2026-05-03T14:57:47.998Z</time></trkpt><trkpt lat="42.06087014036604" lon="13.033646184723876"><ele>613.0</ele><time>2026-05-03T14:57:48.998Z</time></trkpt><trkpt lat="42.06081432281876" lon="13.03334479388712"><ele>619.5</ele><time>2026-05-03T14:57:49.998Z</time></trkpt><trkpt lat="42.06076346562891" lon="13.033027096017308"><ele>626.0</ele><time>2026-05-03T14:57:50.998Z</time></trkpt><trkpt lat="42.06074927327255" lon="13.03270423496147"><ele>628.0</ele><time>2026-05-03T14:57:51.998Z</time></trkpt><trkpt lat="42.060708813968205" lon="13.03238484181014"><ele>630.0</ele><time>2026-05-03T14:57:53Z</time></trkpt><trkpt lat="42.06071196693197" lon="13.032069752751038"><ele>630.0</ele><time>2026-05-03T14:57:54Z</time></trkpt><trkpt lat="42.06073659347228" lon="13.031746658792883"><ele>630.0</ele><time>2026-05-03T14:57:55Z</time></trkpt><trkpt lat="42.06077079310207" lon="13.031437995467694"><ele>620.5</ele><time>2026-05-03T14:57:56Z</time></trkpt><trkpt lat="42.06084013138977" lon="13.031132545426315"><ele>611.0</ele><time>2026-05-03T14:57:57Z</time></trkpt><trkpt lat="42.06086463237547" lon="13.03082763373484"><ele>613.0</ele><time>2026-05-03T14:57:58Z</time></trkpt><trkpt lat="42.06089057083336" lon="13.030524182156123"><ele>615.0</ele><time>2026-05-03T14:57:59Z</time></trkpt><trkpt lat="42.060917278580064" lon="13.030212656595344"><ele>615.5</ele><time>2026-05-03T14:58:00Z</time></trkpt><trkpt lat="42.060929093459364" lon="13.029907153807374"><ele>616.0</ele><time>2026-05-03T14:58:01Z</time></trkpt><trkpt lat="42.06095713821849" lon="13.029606280477024"><ele>616.0</ele><time>2026-05-03T14:58:02Z</time></trkpt><trkpt lat="42.06099876526076" lon="13.029298281957576"><ele>616.0</ele><time>2026-05-03T14:58:03Z</time></trkpt><trkpt lat="42.0610272705517" lon="13.028978418445739"><ele>614.0</ele><time>2026-05-03T14:58:04Z</time></trkpt><trkpt lat="42.06104713782756" lon="13.028696106440483"><ele>612.0</ele><time>2026-05-03T14:58:05Z</time></trkpt><trkpt lat="42.06089674149566" lon="13.028366539235986"><ele>611.5</ele><time>2026-05-03T14:58:06Z</time></trkpt><trkpt lat="42.06083025306785" lon="13.028068897356219"><ele>611.0</ele><time>2026-05-03T14:58:07Z</time></trkpt><trkpt lat="42.060756478950466" lon="13.027726808493675"><ele>616.0</ele><time>2026-05-03T14:58:08Z</time></trkpt><trkpt lat="42.06067653227656" lon="13.027444440262633"><ele>621.0</ele><time>2026-05-03T14:58:09Z</time></trkpt><trkpt lat="42.060606049331724" lon="13.027125753468335"><ele>621.0</ele><time>2026-05-03T14:58:10Z</time></trkpt><trkpt lat="42.06053646199177" lon="13.026807800046834"><ele>621.0</ele><time>2026-05-03T14:58:11Z</time></trkpt><trkpt lat="42.06044298621935" lon="13.026482317951693"><ele>617.5</ele><time>2026-05-03T14:58:12Z</time></trkpt><trkpt lat="42.06037181968024" lon="13.026151635449297"><ele>614.0</ele><time>2026-05-03T14:58:13Z</time></trkpt><trkpt lat="42.060301886528" lon="13.025818876489703"><ele>613.5</ele><time>2026-05-03T14:58:14Z</time></trkpt><trkpt lat="42.06022329087245" lon="13.025496722900453"><ele>613.0</ele><time>2026-05-03T14:58:15Z</time></trkpt><trkpt lat="42.06014287287681" lon="13.025166447708164"><ele>614.5</ele><time>2026-05-03T14:58:16Z</time></trkpt><trkpt lat="42.06007057079326" lon="13.024846167316586"><ele>616.0</ele><time>2026-05-03T14:58:17Z</time></trkpt><trkpt lat="42.0600028952139" lon="13.024533088908742"><ele>615.5</ele><time>2026-05-03T14:58:18Z</time></trkpt><trkpt lat="42.059910882179096" lon="13.024232551279034"><ele>615.0</ele><time>2026-05-03T14:58:19Z</time></trkpt><trkpt lat="42.05982684833651" lon="13.023950906830017"><ele>615.0</ele><time>2026-05-03T14:58:20Z</time></trkpt><trkpt lat="42.05979437091926" lon="13.023643160412805"><ele>615.0</ele><time>2026-05-03T14:58:21Z</time></trkpt><trkpt lat="42.059726288192415" lon="13.023363005780553"><ele>612.6666666666666</ele><time>2026-05-03T14:58:22Z</time></trkpt><trkpt lat="42.059665022522545" lon="13.023090627269427"><ele>610.3333333333333</ele><time>2026-05-03T14:58:23Z</time></trkpt><trkpt lat="42.05963141229639" lon="13.022805965074207"><ele>608.0</ele><time>2026-05-03T14:58:24Z</time></trkpt><trkpt lat="42.05961160721327" lon="13.022503935950297"><ele>606.5</ele><time>2026-05-03T14:58:25Z</time></trkpt><trkpt lat="42.059638983736605" lon="13.022203257704131"><ele>605.0</ele><time>2026-05-03T14:58:26Z</time></trkpt><trkpt lat="42.05962119133277" lon="13.021886586453197"><ele>605.5</ele><time>2026-05-03T14:58:27Z</time></trkpt><trkpt lat="42.05960412666122" lon="13.021565972102168"><ele>606.0</ele><time>2026-05-03T14:58:28Z</time></trkpt><trkpt lat="42.05959555213328" lon="13.021237236952263"><ele>606.0</ele><time>2026-05-03T14:58:29Z</time></trkpt><trkpt lat="42.059581381174496" lon="13.020921982957844"><ele>606.0</ele><time>2026-05-03T14:58:30Z</time></trkpt><trkpt lat="42.05957486982425" lon="13.020614081156216"><ele>606.0</ele><time>2026-05-03T14:58:31Z</time></trkpt><trkpt lat="42.05958868546322" lon="13.02031562195698"><ele>606.0</ele><time>2026-05-03T14:58:32Z</time></trkpt><trkpt lat="42.05960515675787" lon="13.020013321150195"><ele>606.0</ele><time>2026-05-03T14:58:33Z</time></trkpt><trkpt lat="42.0596407093457" lon="13.019717097834132"><ele>606.6666666666666</ele><time>2026-05-03T14:58:34Z</time></trkpt><trkpt lat="42.059668993857336" lon="13.019433615291886"><ele>607.3333333333333</ele><time>2026-05-03T14:58:35Z</time></trkpt><trkpt lat="42.05969892593633" lon="13.019148887946749"><ele>608.0</ele><time>2026-05-03T14:58:36Z</time></trkpt><trkpt lat="42.05972396699582" lon="13.018849612627411"><ele>609.0</ele><time>2026-05-03T14:58:37Z</time></trkpt><trkpt lat="42.05974987126206" lon="13.01854750508939"><ele>610.0</ele><time>2026-05-03T14:58:37.999Z</time></trkpt><trkpt lat="42.059775400344776" lon="13.018231564582479"><ele>616.5</ele><time>2026-05-03T14:58:38.999Z</time></trkpt><trkpt lat="42.05980914679778" lon="13.0179198262364"><ele>623.0</ele><time>2026-05-03T14:58:39.999Z</time></trkpt><trkpt lat="42.05984693333006" lon="13.017633623426489"><ele>624.0</ele><time>2026-05-03T14:58:40.999Z</time></trkpt><trkpt lat="42.05988860985453" lon="13.017361379262296"><ele>625.0</ele><time>2026-05-03T14:58:41.999Z</time></trkpt><trkpt lat="42.05992110779047" lon="13.017098346241603"><ele>626.0</ele><time>2026-05-03T14:58:42.999Z</time></trkpt><trkpt lat="42.05993926768483" lon="13.016836592997057"><ele>620.0</ele><time>2026-05-03T14:58:43.999Z</time></trkpt><trkpt lat="42.05992865957419" lon="13.016574588389643"><ele>614.0</ele><time>2026-05-03T14:58:44.999Z</time></trkpt><trkpt lat="42.05988375060983" lon="13.016312437428697"><ele>608.0</ele><time>2026-05-03T14:58:45.999Z</time></trkpt><trkpt lat="42.059807230395684" lon="13.016068522608741"><ele>608.0</ele><time>2026-05-03T14:58:46.999Z</time></trkpt><trkpt lat="42.05970670974254" lon="13.0158422081404"><ele>608.0</ele><time>2026-05-03T14:58:47.999Z</time></trkpt><trkpt lat="42.059582966313606" lon="13.015644655954862"><ele>608.0</ele><time>2026-05-03T14:58:48.999Z</time></trkpt><trkpt lat="42.059438899106944" lon="13.015474057147387"><ele>604.0</ele><time>2026-05-03T14:58:49.999Z</time></trkpt><trkpt lat="42.05926662164822" lon="13.015354909640262"><ele>600.0</ele><time>2026-05-03T14:58:50.999Z</time></trkpt><trkpt lat="42.05908886404831" lon="13.01526931869201"><ele>596.0</ele><time>2026-05-03T14:58:51.999Z</time></trkpt><trkpt lat="42.058900096693506" lon="13.015225497196164"><ele>595.0</ele><time>2026-05-03T14:58:52.999Z</time></trkpt><trkpt lat="42.058687183022876" lon="13.015211506857813"><ele>594.0</ele><time>2026-05-03T14:58:53.999Z</time></trkpt><trkpt lat="42.05846959460913" lon="13.015209874647782"><ele>593.0</ele><time>2026-05-03T14:58:54.999Z</time></trkpt><trkpt lat="42.05827535450306" lon="13.015260179860684"><ele>589.3333333333333</ele><time>2026-05-03T14:58:55.999Z</time></trkpt><trkpt lat="42.058060607308065" lon="13.015276555746267"><ele>585.6666666666666</ele><time>2026-05-03T14:58:56.999Z</time></trkpt><trkpt lat="42.05785142489723" lon="13.015294631855728"><ele>582.0</ele><time>2026-05-03T14:58:57.999Z</time></trkpt><trkpt lat="42.05764670290611" lon="13.015302357825094"><ele>582.0</ele><time>2026-05-03T14:58:58.999Z</time></trkpt><trkpt lat="42.05747821075476" lon="13.015311049329432"><ele>582.0</ele><time>2026-05-03T14:58:59.999Z</time></trkpt><trkpt lat="42.05731624382904" lon="13.01532144588985"><ele>582.0</ele><time>2026-05-03T14:59:00.999Z</time></trkpt><trkpt lat="42.057155775617574" lon="13.015334123223727"><ele>579.6666666666666</ele><time>2026-05-03T14:59:01.999Z</time></trkpt><trkpt lat="42.05699556045636" lon="13.015347343452028"><ele>577.3333333333333</ele><time>2026-05-03T14:59:02.999Z</time></trkpt><trkpt lat="42.056831417961845" lon="13.01536563394075"><ele>575.0</ele><time>2026-05-03T14:59:03.999Z</time></trkpt><trkpt lat="42.056659866546255" lon="13.015382566186"><ele>573.6666666666666</ele><time>2026-05-03T14:59:04.999Z</time></trkpt><trkpt lat="42.056476744109105" lon="13.015401957500973"><ele>572.3333333333334</ele><time>2026-05-03T14:59:05.999Z</time></trkpt><trkpt lat="42.05628387171443" lon="13.015430684507809"><ele>571.0</ele><time>2026-05-03T14:59:06.999Z</time></trkpt><trkpt lat="42.056090684310824" lon="13.015462522199025"><ele>571.0</ele><time>2026-05-03T14:59:07.999Z</time></trkpt><trkpt lat="42.05589888998603" lon="13.015495119928438"><ele>571.0</ele><time>2026-05-03T14:59:08.999Z</time></trkpt><trkpt lat="42.055706803557634" lon="13.015514416950193"><ele>571.0</ele><time>2026-05-03T14:59:09.999Z</time></trkpt><trkpt lat="42.05551229953673" lon="13.01550979863163"><ele>571.0</ele><time>2026-05-03T14:59:10.999Z</time></trkpt><trkpt lat="42.0553098188004" lon="13.015501462064341"><ele>571.0</ele><time>2026-05-03T14:59:11.999Z</time></trkpt><trkpt lat="42.05510213166707" lon="13.015482127604905"><ele>571.0</ele><time>2026-05-03T14:59:12.999Z</time></trkpt><trkpt lat="42.05489976582104" lon="13.015436441310033"><ele>571.0</ele><time>2026-05-03T14:59:13.999Z</time></trkpt><trkpt lat="42.05469597458233" lon="13.015374982580555"><ele>571.0</ele><time>2026-05-03T14:59:14.999Z</time></trkpt><trkpt lat="42.05448467779815" lon="13.015292983090847"><ele>571.0</ele><time>2026-05-03T14:59:15.999Z</time></trkpt><trkpt lat="42.05427223865464" lon="13.015194918472375"><ele>570.0</ele><time>2026-05-03T14:59:16.999Z</time></trkpt><trkpt lat="42.054052024434945" lon="13.015083558212112"><ele>569.0</ele><time>2026-05-03T14:59:17.999Z</time></trkpt><trkpt lat="42.053826975636916" lon="13.014959993366455"><ele>569.0</ele><time>2026-05-03T14:59:18.999Z</time></trkpt><trkpt lat="42.053594514586486" lon="13.014831798772178"><ele>569.0</ele><time>2026-05-03T14:59:19.999Z</time></trkpt><trkpt lat="42.05336170217049" lon="13.014706674697065"><ele>567.5</ele><time>2026-05-03T14:59:20.999Z</time></trkpt><trkpt lat="42.05313620394324" lon="13.014588946677929"><ele>566.0</ele><time>2026-05-03T14:59:21.999Z</time></trkpt><trkpt lat="42.05291552509131" lon="13.014467600169397"><ele>566.0</ele><time>2026-05-03T14:59:22.999Z</time></trkpt><trkpt lat="42.052700204089724" lon="13.014359253809936"><ele>566.0</ele><time>2026-05-03T14:59:23.999Z</time></trkpt><trkpt lat="42.052492507920356" lon="13.014252634787672"><ele>569.6666666666666</ele><time>2026-05-03T14:59:24.999Z</time></trkpt><trkpt lat="42.05228883327203" lon="13.014147440399837"><ele>573.3333333333334</ele><time>2026-05-03T14:59:25.999Z</time></trkpt><trkpt lat="42.052097169212836" lon="13.014037375012473"><ele>577.0</ele><time>2026-05-03T14:59:26.999Z</time></trkpt><trkpt lat="42.05192103485083" lon="13.013905309925331"><ele>577.0</ele><time>2026-05-03T14:59:27.999Z</time></trkpt><trkpt lat="42.05176870711786" lon="13.013745402224426"><ele>577.0</ele><time>2026-05-03T14:59:28.999Z</time></trkpt><trkpt lat="42.05163938820155" lon="13.01355598892497"><ele>577.0</ele><time>2026-05-03T14:59:29.999Z</time></trkpt><trkpt lat="42.05152419405424" lon="13.01335888194173"><ele>580.0</ele><time>2026-05-03T14:59:30.999Z</time></trkpt><trkpt lat="42.05139474690234" lon="13.013191239743742"><ele>583.0</ele><time>2026-05-03T14:59:31.999Z</time></trkpt><trkpt lat="42.051238061877164" lon="13.013063742188674"><ele>586.0</ele><time>2026-05-03T14:59:32.999Z</time></trkpt><trkpt lat="42.051077299833096" lon="13.012948729639854"><ele>586.0</ele><time>2026-05-03T14:59:33.999Z</time></trkpt><trkpt lat="42.050919743898184" lon="13.012838797669625"><ele>586.0</ele><time>2026-05-03T14:59:34.999Z</time></trkpt><trkpt lat="42.050749919346984" lon="13.012792379491318"><ele>586.0</ele><time>2026-05-03T14:59:35.999Z</time></trkpt><trkpt lat="42.05061806550102" lon="13.012733417240531"><ele>584.0</ele><time>2026-05-03T14:59:36.999Z</time></trkpt><trkpt lat="42.050438762129055" lon="13.012633437910985"><ele>582.0</ele><time>2026-05-03T14:59:37.999Z</time></trkpt><trkpt lat="42.050273454928494" lon="13.01257193057341"><ele>580.0</ele><time>2026-05-03T14:59:38.999Z</time></trkpt><trkpt lat="42.05010056844999" lon="13.01254778956022"><ele>580.3333333333334</ele><time>2026-05-03T14:59:39.999Z</time></trkpt><trkpt lat="42.04993149365704" lon="13.01253453033848"><ele>580.6666666666666</ele><time>2026-05-03T14:59:40.999Z</time></trkpt><trkpt lat="42.04976597201771" lon="13.012521321337028"><ele>581.0</ele><time>2026-05-03T14:59:41.999Z</time></trkpt><trkpt lat="42.04960159280861" lon="13.012541655065053"><ele>581.0</ele><time>2026-05-03T14:59:42.999Z</time></trkpt><trkpt lat="42.04944473791391" lon="13.0126244650613"><ele>581.0</ele><time>2026-05-03T14:59:43.998Z</time></trkpt><trkpt lat="42.049301596187654" lon="13.012735026944323"><ele>581.0</ele><time>2026-05-03T14:59:44.998Z</time></trkpt><trkpt lat="42.04917512559953" lon="13.012869498582107"><ele>582.0</ele><time>2026-05-03T14:59:45.998Z</time></trkpt><trkpt lat="42.04904534800624" lon="13.012996480959869"><ele>583.0</ele><time>2026-05-03T14:59:46.998Z</time></trkpt><trkpt lat="42.04889960850265" lon="13.013104049816766"><ele>584.0</ele><time>2026-05-03T14:59:47.998Z</time></trkpt><trkpt lat="42.04874517517197" lon="13.013186660411282"><ele>584.0</ele><time>2026-05-03T14:59:48.998Z</time></trkpt><trkpt lat="42.04859382033657" lon="13.013243328728077"><ele>584.0</ele><time>2026-05-03T14:59:49.998Z</time></trkpt><trkpt lat="42.04844863843536" lon="13.013291254805145"><ele>584.0</ele><time>2026-05-03T14:59:50.998Z</time></trkpt><trkpt lat="42.048309061536045" lon="13.013341347223287"><ele>577.0</ele><time>2026-05-03T14:59:51.998Z</time></trkpt><trkpt lat="42.0481722709965" lon="13.013394260345835"><ele>570.0</ele><time>2026-05-03T14:59:52.998Z</time></trkpt><trkpt lat="42.048046626326006" lon="13.013480514228855"><ele>563.0</ele><time>2026-05-03T14:59:53.998Z</time></trkpt><trkpt lat="42.047943793095115" lon="13.013598695828623"><ele>556.0</ele><time>2026-05-03T14:59:54.998Z</time></trkpt><trkpt lat="42.047843359208116" lon="13.013752773866539"><ele>556.0</ele><time>2026-05-03T14:59:55.998Z</time></trkpt><trkpt lat="42.04774140238832" lon="13.013906935060493"><ele>556.0</ele><time>2026-05-03T14:59:56.998Z</time></trkpt><trkpt lat="42.04763060392584" lon="13.014036828937456"><ele>556.0</ele><time>2026-05-03T14:59:57.998Z</time></trkpt><trkpt lat="42.04753718393807" lon="13.01416773739976"><ele>556.0</ele><time>2026-05-03T14:59:59Z</time></trkpt><trkpt lat="42.04745975593425" lon="13.014272957822506"><ele>554.3333333333334</ele><time>2026-05-03T15:00:00Z</time></trkpt><trkpt lat="42.04739895453833" lon="13.014351120839219"><ele>552.6666666666667</ele><time>2026-05-03T15:00:01Z</time></trkpt><trkpt lat="42.04729961603453" lon="13.014443509429052"><ele>551.0</ele><time>2026-05-03T15:00:03Z</time></trkpt><trkpt lat="42.04723511452542" lon="13.014442714517347"><ele>549.3333333333334</ele><time>2026-05-03T15:00:04Z</time></trkpt><trkpt lat="42.04717624522693" lon="13.014395883264351"><ele>547.6666666666666</ele><time>2026-05-03T15:00:05Z</time></trkpt><trkpt lat="42.047099138390706" lon="13.014302790121198"><ele>546.0</ele><time>2026-05-03T15:00:06Z</time></trkpt><trkpt lat="42.047036942490166" lon="13.014196361933783"><ele>546.6</ele><time>2026-05-03T15:00:07Z</time></trkpt><trkpt lat="42.046981031712924" lon="13.014071155818112"><ele>547.2</ele><time>2026-05-03T15:00:08Z</time></trkpt><trkpt lat="42.04692434909608" lon="13.013945637345973"><ele>547.8</ele><time>2026-05-03T15:00:09Z</time></trkpt><trkpt lat="42.046872161160586" lon="13.013818687535753"><ele>548.4</ele><time>2026-05-03T15:00:10Z</time></trkpt><trkpt lat="42.04679902535369" lon="13.013717291454233"><ele>549.0</ele><time>2026-05-03T15:00:11Z</time></trkpt><trkpt lat="42.04672155281089" lon="13.013607474812805"><ele>549.0</ele><time>2026-05-03T15:00:12Z</time></trkpt><trkpt lat="42.04663032237011" lon="13.01353868488873"><ele>549.0</ele><time>2026-05-03T15:00:13Z</time></trkpt><trkpt lat="42.04653036000678" lon="13.013501733001752"><ele>549.0</ele><time>2026-05-03T15:00:14Z</time></trkpt><trkpt lat="42.04643725846798" lon="13.013513923653958"><ele>549.0</ele><time>2026-05-03T15:00:15Z</time></trkpt><trkpt lat="42.04636530164258" lon="13.01354810513563"><ele>549.0</ele><time>2026-05-03T15:00:16Z</time></trkpt><trkpt lat="42.046290804671074" lon="13.013669525415953"><ele>549.0</ele><time>2026-05-03T15:00:17Z</time></trkpt><trkpt lat="42.0462272044494" lon="13.013806208874787"><ele>549.0</ele><time>2026-05-03T15:00:18Z</time></trkpt><trkpt lat="42.0461605784283" lon="13.01398521706292"><ele>549.0</ele><time>2026-05-03T15:00:19Z</time></trkpt><trkpt lat="42.046051406647564" lon="13.014166340417365"><ele>549.0</ele><time>2026-05-03T15:00:20Z</time></trkpt><trkpt lat="42.04598420082409" lon="13.014344308322377"><ele>546.75</ele><time>2026-05-03T15:00:21Z</time></trkpt><trkpt lat="42.04593396505908" lon="13.014529210473562"><ele>544.5</ele><time>2026-05-03T15:00:22Z</time></trkpt><trkpt lat="42.0459005138421" lon="13.014700943065368"><ele>542.25</ele><time>2026-05-03T15:00:23Z</time></trkpt><trkpt lat="42.04587027718047" lon="13.014843270686827"><ele>540.0</ele><time>2026-05-03T15:00:24Z</time></trkpt><trkpt lat="42.04584587502159" lon="13.014967445407834"><ele>537.0</ele><time>2026-05-03T15:00:25Z</time></trkpt><trkpt lat="42.045775252113316" lon="13.015051173559717"><ele>534.0</ele><time>2026-05-03T15:00:26Z</time></trkpt><trkpt lat="42.045684196437676" lon="13.015082300783376"><ele>531.0</ele><time>2026-05-03T15:00:27Z</time></trkpt><trkpt lat="42.04555878852268" lon="13.015051221646642"><ele>528.0</ele><time>2026-05-03T15:00:28Z</time></trkpt><trkpt lat="42.045410957715085" lon="13.015044601075239"><ele>528.0</ele><time>2026-05-03T15:00:29Z</time></trkpt><trkpt lat="42.045290925850594" lon="13.014989734652426"><ele>528.0</ele><time>2026-05-03T15:00:30Z</time></trkpt><trkpt lat="42.04516364994094" lon="13.014925508932754"><ele>528.0</ele><time>2026-05-03T15:00:31Z</time></trkpt><trkpt lat="42.045036134165386" lon="13.014823289616468"><ele>528.0</ele><time>2026-05-03T15:00:32Z</time></trkpt><trkpt lat="42.04489797949249" lon="13.014756147848294"><ele>528.3333333333334</ele><time>2026-05-03T15:00:33Z</time></trkpt><trkpt lat="42.0447350768089" lon="13.01474047948165"><ele>528.6666666666667</ele><time>2026-05-03T15:00:34Z</time></trkpt><trkpt lat="42.0445738061999" lon="13.014763236243239"><ele>529.0</ele><time>2026-05-03T15:00:35Z</time></trkpt><trkpt lat="42.04441443953458" lon="13.014776679505347"><ele>529.0</ele><time>2026-05-03T15:00:36Z</time></trkpt><trkpt lat="42.04425759031011" lon="13.014766843639263"><ele>529.0</ele><time>2026-05-03T15:00:37Z</time></trkpt><trkpt lat="42.044109584184454" lon="13.014762228487308"><ele>529.0</ele><time>2026-05-03T15:00:38Z</time></trkpt><trkpt lat="42.04398112381548" lon="13.014715613104434"><ele>529.0</ele><time>2026-05-03T15:00:39Z</time></trkpt><trkpt lat="42.043869971200834" lon="13.014606496742301"><ele>527.6666666666667</ele><time>2026-05-03T15:00:40Z</time></trkpt><trkpt lat="42.04373670751186" lon="13.014500050065617"><ele>526.3333333333334</ele><time>2026-05-03T15:00:41Z</time></trkpt><trkpt lat="42.04360534257248" lon="13.014391065797227"><ele>525.0</ele><time>2026-05-03T15:00:42Z</time></trkpt><trkpt lat="42.04344507800605" lon="13.014312682491605"><ele>523.3333333333334</ele><time>2026-05-03T15:00:43Z</time></trkpt><trkpt lat="42.043270835084535" lon="13.014265949983924"><ele>521.6666666666667</ele><time>2026-05-03T15:00:43.999Z</time></trkpt><trkpt lat="42.04310586567815" lon="13.01423490026684"><ele>520.0</ele><time>2026-05-03T15:00:44.999Z</time></trkpt><trkpt lat="42.04294822047123" lon="13.014239810085739"><ele>520.0</ele><time>2026-05-03T15:00:45.999Z</time></trkpt><trkpt lat="42.042799141391356" lon="13.014279359050715"><ele>520.0</ele><time>2026-05-03T15:00:46.999Z</time></trkpt><trkpt lat="42.04265559491129" lon="13.014334770089807"><ele>520.0</ele><time>2026-05-03T15:00:47.999Z</time></trkpt><trkpt lat="42.042512851422714" lon="13.014353066359188"><ele>520.0</ele><time>2026-05-03T15:00:48.999Z</time></trkpt><trkpt lat="42.04235711181984" lon="13.014279387484878"><ele>519.6666666666667</ele><time>2026-05-03T15:00:49.999Z</time></trkpt><trkpt lat="42.04220031963812" lon="13.01420890752601"><ele>519.3333333333334</ele><time>2026-05-03T15:00:50.999Z</time></trkpt><trkpt lat="42.04204777984957" lon="13.0141755924492"><ele>519.0</ele><time>2026-05-03T15:00:51.999Z</time></trkpt><trkpt lat="42.04187737147291" lon="13.014193732899425"><ele>519.0</ele><time>2026-05-03T15:00:52.999Z</time></trkpt><trkpt lat="42.0417131053614" lon="13.01422858172409"><ele>519.0</ele><time>2026-05-03T15:00:53.999Z</time></trkpt><trkpt lat="42.041561960729794" lon="13.014268515315665"><ele>519.0</ele><time>2026-05-03T15:00:54.999Z</time></trkpt><trkpt lat="42.04143012638379" lon="13.014319872336268"><ele>523.0</ele><time>2026-05-03T15:00:55.999Z</time></trkpt><trkpt lat="42.04130466549119" lon="13.014396674016707"><ele>527.0</ele><time>2026-05-03T15:00:56.999Z</time></trkpt><trkpt lat="42.04118345126135" lon="13.014524886091367"><ele>531.0</ele><time>2026-05-03T15:00:57.999Z</time></trkpt><trkpt lat="42.04107838387781" lon="13.0146859001924"><ele>531.0</ele><time>2026-05-03T15:00:58.999Z</time></trkpt><trkpt lat="42.04097747234649" lon="13.014831504120773"><ele>531.0</ele><time>2026-05-03T15:00:59.999Z</time></trkpt><trkpt lat="42.040871304409876" lon="13.014961254012315"><ele>531.0</ele><time>2026-05-03T15:01:00.999Z</time></trkpt><trkpt lat="42.04072894303534" lon="13.015046391674414"><ele>531.0</ele><time>2026-05-03T15:01:01.999Z</time></trkpt><trkpt lat="42.040559906251474" lon="13.01509163490819"><ele>524.0</ele><time>2026-05-03T15:01:02.999Z</time></trkpt><trkpt lat="42.04037565209997" lon="13.015147476768698"><ele>517.0</ele><time>2026-05-03T15:01:03.999Z</time></trkpt><trkpt lat="42.04023117741173" lon="13.015214144888109"><ele>510.0</ele><time>2026-05-03T15:01:04.999Z</time></trkpt><trkpt lat="42.0400922140942" lon="13.015334255487549"><ele>510.0</ele><time>2026-05-03T15:01:05.999Z</time></trkpt><trkpt lat="42.03998818142503" lon="13.015465742056792"><ele>510.0</ele><time>2026-05-03T15:01:06.999Z</time></trkpt><trkpt lat="42.039878924656406" lon="13.015532155892947"><ele>510.0</ele><time>2026-05-03T15:01:07.999Z</time></trkpt><trkpt lat="42.039749120207105" lon="13.01553698691836"><ele>510.0</ele><time>2026-05-03T15:01:08.999Z</time></trkpt><trkpt lat="42.03963012485075" lon="13.015510173082742"><ele>510.75</ele><time>2026-05-03T15:01:09.999Z</time></trkpt><trkpt lat="42.03950762691286" lon="13.015413427097952"><ele>511.5</ele><time>2026-05-03T15:01:10.999Z</time></trkpt><trkpt lat="42.03939941874155" lon="13.01529794019335"><ele>512.25</ele><time>2026-05-03T15:01:11.999Z</time></trkpt><trkpt lat="42.03930958722" lon="13.01512850396497"><ele>513.0</ele><time>2026-05-03T15:01:12.999Z</time></trkpt><trkpt lat="42.039234138608876" lon="13.014971446856533"><ele>513.0</ele><time>2026-05-03T15:01:13.999Z</time></trkpt><trkpt lat="42.039177154514114" lon="13.014831407756036"><ele>513.0</ele><time>2026-05-03T15:01:14.999Z</time></trkpt><trkpt lat="42.03912728135205" lon="13.014723676753826"><ele>513.0</ele><time>2026-05-03T15:01:15.999Z</time></trkpt><trkpt lat="42.03906533327281" lon="13.014652339295802"><ele>513.0</ele><time>2026-05-03T15:01:16.999Z</time></trkpt><trkpt lat="42.03899754822767" lon="13.014640183256112"><ele>513.0</ele><time>2026-05-03T15:01:17.999Z</time></trkpt><trkpt lat="42.03892569597135" lon="13.014668597565535"><ele>513.0</ele><time>2026-05-03T15:01:18.999Z</time></trkpt><trkpt lat="42.0388955236873" lon="13.014774626149022"><ele>507.5</ele><time>2026-05-03T15:01:19.999Z</time></trkpt><trkpt lat="42.038904437011894" lon="13.014881565102572"><ele>502.0</ele><time>2026-05-03T15:01:20.999Z</time></trkpt><trkpt lat="42.038948191675" lon="13.015026347909613"><ele>496.5</ele><time>2026-05-03T15:01:21.999Z</time></trkpt><trkpt lat="42.03904081424472" lon="13.015200073062653"><ele>491.0</ele><time>2026-05-03T15:01:22.999Z</time></trkpt><trkpt lat="42.039127821582305" lon="13.015373063585802"><ele>491.25</ele><time>2026-05-03T15:01:23.999Z</time></trkpt><trkpt lat="42.03920773455154" lon="13.015535888416998"><ele>491.5</ele><time>2026-05-03T15:01:24.999Z</time></trkpt><trkpt lat="42.039284576233975" lon="13.01569972071038"><ele>491.75</ele><time>2026-05-03T15:01:25.999Z</time></trkpt><trkpt lat="42.03936228729402" lon="13.015850098494933"><ele>492.0</ele><time>2026-05-03T15:01:26.999Z</time></trkpt><trkpt lat="42.03943959509088" lon="13.015971896799984"><ele>488.5</ele><time>2026-05-03T15:01:27.999Z</time></trkpt><trkpt lat="42.03952600792252" lon="13.016058473817681"><ele>485.0</ele><time>2026-05-03T15:01:28.999Z</time></trkpt><trkpt lat="42.039634838695356" lon="13.016093000162536"><ele>481.5</ele><time>2026-05-03T15:01:29.999Z</time></trkpt><trkpt lat="42.03977047969245" lon="13.016093197131383"><ele>478.0</ele><time>2026-05-03T15:01:30.999Z</time></trkpt><trkpt lat="42.0399180752313" lon="13.016074824289941"><ele>479.25</ele><time>2026-05-03T15:01:31.999Z</time></trkpt><trkpt lat="42.040042222052996" lon="13.016037495965277"><ele>480.5</ele><time>2026-05-03T15:01:32.999Z</time></trkpt><trkpt lat="42.04015886691396" lon="13.015955733553161"><ele>481.75</ele><time>2026-05-03T15:01:33.999Z</time></trkpt><trkpt lat="42.04027983514701" lon="13.015865680977118"><ele>483.0</ele><time>2026-05-03T15:01:34.999Z</time></trkpt><trkpt lat="42.04041766846113" lon="13.015806581447503"><ele>489.0</ele><time>2026-05-03T15:01:35.999Z</time></trkpt><trkpt lat="42.04055176927357" lon="13.015788768962357"><ele>495.0</ele><time>2026-05-03T15:01:36.999Z</time></trkpt><trkpt lat="42.040684887500674" lon="13.015782581487333"><ele>501.0</ele><time>2026-05-03T15:01:37.999Z</time></trkpt><trkpt lat="42.040807801461185" lon="13.01576950740645"><ele>507.0</ele><time>2026-05-03T15:01:38.999Z</time></trkpt><trkpt lat="42.04092611969185" lon="13.015763687915838"><ele>507.0</ele><time>2026-05-03T15:01:39.999Z</time></trkpt><trkpt lat="42.04102559248011" lon="13.015767757176928"><ele>507.0</ele><time>2026-05-03T15:01:40.999Z</time></trkpt><trkpt lat="42.04110629853557" lon="13.015774227085263"><ele>507.0</ele><time>2026-05-03T15:01:41.999Z</time></trkpt><trkpt lat="42.04117327145884" lon="13.015791098096646"><ele>507.0</ele><time>2026-05-03T15:01:42.999Z</time></trkpt><trkpt lat="42.04122822247323" lon="13.015838790060958"><ele>507.0</ele><time>2026-05-03T15:01:43.999Z</time></trkpt><trkpt lat="42.041262234166346" lon="13.015953151141195"><ele>507.0</ele><time>2026-05-03T15:01:45.999Z</time></trkpt><trkpt lat="42.04124798481408" lon="13.016072163363162"><ele>501.6</ele><time>2026-05-03T15:01:48.999Z</time></trkpt><trkpt lat="42.04130583109876" lon="13.016153703538274"><ele>496.20000000000005</ele><time>2026-05-03T15:01:50.998Z</time></trkpt><trkpt lat="42.04139534449906" lon="13.01613618502109"><ele>490.8</ele><time>2026-05-03T15:01:52.998Z</time></trkpt><trkpt lat="42.041460301392206" lon="13.016091497610788"><ele>485.4</ele><time>2026-05-03T15:01:54.998Z</time></trkpt><trkpt lat="42.04132736517212" lon="13.015970323468801"><ele>480.0</ele><time>2026-05-03T15:01:57.998Z</time></trkpt><trkpt lat="42.041253896167355" lon="13.015987325080596"><ele>480.0</ele><time>2026-05-03T15:02:13Z</time></trkpt><trkpt lat="42.041185211599924" lon="13.01600797708148"><ele>480.0</ele><time>2026-05-03T15:02:14Z</time></trkpt><trkpt lat="42.041102717236306" lon="13.016033493201325"><ele>480.0</ele><time>2026-05-03T15:02:15Z</time></trkpt><trkpt lat="42.041005278442874" lon="13.016037536652009"><ele>480.0</ele><time>2026-05-03T15:02:16Z</time></trkpt><trkpt lat="42.040897126406875" lon="13.016044556704806"><ele>480.0</ele><time>2026-05-03T15:02:17Z</time></trkpt><trkpt lat="42.040779187235465" lon="13.016060575439614"><ele>480.75</ele><time>2026-05-03T15:02:18Z</time></trkpt><trkpt lat="42.04065379066155" lon="13.016076473599117"><ele>481.5</ele><time>2026-05-03T15:02:19Z</time></trkpt><trkpt lat="42.04053639614288" lon="13.016099967876805"><ele>482.25</ele><time>2026-05-03T15:02:20Z</time></trkpt><trkpt lat="42.040430211858244" lon="13.016131344623115"><ele>483.0</ele><time>2026-05-03T15:02:21Z</time></trkpt><trkpt lat="42.04032792558915" lon="13.01615609314799"><ele>483.0</ele><time>2026-05-03T15:02:22Z</time></trkpt><trkpt lat="42.04022093813473" lon="13.01619471598302"><ele>483.0</ele><time>2026-05-03T15:02:23Z</time></trkpt><trkpt lat="42.040115487731356" lon="13.016247074299873"><ele>483.0</ele><time>2026-05-03T15:02:24Z</time></trkpt><trkpt lat="42.04000367174084" lon="13.016318906767623"><ele>483.0</ele><time>2026-05-03T15:02:25Z</time></trkpt><trkpt lat="42.03988941863438" lon="13.016397465752691"><ele>481.75</ele><time>2026-05-03T15:02:26Z</time></trkpt><trkpt lat="42.039778805511816" lon="13.016475748333628"><ele>480.5</ele><time>2026-05-03T15:02:27Z</time></trkpt><trkpt lat="42.03965595525038" lon="13.016526864709027"><ele>479.25</ele><time>2026-05-03T15:02:28Z</time></trkpt><trkpt lat="42.039526577505164" lon="13.0165647365689"><ele>478.0</ele><time>2026-05-03T15:02:29Z</time></trkpt><trkpt lat="42.03940520474091" lon="13.01658460499218"><ele>478.0</ele><time>2026-05-03T15:02:30Z</time></trkpt><trkpt lat="42.039275925728745" lon="13.016548820392517"><ele>478.0</ele><time>2026-05-03T15:02:31Z</time></trkpt><trkpt lat="42.03913238590394" lon="13.016499634856382"><ele>478.0</ele><time>2026-05-03T15:02:32Z</time></trkpt><trkpt lat="42.03899283890359" lon="13.016434733672305"><ele>478.0</ele><time>2026-05-03T15:02:33Z</time></trkpt><trkpt lat="42.03885400853282" lon="13.016383087399227"><ele>472.5</ele><time>2026-05-03T15:02:34Z</time></trkpt><trkpt lat="42.03872379621723" lon="13.016321172803996"><ele>467.0</ele><time>2026-05-03T15:02:35Z</time></trkpt><trkpt lat="42.03861685230472" lon="13.016265987109072"><ele>461.5</ele><time>2026-05-03T15:02:36Z</time></trkpt><trkpt lat="42.0385263718991" lon="13.016185415156636"><ele>456.0</ele><time>2026-05-03T15:02:37Z</time></trkpt><trkpt lat="42.03846485707673" lon="13.016067735381766"><ele>456.0</ele><time>2026-05-03T15:02:38Z</time></trkpt><trkpt lat="42.03843342703621" lon="13.015926677003346"><ele>456.0</ele><time>2026-05-03T15:02:39Z</time></trkpt><trkpt lat="42.03841253274171" lon="13.015774812392968"><ele>456.0</ele><time>2026-05-03T15:02:40Z</time></trkpt><trkpt lat="42.0383655218909" lon="13.015618136529344"><ele>456.0</ele><time>2026-05-03T15:02:41Z</time></trkpt><trkpt lat="42.03826419635182" lon="13.01544752485379"><ele>454.66666666666663</ele><time>2026-05-03T15:02:42Z</time></trkpt><trkpt lat="42.038127670996836" lon="13.01531364478574"><ele>453.3333333333333</ele><time>2026-05-03T15:02:43Z</time></trkpt><trkpt lat="42.03800170497815" lon="13.015196053817808"><ele>452.0</ele><time>2026-05-03T15:02:44Z</time></trkpt><trkpt lat="42.037883468604676" lon="13.015113024078442"><ele>452.0</ele><time>2026-05-03T15:02:45Z</time></trkpt><trkpt lat="42.03774368021777" lon="13.015055367211334"><ele>452.00000000000006</ele><time>2026-05-03T15:02:46Z</time></trkpt><trkpt lat="42.03761450401011" lon="13.015074401158367"><ele>452.00000000000006</ele><time>2026-05-03T15:02:47Z</time></trkpt><trkpt lat="42.03752653949661" lon="13.01509162329896"><ele>452.0</ele><time>2026-05-03T15:02:48Z</time></trkpt><trkpt lat="42.037453616726225" lon="13.015117369061954"><ele>452.0</ele><time>2026-05-03T15:02:49Z</time></trkpt><trkpt lat="42.037341898468306" lon="13.01505928288902"><ele>451.5</ele><time>2026-05-03T15:02:50Z</time></trkpt><trkpt lat="42.03724639257581" lon="13.014944497849898"><ele>451.0</ele><time>2026-05-03T15:02:51Z</time></trkpt><trkpt lat="42.037160802176714" lon="13.014808222932485"><ele>450.5</ele><time>2026-05-03T15:02:52Z</time></trkpt><trkpt lat="42.03708699404886" lon="13.014648422238903"><ele>450.0</ele><time>2026-05-03T15:02:52.999Z</time></trkpt><trkpt lat="42.037010827284014" lon="13.014493817053607"><ele>450.0</ele><time>2026-05-03T15:02:53.999Z</time></trkpt><trkpt lat="42.036939261256826" lon="13.014341441250787"><ele>450.0</ele><time>2026-05-03T15:02:54.999Z</time></trkpt><trkpt lat="42.03686042005415" lon="13.014212341094886"><ele>450.0</ele><time>2026-05-03T15:02:55.999Z</time></trkpt><trkpt lat="42.03676081397851" lon="13.014148764723075"><ele>450.0</ele><time>2026-05-03T15:02:56.999Z</time></trkpt><trkpt lat="42.036631852360436" lon="13.014132392835432"><ele>447.0</ele><time>2026-05-03T15:02:57.999Z</time></trkpt><trkpt lat="42.03649585652513" lon="13.014166700978658"><ele>444.0</ele><time>2026-05-03T15:02:58.999Z</time></trkpt><trkpt lat="42.03634791137247" lon="13.014240541375058"><ele>441.0</ele><time>2026-05-03T15:02:59.999Z</time></trkpt><trkpt lat="42.03620377841314" lon="13.014279495536105"><ele>438.0</ele><time>2026-05-03T15:03:00.999Z</time></trkpt><trkpt lat="42.036070219375574" lon="13.014344004514154"><ele>438.0</ele><time>2026-05-03T15:03:01.999Z</time></trkpt><trkpt lat="42.035924034703875" lon="13.014346865326031"><ele>438.0</ele><time>2026-05-03T15:03:02.999Z</time></trkpt><trkpt lat="42.03578626335008" lon="13.014279478646793"><ele>438.0</ele><time>2026-05-03T15:03:03.999Z</time></trkpt><trkpt lat="42.035644515967626" lon="13.01422312451208"><ele>438.0</ele><time>2026-05-03T15:03:04.999Z</time></trkpt><trkpt lat="42.035516890586855" lon="13.014166643301369"><ele>438.0</ele><time>2026-05-03T15:03:05.999Z</time></trkpt><trkpt lat="42.03538576381981" lon="13.014099818176602"><ele>438.0</ele><time>2026-05-03T15:03:06.999Z</time></trkpt><trkpt lat="42.03528298961345" lon="13.014022497205405"><ele>438.0</ele><time>2026-05-03T15:03:07.999Z</time></trkpt><trkpt lat="42.03519067041126" lon="13.01390114257098"><ele>438.0</ele><time>2026-05-03T15:03:08.999Z</time></trkpt><trkpt lat="42.035035181833585" lon="13.013692514413352"><ele>437.66666666666663</ele><time>2026-05-03T15:03:09.999Z</time></trkpt><trkpt lat="42.03486636923214" lon="13.013517408158172"><ele>437.3333333333333</ele><time>2026-05-03T15:03:10.999Z</time></trkpt><trkpt lat="42.03470998949018" lon="13.01336815514201"><ele>437.0</ele><time>2026-05-03T15:03:11.999Z</time></trkpt><trkpt lat="42.03457723178869" lon="13.013242631561011"><ele>437.0</ele><time>2026-05-03T15:03:12.999Z</time></trkpt><trkpt lat="42.03442680395835" lon="13.013101332310306"><ele>437.0</ele><time>2026-05-03T15:03:13.999Z</time></trkpt><trkpt lat="42.03428527337258" lon="13.012968390137079"><ele>437.0</ele><time>2026-05-03T15:03:14.999Z</time></trkpt><trkpt lat="42.034161403090614" lon="13.012890431526012"><ele>436.75</ele><time>2026-05-03T15:03:15.999Z</time></trkpt><trkpt lat="42.034050261418315" lon="13.012848144585972"><ele>436.5</ele><time>2026-05-03T15:03:16.999Z</time></trkpt><trkpt lat="42.03393509581025" lon="13.012883488215854"><ele>436.25</ele><time>2026-05-03T15:03:17.999Z</time></trkpt><trkpt lat="42.03381212458729" lon="13.01297673619955"><ele>436.0</ele><time>2026-05-03T15:03:18.999Z</time></trkpt><trkpt lat="42.03367586215841" lon="13.013062358022012"><ele>436.0</ele><time>2026-05-03T15:03:19.999Z</time></trkpt><trkpt lat="42.03353699195647" lon="13.013170675998337"><ele>436.0</ele><time>2026-05-03T15:03:20.999Z</time></trkpt><trkpt lat="42.0334110381352" lon="13.013284086624411"><ele>436.0</ele><time>2026-05-03T15:03:21.999Z</time></trkpt><trkpt lat="42.0332657474318" lon="13.013351216639055"><ele>430.33333333333337</ele><time>2026-05-03T15:03:22.999Z</time></trkpt><trkpt lat="42.03309540799563" lon="13.013391146790838"><ele>424.66666666666663</ele><time>2026-05-03T15:03:23.999Z</time></trkpt><trkpt lat="42.03291582268545" lon="13.013413888007047"><ele>419.0</ele><time>2026-05-03T15:03:24.999Z</time></trkpt><trkpt lat="42.03274007498418" lon="13.013437290684687"><ele>419.0</ele><time>2026-05-03T15:03:25.999Z</time></trkpt><trkpt lat="42.032566496376646" lon="13.01345886131867"><ele>419.0</ele><time>2026-05-03T15:03:26.999Z</time></trkpt><trkpt lat="42.03238843451045" lon="13.013502783097293"><ele>419.0</ele><time>2026-05-03T15:03:27.999Z</time></trkpt><trkpt lat="42.0322163704306" lon="13.013559202854324"><ele>421.3333333333333</ele><time>2026-05-03T15:03:28.999Z</time></trkpt><trkpt lat="42.0320441052915" lon="13.01364145100131"><ele>423.66666666666663</ele><time>2026-05-03T15:03:29.999Z</time></trkpt><trkpt lat="42.03185915224062" lon="13.013745029488032"><ele>426.0</ele><time>2026-05-03T15:03:30.999Z</time></trkpt><trkpt lat="42.031663692910335" lon="13.013890832240548"><ele>423.0</ele><time>2026-05-03T15:03:31.999Z</time></trkpt><trkpt lat="42.031469734975246" lon="13.014032002395957"><ele>420.0</ele><time>2026-05-03T15:03:32.999Z</time></trkpt><trkpt lat="42.03128926313497" lon="13.014166728956617"><ele>417.0</ele><time>2026-05-03T15:03:33.999Z</time></trkpt><trkpt lat="42.03111884133757" lon="13.014318127534498"><ele>417.0</ele><time>2026-05-03T15:03:34.999Z</time></trkpt><trkpt lat="42.03095126680025" lon="13.014425857286234"><ele>417.0</ele><time>2026-05-03T15:03:35.999Z</time></trkpt><trkpt lat="42.03080480450382" lon="13.01453397665355"><ele>417.0</ele><time>2026-05-03T15:03:36.999Z</time></trkpt><trkpt lat="42.03065222768196" lon="13.014604237247475"><ele>419.33333333333337</ele><time>2026-05-03T15:03:37.999Z</time></trkpt><trkpt lat="42.03049304453178" lon="13.01465013950133"><ele>421.6666666666667</ele><time>2026-05-03T15:03:38.999Z</time></trkpt><trkpt lat="42.03033318983432" lon="13.01470006891457"><ele>424.0</ele><time>2026-05-03T15:03:39.999Z</time></trkpt><trkpt lat="42.03019650908903" lon="13.014770028171657"><ele>424.0</ele><time>2026-05-03T15:03:40.999Z</time></trkpt><trkpt lat="42.03008569853025" lon="13.014880172655621"><ele>424.0</ele><time>2026-05-03T15:03:41.999Z</time></trkpt><trkpt lat="42.02998533981556" lon="13.015049737864489"><ele>424.0</ele><time>2026-05-03T15:03:42.999Z</time></trkpt><trkpt lat="42.02987076143756" lon="13.015244314480908"><ele>418.6666666666667</ele><time>2026-05-03T15:03:43.999Z</time></trkpt><trkpt lat="42.02975909273635" lon="13.015430170427063"><ele>413.33333333333337</ele><time>2026-05-03T15:03:44.999Z</time></trkpt><trkpt lat="42.02962815999603" lon="13.015616343370406"><ele>408.0</ele><time>2026-05-03T15:03:45.999Z</time></trkpt><trkpt lat="42.02947422922847" lon="13.015747464665981"><ele>403.66666666666663</ele><time>2026-05-03T15:03:46.999Z</time></trkpt><trkpt lat="42.02935438176764" lon="13.015891845496553"><ele>399.3333333333333</ele><time>2026-05-03T15:03:47.999Z</time></trkpt><trkpt lat="42.02922008269229" lon="13.01602027644615"><ele>395.0</ele><time>2026-05-03T15:03:48.999Z</time></trkpt><trkpt lat="42.02910106044997" lon="13.016137875290957"><ele>393.75</ele><time>2026-05-03T15:03:49.999Z</time></trkpt><trkpt lat="42.02899852805684" lon="13.01625209082"><ele>392.5</ele><time>2026-05-03T15:03:50.999Z</time></trkpt><trkpt lat="42.028882001906176" lon="13.016324404126644"><ele>391.25</ele><time>2026-05-03T15:03:51.999Z</time></trkpt><trkpt lat="42.028754086195924" lon="13.016324162824043"><ele>390.0</ele><time>2026-05-03T15:03:52.999Z</time></trkpt><trkpt lat="42.02862531327326" lon="13.016289037145722"><ele>390.0</ele><time>2026-05-03T15:03:53.999Z</time></trkpt><trkpt lat="42.02850787067379" lon="13.01619965317486"><ele>390.0</ele><time>2026-05-03T15:03:54.999Z</time></trkpt><trkpt lat="42.02838540242112" lon="13.01606823050561"><ele>390.0</ele><time>2026-05-03T15:03:55.999Z</time></trkpt><trkpt lat="42.02825128738711" lon="13.015952281505797"><ele>387.0</ele><time>2026-05-03T15:03:56.999Z</time></trkpt><trkpt lat="42.02810324495879" lon="13.015891494503867"><ele>384.0</ele><time>2026-05-03T15:03:57.999Z</time></trkpt><trkpt lat="42.02794986169058" lon="13.015871564324826"><ele>381.0</ele><time>2026-05-03T15:03:58.998Z</time></trkpt><trkpt lat="42.02779943477861" lon="13.015893744612757"><ele>381.0</ele><time>2026-05-03T15:03:59.998Z</time></trkpt><trkpt lat="42.02764709030566" lon="13.015966384705067"><ele>381.0</ele><time>2026-05-03T15:04:00.998Z</time></trkpt><trkpt lat="42.02750517246057" lon="13.016062379956356"><ele>381.0</ele><time>2026-05-03T15:04:01.998Z</time></trkpt><trkpt lat="42.02736286630725" lon="13.016151018298208"><ele>379.3333333333333</ele><time>2026-05-03T15:04:02.998Z</time></trkpt><trkpt lat="42.027211796017234" lon="13.01619230442882"><ele>377.66666666666663</ele><time>2026-05-03T15:04:03.998Z</time></trkpt><trkpt lat="42.02705527604564" lon="13.016190655002205"><ele>376.0</ele><time>2026-05-03T15:04:04.998Z</time></trkpt><trkpt lat="42.02690168927956" lon="13.016159640783501"><ele>376.0</ele><time>2026-05-03T15:04:05.998Z</time></trkpt><trkpt lat="42.02675551894228" lon="13.016108858708822"><ele>376.0</ele><time>2026-05-03T15:04:06.998Z</time></trkpt><trkpt lat="42.02662761998372" lon="13.016015631574215"><ele>376.0</ele><time>2026-05-03T15:04:07.998Z</time></trkpt><trkpt lat="42.02650759205488" lon="13.01587629803681"><ele>373.3333333333333</ele><time>2026-05-03T15:04:08.998Z</time></trkpt><trkpt lat="42.02639012487462" lon="13.015715750130205"><ele>370.6666666666667</ele><time>2026-05-03T15:04:09.998Z</time></trkpt><trkpt lat="42.02626239849092" lon="13.015565919184361"><ele>368.0</ele><time>2026-05-03T15:04:11Z</time></trkpt><trkpt lat="42.02613078379532" lon="13.015442651776791"><ele>368.0</ele><time>2026-05-03T15:04:12Z</time></trkpt><trkpt lat="42.025995613010714" lon="13.015357167863817"><ele>368.0</ele><time>2026-05-03T15:04:13Z</time></trkpt><trkpt lat="42.0258634810073" lon="13.015328838325578"><ele>368.0</ele><time>2026-05-03T15:04:14Z</time></trkpt><trkpt lat="42.02574332031028" lon="13.015357092265798"><ele>368.0</ele><time>2026-05-03T15:04:15Z</time></trkpt><trkpt lat="42.025630476204825" lon="13.015441322499447"><ele>365.25</ele><time>2026-05-03T15:04:16Z</time></trkpt><trkpt lat="42.02551763547826" lon="13.01555795897286"><ele>362.5</ele><time>2026-05-03T15:04:17Z</time></trkpt><trkpt lat="42.02540278005012" lon="13.015667793080764"><ele>359.75</ele><time>2026-05-03T15:04:18Z</time></trkpt><trkpt lat="42.02527217430781" lon="13.015733049385963"><ele>357.0</ele><time>2026-05-03T15:04:19Z</time></trkpt><trkpt lat="42.025131999941465" lon="13.015768756898723"><ele>357.0</ele><time>2026-05-03T15:04:20Z</time></trkpt><trkpt lat="42.02498069139672" lon="13.015794329799885"><ele>357.0</ele><time>2026-05-03T15:04:21Z</time></trkpt><trkpt lat="42.024824941577506" lon="13.01581825321561"><ele>357.0</ele><time>2026-05-03T15:04:22Z</time></trkpt><trkpt lat="42.02469041866443" lon="13.01581705655437"><ele>357.0</ele><time>2026-05-03T15:04:23Z</time></trkpt><trkpt lat="42.02456811962236" lon="13.01583048713001"><ele>356.0</ele><time>2026-05-03T15:04:24Z</time></trkpt><trkpt lat="42.02446516498849" lon="13.015841793304869"><ele>355.0</ele><time>2026-05-03T15:04:25Z</time></trkpt><trkpt lat="42.02438261550999" lon="13.015820032951241"><ele>354.0</ele><time>2026-05-03T15:04:27Z</time></trkpt><trkpt lat="42.024311312803604" lon="13.015756124311444"><ele>353.0</ele><time>2026-05-03T15:04:28Z</time></trkpt><trkpt lat="42.02435100413009" lon="13.015624854433169"><ele>352.0</ele><time>2026-05-03T15:04:29Z</time></trkpt><trkpt lat="42.02442364844288" lon="13.015519930591122"><ele>351.0</ele><time>2026-05-03T15:04:30Z</time></trkpt><trkpt lat="42.02452179695525" lon="13.015460396792793"><ele>350.0</ele><time>2026-05-03T15:04:31Z</time></trkpt><trkpt lat="42.02464140001312" lon="13.01539842920045"><ele>349.0</ele><time>2026-05-03T15:04:32Z</time></trkpt><trkpt lat="42.024745467664474" lon="13.015322295195089"><ele>348.0</ele><time>2026-05-03T15:04:33Z</time></trkpt><trkpt lat="42.02482400698258" lon="13.015191282841133"><ele>348.0</ele><time>2026-05-03T15:04:34Z</time></trkpt><trkpt lat="42.02487602064323" lon="13.015022392981"><ele>348.0</ele><time>2026-05-03T15:04:35Z</time></trkpt><trkpt lat="42.02489232960437" lon="13.014822881028504"><ele>348.0</ele><time>2026-05-03T15:04:36Z</time></trkpt><trkpt lat="42.024900716110345" lon="13.014651609656244"><ele>348.0</ele><time>2026-05-03T15:04:37Z</time></trkpt><trkpt lat="42.02488889565642" lon="13.01447152222751"><ele>347.75</ele><time>2026-05-03T15:04:38Z</time></trkpt><trkpt lat="42.024835572238494" lon="13.01433761122046"><ele>347.5</ele><time>2026-05-03T15:04:39Z</time></trkpt><trkpt lat="42.02474708578382" lon="13.014216460342663"><ele>347.25</ele><time>2026-05-03T15:04:40Z</time></trkpt><trkpt lat="42.02463420922351" lon="13.014093304049851"><ele>347.0</ele><time>2026-05-03T15:04:41Z</time></trkpt><trkpt lat="42.024514570779814" lon="13.013973067039299"><ele>347.6666666666667</ele><time>2026-05-03T15:04:42Z</time></trkpt><trkpt lat="42.024391401228954" lon="13.013854402672733"><ele>348.3333333333333</ele><time>2026-05-03T15:04:43Z</time></trkpt><trkpt lat="42.02427304953847" lon="13.013716687667438"><ele>349.0</ele><time>2026-05-03T15:04:44Z</time></trkpt><trkpt lat="42.02417257823064" lon="13.013544740905978"><ele>346.5</ele><time>2026-05-03T15:04:45Z</time></trkpt><trkpt lat="42.0240914274637" lon="13.0133827011921"><ele>344.0</ele><time>2026-05-03T15:04:46Z</time></trkpt><trkpt lat="42.024018179122244" lon="13.013228080025907"><ele>341.5</ele><time>2026-05-03T15:04:47Z</time></trkpt><trkpt lat="42.02391886587919" lon="13.01308377319231"><ele>339.0</ele><time>2026-05-03T15:04:48Z</time></trkpt><trkpt lat="42.023783168956186" lon="13.0129757477332"><ele>339.0</ele><time>2026-05-03T15:04:49Z</time></trkpt><trkpt lat="42.02365467265687" lon="13.012862261450033"><ele>339.0</ele><time>2026-05-03T15:04:50Z</time></trkpt><trkpt lat="42.02354316954033" lon="13.012756223918394"><ele>339.0</ele><time>2026-05-03T15:04:51Z</time></trkpt><trkpt lat="42.02342770371796" lon="13.012640326585807"><ele>339.0</ele><time>2026-05-03T15:04:52Z</time></trkpt><trkpt lat="42.02331772523748" lon="13.012494738086117"><ele>336.3333333333333</ele><time>2026-05-03T15:04:53Z</time></trkpt><trkpt lat="42.02321892488504" lon="13.012332913644304"><ele>333.66666666666663</ele><time>2026-05-03T15:04:54Z</time></trkpt><trkpt lat="42.02312484248957" lon="13.012161895173168"><ele>331.0</ele><time>2026-05-03T15:04:55Z</time></trkpt><trkpt lat="42.02302476144709" lon="13.011977739709888"><ele>331.0</ele><time>2026-05-03T15:04:56Z</time></trkpt><trkpt lat="42.022925078002324" lon="13.011779289580927"><ele>331.0</ele><time>2026-05-03T15:04:57Z</time></trkpt><trkpt lat="42.02282733213203" lon="13.011588528617372"><ele>331.0</ele><time>2026-05-03T15:04:58Z</time></trkpt><trkpt lat="42.02274948500735" lon="13.01139640850417"><ele>331.66666666666663</ele><time>2026-05-03T15:04:59Z</time></trkpt><trkpt lat="42.022672289546776" lon="13.011218337103726"><ele>332.3333333333333</ele><time>2026-05-03T15:04:59.999Z</time></trkpt><trkpt lat="42.02259035424252" lon="13.011048761423032"><ele>333.0</ele><time>2026-05-03T15:05:00.999Z</time></trkpt><trkpt lat="42.022491793980016" lon="13.010877679895398"><ele>330.6666666666667</ele><time>2026-05-03T15:05:01.999Z</time></trkpt><trkpt lat="42.02238419618519" lon="13.010705515340975"><ele>328.33333333333337</ele><time>2026-05-03T15:05:02.999Z</time></trkpt><trkpt lat="42.02227881339299" lon="13.010540508211161"><ele>326.0</ele><time>2026-05-03T15:05:03.999Z</time></trkpt><trkpt lat="42.02216651927035" lon="13.010384810006501"><ele>326.0</ele><time>2026-05-03T15:05:04.999Z</time></trkpt><trkpt lat="42.022063058113844" lon="13.010222371479715"><ele>326.0</ele><time>2026-05-03T15:05:05.999Z</time></trkpt><trkpt lat="42.02196112672787" lon="13.010065182240306"><ele>326.0</ele><time>2026-05-03T15:05:06.999Z</time></trkpt><trkpt lat="42.021859039055684" lon="13.009918637109799"><ele>326.75</ele><time>2026-05-03T15:05:07.999Z</time></trkpt><trkpt lat="42.02176753382221" lon="13.009772466231546"><ele>327.5</ele><time>2026-05-03T15:05:08.999Z</time></trkpt><trkpt lat="42.02169301124413" lon="13.009637888271019"><ele>328.25</ele><time>2026-05-03T15:05:09.999Z</time></trkpt><trkpt lat="42.02162120720828" lon="13.00949631996652"><ele>329.0</ele><time>2026-05-03T15:05:10.999Z</time></trkpt><trkpt lat="42.021567647074114" lon="13.009336946681096"><ele>327.5</ele><time>2026-05-03T15:05:11.999Z</time></trkpt><trkpt lat="42.021544334970706" lon="13.009147414267522"><ele>326.0</ele><time>2026-05-03T15:05:12.999Z</time></trkpt><trkpt lat="42.02154401899256" lon="13.008952858572615"><ele>324.5</ele><time>2026-05-03T15:05:13.999Z</time></trkpt><trkpt lat="42.02154084403873" lon="13.008768815849775"><ele>323.0</ele><time>2026-05-03T15:05:14.999Z</time></trkpt><trkpt lat="42.0215224514742" lon="13.008574401266955"><ele>323.0</ele><time>2026-05-03T15:05:15.999Z</time></trkpt><trkpt lat="42.02148711336747" lon="13.008392569476458"><ele>323.0</ele><time>2026-05-03T15:05:16.999Z</time></trkpt><trkpt lat="42.02142714941522" lon="13.00821219587452"><ele>323.0</ele><time>2026-05-03T15:05:17.999Z</time></trkpt><trkpt lat="42.021352982166995" lon="13.008052405155693"><ele>323.0</ele><time>2026-05-03T15:05:18.999Z</time></trkpt><trkpt lat="42.021260941291466" lon="13.007840579034642"><ele>323.33333333333337</ele><time>2026-05-03T15:05:19.999Z</time></trkpt><trkpt lat="42.02114744272701" lon="13.007614133569206"><ele>323.6666666666667</ele><time>2026-05-03T15:05:20.999Z</time></trkpt><trkpt lat="42.021050173612764" lon="13.007378106132583"><ele>324.0</ele><time>2026-05-03T15:05:21.999Z</time></trkpt><trkpt lat="42.02092836547436" lon="13.007154772162846"><ele>324.6666666666667</ele><time>2026-05-03T15:05:22.999Z</time></trkpt><trkpt lat="42.02080593788443" lon="13.006922819361618"><ele>325.33333333333337</ele><time>2026-05-03T15:05:23.999Z</time></trkpt><trkpt lat="42.0206754159033" lon="13.006681201250922"><ele>326.0</ele><time>2026-05-03T15:05:24.999Z</time></trkpt><trkpt lat="42.02054162056207" lon="13.006431160760336"><ele>326.0</ele><time>2026-05-03T15:05:25.999Z</time></trkpt><trkpt lat="42.02040064387171" lon="13.00616284635607"><ele>326.0</ele><time>2026-05-03T15:05:26.999Z</time></trkpt><trkpt lat="42.02027062443516" lon="13.005869679301098"><ele>326.0</ele><time>2026-05-03T15:05:27.999Z</time></trkpt><trkpt lat="42.02012935916797" lon="13.005587733572659"><ele>326.0</ele><time>2026-05-03T15:05:28.999Z</time></trkpt><trkpt lat="42.01998238567649" lon="13.005315442902925"><ele>326.0</ele><time>2026-05-03T15:05:29.999Z</time></trkpt><trkpt lat="42.019853617164785" lon="13.005030057046925"><ele>326.0</ele><time>2026-05-03T15:05:30.999Z</time></trkpt><trkpt lat="42.019720986563364" lon="13.00476445849648"><ele>326.5</ele><time>2026-05-03T15:05:31.999Z</time></trkpt><trkpt lat="42.01958059369228" lon="13.004500743025607"><ele>327.0</ele><time>2026-05-03T15:05:32.999Z</time></trkpt><trkpt lat="42.01945301400093" lon="13.004247645301731"><ele>326.6666666666667</ele><time>2026-05-03T15:05:33.999Z</time></trkpt><trkpt lat="42.019330251904094" lon="13.004009479746085"><ele>326.33333333333337</ele><time>2026-05-03T15:05:34.999Z</time></trkpt><trkpt lat="42.01921519847324" lon="13.003778200912786"><ele>326.0</ele><time>2026-05-03T15:05:35.999Z</time></trkpt><trkpt lat="42.01910314813738" lon="13.003558189889109"><ele>326.0</ele><time>2026-05-03T15:05:36.999Z</time></trkpt><trkpt lat="42.01899915636576" lon="13.003343983991456"><ele>326.0</ele><time>2026-05-03T15:05:37.999Z</time></trkpt><trkpt lat="42.018905446349244" lon="13.003125037643745"><ele>326.0</ele><time>2026-05-03T15:05:38.999Z</time></trkpt><trkpt lat="42.01882367466833" lon="13.002919539348738"><ele>326.33333333333337</ele><time>2026-05-03T15:05:39.999Z</time></trkpt><trkpt lat="42.01875181483261" lon="13.002697849647323"><ele>326.6666666666667</ele><time>2026-05-03T15:05:40.999Z</time></trkpt><trkpt lat="42.018697429477555" lon="13.002470248745283"><ele>327.0</ele><time>2026-05-03T15:05:41.999Z</time></trkpt><trkpt lat="42.01865901413547" lon="13.002249771429181"><ele>327.0</ele><time>2026-05-03T15:05:42.999Z</time></trkpt><trkpt lat="42.01863835285808" lon="13.002026766081684"><ele>327.0</ele><time>2026-05-03T15:05:43.999Z</time></trkpt><trkpt lat="42.01862419447778" lon="13.001812692920842"><ele>327.0</ele><time>2026-05-03T15:05:44.999Z</time></trkpt><trkpt lat="42.01862249257451" lon="13.001585130496041"><ele>327.0</ele><time>2026-05-03T15:05:45.999Z</time></trkpt><trkpt lat="42.01863538662422" lon="13.00135490418002"><ele>327.0</ele><time>2026-05-03T15:05:46.999Z</time></trkpt><trkpt lat="42.018686168866594" lon="13.00112318516926"><ele>327.0</ele><time>2026-05-03T15:05:47.999Z</time></trkpt><trkpt lat="42.018736924089694" lon="13.000862818964475"><ele>327.5</ele><time>2026-05-03T15:05:48.999Z</time></trkpt><trkpt lat="42.01880037703069" lon="13.00057632316508"><ele>328.0</ele><time>2026-05-03T15:05:49.999Z</time></trkpt><trkpt lat="42.018870264932175" lon="13.000271043933587"><ele>328.0</ele><time>2026-05-03T15:05:50.999Z</time></trkpt><trkpt lat="42.018940286627846" lon="12.99996518028753"><ele>328.0</ele><time>2026-05-03T15:05:51.999Z</time></trkpt><trkpt lat="42.01901183305915" lon="12.999652656379567"><ele>328.0</ele><time>2026-05-03T15:05:52.999Z</time></trkpt><trkpt lat="42.019079271053094" lon="12.999358078662471"><ele>328.0</ele><time>2026-05-03T15:05:53.999Z</time></trkpt><trkpt lat="42.019143870215736" lon="12.999075901330722"><ele>328.0</ele><time>2026-05-03T15:05:54.999Z</time></trkpt><trkpt lat="42.01920913309393" lon="12.998790898380244"><ele>329.5</ele><time>2026-05-03T15:05:55.999Z</time></trkpt><trkpt lat="42.01927560913243" lon="12.998492466831928"><ele>331.0</ele><time>2026-05-03T15:05:56.999Z</time></trkpt><trkpt lat="42.019342219889715" lon="12.998196330403713"><ele>331.0</ele><time>2026-05-03T15:05:57.999Z</time></trkpt><trkpt lat="42.01941205006215" lon="12.997901874843176"><ele>331.0</ele><time>2026-05-03T15:05:58.999Z</time></trkpt><trkpt lat="42.019480644727814" lon="12.997595761519102"><ele>330.0</ele><time>2026-05-03T15:05:59.999Z</time></trkpt><trkpt lat="42.0195680187009" lon="12.99729434410191"><ele>329.0</ele><time>2026-05-03T15:06:00.999Z</time></trkpt><trkpt lat="42.01965827074343" lon="12.996991239496316"><ele>329.0</ele><time>2026-05-03T15:06:01.999Z</time></trkpt><trkpt lat="42.01975719553837" lon="12.99669117691249"><ele>329.0</ele><time>2026-05-03T15:06:02.999Z</time></trkpt><trkpt lat="42.019859649352924" lon="12.996401008138923"><ele>329.0</ele><time>2026-05-03T15:06:03.999Z</time></trkpt><trkpt lat="42.019972024164424" lon="12.996115928630132"><ele>329.0</ele><time>2026-05-03T15:06:04.999Z</time></trkpt><trkpt lat="42.020091069751274" lon="12.995823738114629"><ele>329.0</ele><time>2026-05-03T15:06:05.998Z</time></trkpt><trkpt lat="42.020226791588975" lon="12.995533418865957"><ele>329.0</ele><time>2026-05-03T15:06:06.998Z</time></trkpt><trkpt lat="42.02036097518536" lon="12.995236446986864"><ele>327.5</ele><time>2026-05-03T15:06:07.998Z</time></trkpt><trkpt lat="42.020495613088116" lon="12.994949268223316"><ele>326.0</ele><time>2026-05-03T15:06:08.998Z</time></trkpt><trkpt lat="42.020627619222694" lon="12.99466703752984"><ele>326.0</ele><time>2026-05-03T15:06:09.998Z</time></trkpt><trkpt lat="42.020765265105155" lon="12.994420229996216"><ele>326.0</ele><time>2026-05-03T15:06:10.998Z</time></trkpt><trkpt lat="42.02089443363465" lon="12.994121567201796"><ele>328.0</ele><time>2026-05-03T15:06:11.998Z</time></trkpt><trkpt lat="42.021033779324384" lon="12.993854451314926"><ele>330.0</ele><time>2026-05-03T15:06:12.998Z</time></trkpt><trkpt lat="42.02116610925815" lon="12.993584558897783"><ele>327.0</ele><time>2026-05-03T15:06:13.998Z</time></trkpt><trkpt lat="42.02129464485716" lon="12.993308833239896"><ele>324.0</ele><time>2026-05-03T15:06:14.998Z</time></trkpt><trkpt lat="42.021418506284775" lon="12.993032755387365"><ele>324.0</ele><time>2026-05-03T15:06:15.998Z</time></trkpt><trkpt lat="42.021541321847316" lon="12.992763436152446"><ele>324.0</ele><time>2026-05-03T15:06:17Z</time></trkpt><trkpt lat="42.02167675408312" lon="12.992507531027117"><ele>327.5</ele><time>2026-05-03T15:06:18Z</time></trkpt><trkpt lat="42.02179857651347" lon="12.99223786924003"><ele>331.0</ele><time>2026-05-03T15:06:19Z</time></trkpt><trkpt lat="42.02191897103352" lon="12.99197709774848"><ele>331.0</ele><time>2026-05-03T15:06:20Z</time></trkpt><trkpt lat="42.02202482303199" lon="12.991719369388758"><ele>331.0</ele><time>2026-05-03T15:06:21Z</time></trkpt><trkpt lat="42.02214268352126" lon="12.991490663413998"><ele>331.0</ele><time>2026-05-03T15:06:22Z</time></trkpt><trkpt lat="42.02224035021671" lon="12.991264567900453"><ele>329.0</ele><time>2026-05-03T15:06:23Z</time></trkpt><trkpt lat="42.02233738862782" lon="12.991045462376993"><ele>327.0</ele><time>2026-05-03T15:06:24Z</time></trkpt><trkpt lat="42.02243904048437" lon="12.99085558047495"><ele>325.0</ele><time>2026-05-03T15:06:25Z</time></trkpt><trkpt lat="42.022519879254936" lon="12.990671004156695"><ele>328.0</ele><time>2026-05-03T15:06:26Z</time></trkpt><trkpt lat="42.02260350027639" lon="12.990516405221628"><ele>331.0</ele><time>2026-05-03T15:06:27Z</time></trkpt><trkpt lat="42.02268538843161" lon="12.990349681391866"><ele>334.0</ele><time>2026-05-03T15:06:28Z</time></trkpt><trkpt lat="42.022776074006686" lon="12.990178873694532"><ele>337.0</ele><time>2026-05-03T15:06:29Z</time></trkpt><trkpt lat="42.02287831392757" lon="12.990014909793993"><ele>334.0</ele><time>2026-05-03T15:06:30Z</time></trkpt><trkpt lat="42.02299863922011" lon="12.98985550248428"><ele>331.0</ele><time>2026-05-03T15:06:31Z</time></trkpt><trkpt lat="42.02313045051208" lon="12.989693735609725"><ele>328.0</ele><time>2026-05-03T15:06:32Z</time></trkpt><trkpt lat="42.0232682355538" lon="12.989525767342679"><ele>328.3333333333333</ele><time>2026-05-03T15:06:33Z</time></trkpt><trkpt lat="42.02339984806962" lon="12.989374757384702"><ele>328.6666666666667</ele><time>2026-05-03T15:06:34Z</time></trkpt><trkpt lat="42.023528392493326" lon="12.989233113133654"><ele>329.0</ele><time>2026-05-03T15:06:35Z</time></trkpt><trkpt lat="42.023658412248494" lon="12.989093348950345"><ele>329.0</ele><time>2026-05-03T15:06:36Z</time></trkpt><trkpt lat="42.023778343017376" lon="12.988941274779133"><ele>329.0</ele><time>2026-05-03T15:06:37Z</time></trkpt><trkpt lat="42.02388740980362" lon="12.988786956781276"><ele>329.0</ele><time>2026-05-03T15:06:38Z</time></trkpt><trkpt lat="42.023992728694" lon="12.988623479168853"><ele>329.0</ele><time>2026-05-03T15:06:39Z</time></trkpt><trkpt lat="42.02407181424182" lon="12.988446241297481"><ele>329.0</ele><time>2026-05-03T15:06:40Z</time></trkpt><trkpt lat="42.02414121103347" lon="12.988247894079734"><ele>329.0</ele><time>2026-05-03T15:06:41Z</time></trkpt><trkpt lat="42.02419554514653" lon="12.98804791086355"><ele>328.6666666666667</ele><time>2026-05-03T15:06:42Z</time></trkpt><trkpt lat="42.02423978311528" lon="12.987837929207766"><ele>328.3333333333333</ele><time>2026-05-03T15:06:43Z</time></trkpt><trkpt lat="42.02426520192665" lon="12.98759785270723"><ele>328.0</ele><time>2026-05-03T15:06:44Z</time></trkpt><trkpt lat="42.024275082549394" lon="12.987309537370304"><ele>328.0</ele><time>2026-05-03T15:06:45Z</time></trkpt><trkpt lat="42.02429260739315" lon="12.98699030050408"><ele>328.0</ele><time>2026-05-03T15:06:46Z</time></trkpt><trkpt lat="42.024325793263536" lon="12.986678710644817"><ele>328.0</ele><time>2026-05-03T15:06:47Z</time></trkpt><trkpt lat="42.024362710177506" lon="12.986402539707694"><ele>328.0</ele><time>2026-05-03T15:06:48Z</time></trkpt><trkpt lat="42.02439894535117" lon="12.986118383291783"><ele>328.0</ele><time>2026-05-03T15:06:49Z</time></trkpt><trkpt lat="42.024434157616135" lon="12.985824059318222"><ele>328.0</ele><time>2026-05-03T15:06:50Z</time></trkpt><trkpt lat="42.02448420029899" lon="12.985525004010594"><ele>328.0</ele><time>2026-05-03T15:06:51Z</time></trkpt><trkpt lat="42.024525291482654" lon="12.985240875744916"><ele>328.0</ele><time>2026-05-03T15:06:52Z</time></trkpt><trkpt lat="42.024588919714446" lon="12.98496409616776"><ele>326.66666666666663</ele><time>2026-05-03T15:06:53Z</time></trkpt><trkpt lat="42.024646161440096" lon="12.984697920026647"><ele>325.3333333333333</ele><time>2026-05-03T15:06:54Z</time></trkpt><trkpt lat="42.02472869270613" lon="12.984443354260096"><ele>324.0</ele><time>2026-05-03T15:06:55Z</time></trkpt><trkpt lat="42.02481973814182" lon="12.984197027673835"><ele>322.0</ele><time>2026-05-03T15:06:56Z</time></trkpt><trkpt lat="42.024920737146665" lon="12.98396725789288"><ele>320.0</ele><time>2026-05-03T15:06:57Z</time></trkpt><trkpt lat="42.02503425232968" lon="12.983743979447508"><ele>318.0</ele><time>2026-05-03T15:06:58Z</time></trkpt><trkpt lat="42.02516558343756" lon="12.983518570310146"><ele>321.0</ele><time>2026-05-03T15:06:59Z</time></trkpt><trkpt lat="42.025316809745334" lon="12.983280228449935"><ele>324.0</ele><time>2026-05-03T15:06:59.999Z</time></trkpt><trkpt lat="42.02548699395155" lon="12.983034910671753"><ele>324.0</ele><time>2026-05-03T15:07:00.999Z</time></trkpt><trkpt lat="42.0256708100511" lon="12.982783157412472"><ele>324.0</ele><time>2026-05-03T15:07:01.999Z</time></trkpt><trkpt lat="42.02585187547764" lon="12.982537929031253"><ele>323.5</ele><time>2026-05-03T15:07:02.999Z</time></trkpt><trkpt lat="42.02604001947638" lon="12.982281226037305"><ele>323.0</ele><time>2026-05-03T15:07:03.999Z</time></trkpt><trkpt lat="42.02621386357178" lon="12.982029641204655"><ele>323.0</ele><time>2026-05-03T15:07:04.999Z</time></trkpt><trkpt lat="42.026374899435886" lon="12.981798437257941"><ele>323.0</ele><time>2026-05-03T15:07:05.999Z</time></trkpt><trkpt lat="42.026545412000495" lon="12.981557796306607"><ele>324.5</ele><time>2026-05-03T15:07:06.999Z</time></trkpt><trkpt lat="42.026689441154964" lon="12.981320772858147"><ele>326.0</ele><time>2026-05-03T15:07:07.999Z</time></trkpt><trkpt lat="42.02683394516923" lon="12.981075319593101"><ele>324.0</ele><time>2026-05-03T15:07:08.999Z</time></trkpt><trkpt lat="42.0269574025697" lon="12.980824037941701"><ele>322.0</ele><time>2026-05-03T15:07:09.999Z</time></trkpt><trkpt lat="42.02708004070063" lon="12.98054276943713"><ele>322.0</ele><time>2026-05-03T15:07:10.999Z</time></trkpt><trkpt lat="42.02717462519329" lon="12.980254436078996"><ele>322.0</ele><time>2026-05-03T15:07:11.999Z</time></trkpt><trkpt lat="42.027253438320294" lon="12.979942069480565"><ele>320.5</ele><time>2026-05-03T15:07:12.999Z</time></trkpt><trkpt lat="42.027312482162806" lon="12.979617442678888"><ele>319.0</ele><time>2026-05-03T15:07:13.999Z</time></trkpt><trkpt lat="42.02734181861442" lon="12.97926235935545"><ele>319.5</ele><time>2026-05-03T15:07:14.999Z</time></trkpt><trkpt lat="42.02737283345769" lon="12.978899891254166"><ele>320.0</ele><time>2026-05-03T15:07:15.999Z</time></trkpt><trkpt lat="42.027417539978266" lon="12.978549016212243"><ele>320.0</ele><time>2026-05-03T15:07:16.999Z</time></trkpt><trkpt lat="42.027445868665446" lon="12.978219159826644"><ele>320.0</ele><time>2026-05-03T15:07:17.999Z</time></trkpt><trkpt lat="42.027457351963925" lon="12.977902652994267"><ele>321.5</ele><time>2026-05-03T15:07:18.999Z</time></trkpt><trkpt lat="42.02750531962038" lon="12.977608368487186"><ele>323.0</ele><time>2026-05-03T15:07:19.999Z</time></trkpt><trkpt lat="42.02752208540285" lon="12.977280463871972"><ele>323.33333333333337</ele><time>2026-05-03T15:07:20.999Z</time></trkpt><trkpt lat="42.02754882278617" lon="12.977039843767013"><ele>323.6666666666667</ele><time>2026-05-03T15:07:21.999Z</time></trkpt><trkpt lat="42.027609724882616" lon="12.976793176910496"><ele>324.0</ele><time>2026-05-03T15:07:22.999Z</time></trkpt><trkpt lat="42.02770183942161" lon="12.976575919611465"><ele>324.0</ele><time>2026-05-03T15:07:23.999Z</time></trkpt><trkpt lat="42.027812591871104" lon="12.976394010868601"><ele>324.0</ele><time>2026-05-03T15:07:24.999Z</time></trkpt><trkpt lat="42.02794407442845" lon="12.976245822017178"><ele>324.0</ele><time>2026-05-03T15:07:25.999Z</time></trkpt><trkpt lat="42.02809643921776" lon="12.9761246574416"><ele>324.0</ele><time>2026-05-03T15:07:26.999Z</time></trkpt><trkpt lat="42.02826110644631" lon="12.976036252609942"><ele>324.0</ele><time>2026-05-03T15:07:27.999Z</time></trkpt><trkpt lat="42.028465739928585" lon="12.97596368544983"><ele>324.0</ele><time>2026-05-03T15:07:28.999Z</time></trkpt><trkpt lat="42.02867340854871" lon="12.975898967504513"><ele>324.6666666666667</ele><time>2026-05-03T15:07:29.999Z</time></trkpt><trkpt lat="42.028875993883815" lon="12.975815686594856"><ele>325.33333333333337</ele><time>2026-05-03T15:07:30.999Z</time></trkpt><trkpt lat="42.02905870017058" lon="12.975670212055055"><ele>326.0</ele><time>2026-05-03T15:07:31.999Z</time></trkpt><trkpt lat="42.029236026347014" lon="12.975519415006728"><ele>325.0</ele><time>2026-05-03T15:07:32.999Z</time></trkpt><trkpt lat="42.0293744852608" lon="12.975305552172555"><ele>324.0</ele><time>2026-05-03T15:07:33.999Z</time></trkpt><trkpt lat="42.029485223033184" lon="12.975063111952363"><ele>323.0</ele><time>2026-05-03T15:07:34.999Z</time></trkpt><trkpt lat="42.02958278881312" lon="12.974830703475096"><ele>323.0</ele><time>2026-05-03T15:07:35.999Z</time></trkpt><trkpt lat="42.02968364459418" lon="12.974594011586698"><ele>323.0</ele><time>2026-05-03T15:07:36.999Z</time></trkpt><trkpt lat="42.02979689834717" lon="12.974396123588404"><ele>323.0</ele><time>2026-05-03T15:07:37.999Z</time></trkpt><trkpt lat="42.02994204162922" lon="12.97423535249552"><ele>325.0</ele><time>2026-05-03T15:07:38.999Z</time></trkpt><trkpt lat="42.030109405734585" lon="12.974094836531643"><ele>327.0</ele><time>2026-05-03T15:07:39.999Z</time></trkpt><trkpt lat="42.03028606534809" lon="12.97396543224659"><ele>329.0</ele><time>2026-05-03T15:07:40.999Z</time></trkpt><trkpt lat="42.03046154406894" lon="12.973834658641069"><ele>329.0</ele><time>2026-05-03T15:07:41.999Z</time></trkpt><trkpt lat="42.030635345193524" lon="12.973697599661783"><ele>329.0</ele><time>2026-05-03T15:07:42.999Z</time></trkpt><trkpt lat="42.03080452915311" lon="12.973537213043537"><ele>329.0</ele><time>2026-05-03T15:07:43.999Z</time></trkpt><trkpt lat="42.030951945664114" lon="12.973350822772689"><ele>327.33333333333337</ele><time>2026-05-03T15:07:44.999Z</time></trkpt><trkpt lat="42.031066230193666" lon="12.973181318985926"><ele>325.6666666666667</ele><time>2026-05-03T15:07:45.999Z</time></trkpt><trkpt lat="42.03117654823883" lon="12.9730137733081"><ele>324.0</ele><time>2026-05-03T15:07:46.999Z</time></trkpt><trkpt lat="42.03124993551569" lon="12.972872944139837"><ele>324.0</ele><time>2026-05-03T15:07:47.999Z</time></trkpt><trkpt lat="42.03133064315124" lon="12.972777848482785"><ele>324.0</ele><time>2026-05-03T15:07:48.999Z</time></trkpt><trkpt lat="42.03141127091475" lon="12.97265156992897"><ele>324.0</ele><time>2026-05-03T15:07:49.999Z</time></trkpt><trkpt lat="42.031502927221794" lon="12.972482804505125"><ele>324.0</ele><time>2026-05-03T15:07:50.999Z</time></trkpt><trkpt lat="42.03161637425519" lon="12.972285917014581"><ele>325.0</ele><time>2026-05-03T15:07:51.999Z</time></trkpt><trkpt lat="42.03170620478949" lon="12.972028052203708"><ele>326.0</ele><time>2026-05-03T15:07:52.999Z</time></trkpt><trkpt lat="42.03179761051105" lon="12.971782365293128"><ele>327.0</ele><time>2026-05-03T15:07:53.999Z</time></trkpt><trkpt lat="42.03190580573182" lon="12.971552055823583"><ele>325.0</ele><time>2026-05-03T15:07:54.999Z</time></trkpt><trkpt lat="42.0319919438605" lon="12.971332641546448"><ele>323.0</ele><time>2026-05-03T15:07:55.999Z</time></trkpt><trkpt lat="42.03207821617662" lon="12.971138789616976"><ele>321.0</ele><time>2026-05-03T15:07:56.999Z</time></trkpt><trkpt lat="42.032187296988866" lon="12.970976221119061"><ele>321.0</ele><time>2026-05-03T15:07:57.999Z</time></trkpt><trkpt lat="42.032308704603295" lon="12.970860247748728"><ele>321.0</ele><time>2026-05-03T15:07:58.999Z</time></trkpt><trkpt lat="42.03246007659613" lon="12.970763263831415"><ele>321.0</ele><time>2026-05-03T15:07:59.999Z</time></trkpt><trkpt lat="42.032645210197586" lon="12.970657417696346"><ele>319.5</ele><time>2026-05-03T15:08:00.999Z</time></trkpt><trkpt lat="42.03285190362758" lon="12.970522601996313"><ele>318.0</ele><time>2026-05-03T15:08:01.999Z</time></trkpt><trkpt lat="42.03308235081002" lon="12.970334859181678"><ele>318.0</ele><time>2026-05-03T15:08:02.999Z</time></trkpt><trkpt lat="42.033262763303526" lon="12.970183427888143"><ele>318.0</ele><time>2026-05-03T15:08:03.999Z</time></trkpt><trkpt lat="42.03343354668221" lon="12.970034118711007"><ele>318.0</ele><time>2026-05-03T15:08:04.999Z</time></trkpt><trkpt lat="42.03358687440894" lon="12.969875029921596"><ele>318.6666666666667</ele><time>2026-05-03T15:08:05.999Z</time></trkpt><trkpt lat="42.03370596796778" lon="12.96969627779861"><ele>319.33333333333337</ele><time>2026-05-03T15:08:06.999Z</time></trkpt><trkpt lat="42.033793905105135" lon="12.969515507385685"><ele>320.0</ele><time>2026-05-03T15:08:07.999Z</time></trkpt><trkpt lat="42.0338512969645" lon="12.969331941476963"><ele>319.6666666666667</ele><time>2026-05-03T15:08:08.999Z</time></trkpt><trkpt lat="42.033849832032566" lon="12.969122982221949"><ele>319.3333333333333</ele><time>2026-05-03T15:08:09.999Z</time></trkpt><trkpt lat="42.03382807733496" lon="12.968893229905035"><ele>319.0</ele><time>2026-05-03T15:08:10.998Z</time></trkpt><trkpt lat="42.03378365914608" lon="12.968638658629484"><ele>320.0</ele><time>2026-05-03T15:08:11.998Z</time></trkpt><trkpt lat="42.03375611237778" lon="12.968354544033014"><ele>321.0</ele><time>2026-05-03T15:08:12.998Z</time></trkpt><trkpt lat="42.03370247276742" lon="12.968068874869871"><ele>322.0</ele><time>2026-05-03T15:08:13.998Z</time></trkpt><trkpt lat="42.03364254937657" lon="12.967787659801031"><ele>322.0</ele><time>2026-05-03T15:08:14.998Z</time></trkpt><trkpt lat="42.033573145657925" lon="12.967533140595668"><ele>322.0</ele><time>2026-05-03T15:08:15.998Z</time></trkpt><trkpt lat="42.03352058267425" lon="12.967277187644417"><ele>322.0</ele><time>2026-05-03T15:08:16.998Z</time></trkpt><trkpt lat="42.033483546909366" lon="12.967031750301517"><ele>322.3333333333333</ele><time>2026-05-03T15:08:17.998Z</time></trkpt><trkpt lat="42.03349005474653" lon="12.966790373799753"><ele>322.6666666666667</ele><time>2026-05-03T15:08:18.998Z</time></trkpt><trkpt lat="42.03349802128705" lon="12.966536423139157"><ele>323.0</ele><time>2026-05-03T15:08:19.998Z</time></trkpt><trkpt lat="42.03351663730556" lon="12.966298218933584"><ele>323.0</ele><time>2026-05-03T15:08:20.998Z</time></trkpt><trkpt lat="42.03355230708066" lon="12.966070348096093"><ele>323.0</ele><time>2026-05-03T15:08:21.998Z</time></trkpt><trkpt lat="42.033606385118084" lon="12.96582861145608"><ele>323.0</ele><time>2026-05-03T15:08:23Z</time></trkpt><trkpt lat="42.033680222141676" lon="12.965581610458578"><ele>323.0</ele><time>2026-05-03T15:08:24Z</time></trkpt><trkpt lat="42.03376660585804" lon="12.965326257311238"><ele>323.0</ele><time>2026-05-03T15:08:25Z</time></trkpt><trkpt lat="42.03384954450973" lon="12.965084441228427"><ele>323.0</ele><time>2026-05-03T15:08:26Z</time></trkpt><trkpt lat="42.03393376416593" lon="12.964839371065855"><ele>323.0</ele><time>2026-05-03T15:08:27Z</time></trkpt><trkpt lat="42.034009915613076" lon="12.96461538053323"><ele>323.0</ele><time>2026-05-03T15:08:28Z</time></trkpt><trkpt lat="42.03408494119633" lon="12.964362028077874"><ele>323.0</ele><time>2026-05-03T15:08:29Z</time></trkpt><trkpt lat="42.034164123105995" lon="12.96406432974424"><ele>323.0</ele><time>2026-05-03T15:08:30Z</time></trkpt><trkpt lat="42.0342432512724" lon="12.963756306289154"><ele>323.0</ele><time>2026-05-03T15:08:31Z</time></trkpt><trkpt lat="42.034294852320855" lon="12.96349315205419"><ele>323.0</ele><time>2026-05-03T15:08:32Z</time></trkpt><trkpt lat="42.03436563157167" lon="12.96321965824722"><ele>322.6666666666667</ele><time>2026-05-03T15:08:33Z</time></trkpt><trkpt lat="42.03443196606185" lon="12.962966686750136"><ele>322.3333333333333</ele><time>2026-05-03T15:08:34Z</time></trkpt><trkpt lat="42.03447100021021" lon="12.962697883486545"><ele>322.0</ele><time>2026-05-03T15:08:35Z</time></trkpt><trkpt lat="42.03448251407706" lon="12.96242502660768"><ele>321.66666666666663</ele><time>2026-05-03T15:08:36Z</time></trkpt><trkpt lat="42.034484442372516" lon="12.96216066230248"><ele>321.3333333333333</ele><time>2026-05-03T15:08:37Z</time></trkpt><trkpt lat="42.03448760062393" lon="12.96190372727486"><ele>321.0</ele><time>2026-05-03T15:08:38Z</time></trkpt><trkpt lat="42.03452133569144" lon="12.961647890271385"><ele>321.0</ele><time>2026-05-03T15:08:39Z</time></trkpt><trkpt lat="42.03458512300991" lon="12.961416293551203"><ele>321.0</ele><time>2026-05-03T15:08:40Z</time></trkpt><trkpt lat="42.03468849055008" lon="12.96118783475009"><ele>321.0</ele><time>2026-05-03T15:08:41Z</time></trkpt><trkpt lat="42.03480752686237" lon="12.96096743079606"><ele>320.0</ele><time>2026-05-03T15:08:42Z</time></trkpt><trkpt lat="42.034926032431976" lon="12.96073315626539"><ele>319.0</ele><time>2026-05-03T15:08:43Z</time></trkpt><trkpt lat="42.03503637586905" lon="12.96050442434059"><ele>318.0</ele><time>2026-05-03T15:08:44Z</time></trkpt><trkpt lat="42.03513060134189" lon="12.960285057703851"><ele>319.0</ele><time>2026-05-03T15:08:45Z</time></trkpt><trkpt lat="42.03523599010807" lon="12.960094981815208"><ele>320.0</ele><time>2026-05-03T15:08:46Z</time></trkpt><trkpt lat="42.03535837805642" lon="12.959928854437567"><ele>321.0</ele><time>2026-05-03T15:08:47Z</time></trkpt><trkpt lat="42.03550760971594" lon="12.959790324889394"><ele>321.0</ele><time>2026-05-03T15:08:48Z</time></trkpt><trkpt lat="42.03567127201599" lon="12.959676022917577"><ele>321.0</ele><time>2026-05-03T15:08:49Z</time></trkpt><trkpt lat="42.03588100578597" lon="12.959586525548483"><ele>321.0</ele><time>2026-05-03T15:08:50Z</time></trkpt><trkpt lat="42.03611406678385" lon="12.959498450072875"><ele>324.0</ele><time>2026-05-03T15:08:51Z</time></trkpt><trkpt lat="42.03631582172652" lon="12.959425481227349"><ele>327.0</ele><time>2026-05-03T15:08:52Z</time></trkpt><trkpt lat="42.03651181364468" lon="12.959354249034426"><ele>330.0</ele><time>2026-05-03T15:08:53Z</time></trkpt><trkpt lat="42.0366969868315" lon="12.959284641253884"><ele>326.6666666666667</ele><time>2026-05-03T15:08:54Z</time></trkpt><trkpt lat="42.03687189187523" lon="12.959191081123977"><ele>323.33333333333337</ele><time>2026-05-03T15:08:55Z</time></trkpt><trkpt lat="42.037055628380465" lon="12.959040147612617"><ele>320.0</ele><time>2026-05-03T15:08:56Z</time></trkpt><trkpt lat="42.03723195774912" lon="12.958846193818225"><ele>320.0</ele><time>2026-05-03T15:08:57Z</time></trkpt><trkpt lat="42.03740493843562" lon="12.958665157694151"><ele>320.0</ele><time>2026-05-03T15:08:58Z</time></trkpt><trkpt lat="42.03757153091527" lon="12.958487585279313"><ele>320.0</ele><time>2026-05-03T15:08:59Z</time></trkpt><trkpt lat="42.03773984478543" lon="12.958319334369754"><ele>320.0</ele><time>2026-05-03T15:09:00Z</time></trkpt><trkpt lat="42.037872589530544" lon="12.958126187062021"><ele>320.0</ele><time>2026-05-03T15:09:01Z</time></trkpt><trkpt lat="42.03797005560039" lon="12.957933908374542"><ele>320.0</ele><time>2026-05-03T15:09:02Z</time></trkpt><trkpt lat="42.03806085740618" lon="12.957736863432029"><ele>319.33333333333337</ele><time>2026-05-03T15:09:03Z</time></trkpt><trkpt lat="42.038095977640346" lon="12.957510426391906"><ele>318.6666666666667</ele><time>2026-05-03T15:09:04Z</time></trkpt><trkpt lat="42.03810714812112" lon="12.957265486963742"><ele>318.0</ele><time>2026-05-03T15:09:05Z</time></trkpt><trkpt lat="42.03806739451203" lon="12.957000337944178"><ele>318.0</ele><time>2026-05-03T15:09:06Z</time></trkpt><trkpt lat="42.037997773325344" lon="12.956741689447345"><ele>318.0</ele><time>2026-05-03T15:09:07Z</time></trkpt><trkpt lat="42.03789275604883" lon="12.95645673169884"><ele>318.0</ele><time>2026-05-03T15:09:08Z</time></trkpt><trkpt lat="42.03777145303838" lon="12.95617503159791"><ele>317.5</ele><time>2026-05-03T15:09:09Z</time></trkpt><trkpt lat="42.03767950472083" lon="12.95589831254187"><ele>317.0</ele><time>2026-05-03T15:09:09.999Z</time></trkpt><trkpt lat="42.037567612352944" lon="12.955623443765806"><ele>317.0</ele><time>2026-05-03T15:09:10.999Z</time></trkpt><trkpt lat="42.03744434994537" lon="12.955301179401902"><ele>317.0</ele><time>2026-05-03T15:09:11.999Z</time></trkpt><trkpt lat="42.037298786673595" lon="12.955016621045196"><ele>317.0</ele><time>2026-05-03T15:09:12.999Z</time></trkpt><trkpt lat="42.03716315349282" lon="12.954742472076017"><ele>317.0</ele><time>2026-05-03T15:09:13.999Z</time></trkpt><trkpt lat="42.03703143890976" lon="12.954487904975876"><ele>317.0</ele><time>2026-05-03T15:09:14.999Z</time></trkpt><trkpt lat="42.03691916019404" lon="12.954237628385512"><ele>317.0</ele><time>2026-05-03T15:09:15.999Z</time></trkpt><trkpt lat="42.036804999796004" lon="12.954008066665091"><ele>317.0</ele><time>2026-05-03T15:09:16.999Z</time></trkpt><trkpt lat="42.03668879996433" lon="12.953767152492441"><ele>316.6666666666667</ele><time>2026-05-03T15:09:17.999Z</time></trkpt><trkpt lat="42.036575790902575" lon="12.953540662030447"><ele>316.3333333333333</ele><time>2026-05-03T15:09:18.999Z</time></trkpt><trkpt lat="42.036467364907836" lon="12.953311458056614"><ele>316.0</ele><time>2026-05-03T15:09:19.999Z</time></trkpt><trkpt lat="42.036360147528576" lon="12.953085297230503"><ele>316.0</ele><time>2026-05-03T15:09:20.999Z</time></trkpt><trkpt lat="42.03623458981595" lon="12.95286010319001"><ele>316.0</ele><time>2026-05-03T15:09:21.999Z</time></trkpt><trkpt lat="42.036128676002576" lon="12.95262908457404"><ele>316.0</ele><time>2026-05-03T15:09:22.999Z</time></trkpt><trkpt lat="42.036006455738935" lon="12.952380330818626"><ele>315.0</ele><time>2026-05-03T15:09:23.999Z</time></trkpt><trkpt lat="42.03587263801079" lon="12.952123364665333"><ele>314.0</ele><time>2026-05-03T15:09:24.999Z</time></trkpt><trkpt lat="42.03571859021927" lon="12.951862684996799"><ele>313.0</ele><time>2026-05-03T15:09:25.999Z</time></trkpt><trkpt lat="42.03556834403966" lon="12.951596035674749"><ele>312.0</ele><time>2026-05-03T15:09:26.999Z</time></trkpt><trkpt lat="42.03541452706194" lon="12.951325720735719"><ele>312.0</ele><time>2026-05-03T15:09:27.999Z</time></trkpt><trkpt lat="42.03526861927755" lon="12.951080224835081"><ele>312.0</ele><time>2026-05-03T15:09:28.999Z</time></trkpt><trkpt lat="42.03512646950372" lon="12.950851150460197"><ele>312.0</ele><time>2026-05-03T15:09:29.999Z</time></trkpt><trkpt lat="42.03499656873631" lon="12.9506387993644"><ele>312.0</ele><time>2026-05-03T15:09:30.999Z</time></trkpt><trkpt lat="42.03488334164557" lon="12.950419484863268"><ele>312.0</ele><time>2026-05-03T15:09:31.999Z</time></trkpt><trkpt lat="42.03478516845202" lon="12.950204417848921"><ele>313.0</ele><time>2026-05-03T15:09:32.999Z</time></trkpt><trkpt lat="42.034705203629244" lon="12.949985053624388"><ele>314.0</ele><time>2026-05-03T15:09:33.999Z</time></trkpt><trkpt lat="42.03464652823211" lon="12.949740886663617"><ele>315.0</ele><time>2026-05-03T15:09:34.999Z</time></trkpt><trkpt lat="42.034601458787115" lon="12.949473764543857"><ele>315.0</ele><time>2026-05-03T15:09:35.999Z</time></trkpt><trkpt lat="42.03456112797781" lon="12.949217889632818"><ele>315.0</ele><time>2026-05-03T15:09:36.999Z</time></trkpt><trkpt lat="42.034516045964125" lon="12.948972110699433"><ele>315.0</ele><time>2026-05-03T15:09:37.999Z</time></trkpt><trkpt lat="42.03447534656734" lon="12.948740324064476"><ele>315.0</ele><time>2026-05-03T15:09:38.999Z</time></trkpt><trkpt lat="42.03442468148222" lon="12.948507263503046"><ele>315.0</ele><time>2026-05-03T15:09:39.999Z</time></trkpt><trkpt lat="42.03436912126058" lon="12.9482835338391"><ele>315.0</ele><time>2026-05-03T15:09:40.999Z</time></trkpt><trkpt lat="42.034307718476455" lon="12.948071446322922"><ele>316.0</ele><time>2026-05-03T15:09:41.999Z</time></trkpt><trkpt lat="42.034244605836" lon="12.947868018610738"><ele>317.0</ele><time>2026-05-03T15:09:42.999Z</time></trkpt><trkpt lat="42.03418529081425" lon="12.947676293041129"><ele>318.0</ele><time>2026-05-03T15:09:43.999Z</time></trkpt><trkpt lat="42.03413601898437" lon="12.947485757962705"><ele>316.0</ele><time>2026-05-03T15:09:44.999Z</time></trkpt><trkpt lat="42.034110479197025" lon="12.947318521965888"><ele>314.0</ele><time>2026-05-03T15:09:45.999Z</time></trkpt><trkpt lat="42.03409759779097" lon="12.947155368886163"><ele>312.0</ele><time>2026-05-03T15:09:46.999Z</time></trkpt><trkpt lat="42.03408314935664" lon="12.946995706418075"><ele>310.0</ele><time>2026-05-03T15:09:47.999Z</time></trkpt><trkpt lat="42.034059643931236" lon="12.946843469401713"><ele>310.5</ele><time>2026-05-03T15:09:48.999Z</time></trkpt><trkpt lat="42.03401573596543" lon="12.946694340450069"><ele>311.0</ele><time>2026-05-03T15:09:49.999Z</time></trkpt><trkpt lat="42.033953188683135" lon="12.946539645227002"><ele>311.5</ele><time>2026-05-03T15:09:50.999Z</time></trkpt><trkpt lat="42.033845604542925" lon="12.946376775777129"><ele>312.0</ele><time>2026-05-03T15:09:51.999Z</time></trkpt><trkpt lat="42.03372295347543" lon="12.946211890307303"><ele>312.0</ele><time>2026-05-03T15:09:52.999Z</time></trkpt><trkpt lat="42.03360245415802" lon="12.946077839465488"><ele>312.0</ele><time>2026-05-03T15:09:53.999Z</time></trkpt><trkpt lat="42.03343907306578" lon="12.945981234223991"><ele>312.0</ele><time>2026-05-03T15:09:54.999Z</time></trkpt><trkpt lat="42.0332372733861" lon="12.945927360509481"><ele>312.6666666666667</ele><time>2026-05-03T15:09:55.999Z</time></trkpt><trkpt lat="42.033025628274196" lon="12.94589399107658"><ele>313.33333333333337</ele><time>2026-05-03T15:09:56.999Z</time></trkpt><trkpt lat="42.03282768154268" lon="12.945863215378292"><ele>314.0</ele><time>2026-05-03T15:09:57.999Z</time></trkpt><trkpt lat="42.03265508438836" lon="12.945798658019886"><ele>314.0</ele><time>2026-05-03T15:09:58.999Z</time></trkpt><trkpt lat="42.03248395802931" lon="12.94570106328618"><ele>314.0</ele><time>2026-05-03T15:09:59.999Z</time></trkpt><trkpt lat="42.03230581768883" lon="12.945620435079709"><ele>314.0</ele><time>2026-05-03T15:10:00.999Z</time></trkpt><trkpt lat="42.03214479050546" lon="12.94549562446516"><ele>314.6666666666667</ele><time>2026-05-03T15:10:01.999Z</time></trkpt><trkpt lat="42.03199319993232" lon="12.945342423532097"><ele>315.3333333333333</ele><time>2026-05-03T15:10:02.999Z</time></trkpt><trkpt lat="42.03184328197156" lon="12.945176527271029"><ele>316.0</ele><time>2026-05-03T15:10:03.999Z</time></trkpt><trkpt lat="42.031685968608386" lon="12.945018102967099"><ele>314.3333333333333</ele><time>2026-05-03T15:10:04.999Z</time></trkpt><trkpt lat="42.031513848471945" lon="12.94488630098672"><ele>312.6666666666667</ele><time>2026-05-03T15:10:05.999Z</time></trkpt><trkpt lat="42.03132572808528" lon="12.944786078192466"><ele>311.0</ele><time>2026-05-03T15:10:06.999Z</time></trkpt><trkpt lat="42.031118804054" lon="12.944732285429556"><ele>311.0</ele><time>2026-05-03T15:10:07.999Z</time></trkpt><trkpt lat="42.03092616960017" lon="12.94466089227159"><ele>311.0</ele><time>2026-05-03T15:10:08.999Z</time></trkpt><trkpt lat="42.03074404271939" lon="12.944587915913338"><ele>311.0</ele><time>2026-05-03T15:10:09.999Z</time></trkpt><trkpt lat="42.03055988951939" lon="12.944524080394453"><ele>310.0</ele><time>2026-05-03T15:10:10.999Z</time></trkpt><trkpt lat="42.030392648884565" lon="12.94444736807049"><ele>309.0</ele><time>2026-05-03T15:10:11.999Z</time></trkpt><trkpt lat="42.03022573274199" lon="12.9443755480683"><ele>308.0</ele><time>2026-05-03T15:10:12.999Z</time></trkpt><trkpt lat="42.030064624611114" lon="12.944302176141443"><ele>307.6666666666667</ele><time>2026-05-03T15:10:13.999Z</time></trkpt><trkpt lat="42.029902716617734" lon="12.944218288126708"><ele>307.3333333333333</ele><time>2026-05-03T15:10:14.999Z</time></trkpt><trkpt lat="42.02973639781917" lon="12.944122634213175"><ele>307.0</ele><time>2026-05-03T15:10:15.999Z</time></trkpt><trkpt lat="42.02956466157888" lon="12.944016504296536"><ele>307.0</ele><time>2026-05-03T15:10:16.999Z</time></trkpt><trkpt lat="42.0293974390288" lon="12.943905416824425"><ele>307.0</ele><time>2026-05-03T15:10:17.999Z</time></trkpt><trkpt lat="42.02924153216459" lon="12.943792095924453"><ele>307.0</ele><time>2026-05-03T15:10:18.999Z</time></trkpt><trkpt lat="42.029104656975" lon="12.943686474506592"><ele>306.66666666666663</ele><time>2026-05-03T15:10:19.999Z</time></trkpt><trkpt lat="42.02897811372038" lon="12.943566318101002"><ele>306.3333333333333</ele><time>2026-05-03T15:10:20.999Z</time></trkpt><trkpt lat="42.028864319651184" lon="12.943424637575323"><ele>306.0</ele><time>2026-05-03T15:10:21.999Z</time></trkpt><trkpt lat="42.02875749548522" lon="12.94325916056622"><ele>306.0</ele><time>2026-05-03T15:10:22.998Z</time></trkpt><trkpt lat="42.02866780052267" lon="12.943079808437668"><ele>306.0</ele><time>2026-05-03T15:10:23.998Z</time></trkpt><trkpt lat="42.02859836595098" lon="12.942889440342322"><ele>306.0</ele><time>2026-05-03T15:10:24.998Z</time></trkpt><trkpt lat="42.02854790190267" lon="12.942691716551094"><ele>304.6666666666667</ele><time>2026-05-03T15:10:25.998Z</time></trkpt><trkpt lat="42.02851343306488" lon="12.94248926146413"><ele>303.33333333333337</ele><time>2026-05-03T15:10:26.998Z</time></trkpt><trkpt lat="42.02848915159101" lon="12.942287566794237"><ele>302.0</ele><time>2026-05-03T15:10:27.998Z</time></trkpt><trkpt lat="42.02846888479804" lon="12.942070120785743"><ele>302.0</ele><time>2026-05-03T15:10:29Z</time></trkpt><trkpt lat="42.028450741431584" lon="12.941831921870785"><ele>302.0</ele><time>2026-05-03T15:10:30Z</time></trkpt><trkpt lat="42.02844560999044" lon="12.94154717254076"><ele>302.0</ele><time>2026-05-03T15:10:31Z</time></trkpt><trkpt lat="42.02842311963691" lon="12.941240121619773"><ele>301.6666666666667</ele><time>2026-05-03T15:10:32Z</time></trkpt><trkpt lat="42.02838975092892" lon="12.940950628854862"><ele>301.3333333333333</ele><time>2026-05-03T15:10:33Z</time></trkpt><trkpt lat="42.02837606769827" lon="12.940662108088226"><ele>301.0</ele><time>2026-05-03T15:10:34Z</time></trkpt><trkpt lat="42.02835068728703" lon="12.940375640549798"><ele>301.0</ele><time>2026-05-03T15:10:35Z</time></trkpt><trkpt lat="42.02832967117856" lon="12.940093466256908"><ele>301.0</ele><time>2026-05-03T15:10:36Z</time></trkpt><trkpt lat="42.02831448483659" lon="12.939816288790855"><ele>301.0</ele><time>2026-05-03T15:10:37Z</time></trkpt><trkpt lat="42.02829019027345" lon="12.939559752194196"><ele>301.0</ele><time>2026-05-03T15:10:38Z</time></trkpt><trkpt lat="42.028260075620224" lon="12.93929822116329"><ele>301.0</ele><time>2026-05-03T15:10:39Z</time></trkpt><trkpt lat="42.028224824944346" lon="12.939045547012281"><ele>301.0</ele><time>2026-05-03T15:10:40Z</time></trkpt><trkpt lat="42.02818258112888" lon="12.938808684352354"><ele>301.0</ele><time>2026-05-03T15:10:41Z</time></trkpt><trkpt lat="42.02813080199378" lon="12.938561143338148"><ele>301.0</ele><time>2026-05-03T15:10:42Z</time></trkpt><trkpt lat="42.02807112937231" lon="12.938332115804432"><ele>301.0</ele><time>2026-05-03T15:10:43Z</time></trkpt><trkpt lat="42.028012748247576" lon="12.938128201112097"><ele>301.66666666666663</ele><time>2026-05-03T15:10:44Z</time></trkpt><trkpt lat="42.02795739650028" lon="12.937944343806535"><ele>302.3333333333333</ele><time>2026-05-03T15:10:45Z</time></trkpt><trkpt lat="42.02789341952629" lon="12.937739092522337"><ele>303.0</ele><time>2026-05-03T15:10:46Z</time></trkpt><trkpt lat="42.027816209283586" lon="12.937510725229819"><ele>303.5</ele><time>2026-05-03T15:10:47Z</time></trkpt><trkpt lat="42.027715187605736" lon="12.937252549868033"><ele>304.0</ele><time>2026-05-03T15:10:48Z</time></trkpt><trkpt lat="42.027594023045225" lon="12.936979367951876"><ele>304.0</ele><time>2026-05-03T15:10:49Z</time></trkpt><trkpt lat="42.02746803620556" lon="12.9367212666725"><ele>304.0</ele><time>2026-05-03T15:10:50Z</time></trkpt><trkpt lat="42.0273412019483" lon="12.936463584341038"><ele>304.0</ele><time>2026-05-03T15:10:51Z</time></trkpt><trkpt lat="42.02718267773458" lon="12.936223578644302"><ele>304.0</ele><time>2026-05-03T15:10:52Z</time></trkpt><trkpt lat="42.02704942915478" lon="12.935960558904773"><ele>304.5</ele><time>2026-05-03T15:10:53Z</time></trkpt><trkpt lat="42.02691127887454" lon="12.935715982097943"><ele>305.0</ele><time>2026-05-03T15:10:54Z</time></trkpt><trkpt lat="42.026773747280195" lon="12.935472520763792"><ele>305.33333333333337</ele><time>2026-05-03T15:10:55Z</time></trkpt><trkpt lat="42.02662900015839" lon="12.935251750364154"><ele>305.6666666666667</ele><time>2026-05-03T15:10:56Z</time></trkpt><trkpt lat="42.026511470755594" lon="12.935008474660918"><ele>306.0</ele><time>2026-05-03T15:10:57Z</time></trkpt><trkpt lat="42.02638268143704" lon="12.934778643273765"><ele>306.0</ele><time>2026-05-03T15:10:58Z</time></trkpt><trkpt lat="42.02625570008149" lon="12.934553949746512"><ele>306.0</ele><time>2026-05-03T15:10:59Z</time></trkpt><trkpt lat="42.02610970375609" lon="12.93433220998421"><ele>306.0</ele><time>2026-05-03T15:11:00Z</time></trkpt><trkpt lat="42.025974963256076" lon="12.934091445665798"><ele>308.0</ele><time>2026-05-03T15:11:01Z</time></trkpt><trkpt lat="42.02583454192817" lon="12.933837714837388"><ele>310.0</ele><time>2026-05-03T15:11:02Z</time></trkpt><trkpt lat="42.02568456589901" lon="12.933574269976843"><ele>306.5</ele><time>2026-05-03T15:11:03Z</time></trkpt><trkpt lat="42.025532924206615" lon="12.933282346020343"><ele>303.0</ele><time>2026-05-03T15:11:04Z</time></trkpt><trkpt lat="42.02537296221454" lon="12.932980018361016"><ele>303.0</ele><time>2026-05-03T15:11:05Z</time></trkpt><trkpt lat="42.025209228561074" lon="12.932677071820525"><ele>303.0</ele><time>2026-05-03T15:11:06Z</time></trkpt><trkpt lat="42.02504692597555" lon="12.932384007164513"><ele>300.0</ele><time>2026-05-03T15:11:07Z</time></trkpt><trkpt lat="42.02488470119081" lon="12.932098805765031"><ele>297.0</ele><time>2026-05-03T15:11:08Z</time></trkpt><trkpt lat="42.02472030062299" lon="12.93181972247497"><ele>299.5</ele><time>2026-05-03T15:11:09Z</time></trkpt><trkpt lat="42.02456444536362" lon="12.931552218766074"><ele>302.0</ele><time>2026-05-03T15:11:10Z</time></trkpt><trkpt lat="42.02440266297535" lon="12.931300038009674"><ele>302.0</ele><time>2026-05-03T15:11:11Z</time></trkpt><trkpt lat="42.02424109904891" lon="12.931060546687108"><ele>302.0</ele><time>2026-05-03T15:11:12Z</time></trkpt><trkpt lat="42.024073312548346" lon="12.930821142262323"><ele>300.5</ele><time>2026-05-03T15:11:13Z</time></trkpt><trkpt lat="42.0239056796858" lon="12.930590124784237"><ele>299.0</ele><time>2026-05-03T15:11:14Z</time></trkpt><trkpt lat="42.02372628033552" lon="12.930378043770247"><ele>299.0</ele><time>2026-05-03T15:11:15Z</time></trkpt><trkpt lat="42.02354671820601" lon="12.930166238364535"><ele>299.0</ele><time>2026-05-03T15:11:16Z</time></trkpt><trkpt lat="42.02336251490493" lon="12.929959216313698"><ele>297.5</ele><time>2026-05-03T15:11:17Z</time></trkpt><trkpt lat="42.023170540675615" lon="12.929753630889499"><ele>296.0</ele><time>2026-05-03T15:11:18Z</time></trkpt><trkpt lat="42.02297558551414" lon="12.9295502212244"><ele>296.0</ele><time>2026-05-03T15:11:19Z</time></trkpt><trkpt lat="42.02277576466472" lon="12.929349016941618"><ele>296.0</ele><time>2026-05-03T15:11:19.999Z</time></trkpt><trkpt lat="42.02257036512176" lon="12.929162568938974"><ele>297.0</ele><time>2026-05-03T15:11:20.999Z</time></trkpt><trkpt lat="42.02235923131881" lon="12.928984449808318"><ele>298.0</ele><time>2026-05-03T15:11:21.999Z</time></trkpt><trkpt lat="42.022142635305855" lon="12.928814805089166"><ele>298.0</ele><time>2026-05-03T15:11:22.999Z</time></trkpt><trkpt lat="42.02192479658814" lon="12.928652710899344"><ele>298.0</ele><time>2026-05-03T15:11:23.999Z</time></trkpt><trkpt lat="42.02170473370629" lon="12.92849291836648"><ele>300.0</ele><time>2026-05-03T15:11:24.999Z</time></trkpt><trkpt lat="42.021489466328845" lon="12.928334754410386"><ele>302.0</ele><time>2026-05-03T15:11:25.999Z</time></trkpt><trkpt lat="42.021273271863265" lon="12.928173123401562"><ele>302.0</ele><time>2026-05-03T15:11:26.999Z</time></trkpt><trkpt lat="42.021056867463564" lon="12.92801478010247"><ele>302.0</ele><time>2026-05-03T15:11:27.999Z</time></trkpt><trkpt lat="42.02084191387166" lon="12.927848893148717"><ele>300.5</ele><time>2026-05-03T15:11:28.999Z</time></trkpt><trkpt lat="42.02063117992165" lon="12.927687405604171"><ele>299.0</ele><time>2026-05-03T15:11:29.999Z</time></trkpt><trkpt lat="42.020432959483685" lon="12.92751888839474"><ele>299.0</ele><time>2026-05-03T15:11:30.999Z</time></trkpt><trkpt lat="42.02024249889459" lon="12.927365099560099"><ele>299.0</ele><time>2026-05-03T15:11:31.999Z</time></trkpt><trkpt lat="42.02005792882127" lon="12.927217927828188"><ele>299.0</ele><time>2026-05-03T15:11:32.999Z</time></trkpt><trkpt lat="42.01987986974103" lon="12.92706557344461"><ele>299.0</ele><time>2026-05-03T15:11:33.999Z</time></trkpt><trkpt lat="42.019699168125655" lon="12.92691887589124"><ele>299.0</ele><time>2026-05-03T15:11:34.999Z</time></trkpt><trkpt lat="42.019515807877355" lon="12.92676953511489"><ele>299.0</ele><time>2026-05-03T15:11:35.999Z</time></trkpt><trkpt lat="42.019327577989564" lon="12.92661980232556"><ele>298.0</ele><time>2026-05-03T15:11:36.999Z</time></trkpt><trkpt lat="42.01913488483159" lon="12.926464490373903"><ele>297.0</ele><time>2026-05-03T15:11:37.999Z</time></trkpt><trkpt lat="42.01894692559586" lon="12.926311385644127"><ele>296.0</ele><time>2026-05-03T15:11:38.999Z</time></trkpt><trkpt lat="42.018771396721135" lon="12.926160579087005"><ele>296.0</ele><time>2026-05-03T15:11:39.999Z</time></trkpt><trkpt lat="42.01861267810233" lon="12.925994117215087"><ele>296.0</ele><time>2026-05-03T15:11:40.999Z</time></trkpt><trkpt lat="42.01846670193801" lon="12.92582114495739"><ele>296.0</ele><time>2026-05-03T15:11:41.999Z</time></trkpt><trkpt lat="42.018348831338564" lon="12.925658430604427"><ele>296.75</ele><time>2026-05-03T15:11:42.999Z</time></trkpt><trkpt lat="42.01824720548535" lon="12.925508801552093"><ele>297.5</ele><time>2026-05-03T15:11:43.999Z</time></trkpt><trkpt lat="42.018146056107824" lon="12.925367751967109"><ele>298.25</ele><time>2026-05-03T15:11:44.999Z</time></trkpt><trkpt lat="42.01805127283174" lon="12.92522997017075"><ele>299.0</ele><time>2026-05-03T15:11:45.999Z</time></trkpt><trkpt lat="42.017966557059445" lon="12.925083562414107"><ele>300.0</ele><time>2026-05-03T15:11:46.999Z</time></trkpt><trkpt lat="42.01788833971261" lon="12.92491952227118"><ele>301.0</ele><time>2026-05-03T15:11:47.999Z</time></trkpt><trkpt lat="42.01782082227277" lon="12.924727894771452"><ele>302.0</ele><time>2026-05-03T15:11:48.999Z</time></trkpt><trkpt lat="42.01775616794706" lon="12.924518965149284"><ele>302.0</ele><time>2026-05-03T15:11:49.999Z</time></trkpt><trkpt lat="42.01769827454462" lon="12.924297917098446"><ele>302.0</ele><time>2026-05-03T15:11:50.999Z</time></trkpt><trkpt lat="42.017640089622226" lon="12.924070336311008"><ele>302.0</ele><time>2026-05-03T15:11:51.999Z</time></trkpt><trkpt lat="42.01757842618565" lon="12.923835613189476"><ele>301.6666666666667</ele><time>2026-05-03T15:11:52.999Z</time></trkpt><trkpt lat="42.01752051558011" lon="12.92360554409466"><ele>301.3333333333333</ele><time>2026-05-03T15:11:53.999Z</time></trkpt><trkpt lat="42.017457809669" lon="12.923377128926875"><ele>301.0</ele><time>2026-05-03T15:11:54.999Z</time></trkpt><trkpt lat="42.0173944329404" lon="12.923156414114526"><ele>301.0</ele><time>2026-05-03T15:11:55.999Z</time></trkpt><trkpt lat="42.01733451092151" lon="12.922928551790426"><ele>301.0</ele><time>2026-05-03T15:11:56.999Z</time></trkpt><trkpt lat="42.01727915594842" lon="12.922689617157985"><ele>301.0</ele><time>2026-05-03T15:11:57.999Z</time></trkpt><trkpt lat="42.01722146122493" lon="12.922450110034024"><ele>301.66666666666663</ele><time>2026-05-03T15:11:58.999Z</time></trkpt><trkpt lat="42.01716205052126" lon="12.922206523310999"><ele>302.3333333333333</ele><time>2026-05-03T15:11:59.999Z</time></trkpt><trkpt lat="42.0171011834856" lon="12.921949249722045"><ele>303.0</ele><time>2026-05-03T15:12:00.999Z</time></trkpt><trkpt lat="42.01702853037322" lon="12.921685291155878"><ele>304.0</ele><time>2026-05-03T15:12:01.999Z</time></trkpt><trkpt lat="42.01696501705639" lon="12.92140658747965"><ele>305.0</ele><time>2026-05-03T15:12:02.999Z</time></trkpt><trkpt lat="42.016892664291696" lon="12.921129725443125"><ele>306.0</ele><time>2026-05-03T15:12:03.999Z</time></trkpt><trkpt lat="42.01681990665703" lon="12.92085560023119"><ele>307.0</ele><time>2026-05-03T15:12:04.999Z</time></trkpt><trkpt lat="42.016741335096235" lon="12.920571923784117"><ele>308.0</ele><time>2026-05-03T15:12:05.999Z</time></trkpt><trkpt lat="42.01666316892651" lon="12.920281820366311"><ele>305.5</ele><time>2026-05-03T15:12:06.999Z</time></trkpt><trkpt lat="42.016585605982144" lon="12.919995929751424"><ele>303.0</ele><time>2026-05-03T15:12:07.999Z</time></trkpt><trkpt lat="42.01651088789583" lon="12.919708656438091"><ele>303.0</ele><time>2026-05-03T15:12:08.999Z</time></trkpt><trkpt lat="42.01643299766704" lon="12.919422740875133"><ele>303.0</ele><time>2026-05-03T15:12:09.999Z</time></trkpt><trkpt lat="42.016358674897" lon="12.919148445772883"><ele>303.0</ele><time>2026-05-03T15:12:10.999Z</time></trkpt><trkpt lat="42.01628713915523" lon="12.918870987243395"><ele>305.0</ele><time>2026-05-03T15:12:11.999Z</time></trkpt><trkpt lat="42.01621279783726" lon="12.918587144121043"><ele>307.0</ele><time>2026-05-03T15:12:12.999Z</time></trkpt><trkpt lat="42.016134776450606" lon="12.918300577570454"><ele>309.5</ele><time>2026-05-03T15:12:13.999Z</time></trkpt><trkpt lat="42.01604869100341" lon="12.91800904503458"><ele>312.0</ele><time>2026-05-03T15:12:14.999Z</time></trkpt><trkpt lat="42.015966417101666" lon="12.917709948241523"><ele>314.0</ele><time>2026-05-03T15:12:15.999Z</time></trkpt><trkpt lat="42.0158895747679" lon="12.917400905314627"><ele>316.0</ele><time>2026-05-03T15:12:16.999Z</time></trkpt><trkpt lat="42.01581181780656" lon="12.91709965701967"><ele>311.5</ele><time>2026-05-03T15:12:17.999Z</time></trkpt><trkpt lat="42.01573858654458" lon="12.916811155480271"><ele>307.0</ele><time>2026-05-03T15:12:18.999Z</time></trkpt><trkpt lat="42.01566030873263" lon="12.916520895349612"><ele>307.0</ele><time>2026-05-03T15:12:19.999Z</time></trkpt><trkpt lat="42.015583879056" lon="12.916219466242902"><ele>307.0</ele><time>2026-05-03T15:12:20.999Z</time></trkpt><trkpt lat="42.015506699172576" lon="12.91591035094202"><ele>309.5</ele><time>2026-05-03T15:12:21.999Z</time></trkpt><trkpt lat="42.0154271819463" lon="12.915604121212851"><ele>312.0</ele><time>2026-05-03T15:12:22.999Z</time></trkpt><trkpt lat="42.01535304083686" lon="12.915301912167482"><ele>315.6666666666667</ele><time>2026-05-03T15:12:23.999Z</time></trkpt><trkpt lat="42.01528439234695" lon="12.915015500911716"><ele>319.33333333333337</ele><time>2026-05-03T15:12:24.999Z</time></trkpt><trkpt lat="42.01522191293196" lon="12.914751465081887"><ele>323.0</ele><time>2026-05-03T15:12:25.999Z</time></trkpt><trkpt lat="42.01516898523765" lon="12.914490723978378"><ele>324.6666666666667</ele><time>2026-05-03T15:12:26.999Z</time></trkpt><trkpt lat="42.015152337269775" lon="12.914217176057559"><ele>326.3333333333333</ele><time>2026-05-03T15:12:27.999Z</time></trkpt><trkpt lat="42.0151671248449" lon="12.913955836063222"><ele>328.0</ele><time>2026-05-03T15:12:28.999Z</time></trkpt><trkpt lat="42.01518177599429" lon="12.913703110781439"><ele>328.0</ele><time>2026-05-03T15:12:29.998Z</time></trkpt><trkpt lat="42.01521869795528" lon="12.913452575796851"><ele>328.0</ele><time>2026-05-03T15:12:30.998Z</time></trkpt><trkpt lat="42.01527072893403" lon="12.913193760918686"><ele>328.0</ele><time>2026-05-03T15:12:31.998Z</time></trkpt><trkpt lat="42.015335458603616" lon="12.91289684547985"><ele>329.3333333333333</ele><time>2026-05-03T15:12:32.998Z</time></trkpt><trkpt lat="42.01539201396541" lon="12.912644634013525"><ele>330.6666666666667</ele><time>2026-05-03T15:12:33.998Z</time></trkpt><trkpt lat="42.015447825983664" lon="12.912415905382819"><ele>332.0</ele><time>2026-05-03T15:12:35Z</time></trkpt><trkpt lat="42.01551115199064" lon="12.912161130201373"><ele>333.33333333333337</ele><time>2026-05-03T15:12:36Z</time></trkpt><trkpt lat="42.01557692255615" lon="12.911905579016507"><ele>334.6666666666667</ele><time>2026-05-03T15:12:37Z</time></trkpt><trkpt lat="42.01562706643424" lon="12.911637169028383"><ele>336.0</ele><time>2026-05-03T15:12:38Z</time></trkpt><trkpt lat="42.0156884537062" lon="12.911383850524723"><ele>336.3333333333333</ele><time>2026-05-03T15:12:39Z</time></trkpt><trkpt lat="42.01575607721411" lon="12.911131419565576"><ele>336.66666666666663</ele><time>2026-05-03T15:12:40Z</time></trkpt><trkpt lat="42.0158172959902" lon="12.910875615515637"><ele>337.0</ele><time>2026-05-03T15:12:41Z</time></trkpt><trkpt lat="42.015879240580205" lon="12.910630380709069"><ele>337.3333333333333</ele><time>2026-05-03T15:12:42Z</time></trkpt><trkpt lat="42.01593927321356" lon="12.91038136080564"><ele>337.6666666666667</ele><time>2026-05-03T15:12:43Z</time></trkpt><trkpt lat="42.01601146185028" lon="12.910132870930319"><ele>338.0</ele><time>2026-05-03T15:12:44Z</time></trkpt><trkpt lat="42.01608794742139" lon="12.90988101037975"><ele>338.0</ele><time>2026-05-03T15:12:45Z</time></trkpt><trkpt lat="42.01616989814632" lon="12.909650453917079"><ele>338.0</ele><time>2026-05-03T15:12:46Z</time></trkpt><trkpt lat="42.01625269340963" lon="12.909441140268203"><ele>338.0</ele><time>2026-05-03T15:12:47Z</time></trkpt><trkpt lat="42.016326457928834" lon="12.909251316599798"><ele>334.0</ele><time>2026-05-03T15:12:48Z</time></trkpt><trkpt lat="42.01639566138433" lon="12.90907402841513"><ele>330.0</ele><time>2026-05-03T15:12:49Z</time></trkpt><trkpt lat="42.016456880129084" lon="12.908901831753306"><ele>326.0</ele><time>2026-05-03T15:12:50Z</time></trkpt><trkpt lat="42.01652595411074" lon="12.90873667203619"><ele>322.0</ele><time>2026-05-03T15:12:51Z</time></trkpt><trkpt lat="42.01660100914782" lon="12.908600078921632"><ele>324.5</ele><time>2026-05-03T15:12:52Z</time></trkpt><trkpt lat="42.016682708556026" lon="12.908448504333265"><ele>327.0</ele><time>2026-05-03T15:12:53Z</time></trkpt><trkpt lat="42.016790131898006" lon="12.908354320036521"><ele>329.5</ele><time>2026-05-03T15:12:54Z</time></trkpt><trkpt lat="42.016867589411575" lon="12.908223876000877"><ele>332.0</ele><time>2026-05-03T15:12:55Z</time></trkpt><trkpt lat="42.01698511657812" lon="12.90815448494576"><ele>332.75</ele><time>2026-05-03T15:12:56Z</time></trkpt><trkpt lat="42.01710999630441" lon="12.908099705326304"><ele>333.5</ele><time>2026-05-03T15:12:57Z</time></trkpt><trkpt lat="42.01724608955249" lon="12.908041684043532"><ele>334.25</ele><time>2026-05-03T15:12:58Z</time></trkpt><trkpt lat="42.01738759801155" lon="12.907963414796782"><ele>335.0</ele><time>2026-05-03T15:12:59Z</time></trkpt><trkpt lat="42.01752820428611" lon="12.90787988819661"><ele>336.33333333333337</ele><time>2026-05-03T15:13:00Z</time></trkpt><trkpt lat="42.017652036394374" lon="12.90775681091265"><ele>337.6666666666667</ele><time>2026-05-03T15:13:01Z</time></trkpt><trkpt lat="42.01776669216606" lon="12.907611404548422"><ele>339.0</ele><time>2026-05-03T15:13:02Z</time></trkpt><trkpt lat="42.017865119922476" lon="12.907425254791912"><ele>339.0</ele><time>2026-05-03T15:13:03Z</time></trkpt><trkpt lat="42.01795726904807" lon="12.907231031094886"><ele>339.0</ele><time>2026-05-03T15:13:04Z</time></trkpt><trkpt lat="42.01804422137383" lon="12.907016873740572"><ele>339.0</ele><time>2026-05-03T15:13:05Z</time></trkpt><trkpt lat="42.01813207183918" lon="12.906829437136638"><ele>339.6666666666667</ele><time>2026-05-03T15:13:06Z</time></trkpt><trkpt lat="42.018224790670786" lon="12.906663905960851"><ele>340.33333333333337</ele><time>2026-05-03T15:13:07Z</time></trkpt><trkpt lat="42.01830307340483" lon="12.906492797138531"><ele>341.0</ele><time>2026-05-03T15:13:08Z</time></trkpt><trkpt lat="42.01838988569468" lon="12.906317750901465"><ele>341.0</ele><time>2026-05-03T15:13:09Z</time></trkpt><trkpt lat="42.01847371598916" lon="12.9061444461574"><ele>341.0</ele><time>2026-05-03T15:13:10Z</time></trkpt><trkpt lat="42.01855464480506" lon="12.905971728053792"><ele>341.0</ele><time>2026-05-03T15:13:11Z</time></trkpt><trkpt lat="42.018661089468075" lon="12.905809259976865"><ele>338.6666666666667</ele><time>2026-05-03T15:13:12Z</time></trkpt><trkpt lat="42.01873409566071" lon="12.905626346867955"><ele>336.3333333333333</ele><time>2026-05-03T15:13:13Z</time></trkpt><trkpt lat="42.01883893654043" lon="12.90544740802437"><ele>334.0</ele><time>2026-05-03T15:13:14Z</time></trkpt><trkpt lat="42.01897005137693" lon="12.905258534198845"><ele>334.0</ele><time>2026-05-03T15:13:15Z</time></trkpt><trkpt lat="42.019078959951976" lon="12.905106439715835"><ele>334.0</ele><time>2026-05-03T15:13:16Z</time></trkpt><trkpt lat="42.0191257982062" lon="12.904899339365896"><ele>334.0</ele><time>2026-05-03T15:13:17Z</time></trkpt><trkpt lat="42.019205059318296" lon="12.904716902049119"><ele>332.66666666666663</ele><time>2026-05-03T15:13:18Z</time></trkpt><trkpt lat="42.01930070155409" lon="12.90453633762332"><ele>331.3333333333333</ele><time>2026-05-03T15:13:19Z</time></trkpt><trkpt lat="42.01940416992153" lon="12.904354955223463"><ele>330.0</ele><time>2026-05-03T15:13:20Z</time></trkpt><trkpt lat="42.01953229851842" lon="12.904188187028671"><ele>330.0</ele><time>2026-05-03T15:13:21Z</time></trkpt><trkpt lat="42.01963812087934" lon="12.904021117115706"><ele>330.0</ele><time>2026-05-03T15:13:22Z</time></trkpt><trkpt lat="42.01975641918973" lon="12.903866507359947"><ele>330.0</ele><time>2026-05-03T15:13:23Z</time></trkpt><trkpt lat="42.01986751897306" lon="12.903725470863323"><ele>330.0</ele><time>2026-05-03T15:13:24Z</time></trkpt><trkpt lat="42.01996769746359" lon="12.903592222655334"><ele>330.0</ele><time>2026-05-03T15:13:25Z</time></trkpt><trkpt lat="42.02004520124274" lon="12.903461577180753"><ele>330.0</ele><time>2026-05-03T15:13:26Z</time></trkpt><trkpt lat="42.02009713053662" lon="12.903305190921248"><ele>330.0</ele><time>2026-05-03T15:13:27Z</time></trkpt><trkpt lat="42.02011978926984" lon="12.903128008141655"><ele>331.0</ele><time>2026-05-03T15:13:27.999Z</time></trkpt><trkpt lat="42.02010765658962" lon="12.902951095436256"><ele>332.0</ele><time>2026-05-03T15:13:28.999Z</time></trkpt><trkpt lat="42.020045364585684" lon="12.902796359911848"><ele>333.0</ele><time>2026-05-03T15:13:29.999Z</time></trkpt><trkpt lat="42.01995413574927" lon="12.902651064071819"><ele>334.0</ele><time>2026-05-03T15:13:30.999Z</time></trkpt><trkpt lat="42.01982884418571" lon="12.902515305640975"><ele>334.0</ele><time>2026-05-03T15:13:31.999Z</time></trkpt><trkpt lat="42.01970060732576" lon="12.902404855109213"><ele>334.0</ele><time>2026-05-03T15:13:32.999Z</time></trkpt><trkpt lat="42.01956788638133" lon="12.902343137979809"><ele>334.0</ele><time>2026-05-03T15:13:33.999Z</time></trkpt><trkpt lat="42.01942466954277" lon="12.902324635446995"><ele>334.0</ele><time>2026-05-03T15:13:34.999Z</time></trkpt><trkpt lat="42.019279409474116" lon="12.902360017652015"><ele>332.0</ele><time>2026-05-03T15:13:35.999Z</time></trkpt><trkpt lat="42.01913526329799" lon="12.902420454115491"><ele>330.0</ele><time>2026-05-03T15:13:36.999Z</time></trkpt><trkpt lat="42.0189892043484" lon="12.902488907041896"><ele>328.0</ele><time>2026-05-03T15:13:37.999Z</time></trkpt><trkpt lat="42.018837883375866" lon="12.902534698267926"><ele>328.0</ele><time>2026-05-03T15:13:38.999Z</time></trkpt><trkpt lat="42.018692893211536" lon="12.90255662086959"><ele>328.0</ele><time>2026-05-03T15:13:39.999Z</time></trkpt><trkpt lat="42.01855227817535" lon="12.902543704571196"><ele>328.0</ele><time>2026-05-03T15:13:40.999Z</time></trkpt><trkpt lat="42.018414981198" lon="12.90248871525573"><ele>328.0</ele><time>2026-05-03T15:13:41.999Z</time></trkpt><trkpt lat="42.018286404099435" lon="12.902379992942516"><ele>319.66666666666663</ele><time>2026-05-03T15:13:42.999Z</time></trkpt><trkpt lat="42.01816898143581" lon="12.902236251783055"><ele>311.3333333333333</ele><time>2026-05-03T15:13:43.999Z</time></trkpt><trkpt lat="42.018049690887985" lon="12.90207678398526"><ele>303.0</ele><time>2026-05-03T15:13:44.999Z</time></trkpt><trkpt lat="42.01793013064747" lon="12.90192009454217"><ele>303.0</ele><time>2026-05-03T15:13:45.999Z</time></trkpt><trkpt lat="42.01781985317281" lon="12.901767684445932"><ele>303.0</ele><time>2026-05-03T15:13:46.999Z</time></trkpt><trkpt lat="42.01774120804694" lon="12.901633256037574"><ele>303.0</ele><time>2026-05-03T15:13:47.999Z</time></trkpt><trkpt lat="42.017685583519686" lon="12.901512933676104"><ele>303.0</ele><time>2026-05-03T15:13:48.999Z</time></trkpt><trkpt lat="42.017688831655676" lon="12.901414077699402"><ele>304.4</ele><time>2026-05-03T15:13:49.999Z</time></trkpt><trkpt lat="42.017724078204985" lon="12.90130292403128"><ele>305.8</ele><time>2026-05-03T15:13:50.999Z</time></trkpt><trkpt lat="42.01780827677936" lon="12.901222992208236"><ele>307.2</ele><time>2026-05-03T15:13:51.999Z</time></trkpt><trkpt lat="42.01791599915112" lon="12.90118361455278"><ele>308.6</ele><time>2026-05-03T15:13:52.999Z</time></trkpt><trkpt lat="42.018039838452175" lon="12.901182325362738"><ele>310.0</ele><time>2026-05-03T15:13:53.999Z</time></trkpt><trkpt lat="42.018183092092016" lon="12.901142687537417"><ele>312.25</ele><time>2026-05-03T15:13:54.999Z</time></trkpt><trkpt lat="42.01833105462697" lon="12.901128162326211"><ele>314.5</ele><time>2026-05-03T15:13:55.999Z</time></trkpt><trkpt lat="42.01847194301739" lon="12.901101188478322"><ele>316.75</ele><time>2026-05-03T15:13:56.999Z</time></trkpt><trkpt lat="42.01859616117166" lon="12.901028832322014"><ele>319.0</ele><time>2026-05-03T15:13:57.999Z</time></trkpt><trkpt lat="42.01870951399001" lon="12.900904074056342"><ele>319.0</ele><time>2026-05-03T15:13:58.999Z</time></trkpt><trkpt lat="42.01879436156504" lon="12.900720064909518"><ele>319.0</ele><time>2026-05-03T15:13:59.999Z</time></trkpt><trkpt lat="42.018856722915714" lon="12.900553181967814"><ele>319.0</ele><time>2026-05-03T15:14:00.999Z</time></trkpt><trkpt lat="42.018911933390946" lon="12.900353232559505"><ele>319.0</ele><time>2026-05-03T15:14:01.999Z</time></trkpt><trkpt lat="42.0189625039491" lon="12.90015300814057"><ele>319.0</ele><time>2026-05-03T15:14:02.999Z</time></trkpt><trkpt lat="42.019019876702956" lon="12.900001166668757"><ele>319.0</ele><time>2026-05-03T15:14:03.999Z</time></trkpt><trkpt lat="42.01910009676415" lon="12.899865826731943"><ele>319.0</ele><time>2026-05-03T15:14:04.999Z</time></trkpt><trkpt lat="42.01921485066533" lon="12.899751353104186"><ele>318.66666666666663</ele><time>2026-05-03T15:14:05.999Z</time></trkpt><trkpt lat="42.01936271542649" lon="12.899666641135164"><ele>318.3333333333333</ele><time>2026-05-03T15:14:06.999Z</time></trkpt><trkpt lat="42.019493013056874" lon="12.89958427568538"><ele>318.0</ele><time>2026-05-03T15:14:07.999Z</time></trkpt><trkpt lat="42.01964919280172" lon="12.899529922840975"><ele>318.0</ele><time>2026-05-03T15:14:08.999Z</time></trkpt><trkpt lat="42.019792245262586" lon="12.899471202113011"><ele>318.0</ele><time>2026-05-03T15:14:09.999Z</time></trkpt><trkpt lat="42.01992197248245" lon="12.89942036909721"><ele>318.0</ele><time>2026-05-03T15:14:10.999Z</time></trkpt><trkpt lat="42.02003283090789" lon="12.899372510267876"><ele>318.0</ele><time>2026-05-03T15:14:11.999Z</time></trkpt><trkpt lat="42.02010788614687" lon="12.899313607068784"><ele>317.8</ele><time>2026-05-03T15:14:12.999Z</time></trkpt><trkpt lat="42.02013572060467" lon="12.899194157651776"><ele>317.6</ele><time>2026-05-03T15:14:13.999Z</time></trkpt><trkpt lat="42.0201129324803" lon="12.899093082445319"><ele>317.4</ele><time>2026-05-03T15:14:14.999Z</time></trkpt><trkpt lat="42.02007201559384" lon="12.898987166588984"><ele>317.2</ele><time>2026-05-03T15:14:15.999Z</time></trkpt><trkpt lat="42.01999089752216" lon="12.898919198808978"><ele>317.0</ele><time>2026-05-03T15:14:16.999Z</time></trkpt><trkpt lat="42.01987872232373" lon="12.898898777984284"><ele>315.0</ele><time>2026-05-03T15:14:17.999Z</time></trkpt><trkpt lat="42.01973648592032" lon="12.898918983360657"><ele>313.0</ele><time>2026-05-03T15:14:18.999Z</time></trkpt><trkpt lat="42.019584226486046" lon="12.898947032884259"><ele>311.0</ele><time>2026-05-03T15:14:19.999Z</time></trkpt><trkpt lat="42.01942497397115" lon="12.898969575630222"><ele>311.0</ele><time>2026-05-03T15:14:20.999Z</time></trkpt><trkpt lat="42.01925845688946" lon="12.898983259886215"><ele>311.0</ele><time>2026-05-03T15:14:21.999Z</time></trkpt><trkpt lat="42.019078432042434" lon="12.899004471679236"><ele>311.0</ele><time>2026-05-03T15:14:22.999Z</time></trkpt><trkpt lat="42.018879577831314" lon="12.899028342182378"><ele>311.0</ele><time>2026-05-03T15:14:23.999Z</time></trkpt><trkpt lat="42.01866803218212" lon="12.899048442408509"><ele>311.0</ele><time>2026-05-03T15:14:24.999Z</time></trkpt><trkpt lat="42.018443522160176" lon="12.899074054169835"><ele>311.0</ele><time>2026-05-03T15:14:25.999Z</time></trkpt><trkpt lat="42.01823141505634" lon="12.89909669480429"><ele>311.0</ele><time>2026-05-03T15:14:26.999Z</time></trkpt><trkpt lat="42.018017883241626" lon="12.899121353467681"><ele>311.0</ele><time>2026-05-03T15:14:27.999Z</time></trkpt><trkpt lat="42.01781047388397" lon="12.89913154029136"><ele>311.0</ele><time>2026-05-03T15:14:28.999Z</time></trkpt><trkpt lat="42.01761084430138" lon="12.899153375467638"><ele>310.33333333333337</ele><time>2026-05-03T15:14:29.999Z</time></trkpt><trkpt lat="42.01742631896385" lon="12.899178434958612"><ele>309.6666666666667</ele><time>2026-05-03T15:14:30.999Z</time></trkpt><trkpt lat="42.01724998484808" lon="12.899203901803691"><ele>309.0</ele><time>2026-05-03T15:14:31.999Z</time></trkpt><trkpt lat="42.017083416695584" lon="12.899223769670414"><ele>309.0</ele><time>2026-05-03T15:14:32.999Z</time></trkpt><trkpt lat="42.016927048700474" lon="12.899224832432779"><ele>309.0</ele><time>2026-05-03T15:14:33.999Z</time></trkpt><trkpt lat="42.01677903134645" lon="12.89922294443428"><ele>309.0</ele><time>2026-05-03T15:14:34.999Z</time></trkpt><trkpt lat="42.01663269739665" lon="12.899177954626555"><ele>303.0</ele><time>2026-05-03T15:14:35.999Z</time></trkpt><trkpt lat="42.016507569235614" lon="12.89908935544505"><ele>297.0</ele><time>2026-05-03T15:14:36.998Z</time></trkpt><trkpt lat="42.01641878625325" lon="12.89895423316299"><ele>291.0</ele><time>2026-05-03T15:14:37.998Z</time></trkpt><trkpt lat="42.016381370581556" lon="12.89876789671653"><ele>285.0</ele><time>2026-05-03T15:14:38.998Z</time></trkpt><trkpt lat="42.01634979231262" lon="12.89858178924841"><ele>287.0</ele><time>2026-05-03T15:14:39.998Z</time></trkpt><trkpt lat="42.01632384600947" lon="12.89837139515266"><ele>289.0</ele><time>2026-05-03T15:14:41Z</time></trkpt><trkpt lat="42.01630608626467" lon="12.898130699983078"><ele>291.0</ele><time>2026-05-03T15:14:42Z</time></trkpt><trkpt lat="42.01627968121823" lon="12.897872868945417"><ele>291.0</ele><time>2026-05-03T15:14:43Z</time></trkpt><trkpt lat="42.01626002173515" lon="12.897606789901165"><ele>291.0</ele><time>2026-05-03T15:14:44Z</time></trkpt><trkpt lat="42.01623542203336" lon="12.897350043338179"><ele>291.0</ele><time>2026-05-03T15:14:45Z</time></trkpt><trkpt lat="42.01620663860517" lon="12.897104406223"><ele>292.3333333333333</ele><time>2026-05-03T15:14:46Z</time></trkpt><trkpt lat="42.0161688207435" lon="12.89687000014585"><ele>293.66666666666663</ele><time>2026-05-03T15:14:47Z</time></trkpt><trkpt lat="42.01615008438514" lon="12.896633198297343"><ele>295.0</ele><time>2026-05-03T15:14:48Z</time></trkpt><trkpt lat="42.01613158210472" lon="12.896397315801298"><ele>295.0</ele><time>2026-05-03T15:14:49Z</time></trkpt><trkpt lat="42.01613524745114" lon="12.896178721623137"><ele>295.0</ele><time>2026-05-03T15:14:50Z</time></trkpt><trkpt lat="42.01615288250564" lon="12.895954529637985"><ele>295.0</ele><time>2026-05-03T15:14:51Z</time></trkpt><trkpt lat="42.01615583831575" lon="12.895752011533093"><ele>295.3333333333333</ele><time>2026-05-03T15:14:52Z</time></trkpt><trkpt lat="42.01614856143023" lon="12.895543321574733"><ele>295.6666666666667</ele><time>2026-05-03T15:14:53Z</time></trkpt><trkpt lat="42.01611939601574" lon="12.895334543141752"><ele>296.0</ele><time>2026-05-03T15:14:54Z</time></trkpt><trkpt lat="42.0160853727455" lon="12.89512329493282"><ele>297.0</ele><time>2026-05-03T15:14:55Z</time></trkpt><trkpt lat="42.016033320520634" lon="12.894908573307951"><ele>298.0</ele><time>2026-05-03T15:14:56Z</time></trkpt><trkpt lat="42.0159381818466" lon="12.894698767865403"><ele>299.0</ele><time>2026-05-03T15:14:57Z</time></trkpt><trkpt lat="42.01584908458473" lon="12.894476777030652"><ele>292.33333333333337</ele><time>2026-05-03T15:14:58Z</time></trkpt><trkpt lat="42.01573711737255" lon="12.894250466471494"><ele>285.6666666666667</ele><time>2026-05-03T15:14:59Z</time></trkpt><trkpt lat="42.015631063754334" lon="12.894025513789861"><ele>279.0</ele><time>2026-05-03T15:15:00Z</time></trkpt><trkpt lat="42.01552943286613" lon="12.893800861278123"><ele>279.0</ele><time>2026-05-03T15:15:01Z</time></trkpt><trkpt lat="42.015426994800855" lon="12.893580960964702"><ele>279.0</ele><time>2026-05-03T15:15:02Z</time></trkpt><trkpt lat="42.015315507291106" lon="12.893375881651565"><ele>279.0</ele><time>2026-05-03T15:15:03Z</time></trkpt><trkpt lat="42.015186268604374" lon="12.893201554076342"><ele>279.3333333333333</ele><time>2026-05-03T15:15:04Z</time></trkpt><trkpt lat="42.01504689049739" lon="12.893052297042615"><ele>279.66666666666663</ele><time>2026-05-03T15:15:05Z</time></trkpt><trkpt lat="42.014893505707" lon="12.892949684708459"><ele>280.0</ele><time>2026-05-03T15:15:06Z</time></trkpt><trkpt lat="42.01472810039506" lon="12.892839163294548"><ele>280.0</ele><time>2026-05-03T15:15:07Z</time></trkpt><trkpt lat="42.01454700031565" lon="12.892773016902426"><ele>280.0</ele><time>2026-05-03T15:15:08Z</time></trkpt><trkpt lat="42.01436733204926" lon="12.892737978937715"><ele>280.0</ele><time>2026-05-03T15:15:09Z</time></trkpt><trkpt lat="42.014201728837435" lon="12.892723579295554"><ele>277.66666666666663</ele><time>2026-05-03T15:15:10Z</time></trkpt><trkpt lat="42.01404852993805" lon="12.892702644741705"><ele>275.3333333333333</ele><time>2026-05-03T15:15:11Z</time></trkpt><trkpt lat="42.01389049027264" lon="12.892679630229987"><ele>273.0</ele><time>2026-05-03T15:15:12Z</time></trkpt><trkpt lat="42.01374207981843" lon="12.892640052545469"><ele>276.5</ele><time>2026-05-03T15:15:13Z</time></trkpt><trkpt lat="42.013630779462744" lon="12.892584962419438"><ele>280.0</ele><time>2026-05-03T15:15:14Z</time></trkpt><trkpt lat="42.01354443235161" lon="12.892494412983455"><ele>283.5</ele><time>2026-05-03T15:15:15Z</time></trkpt><trkpt lat="42.01347102410257" lon="12.892371602073139"><ele>287.0</ele><time>2026-05-03T15:15:16Z</time></trkpt><trkpt lat="42.013417614694795" lon="12.892209161974863"><ele>287.0</ele><time>2026-05-03T15:15:17Z</time></trkpt><trkpt lat="42.013389730251305" lon="12.8920267841897"><ele>287.0</ele><time>2026-05-03T15:15:18Z</time></trkpt><trkpt lat="42.013386830458295" lon="12.891823148084931"><ele>287.0</ele><time>2026-05-03T15:15:19Z</time></trkpt><trkpt lat="42.01338670379917" lon="12.89161683060991"><ele>287.0</ele><time>2026-05-03T15:15:20Z</time></trkpt><trkpt lat="42.01340253004747" lon="12.891399737477597"><ele>286.0</ele><time>2026-05-03T15:15:21Z</time></trkpt><trkpt lat="42.013424003021925" lon="12.891177213773723"><ele>285.0</ele><time>2026-05-03T15:15:22Z</time></trkpt><trkpt lat="42.01346248545496" lon="12.890947401549019"><ele>284.0</ele><time>2026-05-03T15:15:23Z</time></trkpt><trkpt lat="42.01348687862152" lon="12.890736467474648"><ele>284.0</ele><time>2026-05-03T15:15:24Z</time></trkpt><trkpt lat="42.01353046493451" lon="12.890532610783957"><ele>284.0</ele><time>2026-05-03T15:15:25Z</time></trkpt><trkpt lat="42.01351295420812" lon="12.890293191025302"><ele>284.0</ele><time>2026-05-03T15:15:26Z</time></trkpt><trkpt lat="42.013487643328865" lon="12.890066940403829"><ele>281.5</ele><time>2026-05-03T15:15:27Z</time></trkpt><trkpt lat="42.01346821220412" lon="12.889864262485315"><ele>279.0</ele><time>2026-05-03T15:15:28Z</time></trkpt><trkpt lat="42.01344037876785" lon="12.889680884436073"><ele>276.5</ele><time>2026-05-03T15:15:29Z</time></trkpt><trkpt lat="42.01338036729012" lon="12.88951057124253"><ele>274.0</ele><time>2026-05-03T15:15:30Z</time></trkpt><trkpt lat="42.01327950827298" lon="12.889373025108549"><ele>273.0</ele><time>2026-05-03T15:15:30.999Z</time></trkpt><trkpt lat="42.013157772615806" lon="12.889258189155791"><ele>272.0</ele><time>2026-05-03T15:15:31.999Z</time></trkpt><trkpt lat="42.01304206060487" lon="12.889145622904497"><ele>271.0</ele><time>2026-05-03T15:15:32.999Z</time></trkpt><trkpt lat="42.01292764857526" lon="12.88902923165032"><ele>270.0</ele><time>2026-05-03T15:15:33.999Z</time></trkpt><trkpt lat="42.01281878345306" lon="12.88890854982584"><ele>270.0</ele><time>2026-05-03T15:15:34.999Z</time></trkpt><trkpt lat="42.01272559709241" lon="12.888762530097296"><ele>270.0</ele><time>2026-05-03T15:15:35.999Z</time></trkpt><trkpt lat="42.01264911514324" lon="12.88860193487316"><ele>270.0</ele><time>2026-05-03T15:15:36.999Z</time></trkpt><trkpt lat="42.012577312714576" lon="12.888432458365703"><ele>270.0</ele><time>2026-05-03T15:15:37.999Z</time></trkpt><trkpt lat="42.01250295142575" lon="12.888262108555525"><ele>270.0</ele><time>2026-05-03T15:15:38.999Z</time></trkpt><trkpt lat="42.01243048546086" lon="12.888086082699493"><ele>270.0</ele><time>2026-05-03T15:15:39.999Z</time></trkpt><trkpt lat="42.01235344266612" lon="12.887916266808999"><ele>270.0</ele><time>2026-05-03T15:15:40.999Z</time></trkpt><trkpt lat="42.012274222015115" lon="12.887753089850316"><ele>270.0</ele><time>2026-05-03T15:15:41.999Z</time></trkpt><trkpt lat="42.01219715690449" lon="12.88759021941554"><ele>270.0</ele><time>2026-05-03T15:15:42.999Z</time></trkpt><trkpt lat="42.0121111520288" lon="12.887426141616048"><ele>270.0</ele><time>2026-05-03T15:15:43.999Z</time></trkpt><trkpt lat="42.01202502071307" lon="12.887262169942113"><ele>270.0</ele><time>2026-05-03T15:15:44.999Z</time></trkpt><trkpt lat="42.01193848345066" lon="12.887098127723442"><ele>270.0</ele><time>2026-05-03T15:15:45.999Z</time></trkpt><trkpt lat="42.01185300565408" lon="12.886925331791742"><ele>272.0</ele><time>2026-05-03T15:15:46.999Z</time></trkpt><trkpt lat="42.01177816531652" lon="12.886735204939601"><ele>274.0</ele><time>2026-05-03T15:15:47.999Z</time></trkpt><trkpt lat="42.01171818362408" lon="12.886529747488831"><ele>276.0</ele><time>2026-05-03T15:15:48.999Z</time></trkpt><trkpt lat="42.011669557792274" lon="12.886316121130053"><ele>272.6666666666667</ele><time>2026-05-03T15:15:49.999Z</time></trkpt><trkpt lat="42.011608870867136" lon="12.88610505786678"><ele>269.33333333333337</ele><time>2026-05-03T15:15:50.999Z</time></trkpt><trkpt lat="42.01153730408818" lon="12.885892671019878"><ele>266.0</ele><time>2026-05-03T15:15:51.999Z</time></trkpt><trkpt lat="42.01145695365502" lon="12.885674819483171"><ele>266.0</ele><time>2026-05-03T15:15:52.999Z</time></trkpt><trkpt lat="42.01137925843493" lon="12.885447776225757"><ele>266.0</ele><time>2026-05-03T15:15:53.999Z</time></trkpt><trkpt lat="42.01128604697397" lon="12.885228103759555"><ele>266.0</ele><time>2026-05-03T15:15:54.999Z</time></trkpt><trkpt lat="42.01117523564267" lon="12.8850272606883"><ele>265.33333333333337</ele><time>2026-05-03T15:15:55.999Z</time></trkpt><trkpt lat="42.011061515277085" lon="12.884830736571384"><ele>264.6666666666667</ele><time>2026-05-03T15:15:56.999Z</time></trkpt><trkpt lat="42.01092727648219" lon="12.884635950381298"><ele>264.0</ele><time>2026-05-03T15:15:57.999Z</time></trkpt><trkpt lat="42.01080116208882" lon="12.884440643624933"><ele>264.3333333333333</ele><time>2026-05-03T15:15:58.999Z</time></trkpt><trkpt lat="42.010676838357014" lon="12.884236941019427"><ele>264.66666666666663</ele><time>2026-05-03T15:15:59.999Z</time></trkpt><trkpt lat="42.01056829165955" lon="12.884037188803187"><ele>265.0</ele><time>2026-05-03T15:16:00.999Z</time></trkpt><trkpt lat="42.01044433424889" lon="12.883842803451548"><ele>265.0</ele><time>2026-05-03T15:16:01.999Z</time></trkpt><trkpt lat="42.01031306033131" lon="12.883655477334484"><ele>265.0</ele><time>2026-05-03T15:16:02.999Z</time></trkpt><trkpt lat="42.010171386041186" lon="12.883480061249609"><ele>265.0</ele><time>2026-05-03T15:16:03.999Z</time></trkpt><trkpt lat="42.0100212083871" lon="12.883304687978296"><ele>265.0</ele><time>2026-05-03T15:16:04.999Z</time></trkpt><trkpt lat="42.00985621413427" lon="12.883121239539301"><ele>265.0</ele><time>2026-05-03T15:16:05.999Z</time></trkpt><trkpt lat="42.00968302658079" lon="12.88293210407158"><ele>265.0</ele><time>2026-05-03T15:16:06.999Z</time></trkpt><trkpt lat="42.00951828477119" lon="12.882743467322308"><ele>264.3333333333333</ele><time>2026-05-03T15:16:07.999Z</time></trkpt><trkpt lat="42.00935996651483" lon="12.882566973651384"><ele>263.6666666666667</ele><time>2026-05-03T15:16:08.999Z</time></trkpt><trkpt lat="42.00920402727908" lon="12.882408976255382"><ele>263.0</ele><time>2026-05-03T15:16:09.999Z</time></trkpt><trkpt lat="42.00904966337102" lon="12.882259963351135"><ele>263.0</ele><time>2026-05-03T15:16:10.999Z</time></trkpt><trkpt lat="42.008889593874024" lon="12.882117925166636"><ele>263.0</ele><time>2026-05-03T15:16:11.999Z</time></trkpt><trkpt lat="42.00872731168249" lon="12.881999550959778"><ele>263.0</ele><time>2026-05-03T15:16:12.999Z</time></trkpt><trkpt lat="42.008553568614914" lon="12.881916534443624"><ele>263.0</ele><time>2026-05-03T15:16:13.999Z</time></trkpt><trkpt lat="42.00837329628047" lon="12.8818618911751"><ele>263.0</ele><time>2026-05-03T15:16:14.999Z</time></trkpt><trkpt lat="42.00817453795963" lon="12.881838851004256"><ele>263.0</ele><time>2026-05-03T15:16:15.999Z</time></trkpt><trkpt lat="42.007972184893035" lon="12.881834215201092"><ele>263.0</ele><time>2026-05-03T15:16:16.999Z</time></trkpt><trkpt lat="42.00777657174925" lon="12.88180620411895"><ele>263.0</ele><time>2026-05-03T15:16:17.999Z</time></trkpt><trkpt lat="42.00758938505242" lon="12.881769315686215"><ele>263.0</ele><time>2026-05-03T15:16:18.999Z</time></trkpt><trkpt lat="42.00740536422204" lon="12.88171660896843"><ele>263.0</ele><time>2026-05-03T15:16:19.999Z</time></trkpt><trkpt lat="42.0072360418034" lon="12.881618524051083"><ele>263.0</ele><time>2026-05-03T15:16:20.999Z</time></trkpt><trkpt lat="42.00708326014726" lon="12.881462234208449"><ele>263.0</ele><time>2026-05-03T15:16:21.999Z</time></trkpt><trkpt lat="42.006915589629465" lon="12.881312591364859"><ele>263.0</ele><time>2026-05-03T15:16:22.999Z</time></trkpt><trkpt lat="42.00676019003933" lon="12.88112576460426"><ele>263.0</ele><time>2026-05-03T15:16:23.999Z</time></trkpt><trkpt lat="42.00662176815797" lon="12.88093605034219"><ele>263.0</ele><time>2026-05-03T15:16:24.999Z</time></trkpt><trkpt lat="42.00648995997649" lon="12.880736112766286"><ele>263.0</ele><time>2026-05-03T15:16:25.999Z</time></trkpt><trkpt lat="42.006371150560156" lon="12.880532287711356"><ele>263.0</ele><time>2026-05-03T15:16:26.999Z</time></trkpt><trkpt lat="42.00627917503838" lon="12.88032437765975"><ele>263.0</ele><time>2026-05-03T15:16:27.999Z</time></trkpt><trkpt lat="42.00620315816779" lon="12.880098518362457"><ele>263.33333333333337</ele><time>2026-05-03T15:16:28.999Z</time></trkpt><trkpt lat="42.006163512594306" lon="12.879849827708323"><ele>263.6666666666667</ele><time>2026-05-03T15:16:29.999Z</time></trkpt><trkpt lat="42.00613655189278" lon="12.879599230243446"><ele>264.0</ele><time>2026-05-03T15:16:30.999Z</time></trkpt><trkpt lat="42.0060922145645" lon="12.879347506466267"><ele>263.6666666666667</ele><time>2026-05-03T15:16:31.999Z</time></trkpt><trkpt lat="42.0060039492707" lon="12.879113483495457"><ele>263.33333333333337</ele><time>2026-05-03T15:16:32.999Z</time></trkpt><trkpt lat="42.005900144667734" lon="12.878880228883181"><ele>263.0</ele><time>2026-05-03T15:16:33.999Z</time></trkpt><trkpt lat="42.00580532454629" lon="12.878649954102626"><ele>263.6666666666667</ele><time>2026-05-03T15:16:34.999Z</time></trkpt><trkpt lat="42.00571911663677" lon="12.878423621973646"><ele>264.3333333333333</ele><time>2026-05-03T15:16:35.999Z</time></trkpt><trkpt lat="42.005639167629134" lon="12.878210218434782"><ele>265.0</ele><time>2026-05-03T15:16:36.999Z</time></trkpt><trkpt lat="42.005562524174316" lon="12.878002778631021"><ele>265.0</ele><time>2026-05-03T15:16:37.999Z</time></trkpt><trkpt lat="42.00551738363892" lon="12.877791406273523"><ele>265.0</ele><time>2026-05-03T15:16:38.999Z</time></trkpt><trkpt lat="42.00549436587144" lon="12.877577795009515"><ele>265.0</ele><time>2026-05-03T15:16:39.998Z</time></trkpt><trkpt lat="42.005466016126846" lon="12.877382752492034"><ele>266.5</ele><time>2026-05-03T15:16:40.998Z</time></trkpt><trkpt lat="42.00540275322497" lon="12.877219360031255"><ele>268.0</ele><time>2026-05-03T15:16:41.998Z</time></trkpt><trkpt lat="42.005312607730154" lon="12.877091419824296"><ele>269.5</ele><time>2026-05-03T15:16:42.998Z</time></trkpt><trkpt lat="42.00519960213" lon="12.877023767633068"><ele>271.0</ele><time>2026-05-03T15:16:43.998Z</time></trkpt><trkpt lat="42.00506000582166" lon="12.877003593738909"><ele>269.3333333333333</ele><time>2026-05-03T15:16:44.998Z</time></trkpt><trkpt lat="42.004897743636" lon="12.87701404855539"><ele>267.6666666666667</ele><time>2026-05-03T15:16:45.998Z</time></trkpt><trkpt lat="42.0047281637192" lon="12.877048192968656"><ele>266.0</ele><time>2026-05-03T15:16:47Z</time></trkpt><trkpt lat="42.00455297515824" lon="12.877041148506288"><ele>266.0</ele><time>2026-05-03T15:16:48Z</time></trkpt><trkpt lat="42.00437976207687" lon="12.877003814324937"><ele>266.0</ele><time>2026-05-03T15:16:49Z</time></trkpt><trkpt lat="42.0042118605229" lon="12.87693333062772"><ele>266.0</ele><time>2026-05-03T15:16:50Z</time></trkpt><trkpt lat="42.0040427939174" lon="12.876837757882402"><ele>266.33333333333337</ele><time>2026-05-03T15:16:51Z</time></trkpt><trkpt lat="42.003873222997456" lon="12.876727968021358"><ele>266.6666666666667</ele><time>2026-05-03T15:16:52Z</time></trkpt><trkpt lat="42.00371486943074" lon="12.87660361237144"><ele>267.0</ele><time>2026-05-03T15:16:53Z</time></trkpt><trkpt lat="42.00354340287509" lon="12.876523451591574"><ele>267.0</ele><time>2026-05-03T15:16:54Z</time></trkpt><trkpt lat="42.00337208292567" lon="12.876493587903873"><ele>267.0</ele><time>2026-05-03T15:16:55Z</time></trkpt><trkpt lat="42.003199730716915" lon="12.876499417343904"><ele>267.0</ele><time>2026-05-03T15:16:56Z</time></trkpt><trkpt lat="42.00302547746738" lon="12.876561281272963"><ele>265.3333333333333</ele><time>2026-05-03T15:16:57Z</time></trkpt><trkpt lat="42.00285323111446" lon="12.876667909283391"><ele>263.66666666666663</ele><time>2026-05-03T15:16:58Z</time></trkpt><trkpt lat="42.00268937754886" lon="12.876794348375459"><ele>262.0</ele><time>2026-05-03T15:16:59Z</time></trkpt><trkpt lat="42.00252964809043" lon="12.876914997076145"><ele>261.66666666666663</ele><time>2026-05-03T15:17:00Z</time></trkpt><trkpt lat="42.00235715553042" lon="12.877013793264343"><ele>261.3333333333333</ele><time>2026-05-03T15:17:01Z</time></trkpt><trkpt lat="42.002177384464204" lon="12.87709007935917"><ele>261.0</ele><time>2026-05-03T15:17:02Z</time></trkpt><trkpt lat="42.00197818025192" lon="12.87707929198028"><ele>261.0</ele><time>2026-05-03T15:17:03Z</time></trkpt><trkpt lat="42.001777794345905" lon="12.877066826772221"><ele>261.0</ele><time>2026-05-03T15:17:04Z</time></trkpt><trkpt lat="42.00156460553045" lon="12.877058923845247"><ele>261.0</ele><time>2026-05-03T15:17:05Z</time></trkpt><trkpt lat="42.001351106950054" lon="12.877029466016209"><ele>261.6666666666667</ele><time>2026-05-03T15:17:06Z</time></trkpt><trkpt lat="42.00113586111438" lon="12.877036760230874"><ele>262.33333333333337</ele><time>2026-05-03T15:17:07Z</time></trkpt><trkpt lat="42.00094134458233" lon="12.87707507168607"><ele>263.0</ele><time>2026-05-03T15:17:08Z</time></trkpt><trkpt lat="42.00077105249703" lon="12.877120085037795"><ele>263.0</ele><time>2026-05-03T15:17:09Z</time></trkpt><trkpt lat="42.00061015837566" lon="12.87714766202172"><ele>263.0</ele><time>2026-05-03T15:17:10Z</time></trkpt><trkpt lat="42.000444708740865" lon="12.877126041416956"><ele>263.0</ele><time>2026-05-03T15:17:11Z</time></trkpt><trkpt lat="42.00027510409677" lon="12.877115263672263"><ele>263.0</ele><time>2026-05-03T15:17:12Z</time></trkpt><trkpt lat="42.000099845894276" lon="12.877101224471158"><ele>263.0</ele><time>2026-05-03T15:17:13Z</time></trkpt><trkpt lat="41.999925507418766" lon="12.877093735221067"><ele>263.0</ele><time>2026-05-03T15:17:14Z</time></trkpt><trkpt lat="41.999750861229046" lon="12.87706314781304"><ele>263.0</ele><time>2026-05-03T15:17:15Z</time></trkpt><trkpt lat="41.999577142512635" lon="12.877025923884394"><ele>263.0</ele><time>2026-05-03T15:17:16Z</time></trkpt><trkpt lat="41.99939272457576" lon="12.876981921969934"><ele>263.0</ele><time>2026-05-03T15:17:17Z</time></trkpt><trkpt lat="41.99923794260095" lon="12.87693465333877"><ele>262.0</ele><time>2026-05-03T15:17:18Z</time></trkpt><trkpt lat="41.999066502638314" lon="12.87686581573164"><ele>261.0</ele><time>2026-05-03T15:17:19Z</time></trkpt><trkpt lat="41.998891007338415" lon="12.876804946201265"><ele>260.0</ele><time>2026-05-03T15:17:20Z</time></trkpt><trkpt lat="41.99872003582185" lon="12.876734777485028"><ele>261.0</ele><time>2026-05-03T15:17:21Z</time></trkpt><trkpt lat="41.99855060365394" lon="12.876651083572543"><ele>262.0</ele><time>2026-05-03T15:17:22Z</time></trkpt><trkpt lat="41.99839114800657" lon="12.876574302402222"><ele>263.0</ele><time>2026-05-03T15:17:23Z</time></trkpt><trkpt lat="41.99823305206947" lon="12.876491733103837"><ele>263.0</ele><time>2026-05-03T15:17:24Z</time></trkpt><trkpt lat="41.99807350737182" lon="12.876411219135669"><ele>263.0</ele><time>2026-05-03T15:17:25Z</time></trkpt><trkpt lat="41.997911318406196" lon="12.876330713580648"><ele>263.0</ele><time>2026-05-03T15:17:26Z</time></trkpt><trkpt lat="41.99775461354805" lon="12.876231923791531"><ele>263.0</ele><time>2026-05-03T15:17:27Z</time></trkpt><trkpt lat="41.99759966011265" lon="12.87611514800579"><ele>263.0</ele><time>2026-05-03T15:17:28Z</time></trkpt><trkpt lat="41.99745311017055" lon="12.875984164751873"><ele>263.0</ele><time>2026-05-03T15:17:29Z</time></trkpt><trkpt lat="41.99730769089541" lon="12.875849087390284"><ele>264.33333333333337</ele><time>2026-05-03T15:17:30Z</time></trkpt><trkpt lat="41.9971611036477" lon="12.875705243963981"><ele>265.6666666666667</ele><time>2026-05-03T15:17:31Z</time></trkpt><trkpt lat="41.99700813195783" lon="12.87556162949738"><ele>267.0</ele><time>2026-05-03T15:17:32Z</time></trkpt><trkpt lat="41.99685664911933" lon="12.875414291435687"><ele>267.0</ele><time>2026-05-03T15:17:33Z</time></trkpt><trkpt lat="41.996722069701825" lon="12.875242944106247"><ele>267.0</ele><time>2026-05-03T15:17:33.999Z</time></trkpt><trkpt lat="41.99657276585277" lon="12.875071445572209"><ele>267.0</ele><time>2026-05-03T15:17:34.999Z</time></trkpt><trkpt lat="41.99640757262205" lon="12.874881024313726"><ele>268.3333333333333</ele><time>2026-05-03T15:17:35.999Z</time></trkpt><trkpt lat="41.9962524085884" lon="12.87469706710913"><ele>269.66666666666663</ele><time>2026-05-03T15:17:36.999Z</time></trkpt><trkpt lat="41.99610696033308" lon="12.874533156306034"><ele>271.0</ele><time>2026-05-03T15:17:37.999Z</time></trkpt><trkpt lat="41.99598782218703" lon="12.874355837609196"><ele>270.25</ele><time>2026-05-03T15:17:38.999Z</time></trkpt><trkpt lat="41.99588008009847" lon="12.874196638594965"><ele>269.5</ele><time>2026-05-03T15:17:39.999Z</time></trkpt><trkpt lat="41.99579362964901" lon="12.87404796265694"><ele>268.75</ele><time>2026-05-03T15:17:40.999Z</time></trkpt><trkpt lat="41.99569721538946" lon="12.873901940209949"><ele>268.0</ele><time>2026-05-03T15:17:41.999Z</time></trkpt><trkpt lat="41.995588148106975" lon="12.873800133256069"><ele>268.0</ele><time>2026-05-03T15:17:42.999Z</time></trkpt><trkpt lat="41.99546735992389" lon="12.87371416278063"><ele>268.0</ele><time>2026-05-03T15:17:43.999Z</time></trkpt><trkpt lat="41.9953593435854" lon="12.873642212423054"><ele>268.0</ele><time>2026-05-03T15:17:44.999Z</time></trkpt><trkpt lat="41.99524056599054" lon="12.87358913902332"><ele>268.0</ele><time>2026-05-03T15:17:45.999Z</time></trkpt><trkpt lat="41.99509240000273" lon="12.873577302279351"><ele>270.0</ele><time>2026-05-03T15:17:46.999Z</time></trkpt><trkpt lat="41.994972546661735" lon="12.873498926534092"><ele>272.0</ele><time>2026-05-03T15:17:47.999Z</time></trkpt><trkpt lat="41.99485628971764" lon="12.873437925925462"><ele>274.0</ele><time>2026-05-03T15:17:48.999Z</time></trkpt><trkpt lat="41.994752672650726" lon="12.873340799007755"><ele>276.0</ele><time>2026-05-03T15:17:49.999Z</time></trkpt><trkpt lat="41.99465186954471" lon="12.873229693106433"><ele>276.0</ele><time>2026-05-03T15:17:50.999Z</time></trkpt><trkpt lat="41.994568460082306" lon="12.87307674970876"><ele>276.0</ele><time>2026-05-03T15:17:51.999Z</time></trkpt><trkpt lat="41.99446871861049" lon="12.872932358933967"><ele>276.0</ele><time>2026-05-03T15:17:52.999Z</time></trkpt><trkpt lat="41.99439510917219" lon="12.872769729961156"><ele>276.0</ele><time>2026-05-03T15:17:53.999Z</time></trkpt><trkpt lat="41.99431724557715" lon="12.872611197512546"><ele>273.75</ele><time>2026-05-03T15:17:54.999Z</time></trkpt><trkpt lat="41.99424723870318" lon="12.872457579482358"><ele>271.5</ele><time>2026-05-03T15:17:55.999Z</time></trkpt><trkpt lat="41.99419297759235" lon="12.872296683039238"><ele>269.25</ele><time>2026-05-03T15:17:56.999Z</time></trkpt><trkpt lat="41.99415813942195" lon="12.87212962242665"><ele>267.0</ele><time>2026-05-03T15:17:57.999Z</time></trkpt><trkpt lat="41.99414175032984" lon="12.87196035560473"><ele>267.0</ele><time>2026-05-03T15:17:58.999Z</time></trkpt><trkpt lat="41.99413683679545" lon="12.871788277426308"><ele>267.0</ele><time>2026-05-03T15:17:59.999Z</time></trkpt><trkpt lat="41.99415073004109" lon="12.8716038371239"><ele>267.0</ele><time>2026-05-03T15:18:00.999Z</time></trkpt><trkpt lat="41.994190306853135" lon="12.871435667433596"><ele>267.0</ele><time>2026-05-03T15:18:01.999Z</time></trkpt><trkpt lat="41.99421246062911" lon="12.87125288101007"><ele>271.25</ele><time>2026-05-03T15:18:02.999Z</time></trkpt><trkpt lat="41.99422755002367" lon="12.87109046521857"><ele>275.5</ele><time>2026-05-03T15:18:03.999Z</time></trkpt><trkpt lat="41.994246185431486" lon="12.870908582045413"><ele>279.75</ele><time>2026-05-03T15:18:04.999Z</time></trkpt><trkpt lat="41.994244391295126" lon="12.870754035546781"><ele>284.0</ele><time>2026-05-03T15:18:05.999Z</time></trkpt><trkpt lat="41.99423336791551" lon="12.870584952478897"><ele>284.0</ele><time>2026-05-03T15:18:06.999Z</time></trkpt><trkpt lat="41.99421672968069" lon="12.870412229773468"><ele>284.0</ele><time>2026-05-03T15:18:07.999Z</time></trkpt><trkpt lat="41.994162975236804" lon="12.870229721332999"><ele>284.0</ele><time>2026-05-03T15:18:08.999Z</time></trkpt><trkpt lat="41.994094604105996" lon="12.870033723789764"><ele>284.0</ele><time>2026-05-03T15:18:09.999Z</time></trkpt><trkpt lat="41.99403921024889" lon="12.869831752806832"><ele>278.6666666666667</ele><time>2026-05-03T15:18:10.999Z</time></trkpt><trkpt lat="41.99398072053908" lon="12.869650050084521"><ele>273.3333333333333</ele><time>2026-05-03T15:18:11.999Z</time></trkpt><trkpt lat="41.99391752276735" lon="12.869460764324241"><ele>268.0</ele><time>2026-05-03T15:18:12.999Z</time></trkpt><trkpt lat="41.99384046233288" lon="12.869281655298416"><ele>269.3333333333333</ele><time>2026-05-03T15:18:13.999Z</time></trkpt><trkpt lat="41.993746068969294" lon="12.869117554060912"><ele>270.6666666666667</ele><time>2026-05-03T15:18:14.999Z</time></trkpt><trkpt lat="41.99364667049107" lon="12.868962545268985"><ele>272.0</ele><time>2026-05-03T15:18:15.999Z</time></trkpt><trkpt lat="41.99353037805582" lon="12.868818613339728"><ele>272.0</ele><time>2026-05-03T15:18:16.999Z</time></trkpt><trkpt lat="41.99338941319475" lon="12.868669705310618"><ele>272.0</ele><time>2026-05-03T15:18:17.999Z</time></trkpt><trkpt lat="41.993194682823734" lon="12.86851771665493"><ele>272.0</ele><time>2026-05-03T15:18:18.999Z</time></trkpt><trkpt lat="41.99301686791279" lon="12.868345654346943"><ele>274.6666666666667</ele><time>2026-05-03T15:18:19.999Z</time></trkpt><trkpt lat="41.99284264955088" lon="12.868180421201725"><ele>277.3333333333333</ele><time>2026-05-03T15:18:20.999Z</time></trkpt><trkpt lat="41.992661869927616" lon="12.868027941267918"><ele>280.0</ele><time>2026-05-03T15:18:21.999Z</time></trkpt><trkpt lat="41.992447663888" lon="12.867895761428839"><ele>272.0</ele><time>2026-05-03T15:18:22.999Z</time></trkpt><trkpt lat="41.99222841681356" lon="12.867769008757662"><ele>264.0</ele><time>2026-05-03T15:18:23.999Z</time></trkpt><trkpt lat="41.99201718247326" lon="12.867638261436525"><ele>263.5</ele><time>2026-05-03T15:18:24.999Z</time></trkpt><trkpt lat="41.99180944400071" lon="12.867506157615242"><ele>263.0</ele><time>2026-05-03T15:18:25.999Z</time></trkpt><trkpt lat="41.99159645274404" lon="12.867381191924398"><ele>263.0</ele><time>2026-05-03T15:18:26.999Z</time></trkpt><trkpt lat="41.99139187495506" lon="12.867278507312138"><ele>263.0</ele><time>2026-05-03T15:18:27.999Z</time></trkpt><trkpt lat="41.99120123504941" lon="12.867196540473133"><ele>263.0</ele><time>2026-05-03T15:18:28.999Z</time></trkpt><trkpt lat="41.99102467223448" lon="12.86713554768216"><ele>263.0</ele><time>2026-05-03T15:18:29.999Z</time></trkpt><trkpt lat="41.99085388677593" lon="12.867080285432909"><ele>263.0</ele><time>2026-05-03T15:18:30.999Z</time></trkpt><trkpt lat="41.99068213163091" lon="12.867025563172003"><ele>263.0</ele><time>2026-05-03T15:18:31.999Z</time></trkpt><trkpt lat="41.99051355347463" lon="12.866972175257834"><ele>262.33333333333337</ele><time>2026-05-03T15:18:32.999Z</time></trkpt><trkpt lat="41.99036571021956" lon="12.866907359738928"><ele>261.6666666666667</ele><time>2026-05-03T15:18:33.999Z</time></trkpt><trkpt lat="41.99022925012806" lon="12.866812691319108"><ele>261.0</ele><time>2026-05-03T15:18:34.999Z</time></trkpt><trkpt lat="41.990100277305416" lon="12.86671246289971"><ele>264.3333333333333</ele><time>2026-05-03T15:18:35.999Z</time></trkpt><trkpt lat="41.98996687179394" lon="12.866614732553996"><ele>267.66666666666663</ele><time>2026-05-03T15:18:36.999Z</time></trkpt><trkpt lat="41.98984894346788" lon="12.86648849391024"><ele>271.0</ele><time>2026-05-03T15:18:37.999Z</time></trkpt><trkpt lat="41.989732052324236" lon="12.86635664681472"><ele>271.0</ele><time>2026-05-03T15:18:38.999Z</time></trkpt><trkpt lat="41.98961737921498" lon="12.866214113224597"><ele>271.0</ele><time>2026-05-03T15:18:39.999Z</time></trkpt><trkpt lat="41.98951462205527" lon="12.866071132439675"><ele>271.0</ele><time>2026-05-03T15:18:40.998Z</time></trkpt><trkpt lat="41.98943192322474" lon="12.8659137156994"><ele>271.0</ele><time>2026-05-03T15:18:41.998Z</time></trkpt><trkpt lat="41.98935581261145" lon="12.865744966082275"><ele>270.25</ele><time>2026-05-03T15:18:42.998Z</time></trkpt><trkpt lat="41.989287481721966" lon="12.865575299509512"><ele>269.5</ele><time>2026-05-03T15:18:43.998Z</time></trkpt><trkpt lat="41.98922966346477" lon="12.865401503234015"><ele>268.75</ele><time>2026-05-03T15:18:44.998Z</time></trkpt><trkpt lat="41.98917408734062" lon="12.865222753629023"><ele>268.0</ele><time>2026-05-03T15:18:45.998Z</time></trkpt><trkpt lat="41.989113608854815" lon="12.865047723458584"><ele>272.66666666666663</ele><time>2026-05-03T15:18:46.998Z</time></trkpt><trkpt lat="41.98904666186316" lon="12.86486487406467"><ele>277.3333333333333</ele><time>2026-05-03T15:18:47.998Z</time></trkpt><trkpt lat="41.98896827408175" lon="12.8646775119464"><ele>282.0</ele><time>2026-05-03T15:18:48.998Z</time></trkpt><trkpt lat="41.988884365431225" lon="12.864492983247377"><ele>282.0</ele><time>2026-05-03T15:18:49.998Z</time></trkpt><trkpt lat="41.98878060987614" lon="12.864321206965467"><ele>282.0</ele><time>2026-05-03T15:18:50.998Z</time></trkpt><trkpt lat="41.98865046754298" lon="12.864167848384218"><ele>282.0</ele><time>2026-05-03T15:18:51.998Z</time></trkpt><trkpt lat="41.9885086457738" lon="12.86402777635971"><ele>279.0</ele><time>2026-05-03T15:18:53Z</time></trkpt><trkpt lat="41.98835990703995" lon="12.86389895269101"><ele>276.0</ele><time>2026-05-03T15:18:54Z</time></trkpt><trkpt lat="41.98821819895178" lon="12.863760741926603"><ele>273.0</ele><time>2026-05-03T15:18:55Z</time></trkpt><trkpt lat="41.98808656301626" lon="12.863624769988892"><ele>273.0</ele><time>2026-05-03T15:18:56Z</time></trkpt><trkpt lat="41.98795484945038" lon="12.863495691015586"><ele>273.0</ele><time>2026-05-03T15:18:57Z</time></trkpt><trkpt lat="41.98781732478886" lon="12.863393150558732"><ele>273.0</ele><time>2026-05-03T15:18:58Z</time></trkpt><trkpt lat="41.98767174194948" lon="12.8633010894438"><ele>275.3333333333333</ele><time>2026-05-03T15:18:59Z</time></trkpt><trkpt lat="41.987515014595424" lon="12.863242179192243"><ele>277.66666666666663</ele><time>2026-05-03T15:19:00Z</time></trkpt><trkpt lat="41.987353737839356" lon="12.863214586690402"><ele>280.0</ele><time>2026-05-03T15:19:01Z</time></trkpt><trkpt lat="41.98720182605038" lon="12.863209925483929"><ele>280.0</ele><time>2026-05-03T15:19:02Z</time></trkpt><trkpt lat="41.98704268720105" lon="12.863183551244864"><ele>280.0</ele><time>2026-05-03T15:19:03Z</time></trkpt><trkpt lat="41.98690598601673" lon="12.863160497141958"><ele>280.0</ele><time>2026-05-03T15:19:04Z</time></trkpt><trkpt lat="41.986778438417645" lon="12.863112602862799"><ele>280.0</ele><time>2026-05-03T15:19:05Z</time></trkpt><trkpt lat="41.98664356114357" lon="12.86306129990163"><ele>280.0</ele><time>2026-05-03T15:19:06Z</time></trkpt><trkpt lat="41.986523356571674" lon="12.86297561165555"><ele>280.0</ele><time>2026-05-03T15:19:07Z</time></trkpt><trkpt lat="41.98641935686139" lon="12.862862448667096"><ele>280.0</ele><time>2026-05-03T15:19:08Z</time></trkpt><trkpt lat="41.986334309134314" lon="12.86272196210107"><ele>280.0</ele><time>2026-05-03T15:19:09Z</time></trkpt><trkpt lat="41.986285751447596" lon="12.86254381451656"><ele>280.0</ele><time>2026-05-03T15:19:10Z</time></trkpt><trkpt lat="41.986257415951194" lon="12.862368129988234"><ele>280.0</ele><time>2026-05-03T15:19:11Z</time></trkpt><trkpt lat="41.98625799770294" lon="12.862192628673897"><ele>280.0</ele><time>2026-05-03T15:19:12Z</time></trkpt><trkpt lat="41.98630275366874" lon="12.862027008856394"><ele>280.0</ele><time>2026-05-03T15:19:13Z</time></trkpt><trkpt lat="41.98636151705757" lon="12.861857602145063"><ele>279.25</ele><time>2026-05-03T15:19:14Z</time></trkpt><trkpt lat="41.98643147584135" lon="12.861679741138124"><ele>278.5</ele><time>2026-05-03T15:19:15Z</time></trkpt><trkpt lat="41.9865009085343" lon="12.86150305471021"><ele>277.75</ele><time>2026-05-03T15:19:16Z</time></trkpt><trkpt lat="41.98656309642985" lon="12.86131883899813"><ele>277.0</ele><time>2026-05-03T15:19:17Z</time></trkpt><trkpt lat="41.98661370614885" lon="12.861127953347287"><ele>278.25</ele><time>2026-05-03T15:19:18Z</time></trkpt><trkpt lat="41.98664939087578" lon="12.860936436607473"><ele>279.5</ele><time>2026-05-03T15:19:19Z</time></trkpt><trkpt lat="41.98666973620776" lon="12.86073654489843"><ele>280.75</ele><time>2026-05-03T15:19:20Z</time></trkpt><trkpt lat="41.9866853612294" lon="12.860549507221311"><ele>282.0</ele><time>2026-05-03T15:19:21Z</time></trkpt><trkpt lat="41.986684019571236" lon="12.860379598915035"><ele>278.0</ele><time>2026-05-03T15:19:22Z</time></trkpt><trkpt lat="41.986667898280196" lon="12.860213737585786"><ele>274.0</ele><time>2026-05-03T15:19:23Z</time></trkpt><trkpt lat="41.986647395579254" lon="12.86003407612786"><ele>270.0</ele><time>2026-05-03T15:19:24Z</time></trkpt><trkpt lat="41.98660833088481" lon="12.859861528666707"><ele>266.0</ele><time>2026-05-03T15:19:25Z</time></trkpt><trkpt lat="41.98655584323555" lon="12.85967723524839"><ele>266.0</ele><time>2026-05-03T15:19:26Z</time></trkpt><trkpt lat="41.986493311885425" lon="12.859484137259063"><ele>266.0</ele><time>2026-05-03T15:19:27Z</time></trkpt><trkpt lat="41.98643221768559" lon="12.859331860234962"><ele>266.0</ele><time>2026-05-03T15:19:28Z</time></trkpt><trkpt lat="41.98635898334335" lon="12.859154099978745"><ele>266.0</ele><time>2026-05-03T15:19:29Z</time></trkpt><trkpt lat="41.98628292841327" lon="12.858969632990446"><ele>269.6666666666667</ele><time>2026-05-03T15:19:30Z</time></trkpt><trkpt lat="41.986212282865345" lon="12.858799558260984"><ele>273.3333333333333</ele><time>2026-05-03T15:19:31Z</time></trkpt><trkpt lat="41.98612849354848" lon="12.858625454108997"><ele>277.0</ele><time>2026-05-03T15:19:32Z</time></trkpt><trkpt lat="41.986034516613735" lon="12.858452511096457"><ele>281.0</ele><time>2026-05-03T15:19:33Z</time></trkpt><trkpt lat="41.98592886595589" lon="12.858295742802888"><ele>285.0</ele><time>2026-05-03T15:19:34Z</time></trkpt><trkpt lat="41.98581813819972" lon="12.858138550802273"><ele>289.0</ele><time>2026-05-03T15:19:35Z</time></trkpt><trkpt lat="41.98571223735144" lon="12.857982340193983"><ele>285.3333333333333</ele><time>2026-05-03T15:19:36Z</time></trkpt><trkpt lat="41.985595115720905" lon="12.857815822331272"><ele>281.6666666666667</ele><time>2026-05-03T15:19:37Z</time></trkpt><trkpt lat="41.985433408200244" lon="12.857664516599113"><ele>278.0</ele><time>2026-05-03T15:19:38Z</time></trkpt><trkpt lat="41.98527779459359" lon="12.857508749607032"><ele>278.0</ele><time>2026-05-03T15:19:39Z</time></trkpt><trkpt lat="41.98513001370398" lon="12.85734398792191"><ele>278.0</ele><time>2026-05-03T15:19:40Z</time></trkpt><trkpt lat="41.98498565997946" lon="12.857169468637574"><ele>278.0</ele><time>2026-05-03T15:19:41Z</time></trkpt><trkpt lat="41.984850122947165" lon="12.857012071017852"><ele>275.33333333333337</ele><time>2026-05-03T15:19:42Z</time></trkpt><trkpt lat="41.98472261716297" lon="12.856856148374531"><ele>272.6666666666667</ele><time>2026-05-03T15:19:43Z</time></trkpt><trkpt lat="41.98458932439423" lon="12.856766436681935"><ele>270.0</ele><time>2026-05-03T15:19:44Z</time></trkpt><trkpt lat="41.98446738974446" lon="12.856665355371538"><ele>270.0</ele><time>2026-05-03T15:19:45Z</time></trkpt><trkpt lat="41.984359849589055" lon="12.856557977008261"><ele>270.0</ele><time>2026-05-03T15:19:45.999Z</time></trkpt><trkpt lat="41.984261385622645" lon="12.856443836549762"><ele>270.0</ele><time>2026-05-03T15:19:46.999Z</time></trkpt><trkpt lat="41.9841546606668" lon="12.856339689259949"><ele>270.0</ele><time>2026-05-03T15:19:47.999Z</time></trkpt><trkpt lat="41.98405818085476" lon="12.856231338573663"><ele>268.25</ele><time>2026-05-03T15:19:48.999Z</time></trkpt><trkpt lat="41.98397658843173" lon="12.856113043342518"><ele>266.5</ele><time>2026-05-03T15:19:49.999Z</time></trkpt><trkpt lat="41.98390985181553" lon="12.855995087801043"><ele>264.75</ele><time>2026-05-03T15:19:50.999Z</time></trkpt><trkpt lat="41.983831189656414" lon="12.855883327626284"><ele>263.0</ele><time>2026-05-03T15:19:51.999Z</time></trkpt><trkpt lat="41.98378504833644" lon="12.855739715100324"><ele>263.0</ele><time>2026-05-03T15:19:52.999Z</time></trkpt><trkpt lat="41.98375906633693" lon="12.855589532577302"><ele>263.0</ele><time>2026-05-03T15:19:53.999Z</time></trkpt><trkpt lat="41.98376388006856" lon="12.855406190829191"><ele>263.0</ele><time>2026-05-03T15:19:54.999Z</time></trkpt><trkpt lat="41.98379334955701" lon="12.855148148140522"><ele>263.0</ele><time>2026-05-03T15:19:55.999Z</time></trkpt><trkpt lat="41.98381681550393" lon="12.854880089538371"><ele>261.33333333333337</ele><time>2026-05-03T15:19:56.999Z</time></trkpt><trkpt lat="41.98384896723857" lon="12.854621989148283"><ele>259.6666666666667</ele><time>2026-05-03T15:19:57.999Z</time></trkpt><trkpt lat="41.98387013169424" lon="12.854378529499964"><ele>258.0</ele><time>2026-05-03T15:19:58.999Z</time></trkpt><trkpt lat="41.983889822092884" lon="12.854157403957629"><ele>257.25</ele><time>2026-05-03T15:19:59.999Z</time></trkpt><trkpt lat="41.98391113785637" lon="12.853945505769161"><ele>256.5</ele><time>2026-05-03T15:20:00.999Z</time></trkpt><trkpt lat="41.98393072046386" lon="12.853777204352168"><ele>255.75</ele><time>2026-05-03T15:20:01.999Z</time></trkpt><trkpt lat="41.9839888164856" lon="12.853613533639948"><ele>255.0</ele><time>2026-05-03T15:20:02.999Z</time></trkpt><trkpt lat="41.98406227146376" lon="12.85344947372616"><ele>254.66666666666669</ele><time>2026-05-03T15:20:03.999Z</time></trkpt><trkpt lat="41.98415543563465" lon="12.853292507331753"><ele>254.33333333333334</ele><time>2026-05-03T15:20:04.999Z</time></trkpt><trkpt lat="41.98428136011692" lon="12.853145542349639"><ele>254.0</ele><time>2026-05-03T15:20:05.999Z</time></trkpt><trkpt lat="41.98443227638996" lon="12.852967913723015"><ele>256.5</ele><time>2026-05-03T15:20:06.999Z</time></trkpt><trkpt lat="41.98458703612055" lon="12.85276431043652"><ele>259.0</ele><time>2026-05-03T15:20:07.999Z</time></trkpt><trkpt lat="41.98477109778797" lon="12.852567086840633"><ele>259.0</ele><time>2026-05-03T15:20:08.999Z</time></trkpt><trkpt lat="41.98497669973853" lon="12.852380993742463"><ele>259.0</ele><time>2026-05-03T15:20:09.999Z</time></trkpt><trkpt lat="41.98510013156629" lon="12.852186540029258"><ele>259.0</ele><time>2026-05-03T15:20:10.999Z</time></trkpt><trkpt lat="41.9852544389212" lon="12.852004418626327"><ele>260.3333333333333</ele><time>2026-05-03T15:20:11.999Z</time></trkpt><trkpt lat="41.9853894209716" lon="12.851809808873327"><ele>261.6666666666667</ele><time>2026-05-03T15:20:12.999Z</time></trkpt><trkpt lat="41.985520511575984" lon="12.85161139552488"><ele>263.0</ele><time>2026-05-03T15:20:13.999Z</time></trkpt><trkpt lat="41.9856480552584" lon="12.851416232455742"><ele>263.0</ele><time>2026-05-03T15:20:14.999Z</time></trkpt><trkpt lat="41.98575935829033" lon="12.85121255001793"><ele>263.0</ele><time>2026-05-03T15:20:15.999Z</time></trkpt><trkpt lat="41.98585756856133" lon="12.850994289621084"><ele>263.0</ele><time>2026-05-03T15:20:16.999Z</time></trkpt><trkpt lat="41.98595442756793" lon="12.85079210718346"><ele>263.0</ele><time>2026-05-03T15:20:17.999Z</time></trkpt><trkpt lat="41.9860249048848" lon="12.850551942901498"><ele>263.0</ele><time>2026-05-03T15:20:18.999Z</time></trkpt><trkpt lat="41.98603993301777" lon="12.85028688530597"><ele>263.0</ele><time>2026-05-03T15:20:19.999Z</time></trkpt><trkpt lat="41.98605266720423" lon="12.850026136817455"><ele>262.6666666666667</ele><time>2026-05-03T15:20:20.999Z</time></trkpt><trkpt lat="41.98605760948332" lon="12.849775640807778"><ele>262.3333333333333</ele><time>2026-05-03T15:20:21.999Z</time></trkpt><trkpt lat="41.98606314415564" lon="12.849545002926094"><ele>262.0</ele><time>2026-05-03T15:20:22.999Z</time></trkpt><trkpt lat="41.98608356471485" lon="12.849319779834602"><ele>261.66666666666663</ele><time>2026-05-03T15:20:23.999Z</time></trkpt><trkpt lat="41.986126331656855" lon="12.849100579280014"><ele>261.3333333333333</ele><time>2026-05-03T15:20:24.999Z</time></trkpt><trkpt lat="41.986204646558086" lon="12.84890517925227"><ele>261.0</ele><time>2026-05-03T15:20:25.999Z</time></trkpt><trkpt lat="41.986305111279535" lon="12.848700161576952"><ele>261.0</ele><time>2026-05-03T15:20:26.999Z</time></trkpt><trkpt lat="41.986429012429284" lon="12.848504005885621"><ele>261.0</ele><time>2026-05-03T15:20:27.999Z</time></trkpt><trkpt lat="41.98655067613449" lon="12.848321409325502"><ele>261.0</ele><time>2026-05-03T15:20:28.999Z</time></trkpt><trkpt lat="41.98664042474212" lon="12.848067542736107"><ele>260.3333333333333</ele><time>2026-05-03T15:20:29.999Z</time></trkpt><trkpt lat="41.98667706532789" lon="12.847814653395458"><ele>259.66666666666663</ele><time>2026-05-03T15:20:30.999Z</time></trkpt><trkpt lat="41.98669077361598" lon="12.847575584539763"><ele>259.0</ele><time>2026-05-03T15:20:31.999Z</time></trkpt><trkpt lat="41.986666566756604" lon="12.84735334936327"><ele>258.66666666666663</ele><time>2026-05-03T15:20:32.999Z</time></trkpt><trkpt lat="41.986611046109715" lon="12.84712808926239"><ele>258.3333333333333</ele><time>2026-05-03T15:20:33.999Z</time></trkpt><trkpt lat="41.98653313698655" lon="12.846900797547697"><ele>258.0</ele><time>2026-05-03T15:20:34.999Z</time></trkpt><trkpt lat="41.986455738445756" lon="12.846685458651185"><ele>257.6666666666667</ele><time>2026-05-03T15:20:35.999Z</time></trkpt><trkpt lat="41.98637791157803" lon="12.84648094936641"><ele>257.33333333333337</ele><time>2026-05-03T15:20:36.999Z</time></trkpt><trkpt lat="41.986283005163195" lon="12.846253754962692"><ele>257.0</ele><time>2026-05-03T15:20:37.999Z</time></trkpt><trkpt lat="41.98621080821433" lon="12.846023868750317"><ele>256.0</ele><time>2026-05-03T15:20:38.999Z</time></trkpt><trkpt lat="41.986092825565535" lon="12.845779290089204"><ele>255.0</ele><time>2026-05-03T15:20:39.999Z</time></trkpt><trkpt lat="41.98597623183986" lon="12.845546758336916"><ele>254.0</ele><time>2026-05-03T15:20:40.999Z</time></trkpt><trkpt lat="41.98585354432846" lon="12.84532709517416"><ele>254.66666666666669</ele><time>2026-05-03T15:20:41.999Z</time></trkpt><trkpt lat="41.985707647616366" lon="12.84512046020312"><ele>255.33333333333331</ele><time>2026-05-03T15:20:42.999Z</time></trkpt><trkpt lat="41.985545245830814" lon="12.8449261611366"><ele>256.0</ele><time>2026-05-03T15:20:43.999Z</time></trkpt><trkpt lat="41.98537324785288" lon="12.844750854552792"><ele>256.0</ele><time>2026-05-03T15:20:44.999Z</time></trkpt><trkpt lat="41.98520324748647" lon="12.844582775159271"><ele>256.0</ele><time>2026-05-03T15:20:45.999Z</time></trkpt><trkpt lat="41.98501458415137" lon="12.844441101965316"><ele>256.0</ele><time>2026-05-03T15:20:46.999Z</time></trkpt><trkpt lat="41.98481762426606" lon="12.844308942728658"><ele>256.3333333333333</ele><time>2026-05-03T15:20:47.999Z</time></trkpt><trkpt lat="41.9846099412977" lon="12.844207618864738"><ele>256.6666666666667</ele><time>2026-05-03T15:20:48.999Z</time></trkpt><trkpt lat="41.984389803679434" lon="12.844132955991991"><ele>257.0</ele><time>2026-05-03T15:20:49.999Z</time></trkpt><trkpt lat="41.984172938387985" lon="12.84407683872502"><ele>256.0</ele><time>2026-05-03T15:20:50.998Z</time></trkpt><trkpt lat="41.98396291756096" lon="12.844032781398896"><ele>255.0</ele><time>2026-05-03T15:20:51.998Z</time></trkpt><trkpt lat="41.98377741059406" lon="12.844012786991573"><ele>254.0</ele><time>2026-05-03T15:20:52.998Z</time></trkpt><trkpt lat="41.98356328065761" lon="12.844062630798003"><ele>254.0</ele><time>2026-05-03T15:20:53.998Z</time></trkpt><trkpt lat="41.98330550323974" lon="12.844095981800349"><ele>254.0</ele><time>2026-05-03T15:20:54.998Z</time></trkpt><trkpt lat="41.98309078737464" lon="12.844151567133821"><ele>254.0</ele><time>2026-05-03T15:20:55.998Z</time></trkpt><trkpt lat="41.982886728454474" lon="12.844192157794014"><ele>254.0</ele><time>2026-05-03T15:20:56.998Z</time></trkpt><trkpt lat="41.98268959172621" lon="12.844227739836633"><ele>254.0</ele><time>2026-05-03T15:20:57.998Z</time></trkpt><trkpt lat="41.98249913770364" lon="12.844261663514922"><ele>248.66666666666669</ele><time>2026-05-03T15:20:59Z</time></trkpt><trkpt lat="41.982315798776156" lon="12.844298110546426"><ele>243.33333333333331</ele><time>2026-05-03T15:21:00Z</time></trkpt><trkpt lat="41.98213364727404" lon="12.844332167630181"><ele>238.0</ele><time>2026-05-03T15:21:01Z</time></trkpt><trkpt lat="41.9819568176563" lon="12.844355741593985"><ele>238.0</ele><time>2026-05-03T15:21:02Z</time></trkpt><trkpt lat="41.98178846911329" lon="12.844360683525009"><ele>238.0</ele><time>2026-05-03T15:21:03Z</time></trkpt><trkpt lat="41.981630280335416" lon="12.844291400066494"><ele>238.0</ele><time>2026-05-03T15:21:04Z</time></trkpt><trkpt lat="41.98146993125455" lon="12.844216017056798"><ele>244.0</ele><time>2026-05-03T15:21:05Z</time></trkpt><trkpt lat="41.9813035617181" lon="12.844127797977777"><ele>250.0</ele><time>2026-05-03T15:21:06Z</time></trkpt><trkpt lat="41.981132352438074" lon="12.84401584661932"><ele>256.0</ele><time>2026-05-03T15:21:07Z</time></trkpt><trkpt lat="41.98099369214005" lon="12.843860425709838"><ele>256.0</ele><time>2026-05-03T15:21:08Z</time></trkpt><trkpt lat="41.98087219730895" lon="12.843691690438337"><ele>256.0</ele><time>2026-05-03T15:21:09Z</time></trkpt><trkpt lat="41.980775446427025" lon="12.843500584338441"><ele>256.0</ele><time>2026-05-03T15:21:10Z</time></trkpt><trkpt lat="41.98069242988312" lon="12.84330372914891"><ele>255.66666666666666</ele><time>2026-05-03T15:21:11Z</time></trkpt><trkpt lat="41.980625037519815" lon="12.843068402445057"><ele>255.33333333333331</ele><time>2026-05-03T15:21:12Z</time></trkpt><trkpt lat="41.98056805674531" lon="12.842804475552715"><ele>255.0</ele><time>2026-05-03T15:21:13Z</time></trkpt><trkpt lat="41.98049450853959" lon="12.842532194979622"><ele>256.5</ele><time>2026-05-03T15:21:14Z</time></trkpt><trkpt lat="41.98039336733451" lon="12.842251442466212"><ele>258.0</ele><time>2026-05-03T15:21:15Z</time></trkpt><trkpt lat="41.98027459129836" lon="12.841985063237326"><ele>260.0</ele><time>2026-05-03T15:21:16Z</time></trkpt><trkpt lat="41.980157373661825" lon="12.841724893672803"><ele>262.0</ele><time>2026-05-03T15:21:17Z</time></trkpt><trkpt lat="41.98001717934119" lon="12.841481485595985"><ele>257.5</ele><time>2026-05-03T15:21:18Z</time></trkpt><trkpt lat="41.9798656278448" lon="12.841253291979793"><ele>253.0</ele><time>2026-05-03T15:21:19Z</time></trkpt><trkpt lat="41.97968979796621" lon="12.841047573847733"><ele>256.0</ele><time>2026-05-03T15:21:20Z</time></trkpt><trkpt lat="41.979514957861916" lon="12.840873735128314"><ele>259.0</ele><time>2026-05-03T15:21:21Z</time></trkpt><trkpt lat="41.979349170416114" lon="12.840720152295352"><ele>262.0</ele><time>2026-05-03T15:21:22Z</time></trkpt><trkpt lat="41.979214814830534" lon="12.840565312064312"><ele>259.3333333333333</ele><time>2026-05-03T15:21:23Z</time></trkpt><trkpt lat="41.979098712342605" lon="12.840375948240093"><ele>256.6666666666667</ele><time>2026-05-03T15:21:24Z</time></trkpt><trkpt lat="41.97901432416428" lon="12.840169642700475"><ele>254.0</ele><time>2026-05-03T15:21:25Z</time></trkpt><trkpt lat="41.97896794422019" lon="12.839943070610191"><ele>254.0</ele><time>2026-05-03T15:21:26Z</time></trkpt><trkpt lat="41.97896706971404" lon="12.839710434461239"><ele>254.0</ele><time>2026-05-03T15:21:27Z</time></trkpt><trkpt lat="41.978977356868036" lon="12.839487498858135"><ele>254.0</ele><time>2026-05-03T15:21:28Z</time></trkpt><trkpt lat="41.97901710340469" lon="12.83927319976384"><ele>254.0</ele><time>2026-05-03T15:21:29Z</time></trkpt><trkpt lat="41.97908647478028" lon="12.839061964454148"><ele>254.0</ele><time>2026-05-03T15:21:30Z</time></trkpt><trkpt lat="41.97919689165745" lon="12.838864020571524"><ele>254.0</ele><time>2026-05-03T15:21:31Z</time></trkpt><trkpt lat="41.97931425989704" lon="12.838657854401823"><ele>257.0</ele><time>2026-05-03T15:21:32Z</time></trkpt><trkpt lat="41.97941048337193" lon="12.838438381678932"><ele>260.0</ele><time>2026-05-03T15:21:33Z</time></trkpt><trkpt lat="41.97948402723691" lon="12.838219855814353"><ele>263.0</ele><time>2026-05-03T15:21:34Z</time></trkpt><trkpt lat="41.979518863626865" lon="12.83798007237451"><ele>263.0</ele><time>2026-05-03T15:21:35Z</time></trkpt><trkpt lat="41.97951378944014" lon="12.837725986810165"><ele>263.0</ele><time>2026-05-03T15:21:36Z</time></trkpt><trkpt lat="41.979475641232554" lon="12.83747659220758"><ele>263.0</ele><time>2026-05-03T15:21:37Z</time></trkpt><trkpt lat="41.97941342030062" lon="12.837226265384004"><ele>261.0</ele><time>2026-05-03T15:21:38Z</time></trkpt><trkpt lat="41.97934522400282" lon="12.837002088014886"><ele>259.0</ele><time>2026-05-03T15:21:39Z</time></trkpt><trkpt lat="41.97926513983517" lon="12.836787000901372"><ele>257.0</ele><time>2026-05-03T15:21:40Z</time></trkpt><trkpt lat="41.97915388308358" lon="12.836587806400678"><ele>256.6666666666667</ele><time>2026-05-03T15:21:41Z</time></trkpt><trkpt lat="41.97901108995805" lon="12.8364149855841"><ele>256.3333333333333</ele><time>2026-05-03T15:21:42Z</time></trkpt><trkpt lat="41.978851268817834" lon="12.836254146817378"><ele>256.0</ele><time>2026-05-03T15:21:43Z</time></trkpt><trkpt lat="41.978708513736855" lon="12.836112997173549"><ele>254.66666666666666</ele><time>2026-05-03T15:21:44Z</time></trkpt><trkpt lat="41.978575343808735" lon="12.835949892211044"><ele>253.33333333333331</ele><time>2026-05-03T15:21:45Z</time></trkpt><trkpt lat="41.978456351732625" lon="12.835742089393449"><ele>252.0</ele><time>2026-05-03T15:21:46Z</time></trkpt><trkpt lat="41.97834516946982" lon="12.835501269587171"><ele>252.0</ele><time>2026-05-03T15:21:46.999Z</time></trkpt><trkpt lat="41.978229930277145" lon="12.835250952853087"><ele>252.0</ele><time>2026-05-03T15:21:47.999Z</time></trkpt><trkpt lat="41.97810188345946" lon="12.835003143942567"><ele>252.0</ele><time>2026-05-03T15:21:48.999Z</time></trkpt><trkpt lat="41.97798474626134" lon="12.834744252877382"><ele>254.66666666666669</ele><time>2026-05-03T15:21:49.999Z</time></trkpt><trkpt lat="41.97786510113038" lon="12.834505282357425"><ele>257.33333333333337</ele><time>2026-05-03T15:21:50.999Z</time></trkpt><trkpt lat="41.977731722015214" lon="12.834280613053869"><ele>260.0</ele><time>2026-05-03T15:21:51.999Z</time></trkpt><trkpt lat="41.9775935811888" lon="12.834063459267554"><ele>259.0</ele><time>2026-05-03T15:21:52.999Z</time></trkpt><trkpt lat="41.977440995731214" lon="12.833869760607636"><ele>258.0</ele><time>2026-05-03T15:21:53.999Z</time></trkpt><trkpt lat="41.977257639502234" lon="12.833705011663863"><ele>257.0</ele><time>2026-05-03T15:21:54.999Z</time></trkpt><trkpt lat="41.97707110382277" lon="12.83355110325948"><ele>258.33333333333337</ele><time>2026-05-03T15:21:55.999Z</time></trkpt><trkpt lat="41.976868822417565" lon="12.833426414025244"><ele>259.6666666666667</ele><time>2026-05-03T15:21:56.999Z</time></trkpt><trkpt lat="41.97665949805713" lon="12.83332061644591"><ele>261.0</ele><time>2026-05-03T15:21:57.999Z</time></trkpt><trkpt lat="41.97643272371178" lon="12.833244976008707"><ele>261.0</ele><time>2026-05-03T15:21:58.999Z</time></trkpt><trkpt lat="41.976212179817594" lon="12.833159534256962"><ele>261.0</ele><time>2026-05-03T15:21:59.999Z</time></trkpt><trkpt lat="41.975992891171096" lon="12.8330658600511"><ele>259.0</ele><time>2026-05-03T15:22:00.999Z</time></trkpt><trkpt lat="41.97577536958994" lon="12.83296967225008"><ele>257.0</ele><time>2026-05-03T15:22:01.999Z</time></trkpt><trkpt lat="41.97555447728665" lon="12.832876249204123"><ele>257.0</ele><time>2026-05-03T15:22:02.999Z</time></trkpt><trkpt lat="41.97534422235727" lon="12.832779006972926"><ele>257.0</ele><time>2026-05-03T15:22:03.999Z</time></trkpt><trkpt lat="41.9751454438647" lon="12.83266623943692"><ele>257.0</ele><time>2026-05-03T15:22:04.999Z</time></trkpt><trkpt lat="41.97490678649309" lon="12.832583392499133"><ele>260.5</ele><time>2026-05-03T15:22:05.999Z</time></trkpt><trkpt lat="41.974656581184874" lon="12.832537029409835"><ele>264.0</ele><time>2026-05-03T15:22:06.999Z</time></trkpt><trkpt lat="41.97441058802907" lon="12.832483257536344"><ele>263.5</ele><time>2026-05-03T15:22:07.999Z</time></trkpt><trkpt lat="41.97415464099672" lon="12.832439797254475"><ele>263.0</ele><time>2026-05-03T15:22:08.999Z</time></trkpt><trkpt lat="41.973910729944556" lon="12.832393502044543"><ele>263.0</ele><time>2026-05-03T15:22:09.999Z</time></trkpt><trkpt lat="41.973669977179036" lon="12.832345701124249"><ele>263.0</ele><time>2026-05-03T15:22:10.999Z</time></trkpt><trkpt lat="41.973420762487926" lon="12.832296809749675"><ele>261.0</ele><time>2026-05-03T15:22:11.999Z</time></trkpt><trkpt lat="41.9731815608553" lon="12.832239142373146"><ele>259.0</ele><time>2026-05-03T15:22:12.999Z</time></trkpt><trkpt lat="41.972952826622915" lon="12.83218911036508"><ele>259.0</ele><time>2026-05-03T15:22:13.999Z</time></trkpt><trkpt lat="41.972728948996284" lon="12.83213823646873"><ele>259.0</ele><time>2026-05-03T15:22:14.999Z</time></trkpt><trkpt lat="41.97251152215788" lon="12.832078178094994"><ele>259.0</ele><time>2026-05-03T15:22:15.999Z</time></trkpt><trkpt lat="41.972297698334614" lon="12.832003430853513"><ele>258.0</ele><time>2026-05-03T15:22:16.999Z</time></trkpt><trkpt lat="41.972088812465415" lon="12.831908426945018"><ele>257.0</ele><time>2026-05-03T15:22:17.999Z</time></trkpt><trkpt lat="41.97189325066781" lon="12.831786035771895"><ele>256.0</ele><time>2026-05-03T15:22:18.999Z</time></trkpt><trkpt lat="41.971688174601184" lon="12.831646136541863"><ele>253.5</ele><time>2026-05-03T15:22:19.999Z</time></trkpt><trkpt lat="41.97149015753364" lon="12.831498728712132"><ele>251.0</ele><time>2026-05-03T15:22:20.999Z</time></trkpt><trkpt lat="41.97128533642566" lon="12.83132706689584"><ele>251.0</ele><time>2026-05-03T15:22:21.999Z</time></trkpt><trkpt lat="41.97107453369829" lon="12.831144413586648"><ele>251.0</ele><time>2026-05-03T15:22:22.999Z</time></trkpt><trkpt lat="41.97086451975048" lon="12.830953288262755"><ele>253.5</ele><time>2026-05-03T15:22:23.999Z</time></trkpt><trkpt lat="41.97064870345789" lon="12.83076189057112"><ele>256.0</ele><time>2026-05-03T15:22:24.999Z</time></trkpt><trkpt lat="41.9704330688606" lon="12.83057558677427"><ele>256.0</ele><time>2026-05-03T15:22:25.999Z</time></trkpt><trkpt lat="41.97022458254627" lon="12.830393118462318"><ele>256.0</ele><time>2026-05-03T15:22:26.999Z</time></trkpt><trkpt lat="41.970018604830116" lon="12.830211807664325"><ele>258.0</ele><time>2026-05-03T15:22:27.999Z</time></trkpt><trkpt lat="41.969823767626906" lon="12.830031598188691"><ele>260.0</ele><time>2026-05-03T15:22:28.999Z</time></trkpt><trkpt lat="41.96963986859686" lon="12.829847979657302"><ele>260.0</ele><time>2026-05-03T15:22:29.999Z</time></trkpt><trkpt lat="41.969467146912194" lon="12.82964754060682"><ele>260.0</ele><time>2026-05-03T15:22:30.999Z</time></trkpt><trkpt lat="41.969313512424044" lon="12.82943905549164"><ele>260.0</ele><time>2026-05-03T15:22:31.999Z</time></trkpt><trkpt lat="41.96917425757609" lon="12.829227627831077"><ele>261.0</ele><time>2026-05-03T15:22:32.999Z</time></trkpt><trkpt lat="41.969046359929386" lon="12.829014187317958"><ele>262.0</ele><time>2026-05-03T15:22:33.999Z</time></trkpt><trkpt lat="41.968923851418936" lon="12.828783775704956"><ele>263.0</ele><time>2026-05-03T15:22:34.999Z</time></trkpt><trkpt lat="41.96880689103272" lon="12.828523906784165"><ele>263.0</ele><time>2026-05-03T15:22:35.999Z</time></trkpt><trkpt lat="41.96869430482145" lon="12.82826368751337"><ele>263.0</ele><time>2026-05-03T15:22:36.999Z</time></trkpt><trkpt lat="41.96857418256286" lon="12.82801625044819"><ele>263.0</ele><time>2026-05-03T15:22:37.999Z</time></trkpt><trkpt lat="41.96846208910064" lon="12.827755135662905"><ele>262.0</ele><time>2026-05-03T15:22:38.999Z</time></trkpt><trkpt lat="41.968343660651044" lon="12.827493000358352"><ele>261.0</ele><time>2026-05-03T15:22:39.999Z</time></trkpt><trkpt lat="41.96821850960156" lon="12.827229656327285"><ele>261.0</ele><time>2026-05-03T15:22:40.999Z</time></trkpt><trkpt lat="41.96807631282216" lon="12.826974122190483"><ele>261.0</ele><time>2026-05-03T15:22:41.999Z</time></trkpt><trkpt lat="41.967932867118556" lon="12.8267276202789"><ele>262.0</ele><time>2026-05-03T15:22:42.999Z</time></trkpt><trkpt lat="41.96777886708491" lon="12.82649614638179"><ele>263.0</ele><time>2026-05-03T15:22:43.999Z</time></trkpt><trkpt lat="41.967606662006176" lon="12.826282415941082"><ele>261.0</ele><time>2026-05-03T15:22:44.999Z</time></trkpt><trkpt lat="41.96741864730456" lon="12.82608964536698"><ele>259.0</ele><time>2026-05-03T15:22:45.999Z</time></trkpt><trkpt lat="41.96721760058973" lon="12.825914356084956"><ele>259.0</ele><time>2026-05-03T15:22:46.999Z</time></trkpt><trkpt lat="41.967022057673084" lon="12.82574401577034"><ele>259.0</ele><time>2026-05-03T15:22:47.999Z</time></trkpt><trkpt lat="41.966807106184646" lon="12.825597580196503"><ele>257.5</ele><time>2026-05-03T15:22:48.999Z</time></trkpt><trkpt lat="41.96659586188523" lon="12.82546348857998"><ele>256.0</ele><time>2026-05-03T15:22:49.999Z</time></trkpt><trkpt lat="41.9663839719332" lon="12.82533939156616"><ele>256.0</ele><time>2026-05-03T15:22:50.998Z</time></trkpt><trkpt lat="41.96614476033315" lon="12.82522424121398"><ele>256.0</ele><time>2026-05-03T15:22:51.998Z</time></trkpt><trkpt lat="41.96590740067506" lon="12.825079196410323"><ele>256.5</ele><time>2026-05-03T15:22:52.998Z</time></trkpt><trkpt lat="41.96565953945331" lon="12.824942866986856"><ele>257.0</ele><time>2026-05-03T15:22:53.998Z</time></trkpt><trkpt lat="41.96541647022529" lon="12.824810717713056"><ele>257.0</ele><time>2026-05-03T15:22:54.998Z</time></trkpt><trkpt lat="41.965181610470665" lon="12.824677358832199"><ele>257.0</ele><time>2026-05-03T15:22:55.998Z</time></trkpt><trkpt lat="41.964953017243026" lon="12.824547767419054"><ele>257.5</ele><time>2026-05-03T15:22:56.998Z</time></trkpt><trkpt lat="41.96472057305513" lon="12.824406759638956"><ele>258.0</ele><time>2026-05-03T15:22:57.998Z</time></trkpt><trkpt lat="41.964487934056265" lon="12.824286120982084"><ele>258.0</ele><time>2026-05-03T15:22:58.998Z</time></trkpt><trkpt lat="41.96427470124825" lon="12.824155059307515"><ele>258.0</ele><time>2026-05-03T15:22:59.998Z</time></trkpt><trkpt lat="41.96406130003525" lon="12.824040640318541"><ele>258.3333333333333</ele><time>2026-05-03T15:23:00.998Z</time></trkpt><trkpt lat="41.963866786215036" lon="12.823917478788335"><ele>258.66666666666663</ele><time>2026-05-03T15:23:01.998Z</time></trkpt><trkpt lat="41.963695479792044" lon="12.823791865428593"><ele>259.0</ele><time>2026-05-03T15:23:02.998Z</time></trkpt><trkpt lat="41.96352757693758" lon="12.823662935108224"><ele>259.0</ele><time>2026-05-03T15:23:03.998Z</time></trkpt><trkpt lat="41.963369014470175" lon="12.823512139249893"><ele>259.0</ele><time>2026-05-03T15:23:05Z</time></trkpt><trkpt lat="41.96320393338812" lon="12.823373194123468"><ele>259.0</ele><time>2026-05-03T15:23:06Z</time></trkpt><trkpt lat="41.96304038876642" lon="12.823244696228423"><ele>259.0</ele><time>2026-05-03T15:23:07Z</time></trkpt><trkpt lat="41.9629001793623" lon="12.823130092719737"><ele>259.0</ele><time>2026-05-03T15:23:08Z</time></trkpt><trkpt lat="41.96276182853765" lon="12.82304874277026"><ele>259.0</ele><time>2026-05-03T15:23:09Z</time></trkpt><trkpt lat="41.96261665654426" lon="12.822953632650686"><ele>258.0</ele><time>2026-05-03T15:23:10Z</time></trkpt><trkpt lat="41.962473639417546" lon="12.822855276277828"><ele>257.0</ele><time>2026-05-03T15:23:11Z</time></trkpt><trkpt lat="41.96231585213764" lon="12.82277686503785"><ele>256.0</ele><time>2026-05-03T15:23:12Z</time></trkpt><trkpt lat="41.962174056071454" lon="12.822744373145108"><ele>256.0</ele><time>2026-05-03T15:23:13Z</time></trkpt><trkpt lat="41.96202698054508" lon="12.822693373150631"><ele>256.0</ele><time>2026-05-03T15:23:14Z</time></trkpt><trkpt lat="41.961881463358004" lon="12.822639568544611"><ele>256.0</ele><time>2026-05-03T15:23:15Z</time></trkpt><trkpt lat="41.961717743549315" lon="12.822575140721145"><ele>258.3333333333333</ele><time>2026-05-03T15:23:16Z</time></trkpt><trkpt lat="41.96154575578424" lon="12.822504309685383"><ele>260.6666666666667</ele><time>2026-05-03T15:23:17Z</time></trkpt><trkpt lat="41.96136915425219" lon="12.822441301496731"><ele>263.0</ele><time>2026-05-03T15:23:18Z</time></trkpt><trkpt lat="41.96118965604791" lon="12.822379359500637"><ele>263.0</ele><time>2026-05-03T15:23:19Z</time></trkpt><trkpt lat="41.96101653995507" lon="12.822323235474839"><ele>263.0</ele><time>2026-05-03T15:23:20Z</time></trkpt><trkpt lat="41.960848540480036" lon="12.822256994782597"><ele>263.0</ele><time>2026-05-03T15:23:21Z</time></trkpt><trkpt lat="41.96067541183059" lon="12.82219164975306"><ele>261.6666666666667</ele><time>2026-05-03T15:23:22Z</time></trkpt><trkpt lat="41.960490096728385" lon="12.822129780185374"><ele>260.3333333333333</ele><time>2026-05-03T15:23:23Z</time></trkpt><trkpt lat="41.96030318114095" lon="12.822058414611533"><ele>259.0</ele><time>2026-05-03T15:23:24Z</time></trkpt><trkpt lat="41.960130977801605" lon="12.821983624210617"><ele>258.3333333333333</ele><time>2026-05-03T15:23:25Z</time></trkpt><trkpt lat="41.95995932666693" lon="12.821903423582865"><ele>257.6666666666667</ele><time>2026-05-03T15:23:26Z</time></trkpt><trkpt lat="41.959792686648825" lon="12.821816436644786"><ele>257.0</ele><time>2026-05-03T15:23:27Z</time></trkpt><trkpt lat="41.95962648650676" lon="12.821736886885775"><ele>258.33333333333337</ele><time>2026-05-03T15:23:28Z</time></trkpt><trkpt lat="41.95947007694857" lon="12.821650105916131"><ele>259.6666666666667</ele><time>2026-05-03T15:23:29Z</time></trkpt><trkpt lat="41.95932223434654" lon="12.821555393532867"><ele>261.0</ele><time>2026-05-03T15:23:30Z</time></trkpt><trkpt lat="41.95917131692131" lon="12.821453523864726"><ele>261.0</ele><time>2026-05-03T15:23:31Z</time></trkpt><trkpt lat="41.95901715866614" lon="12.82135511865691"><ele>261.0</ele><time>2026-05-03T15:23:32Z</time></trkpt><trkpt lat="41.95886304029774" lon="12.821258277873381"><ele>261.0</ele><time>2026-05-03T15:23:33Z</time></trkpt><trkpt lat="41.9587216601362" lon="12.821159873010266"><ele>261.0</ele><time>2026-05-03T15:23:34Z</time></trkpt><trkpt lat="41.95858785857103" lon="12.82106588319972"><ele>261.0</ele><time>2026-05-03T15:23:35Z</time></trkpt><trkpt lat="41.95847317608268" lon="12.820974744564875"><ele>261.0</ele><time>2026-05-03T15:23:36Z</time></trkpt><trkpt lat="41.958360727894174" lon="12.820881158597912"><ele>261.0</ele><time>2026-05-03T15:23:37Z</time></trkpt><trkpt lat="41.95825385393773" lon="12.820753680941214"><ele>261.0</ele><time>2026-05-03T15:23:38Z</time></trkpt><trkpt lat="41.958147281621315" lon="12.820607153121408"><ele>261.0</ele><time>2026-05-03T15:23:39Z</time></trkpt><trkpt lat="41.95804043960106" lon="12.820468548928114"><ele>261.0</ele><time>2026-05-03T15:23:40Z</time></trkpt><trkpt lat="41.95794441878004" lon="12.820313988825687"><ele>261.0</ele><time>2026-05-03T15:23:41Z</time></trkpt><trkpt lat="41.95784929219932" lon="12.820164111748145"><ele>261.0</ele><time>2026-05-03T15:23:42Z</time></trkpt><trkpt lat="41.957746889466115" lon="12.820036349465028"><ele>261.0</ele><time>2026-05-03T15:23:43Z</time></trkpt><trkpt lat="41.95754145233591" lon="12.820064006336638"><ele>260.75</ele><time>2026-05-03T15:23:44Z</time></trkpt><trkpt lat="41.957448998577476" lon="12.819938346130526"><ele>260.5</ele><time>2026-05-03T15:23:45Z</time></trkpt><trkpt lat="41.95737103653844" lon="12.819820886105555"><ele>260.25</ele><time>2026-05-03T15:23:46Z</time></trkpt><trkpt lat="41.95726810076524" lon="12.819687286889835"><ele>260.0</ele><time>2026-05-03T15:23:47Z</time></trkpt><trkpt lat="41.957172948377256" lon="12.819543846778469"><ele>260.0</ele><time>2026-05-03T15:23:48Z</time></trkpt><trkpt lat="41.9570755543676" lon="12.819398029329003"><ele>260.0</ele><time>2026-05-03T15:23:49Z</time></trkpt><trkpt lat="41.9570005132627" lon="12.819215020122744"><ele>260.0</ele><time>2026-05-03T15:23:50Z</time></trkpt><trkpt lat="41.95690855928741" lon="12.819054958444518"><ele>260.5</ele><time>2026-05-03T15:23:51Z</time></trkpt><trkpt lat="41.95681562572184" lon="12.818906616708245"><ele>261.0</ele><time>2026-05-03T15:23:52Z</time></trkpt><trkpt lat="41.956716173133735" lon="12.818770134672127"><ele>261.5</ele><time>2026-05-03T15:23:53Z</time></trkpt><trkpt lat="41.956624638165" lon="12.81862662777014"><ele>262.0</ele><time>2026-05-03T15:23:53.999Z</time></trkpt><trkpt lat="41.95652791179231" lon="12.818467342734115"><ele>262.0</ele><time>2026-05-03T15:23:54.999Z</time></trkpt><trkpt lat="41.95642663320828" lon="12.818339616978268"><ele>262.0</ele><time>2026-05-03T15:23:55.999Z</time></trkpt><trkpt lat="41.95633385021432" lon="12.818221171114205"><ele>262.0</ele><time>2026-05-03T15:23:56.999Z</time></trkpt><trkpt lat="41.95624741888336" lon="12.8181093351029"><ele>262.0</ele><time>2026-05-03T15:23:57.999Z</time></trkpt><trkpt lat="41.956154269826904" lon="12.817988300168267"><ele>262.0</ele><time>2026-05-03T15:23:58.999Z</time></trkpt><trkpt lat="41.956079291516744" lon="12.817837242546531"><ele>262.0</ele><time>2026-05-03T15:23:59.999Z</time></trkpt><trkpt lat="41.95600625595778" lon="12.817692216256901"><ele>262.0</ele><time>2026-05-03T15:24:00.999Z</time></trkpt><trkpt lat="41.9559407169555" lon="12.817539170702213"><ele>262.0</ele><time>2026-05-03T15:24:01.999Z</time></trkpt><trkpt lat="41.95588070095141" lon="12.817381698208719"><ele>262.0</ele><time>2026-05-03T15:24:02.999Z</time></trkpt><trkpt lat="41.95583030687955" lon="12.817227223306052"><ele>262.0</ele><time>2026-05-03T15:24:03.999Z</time></trkpt><trkpt lat="41.95578127543788" lon="12.81706455696412"><ele>262.0</ele><time>2026-05-03T15:24:04.999Z</time></trkpt><trkpt lat="41.955729007025184" lon="12.816906722449415"><ele>262.0</ele><time>2026-05-03T15:24:05.999Z</time></trkpt><trkpt lat="41.95567862810562" lon="12.816754532941957"><ele>262.0</ele><time>2026-05-03T15:24:06.999Z</time></trkpt><trkpt lat="41.95563887546042" lon="12.816598506156462"><ele>262.0</ele><time>2026-05-03T15:24:07.999Z</time></trkpt><trkpt lat="41.955601840722586" lon="12.816437915207166"><ele>262.0</ele><time>2026-05-03T15:24:08.999Z</time></trkpt><trkpt lat="41.95556278486922" lon="12.81627811863694"><ele>262.0</ele><time>2026-05-03T15:24:09.999Z</time></trkpt><trkpt lat="41.955524601725024" lon="12.816112942303688"><ele>262.0</ele><time>2026-05-03T15:24:10.999Z</time></trkpt><trkpt lat="41.95550279402695" lon="12.815959475752067"><ele>262.0</ele><time>2026-05-03T15:24:11.999Z</time></trkpt><trkpt lat="41.95548009791184" lon="12.815800775342966"><ele>262.0</ele><time>2026-05-03T15:24:12.999Z</time></trkpt><trkpt lat="41.955458577405984" lon="12.815636644629295"><ele>262.0</ele><time>2026-05-03T15:24:13.999Z</time></trkpt><trkpt lat="41.95544558580343" lon="12.815468811451774"><ele>262.0</ele><time>2026-05-03T15:24:14.999Z</time></trkpt><trkpt lat="41.95542838422779" lon="12.815306097303333"><ele>262.0</ele><time>2026-05-03T15:24:15.999Z</time></trkpt><trkpt lat="41.95542936710715" lon="12.81515717142013"><ele>262.0</ele><time>2026-05-03T15:24:16.999Z</time></trkpt><trkpt lat="41.955449053716464" lon="12.814992351189952"><ele>262.0</ele><time>2026-05-03T15:24:17.999Z</time></trkpt><trkpt lat="41.95549562741697" lon="12.814807651795322"><ele>262.75</ele><time>2026-05-03T15:24:18.999Z</time></trkpt><trkpt lat="41.95554114308812" lon="12.814619122784228"><ele>263.5</ele><time>2026-05-03T15:24:19.999Z</time></trkpt><trkpt lat="41.955579579175016" lon="12.814442244780674"><ele>264.25</ele><time>2026-05-03T15:24:20.999Z</time></trkpt><trkpt lat="41.95562051269315" lon="12.81427299622549"><ele>265.0</ele><time>2026-05-03T15:24:21.999Z</time></trkpt><trkpt lat="41.955662131604946" lon="12.81409550223096"><ele>265.0</ele><time>2026-05-03T15:24:22.999Z</time></trkpt><trkpt lat="41.95569179386177" lon="12.813919708551545"><ele>265.0</ele><time>2026-05-03T15:24:23.999Z</time></trkpt><trkpt lat="41.95571447652185" lon="12.813759451065117"><ele>265.0</ele><time>2026-05-03T15:24:24.999Z</time></trkpt><trkpt lat="41.955725808977576" lon="12.813605101219885"><ele>265.0</ele><time>2026-05-03T15:24:25.999Z</time></trkpt><trkpt lat="41.95574027314678" lon="12.813451477624014"><ele>264.5</ele><time>2026-05-03T15:24:26.999Z</time></trkpt><trkpt lat="41.95576332200312" lon="12.813299947478173"><ele>264.0</ele><time>2026-05-03T15:24:27.999Z</time></trkpt><trkpt lat="41.95581029549322" lon="12.813166011824501"><ele>263.5</ele><time>2026-05-03T15:24:28.999Z</time></trkpt><trkpt lat="41.955868248516815" lon="12.813030191938847"><ele>263.0</ele><time>2026-05-03T15:24:29.999Z</time></trkpt><trkpt lat="41.955930198895416" lon="12.812880681425112"><ele>265.75</ele><time>2026-05-03T15:24:30.999Z</time></trkpt><trkpt lat="41.95600356003315" lon="12.8127322794534"><ele>268.5</ele><time>2026-05-03T15:24:31.999Z</time></trkpt><trkpt lat="41.95607891290762" lon="12.812579370851351"><ele>271.25</ele><time>2026-05-03T15:24:32.999Z</time></trkpt><trkpt lat="41.95615616780212" lon="12.812421891247142"><ele>274.0</ele><time>2026-05-03T15:24:33.999Z</time></trkpt><trkpt lat="41.956210731498565" lon="12.812233810237865"><ele>274.0</ele><time>2026-05-03T15:24:34.999Z</time></trkpt><trkpt lat="41.9562546200594" lon="12.812046727839881"><ele>274.0</ele><time>2026-05-03T15:24:35.999Z</time></trkpt><trkpt lat="41.95630077440665" lon="12.811860723838628"><ele>274.0</ele><time>2026-05-03T15:24:36.999Z</time></trkpt><trkpt lat="41.956343220013665" lon="12.81168907692563"><ele>274.0</ele><time>2026-05-03T15:24:37.999Z</time></trkpt><trkpt lat="41.95638408665" lon="12.81152349103322"><ele>272.0</ele><time>2026-05-03T15:24:38.999Z</time></trkpt><trkpt lat="41.956429057493985" lon="12.811345881115287"><ele>270.0</ele><time>2026-05-03T15:24:39.999Z</time></trkpt><trkpt lat="41.95646563654937" lon="12.811211650509541"><ele>268.0</ele><time>2026-05-03T15:24:40.999Z</time></trkpt><trkpt lat="41.956509957967874" lon="12.811067966433464"><ele>266.0</ele><time>2026-05-03T15:24:41.999Z</time></trkpt><trkpt lat="41.9565600994029" lon="12.81093404982679"><ele>265.33333333333337</ele><time>2026-05-03T15:24:42.999Z</time></trkpt><trkpt lat="41.95663828344222" lon="12.810796397843733"><ele>264.6666666666667</ele><time>2026-05-03T15:24:43.999Z</time></trkpt><trkpt lat="41.95675101638473" lon="12.810638869389383"><ele>264.0</ele><time>2026-05-03T15:24:44.999Z</time></trkpt><trkpt lat="41.95687333277265" lon="12.810454475454497"><ele>264.0</ele><time>2026-05-03T15:24:45.999Z</time></trkpt><trkpt lat="41.957017433257676" lon="12.810231939958548"><ele>264.0</ele><time>2026-05-03T15:24:46.999Z</time></trkpt><trkpt lat="41.95715662202844" lon="12.810014688957654"><ele>264.0</ele><time>2026-05-03T15:24:47.999Z</time></trkpt><trkpt lat="41.95729223371261" lon="12.80979684287278"><ele>263.3333333333333</ele><time>2026-05-03T15:24:48.999Z</time></trkpt><trkpt lat="41.957416824416015" lon="12.809583899356614"><ele>262.66666666666663</ele><time>2026-05-03T15:24:49.999Z</time></trkpt><trkpt lat="41.95753706986357" lon="12.809380055688608"><ele>262.0</ele><time>2026-05-03T15:24:50.999Z</time></trkpt><trkpt lat="41.95766327980477" lon="12.809166675759407"><ele>262.0</ele><time>2026-05-03T15:24:51.999Z</time></trkpt><trkpt lat="41.95777434545081" lon="12.808978899904405"><ele>262.0</ele><time>2026-05-03T15:24:52.999Z</time></trkpt><trkpt lat="41.957877093086886" lon="12.808805751053837"><ele>262.0</ele><time>2026-05-03T15:24:53.999Z</time></trkpt><trkpt lat="41.957982020773265" lon="12.808633856900014"><ele>258.5</ele><time>2026-05-03T15:24:54.999Z</time></trkpt><trkpt lat="41.958087944699" lon="12.808465692963923"><ele>255.0</ele><time>2026-05-03T15:24:55.998Z</time></trkpt><trkpt lat="41.95818127321687" lon="12.808318082763728"><ele>251.5</ele><time>2026-05-03T15:24:56.998Z</time></trkpt><trkpt lat="41.95826668015532" lon="12.80818300148304"><ele>248.0</ele><time>2026-05-03T15:24:57.998Z</time></trkpt><trkpt lat="41.95835711191267" lon="12.808040963085924"><ele>249.75</ele><time>2026-05-03T15:24:58.998Z</time></trkpt><trkpt lat="41.95843979949224" lon="12.807909782044376"><ele>251.5</ele><time>2026-05-03T15:24:59.998Z</time></trkpt><trkpt lat="41.95852108481938" lon="12.807790243225904"><ele>253.25</ele><time>2026-05-03T15:25:00.998Z</time></trkpt><trkpt lat="41.958623896749444" lon="12.807685605285432"><ele>255.0</ele><time>2026-05-03T15:25:01.998Z</time></trkpt><trkpt lat="41.958743006495624" lon="12.807559557214832"><ele>255.0</ele><time>2026-05-03T15:25:02.998Z</time></trkpt><trkpt lat="41.95887397688938" lon="12.807420397154665"><ele>255.0</ele><time>2026-05-03T15:25:03.998Z</time></trkpt><trkpt lat="41.958963489625695" lon="12.807253899200973"><ele>255.0</ele><time>2026-05-03T15:25:04.998Z</time></trkpt><trkpt lat="41.959075324400544" lon="12.807076508918755"><ele>255.0</ele><time>2026-05-03T15:25:05.998Z</time></trkpt><trkpt lat="41.95919395239889" lon="12.80690918050342"><ele>255.0</ele><time>2026-05-03T15:25:06.998Z</time></trkpt><trkpt lat="41.959263993234174" lon="12.806711652677997"><ele>255.0</ele><time>2026-05-03T15:25:07.998Z</time></trkpt><trkpt lat="41.95936058865699" lon="12.806552250747801"><ele>255.75</ele><time>2026-05-03T15:25:08.998Z</time></trkpt><trkpt lat="41.959478158989874" lon="12.806420967913391"><ele>256.5</ele><time>2026-05-03T15:25:09.998Z</time></trkpt><trkpt lat="41.95959209989004" lon="12.806294436127425"><ele>257.25</ele><time>2026-05-03T15:25:11Z</time></trkpt><trkpt lat="41.95970767503" lon="12.80618292497486"><ele>258.0</ele><time>2026-05-03T15:25:12Z</time></trkpt><trkpt lat="41.959831852127365" lon="12.806091708821056"><ele>258.0</ele><time>2026-05-03T15:25:13Z</time></trkpt><trkpt lat="41.95997019721472" lon="12.80601967706761"><ele>258.0</ele><time>2026-05-03T15:25:14Z</time></trkpt><trkpt lat="41.96010089334302" lon="12.805946880087728"><ele>258.0</ele><time>2026-05-03T15:25:15Z</time></trkpt><trkpt lat="41.96023448463416" lon="12.8059147748767"><ele>258.0</ele><time>2026-05-03T15:25:16Z</time></trkpt><trkpt lat="41.96037068390515" lon="12.805887874282247"><ele>253.5</ele><time>2026-05-03T15:25:17Z</time></trkpt><trkpt lat="41.960506477852064" lon="12.80587196747714"><ele>249.0</ele><time>2026-05-03T15:25:18Z</time></trkpt><trkpt lat="41.96065144170784" lon="12.805858628360145"><ele>244.5</ele><time>2026-05-03T15:25:19Z</time></trkpt><trkpt lat="41.960801068396535" lon="12.805853372503575"><ele>240.0</ele><time>2026-05-03T15:25:20Z</time></trkpt><trkpt lat="41.96094414075381" lon="12.805860580287952"><ele>240.0</ele><time>2026-05-03T15:25:21Z</time></trkpt><trkpt lat="41.961087813146754" lon="12.805873339365275"><ele>240.0</ele><time>2026-05-03T15:25:22Z</time></trkpt><trkpt lat="41.96124647276075" lon="12.805836904454678"><ele>240.0</ele><time>2026-05-03T15:25:23Z</time></trkpt><trkpt lat="41.96140354293684" lon="12.805805698111254"><ele>240.0</ele><time>2026-05-03T15:25:24Z</time></trkpt><trkpt lat="41.961557102167056" lon="12.80575469566463"><ele>240.0</ele><time>2026-05-03T15:25:25Z</time></trkpt><trkpt lat="41.96170243545106" lon="12.805686611530744"><ele>240.0</ele><time>2026-05-03T15:25:26Z</time></trkpt><trkpt lat="41.961836737046696" lon="12.805616352770407"><ele>242.8</ele><time>2026-05-03T15:25:27Z</time></trkpt><trkpt lat="41.96195989118767" lon="12.805561297904035"><ele>245.6</ele><time>2026-05-03T15:25:28Z</time></trkpt><trkpt lat="41.962064802322985" lon="12.805502600608811"><ele>248.39999999999998</ele><time>2026-05-03T15:25:29Z</time></trkpt><trkpt lat="41.96216048359522" lon="12.805458321815061"><ele>251.2</ele><time>2026-05-03T15:25:30Z</time></trkpt><trkpt lat="41.962250423624354" lon="12.805410494784898"><ele>254.0</ele><time>2026-05-03T15:25:31Z</time></trkpt><trkpt lat="41.962334318590585" lon="12.805369164977813"><ele>254.00000000000003</ele><time>2026-05-03T15:25:32Z</time></trkpt><trkpt lat="41.962416785012735" lon="12.805341196087996"><ele>254.0</ele><time>2026-05-03T15:25:33Z</time></trkpt><trkpt lat="41.96249285295738" lon="12.805316794197186"><ele>254.0</ele><time>2026-05-03T15:25:34Z</time></trkpt><trkpt lat="41.962568759398316" lon="12.805297968686327"><ele>254.0</ele><time>2026-05-03T15:25:35Z</time></trkpt><trkpt lat="41.96264652691954" lon="12.805271927154667"><ele>254.00000000000003</ele><time>2026-05-03T15:25:36Z</time></trkpt><trkpt lat="41.96273647172362" lon="12.8052395949872"><ele>254.0</ele><time>2026-05-03T15:25:37Z</time></trkpt><trkpt lat="41.96283008264646" lon="12.805172145811772"><ele>252.6</ele><time>2026-05-03T15:25:38Z</time></trkpt><trkpt lat="41.9629272666138" lon="12.805125396606387"><ele>251.2</ele><time>2026-05-03T15:25:39Z</time></trkpt><trkpt lat="41.962994236132786" lon="12.805027048263778"><ele>249.79999999999998</ele><time>2026-05-03T15:25:40Z</time></trkpt><trkpt lat="41.96307011595179" lon="12.804952311082948"><ele>248.39999999999998</ele><time>2026-05-03T15:25:41Z</time></trkpt><trkpt lat="41.96314065728377" lon="12.804872059163378"><ele>247.0</ele><time>2026-05-03T15:25:42Z</time></trkpt><trkpt lat="41.96321320715205" lon="12.804799098719911"><ele>247.0</ele><time>2026-05-03T15:25:43Z</time></trkpt><trkpt lat="41.963289171951686" lon="12.804711100704639"><ele>247.0</ele><time>2026-05-03T15:25:44Z</time></trkpt><trkpt lat="41.96336771193557" lon="12.804629746139977"><ele>247.0</ele><time>2026-05-03T15:25:45Z</time></trkpt><trkpt lat="41.96344831180758" lon="12.80454619006158"><ele>247.0</ele><time>2026-05-03T15:25:46Z</time></trkpt><trkpt lat="41.96352102604796" lon="12.804458328308469"><ele>247.0</ele><time>2026-05-03T15:25:47Z</time></trkpt><trkpt lat="41.963585606056256" lon="12.80437585762563"><ele>249.2</ele><time>2026-05-03T15:25:48Z</time></trkpt><trkpt lat="41.96365500415112" lon="12.804280177247353"><ele>251.39999999999998</ele><time>2026-05-03T15:25:49Z</time></trkpt><trkpt lat="41.963704249067725" lon="12.804170740323908"><ele>253.60000000000002</ele><time>2026-05-03T15:25:50Z</time></trkpt><trkpt lat="41.96377093007392" lon="12.804065353530216"><ele>255.8</ele><time>2026-05-03T15:25:51Z</time></trkpt><trkpt lat="41.963832659447725" lon="12.803962640610727"><ele>258.0</ele><time>2026-05-03T15:25:52Z</time></trkpt><trkpt lat="41.963892912169825" lon="12.803861481331348"><ele>258.0</ele><time>2026-05-03T15:25:53Z</time></trkpt><trkpt lat="41.96392444476121" lon="12.803722918316195"><ele>258.0</ele><time>2026-05-03T15:25:54Z</time></trkpt><trkpt lat="41.96395576942637" lon="12.803593689697072"><ele>258.0</ele><time>2026-05-03T15:25:55Z</time></trkpt><trkpt lat="41.964007457446804" lon="12.803484530533842"><ele>258.0</ele><time>2026-05-03T15:25:56Z</time></trkpt><trkpt lat="41.96403580420115" lon="12.803365637283477"><ele>258.0</ele><time>2026-05-03T15:25:56.999Z</time></trkpt><trkpt lat="41.96406280487899" lon="12.803255824178848"><ele>257.1666666666667</ele><time>2026-05-03T15:25:57.999Z</time></trkpt><trkpt lat="41.96410973327864" lon="12.803149557361559"><ele>256.3333333333333</ele><time>2026-05-03T15:25:58.999Z</time></trkpt><trkpt lat="41.96415513891371" lon="12.80305405439062"><ele>255.5</ele><time>2026-05-03T15:25:59.999Z</time></trkpt><trkpt lat="41.96420611935628" lon="12.802963248898031"><ele>254.66666666666666</ele><time>2026-05-03T15:26:00.999Z</time></trkpt><trkpt lat="41.96426630941908" lon="12.802901492625079"><ele>253.83333333333331</ele><time>2026-05-03T15:26:01.999Z</time></trkpt><trkpt lat="41.96430358098643" lon="12.802798744040999"><ele>253.0</ele><time>2026-05-03T15:26:02.999Z</time></trkpt><trkpt lat="41.964398527418936" lon="12.802805699590314"><ele>253.0</ele><time>2026-05-03T15:26:03.999Z</time></trkpt><trkpt lat="41.9644546776724" lon="12.80273725167837"><ele>253.0</ele><time>2026-05-03T15:26:04.999Z</time></trkpt><trkpt lat="41.96451514518002" lon="12.802663618479166"><ele>253.0</ele><time>2026-05-03T15:26:05.999Z</time></trkpt><trkpt lat="41.9645915712378" lon="12.802569226014741"><ele>253.0</ele><time>2026-05-03T15:26:06.999Z</time></trkpt><trkpt lat="41.96466139408639" lon="12.80248298905646"><ele>253.0</ele><time>2026-05-03T15:26:07.999Z</time></trkpt><trkpt lat="41.964734571551816" lon="12.802393115057486"><ele>249.49999999999997</ele><time>2026-05-03T15:26:08.999Z</time></trkpt><trkpt lat="41.9648030127541" lon="12.802310603815801"><ele>246.0</ele><time>2026-05-03T15:26:09.999Z</time></trkpt><trkpt lat="41.9648590956732" lon="12.802243691237846"><ele>242.5</ele><time>2026-05-03T15:26:10.999Z</time></trkpt><trkpt lat="41.96491405601224" lon="12.802178286994712"><ele>239.0</ele><time>2026-05-03T15:26:11.999Z</time></trkpt><trkpt lat="41.96497149861389" lon="12.802119885449653"><ele>235.49999999999997</ele><time>2026-05-03T15:26:12.999Z</time></trkpt><trkpt lat="41.965040853066256" lon="12.802083261020531"><ele>232.0</ele><time>2026-05-03T15:26:13.999Z</time></trkpt><trkpt lat="41.96512050208096" lon="12.802069552183271"><ele>230.8</ele><time>2026-05-03T15:26:14.999Z</time></trkpt><trkpt lat="41.96521386158576" lon="12.801974303856653"><ele>229.6</ele><time>2026-05-03T15:26:15.999Z</time></trkpt><trkpt lat="41.965270165034525" lon="12.802051067445339"><ele>228.40000000000003</ele><time>2026-05-03T15:26:17.999Z</time></trkpt><trkpt lat="41.9653541660359" lon="12.802094845653183"><ele>227.20000000000002</ele><time>2026-05-03T15:26:50.999Z</time></trkpt><trkpt lat="41.965440385306856" lon="12.80212738147637"><ele>226.0</ele><time>2026-05-03T15:26:53.999Z</time></trkpt><trkpt lat="41.965473396909836" lon="12.802266631843462"><ele>226.0</ele><time>2026-05-03T15:26:55.999Z</time></trkpt><trkpt lat="41.96553780576386" lon="12.802368054537622"><ele>226.00000000000003</ele><time>2026-05-03T15:26:57.999Z</time></trkpt><trkpt lat="41.965619043103466" lon="12.802509414057457"><ele>226.00000000000003</ele><time>2026-05-03T15:26:59.998Z</time></trkpt><trkpt lat="41.96564829454634" lon="12.802601506427756"><ele>226.0</ele><time>2026-05-03T15:27:00.998Z</time></trkpt><trkpt lat="41.965719096136006" lon="12.802718271610876"><ele>226.0</ele><time>2026-05-03T15:27:02.998Z</time></trkpt><trkpt lat="41.96577056162345" lon="12.802832069921841"><ele>223.4</ele><time>2026-05-03T15:27:04.998Z</time></trkpt><trkpt lat="41.96581717303059" lon="12.802917021341688"><ele>220.8</ele><time>2026-05-03T15:27:05.998Z</time></trkpt><trkpt lat="41.96591266710715" lon="12.803054802904386"><ele>218.20000000000002</ele><time>2026-05-03T15:27:06.998Z</time></trkpt><trkpt lat="41.965996482431784" lon="12.803167013646087"><ele>215.60000000000002</ele><time>2026-05-03T15:27:07.998Z</time></trkpt><trkpt lat="41.96607781576016" lon="12.803257548600818"><ele>213.0</ele><time>2026-05-03T15:27:08.998Z</time></trkpt><trkpt lat="41.96615839253127" lon="12.80334355555905"><ele>213.0</ele><time>2026-05-03T15:27:09.998Z</time></trkpt><trkpt lat="41.96622801243951" lon="12.803407677746375"><ele>213.0</ele><time>2026-05-03T15:27:10.998Z</time></trkpt><trkpt lat="41.9662803669923" lon="12.803463382678908"><ele>213.0</ele><time>2026-05-03T15:27:11.998Z</time></trkpt><trkpt lat="41.966331183998136" lon="12.803539679081988"><ele>213.0</ele><time>2026-05-03T15:27:12.998Z</time></trkpt><trkpt lat="41.96639287114226" lon="12.803642958588178"><ele>213.0</ele><time>2026-05-03T15:27:13.998Z</time></trkpt><trkpt lat="41.96647111966221" lon="12.803792751174457"><ele>210.25</ele><time>2026-05-03T15:27:14.998Z</time></trkpt><trkpt lat="41.966544805798556" lon="12.803962848167892"><ele>207.5</ele><time>2026-05-03T15:27:15.998Z</time></trkpt><trkpt lat="41.966624243316154" lon="12.804124629529419"><ele>204.75</ele><time>2026-05-03T15:27:17Z</time></trkpt><trkpt lat="41.96671066602173" lon="12.804273862329893"><ele>202.0</ele><time>2026-05-03T15:27:18Z</time></trkpt><trkpt lat="41.96679927890213" lon="12.804415333455308"><ele>202.0</ele><time>2026-05-03T15:27:19Z</time></trkpt><trkpt lat="41.966890553507376" lon="12.804553133870645"><ele>202.0</ele><time>2026-05-03T15:27:20Z</time></trkpt><trkpt lat="41.96698019409166" lon="12.804694548145017"><ele>202.0</ele><time>2026-05-03T15:27:21Z</time></trkpt><trkpt lat="41.96706550695841" lon="12.804842940501429"><ele>202.0</ele><time>2026-05-03T15:27:22Z</time></trkpt><trkpt lat="41.96712945124797" lon="12.805012517958355"><ele>205.75</ele><time>2026-05-03T15:27:23Z</time></trkpt><trkpt lat="41.96716686770554" lon="12.805176474765235"><ele>209.5</ele><time>2026-05-03T15:27:24Z</time></trkpt><trkpt lat="41.967196019339234" lon="12.805322776247671"><ele>213.25</ele><time>2026-05-03T15:27:25Z</time></trkpt><trkpt lat="41.96722366604892" lon="12.80547561646138"><ele>217.0</ele><time>2026-05-03T15:27:26Z</time></trkpt><trkpt lat="41.96725363858268" lon="12.80564223368302"><ele>217.0</ele><time>2026-05-03T15:27:27Z</time></trkpt><trkpt lat="41.9672878299644" lon="12.805819664804444"><ele>217.0</ele><time>2026-05-03T15:27:28Z</time></trkpt><trkpt lat="41.967315935895506" lon="12.805997623383972"><ele>217.0</ele><time>2026-05-03T15:27:29Z</time></trkpt><trkpt lat="41.96735760861724" lon="12.806172625298254"><ele>217.0</ele><time>2026-05-03T15:27:30Z</time></trkpt><trkpt lat="41.96738752465566" lon="12.806345619810257"><ele>218.0</ele><time>2026-05-03T15:27:31Z</time></trkpt><trkpt lat="41.96740411044915" lon="12.806510442308236"><ele>219.0</ele><time>2026-05-03T15:27:32Z</time></trkpt><trkpt lat="41.96743238014437" lon="12.806678879777238"><ele>220.0</ele><time>2026-05-03T15:27:33Z</time></trkpt><trkpt lat="41.96743434417439" lon="12.806846927600487"><ele>221.0</ele><time>2026-05-03T15:27:34Z</time></trkpt><trkpt lat="41.96742749383625" lon="12.807011635684571"><ele>222.20000000000002</ele><time>2026-05-03T15:27:35Z</time></trkpt><trkpt lat="41.967417015160095" lon="12.807165620875118"><ele>223.40000000000003</ele><time>2026-05-03T15:27:36Z</time></trkpt><trkpt lat="41.967398856686614" lon="12.807283390149362"><ele>224.6</ele><time>2026-05-03T15:27:37Z</time></trkpt><trkpt lat="41.96742354596382" lon="12.807411285737533"><ele>225.8</ele><time>2026-05-03T15:27:38Z</time></trkpt><trkpt lat="41.96746003525532" lon="12.807563675396956"><ele>227.0</ele><time>2026-05-03T15:27:39Z</time></trkpt><trkpt lat="41.96758670806189" lon="12.807625679975011"><ele>227.0</ele><time>2026-05-03T15:27:41Z</time></trkpt><trkpt lat="41.96769476497937" lon="12.807648398320405"><ele>227.0</ele><time>2026-05-03T15:27:43Z</time></trkpt><trkpt lat="41.96778913270676" lon="12.807638418079575"><ele>227.0</ele><time>2026-05-03T15:27:46Z</time></trkpt><trkpt lat="41.9678774672957" lon="12.807554753679046"><ele>227.0</ele><time>2026-05-03T15:27:48Z</time></trkpt><trkpt lat="41.967932027026386" lon="12.807490198873056"><ele>227.0</ele><time>2026-05-03T15:27:49Z</time></trkpt><trkpt lat="41.96799029626355" lon="12.807451925589659"><ele>227.00000000000003</ele><time>2026-05-03T15:27:50Z</time></trkpt><trkpt lat="41.96805932611162" lon="12.807373762378427"><ele>227.0</ele><time>2026-05-03T15:27:51Z</time></trkpt><trkpt lat="41.968130285768886" lon="12.807333256982396"><ele>227.0</ele><time>2026-05-03T15:27:52Z</time></trkpt><trkpt lat="41.96820686915256" lon="12.807268563559035"><ele>227.0</ele><time>2026-05-03T15:27:53Z</time></trkpt><trkpt lat="41.96827089421468" lon="12.807199310055582"><ele>227.00000000000003</ele><time>2026-05-03T15:27:54Z</time></trkpt><trkpt lat="41.96836222389423" lon="12.80717288773335"><ele>227.0</ele><time>2026-05-03T15:27:55Z</time></trkpt><trkpt lat="41.96846766432335" lon="12.807165703621259"><ele>226.5</ele><time>2026-05-03T15:27:56Z</time></trkpt><trkpt lat="41.9685824324832" lon="12.807188623595806"><ele>226.0</ele><time>2026-05-03T15:27:57Z</time></trkpt><trkpt lat="41.96869305570261" lon="12.807240473782104"><ele>225.5</ele><time>2026-05-03T15:27:58Z</time></trkpt><trkpt lat="41.968804972150075" lon="12.807284649923497"><ele>225.0</ele><time>2026-05-03T15:27:59Z</time></trkpt><trkpt lat="41.96891395216074" lon="12.807351038221412"><ele>225.0</ele><time>2026-05-03T15:27:59.999Z</time></trkpt><trkpt lat="41.969016703620134" lon="12.807393003165787"><ele>225.0</ele><time>2026-05-03T15:28:00.999Z</time></trkpt><trkpt lat="41.96912100246029" lon="12.807420628684884"><ele>225.0</ele><time>2026-05-03T15:28:01.999Z</time></trkpt><trkpt lat="41.969222316058776" lon="12.80738692982803"><ele>225.0</ele><time>2026-05-03T15:28:02.999Z</time></trkpt><trkpt lat="41.9692982589554" lon="12.80728570454242"><ele>225.0</ele><time>2026-05-03T15:28:03.999Z</time></trkpt><trkpt lat="41.96935846360582" lon="12.807166230827955"><ele>226.6</ele><time>2026-05-03T15:28:04.999Z</time></trkpt><trkpt lat="41.96938344932722" lon="12.807020244338688"><ele>228.2</ele><time>2026-05-03T15:28:05.999Z</time></trkpt><trkpt lat="41.9694042299152" lon="12.806875083103385"><ele>229.8</ele><time>2026-05-03T15:28:06.999Z</time></trkpt><trkpt lat="41.96941139797128" lon="12.80673796244246"><ele>231.4</ele><time>2026-05-03T15:28:07.999Z</time></trkpt><trkpt lat="41.96939932687596" lon="12.806592677233576"><ele>233.0</ele><time>2026-05-03T15:28:08.999Z</time></trkpt><trkpt lat="41.9694030300866" lon="12.80646223967117"><ele>233.0</ele><time>2026-05-03T15:28:09.999Z</time></trkpt><trkpt lat="41.96940774024" lon="12.80633508274109"><ele>233.0</ele><time>2026-05-03T15:28:10.999Z</time></trkpt><trkpt lat="41.969429068761514" lon="12.806202853294305"><ele>233.0</ele><time>2026-05-03T15:28:11.999Z</time></trkpt><trkpt lat="41.969465701856045" lon="12.80607384567557"><ele>233.0</ele><time>2026-05-03T15:28:12.999Z</time></trkpt><trkpt lat="41.969506006443396" lon="12.805943123613584"><ele>233.0</ele><time>2026-05-03T15:28:13.999Z</time></trkpt><trkpt lat="41.9695619293687" lon="12.805815417532399"><ele>230.8</ele><time>2026-05-03T15:28:14.999Z</time></trkpt><trkpt lat="41.96962257412983" lon="12.805689837092958"><ele>228.60000000000002</ele><time>2026-05-03T15:28:15.999Z</time></trkpt><trkpt lat="41.96968207104664" lon="12.805572591025676"><ele>226.39999999999998</ele><time>2026-05-03T15:28:16.999Z</time></trkpt><trkpt lat="41.96974333333919" lon="12.805456904153125"><ele>224.2</ele><time>2026-05-03T15:28:17.999Z</time></trkpt><trkpt lat="41.969805033260556" lon="12.805355484875161"><ele>222.0</ele><time>2026-05-03T15:28:18.999Z</time></trkpt><trkpt lat="41.969888286755186" lon="12.80529186379047"><ele>222.0</ele><time>2026-05-03T15:28:19.999Z</time></trkpt><trkpt lat="41.96996443987693" lon="12.805264663523456"><ele>222.0</ele><time>2026-05-03T15:28:20.999Z</time></trkpt><trkpt lat="41.9700493438866" lon="12.805267368721521"><ele>222.0</ele><time>2026-05-03T15:28:21.999Z</time></trkpt><trkpt lat="41.97013134010068" lon="12.805307603948926"><ele>222.0</ele><time>2026-05-03T15:28:22.999Z</time></trkpt><trkpt lat="41.97019560128692" lon="12.805394794003593"><ele>222.0</ele><time>2026-05-03T15:28:23.999Z</time></trkpt><trkpt lat="41.970247564149446" lon="12.805462570166483"><ele>222.0</ele><time>2026-05-03T15:28:24.999Z</time></trkpt><trkpt lat="41.97030423294095" lon="12.80553039038528"><ele>222.8</ele><time>2026-05-03T15:28:25.999Z</time></trkpt><trkpt lat="41.970381135864436" lon="12.805597714935594"><ele>223.6</ele><time>2026-05-03T15:28:26.999Z</time></trkpt><trkpt lat="41.97046541260774" lon="12.805650249687314"><ele>224.40000000000003</ele><time>2026-05-03T15:28:27.999Z</time></trkpt><trkpt lat="41.970570792472216" lon="12.805680790119514"><ele>225.20000000000002</ele><time>2026-05-03T15:28:28.999Z</time></trkpt><trkpt lat="41.97068554559378" lon="12.805657301719922"><ele>226.0</ele><time>2026-05-03T15:28:29.999Z</time></trkpt><trkpt lat="41.9707967897185" lon="12.805591358314134"><ele>227.5</ele><time>2026-05-03T15:28:30.999Z</time></trkpt><trkpt lat="41.970894361464225" lon="12.805489515014562"><ele>229.0</ele><time>2026-05-03T15:28:31.999Z</time></trkpt><trkpt lat="41.97098766813188" lon="12.805372039868002"><ele>230.5</ele><time>2026-05-03T15:28:32.999Z</time></trkpt><trkpt lat="41.971044736040945" lon="12.805281484885576"><ele>232.0</ele><time>2026-05-03T15:28:33.999Z</time></trkpt><trkpt lat="41.971112377574435" lon="12.805136503961842"><ele>232.0</ele><time>2026-05-03T15:28:34.999Z</time></trkpt><trkpt lat="41.97113542383324" lon="12.805023344635114"><ele>232.0</ele><time>2026-05-03T15:28:35.999Z</time></trkpt><trkpt lat="41.971170534814085" lon="12.80490963000368"><ele>232.0</ele><time>2026-05-03T15:28:36.999Z</time></trkpt><trkpt lat="41.97117608552825" lon="12.804791153591063"><ele>232.0</ele><time>2026-05-03T15:28:37.999Z</time></trkpt><trkpt lat="41.971134895995355" lon="12.804682092250832"><ele>232.0</ele><time>2026-05-03T15:28:38.999Z</time></trkpt><trkpt lat="41.97106012788971" lon="12.804553334380484"><ele>232.0</ele><time>2026-05-03T15:28:39.999Z</time></trkpt><trkpt lat="41.971003544855705" lon="12.804453195726074"><ele>232.0</ele><time>2026-05-03T15:28:40.999Z</time></trkpt><trkpt lat="41.97094934464402" lon="12.804344614650441"><ele>232.0</ele><time>2026-05-03T15:28:41.999Z</time></trkpt><trkpt lat="41.97088968921044" lon="12.804229138090014"><ele>232.0</ele><time>2026-05-03T15:28:42.999Z</time></trkpt><trkpt lat="41.97082607982092" lon="12.804104389487781"><ele>232.0</ele><time>2026-05-03T15:28:43.999Z</time></trkpt><trkpt lat="41.970770582042995" lon="12.803960048077702"><ele>231.5</ele><time>2026-05-03T15:28:44.999Z</time></trkpt><trkpt lat="41.97071353496059" lon="12.803804204328934"><ele>231.0</ele><time>2026-05-03T15:28:45.999Z</time></trkpt><trkpt lat="41.97066173476632" lon="12.803658135568972"><ele>230.5</ele><time>2026-05-03T15:28:46.999Z</time></trkpt><trkpt lat="41.97060711645234" lon="12.803514866197947"><ele>230.0</ele><time>2026-05-03T15:28:47.999Z</time></trkpt><trkpt lat="41.97054436832082" lon="12.803375915746983"><ele>230.0</ele><time>2026-05-03T15:28:48.999Z</time></trkpt><trkpt lat="41.970509819544894" lon="12.803237691342526"><ele>230.0</ele><time>2026-05-03T15:28:49.999Z</time></trkpt><trkpt lat="41.97046132442578" lon="12.80310330869797"><ele>230.0</ele><time>2026-05-03T15:28:50.999Z</time></trkpt><trkpt lat="41.97040921831405" lon="12.802970522233032"><ele>230.0</ele><time>2026-05-03T15:28:51.999Z</time></trkpt><trkpt lat="41.97037405535452" lon="12.802841082972497"><ele>230.0</ele><time>2026-05-03T15:28:52.999Z</time></trkpt><trkpt lat="41.970335886041795" lon="12.80271321607192"><ele>231.8</ele><time>2026-05-03T15:28:53.999Z</time></trkpt><trkpt lat="41.97035143764061" lon="12.802597947180864"><ele>233.6</ele><time>2026-05-03T15:28:54.999Z</time></trkpt><trkpt lat="41.970345725214116" lon="12.802464674635614"><ele>235.39999999999998</ele><time>2026-05-03T15:28:55.999Z</time></trkpt><trkpt lat="41.97035308574649" lon="12.802346509144714"><ele>237.2</ele><time>2026-05-03T15:28:56.999Z</time></trkpt><trkpt lat="41.97036776172222" lon="12.80221081551545"><ele>239.0</ele><time>2026-05-03T15:28:57.999Z</time></trkpt><trkpt lat="41.97042845405407" lon="12.802099023219613"><ele>239.0</ele><time>2026-05-03T15:28:58.999Z</time></trkpt><trkpt lat="41.97043482213908" lon="12.801929436418755"><ele>239.0</ele><time>2026-05-03T15:29:00.999Z</time></trkpt><trkpt lat="41.970411470612525" lon="12.801774269205794"><ele>239.0</ele><time>2026-05-03T15:29:02.999Z</time></trkpt><trkpt lat="41.97036974806682" lon="12.801637987245105"><ele>239.0</ele><time>2026-05-03T15:29:04.998Z</time></trkpt><trkpt lat="41.97028488673563" lon="12.801528205247914"><ele>239.42857142857144</ele><time>2026-05-03T15:29:06.998Z</time></trkpt><trkpt lat="41.97023717539812" lon="12.801463294985137"><ele>239.85714285714286</ele><time>2026-05-03T15:29:07.998Z</time></trkpt><trkpt lat="41.97018395415782" lon="12.80139485216818"><ele>240.28571428571428</ele><time>2026-05-03T15:29:08.998Z</time></trkpt><trkpt lat="41.9701454023456" lon="12.801317997080066"><ele>240.71428571428572</ele><time>2026-05-03T15:29:09.998Z</time></trkpt><trkpt lat="41.97009893231219" lon="12.801237730253456"><ele>241.1428571428571</ele><time>2026-05-03T15:29:10.998Z</time></trkpt><trkpt lat="41.970074819129046" lon="12.801151829024882"><ele>241.57142857142856</ele><time>2026-05-03T15:29:11.998Z</time></trkpt><trkpt lat="41.97005819531797" lon="12.801061454722518"><ele>242.0</ele><time>2026-05-03T15:29:12.998Z</time></trkpt><trkpt lat="41.97006594110651" lon="12.80095676091995"><ele>242.50000000000003</ele><time>2026-05-03T15:29:13.998Z</time></trkpt><trkpt lat="41.97008160950616" lon="12.80084836763335"><ele>243.0</ele><time>2026-05-03T15:29:14.998Z</time></trkpt><trkpt lat="41.97010251165161" lon="12.800743924912652"><ele>243.5</ele><time>2026-05-03T15:29:15.998Z</time></trkpt><trkpt lat="41.97012422230328" lon="12.800656826717585"><ele>244.0</ele><time>2026-05-03T15:29:16.998Z</time></trkpt><trkpt lat="41.97015514120831" lon="12.800556545494345"><ele>244.50000000000003</ele><time>2026-05-03T15:29:17.998Z</time></trkpt><trkpt lat="41.97019879572744" lon="12.800464142476738"><ele>245.0</ele><time>2026-05-03T15:29:18.998Z</time></trkpt><trkpt lat="41.97026322469512" lon="12.800389899744307"><ele>245.0</ele><time>2026-05-03T15:29:19.998Z</time></trkpt><trkpt lat="41.970333814116685" lon="12.80032100066228"><ele>245.0</ele><time>2026-05-03T15:29:20.998Z</time></trkpt><trkpt lat="41.97041437319778" lon="12.800256649439243"><ele>245.0</ele><time>2026-05-03T15:29:21.998Z</time></trkpt><trkpt lat="41.97050401436035" lon="12.800206515423243"><ele>245.0</ele><time>2026-05-03T15:29:23Z</time></trkpt><trkpt lat="41.97059534812738" lon="12.800155771923668"><ele>245.0</ele><time>2026-05-03T15:29:24Z</time></trkpt><trkpt lat="41.97068420088719" lon="12.800106792413846"><ele>241.2</ele><time>2026-05-03T15:29:25Z</time></trkpt><trkpt lat="41.97077071021887" lon="12.80003119813748"><ele>237.4</ele><time>2026-05-03T15:29:26Z</time></trkpt><trkpt lat="41.97085114969266" lon="12.799943297803564"><ele>233.60000000000002</ele><time>2026-05-03T15:29:27Z</time></trkpt><trkpt lat="41.97091995565092" lon="12.799833617611345"><ele>229.8</ele><time>2026-05-03T15:29:28Z</time></trkpt><trkpt lat="41.97098226364896" lon="12.799720669278342"><ele>226.0</ele><time>2026-05-03T15:29:29Z</time></trkpt><trkpt lat="41.971004802209364" lon="12.799583405973966"><ele>233.4</ele><time>2026-05-03T15:29:30Z</time></trkpt><trkpt lat="41.97104292998229" lon="12.799448755912834"><ele>240.8</ele><time>2026-05-03T15:29:31Z</time></trkpt><trkpt lat="41.971095593737886" lon="12.799326353289143"><ele>248.20000000000002</ele><time>2026-05-03T15:29:32Z</time></trkpt><trkpt lat="41.97117370839105" lon="12.799224497486774"><ele>255.60000000000002</ele><time>2026-05-03T15:29:33Z</time></trkpt><trkpt lat="41.97120857650609" lon="12.799128105951711"><ele>263.0</ele><time>2026-05-03T15:29:34Z</time></trkpt><trkpt lat="41.97122255885441" lon="12.798994635719215"><ele>263.0</ele><time>2026-05-03T15:29:35Z</time></trkpt><trkpt lat="41.97120255956146" lon="12.798852443710661"><ele>263.0</ele><time>2026-05-03T15:29:36Z</time></trkpt><trkpt lat="41.971183159855094" lon="12.798708096551424"><ele>263.0</ele><time>2026-05-03T15:29:37Z</time></trkpt><trkpt lat="41.97116785769058" lon="12.798567511233335"><ele>263.0</ele><time>2026-05-03T15:29:38Z</time></trkpt><trkpt lat="41.971155552056686" lon="12.79842030231719"><ele>263.0</ele><time>2026-05-03T15:29:39Z</time></trkpt><trkpt lat="41.97114710312579" lon="12.798266160325243"><ele>260.6</ele><time>2026-05-03T15:29:40Z</time></trkpt><trkpt lat="41.97114254978378" lon="12.79811465528058"><ele>258.20000000000005</ele><time>2026-05-03T15:29:41Z</time></trkpt><trkpt lat="41.971155965664465" lon="12.797961946929224"><ele>255.8</ele><time>2026-05-03T15:29:42Z</time></trkpt><trkpt lat="41.97118641041566" lon="12.797822226182621"><ele>253.4</ele><time>2026-05-03T15:29:43Z</time></trkpt><trkpt lat="41.97120935237336" lon="12.79772910975835"><ele>251.0</ele><time>2026-05-03T15:29:44Z</time></trkpt><trkpt lat="41.97123651306248" lon="12.797612775358184"><ele>249.00000000000003</ele><time>2026-05-03T15:29:45Z</time></trkpt><trkpt lat="41.97126159594998" lon="12.797525832841336"><ele>247.0</ele><time>2026-05-03T15:29:46Z</time></trkpt><trkpt lat="41.971276137906145" lon="12.797436854882914"><ele>245.0</ele><time>2026-05-03T15:29:47Z</time></trkpt><trkpt lat="41.9713192535857" lon="12.797344147107667"><ele>243.0</ele><time>2026-05-03T15:29:48Z</time></trkpt><trkpt lat="41.97132045318508" lon="12.7972586687345"><ele>241.00000000000003</ele><time>2026-05-03T15:29:49Z</time></trkpt><trkpt lat="41.971324361774776" lon="12.797141722310112"><ele>239.0</ele><time>2026-05-03T15:29:51Z</time></trkpt><trkpt lat="41.97134622170477" lon="12.79701001644167"><ele>239.0</ele><time>2026-05-03T15:29:53Z</time></trkpt><trkpt lat="41.97128592459976" lon="12.796892913084665"><ele>238.99999999999997</ele><time>2026-05-03T15:29:54Z</time></trkpt><trkpt lat="41.97127445730057" lon="12.796742489682622"><ele>238.99999999999997</ele><time>2026-05-03T15:29:56Z</time></trkpt><trkpt lat="41.97127897669705" lon="12.796557938314256"><ele>239.0</ele><time>2026-05-03T15:29:58Z</time></trkpt><trkpt lat="41.97130317561655" lon="12.796445865726133"><ele>239.0</ele><time>2026-05-03T15:29:59Z</time></trkpt><trkpt lat="41.971308306142646" lon="12.796355457387113"><ele>237.16666666666669</ele><time>2026-05-03T15:30:00Z</time></trkpt><trkpt lat="41.97132723934696" lon="12.796267998156148"><ele>235.33333333333334</ele><time>2026-05-03T15:30:01Z</time></trkpt><trkpt lat="41.971355470017585" lon="12.796186226207084"><ele>233.5</ele><time>2026-05-03T15:30:02Z</time></trkpt><trkpt lat="41.97138669209602" lon="12.796112385877837"><ele>231.66666666666669</ele><time>2026-05-03T15:30:02.999Z</time></trkpt><trkpt lat="41.97137266480668" lon="12.795979751947183"><ele>229.83333333333334</ele><time>2026-05-03T15:30:04.999Z</time></trkpt><trkpt lat="41.971403063307584" lon="12.7958246408024"><ele>228.0</ele><time>2026-05-03T15:30:06.999Z</time></trkpt><trkpt lat="41.97141022852278" lon="12.795716868478918"><ele>224.75</ele><time>2026-05-03T15:30:08.999Z</time></trkpt><trkpt lat="41.97142472063564" lon="12.795569706066857"><ele>221.5</ele><time>2026-05-03T15:30:10.999Z</time></trkpt><trkpt lat="41.97142452205032" lon="12.795380366187388"><ele>218.25</ele><time>2026-05-03T15:30:12.999Z</time></trkpt><trkpt lat="41.971401169602586" lon="12.79523881749059"><ele>215.0</ele><time>2026-05-03T15:30:13.999Z</time></trkpt><trkpt lat="41.97141370504755" lon="12.795084169519372"><ele>212.25</ele><time>2026-05-03T15:30:14.999Z</time></trkpt><trkpt lat="41.971442541204574" lon="12.79488512460978"><ele>209.5</ele><time>2026-05-03T15:30:15.999Z</time></trkpt><trkpt lat="41.97147717314469" lon="12.794698866678791"><ele>206.75</ele><time>2026-05-03T15:30:16.999Z</time></trkpt><trkpt lat="41.97151682151274" lon="12.794505917813188"><ele>204.0</ele><time>2026-05-03T15:30:17.999Z</time></trkpt><trkpt lat="41.97154046216238" lon="12.79435101489336"><ele>202.2</ele><time>2026-05-03T15:30:18.999Z</time></trkpt><trkpt lat="41.971556924963586" lon="12.794210026410385"><ele>200.39999999999998</ele><time>2026-05-03T15:30:19.999Z</time></trkpt><trkpt lat="41.9715617686998" lon="12.79408038747049"><ele>198.6</ele><time>2026-05-03T15:30:20.999Z</time></trkpt><trkpt lat="41.971588835750055" lon="12.793946017321291"><ele>196.8</ele><time>2026-05-03T15:30:21.999Z</time></trkpt><trkpt lat="41.97159868809266" lon="12.793809658346841"><ele>195.0</ele><time>2026-05-03T15:30:22.999Z</time></trkpt><trkpt lat="41.97160125855681" lon="12.793705205012655"><ele>195.0</ele><time>2026-05-03T15:30:23.999Z</time></trkpt><trkpt lat="41.97158705699201" lon="12.79359923367314"><ele>195.0</ele><time>2026-05-03T15:30:24.999Z</time></trkpt><trkpt lat="41.971547039061505" lon="12.79349314983576"><ele>195.0</ele><time>2026-05-03T15:30:25.999Z</time></trkpt><trkpt lat="41.97148389191273" lon="12.793387782701625"><ele>195.0</ele><time>2026-05-03T15:30:26.999Z</time></trkpt><trkpt lat="41.97141000561747" lon="12.793269788524084"><ele>195.0</ele><time>2026-05-03T15:30:27.999Z</time></trkpt><trkpt lat="41.97133315480928" lon="12.793153740464586"><ele>192.6</ele><time>2026-05-03T15:30:28.999Z</time></trkpt><trkpt lat="41.97126512944708" lon="12.7930435822596"><ele>190.2</ele><time>2026-05-03T15:30:29.999Z</time></trkpt><trkpt lat="41.97119738692071" lon="12.792929065487973"><ele>187.8</ele><time>2026-05-03T15:30:30.999Z</time></trkpt><trkpt lat="41.97113339004094" lon="12.792822619598613"><ele>185.4</ele><time>2026-05-03T15:30:31.999Z</time></trkpt><trkpt lat="41.971069086154145" lon="12.792719952994872"><ele>183.0</ele><time>2026-05-03T15:30:32.999Z</time></trkpt><trkpt lat="41.97101735667995" lon="12.792632793586355"><ele>181.0</ele><time>2026-05-03T15:30:33.999Z</time></trkpt><trkpt lat="41.970967984856394" lon="12.792544168892569"><ele>179.0</ele><time>2026-05-03T15:30:34.999Z</time></trkpt><trkpt lat="41.97092599117428" lon="12.792447307019616"><ele>177.0</ele><time>2026-05-03T15:30:35.999Z</time></trkpt><trkpt lat="41.97089647019304" lon="12.792347302839705"><ele>175.0</ele><time>2026-05-03T15:30:36.999Z</time></trkpt><trkpt lat="41.97084888908252" lon="12.792254388662627"><ele>173.0</ele><time>2026-05-03T15:30:37.999Z</time></trkpt><trkpt lat="41.97077457954346" lon="12.792167334646974"><ele>171.0</ele><time>2026-05-03T15:30:38.999Z</time></trkpt><trkpt lat="41.97069083058464" lon="12.79210660447171"><ele>171.0</ele><time>2026-05-03T15:30:39.999Z</time></trkpt><trkpt lat="41.970597149038" lon="12.792060984543122"><ele>171.0</ele><time>2026-05-03T15:30:40.999Z</time></trkpt><trkpt lat="41.97048673134978" lon="12.792034938626529"><ele>171.0</ele><time>2026-05-03T15:30:41.999Z</time></trkpt><trkpt lat="41.970387880410854" lon="12.792008674731422"><ele>171.0</ele><time>2026-05-03T15:30:42.999Z</time></trkpt><trkpt lat="41.97029856938046" lon="12.791985763054424"><ele>171.0</ele><time>2026-05-03T15:30:43.999Z</time></trkpt><trkpt lat="41.97021968794327" lon="12.79196466749945"><ele>171.0</ele><time>2026-05-03T15:30:44.999Z</time></trkpt><trkpt lat="41.97012641232751" lon="12.791920494175997"><ele>171.0</ele><time>2026-05-03T15:30:45.999Z</time></trkpt><trkpt lat="41.97002017725215" lon="12.79184932056688"><ele>171.0</ele><time>2026-05-03T15:30:46.999Z</time></trkpt><trkpt lat="41.9699166511156" lon="12.791784458567955"><ele>171.0</ele><time>2026-05-03T15:30:47.999Z</time></trkpt><trkpt lat="41.96981449117459" lon="12.791720068128807"><ele>171.0</ele><time>2026-05-03T15:30:48.999Z</time></trkpt><trkpt lat="41.96971283614147" lon="12.791651117939015"><ele>169.4</ele><time>2026-05-03T15:30:49.999Z</time></trkpt><trkpt lat="41.969615387316395" lon="12.791578763163754"><ele>167.8</ele><time>2026-05-03T15:30:50.999Z</time></trkpt><trkpt lat="41.96952238637699" lon="12.791506612158043"><ele>166.20000000000002</ele><time>2026-05-03T15:30:51.999Z</time></trkpt><trkpt lat="41.96944289914886" lon="12.791419780043057"><ele>164.60000000000002</ele><time>2026-05-03T15:30:52.999Z</time></trkpt><trkpt lat="41.969381526409954" lon="12.791338633343445"><ele>163.0</ele><time>2026-05-03T15:30:53.999Z</time></trkpt><trkpt lat="41.96932643696413" lon="12.791266957562563"><ele>163.0</ele><time>2026-05-03T15:30:54.999Z</time></trkpt><trkpt lat="41.96926065345047" lon="12.791211157559585"><ele>163.0</ele><time>2026-05-03T15:30:55.999Z</time></trkpt><trkpt lat="41.96916860546174" lon="12.79118173963801"><ele>163.0</ele><time>2026-05-03T15:30:56.999Z</time></trkpt><trkpt lat="41.96906532257165" lon="12.791176428906118"><ele>163.0</ele><time>2026-05-03T15:30:57.999Z</time></trkpt><trkpt lat="41.96896310926442" lon="12.791159155591727"><ele>163.0</ele><time>2026-05-03T15:30:58.999Z</time></trkpt><trkpt lat="41.968863857488245" lon="12.791121184818966"><ele>159.6</ele><time>2026-05-03T15:30:59.999Z</time></trkpt><trkpt lat="41.96876833390167" lon="12.791082022661751"><ele>156.20000000000002</ele><time>2026-05-03T15:31:00.999Z</time></trkpt><trkpt lat="41.96868158818556" lon="12.791073281695711"><ele>152.8</ele><time>2026-05-03T15:31:01.999Z</time></trkpt><trkpt lat="41.96859087889414" lon="12.791095723892795"><ele>149.4</ele><time>2026-05-03T15:31:02.999Z</time></trkpt><trkpt lat="41.96849404840626" lon="12.791103037684701"><ele>146.0</ele><time>2026-05-03T15:31:03.999Z</time></trkpt><trkpt lat="41.96841422725139" lon="12.791129403766709"><ele>145.2</ele><time>2026-05-03T15:31:04.999Z</time></trkpt><trkpt lat="41.968338469637885" lon="12.791157384938177"><ele>144.39999999999998</ele><time>2026-05-03T15:31:05.999Z</time></trkpt><trkpt lat="41.96826381857066" lon="12.791128877811918"><ele>143.6</ele><time>2026-05-03T15:31:06.999Z</time></trkpt><trkpt lat="41.968183542347305" lon="12.79105990804079"><ele>142.79999999999998</ele><time>2026-05-03T15:31:07.999Z</time></trkpt><trkpt lat="41.968103524516614" lon="12.79097060253779"><ele>142.0</ele><time>2026-05-03T15:31:08.999Z</time></trkpt><trkpt lat="41.96801917252376" lon="12.790872273690654"><ele>142.0</ele><time>2026-05-03T15:31:09.999Z</time></trkpt><trkpt lat="41.967934973422366" lon="12.79075991315476"><ele>142.0</ele><time>2026-05-03T15:31:10.999Z</time></trkpt><trkpt lat="41.96783767984689" lon="12.79067692873395"><ele>142.0</ele><time>2026-05-03T15:31:11.998Z</time></trkpt><trkpt lat="41.96775601360943" lon="12.790600542999353"><ele>142.0</ele><time>2026-05-03T15:31:12.998Z</time></trkpt><trkpt lat="41.967687617875576" lon="12.790533927574021"><ele>142.0</ele><time>2026-05-03T15:31:13.998Z</time></trkpt><trkpt lat="41.9676252722849" lon="12.790467390816698"><ele>142.0</ele><time>2026-05-03T15:31:14.998Z</time></trkpt><trkpt lat="41.96761241790572" lon="12.790328383976698"><ele>142.0</ele><time>2026-05-03T15:31:15.998Z</time></trkpt><trkpt lat="41.96753703166116" lon="12.790235907057543"><ele>142.0</ele><time>2026-05-03T15:31:17.998Z</time></trkpt><trkpt lat="41.96749770148601" lon="12.790163908982448"><ele>142.0</ele><time>2026-05-03T15:31:18.998Z</time></trkpt><trkpt lat="41.96744744683197" lon="12.790075890823228"><ele>142.0</ele><time>2026-05-03T15:31:19.998Z</time></trkpt><trkpt lat="41.96739164843072" lon="12.789971974315977"><ele>140.2</ele><time>2026-05-03T15:31:20.998Z</time></trkpt><trkpt lat="41.96731786230781" lon="12.789886436028887"><ele>138.39999999999998</ele><time>2026-05-03T15:31:21.998Z</time></trkpt><trkpt lat="41.96724502074515" lon="12.789805370300561"><ele>136.60000000000002</ele><time>2026-05-03T15:31:22.998Z</time></trkpt><trkpt lat="41.96717645151086" lon="12.78970489388789"><ele>134.8</ele><time>2026-05-03T15:31:23.998Z</time></trkpt><trkpt lat="41.96711354689861" lon="12.789600941611218"><ele>133.0</ele><time>2026-05-03T15:31:24.998Z</time></trkpt><trkpt lat="41.96705854028033" lon="12.789478257362749"><ele>133.0</ele><time>2026-05-03T15:31:25.998Z</time></trkpt><trkpt lat="41.96701635875308" lon="12.789343953355715"><ele>133.0</ele><time>2026-05-03T15:31:26.998Z</time></trkpt><trkpt lat="41.966963040424815" lon="12.789219750705533"><ele>133.0</ele><time>2026-05-03T15:31:27.998Z</time></trkpt><trkpt lat="41.966927504522076" lon="12.789078377803957"><ele>133.0</ele><time>2026-05-03T15:31:29Z</time></trkpt><trkpt lat="41.96690288658952" lon="12.788930376218563"><ele>133.0</ele><time>2026-05-03T15:31:30Z</time></trkpt><trkpt lat="41.96687288527029" lon="12.788775115146752"><ele>132.20000000000002</ele><time>2026-05-03T15:31:31Z</time></trkpt><trkpt lat="41.966831748276554" lon="12.78863249012138"><ele>131.4</ele><time>2026-05-03T15:31:32Z</time></trkpt><trkpt lat="41.966795368430446" lon="12.78848967584236"><ele>130.60000000000002</ele><time>2026-05-03T15:31:33Z</time></trkpt><trkpt lat="41.966769663204374" lon="12.788355220874779"><ele>129.8</ele><time>2026-05-03T15:31:34Z</time></trkpt><trkpt lat="41.966745039748524" lon="12.788227440553383"><ele>129.0</ele><time>2026-05-03T15:31:35Z</time></trkpt><trkpt lat="41.96672609246507" lon="12.788087396700083"><ele>127.4</ele><time>2026-05-03T15:31:36Z</time></trkpt><trkpt lat="41.9667234177965" lon="12.787944248666177"><ele>125.80000000000001</ele><time>2026-05-03T15:31:37Z</time></trkpt><trkpt lat="41.966724581182945" lon="12.7878040526759"><ele>124.19999999999999</ele><time>2026-05-03T15:31:38Z</time></trkpt><trkpt lat="41.966715726676334" lon="12.787662980469818"><ele>122.6</ele><time>2026-05-03T15:31:39Z</time></trkpt><trkpt lat="41.96669572180084" lon="12.787520126835863"><ele>121.0</ele><time>2026-05-03T15:31:40Z</time></trkpt><trkpt lat="41.966700241742146" lon="12.787367898775676"><ele>119.19999999999999</ele><time>2026-05-03T15:31:41Z</time></trkpt><trkpt lat="41.96671542311617" lon="12.787203835415212"><ele>117.39999999999999</ele><time>2026-05-03T15:31:42Z</time></trkpt><trkpt lat="41.96673256377478" lon="12.787095807786939"><ele>115.6</ele><time>2026-05-03T15:31:43Z</time></trkpt><trkpt lat="41.96674044130978" lon="12.786967412336757"><ele>113.8</ele><time>2026-05-03T15:31:44Z</time></trkpt><trkpt lat="41.9667547314262" lon="12.786847810218982"><ele>112.0</ele><time>2026-05-03T15:31:45Z</time></trkpt><trkpt lat="41.96679559846758" lon="12.786716008303546"><ele>110.6</ele><time>2026-05-03T15:31:46Z</time></trkpt><trkpt lat="41.96685362178733" lon="12.786604944321123"><ele>109.19999999999999</ele><time>2026-05-03T15:31:47Z</time></trkpt><trkpt lat="41.96688778702709" lon="12.786510898128922"><ele>107.8</ele><time>2026-05-03T15:31:48Z</time></trkpt><trkpt lat="41.96694109802994" lon="12.7863262424717"><ele>106.4</ele><time>2026-05-03T15:31:50Z</time></trkpt><trkpt lat="41.96696834595235" lon="12.786217092578656"><ele>105.0</ele><time>2026-05-03T15:31:51Z</time></trkpt><trkpt lat="41.96698075270429" lon="12.786117247661451"><ele>104.0</ele><time>2026-05-03T15:31:52Z</time></trkpt><trkpt lat="41.966974800730014" lon="12.785991345389652"><ele>103.0</ele><time>2026-05-03T15:31:53Z</time></trkpt><trkpt lat="41.966960736371234" lon="12.785837395878453"><ele>102.0</ele><time>2026-05-03T15:31:54Z</time></trkpt><trkpt lat="41.966938490773956" lon="12.7856757738333"><ele>101.0</ele><time>2026-05-03T15:31:55Z</time></trkpt><trkpt lat="41.96691859471187" lon="12.785508289307083"><ele>101.0</ele><time>2026-05-03T15:31:56Z</time></trkpt><trkpt lat="41.966904928249164" lon="12.785339297477455"><ele>101.0</ele><time>2026-05-03T15:31:57Z</time></trkpt><trkpt lat="41.966876859335834" lon="12.785185724819282"><ele>101.0</ele><time>2026-05-03T15:31:58Z</time></trkpt><trkpt lat="41.966859968448766" lon="12.785038375033313"><ele>101.0</ele><time>2026-05-03T15:31:59Z</time></trkpt><trkpt lat="41.96684553600311" lon="12.784895912392319"><ele>99.8</ele><time>2026-05-03T15:32:00Z</time></trkpt><trkpt lat="41.96683333986992" lon="12.784752552962999"><ele>98.6</ele><time>2026-05-03T15:32:01Z</time></trkpt><trkpt lat="41.966821404931046" lon="12.784618542751737"><ele>97.4</ele><time>2026-05-03T15:32:01.999Z</time></trkpt><trkpt lat="41.9668115456156" lon="12.784482166478426"><ele>96.2</ele><time>2026-05-03T15:32:02.999Z</time></trkpt><trkpt lat="41.96679432887471" lon="12.784344881694018"><ele>95.0</ele><time>2026-05-03T15:32:03.999Z</time></trkpt><trkpt lat="41.966779614409674" lon="12.784217543311755"><ele>94.33333333333334</ele><time>2026-05-03T15:32:04.999Z</time></trkpt><trkpt lat="41.96676025798357" lon="12.784097779657989"><ele>93.66666666666667</ele><time>2026-05-03T15:32:05.999Z</time></trkpt><trkpt lat="41.966736015715945" lon="12.783979759130302"><ele>93.0</ele><time>2026-05-03T15:32:06.999Z</time></trkpt><trkpt lat="41.96670941356523" lon="12.783875421224446"><ele>92.33333333333333</ele><time>2026-05-03T15:32:07.999Z</time></trkpt><trkpt lat="41.96668737706373" lon="12.7837769418424"><ele>91.66666666666666</ele><time>2026-05-03T15:32:08.999Z</time></trkpt><trkpt lat="41.9666725056932" lon="12.783678838122873"><ele>91.0</ele><time>2026-05-03T15:32:09.999Z</time></trkpt><trkpt lat="41.96666064109424" lon="12.783595067198167"><ele>90.25</ele><time>2026-05-03T15:32:10.999Z</time></trkpt><trkpt lat="41.966643768593734" lon="12.783446959122067"><ele>89.5</ele><time>2026-05-03T15:32:12.999Z</time></trkpt><trkpt lat="41.966601965088586" lon="12.783355487292507"><ele>88.75</ele><time>2026-05-03T15:32:15.999Z</time></trkpt><trkpt lat="41.96648760887707" lon="12.783331586700335"><ele>88.0</ele><time>2026-05-03T15:32:19.999Z</time></trkpt><trkpt lat="41.966327988200156" lon="12.783399820721733"><ele>88.0</ele><time>2026-05-03T15:32:21.999Z</time></trkpt><trkpt lat="41.966238722749914" lon="12.783457150836712"><ele>88.0</ele><time>2026-05-03T15:32:22.999Z</time></trkpt><trkpt lat="41.9661426182788" lon="12.783519513121725"><ele>88.0</ele><time>2026-05-03T15:32:23.999Z</time></trkpt><trkpt lat="41.96605089916155" lon="12.783603669183977"><ele>88.0</ele><time>2026-05-03T15:32:24.999Z</time></trkpt><trkpt lat="41.96596036687677" lon="12.78365428034276"><ele>88.0</ele><time>2026-05-03T15:32:25.999Z</time></trkpt><trkpt lat="41.96588307044216" lon="12.783688499263095"><ele>87.66666666666666</ele><time>2026-05-03T15:32:26.999Z</time></trkpt><trkpt lat="41.96580933772048" lon="12.783718256631747"><ele>87.33333333333333</ele><time>2026-05-03T15:32:27.999Z</time></trkpt><trkpt lat="41.9657389469377" lon="12.783771300460623"><ele>87.0</ele><time>2026-05-03T15:32:28.999Z</time></trkpt><trkpt lat="41.96567080195295" lon="12.783840571328255"><ele>86.66666666666667</ele><time>2026-05-03T15:32:29.999Z</time></trkpt><trkpt lat="41.96558032067881" lon="12.78387994622452"><ele>86.33333333333334</ele><time>2026-05-03T15:32:30.999Z</time></trkpt><trkpt lat="41.96549432991497" lon="12.783943751552616"><ele>86.0</ele><time>2026-05-03T15:32:31.999Z</time></trkpt><trkpt lat="41.96539918904501" lon="12.784004955704185"><ele>86.0</ele><time>2026-05-03T15:32:32.999Z</time></trkpt><trkpt lat="41.96530648186959" lon="12.784063554627357"><ele>86.0</ele><time>2026-05-03T15:32:33.999Z</time></trkpt><trkpt lat="41.965217517077306" lon="12.784095809179586"><ele>86.0</ele><time>2026-05-03T15:32:34.999Z</time></trkpt><trkpt lat="41.96511668359875" lon="12.784156805262493"><ele>86.0</ele><time>2026-05-03T15:32:36.999Z</time></trkpt><trkpt lat="41.965066611110494" lon="12.783976217384525"><ele>86.0</ele><time>2026-05-03T15:32:40.999Z</time></trkpt><trkpt lat="41.96510686214601" lon="12.78386035789046"><ele>86.0</ele><time>2026-05-03T15:32:41.999Z</time></trkpt><trkpt lat="41.965153005014066" lon="12.783741570579709"><ele>86.0</ele><time>2026-05-03T15:32:42.999Z</time></trkpt><trkpt lat="41.96518746621485" lon="12.7836448281735"><ele>86.0</ele><time>2026-05-03T15:32:43.999Z</time></trkpt><trkpt lat="41.965211499273934" lon="12.78354688285597"><ele>86.0</ele><time>2026-05-03T15:32:44.999Z</time></trkpt><trkpt lat="41.965240934118384" lon="12.783453217552312"><ele>86.0</ele><time>2026-05-03T15:32:45.999Z</time></trkpt><trkpt lat="41.96527363403782" lon="12.783342130096703"><ele>86.0</ele><time>2026-05-03T15:32:46.999Z</time></trkpt><trkpt lat="41.96531832817703" lon="12.783188914710774"><ele>85.75</ele><time>2026-05-03T15:32:47.999Z</time></trkpt><trkpt lat="41.96537864119233" lon="12.783018358508919"><ele>85.5</ele><time>2026-05-03T15:32:48.999Z</time></trkpt><trkpt lat="41.96543244251061" lon="12.782851996296436"><ele>85.25</ele><time>2026-05-03T15:32:49.999Z</time></trkpt><trkpt lat="41.96548449149063" lon="12.78268801297801"><ele>85.0</ele><time>2026-05-03T15:32:50.999Z</time></trkpt><trkpt lat="41.965528547787436" lon="12.782521704046497"><ele>83.66666666666666</ele><time>2026-05-03T15:32:51.999Z</time></trkpt><trkpt lat="41.965574559020105" lon="12.7823330558962"><ele>82.33333333333333</ele><time>2026-05-03T15:32:52.999Z</time></trkpt><trkpt lat="41.965607715831034" lon="12.782132583420298"><ele>81.0</ele><time>2026-05-03T15:32:53.999Z</time></trkpt><trkpt lat="41.96563318936709" lon="12.781927856072572"><ele>80.0</ele><time>2026-05-03T15:32:54.999Z</time></trkpt><trkpt lat="41.96566418999587" lon="12.7817303377167"><ele>79.0</ele><time>2026-05-03T15:32:55.999Z</time></trkpt><trkpt lat="41.965695959016585" lon="12.781536608652658"><ele>78.0</ele><time>2026-05-03T15:32:56.999Z</time></trkpt><trkpt lat="41.96573006918569" lon="12.781343610440818"><ele>77.0</ele><time>2026-05-03T15:32:57.999Z</time></trkpt><trkpt lat="41.965749138279406" lon="12.781152757966334"><ele>77.0</ele><time>2026-05-03T15:32:58.999Z</time></trkpt><trkpt lat="41.96574074127821" lon="12.78095123319222"><ele>77.0</ele><time>2026-05-03T15:32:59.999Z</time></trkpt><trkpt lat="41.965730586843605" lon="12.780748808851484"><ele>77.0</ele><time>2026-05-03T15:33:00.999Z</time></trkpt><trkpt lat="41.9657202857308" lon="12.78055718035729"><ele>77.0</ele><time>2026-05-03T15:33:01.999Z</time></trkpt><trkpt lat="41.965705673705386" lon="12.780374730699247"><ele>77.0</ele><time>2026-05-03T15:33:02.999Z</time></trkpt><trkpt lat="41.96570062972083" lon="12.78021059051678"><ele>77.0</ele><time>2026-05-03T15:33:03.999Z</time></trkpt><trkpt lat="41.965681991320544" lon="12.780042644781274"><ele>77.0</ele><time>2026-05-03T15:33:04.999Z</time></trkpt><trkpt lat="41.96569429990409" lon="12.779880574576769"><ele>77.0</ele><time>2026-05-03T15:33:05.999Z</time></trkpt><trkpt lat="41.96569801512216" lon="12.779743745601145"><ele>77.2</ele><time>2026-05-03T15:33:06.999Z</time></trkpt><trkpt lat="41.96571334653511" lon="12.779613555889684"><ele>77.4</ele><time>2026-05-03T15:33:07.999Z</time></trkpt><trkpt lat="41.965711767057726" lon="12.77950861484289"><ele>77.6</ele><time>2026-05-03T15:33:08.999Z</time></trkpt><trkpt lat="41.96572400262717" lon="12.779403274438714"><ele>77.8</ele><time>2026-05-03T15:33:09.999Z</time></trkpt><trkpt lat="41.965732117132546" lon="12.779271769490965"><ele>78.0</ele><time>2026-05-03T15:33:10.999Z</time></trkpt><trkpt lat="41.96575303038429" lon="12.779129654444954"><ele>78.0</ele><time>2026-05-03T15:33:11.999Z</time></trkpt><trkpt lat="41.96577398298391" lon="12.77896321130398"><ele>78.0</ele><time>2026-05-03T15:33:12.999Z</time></trkpt><trkpt lat="41.965797586533334" lon="12.778812303415682"><ele>78.0</ele><time>2026-05-03T15:33:13.999Z</time></trkpt><trkpt lat="41.96584843276648" lon="12.778657014565708"><ele>78.0</ele><time>2026-05-03T15:33:14.999Z</time></trkpt><trkpt lat="41.96588909199818" lon="12.77849721942365"><ele>77.0</ele><time>2026-05-03T15:33:15.999Z</time></trkpt><trkpt lat="41.965922590871074" lon="12.778336345489114"><ele>76.0</ele><time>2026-05-03T15:33:16.999Z</time></trkpt><trkpt lat="41.965958834489136" lon="12.77817202952753"><ele>75.0</ele><time>2026-05-03T15:33:17.999Z</time></trkpt><trkpt lat="41.966005693726686" lon="12.778000315327438"><ele>74.0</ele><time>2026-05-03T15:33:18.998Z</time></trkpt><trkpt lat="41.96604373610757" lon="12.777805850145315"><ele>74.25</ele><time>2026-05-03T15:33:19.998Z</time></trkpt><trkpt lat="41.966061039587274" lon="12.777617886379652"><ele>74.5</ele><time>2026-05-03T15:33:20.998Z</time></trkpt><trkpt lat="41.96610031661427" lon="12.777447958642691"><ele>74.75</ele><time>2026-05-03T15:33:21.998Z</time></trkpt><trkpt lat="41.96612750085366" lon="12.777281075582811"><ele>75.0</ele><time>2026-05-03T15:33:22.998Z</time></trkpt><trkpt lat="41.96615643167434" lon="12.777121579024204"><ele>75.0</ele><time>2026-05-03T15:33:23.998Z</time></trkpt><trkpt lat="41.966188395899415" lon="12.776971145800868"><ele>75.0</ele><time>2026-05-03T15:33:24.998Z</time></trkpt><trkpt lat="41.966223892899684" lon="12.776810186092394"><ele>75.0</ele><time>2026-05-03T15:33:25.998Z</time></trkpt><trkpt lat="41.96627628702419" lon="12.776622539164984"><ele>75.0</ele><time>2026-05-03T15:33:26.998Z</time></trkpt><trkpt lat="41.96629988258174" lon="12.776459753676836"><ele>74.75</ele><time>2026-05-03T15:33:27.998Z</time></trkpt><trkpt lat="41.9663424951404" lon="12.776276757349692"><ele>74.5</ele><time>2026-05-03T15:33:28.998Z</time></trkpt><trkpt lat="41.96639027382946" lon="12.776119230291497"><ele>74.25</ele><time>2026-05-03T15:33:29.998Z</time></trkpt><trkpt lat="41.966453078271854" lon="12.77595172835595"><ele>74.0</ele><time>2026-05-03T15:33:30.998Z</time></trkpt><trkpt lat="41.96652490864166" lon="12.775776927973846"><ele>74.0</ele><time>2026-05-03T15:33:31.998Z</time></trkpt><trkpt lat="41.966623266197715" lon="12.775557389860477"><ele>74.0</ele><time>2026-05-03T15:33:32.998Z</time></trkpt><trkpt lat="41.966702458326886" lon="12.77538062974425"><ele>74.0</ele><time>2026-05-03T15:33:33.998Z</time></trkpt><trkpt lat="41.96677940207974" lon="12.775199220591539"><ele>73.5</ele><time>2026-05-03T15:33:34.999Z</time></trkpt><trkpt lat="41.96684813443313" lon="12.775027224755808"><ele>73.0</ele><time>2026-05-03T15:33:35.999Z</time></trkpt><trkpt lat="41.96691242647059" lon="12.774864823111576"><ele>72.5</ele><time>2026-05-03T15:33:36.999Z</time></trkpt><trkpt lat="41.96697644400317" lon="12.774681467962676"><ele>72.0</ele><time>2026-05-03T15:33:37.999Z</time></trkpt><trkpt lat="41.967051859103556" lon="12.774540164486899"><ele>72.0</ele><time>2026-05-03T15:33:38.999Z</time></trkpt><trkpt lat="41.9671387597446" lon="12.77441557928898"><ele>72.0</ele><time>2026-05-03T15:33:39.999Z</time></trkpt><trkpt lat="41.96724014681116" lon="12.774287112301316"><ele>72.0</ele><time>2026-05-03T15:33:40.999Z</time></trkpt><trkpt lat="41.967322021318225" lon="12.774193186796095"><ele>72.0</ele><time>2026-05-03T15:33:41.999Z</time></trkpt><trkpt lat="41.967402719270346" lon="12.774120327146962"><ele>72.0</ele><time>2026-05-03T15:33:42.999Z</time></trkpt><trkpt lat="41.96747341446832" lon="12.774082871005582"><ele>72.0</ele><time>2026-05-03T15:33:43.999Z</time></trkpt><trkpt lat="41.967573004049335" lon="12.774109706248412"><ele>72.0</ele><time>2026-05-03T15:33:45Z</time></trkpt><trkpt lat="41.96767505300353" lon="12.77408470122003"><ele>72.0</ele><time>2026-05-03T15:33:46Z</time></trkpt><trkpt lat="41.967775308480796" lon="12.774065967646793"><ele>72.0</ele><time>2026-05-03T15:33:47Z</time></trkpt><trkpt lat="41.96786658285904" lon="12.774036932737452"><ele>72.0</ele><time>2026-05-03T15:33:48Z</time></trkpt><trkpt lat="41.96794834110618" lon="12.774010496831595"><ele>72.0</ele><time>2026-05-03T15:33:49Z</time></trkpt><trkpt lat="41.96802796040768" lon="12.773994006197741"><ele>72.0</ele><time>2026-05-03T15:33:50Z</time></trkpt><trkpt lat="41.9680988513043" lon="12.773973908513101"><ele>72.0</ele><time>2026-05-03T15:33:51Z</time></trkpt><trkpt lat="41.968157923520366" lon="12.773933822403535"><ele>72.0</ele><time>2026-05-03T15:33:52Z</time></trkpt><trkpt lat="41.968237746286924" lon="12.773927558823774"><ele>72.0</ele><time>2026-05-03T15:33:54Z</time></trkpt><trkpt lat="41.9681408378378" lon="12.77364775864992"><ele>72.0</ele><time>2026-05-03T15:33:56Z</time></trkpt><trkpt lat="41.96807194928902" lon="12.773560425862895"><ele>72.0</ele><time>2026-05-03T15:33:57Z</time></trkpt><trkpt lat="41.96801849099444" lon="12.77348099801523"><ele>72.0</ele><time>2026-05-03T15:33:58Z</time></trkpt><trkpt lat="41.967994056780526" lon="12.773396056614258"><ele>72.0</ele><time>2026-05-03T15:33:59Z</time></trkpt><trkpt lat="41.96795041413213" lon="12.773329619093985"><ele>72.0</ele><time>2026-05-03T15:34:00Z</time></trkpt><trkpt lat="41.96792527414743" lon="12.773250840047835"><ele>72.0</ele><time>2026-05-03T15:34:00.999Z</time></trkpt><trkpt lat="41.96785875962857" lon="12.773133828365435"><ele>72.0</ele><time>2026-05-03T15:34:02.999Z</time></trkpt><trkpt lat="41.967885626278424" lon="12.77301906280582"><ele>72.0</ele><time>2026-05-03T15:34:03.999Z</time></trkpt><trkpt lat="41.96790093690377" lon="12.772900513804348"><ele>72.0</ele><time>2026-05-03T15:34:04.999Z</time></trkpt><trkpt lat="41.967923598270986" lon="12.772787050293726"><ele>72.0</ele><time>2026-05-03T15:34:05.999Z</time></trkpt><trkpt lat="41.967932135495396" lon="12.772637664882561"><ele>72.0</ele><time>2026-05-03T15:34:06.999Z</time></trkpt><trkpt lat="41.9679526226466" lon="12.772495260532823"><ele>72.2</ele><time>2026-05-03T15:34:07.999Z</time></trkpt><trkpt lat="41.96797431544336" lon="12.772374584280097"><ele>72.4</ele><time>2026-05-03T15:34:08.999Z</time></trkpt><trkpt lat="41.967991457171685" lon="12.772263652816902"><ele>72.6</ele><time>2026-05-03T15:34:09.999Z</time></trkpt><trkpt lat="41.96801957861687" lon="12.772157767241241"><ele>72.8</ele><time>2026-05-03T15:34:10.999Z</time></trkpt><trkpt lat="41.9680496028228" lon="12.77203115795068"><ele>73.0</ele><time>2026-05-03T15:34:11.999Z</time></trkpt><trkpt lat="41.96808806730451" lon="12.771913889552525"><ele>72.83333333333333</ele><time>2026-05-03T15:34:12.999Z</time></trkpt><trkpt lat="41.96812680418434" lon="12.77180383154146"><ele>72.66666666666666</ele><time>2026-05-03T15:34:13.999Z</time></trkpt><trkpt lat="41.96818010393522" lon="12.77174252703015"><ele>72.5</ele><time>2026-05-03T15:34:14.999Z</time></trkpt><trkpt lat="41.968211564622" lon="12.771662046625885"><ele>72.33333333333333</ele><time>2026-05-03T15:34:15.999Z</time></trkpt><trkpt lat="41.96826372253511" lon="12.771603172861461"><ele>72.16666666666667</ele><time>2026-05-03T15:34:16.999Z</time></trkpt><trkpt lat="41.96833196463569" lon="12.771557636948858"><ele>72.0</ele><time>2026-05-03T15:34:17.999Z</time></trkpt><trkpt lat="41.96841509846475" lon="12.771483828639214"><ele>72.0</ele><time>2026-05-03T15:34:18.999Z</time></trkpt><trkpt lat="41.96850312465215" lon="12.77142185125899"><ele>72.0</ele><time>2026-05-03T15:34:19.999Z</time></trkpt><trkpt lat="41.9685971881022" lon="12.77135797440152"><ele>72.0</ele><time>2026-05-03T15:34:20.999Z</time></trkpt><trkpt lat="41.96869758006776" lon="12.771293931314487"><ele>72.0</ele><time>2026-05-03T15:34:21.999Z</time></trkpt><trkpt lat="41.96880307250282" lon="12.771225880241541"><ele>72.0</ele><time>2026-05-03T15:34:22.999Z</time></trkpt><trkpt lat="41.968902300489475" lon="12.771161870242956"><ele>72.0</ele><time>2026-05-03T15:34:23.999Z</time></trkpt><trkpt lat="41.969005191986305" lon="12.771092007810722"><ele>72.0</ele><time>2026-05-03T15:34:24.999Z</time></trkpt><trkpt lat="41.969106557911225" lon="12.77102161100695"><ele>72.0</ele><time>2026-05-03T15:34:25.999Z</time></trkpt><trkpt lat="41.96920524849151" lon="12.770951212737863"><ele>72.0</ele><time>2026-05-03T15:34:26.999Z</time></trkpt><trkpt lat="41.96930719731" lon="12.770876746335649"><ele>72.25</ele><time>2026-05-03T15:34:27.999Z</time></trkpt><trkpt lat="41.969410158715775" lon="12.770793630930585"><ele>72.5</ele><time>2026-05-03T15:34:28.999Z</time></trkpt><trkpt lat="41.9695071763389" lon="12.770712115143562"><ele>72.75</ele><time>2026-05-03T15:34:29.999Z</time></trkpt><trkpt lat="41.96959660213647" lon="12.770634064791174"><ele>73.0</ele><time>2026-05-03T15:34:30.999Z</time></trkpt><trkpt lat="41.96969500084081" lon="12.770555909347967"><ele>73.0</ele><time>2026-05-03T15:34:31.999Z</time></trkpt><trkpt lat="41.96981566546056" lon="12.770378059330836"><ele>73.0</ele><time>2026-05-03T15:34:32.999Z</time></trkpt><trkpt lat="41.969873958497594" lon="12.770331940046555"><ele>73.0</ele><time>2026-05-03T15:34:33.999Z</time></trkpt><trkpt lat="41.96996123447607" lon="12.770219459274852"><ele>73.0</ele><time>2026-05-03T15:34:34.999Z</time></trkpt><trkpt lat="41.97006568983516" lon="12.770135899118484"><ele>72.5</ele><time>2026-05-03T15:34:35.999Z</time></trkpt><trkpt lat="41.9701737325967" lon="12.770061085102657"><ele>72.0</ele><time>2026-05-03T15:34:36.999Z</time></trkpt><trkpt lat="41.97026977405955" lon="12.769967814542804"><ele>71.5</ele><time>2026-05-03T15:34:37.999Z</time></trkpt><trkpt lat="41.9703725215871" lon="12.769908234931508"><ele>71.0</ele><time>2026-05-03T15:34:38.999Z</time></trkpt><trkpt lat="41.97047826546225" lon="12.769822097871899"><ele>71.0</ele><time>2026-05-03T15:34:39.999Z</time></trkpt><trkpt lat="41.970560988356475" lon="12.769731722191938"><ele>71.0</ele><time>2026-05-03T15:34:40.999Z</time></trkpt><trkpt lat="41.97064865370363" lon="12.76962319266952"><ele>71.0</ele><time>2026-05-03T15:34:41.999Z</time></trkpt><trkpt lat="41.97074398810892" lon="12.769490418764134"><ele>71.0</ele><time>2026-05-03T15:34:42.999Z</time></trkpt><trkpt lat="41.97080960135135" lon="12.769378135098835"><ele>71.0</ele><time>2026-05-03T15:34:43.999Z</time></trkpt><trkpt lat="41.97088416720472" lon="12.769235814081611"><ele>71.0</ele><time>2026-05-03T15:34:44.999Z</time></trkpt><trkpt lat="41.970957640296064" lon="12.769082583853525"><ele>71.0</ele><time>2026-05-03T15:34:45.999Z</time></trkpt><trkpt lat="41.97102070154446" lon="12.768925467317269"><ele>71.0</ele><time>2026-05-03T15:34:46.999Z</time></trkpt><trkpt lat="41.97107359757353" lon="12.768751771029141"><ele>71.0</ele><time>2026-05-03T15:34:47.999Z</time></trkpt><trkpt lat="41.97111574723819" lon="12.76862109531384"><ele>71.0</ele><time>2026-05-03T15:34:48.999Z</time></trkpt><trkpt lat="41.97116142985625" lon="12.76847265970621"><ele>71.0</ele><time>2026-05-03T15:34:49.999Z</time></trkpt><trkpt lat="41.97121030668841" lon="12.768327259556331"><ele>71.0</ele><time>2026-05-03T15:34:50.999Z</time></trkpt><trkpt lat="41.97126527012868" lon="12.768194332309871"><ele>71.0</ele><time>2026-05-03T15:34:51.999Z</time></trkpt><trkpt lat="41.971320466497055" lon="12.768059812980011"><ele>71.0</ele><time>2026-05-03T15:34:52.999Z</time></trkpt><trkpt lat="41.97136198221474" lon="12.767932675504648"><ele>71.0</ele><time>2026-05-03T15:34:53.999Z</time></trkpt><trkpt lat="41.97141027673517" lon="12.767797100131185"><ele>71.0</ele><time>2026-05-03T15:34:54.999Z</time></trkpt><trkpt lat="41.97145601303436" lon="12.76767183206579"><ele>71.0</ele><time>2026-05-03T15:34:55.999Z</time></trkpt><trkpt lat="41.971501110404716" lon="12.767553583958602"><ele>71.0</ele><time>2026-05-03T15:34:56.999Z</time></trkpt><trkpt lat="41.97154008933159" lon="12.767427849807751"><ele>71.0</ele><time>2026-05-03T15:34:57.999Z</time></trkpt><trkpt lat="41.97157351294385" lon="12.76730056840448"><ele>71.0</ele><time>2026-05-03T15:34:58.999Z</time></trkpt><trkpt lat="41.97159821684496" lon="12.76716446455205"><ele>71.0</ele><time>2026-05-03T15:34:59.999Z</time></trkpt><trkpt lat="41.97161107057832" lon="12.767017691447979"><ele>71.0</ele><time>2026-05-03T15:35:00.999Z</time></trkpt><trkpt lat="41.9716250958" lon="12.76686745496957"><ele>70.5</ele><time>2026-05-03T15:35:01.999Z</time></trkpt><trkpt lat="41.97163766725809" lon="12.766736616830231"><ele>70.0</ele><time>2026-05-03T15:35:02.999Z</time></trkpt><trkpt lat="41.97165340742259" lon="12.766535231942514"><ele>69.5</ele><time>2026-05-03T15:35:04.999Z</time></trkpt><trkpt lat="41.97164380681419" lon="12.766405708240852"><ele>69.0</ele><time>2026-05-03T15:35:05.999Z</time></trkpt><trkpt lat="41.97165320976496" lon="12.766240404846164"><ele>69.0</ele><time>2026-05-03T15:35:06.999Z</time></trkpt><trkpt lat="41.9716520514329" lon="12.766090973525099"><ele>69.0</ele><time>2026-05-03T15:35:07.999Z</time></trkpt><trkpt lat="41.97165479495665" lon="12.765941563437657"><ele>69.0</ele><time>2026-05-03T15:35:08.999Z</time></trkpt><trkpt lat="41.97165509566903" lon="12.765797945763591"><ele>69.0</ele><time>2026-05-03T15:35:09.999Z</time></trkpt><trkpt lat="41.97165480105018" lon="12.76565760761008"><ele>69.0</ele><time>2026-05-03T15:35:10.999Z</time></trkpt><trkpt lat="41.97165982639853" lon="12.765535989420885"><ele>69.2</ele><time>2026-05-03T15:35:11.999Z</time></trkpt><trkpt lat="41.97166122108163" lon="12.76539676632781"><ele>69.4</ele><time>2026-05-03T15:35:12.999Z</time></trkpt><trkpt lat="41.97166911966742" lon="12.765262106680344"><ele>69.6</ele><time>2026-05-03T15:35:13.999Z</time></trkpt><trkpt lat="41.9716709680532" lon="12.765129280888367"><ele>69.8</ele><time>2026-05-03T15:35:14.999Z</time></trkpt><trkpt lat="41.97167521961958" lon="12.765007115306114"><ele>70.0</ele><time>2026-05-03T15:35:15.999Z</time></trkpt><trkpt lat="41.971688922900846" lon="12.764901803367925"><ele>70.2</ele><time>2026-05-03T15:35:16.999Z</time></trkpt><trkpt lat="41.97169576695601" lon="12.764780459484491"><ele>70.4</ele><time>2026-05-03T15:35:17.999Z</time></trkpt><trkpt lat="41.971713932399005" lon="12.764656078146896"><ele>70.6</ele><time>2026-05-03T15:35:18.999Z</time></trkpt><trkpt lat="41.9717523316479" lon="12.764512911766714"><ele>70.8</ele><time>2026-05-03T15:35:19.999Z</time></trkpt><trkpt lat="41.97180400398763" lon="12.764367063677074"><ele>71.0</ele><time>2026-05-03T15:35:20.999Z</time></trkpt><trkpt lat="41.9718549734969" lon="12.764236784242568"><ele>71.16666666666667</ele><time>2026-05-03T15:35:21.999Z</time></trkpt><trkpt lat="41.9719003066866" lon="12.764122464222211"><ele>71.33333333333334</ele><time>2026-05-03T15:35:22.999Z</time></trkpt><trkpt lat="41.971941760519435" lon="12.764006221733968"><ele>71.5</ele><time>2026-05-03T15:35:23.999Z</time></trkpt><trkpt lat="41.971968104086464" lon="12.763916536500185"><ele>71.66666666666667</ele><time>2026-05-03T15:35:24.999Z</time></trkpt><trkpt lat="41.972001710023534" lon="12.763824613241411"><ele>71.83333333333333</ele><time>2026-05-03T15:35:25.999Z</time></trkpt><trkpt lat="41.97202781429581" lon="12.7637359990433"><ele>72.0</ele><time>2026-05-03T15:35:26.999Z</time></trkpt><trkpt lat="41.97205994426164" lon="12.76365315810512"><ele>72.0</ele><time>2026-05-03T15:35:27.999Z</time></trkpt><trkpt lat="41.97208751187054" lon="12.763567539002995"><ele>72.0</ele><time>2026-05-03T15:35:28.999Z</time></trkpt><trkpt lat="41.972117193872215" lon="12.763484356793874"><ele>72.0</ele><time>2026-05-03T15:35:29.998Z</time></trkpt><trkpt lat="41.972142116954636" lon="12.763378291423965"><ele>72.0</ele><time>2026-05-03T15:35:30.998Z</time></trkpt><trkpt lat="41.97217662979434" lon="12.763274416842497"><ele>72.0</ele><time>2026-05-03T15:35:31.998Z</time></trkpt><trkpt lat="41.972210858689294" lon="12.76317628512802"><ele>72.0</ele><time>2026-05-03T15:35:32.998Z</time></trkpt><trkpt lat="41.97224615804367" lon="12.763081841384308"><ele>71.83333333333333</ele><time>2026-05-03T15:35:33.998Z</time></trkpt><trkpt lat="41.9722760252336" lon="12.762984370556568"><ele>71.66666666666667</ele><time>2026-05-03T15:35:34.998Z</time></trkpt><trkpt lat="41.97230805186936" lon="12.762867735815318"><ele>71.5</ele><time>2026-05-03T15:35:35.998Z</time></trkpt><trkpt lat="41.97234901182506" lon="12.76274551278639"><ele>71.33333333333334</ele><time>2026-05-03T15:35:36.998Z</time></trkpt><trkpt lat="41.97239970012285" lon="12.762634100165766"><ele>71.16666666666667</ele><time>2026-05-03T15:35:37.998Z</time></trkpt><trkpt lat="41.97242863660855" lon="12.762540699146049"><ele>71.0</ele><time>2026-05-03T15:35:38.998Z</time></trkpt><trkpt lat="41.972469983611965" lon="12.762407239626665"><ele>71.0</ele><time>2026-05-03T15:35:39.998Z</time></trkpt><trkpt lat="41.972496382279225" lon="12.76229087040802"><ele>71.0</ele><time>2026-05-03T15:35:40.999Z</time></trkpt><trkpt lat="41.972556646044154" lon="12.762179676452469"><ele>71.0</ele><time>2026-05-03T15:35:41.999Z</time></trkpt><trkpt lat="41.972590836604844" lon="12.76207128760112"><ele>71.0</ele><time>2026-05-03T15:35:42.999Z</time></trkpt><trkpt lat="41.97263681420801" lon="12.761977047952952"><ele>71.0</ele><time>2026-05-03T15:35:43.999Z</time></trkpt><trkpt lat="41.9726986701001" lon="12.761894102103991"><ele>70.8</ele><time>2026-05-03T15:35:45Z</time></trkpt><trkpt lat="41.97274760291802" lon="12.761804148651594"><ele>70.6</ele><time>2026-05-03T15:35:46Z</time></trkpt><trkpt lat="41.97281512950859" lon="12.761692980714148"><ele>70.4</ele><time>2026-05-03T15:35:47Z</time></trkpt><trkpt lat="41.972874295022045" lon="12.761594506046654"><ele>70.2</ele><time>2026-05-03T15:35:48Z</time></trkpt><trkpt lat="41.972935099838374" lon="12.76149561314257"><ele>70.0</ele><time>2026-05-03T15:35:49Z</time></trkpt><trkpt lat="41.97299369499288" lon="12.761400314036697"><ele>70.0</ele><time>2026-05-03T15:35:50Z</time></trkpt><trkpt lat="41.97305496614738" lon="12.761300662672216"><ele>70.0</ele><time>2026-05-03T15:35:51Z</time></trkpt><trkpt lat="41.97312113491824" lon="12.761194066404999"><ele>70.0</ele><time>2026-05-03T15:35:52Z</time></trkpt><trkpt lat="41.973191218080885" lon="12.761081181772697"><ele>70.0</ele><time>2026-05-03T15:35:53Z</time></trkpt><trkpt lat="41.973255558937524" lon="12.760946510635502"><ele>70.0</ele><time>2026-05-03T15:35:54Z</time></trkpt><trkpt lat="41.97332836981178" lon="12.760813370987227"><ele>70.0</ele><time>2026-05-03T15:35:55Z</time></trkpt><trkpt lat="41.97339179556865" lon="12.760669695976587"><ele>70.0</ele><time>2026-05-03T15:35:56Z</time></trkpt><trkpt lat="41.97344317749726" lon="12.760495663407532"><ele>70.0</ele><time>2026-05-03T15:35:57Z</time></trkpt><trkpt lat="41.973527088062966" lon="12.760323068015657"><ele>70.0</ele><time>2026-05-03T15:35:58Z</time></trkpt><trkpt lat="41.97360982330105" lon="12.760118684390434"><ele>70.25</ele><time>2026-05-03T15:35:59Z</time></trkpt><trkpt lat="41.97367896080446" lon="12.759949032252802"><ele>70.5</ele><time>2026-05-03T15:36:00Z</time></trkpt><trkpt lat="41.973730178087415" lon="12.759797654424261"><ele>70.75</ele><time>2026-05-03T15:36:01Z</time></trkpt><trkpt lat="41.97378689523212" lon="12.759650166845224"><ele>71.0</ele><time>2026-05-03T15:36:02Z</time></trkpt><trkpt lat="41.97383914985147" lon="12.759492992802244"><ele>70.66666666666667</ele><time>2026-05-03T15:36:03Z</time></trkpt><trkpt lat="41.97390650371392" lon="12.75931903803055"><ele>70.33333333333333</ele><time>2026-05-03T15:36:04Z</time></trkpt><trkpt lat="41.97393372918133" lon="12.759082989164158"><ele>70.0</ele><time>2026-05-03T15:36:05Z</time></trkpt><trkpt lat="41.97399762860363" lon="12.758850761855195"><ele>70.0</ele><time>2026-05-03T15:36:06Z</time></trkpt><trkpt lat="41.97406529484206" lon="12.758630046897284"><ele>70.0</ele><time>2026-05-03T15:36:07Z</time></trkpt><trkpt lat="41.97412213448832" lon="12.758417795393267"><ele>70.0</ele><time>2026-05-03T15:36:08Z</time></trkpt><trkpt lat="41.97417262607843" lon="12.75820880970373"><ele>71.0</ele><time>2026-05-03T15:36:09Z</time></trkpt><trkpt lat="41.974224160780224" lon="12.75800950122747"><ele>72.0</ele><time>2026-05-03T15:36:10Z</time></trkpt><trkpt lat="41.97428416333888" lon="12.757819914315748"><ele>73.0</ele><time>2026-05-03T15:36:11Z</time></trkpt><trkpt lat="41.97434230513672" lon="12.757637050440927"><ele>73.0</ele><time>2026-05-03T15:36:12Z</time></trkpt><trkpt lat="41.97439636776258" lon="12.757451510344584"><ele>73.0</ele><time>2026-05-03T15:36:13Z</time></trkpt><trkpt lat="41.97445000672988" lon="12.757273444885717"><ele>73.0</ele><time>2026-05-03T15:36:14Z</time></trkpt><trkpt lat="41.974501299825384" lon="12.75710663365835"><ele>73.0</ele><time>2026-05-03T15:36:15Z</time></trkpt><trkpt lat="41.97455364683105" lon="12.756950308368033"><ele>73.0</ele><time>2026-05-03T15:36:16Z</time></trkpt><trkpt lat="41.97460332434239" lon="12.756799502930354"><ele>73.0</ele><time>2026-05-03T15:36:17Z</time></trkpt><trkpt lat="41.97465193348725" lon="12.756679207083076"><ele>73.0</ele><time>2026-05-03T15:36:17.999Z</time></trkpt><trkpt lat="41.97469382560256" lon="12.756535528174005"><ele>73.0</ele><time>2026-05-03T15:36:18.999Z</time></trkpt><trkpt lat="41.974742531571266" lon="12.756424520252718"><ele>73.0</ele><time>2026-05-03T15:36:19.999Z</time></trkpt><trkpt lat="41.974793047379386" lon="12.75630936493643"><ele>73.0</ele><time>2026-05-03T15:36:20.999Z</time></trkpt><trkpt lat="41.97483984402568" lon="12.756214893163206"><ele>73.0</ele><time>2026-05-03T15:36:21.999Z</time></trkpt><trkpt lat="41.974883299001185" lon="12.756110419635512"><ele>73.0</ele><time>2026-05-03T15:36:22.999Z</time></trkpt><trkpt lat="41.97492962599817" lon="12.755998709439393"><ele>73.0</ele><time>2026-05-03T15:36:23.999Z</time></trkpt><trkpt lat="41.97500052958065" lon="12.755840209189945"><ele>73.0</ele><time>2026-05-03T15:36:24.999Z</time></trkpt><trkpt lat="41.97506072492409" lon="12.755643661522509"><ele>72.66666666666666</ele><time>2026-05-03T15:36:25.999Z</time></trkpt><trkpt lat="41.975138348601256" lon="12.755431234803732"><ele>72.33333333333333</ele><time>2026-05-03T15:36:26.999Z</time></trkpt><trkpt lat="41.97521845978242" lon="12.755181548298706"><ele>72.0</ele><time>2026-05-03T15:36:27.999Z</time></trkpt><trkpt lat="41.97528933588706" lon="12.754943464602736"><ele>72.0</ele><time>2026-05-03T15:36:28.999Z</time></trkpt><trkpt lat="41.975357822511" lon="12.754693811386693"><ele>72.0</ele><time>2026-05-03T15:36:29.999Z</time></trkpt><trkpt lat="41.97543257821647" lon="12.754441235019979"><ele>72.0</ele><time>2026-05-03T15:36:30.999Z</time></trkpt><trkpt lat="41.97550676412073" lon="12.754183985064845"><ele>72.33333333333333</ele><time>2026-05-03T15:36:31.999Z</time></trkpt><trkpt lat="41.975583160175375" lon="12.753920671439309"><ele>72.66666666666666</ele><time>2026-05-03T15:36:32.999Z</time></trkpt><trkpt lat="41.975660445515544" lon="12.753653966099858"><ele>73.0</ele><time>2026-05-03T15:36:33.999Z</time></trkpt><trkpt lat="41.975737230104" lon="12.753389100813868"><ele>73.0</ele><time>2026-05-03T15:36:34.999Z</time></trkpt><trkpt lat="41.97581044507265" lon="12.753129201355716"><ele>73.0</ele><time>2026-05-03T15:36:35.999Z</time></trkpt><trkpt lat="41.975870215642516" lon="12.752866904636766"><ele>73.0</ele><time>2026-05-03T15:36:36.999Z</time></trkpt><trkpt lat="41.97591810949125" lon="12.752606764935445"><ele>72.66666666666666</ele><time>2026-05-03T15:36:37.999Z</time></trkpt><trkpt lat="41.97595761700774" lon="12.752362688226263"><ele>72.33333333333333</ele><time>2026-05-03T15:36:38.999Z</time></trkpt><trkpt lat="41.976005034094456" lon="12.752138736976697"><ele>72.0</ele><time>2026-05-03T15:36:39.999Z</time></trkpt><trkpt lat="41.97607238219985" lon="12.75192369725962"><ele>72.66666666666667</ele><time>2026-05-03T15:36:40.999Z</time></trkpt><trkpt lat="41.97614979349728" lon="12.751692682486057"><ele>73.33333333333334</ele><time>2026-05-03T15:36:41.999Z</time></trkpt><trkpt lat="41.976228987056096" lon="12.751528867995319"><ele>74.0</ele><time>2026-05-03T15:36:42.999Z</time></trkpt><trkpt lat="41.97631187838395" lon="12.751404131089146"><ele>74.0</ele><time>2026-05-03T15:36:43.999Z</time></trkpt><trkpt lat="41.976393960541714" lon="12.751273064584622"><ele>74.0</ele><time>2026-05-03T15:36:44.999Z</time></trkpt><trkpt lat="41.97649470753988" lon="12.751146972045932"><ele>74.0</ele><time>2026-05-03T15:36:45.999Z</time></trkpt><trkpt lat="41.97659959608454" lon="12.751052582596158"><ele>74.0</ele><time>2026-05-03T15:36:46.999Z</time></trkpt><trkpt lat="41.97669462113365" lon="12.750976323469583"><ele>73.60000000000001</ele><time>2026-05-03T15:36:47.999Z</time></trkpt><trkpt lat="41.976791087096046" lon="12.750910733106876"><ele>73.2</ele><time>2026-05-03T15:36:48.999Z</time></trkpt><trkpt lat="41.976899160506306" lon="12.750851447344912"><ele>72.80000000000001</ele><time>2026-05-03T15:36:49.999Z</time></trkpt><trkpt lat="41.97699074963143" lon="12.75083096198303"><ele>72.4</ele><time>2026-05-03T15:36:50.999Z</time></trkpt><trkpt lat="41.977090657862995" lon="12.750799992572347"><ele>72.0</ele><time>2026-05-03T15:36:51.999Z</time></trkpt><trkpt lat="41.97718460093163" lon="12.750767900815136"><ele>72.0</ele><time>2026-05-03T15:36:52.999Z</time></trkpt><trkpt lat="41.977261461366055" lon="12.750736133724589"><ele>72.0</ele><time>2026-05-03T15:36:53.999Z</time></trkpt><trkpt lat="41.977323407709726" lon="12.750707820258429"><ele>72.0</ele><time>2026-05-03T15:36:54.999Z</time></trkpt><trkpt lat="41.977398908266544" lon="12.750638642199954"><ele>72.0</ele><time>2026-05-03T15:36:56.999Z</time></trkpt><trkpt lat="41.977377104629255" lon="12.750492092828706"><ele>72.0</ele><time>2026-05-03T15:36:57.999Z</time></trkpt><trkpt lat="41.97734264924984" lon="12.750393373548334"><ele>72.0</ele><time>2026-05-03T15:36:58.999Z</time></trkpt><trkpt lat="41.97730526471297" lon="12.750295641833425"><ele>72.25</ele><time>2026-05-03T15:36:59.999Z</time></trkpt><trkpt lat="41.97728539959824" lon="12.750165175095965"><ele>72.5</ele><time>2026-05-03T15:37:00.999Z</time></trkpt><trkpt lat="41.977300264711836" lon="12.7499909508265"><ele>72.75</ele><time>2026-05-03T15:37:01.999Z</time></trkpt><trkpt lat="41.97734064804101" lon="12.749800866117642"><ele>73.0</ele><time>2026-05-03T15:37:02.999Z</time></trkpt><trkpt lat="41.97738926568999" lon="12.749600895891016"><ele>73.0</ele><time>2026-05-03T15:37:03.999Z</time></trkpt><trkpt lat="41.977428185931025" lon="12.749395687175902"><ele>73.0</ele><time>2026-05-03T15:37:04.999Z</time></trkpt><trkpt lat="41.977473243379734" lon="12.749190890546233"><ele>73.0</ele><time>2026-05-03T15:37:05.999Z</time></trkpt><trkpt lat="41.977502817844105" lon="12.748965598877604"><ele>71.66666666666666</ele><time>2026-05-03T15:37:06.999Z</time></trkpt><trkpt lat="41.97753551737367" lon="12.74873868208702"><ele>70.33333333333333</ele><time>2026-05-03T15:37:07.999Z</time></trkpt><trkpt lat="41.97756607100651" lon="12.7485150750361"><ele>69.0</ele><time>2026-05-03T15:37:08.999Z</time></trkpt><trkpt lat="41.977580399924605" lon="12.748289598918529"><ele>68.0</ele><time>2026-05-03T15:37:09.999Z</time></trkpt><trkpt lat="41.97758475309053" lon="12.748039346804001"><ele>67.0</ele><time>2026-05-03T15:37:10.999Z</time></trkpt><trkpt lat="41.977567002080185" lon="12.747785976088034"><ele>66.0</ele><time>2026-05-03T15:37:11.999Z</time></trkpt><trkpt lat="41.97754130457339" lon="12.747537027771012"><ele>67.0</ele><time>2026-05-03T15:37:12.999Z</time></trkpt><trkpt lat="41.9775046972549" lon="12.747290740166626"><ele>68.0</ele><time>2026-05-03T15:37:13.999Z</time></trkpt><trkpt lat="41.977462283298166" lon="12.74704591542417"><ele>69.0</ele><time>2026-05-03T15:37:14.999Z</time></trkpt><trkpt lat="41.97742687957763" lon="12.746808425947565"><ele>69.66666666666667</ele><time>2026-05-03T15:37:15.999Z</time></trkpt><trkpt lat="41.97739488673271" lon="12.746570871842358"><ele>70.33333333333334</ele><time>2026-05-03T15:37:16.999Z</time></trkpt><trkpt lat="41.97737348248206" lon="12.746335092277164"><ele>71.0</ele><time>2026-05-03T15:37:17.999Z</time></trkpt><trkpt lat="41.97736871285412" lon="12.746106603107718"><ele>71.66666666666667</ele><time>2026-05-03T15:37:18.999Z</time></trkpt><trkpt lat="41.97738760951738" lon="12.745871892167209"><ele>72.33333333333333</ele><time>2026-05-03T15:37:19.999Z</time></trkpt><trkpt lat="41.9774139973841" lon="12.745646182152518"><ele>73.0</ele><time>2026-05-03T15:37:20.999Z</time></trkpt><trkpt lat="41.97744990078884" lon="12.745438341764897"><ele>73.0</ele><time>2026-05-03T15:37:21.999Z</time></trkpt><trkpt lat="41.977492289664845" lon="12.745223471013558"><ele>73.0</ele><time>2026-05-03T15:37:22.999Z</time></trkpt><trkpt lat="41.977537624779494" lon="12.745001967003844"><ele>73.0</ele><time>2026-05-03T15:37:23.999Z</time></trkpt><trkpt lat="41.9776017362318" lon="12.744776267958608"><ele>72.33333333333333</ele><time>2026-05-03T15:37:24.999Z</time></trkpt><trkpt lat="41.977668378924555" lon="12.744528502412487"><ele>71.66666666666667</ele><time>2026-05-03T15:37:25.999Z</time></trkpt><trkpt lat="41.97772622680828" lon="12.744271544676764"><ele>71.0</ele><time>2026-05-03T15:37:26.999Z</time></trkpt><trkpt lat="41.97780298680539" lon="12.744011632105675"><ele>70.66666666666667</ele><time>2026-05-03T15:37:27.999Z</time></trkpt><trkpt lat="41.97786968837447" lon="12.743747766029648"><ele>70.33333333333333</ele><time>2026-05-03T15:37:28.999Z</time></trkpt><trkpt lat="41.977934590919325" lon="12.74348619935681"><ele>70.0</ele><time>2026-05-03T15:37:29.999Z</time></trkpt><trkpt lat="41.97799959352081" lon="12.743225726487793"><ele>68.66666666666666</ele><time>2026-05-03T15:37:30.999Z</time></trkpt><trkpt lat="41.9780638261193" lon="12.742979433928744"><ele>67.33333333333333</ele><time>2026-05-03T15:37:31.999Z</time></trkpt><trkpt lat="41.97812554842064" lon="12.742739486532587"><ele>66.0</ele><time>2026-05-03T15:37:32.999Z</time></trkpt><trkpt lat="41.978185739626284" lon="12.742514983535427"><ele>66.0</ele><time>2026-05-03T15:37:33.999Z</time></trkpt><trkpt lat="41.97823707284126" lon="12.742280339316487"><ele>66.0</ele><time>2026-05-03T15:37:34.999Z</time></trkpt><trkpt lat="41.97829509271213" lon="12.742064562337502"><ele>66.0</ele><time>2026-05-03T15:37:35.999Z</time></trkpt><trkpt lat="41.97835432762821" lon="12.741842956986433"><ele>67.0</ele><time>2026-05-03T15:37:36.999Z</time></trkpt><trkpt lat="41.978411518194605" lon="12.741637352705919"><ele>68.0</ele><time>2026-05-03T15:37:37.999Z</time></trkpt><trkpt lat="41.97849075695198" lon="12.741429884562406"><ele>69.0</ele><time>2026-05-03T15:37:38.999Z</time></trkpt><trkpt lat="41.97855889014296" lon="12.741235696734622"><ele>70.33333333333333</ele><time>2026-05-03T15:37:39.999Z</time></trkpt><trkpt lat="41.97862108536395" lon="12.741040525963363"><ele>71.66666666666666</ele><time>2026-05-03T15:37:40.999Z</time></trkpt><trkpt lat="41.978710434445155" lon="12.740848665090319"><ele>73.0</ele><time>2026-05-03T15:37:41.999Z</time></trkpt><trkpt lat="41.97880741693751" lon="12.740653976143353"><ele>73.0</ele><time>2026-05-03T15:37:42.999Z</time></trkpt><trkpt lat="41.97891108044766" lon="12.740466437730158"><ele>73.0</ele><time>2026-05-03T15:37:43.999Z</time></trkpt><trkpt lat="41.979016055726646" lon="12.740282268269226"><ele>73.0</ele><time>2026-05-03T15:37:44.999Z</time></trkpt><trkpt lat="41.979134991560244" lon="12.740094044699633"><ele>73.0</ele><time>2026-05-03T15:37:45.999Z</time></trkpt><trkpt lat="41.979284928976824" lon="12.739902015441713"><ele>73.0</ele><time>2026-05-03T15:37:47Z</time></trkpt><trkpt lat="41.9794337958141" lon="12.739692276728093"><ele>73.0</ele><time>2026-05-03T15:37:48Z</time></trkpt><trkpt lat="41.97956666151206" lon="12.739478943731196"><ele>72.66666666666666</ele><time>2026-05-03T15:37:49Z</time></trkpt><trkpt lat="41.97970813456104" lon="12.739285788280894"><ele>72.33333333333333</ele><time>2026-05-03T15:37:50Z</time></trkpt><trkpt lat="41.97985495442175" lon="12.73908240722934"><ele>72.0</ele><time>2026-05-03T15:37:51Z</time></trkpt><trkpt lat="41.98001020623942" lon="12.738886388278228"><ele>72.0</ele><time>2026-05-03T15:37:52Z</time></trkpt><trkpt lat="41.98016507370548" lon="12.738669707850706"><ele>72.0</ele><time>2026-05-03T15:37:53Z</time></trkpt><trkpt lat="41.980321371717714" lon="12.738462074119456"><ele>72.0</ele><time>2026-05-03T15:37:54Z</time></trkpt><trkpt lat="41.98047461256418" lon="12.738235777397243"><ele>72.5</ele><time>2026-05-03T15:37:55Z</time></trkpt><trkpt lat="41.98061979351293" lon="12.738004274277923"><ele>73.0</ele><time>2026-05-03T15:37:56Z</time></trkpt><trkpt lat="41.98076736060049" lon="12.737775841687723"><ele>73.5</ele><time>2026-05-03T15:37:57Z</time></trkpt><trkpt lat="41.98091785576322" lon="12.737550174028748"><ele>74.0</ele><time>2026-05-03T15:37:58Z</time></trkpt><trkpt lat="41.98106828685079" lon="12.737322079582444"><ele>74.0</ele><time>2026-05-03T15:37:59Z</time></trkpt><trkpt lat="41.981215661114526" lon="12.737103590739201"><ele>74.0</ele><time>2026-05-03T15:38:00Z</time></trkpt><trkpt lat="41.9813511533058" lon="12.736875596412597"><ele>74.0</ele><time>2026-05-03T15:38:01Z</time></trkpt><trkpt lat="41.98147454377324" lon="12.73662644171874"><ele>74.0</ele><time>2026-05-03T15:38:02Z</time></trkpt><trkpt lat="41.981604126455835" lon="12.736355645272058"><ele>74.0</ele><time>2026-05-03T15:38:03Z</time></trkpt><trkpt lat="41.98173828875641" lon="12.736091056745552"><ele>74.66666666666667</ele><time>2026-05-03T15:38:03.999Z</time></trkpt><trkpt lat="41.98184689983105" lon="12.735828817175836"><ele>75.33333333333333</ele><time>2026-05-03T15:38:04.999Z</time></trkpt><trkpt lat="41.981946317157" lon="12.735568103960984"><ele>76.0</ele><time>2026-05-03T15:38:05.999Z</time></trkpt><trkpt lat="41.982018815366395" lon="12.735283344029943"><ele>76.0</ele><time>2026-05-03T15:38:06.999Z</time></trkpt><trkpt lat="41.982094611240896" lon="12.73498536840713"><ele>76.0</ele><time>2026-05-03T15:38:07.999Z</time></trkpt><trkpt lat="41.98215934206931" lon="12.734727182341661"><ele>76.0</ele><time>2026-05-03T15:38:08.999Z</time></trkpt><trkpt lat="41.98221149770311" lon="12.734448558786998"><ele>75.0</ele><time>2026-05-03T15:38:09.999Z</time></trkpt><trkpt lat="41.98225747839259" lon="12.734164390704244"><ele>74.0</ele><time>2026-05-03T15:38:10.999Z</time></trkpt><trkpt lat="41.98229318213345" lon="12.73388257974999"><ele>73.0</ele><time>2026-05-03T15:38:11.999Z</time></trkpt><trkpt lat="41.982310906769165" lon="12.733598775654512"><ele>73.66666666666666</ele><time>2026-05-03T15:38:12.999Z</time></trkpt><trkpt lat="41.982330242037854" lon="12.73331675182921"><ele>74.33333333333333</ele><time>2026-05-03T15:38:13.999Z</time></trkpt><trkpt lat="41.982350405866455" lon="12.733052427604122"><ele>75.0</ele><time>2026-05-03T15:38:14.999Z</time></trkpt><trkpt lat="41.98236898932871" lon="12.73280110191494"><ele>75.0</ele><time>2026-05-03T15:38:15.999Z</time></trkpt><trkpt lat="41.98238873571237" lon="12.732548242436481"><ele>75.0</ele><time>2026-05-03T15:38:16.999Z</time></trkpt><trkpt lat="41.98240688241888" lon="12.732298986977836"><ele>75.0</ele><time>2026-05-03T15:38:17.999Z</time></trkpt><trkpt lat="41.98242206557697" lon="12.732068760200763"><ele>75.0</ele><time>2026-05-03T15:38:18.999Z</time></trkpt><trkpt lat="41.98245777943729" lon="12.731849786919046"><ele>75.0</ele><time>2026-05-03T15:38:19.999Z</time></trkpt><trkpt lat="41.982459334023225" lon="12.731649028329887"><ele>75.0</ele><time>2026-05-03T15:38:20.999Z</time></trkpt><trkpt lat="41.98247142571955" lon="12.731475796117259"><ele>75.0</ele><time>2026-05-03T15:38:21.999Z</time></trkpt><trkpt lat="41.98249461576707" lon="12.731323889143518"><ele>75.2</ele><time>2026-05-03T15:38:22.999Z</time></trkpt><trkpt lat="41.98253787331813" lon="12.73121488780419"><ele>75.4</ele><time>2026-05-03T15:38:23.999Z</time></trkpt><trkpt lat="41.982598861636795" lon="12.731111767085364"><ele>75.6</ele><time>2026-05-03T15:38:24.998Z</time></trkpt><trkpt lat="41.98269317619045" lon="12.731017896248076"><ele>75.8</ele><time>2026-05-03T15:38:25.998Z</time></trkpt><trkpt lat="41.98279841747446" lon="12.73092199091411"><ele>76.0</ele><time>2026-05-03T15:38:26.998Z</time></trkpt><trkpt lat="41.982880493627434" lon="12.73079642920643"><ele>76.5</ele><time>2026-05-03T15:38:27.998Z</time></trkpt><trkpt lat="41.982920617153475" lon="12.730619608831134"><ele>77.0</ele><time>2026-05-03T15:38:28.998Z</time></trkpt><trkpt lat="41.98294203912653" lon="12.730438804606836"><ele>77.5</ele><time>2026-05-03T15:38:29.998Z</time></trkpt><trkpt lat="41.982931617557824" lon="12.730261875883327"><ele>78.0</ele><time>2026-05-03T15:38:30.998Z</time></trkpt><trkpt lat="41.982897413157595" lon="12.730091147974864"><ele>78.0</ele><time>2026-05-03T15:38:31.998Z</time></trkpt><trkpt lat="41.982868229392814" lon="12.729936467471786"><ele>78.0</ele><time>2026-05-03T15:38:32.998Z</time></trkpt><trkpt lat="41.98285739021568" lon="12.729772179322778"><ele>78.0</ele><time>2026-05-03T15:38:33.998Z</time></trkpt><trkpt lat="41.982861474996895" lon="12.729595069571499"><ele>78.0</ele><time>2026-05-03T15:38:34.998Z</time></trkpt><trkpt lat="41.98294380295653" lon="12.729398980946248"><ele>77.33333333333333</ele><time>2026-05-03T15:38:35.998Z</time></trkpt><trkpt lat="41.983034682459646" lon="12.729189993418892"><ele>76.66666666666666</ele><time>2026-05-03T15:38:36.998Z</time></trkpt><trkpt lat="41.98314012126985" lon="12.728973339372624"><ele>76.0</ele><time>2026-05-03T15:38:37.998Z</time></trkpt><trkpt lat="41.98325233057375" lon="12.728760027490832"><ele>76.33333333333333</ele><time>2026-05-03T15:38:38.998Z</time></trkpt><trkpt lat="41.98336090891467" lon="12.728551258047156"><ele>76.66666666666667</ele><time>2026-05-03T15:38:39.998Z</time></trkpt><trkpt lat="41.98346845937098" lon="12.728350738308379"><ele>77.0</ele><time>2026-05-03T15:38:40.998Z</time></trkpt><trkpt lat="41.983579727352826" lon="12.728144914465648"><ele>77.0</ele><time>2026-05-03T15:38:41.998Z</time></trkpt><trkpt lat="41.98369225145291" lon="12.727928405103178"><ele>77.0</ele><time>2026-05-03T15:38:42.998Z</time></trkpt><trkpt lat="41.983810312408565" lon="12.72771792398571"><ele>77.0</ele><time>2026-05-03T15:38:43.998Z</time></trkpt><trkpt lat="41.983932107777854" lon="12.727494245472935"><ele>77.0</ele><time>2026-05-03T15:38:44.998Z</time></trkpt><trkpt lat="41.98405313834025" lon="12.72727287195109"><ele>77.0</ele><time>2026-05-03T15:38:45.998Z</time></trkpt><trkpt lat="41.98417760883594" lon="12.727046363692656"><ele>77.0</ele><time>2026-05-03T15:38:46.998Z</time></trkpt><trkpt lat="41.984298014884466" lon="12.726818777429386"><ele>77.33333333333334</ele><time>2026-05-03T15:38:47.998Z</time></trkpt><trkpt lat="41.98442519698459" lon="12.726592280269319"><ele>77.66666666666667</ele><time>2026-05-03T15:38:48.998Z</time></trkpt><trkpt lat="41.98455091158473" lon="12.726363779211647"><ele>78.0</ele><time>2026-05-03T15:38:49.998Z</time></trkpt><trkpt lat="41.98467900328586" lon="12.7261289710433"><ele>78.0</ele><time>2026-05-03T15:38:50.998Z</time></trkpt><trkpt lat="41.984809752120285" lon="12.72587462815473"><ele>78.0</ele><time>2026-05-03T15:38:51.998Z</time></trkpt><trkpt lat="41.98493677929832" lon="12.725609407903285"><ele>79.0</ele><time>2026-05-03T15:38:52.998Z</time></trkpt><trkpt lat="41.985088887969376" lon="12.72534282299362"><ele>80.0</ele><time>2026-05-03T15:38:53.998Z</time></trkpt><trkpt lat="41.98522622040029" lon="12.725092883350566"><ele>81.0</ele><time>2026-05-03T15:38:54.998Z</time></trkpt><trkpt lat="41.98530757610276" lon="12.724765423496034"><ele>82.0</ele><time>2026-05-03T15:38:55.998Z</time></trkpt><trkpt lat="41.98538711640641" lon="12.724491847952944"><ele>82.66666666666666</ele><time>2026-05-03T15:38:56.998Z</time></trkpt><trkpt lat="41.98547276244523" lon="12.724223644808482"><ele>83.33333333333333</ele><time>2026-05-03T15:38:57.998Z</time></trkpt><trkpt lat="41.985543638663316" lon="12.72394495067799"><ele>84.0</ele><time>2026-05-03T15:38:58.998Z</time></trkpt><trkpt lat="41.98559766261085" lon="12.723663639399764"><ele>84.33333333333333</ele><time>2026-05-03T15:38:59.998Z</time></trkpt><trkpt lat="41.985644673140364" lon="12.723376878812722"><ele>84.66666666666666</ele><time>2026-05-03T15:39:00.998Z</time></trkpt><trkpt lat="41.98567940315017" lon="12.723081942144198"><ele>85.0</ele><time>2026-05-03T15:39:01.998Z</time></trkpt><trkpt lat="41.98570535324663" lon="12.722799765266055"><ele>85.33333333333333</ele><time>2026-05-03T15:39:02.998Z</time></trkpt><trkpt lat="41.98573069262661" lon="12.722520607893518"><ele>85.66666666666667</ele><time>2026-05-03T15:39:03.998Z</time></trkpt><trkpt lat="41.98574822829178" lon="12.722241635260758"><ele>86.0</ele><time>2026-05-03T15:39:04.998Z</time></trkpt><trkpt lat="41.98576611288129" lon="12.721979143435783"><ele>86.0</ele><time>2026-05-03T15:39:05.998Z</time></trkpt><trkpt lat="41.98578597846997" lon="12.721736539291982"><ele>86.0</ele><time>2026-05-03T15:39:06.998Z</time></trkpt><trkpt lat="41.985799894254136" lon="12.72151203360505"><ele>86.0</ele><time>2026-05-03T15:39:07.998Z</time></trkpt><trkpt lat="41.98582193721251" lon="12.721281896408506"><ele>86.0</ele><time>2026-05-03T15:39:08.998Z</time></trkpt><trkpt lat="41.98583373627721" lon="12.72104383870068"><ele>86.0</ele><time>2026-05-03T15:39:09.998Z</time></trkpt><trkpt lat="41.985840722977095" lon="12.720796722003612"><ele>86.0</ele><time>2026-05-03T15:39:10.998Z</time></trkpt><trkpt lat="41.98583886718163" lon="12.720537056492185"><ele>86.0</ele><time>2026-05-03T15:39:11.998Z</time></trkpt><trkpt lat="41.985814625127404" lon="12.720278161546855"><ele>86.0</ele><time>2026-05-03T15:39:12.998Z</time></trkpt><trkpt lat="41.98579003920866" lon="12.719977722157239"><ele>86.0</ele><time>2026-05-03T15:39:13.998Z</time></trkpt><trkpt lat="41.98571770222126" lon="12.719758738249118"><ele>86.33333333333334</ele><time>2026-05-03T15:39:14.998Z</time></trkpt><trkpt lat="41.98564139148237" lon="12.71951760669233"><ele>86.66666666666667</ele><time>2026-05-03T15:39:15.998Z</time></trkpt><trkpt lat="41.985547439609064" lon="12.719282729784842"><ele>87.0</ele><time>2026-05-03T15:39:16.998Z</time></trkpt><trkpt lat="41.98544100035001" lon="12.719044143160648"><ele>87.0</ele><time>2026-05-03T15:39:17.998Z</time></trkpt><trkpt lat="41.98531707811955" lon="12.71884013139824"><ele>87.0</ele><time>2026-05-03T15:39:18.998Z</time></trkpt><trkpt lat="41.98519208787207" lon="12.718642480659797"><ele>87.0</ele><time>2026-05-03T15:39:19.998Z</time></trkpt><trkpt lat="41.9850635613692" lon="12.718454564478913"><ele>87.33333333333333</ele><time>2026-05-03T15:39:20.998Z</time></trkpt><trkpt lat="41.98493782538366" lon="12.718261956224499"><ele>87.66666666666666</ele><time>2026-05-03T15:39:21.998Z</time></trkpt><trkpt lat="41.984812094189316" lon="12.7180679432615"><ele>88.0</ele><time>2026-05-03T15:39:22.998Z</time></trkpt><trkpt lat="41.98468407402442" lon="12.717871429845289"><ele>88.33333333333333</ele><time>2026-05-03T15:39:23.998Z</time></trkpt><trkpt lat="41.984558015224806" lon="12.717655263043282"><ele>88.66666666666667</ele><time>2026-05-03T15:39:24.998Z</time></trkpt><trkpt lat="41.98442409508574" lon="12.717447976810265"><ele>89.0</ele><time>2026-05-03T15:39:25.998Z</time></trkpt><trkpt lat="41.98427647822401" lon="12.71724571051702"><ele>88.66666666666667</ele><time>2026-05-03T15:39:26.998Z</time></trkpt><trkpt lat="41.98414601828201" lon="12.717025518151683"><ele>88.33333333333333</ele><time>2026-05-03T15:39:27.998Z</time></trkpt><trkpt lat="41.98401182938266" lon="12.716804180505122"><ele>88.0</ele><time>2026-05-03T15:39:28.998Z</time></trkpt><trkpt lat="41.98387093672055" lon="12.716583250250203"><ele>87.66666666666666</ele><time>2026-05-03T15:39:29.998Z</time></trkpt><trkpt lat="41.9837385861595" lon="12.716364288795239"><ele>87.33333333333333</ele><time>2026-05-03T15:39:30.998Z</time></trkpt><trkpt lat="41.98360304680612" lon="12.716145994329013"><ele>87.0</ele><time>2026-05-03T15:39:31.998Z</time></trkpt><trkpt lat="41.983478795967045" lon="12.715938409750434"><ele>87.0</ele><time>2026-05-03T15:39:32.997Z</time></trkpt><trkpt lat="41.98337409339504" lon="12.715727962810327"><ele>87.0</ele><time>2026-05-03T15:39:33.997Z</time></trkpt><trkpt lat="41.983300659502504" lon="12.715518605893752"><ele>87.0</ele><time>2026-05-03T15:39:34.997Z</time></trkpt><trkpt lat="41.983251009838554" lon="12.715297888529182"><ele>87.33333333333333</ele><time>2026-05-03T15:39:35.997Z</time></trkpt><trkpt lat="41.98322296579307" lon="12.715056455096407"><ele>87.66666666666666</ele><time>2026-05-03T15:39:36.997Z</time></trkpt><trkpt lat="41.98320895785606" lon="12.714803251496171"><ele>88.0</ele><time>2026-05-03T15:39:37.997Z</time></trkpt><trkpt lat="41.98319675110242" lon="12.71456312312403"><ele>88.33333333333333</ele><time>2026-05-03T15:39:38.997Z</time></trkpt><trkpt lat="41.98318151496004" lon="12.714334926781495"><ele>88.66666666666667</ele><time>2026-05-03T15:39:39.997Z</time></trkpt><trkpt lat="41.9831589152952" lon="12.714110499343924"><ele>89.0</ele><time>2026-05-03T15:39:40.997Z</time></trkpt><trkpt lat="41.9831352504947" lon="12.713884943690095"><ele>89.0</ele><time>2026-05-03T15:39:41.997Z</time></trkpt><trkpt lat="41.983104957604034" lon="12.713658898684841"><ele>89.0</ele><time>2026-05-03T15:39:42.997Z</time></trkpt><trkpt lat="41.983049025874095" lon="12.713447903250428"><ele>89.0</ele><time>2026-05-03T15:39:43.997Z</time></trkpt><trkpt lat="41.982962714611205" lon="12.713247007550347"><ele>90.66666666666667</ele><time>2026-05-03T15:39:44.997Z</time></trkpt><trkpt lat="41.982837275243604" lon="12.71305347758156"><ele>92.33333333333333</ele><time>2026-05-03T15:39:45.997Z</time></trkpt><trkpt lat="41.98269637385964" lon="12.712874702006433"><ele>94.0</ele><time>2026-05-03T15:39:46.997Z</time></trkpt><trkpt lat="41.982553558363854" lon="12.712705357318987"><ele>95.0</ele><time>2026-05-03T15:39:47.997Z</time></trkpt><trkpt lat="41.982420590975984" lon="12.712549684771778"><ele>96.0</ele><time>2026-05-03T15:39:48.997Z</time></trkpt><trkpt lat="41.98230666839853" lon="12.71236932701516"><ele>97.0</ele><time>2026-05-03T15:39:49.997Z</time></trkpt><trkpt lat="41.982222720886504" lon="12.712153246328016"><ele>97.0</ele><time>2026-05-03T15:39:50.997Z</time></trkpt><trkpt lat="41.98217028881422" lon="12.711910577604861"><ele>97.0</ele><time>2026-05-03T15:39:51.997Z</time></trkpt><trkpt lat="41.982123919903266" lon="12.711671899959729"><ele>97.0</ele><time>2026-05-03T15:39:52.999Z</time></trkpt><trkpt lat="41.982081042688634" lon="12.711445163257293"><ele>97.0</ele><time>2026-05-03T15:39:53.999Z</time></trkpt><trkpt lat="41.982041621333295" lon="12.71123503355898"><ele>97.0</ele><time>2026-05-03T15:39:54.999Z</time></trkpt><trkpt lat="41.981997120780385" lon="12.711029690382865"><ele>97.0</ele><time>2026-05-03T15:39:55.999Z</time></trkpt><trkpt lat="41.98193260700249" lon="12.71082131560403"><ele>97.33333333333334</ele><time>2026-05-03T15:39:56.999Z</time></trkpt><trkpt lat="41.98185974183256" lon="12.710594844646126"><ele>97.66666666666666</ele><time>2026-05-03T15:39:57.999Z</time></trkpt><trkpt lat="41.981797894382574" lon="12.71033397148417"><ele>98.0</ele><time>2026-05-03T15:39:58.999Z</time></trkpt><trkpt lat="41.98170412681978" lon="12.710087419701777"><ele>97.33333333333333</ele><time>2026-05-03T15:39:59.999Z</time></trkpt><trkpt lat="41.981635574306104" lon="12.709836368244298"><ele>96.66666666666666</ele><time>2026-05-03T15:40:00.999Z</time></trkpt><trkpt lat="41.98157644941826" lon="12.709590543097901"><ele>96.0</ele><time>2026-05-03T15:40:01.999Z</time></trkpt><trkpt lat="41.98150755150846" lon="12.70935902626597"><ele>95.66666666666667</ele><time>2026-05-03T15:40:02.999Z</time></trkpt><trkpt lat="41.981420729376914" lon="12.70915645079919"><ele>95.33333333333334</ele><time>2026-05-03T15:40:03.999Z</time></trkpt><trkpt lat="41.981325640187016" lon="12.709006626605923"><ele>95.0</ele><time>2026-05-03T15:40:04.999Z</time></trkpt><trkpt lat="41.981227776895544" lon="12.70888197061284"><ele>95.0</ele><time>2026-05-03T15:40:05.999Z</time></trkpt><trkpt lat="41.98113354420114" lon="12.708787476018673"><ele>95.0</ele><time>2026-05-03T15:40:06.999Z</time></trkpt><trkpt lat="41.98105088576063" lon="12.708675027710683"><ele>95.0</ele><time>2026-05-03T15:40:07.999Z</time></trkpt><trkpt lat="41.98095852681826" lon="12.70857681033132"><ele>95.0</ele><time>2026-05-03T15:40:09Z</time></trkpt><trkpt lat="41.98087703048936" lon="12.708518220687328"><ele>95.0</ele><time>2026-05-03T15:40:10Z</time></trkpt><trkpt lat="41.98082618471613" lon="12.70845867514577"><ele>95.0</ele><time>2026-05-03T15:40:11Z</time></trkpt><trkpt lat="41.98077585389255" lon="12.708402362967357"><ele>95.0</ele><time>2026-05-03T15:40:12Z</time></trkpt><trkpt lat="41.98070844004483" lon="12.708325871083517"><ele>95.0</ele><time>2026-05-03T15:40:13Z</time></trkpt><trkpt lat="41.98061135580546" lon="12.708234683687305"><ele>95.0</ele><time>2026-05-03T15:40:14Z</time></trkpt><trkpt lat="41.980484107992126" lon="12.70812015088127"><ele>95.0</ele><time>2026-05-03T15:40:15Z</time></trkpt><trkpt lat="41.98036062792609" lon="12.707985433760587"><ele>95.0</ele><time>2026-05-03T15:40:16Z</time></trkpt><trkpt lat="41.980240696769435" lon="12.707841479354398"><ele>95.0</ele><time>2026-05-03T15:40:17Z</time></trkpt><trkpt lat="41.98011869709397" lon="12.707696092043918"><ele>95.0</ele><time>2026-05-03T15:40:18Z</time></trkpt><trkpt lat="41.98000141217338" lon="12.707553246196506"><ele>95.66666666666667</ele><time>2026-05-03T15:40:19Z</time></trkpt><trkpt lat="41.97988614262235" lon="12.707399555882544"><ele>96.33333333333334</ele><time>2026-05-03T15:40:20Z</time></trkpt><trkpt lat="41.97976808950978" lon="12.70724270467245"><ele>97.0</ele><time>2026-05-03T15:40:21Z</time></trkpt><trkpt lat="41.97965073058272" lon="12.70707742378826"><ele>96.66666666666667</ele><time>2026-05-03T15:40:22Z</time></trkpt><trkpt lat="41.97953175510592" lon="12.706906237512975"><ele>96.33333333333334</ele><time>2026-05-03T15:40:23Z</time></trkpt><trkpt lat="41.979407016030024" lon="12.706725565208854"><ele>96.0</ele><time>2026-05-03T15:40:24Z</time></trkpt><trkpt lat="41.97928386487623" lon="12.706548934059485"><ele>95.0</ele><time>2026-05-03T15:40:25Z</time></trkpt><trkpt lat="41.97915142405632" lon="12.70637761795712"><ele>94.0</ele><time>2026-05-03T15:40:26Z</time></trkpt><trkpt lat="41.97900999912279" lon="12.70622289666189"><ele>93.0</ele><time>2026-05-03T15:40:27Z</time></trkpt><trkpt lat="41.97885415554128" lon="12.706082994269046"><ele>93.0</ele><time>2026-05-03T15:40:28Z</time></trkpt><trkpt lat="41.97867940439075" lon="12.705971180677187"><ele>93.0</ele><time>2026-05-03T15:40:29Z</time></trkpt><trkpt lat="41.9784946144647" lon="12.705881139789097"><ele>93.0</ele><time>2026-05-03T15:40:30Z</time></trkpt><trkpt lat="41.978314233854874" lon="12.705800638787538"><ele>93.0</ele><time>2026-05-03T15:40:31Z</time></trkpt><trkpt lat="41.97814369649458" lon="12.705714494241532"><ele>93.0</ele><time>2026-05-03T15:40:32Z</time></trkpt><trkpt lat="41.977979134547454" lon="12.705629300352983"><ele>93.0</ele><time>2026-05-03T15:40:33Z</time></trkpt><trkpt lat="41.97782215927508" lon="12.705552482498362"><ele>93.0</ele><time>2026-05-03T15:40:34Z</time></trkpt><trkpt lat="41.97766584581138" lon="12.705482749083531"><ele>93.0</ele><time>2026-05-03T15:40:35Z</time></trkpt><trkpt lat="41.97751529228968" lon="12.705417363538926"><ele>93.0</ele><time>2026-05-03T15:40:36Z</time></trkpt><trkpt lat="41.97737694429455" lon="12.705351867545994"><ele>93.0</ele><time>2026-05-03T15:40:37Z</time></trkpt><trkpt lat="41.977252709303414" lon="12.705287519145907"><ele>93.0</ele><time>2026-05-03T15:40:38Z</time></trkpt><trkpt lat="41.977158839947045" lon="12.7052286425996"><ele>93.0</ele><time>2026-05-03T15:40:39Z</time></trkpt><trkpt lat="41.97708163036403" lon="12.705178584476307"><ele>93.0</ele><time>2026-05-03T15:40:40Z</time></trkpt><trkpt lat="41.9770149778517" lon="12.705133257905244"><ele>93.0</ele><time>2026-05-03T15:40:41Z</time></trkpt><trkpt lat="41.97690325621108" lon="12.705021635184195"><ele>93.75</ele><time>2026-05-03T15:40:43Z</time></trkpt><trkpt lat="41.9768255863532" lon="12.704952663048948"><ele>94.5</ele><time>2026-05-03T15:40:44Z</time></trkpt><trkpt lat="41.976718857076136" lon="12.704905529536468"><ele>95.25</ele><time>2026-05-03T15:40:45Z</time></trkpt><trkpt lat="41.97659705590777" lon="12.704835091457308"><ele>96.0</ele><time>2026-05-03T15:40:46Z</time></trkpt><trkpt lat="41.97647123505933" lon="12.70475091422543"><ele>96.0</ele><time>2026-05-03T15:40:47Z</time></trkpt><trkpt lat="41.97636079627775" lon="12.704579693348798"><ele>96.0</ele><time>2026-05-03T15:40:48Z</time></trkpt><trkpt lat="41.97626564908874" lon="12.70443530343619"><ele>96.0</ele><time>2026-05-03T15:40:49Z</time></trkpt><trkpt lat="41.97617251713489" lon="12.704285650306137"><ele>99.33333333333334</ele><time>2026-05-03T15:40:50Z</time></trkpt><trkpt lat="41.976084106539865" lon="12.704128816793238"><ele>102.66666666666667</ele><time>2026-05-03T15:40:51Z</time></trkpt><trkpt lat="41.97599434442192" lon="12.703956225799486"><ele>106.0</ele><time>2026-05-03T15:40:52Z</time></trkpt><trkpt lat="41.975913620489585" lon="12.70378258686494"><ele>104.75</ele><time>2026-05-03T15:40:53Z</time></trkpt><trkpt lat="41.97584354913373" lon="12.703607316671578"><ele>103.5</ele><time>2026-05-03T15:40:54Z</time></trkpt><trkpt lat="41.975779245217645" lon="12.703440294017831"><ele>102.25</ele><time>2026-05-03T15:40:55Z</time></trkpt><trkpt lat="41.975716343587735" lon="12.703271319107836"><ele>101.0</ele><time>2026-05-03T15:40:56Z</time></trkpt><trkpt lat="41.97566150625095" lon="12.703091003763461"><ele>101.0</ele><time>2026-05-03T15:40:57Z</time></trkpt><trkpt lat="41.97561660548319" lon="12.702910401315863"><ele>101.0</ele><time>2026-05-03T15:40:58Z</time></trkpt><trkpt lat="41.97553474114653" lon="12.70275998188658"><ele>101.0</ele><time>2026-05-03T15:40:59Z</time></trkpt><trkpt lat="41.975461230514156" lon="12.702593846107849"><ele>101.0</ele><time>2026-05-03T15:41:00Z</time></trkpt><trkpt lat="41.975390255015775" lon="12.702433558035715"><ele>101.33333333333333</ele><time>2026-05-03T15:41:00.999Z</time></trkpt><trkpt lat="41.97531140624537" lon="12.702254129952369"><ele>101.66666666666666</ele><time>2026-05-03T15:41:01.999Z</time></trkpt><trkpt lat="41.97522915429484" lon="12.702065646658268"><ele>102.0</ele><time>2026-05-03T15:41:02.999Z</time></trkpt><trkpt lat="41.975144904632245" lon="12.70187185099848"><ele>102.33333333333334</ele><time>2026-05-03T15:41:03.999Z</time></trkpt><trkpt lat="41.97503942325809" lon="12.701638835815881"><ele>102.66666666666667</ele><time>2026-05-03T15:41:04.999Z</time></trkpt><trkpt lat="41.974936125161776" lon="12.701381490775084"><ele>103.0</ele><time>2026-05-03T15:41:05.999Z</time></trkpt><trkpt lat="41.974844375794916" lon="12.701111286429821"><ele>101.0</ele><time>2026-05-03T15:41:06.999Z</time></trkpt><trkpt lat="41.974759571481876" lon="12.700823024414982"><ele>99.0</ele><time>2026-05-03T15:41:07.999Z</time></trkpt><trkpt lat="41.974681551083755" lon="12.700536299382847"><ele>99.0</ele><time>2026-05-03T15:41:08.999Z</time></trkpt><trkpt lat="41.974596054366415" lon="12.700267691768977"><ele>99.0</ele><time>2026-05-03T15:41:09.999Z</time></trkpt><trkpt lat="41.97448158995667" lon="12.700001316519733"><ele>99.0</ele><time>2026-05-03T15:41:10.999Z</time></trkpt><trkpt lat="41.97441691232247" lon="12.699709528411374"><ele>99.0</ele><time>2026-05-03T15:41:11.999Z</time></trkpt><trkpt lat="41.974322985999954" lon="12.699428962356071"><ele>99.0</ele><time>2026-05-03T15:41:12.999Z</time></trkpt><trkpt lat="41.97422673837266" lon="12.69914386088228"><ele>98.5</ele><time>2026-05-03T15:41:13.999Z</time></trkpt><trkpt lat="41.974124029037576" lon="12.69886029427895"><ele>98.0</ele><time>2026-05-03T15:41:14.999Z</time></trkpt><trkpt lat="41.97401528905291" lon="12.698588831352858"><ele>99.0</ele><time>2026-05-03T15:41:15.999Z</time></trkpt><trkpt lat="41.97390931520825" lon="12.69832326775382"><ele>100.0</ele><time>2026-05-03T15:41:16.999Z</time></trkpt><trkpt lat="41.97380453898669" lon="12.698071328368346"><ele>101.0</ele><time>2026-05-03T15:41:17.999Z</time></trkpt><trkpt lat="41.973715948139024" lon="12.697825822563507"><ele>101.33333333333333</ele><time>2026-05-03T15:41:18.999Z</time></trkpt><trkpt lat="41.97362139821085" lon="12.697596881574864"><ele>101.66666666666666</ele><time>2026-05-03T15:41:19.999Z</time></trkpt><trkpt lat="41.97351896903224" lon="12.69735236035831"><ele>102.0</ele><time>2026-05-03T15:41:20.999Z</time></trkpt><trkpt lat="41.97342408765814" lon="12.697104723628527"><ele>101.33333333333334</ele><time>2026-05-03T15:41:21.999Z</time></trkpt><trkpt lat="41.97332378639226" lon="12.696857333865179"><ele>100.66666666666667</ele><time>2026-05-03T15:41:22.999Z</time></trkpt><trkpt lat="41.97322132629223" lon="12.696606513796606"><ele>100.0</ele><time>2026-05-03T15:41:23.999Z</time></trkpt><trkpt lat="41.97311640810156" lon="12.696346382957328"><ele>100.0</ele><time>2026-05-03T15:41:24.999Z</time></trkpt><trkpt lat="41.97300453391773" lon="12.696088125477875"><ele>100.0</ele><time>2026-05-03T15:41:25.999Z</time></trkpt><trkpt lat="41.972889959130754" lon="12.69582057333506"><ele>100.0</ele><time>2026-05-03T15:41:26.999Z</time></trkpt><trkpt lat="41.972772803849864" lon="12.695537075837539"><ele>100.0</ele><time>2026-05-03T15:41:27.999Z</time></trkpt><trkpt lat="41.97264279158729" lon="12.695228092171536"><ele>100.0</ele><time>2026-05-03T15:41:28.999Z</time></trkpt><trkpt lat="41.972527605053706" lon="12.694915499376119"><ele>100.0</ele><time>2026-05-03T15:41:29.999Z</time></trkpt><trkpt lat="41.97240803264699" lon="12.69460123474416"><ele>99.0</ele><time>2026-05-03T15:41:30.999Z</time></trkpt><trkpt lat="41.97229121262321" lon="12.694316833529404"><ele>98.0</ele><time>2026-05-03T15:41:31.999Z</time></trkpt><trkpt lat="41.97218110594925" lon="12.694044970538362"><ele>98.0</ele><time>2026-05-03T15:41:32.999Z</time></trkpt><trkpt lat="41.972071497314666" lon="12.693790666643796"><ele>98.0</ele><time>2026-05-03T15:41:33.999Z</time></trkpt><trkpt lat="41.97196417468335" lon="12.693556635798103"><ele>98.0</ele><time>2026-05-03T15:41:34.999Z</time></trkpt><trkpt lat="41.971866595131004" lon="12.693298254661176"><ele>97.66666666666666</ele><time>2026-05-03T15:41:35.999Z</time></trkpt><trkpt lat="41.97177328048845" lon="12.693057444851105"><ele>97.33333333333334</ele><time>2026-05-03T15:41:36.999Z</time></trkpt><trkpt lat="41.971680831412144" lon="12.692818683619675"><ele>97.0</ele><time>2026-05-03T15:41:37.999Z</time></trkpt><trkpt lat="41.971595210306646" lon="12.692582910475378"><ele>97.0</ele><time>2026-05-03T15:41:38.999Z</time></trkpt><trkpt lat="41.97151469404687" lon="12.692350806043377"><ele>97.0</ele><time>2026-05-03T15:41:39.999Z</time></trkpt><trkpt lat="41.971450823470676" lon="12.69212121373013"><ele>97.0</ele><time>2026-05-03T15:41:40.999Z</time></trkpt><trkpt lat="41.97140560744873" lon="12.691900801428954"><ele>96.33333333333334</ele><time>2026-05-03T15:41:41.999Z</time></trkpt><trkpt lat="41.97137392050134" lon="12.691676689584211"><ele>95.66666666666667</ele><time>2026-05-03T15:41:42.999Z</time></trkpt><trkpt lat="41.97134558064933" lon="12.691457931846506"><ele>95.0</ele><time>2026-05-03T15:41:43.999Z</time></trkpt><trkpt lat="41.97132817714527" lon="12.691251601186682"><ele>94.25</ele><time>2026-05-03T15:41:44.999Z</time></trkpt><trkpt lat="41.97131525237952" lon="12.691062826841744"><ele>93.5</ele><time>2026-05-03T15:41:45.999Z</time></trkpt><trkpt lat="41.9712987348569" lon="12.690886779274619"><ele>92.75</ele><time>2026-05-03T15:41:46.999Z</time></trkpt><trkpt lat="41.9712687939688" lon="12.690728576807654"><ele>92.0</ele><time>2026-05-03T15:41:47.999Z</time></trkpt><trkpt lat="41.971215155556905" lon="12.690580724092152"><ele>92.0</ele><time>2026-05-03T15:41:48.999Z</time></trkpt><trkpt lat="41.97115920065" lon="12.690472047967564"><ele>92.0</ele><time>2026-05-03T15:41:49.999Z</time></trkpt><trkpt lat="41.97110816341092" lon="12.690386843727312"><ele>92.0</ele><time>2026-05-03T15:41:50.999Z</time></trkpt><trkpt lat="41.971060446468286" lon="12.690304541997426"><ele>92.0</ele><time>2026-05-03T15:41:51.999Z</time></trkpt><trkpt lat="41.970967058851805" lon="12.690197613002573"><ele>92.0</ele><time>2026-05-03T15:41:53.999Z</time></trkpt><trkpt lat="41.97088037614309" lon="12.690135041914893"><ele>92.19999999999999</ele><time>2026-05-03T15:41:55.999Z</time></trkpt><trkpt lat="41.970826239539136" lon="12.690046230767472"><ele>92.4</ele><time>2026-05-03T15:41:57.999Z</time></trkpt><trkpt lat="41.9708196044749" lon="12.689928518252884"><ele>92.6</ele><time>2026-05-03T15:42:00Z</time></trkpt><trkpt lat="41.97081853087241" lon="12.689812899597756"><ele>92.80000000000001</ele><time>2026-05-03T15:42:02Z</time></trkpt><trkpt lat="41.970804104114485" lon="12.689693783874173"><ele>93.0</ele><time>2026-05-03T15:42:04Z</time></trkpt><trkpt lat="41.97078569750703" lon="12.689544536159449"><ele>93.0</ele><time>2026-05-03T15:42:06Z</time></trkpt><trkpt lat="41.97083986490792" lon="12.689442183935045"><ele>93.0</ele><time>2026-05-03T15:42:07Z</time></trkpt><trkpt lat="41.97080435472248" lon="12.6893443065476"><ele>93.0</ele><time>2026-05-03T15:42:08Z</time></trkpt><trkpt lat="41.9707689258668" lon="12.689233847544688"><ele>93.0</ele><time>2026-05-03T15:42:09Z</time></trkpt><trkpt lat="41.97072304524993" lon="12.689106328997049"><ele>93.0</ele><time>2026-05-03T15:42:10Z</time></trkpt><trkpt lat="41.97066493537232" lon="12.68893692753053"><ele>93.0</ele><time>2026-05-03T15:42:11Z</time></trkpt><trkpt lat="41.97060020932734" lon="12.68873629549588"><ele>93.0</ele><time>2026-05-03T15:42:12Z</time></trkpt><trkpt lat="41.97054454627087" lon="12.68854779986853"><ele>93.0</ele><time>2026-05-03T15:42:13Z</time></trkpt><trkpt lat="41.97048614363462" lon="12.688355653299254"><ele>93.0</ele><time>2026-05-03T15:42:14Z</time></trkpt><trkpt lat="41.97040746954055" lon="12.688156847185317"><ele>93.0</ele><time>2026-05-03T15:42:15Z</time></trkpt><trkpt lat="41.9703314934793" lon="12.687972384472689"><ele>93.0</ele><time>2026-05-03T15:42:16Z</time></trkpt><trkpt lat="41.97025030661231" lon="12.687799416416446"><ele>93.66666666666667</ele><time>2026-05-03T15:42:17Z</time></trkpt><trkpt lat="41.97020042517973" lon="12.687616888111211"><ele>94.33333333333334</ele><time>2026-05-03T15:42:18Z</time></trkpt><trkpt lat="41.97019206184864" lon="12.687419709432207"><ele>95.0</ele><time>2026-05-03T15:42:19Z</time></trkpt><trkpt lat="41.97018125441585" lon="12.68720089888344"><ele>95.0</ele><time>2026-05-03T15:42:20Z</time></trkpt><trkpt lat="41.97017090936491" lon="12.686986596653611"><ele>95.0</ele><time>2026-05-03T15:42:21Z</time></trkpt><trkpt lat="41.969955381077334" lon="12.68668262739707"><ele>97.33333333333334</ele><time>2026-05-03T15:42:22Z</time></trkpt><trkpt lat="41.96987903357674" lon="12.686445900007573"><ele>99.66666666666667</ele><time>2026-05-03T15:42:23Z</time></trkpt><trkpt lat="41.96980910788683" lon="12.686206590774397"><ele>102.0</ele><time>2026-05-03T15:42:24Z</time></trkpt><trkpt lat="41.96974389918796" lon="12.685974724008306"><ele>102.33333333333334</ele><time>2026-05-03T15:42:25Z</time></trkpt><trkpt lat="41.96967619768447" lon="12.68573640507392"><ele>102.66666666666667</ele><time>2026-05-03T15:42:26Z</time></trkpt><trkpt lat="41.96961120272592" lon="12.68548932480858"><ele>103.0</ele><time>2026-05-03T15:42:27Z</time></trkpt><trkpt lat="41.969542836464555" lon="12.68522865052601"><ele>103.0</ele><time>2026-05-03T15:42:28Z</time></trkpt><trkpt lat="41.96947272049504" lon="12.68494665770188"><ele>103.0</ele><time>2026-05-03T15:42:29Z</time></trkpt><trkpt lat="41.969406414646535" lon="12.684653939295188"><ele>103.0</ele><time>2026-05-03T15:42:30Z</time></trkpt><trkpt lat="41.969337280539996" lon="12.684341296102643"><ele>103.0</ele><time>2026-05-03T15:42:31Z</time></trkpt><trkpt lat="41.96927397509005" lon="12.684025303775927"><ele>103.0</ele><time>2026-05-03T15:42:32Z</time></trkpt><trkpt lat="41.96921428982834" lon="12.683698333419722"><ele>100.0</ele><time>2026-05-03T15:42:33Z</time></trkpt><trkpt lat="41.96915533212764" lon="12.68339005155179"><ele>97.0</ele><time>2026-05-03T15:42:34Z</time></trkpt><trkpt lat="41.96908987404023" lon="12.68308788672148"><ele>97.0</ele><time>2026-05-03T15:42:35Z</time></trkpt><trkpt lat="41.96902417149342" lon="12.682757356757241"><ele>97.0</ele><time>2026-05-03T15:42:36Z</time></trkpt><trkpt lat="41.9689530236758" lon="12.682429491587767"><ele>97.0</ele><time>2026-05-03T15:42:37Z</time></trkpt><trkpt lat="41.96889224617704" lon="12.682108701660301"><ele>97.0</ele><time>2026-05-03T15:42:38Z</time></trkpt><trkpt lat="41.96883161825405" lon="12.681803178645593"><ele>97.33333333333334</ele><time>2026-05-03T15:42:39Z</time></trkpt><trkpt lat="41.96877321832055" lon="12.681516214767552"><ele>97.66666666666666</ele><time>2026-05-03T15:42:40Z</time></trkpt><trkpt lat="41.968712994572755" lon="12.681229483015922"><ele>98.0</ele><time>2026-05-03T15:42:41Z</time></trkpt><trkpt lat="41.96865266711458" lon="12.680931357428003"><ele>100.66666666666666</ele><time>2026-05-03T15:42:42Z</time></trkpt><trkpt lat="41.96858369965209" lon="12.680649490622868"><ele>103.33333333333334</ele><time>2026-05-03T15:42:43Z</time></trkpt><trkpt lat="41.96851582647617" lon="12.680388237920702"><ele>106.0</ele><time>2026-05-03T15:42:44Z</time></trkpt><trkpt lat="41.968456104359845" lon="12.680108998950564"><ele>108.0</ele><time>2026-05-03T15:42:45Z</time></trkpt><trkpt lat="41.96842689270269" lon="12.679852733721104"><ele>110.0</ele><time>2026-05-03T15:42:46Z</time></trkpt><trkpt lat="41.96841402479979" lon="12.679604476917586"><ele>112.0</ele><time>2026-05-03T15:42:47Z</time></trkpt><trkpt lat="41.96841355194954" lon="12.679335561544741"><ele>112.66666666666667</ele><time>2026-05-03T15:42:48Z</time></trkpt><trkpt lat="41.96842992205217" lon="12.679048368432158"><ele>113.33333333333334</ele><time>2026-05-03T15:42:49Z</time></trkpt><trkpt lat="41.9684402021946" lon="12.678759835458978"><ele>114.0</ele><time>2026-05-03T15:42:50Z</time></trkpt><trkpt lat="41.968447126805934" lon="12.678471884106036"><ele>114.0</ele><time>2026-05-03T15:42:51Z</time></trkpt><trkpt lat="41.968458908967946" lon="12.678188486933665"><ele>114.0</ele><time>2026-05-03T15:42:52Z</time></trkpt><trkpt lat="41.96846536921386" lon="12.677913644940185"><ele>114.0</ele><time>2026-05-03T15:42:53Z</time></trkpt><trkpt lat="41.96847456085576" lon="12.677635646189874"><ele>113.66666666666666</ele><time>2026-05-03T15:42:54Z</time></trkpt><trkpt lat="41.96848378728831" lon="12.677359934727471"><ele>113.33333333333333</ele><time>2026-05-03T15:42:55Z</time></trkpt><trkpt lat="41.968488776567405" lon="12.677081640730798"><ele>113.0</ele><time>2026-05-03T15:42:56Z</time></trkpt><trkpt lat="41.96849364414705" lon="12.676808406641838"><ele>112.33333333333333</ele><time>2026-05-03T15:42:57Z</time></trkpt><trkpt lat="41.968489631059846" lon="12.676536786560522"><ele>111.66666666666666</ele><time>2026-05-03T15:42:58Z</time></trkpt><trkpt lat="41.968484091753524" lon="12.676265144337828"><ele>111.0</ele><time>2026-05-03T15:42:59Z</time></trkpt><trkpt lat="41.96847384467531" lon="12.675998227536873"><ele>111.0</ele><time>2026-05-03T15:43:00Z</time></trkpt><trkpt lat="41.9684534038574" lon="12.675737644324045"><ele>111.0</ele><time>2026-05-03T15:43:01Z</time></trkpt><trkpt lat="41.96841275269439" lon="12.675488481552657"><ele>111.0</ele><time>2026-05-03T15:43:02Z</time></trkpt><trkpt lat="41.96836383087781" lon="12.67524697099495"><ele>111.66666666666666</ele><time>2026-05-03T15:43:03Z</time></trkpt><trkpt lat="41.9683038366677" lon="12.675027879281425"><ele>112.33333333333333</ele><time>2026-05-03T15:43:04Z</time></trkpt><trkpt lat="41.96821538196469" lon="12.674799495249644"><ele>113.0</ele><time>2026-05-03T15:43:05Z</time></trkpt><trkpt lat="41.96809653170034" lon="12.674573410181823"><ele>114.0</ele><time>2026-05-03T15:43:06Z</time></trkpt><trkpt lat="41.96799780377827" lon="12.674355179556999"><ele>115.0</ele><time>2026-05-03T15:43:07Z</time></trkpt><trkpt lat="41.967901314212696" lon="12.674150533204772"><ele>116.0</ele><time>2026-05-03T15:43:07.999Z</time></trkpt><trkpt lat="41.9678090633829" lon="12.673959542205322"><ele>116.0</ele><time>2026-05-03T15:43:08.999Z</time></trkpt><trkpt lat="41.96769230159612" lon="12.673777312145223"><ele>116.0</ele><time>2026-05-03T15:43:09.999Z</time></trkpt><trkpt lat="41.96756560186115" lon="12.673608369828393"><ele>116.0</ele><time>2026-05-03T15:43:10.999Z</time></trkpt><trkpt lat="41.96744173658683" lon="12.673433494112144"><ele>116.0</ele><time>2026-05-03T15:43:11.999Z</time></trkpt><trkpt lat="41.967331332752096" lon="12.673270427640482"><ele>116.0</ele><time>2026-05-03T15:43:12.999Z</time></trkpt><trkpt lat="41.967191090016385" lon="12.673123928455167"><ele>116.0</ele><time>2026-05-03T15:43:13.999Z</time></trkpt><trkpt lat="41.96706369828067" lon="12.67296767584772"><ele>116.0</ele><time>2026-05-03T15:43:14.999Z</time></trkpt><trkpt lat="41.966934504697186" lon="12.672809232641487"><ele>116.0</ele><time>2026-05-03T15:43:15.999Z</time></trkpt><trkpt lat="41.96682087055104" lon="12.672639025205914"><ele>116.0</ele><time>2026-05-03T15:43:16.999Z</time></trkpt><trkpt lat="41.96670055179864" lon="12.672463685613412"><ele>115.66666666666666</ele><time>2026-05-03T15:43:17.999Z</time></trkpt><trkpt lat="41.96658963580162" lon="12.67227075811133"><ele>115.33333333333334</ele><time>2026-05-03T15:43:18.999Z</time></trkpt><trkpt lat="41.966478002136256" lon="12.672083865939767"><ele>115.0</ele><time>2026-05-03T15:43:19.999Z</time></trkpt><trkpt lat="41.96636137090994" lon="12.671908013242124"><ele>116.66666666666667</ele><time>2026-05-03T15:43:20.999Z</time></trkpt><trkpt lat="41.96625733272323" lon="12.67173851108681"><ele>118.33333333333334</ele><time>2026-05-03T15:43:21.999Z</time></trkpt><trkpt lat="41.96614917199623" lon="12.67158010986282"><ele>120.0</ele><time>2026-05-03T15:43:22.999Z</time></trkpt><trkpt lat="41.96602856140727" lon="12.671439829307694"><ele>120.0</ele><time>2026-05-03T15:43:23.999Z</time></trkpt><trkpt lat="41.96587975245616" lon="12.671306052533168"><ele>120.0</ele><time>2026-05-03T15:43:24.999Z</time></trkpt><trkpt lat="41.965741068351214" lon="12.671179557128804"><ele>120.0</ele><time>2026-05-03T15:43:25.999Z</time></trkpt><trkpt lat="41.96557522003953" lon="12.67106166444464"><ele>116.0</ele><time>2026-05-03T15:43:26.999Z</time></trkpt><trkpt lat="41.96539975074612" lon="12.670934375733115"><ele>112.0</ele><time>2026-05-03T15:43:27.999Z</time></trkpt><trkpt lat="41.965221361707655" lon="12.670804284883282"><ele>108.0</ele><time>2026-05-03T15:43:28.999Z</time></trkpt><trkpt lat="41.96504346673504" lon="12.670683630813924"><ele>108.0</ele><time>2026-05-03T15:43:29.999Z</time></trkpt><trkpt lat="41.96488405816903" lon="12.670564610498811"><ele>108.0</ele><time>2026-05-03T15:43:30.999Z</time></trkpt><trkpt lat="41.96472241171999" lon="12.670446226673588"><ele>108.0</ele><time>2026-05-03T15:43:31.999Z</time></trkpt><trkpt lat="41.964559645883604" lon="12.6703252711637"><ele>107.66666666666666</ele><time>2026-05-03T15:43:32.999Z</time></trkpt><trkpt lat="41.964395098427325" lon="12.670207361799838"><ele>107.33333333333333</ele><time>2026-05-03T15:43:33.999Z</time></trkpt><trkpt lat="41.964210330025786" lon="12.670083834974456"><ele>107.0</ele><time>2026-05-03T15:43:34.999Z</time></trkpt><trkpt lat="41.9640266568096" lon="12.669961741474296"><ele>108.33333333333333</ele><time>2026-05-03T15:43:35.999Z</time></trkpt><trkpt lat="41.96385151676981" lon="12.669838686576616"><ele>109.66666666666666</ele><time>2026-05-03T15:43:36.999Z</time></trkpt><trkpt lat="41.96367434933358" lon="12.669713606143372"><ele>111.0</ele><time>2026-05-03T15:43:37.999Z</time></trkpt><trkpt lat="41.96350579254866" lon="12.669590724575535"><ele>111.33333333333334</ele><time>2026-05-03T15:43:38.999Z</time></trkpt><trkpt lat="41.96334870456009" lon="12.669462651360396"><ele>111.66666666666667</ele><time>2026-05-03T15:43:39.999Z</time></trkpt><trkpt lat="41.96319540277336" lon="12.669312440707749"><ele>112.0</ele><time>2026-05-03T15:43:40.999Z</time></trkpt><trkpt lat="41.96304730787391" lon="12.669139031852168"><ele>113.33333333333334</ele><time>2026-05-03T15:43:41.999Z</time></trkpt><trkpt lat="41.9628969288133" lon="12.668946470476147"><ele>114.66666666666666</ele><time>2026-05-03T15:43:42.999Z</time></trkpt><trkpt lat="41.962756754842474" lon="12.668738601428203"><ele>116.0</ele><time>2026-05-03T15:43:43.999Z</time></trkpt><trkpt lat="41.96263080762289" lon="12.668510552356755"><ele>114.33333333333333</ele><time>2026-05-03T15:43:44.999Z</time></trkpt><trkpt lat="41.962511705919376" lon="12.668263344366391"><ele>112.66666666666666</ele><time>2026-05-03T15:43:45.999Z</time></trkpt><trkpt lat="41.962400364900915" lon="12.667995556049178"><ele>111.0</ele><time>2026-05-03T15:43:46.999Z</time></trkpt><trkpt lat="41.96228556585712" lon="12.667732059740032"><ele>111.0</ele><time>2026-05-03T15:43:47.999Z</time></trkpt><trkpt lat="41.96218297321528" lon="12.667461106144815"><ele>111.0</ele><time>2026-05-03T15:43:48.999Z</time></trkpt><trkpt lat="41.96206983894008" lon="12.667192990761334"><ele>112.0</ele><time>2026-05-03T15:43:49.999Z</time></trkpt><trkpt lat="41.96195568779005" lon="12.666923525759312"><ele>113.0</ele><time>2026-05-03T15:43:50.999Z</time></trkpt><trkpt lat="41.961843880054815" lon="12.666652165161684"><ele>113.0</ele><time>2026-05-03T15:43:51.999Z</time></trkpt><trkpt lat="41.961738125679446" lon="12.666385294150032"><ele>113.0</ele><time>2026-05-03T15:43:52.999Z</time></trkpt><trkpt lat="41.96163956105114" lon="12.666119520459956"><ele>113.0</ele><time>2026-05-03T15:43:53.999Z</time></trkpt><trkpt lat="41.961557767704875" lon="12.665854139252078"><ele>110.66666666666666</ele><time>2026-05-03T15:43:54.999Z</time></trkpt><trkpt lat="41.96147601340863" lon="12.665598031909406"><ele>108.33333333333334</ele><time>2026-05-03T15:43:55.999Z</time></trkpt><trkpt lat="41.961394279595794" lon="12.665354623892512"><ele>106.0</ele><time>2026-05-03T15:43:56.999Z</time></trkpt><trkpt lat="41.96130561488797" lon="12.665121676859142"><ele>104.33333333333334</ele><time>2026-05-03T15:43:57.999Z</time></trkpt><trkpt lat="41.961203587547956" lon="12.664889388148621"><ele>102.66666666666666</ele><time>2026-05-03T15:43:58.999Z</time></trkpt><trkpt lat="41.96108347343632" lon="12.664665072827068"><ele>101.0</ele><time>2026-05-03T15:43:59.999Z</time></trkpt><trkpt lat="41.96095111772324" lon="12.664459222181117"><ele>100.33333333333333</ele><time>2026-05-03T15:44:00.999Z</time></trkpt><trkpt lat="41.96080086540782" lon="12.664284743595358"><ele>99.66666666666666</ele><time>2026-05-03T15:44:01.999Z</time></trkpt><trkpt lat="41.96062820768507" lon="12.664123939781637"><ele>99.0</ele><time>2026-05-03T15:44:02.999Z</time></trkpt><trkpt lat="41.960453141060725" lon="12.663969224741281"><ele>99.0</ele><time>2026-05-03T15:44:03.999Z</time></trkpt><trkpt lat="41.96028864082633" lon="12.663818434028594"><ele>99.0</ele><time>2026-05-03T15:44:05Z</time></trkpt><trkpt lat="41.96013818177875" lon="12.663661514377255"><ele>99.0</ele><time>2026-05-03T15:44:06Z</time></trkpt><trkpt lat="41.9599917138748" lon="12.66351387917449"><ele>98.0</ele><time>2026-05-03T15:44:07Z</time></trkpt><trkpt lat="41.95984679680222" lon="12.663367150468465"><ele>97.0</ele><time>2026-05-03T15:44:08Z</time></trkpt><trkpt lat="41.959700484927005" lon="12.663220522891496"><ele>96.0</ele><time>2026-05-03T15:44:09Z</time></trkpt><trkpt lat="41.959549632601416" lon="12.663073411124321"><ele>96.0</ele><time>2026-05-03T15:44:10Z</time></trkpt><trkpt lat="41.95940549813532" lon="12.662910963044835"><ele>96.0</ele><time>2026-05-03T15:44:11Z</time></trkpt><trkpt lat="41.95924860287714" lon="12.662743707750037"><ele>96.0</ele><time>2026-05-03T15:44:12Z</time></trkpt><trkpt lat="41.959074537427796" lon="12.662586887528537"><ele>94.66666666666667</ele><time>2026-05-03T15:44:13Z</time></trkpt><trkpt lat="41.958886461662715" lon="12.662428856112372"><ele>93.33333333333334</ele><time>2026-05-03T15:44:14Z</time></trkpt><trkpt lat="41.95869917778409" lon="12.662256198876996"><ele>92.0</ele><time>2026-05-03T15:44:15Z</time></trkpt><trkpt lat="41.958520201604614" lon="12.662077705493429"><ele>91.33333333333334</ele><time>2026-05-03T15:44:16Z</time></trkpt><trkpt lat="41.95834572245388" lon="12.661900670394074"><ele>90.66666666666667</ele><time>2026-05-03T15:44:17Z</time></trkpt><trkpt lat="41.958173426118556" lon="12.661723461331752"><ele>90.0</ele><time>2026-05-03T15:44:18Z</time></trkpt><trkpt lat="41.957986379087686" lon="12.66155693959159"><ele>90.0</ele><time>2026-05-03T15:44:19Z</time></trkpt><trkpt lat="41.95780480907912" lon="12.661374973769444"><ele>90.0</ele><time>2026-05-03T15:44:20Z</time></trkpt><trkpt lat="41.9576229085202" lon="12.661191387876952"><ele>90.5</ele><time>2026-05-03T15:44:21Z</time></trkpt><trkpt lat="41.95743755265524" lon="12.661002111302896"><ele>91.0</ele><time>2026-05-03T15:44:22Z</time></trkpt><trkpt lat="41.95724861977694" lon="12.660814170283954"><ele>91.0</ele><time>2026-05-03T15:44:23Z</time></trkpt><trkpt lat="41.95705554713011" lon="12.660625793492473"><ele>91.0</ele><time>2026-05-03T15:44:24Z</time></trkpt><trkpt lat="41.956863465234676" lon="12.66043080538168"><ele>91.5</ele><time>2026-05-03T15:44:25Z</time></trkpt><trkpt lat="41.956676573927886" lon="12.6602326922689"><ele>92.0</ele><time>2026-05-03T15:44:26Z</time></trkpt><trkpt lat="41.95649625040298" lon="12.6600251539819"><ele>92.0</ele><time>2026-05-03T15:44:27Z</time></trkpt><trkpt lat="41.956319325079924" lon="12.659811538678467"><ele>92.0</ele><time>2026-05-03T15:44:28Z</time></trkpt><trkpt lat="41.956148170051314" lon="12.65959287474161"><ele>91.0</ele><time>2026-05-03T15:44:29Z</time></trkpt><trkpt lat="41.955978350755785" lon="12.659368055583776"><ele>90.0</ele><time>2026-05-03T15:44:30Z</time></trkpt><trkpt lat="41.95581433050798" lon="12.65913453413382"><ele>90.0</ele><time>2026-05-03T15:44:31Z</time></trkpt><trkpt lat="41.95564783447717" lon="12.658881464336812"><ele>90.0</ele><time>2026-05-03T15:44:32Z</time></trkpt><trkpt lat="41.95548760627558" lon="12.658630234950545"><ele>91.5</ele><time>2026-05-03T15:44:33Z</time></trkpt><trkpt lat="41.95533167674386" lon="12.658369279712186"><ele>93.0</ele><time>2026-05-03T15:44:34Z</time></trkpt><trkpt lat="41.95517308696771" lon="12.658103952112322"><ele>94.0</ele><time>2026-05-03T15:44:35Z</time></trkpt><trkpt lat="41.955015714015985" lon="12.657869802741168"><ele>95.0</ele><time>2026-05-03T15:44:36Z</time></trkpt><trkpt lat="41.95487103576567" lon="12.657590862330387"><ele>95.0</ele><time>2026-05-03T15:44:37Z</time></trkpt><trkpt lat="41.95472966721206" lon="12.657345013234172"><ele>95.0</ele><time>2026-05-03T15:44:38Z</time></trkpt><trkpt lat="41.954597196899414" lon="12.657113966364271"><ele>95.0</ele><time>2026-05-03T15:44:39Z</time></trkpt><trkpt lat="41.95446190981898" lon="12.656888532235751"><ele>95.66666666666667</ele><time>2026-05-03T15:44:40Z</time></trkpt><trkpt lat="41.95432512417164" lon="12.65665668917683"><ele>96.33333333333334</ele><time>2026-05-03T15:44:41Z</time></trkpt><trkpt lat="41.95418600032858" lon="12.656421983296552"><ele>97.0</ele><time>2026-05-03T15:44:42Z</time></trkpt><trkpt lat="41.95405002199914" lon="12.656190059414818"><ele>97.0</ele><time>2026-05-03T15:44:43Z</time></trkpt><trkpt lat="41.95392021522108" lon="12.655960858695034"><ele>97.0</ele><time>2026-05-03T15:44:44Z</time></trkpt><trkpt lat="41.95380176810115" lon="12.65573890306868"><ele>97.0</ele><time>2026-05-03T15:44:45Z</time></trkpt><trkpt lat="41.95369381977422" lon="12.655515655437856"><ele>97.0</ele><time>2026-05-03T15:44:46Z</time></trkpt><trkpt lat="41.953553526061654" lon="12.655305743449263"><ele>97.0</ele><time>2026-05-03T15:44:47Z</time></trkpt><trkpt lat="41.95342878297664" lon="12.655089116299916"><ele>97.0</ele><time>2026-05-03T15:44:48Z</time></trkpt><trkpt lat="41.95330775656396" lon="12.65488146466846"><ele>95.33333333333334</ele><time>2026-05-03T15:44:49Z</time></trkpt><trkpt lat="41.95318991750753" lon="12.654677493895102"><ele>93.66666666666667</ele><time>2026-05-03T15:44:50Z</time></trkpt><trkpt lat="41.95307806220979" lon="12.654480608507976"><ele>92.0</ele><time>2026-05-03T15:44:51Z</time></trkpt><trkpt lat="41.95296403771923" lon="12.654292081761625"><ele>91.66666666666667</ele><time>2026-05-03T15:44:52Z</time></trkpt><trkpt lat="41.952838885214476" lon="12.654109103522327"><ele>91.33333333333333</ele><time>2026-05-03T15:44:53Z</time></trkpt><trkpt lat="41.95270731579629" lon="12.653936183512336"><ele>91.0</ele><time>2026-05-03T15:44:54Z</time></trkpt><trkpt lat="41.9525812981225" lon="12.653784946692069"><ele>91.25</ele><time>2026-05-03T15:44:55Z</time></trkpt><trkpt lat="41.95247046381505" lon="12.653636550295365"><ele>91.5</ele><time>2026-05-03T15:44:56Z</time></trkpt><trkpt lat="41.95236604759837" lon="12.653530781938667"><ele>91.75</ele><time>2026-05-03T15:44:57Z</time></trkpt><trkpt lat="41.952243897542076" lon="12.65341810393371"><ele>92.0</ele><time>2026-05-03T15:44:58Z</time></trkpt><trkpt lat="41.95218201789442" lon="12.653313642461633"><ele>91.16666666666667</ele><time>2026-05-03T15:44:59Z</time></trkpt><trkpt lat="41.95209423540902" lon="12.653241458276518"><ele>90.33333333333334</ele><time>2026-05-03T15:45:00Z</time></trkpt><trkpt lat="41.952036102566204" lon="12.653187910908429"><ele>89.5</ele><time>2026-05-03T15:45:01Z</time></trkpt><trkpt lat="41.95198357175829" lon="12.653124766830832"><ele>88.66666666666667</ele><time>2026-05-03T15:45:02Z</time></trkpt><trkpt lat="41.95190621866518" lon="12.653043880227829"><ele>87.83333333333333</ele><time>2026-05-03T15:45:04Z</time></trkpt><trkpt lat="41.95186902885502" lon="12.65290880158267"><ele>87.0</ele><time>2026-05-03T15:45:06Z</time></trkpt><trkpt lat="41.95180199457636" lon="12.65277788046163"><ele>87.0</ele><time>2026-05-03T15:45:08Z</time></trkpt><trkpt lat="41.951733022239985" lon="12.652752547137693"><ele>87.0</ele><time>2026-05-03T15:45:09Z</time></trkpt><trkpt lat="41.95167298036138" lon="12.652723423665192"><ele>87.0</ele><time>2026-05-03T15:45:09.999Z</time></trkpt><trkpt lat="41.95160967411146" lon="12.652672185162208"><ele>87.0</ele><time>2026-05-03T15:45:10.999Z</time></trkpt><trkpt lat="41.951553755157306" lon="12.652600855694807"><ele>87.0</ele><time>2026-05-03T15:45:11.999Z</time></trkpt><trkpt lat="41.95150831313383" lon="12.65251459568991"><ele>87.0</ele><time>2026-05-03T15:45:12.999Z</time></trkpt><trkpt lat="41.9514528700623" lon="12.652440009597186"><ele>87.0</ele><time>2026-05-03T15:45:13.999Z</time></trkpt><trkpt lat="41.9514014390369" lon="12.652355904090385"><ele>87.0</ele><time>2026-05-03T15:45:14.999Z</time></trkpt><trkpt lat="41.95134235735092" lon="12.652284300315356"><ele>87.0</ele><time>2026-05-03T15:45:15.999Z</time></trkpt><trkpt lat="41.95127834705145" lon="12.65220717835668"><ele>87.0</ele><time>2026-05-03T15:45:16.999Z</time></trkpt><trkpt lat="41.951215256638534" lon="12.652135290584228"><ele>87.0</ele><time>2026-05-03T15:45:17.999Z</time></trkpt><trkpt lat="41.95116071981311" lon="12.652052315333291"><ele>87.0</ele><time>2026-05-03T15:45:18.999Z</time></trkpt><trkpt lat="41.95109755546751" lon="12.651969613614582"><ele>87.0</ele><time>2026-05-03T15:45:19.999Z</time></trkpt><trkpt lat="41.95103547584743" lon="12.65188585922634"><ele>86.83333333333333</ele><time>2026-05-03T15:45:20.999Z</time></trkpt><trkpt lat="41.95097534490592" lon="12.651800419938247"><ele>86.66666666666667</ele><time>2026-05-03T15:45:21.999Z</time></trkpt><trkpt lat="41.950908085360915" lon="12.651722427467128"><ele>86.5</ele><time>2026-05-03T15:45:22.999Z</time></trkpt><trkpt lat="41.9508419392303" lon="12.651633725556342"><ele>86.33333333333334</ele><time>2026-05-03T15:45:23.999Z</time></trkpt><trkpt lat="41.950770548923614" lon="12.651556503627265"><ele>86.16666666666667</ele><time>2026-05-03T15:45:24.999Z</time></trkpt><trkpt lat="41.950707774661396" lon="12.651476924725841"><ele>86.0</ele><time>2026-05-03T15:45:25.999Z</time></trkpt><trkpt lat="41.95063930889652" lon="12.651402911965866"><ele>86.8</ele><time>2026-05-03T15:45:26.999Z</time></trkpt><trkpt lat="41.950560469100346" lon="12.651315157568654"><ele>87.6</ele><time>2026-05-03T15:45:27.999Z</time></trkpt><trkpt lat="41.950481567606246" lon="12.651248920818402"><ele>88.4</ele><time>2026-05-03T15:45:28.999Z</time></trkpt><trkpt lat="41.950409563141775" lon="12.651170125532733"><ele>89.2</ele><time>2026-05-03T15:45:29.999Z</time></trkpt><trkpt lat="41.950337728173764" lon="12.65108236042673"><ele>90.0</ele><time>2026-05-03T15:45:30.999Z</time></trkpt><trkpt lat="41.95027184404706" lon="12.65098605179369"><ele>90.4</ele><time>2026-05-03T15:45:31.999Z</time></trkpt><trkpt lat="41.950201707552694" lon="12.650903558205224"><ele>90.8</ele><time>2026-05-03T15:45:32.999Z</time></trkpt><trkpt lat="41.95012966365741" lon="12.650820765391346"><ele>91.19999999999999</ele><time>2026-05-03T15:45:33.999Z</time></trkpt><trkpt lat="41.95006464142843" lon="12.650734589979892"><ele>91.6</ele><time>2026-05-03T15:45:34.999Z</time></trkpt><trkpt lat="41.95000521388392" lon="12.650639592103014"><ele>92.0</ele><time>2026-05-03T15:45:35.999Z</time></trkpt><trkpt lat="41.94992653852081" lon="12.650568598174692"><ele>92.19999999999999</ele><time>2026-05-03T15:45:36.999Z</time></trkpt><trkpt lat="41.94983594075609" lon="12.650501251641959"><ele>92.4</ele><time>2026-05-03T15:45:37.999Z</time></trkpt><trkpt lat="41.94977381933211" lon="12.650390316777193"><ele>92.6</ele><time>2026-05-03T15:45:38.999Z</time></trkpt><trkpt lat="41.94969299591815" lon="12.650315404476775"><ele>92.80000000000001</ele><time>2026-05-03T15:45:39.999Z</time></trkpt><trkpt lat="41.94963298388038" lon="12.650205547816373"><ele>93.0</ele><time>2026-05-03T15:45:40.999Z</time></trkpt><trkpt lat="41.94955915090375" lon="12.65011724763709"><ele>93.80000000000001</ele><time>2026-05-03T15:45:41.999Z</time></trkpt><trkpt lat="41.94949426057924" lon="12.650019119081497"><ele>94.6</ele><time>2026-05-03T15:45:42.999Z</time></trkpt><trkpt lat="41.949420801532646" lon="12.649932566937357"><ele>95.4</ele><time>2026-05-03T15:45:43.999Z</time></trkpt><trkpt lat="41.94935609539351" lon="12.649835800706194"><ele>96.19999999999999</ele><time>2026-05-03T15:45:44.999Z</time></trkpt><trkpt lat="41.94928619832433" lon="12.64973274533072"><ele>97.0</ele><time>2026-05-03T15:45:45.999Z</time></trkpt><trkpt lat="41.949216141563184" lon="12.649628388406953"><ele>97.0</ele><time>2026-05-03T15:45:46.999Z</time></trkpt><trkpt lat="41.94914902004286" lon="12.649524471697642"><ele>97.0</ele><time>2026-05-03T15:45:47.999Z</time></trkpt><trkpt lat="41.949079904221875" lon="12.649419990360016"><ele>97.0</ele><time>2026-05-03T15:45:48.999Z</time></trkpt><trkpt lat="41.94901452327761" lon="12.649313964732075"><ele>97.0</ele><time>2026-05-03T15:45:49.999Z</time></trkpt><trkpt lat="41.9489466369674" lon="12.649200959044196"><ele>97.0</ele><time>2026-05-03T15:45:50.999Z</time></trkpt><trkpt lat="41.94887365568954" lon="12.64908678734631"><ele>97.0</ele><time>2026-05-03T15:45:51.999Z</time></trkpt><trkpt lat="41.94880137855079" lon="12.648966756471827"><ele>97.0</ele><time>2026-05-03T15:45:52.999Z</time></trkpt><trkpt lat="41.94873584867786" lon="12.64884864607625"><ele>97.0</ele><time>2026-05-03T15:45:53.999Z</time></trkpt><trkpt lat="41.948666859612814" lon="12.648721886024937"><ele>97.0</ele><time>2026-05-03T15:45:54.999Z</time></trkpt><trkpt lat="41.948596649992965" lon="12.64859478335657"><ele>96.75</ele><time>2026-05-03T15:45:55.999Z</time></trkpt><trkpt lat="41.94852175647539" lon="12.648474397339262"><ele>96.5</ele><time>2026-05-03T15:45:56.999Z</time></trkpt><trkpt lat="41.94844269098433" lon="12.648351864029681"><ele>96.25</ele><time>2026-05-03T15:45:57.999Z</time></trkpt><trkpt lat="41.948366811446654" lon="12.648222424693698"><ele>96.0</ele><time>2026-05-03T15:45:58.999Z</time></trkpt><trkpt lat="41.948289262881666" lon="12.648094336320748"><ele>95.4</ele><time>2026-05-03T15:45:59.999Z</time></trkpt><trkpt lat="41.948221472631595" lon="12.647970855497295"><ele>94.8</ele><time>2026-05-03T15:46:00.999Z</time></trkpt><trkpt lat="41.94815107183776" lon="12.647851477825128"><ele>94.2</ele><time>2026-05-03T15:46:01.999Z</time></trkpt><trkpt lat="41.9480769448018" lon="12.64774536964741"><ele>93.60000000000001</ele><time>2026-05-03T15:46:02.999Z</time></trkpt><trkpt lat="41.948002484631374" lon="12.647639364803752"><ele>93.0</ele><time>2026-05-03T15:46:03.999Z</time></trkpt><trkpt lat="41.947938307153954" lon="12.647513206954498"><ele>92.60000000000001</ele><time>2026-05-03T15:46:04.999Z</time></trkpt><trkpt lat="41.94788649851851" lon="12.647370393761308"><ele>92.2</ele><time>2026-05-03T15:46:05.999Z</time></trkpt><trkpt lat="41.94782651762511" lon="12.647248071384455"><ele>91.8</ele><time>2026-05-03T15:46:06.999Z</time></trkpt><trkpt lat="41.94777141921946" lon="12.647135162403561"><ele>91.4</ele><time>2026-05-03T15:46:07.999Z</time></trkpt><trkpt lat="41.94770722356526" lon="12.647034721952348"><ele>91.0</ele><time>2026-05-03T15:46:08.999Z</time></trkpt><trkpt lat="41.94764602090771" lon="12.646942679113138"><ele>89.8</ele><time>2026-05-03T15:46:09.999Z</time></trkpt><trkpt lat="41.9475826431969" lon="12.646854027890322"><ele>88.6</ele><time>2026-05-03T15:46:11Z</time></trkpt><trkpt lat="41.94753590753063" lon="12.64673614755606"><ele>87.4</ele><time>2026-05-03T15:46:12Z</time></trkpt><trkpt lat="41.94748438959609" lon="12.646642906906504"><ele>86.2</ele><time>2026-05-03T15:46:13Z</time></trkpt><trkpt lat="41.947449427152826" lon="12.646545057645858"><ele>85.0</ele><time>2026-05-03T15:46:14Z</time></trkpt><trkpt lat="41.947399888475424" lon="12.64641664536566"><ele>85.0</ele><time>2026-05-03T15:46:16Z</time></trkpt><trkpt lat="41.94735383650279" lon="12.64635067003316"><ele>85.0</ele><time>2026-05-03T15:47:10.999Z</time></trkpt><trkpt lat="41.94732207129755" lon="12.646263808160874"><ele>85.0</ele><time>2026-05-03T15:47:12.999Z</time></trkpt><trkpt lat="41.94728629713253" lon="12.646191158382805"><ele>85.0</ele><time>2026-05-03T15:47:13.999Z</time></trkpt><trkpt lat="41.94724370411288" lon="12.646114266898772"><ele>85.0</ele><time>2026-05-03T15:47:14.999Z</time></trkpt><trkpt lat="41.947190808946075" lon="12.646013164836372"><ele>85.0</ele><time>2026-05-03T15:47:15.999Z</time></trkpt><trkpt lat="41.94713723063194" lon="12.645908571263288"><ele>84.0</ele><time>2026-05-03T15:47:16.999Z</time></trkpt><trkpt lat="41.947085588392156" lon="12.645806944549095"><ele>83.0</ele><time>2026-05-03T15:47:17.999Z</time></trkpt><trkpt lat="41.947047650173396" lon="12.645692937416472"><ele>82.0</ele><time>2026-05-03T15:47:18.999Z</time></trkpt><trkpt lat="41.947028727642554" lon="12.645576110662926"><ele>81.0</ele><time>2026-05-03T15:47:19.999Z</time></trkpt><trkpt lat="41.94702592390163" lon="12.645456022385325"><ele>80.0</ele><time>2026-05-03T15:47:20.999Z</time></trkpt><trkpt lat="41.94700303568443" lon="12.645341163157294"><ele>78.6</ele><time>2026-05-03T15:47:21.999Z</time></trkpt><trkpt lat="41.946961089085235" lon="12.645237042510852"><ele>77.2</ele><time>2026-05-03T15:47:22.999Z</time></trkpt><trkpt lat="41.94689386981097" lon="12.645127966028108"><ele>75.8</ele><time>2026-05-03T15:47:23.999Z</time></trkpt><trkpt lat="41.946833408622105" lon="12.644990943242325"><ele>74.4</ele><time>2026-05-03T15:47:24.999Z</time></trkpt><trkpt lat="41.946767571591316" lon="12.644834500730584"><ele>73.0</ele><time>2026-05-03T15:47:25.999Z</time></trkpt><trkpt lat="41.9467165123251" lon="12.64466826596619"><ele>74.0</ele><time>2026-05-03T15:47:26.999Z</time></trkpt><trkpt lat="41.946675619510806" lon="12.644480996079459"><ele>75.0</ele><time>2026-05-03T15:47:27.999Z</time></trkpt><trkpt lat="41.946612121952796" lon="12.644286075896176"><ele>76.0</ele><time>2026-05-03T15:47:28.999Z</time></trkpt><trkpt lat="41.94653330885787" lon="12.644097810335676"><ele>76.0</ele><time>2026-05-03T15:47:29.999Z</time></trkpt><trkpt lat="41.94646499902511" lon="12.643891454029669"><ele>76.0</ele><time>2026-05-03T15:47:30.999Z</time></trkpt><trkpt lat="41.94639462163176" lon="12.643681289675856"><ele>76.0</ele><time>2026-05-03T15:47:31.999Z</time></trkpt><trkpt lat="41.946318325216026" lon="12.643463190204578"><ele>76.0</ele><time>2026-05-03T15:47:32.999Z</time></trkpt><trkpt lat="41.94624265097221" lon="12.643242341540534"><ele>76.0</ele><time>2026-05-03T15:47:33.999Z</time></trkpt><trkpt lat="41.94616561278336" lon="12.643010362217883"><ele>76.0</ele><time>2026-05-03T15:47:34.999Z</time></trkpt><trkpt lat="41.946086728581264" lon="12.642779189967232"><ele>74.33333333333333</ele><time>2026-05-03T15:47:35.999Z</time></trkpt><trkpt lat="41.94599823672053" lon="12.642534687021776"><ele>72.66666666666667</ele><time>2026-05-03T15:47:36.999Z</time></trkpt><trkpt lat="41.94591278814641" lon="12.642301505327717"><ele>71.0</ele><time>2026-05-03T15:47:37.999Z</time></trkpt><trkpt lat="41.94582828295459" lon="12.642070373388593"><ele>71.0</ele><time>2026-05-03T15:47:38.999Z</time></trkpt><trkpt lat="41.945742158835124" lon="12.64183146937326"><ele>71.0</ele><time>2026-05-03T15:47:39.999Z</time></trkpt><trkpt lat="41.9456572522492" lon="12.641589952180276"><ele>71.0</ele><time>2026-05-03T15:47:40.999Z</time></trkpt><trkpt lat="41.94557025746668" lon="12.641352855242483"><ele>70.0</ele><time>2026-05-03T15:47:41.999Z</time></trkpt><trkpt lat="41.94547896143798" lon="12.641109912218067"><ele>69.0</ele><time>2026-05-03T15:47:42.999Z</time></trkpt><trkpt lat="41.94538609865907" lon="12.64086541776308"><ele>68.0</ele><time>2026-05-03T15:47:43.999Z</time></trkpt><trkpt lat="41.94529748281521" lon="12.640616971162355"><ele>68.0</ele><time>2026-05-03T15:47:44.999Z</time></trkpt><trkpt lat="41.945205941716004" lon="12.640364730919108"><ele>68.0</ele><time>2026-05-03T15:47:45.999Z</time></trkpt><trkpt lat="41.94511376262512" lon="12.640112449041013"><ele>68.0</ele><time>2026-05-03T15:47:46.999Z</time></trkpt><trkpt lat="41.94502412056589" lon="12.639854343119943"><ele>66.33333333333334</ele><time>2026-05-03T15:47:47.999Z</time></trkpt><trkpt lat="41.94493213121055" lon="12.639594022257432"><ele>64.66666666666667</ele><time>2026-05-03T15:47:48.999Z</time></trkpt><trkpt lat="41.94483847247288" lon="12.63933104850193"><ele>63.0</ele><time>2026-05-03T15:47:49.999Z</time></trkpt><trkpt lat="41.944743871848246" lon="12.639070739609519"><ele>62.0</ele><time>2026-05-03T15:47:50.999Z</time></trkpt><trkpt lat="41.94464774604209" lon="12.638805156921181"><ele>61.0</ele><time>2026-05-03T15:47:51.999Z</time></trkpt><trkpt lat="41.94455787024173" lon="12.638546073987087"><ele>60.0</ele><time>2026-05-03T15:47:52.999Z</time></trkpt><trkpt lat="41.944469537261085" lon="12.638271983641335"><ele>59.66666666666667</ele><time>2026-05-03T15:47:53.999Z</time></trkpt><trkpt lat="41.944378499210835" lon="12.638007209125202"><ele>59.333333333333336</ele><time>2026-05-03T15:47:54.999Z</time></trkpt><trkpt lat="41.94430444631737" lon="12.63774194574631"><ele>59.0</ele><time>2026-05-03T15:47:55.999Z</time></trkpt><trkpt lat="41.94422810625716" lon="12.637471717313092"><ele>58.333333333333336</ele><time>2026-05-03T15:47:56.999Z</time></trkpt><trkpt lat="41.94415737412371" lon="12.637202463394072"><ele>57.66666666666667</ele><time>2026-05-03T15:47:57.999Z</time></trkpt><trkpt lat="41.94408949635254" lon="12.63692713749976"><ele>57.0</ele><time>2026-05-03T15:47:58.999Z</time></trkpt><trkpt lat="41.94402743371609" lon="12.636656132277587"><ele>56.0</ele><time>2026-05-03T15:47:59.999Z</time></trkpt><trkpt lat="41.94396694382916" lon="12.636379635335054"><ele>55.0</ele><time>2026-05-03T15:48:00.999Z</time></trkpt><trkpt lat="41.943907840001906" lon="12.636103413481122"><ele>54.0</ele><time>2026-05-03T15:48:01.999Z</time></trkpt><trkpt lat="41.943847039882904" lon="12.635830785867032"><ele>54.0</ele><time>2026-05-03T15:48:02.999Z</time></trkpt><trkpt lat="41.94378196335712" lon="12.635555834628944"><ele>54.0</ele><time>2026-05-03T15:48:03.999Z</time></trkpt><trkpt lat="41.943720182103505" lon="12.635279672168378"><ele>54.0</ele><time>2026-05-03T15:48:04.999Z</time></trkpt><trkpt lat="41.94366460160141" lon="12.635008392757713"><ele>53.0</ele><time>2026-05-03T15:48:05.999Z</time></trkpt><trkpt lat="41.943612266116496" lon="12.63474271448824"><ele>52.0</ele><time>2026-05-03T15:48:06.999Z</time></trkpt><trkpt lat="41.943560276450285" lon="12.634483715464375"><ele>51.0</ele><time>2026-05-03T15:48:07.999Z</time></trkpt><trkpt lat="41.943506233160434" lon="12.634228457952144"><ele>50.33333333333333</ele><time>2026-05-03T15:48:08.999Z</time></trkpt><trkpt lat="41.94345235520132" lon="12.6339722183841"><ele>49.666666666666664</ele><time>2026-05-03T15:48:09.999Z</time></trkpt><trkpt lat="41.9433996549073" lon="12.63372121254911"><ele>49.0</ele><time>2026-05-03T15:48:10.999Z</time></trkpt><trkpt lat="41.943342121448104" lon="12.633469399756207"><ele>50.33333333333333</ele><time>2026-05-03T15:48:11.999Z</time></trkpt><trkpt lat="41.94328717711702" lon="12.63321418881099"><ele>51.66666666666667</ele><time>2026-05-03T15:48:12.999Z</time></trkpt><trkpt lat="41.943225970673296" lon="12.63297207495416"><ele>53.0</ele><time>2026-05-03T15:48:13.999Z</time></trkpt><trkpt lat="41.943157972950125" lon="12.6327332333309"><ele>53.333333333333336</ele><time>2026-05-03T15:48:14.999Z</time></trkpt><trkpt lat="41.94309249480884" lon="12.632504427099722"><ele>53.66666666666667</ele><time>2026-05-03T15:48:15.999Z</time></trkpt><trkpt lat="41.943033071195416" lon="12.632282823005678"><ele>54.0</ele><time>2026-05-03T15:48:17Z</time></trkpt><trkpt lat="41.94298945890183" lon="12.63205526596172"><ele>52.66666666666667</ele><time>2026-05-03T15:48:18Z</time></trkpt><trkpt lat="41.94293437194282" lon="12.631845775508328"><ele>51.333333333333336</ele><time>2026-05-03T15:48:19Z</time></trkpt><trkpt lat="41.942883718873496" lon="12.631653146350697"><ele>50.0</ele><time>2026-05-03T15:48:20Z</time></trkpt><trkpt lat="41.94282815939026" lon="12.631438632965239"><ele>50.0</ele><time>2026-05-03T15:48:21Z</time></trkpt><trkpt lat="41.94276926845429" lon="12.631210173800884"><ele>50.0</ele><time>2026-05-03T15:48:22Z</time></trkpt><trkpt lat="41.94270948662272" lon="12.630981278694811"><ele>50.0</ele><time>2026-05-03T15:48:23Z</time></trkpt><trkpt lat="41.942649471403236" lon="12.630751947276654"><ele>50.0</ele><time>2026-05-03T15:48:24Z</time></trkpt><trkpt lat="41.94258651274559" lon="12.630525048709364"><ele>50.0</ele><time>2026-05-03T15:48:25Z</time></trkpt><trkpt lat="41.942524143082665" lon="12.630315001400684"><ele>50.0</ele><time>2026-05-03T15:48:26Z</time></trkpt><trkpt lat="41.94244546721275" lon="12.63012885798548"><ele>50.0</ele><time>2026-05-03T15:48:27Z</time></trkpt><trkpt lat="41.94238693003492" lon="12.629946742602664"><ele>50.0</ele><time>2026-05-03T15:48:28Z</time></trkpt><trkpt lat="41.94231968488069" lon="12.629774017650647"><ele>50.0</ele><time>2026-05-03T15:48:29Z</time></trkpt><trkpt lat="41.942256917798034" lon="12.62961794545101"><ele>50.0</ele><time>2026-05-03T15:48:30Z</time></trkpt><trkpt lat="41.942186618412805" lon="12.629471848475752"><ele>49.66666666666667</ele><time>2026-05-03T15:48:31Z</time></trkpt><trkpt lat="41.94209074742958" lon="12.629316901793516"><ele>49.33333333333333</ele><time>2026-05-03T15:48:32Z</time></trkpt><trkpt lat="41.94200398347106" lon="12.629135143793642"><ele>49.0</ele><time>2026-05-03T15:48:33Z</time></trkpt><trkpt lat="41.94191027771112" lon="12.62896595298289"><ele>49.0</ele><time>2026-05-03T15:48:34Z</time></trkpt><trkpt lat="41.941809204431856" lon="12.628789479806327"><ele>49.0</ele><time>2026-05-03T15:48:35Z</time></trkpt><trkpt lat="41.941693638472685" lon="12.628629121301106"><ele>49.0</ele><time>2026-05-03T15:48:36Z</time></trkpt><trkpt lat="41.9415907987831" lon="12.628445108274768"><ele>49.0</ele><time>2026-05-03T15:48:37Z</time></trkpt><trkpt lat="41.94148784167607" lon="12.628263893166165"><ele>49.0</ele><time>2026-05-03T15:48:38Z</time></trkpt><trkpt lat="41.94138281753409" lon="12.628087344610513"><ele>49.0</ele><time>2026-05-03T15:48:39Z</time></trkpt><trkpt lat="41.94128056214759" lon="12.627915826571858"><ele>48.75</ele><time>2026-05-03T15:48:40Z</time></trkpt><trkpt lat="41.94118280712733" lon="12.62775301585385"><ele>48.5</ele><time>2026-05-03T15:48:41Z</time></trkpt><trkpt lat="41.941086640376376" lon="12.62760108393265"><ele>48.25</ele><time>2026-05-03T15:48:42Z</time></trkpt><trkpt lat="41.94099033235585" lon="12.627455300132823"><ele>48.0</ele><time>2026-05-03T15:48:43Z</time></trkpt><trkpt lat="41.94088864482657" lon="12.627304939951529"><ele>49.33333333333333</ele><time>2026-05-03T15:48:44Z</time></trkpt><trkpt lat="41.94078289348845" lon="12.627154101907465"><ele>50.666666666666664</ele><time>2026-05-03T15:48:45Z</time></trkpt><trkpt lat="41.940675142669974" lon="12.627011608215875"><ele>52.0</ele><time>2026-05-03T15:48:46Z</time></trkpt><trkpt lat="41.94056866999697" lon="12.626872024726639"><ele>52.0</ele><time>2026-05-03T15:48:47Z</time></trkpt><trkpt lat="41.9404609860086" lon="12.626741518461197"><ele>52.0</ele><time>2026-05-03T15:48:48Z</time></trkpt><trkpt lat="41.94035761583491" lon="12.626616216900588"><ele>52.0</ele><time>2026-05-03T15:48:49Z</time></trkpt><trkpt lat="41.94024264296926" lon="12.6265002616839"><ele>52.0</ele><time>2026-05-03T15:48:50Z</time></trkpt><trkpt lat="41.94013631737386" lon="12.626389602481211"><ele>51.75</ele><time>2026-05-03T15:48:51Z</time></trkpt><trkpt lat="41.94002784709725" lon="12.626272559956327"><ele>51.5</ele><time>2026-05-03T15:48:52Z</time></trkpt><trkpt lat="41.939923233609846" lon="12.626150638809275"><ele>51.25</ele><time>2026-05-03T15:48:53Z</time></trkpt><trkpt lat="41.939836643308155" lon="12.626028477622897"><ele>51.0</ele><time>2026-05-03T15:48:54Z</time></trkpt><trkpt lat="41.93976948666712" lon="12.625900794414354"><ele>51.0</ele><time>2026-05-03T15:48:55Z</time></trkpt><trkpt lat="41.93970677846221" lon="12.625773561447621"><ele>51.0</ele><time>2026-05-03T15:48:56Z</time></trkpt><trkpt lat="41.93964548653147" lon="12.625637536971304"><ele>51.0</ele><time>2026-05-03T15:48:57Z</time></trkpt><trkpt lat="41.939597033795664" lon="12.625497102053503"><ele>51.0</ele><time>2026-05-03T15:48:58Z</time></trkpt><trkpt lat="41.9395518281761" lon="12.625360645082207"><ele>51.166666666666664</ele><time>2026-05-03T15:48:58.999Z</time></trkpt><trkpt lat="41.939512509185" lon="12.625240276003522"><ele>51.33333333333333</ele><time>2026-05-03T15:48:59.999Z</time></trkpt><trkpt lat="41.93947876211873" lon="12.625137304711373"><ele>51.5</ele><time>2026-05-03T15:49:00.999Z</time></trkpt><trkpt lat="41.939445518306776" lon="12.625033601471014"><ele>51.666666666666664</ele><time>2026-05-03T15:49:01.999Z</time></trkpt><trkpt lat="41.9394068400197" lon="12.624925399999803"><ele>51.83333333333333</ele><time>2026-05-03T15:49:02.999Z</time></trkpt><trkpt lat="41.939370214307516" lon="12.624814077371425"><ele>52.0</ele><time>2026-05-03T15:49:03.999Z</time></trkpt><trkpt lat="41.9393373496246" lon="12.624700829992824"><ele>52.0</ele><time>2026-05-03T15:49:04.999Z</time></trkpt><trkpt lat="41.93930852371692" lon="12.62458919272223"><ele>52.0</ele><time>2026-05-03T15:49:05.999Z</time></trkpt><trkpt lat="41.93927269726006" lon="12.62447727433803"><ele>52.0</ele><time>2026-05-03T15:49:06.999Z</time></trkpt><trkpt lat="41.93923554638248" lon="12.62436082057635"><ele>52.0</ele><time>2026-05-03T15:49:07.999Z</time></trkpt><trkpt lat="41.93919888755968" lon="12.6242516172224"><ele>52.0</ele><time>2026-05-03T15:49:08.999Z</time></trkpt><trkpt lat="41.939160589782624" lon="12.624136786118603"><ele>51.99999999999999</ele><time>2026-05-03T15:49:09.999Z</time></trkpt><trkpt lat="41.93912782808742" lon="12.624033726074018"><ele>52.0</ele><time>2026-05-03T15:49:10.999Z</time></trkpt><trkpt lat="41.93909999804488" lon="12.623941468879687"><ele>52.0</ele><time>2026-05-03T15:49:11.999Z</time></trkpt><trkpt lat="41.93905442044291" lon="12.623806740391029"><ele>52.0</ele><time>2026-05-03T15:49:13.999Z</time></trkpt><trkpt lat="41.9390402079751" lon="12.623721606753456"><ele>51.99999999999999</ele><time>2026-05-03T15:49:15.999Z</time></trkpt><trkpt lat="41.93906622515159" lon="12.623620935374653"><ele>52.0</ele><time>2026-05-03T15:49:18.999Z</time></trkpt><trkpt lat="41.93900603199786" lon="12.6235658769295"><ele>51.99999999999999</ele><time>2026-05-03T15:49:43.999Z</time></trkpt><trkpt lat="41.93894911596309" lon="12.623529336317038"><ele>52.0</ele><time>2026-05-03T15:49:45.999Z</time></trkpt><trkpt lat="41.93888724703312" lon="12.623554305274995"><ele>52.0</ele><time>2026-05-03T15:49:46.999Z</time></trkpt><trkpt lat="41.93881772217755" lon="12.623606163996874"><ele>52.0</ele><time>2026-05-03T15:49:47.999Z</time></trkpt><trkpt lat="41.93874236211954" lon="12.623643229816759"><ele>51.99999999999999</ele><time>2026-05-03T15:49:48.999Z</time></trkpt><trkpt lat="41.93866135889603" lon="12.623691349912628"><ele>52.0</ele><time>2026-05-03T15:49:49.999Z</time></trkpt><trkpt lat="41.93858034467157" lon="12.623724585647935"><ele>52.166666666666664</ele><time>2026-05-03T15:49:50.999Z</time></trkpt><trkpt lat="41.938511161091405" lon="12.623750076081759"><ele>52.33333333333333</ele><time>2026-05-03T15:49:51.999Z</time></trkpt><trkpt lat="41.93845404686483" lon="12.623796397782856"><ele>52.5</ele><time>2026-05-03T15:49:52.999Z</time></trkpt><trkpt lat="41.938361724762565" lon="12.623839642210609"><ele>52.66666666666667</ele><time>2026-05-03T15:49:54.999Z</time></trkpt><trkpt lat="41.93829964651773" lon="12.623699957236367"><ele>52.833333333333336</ele><time>2026-05-03T15:49:55.999Z</time></trkpt><trkpt lat="41.93823590177663" lon="12.623637930246897"><ele>53.0</ele><time>2026-05-03T15:49:56.999Z</time></trkpt><trkpt lat="41.938191539107386" lon="12.623544661208552"><ele>53.00000000000001</ele><time>2026-05-03T15:49:57.999Z</time></trkpt><trkpt lat="41.93816430322782" lon="12.62344097524287"><ele>53.0</ele><time>2026-05-03T15:49:58.999Z</time></trkpt><trkpt lat="41.93814972719238" lon="12.623327220640725"><ele>53.0</ele><time>2026-05-03T15:49:59.999Z</time></trkpt><trkpt lat="41.93814450069511" lon="12.623212315190669"><ele>53.0</ele><time>2026-05-03T15:50:00.999Z</time></trkpt><trkpt lat="41.93814331164704" lon="12.623098247778303"><ele>53.00000000000001</ele><time>2026-05-03T15:50:01.999Z</time></trkpt><trkpt lat="41.9381441207137" lon="12.622976971770193"><ele>53.0</ele><time>2026-05-03T15:50:02.999Z</time></trkpt><trkpt lat="41.93814129963934" lon="12.622857564881146"><ele>52.4</ele><time>2026-05-03T15:50:03.999Z</time></trkpt><trkpt lat="41.93813490075375" lon="12.622733065528763"><ele>51.8</ele><time>2026-05-03T15:50:04.999Z</time></trkpt><trkpt lat="41.93812674126784" lon="12.622600918638714"><ele>51.2</ele><time>2026-05-03T15:50:05.999Z</time></trkpt><trkpt lat="41.93812118194651" lon="12.622462570162359"><ele>50.6</ele><time>2026-05-03T15:50:06.999Z</time></trkpt><trkpt lat="41.93811502899522" lon="12.62231608034795"><ele>50.0</ele><time>2026-05-03T15:50:07.999Z</time></trkpt><trkpt lat="41.938108284349276" lon="12.622166969651628"><ele>50.0</ele><time>2026-05-03T15:50:08.999Z</time></trkpt><trkpt lat="41.93810306365814" lon="12.622010610907953"><ele>50.0</ele><time>2026-05-03T15:50:09.999Z</time></trkpt><trkpt lat="41.93809591904102" lon="12.621853133529639"><ele>50.0</ele><time>2026-05-03T15:50:10.999Z</time></trkpt><trkpt lat="41.93808498424336" lon="12.621697457686121"><ele>50.0</ele><time>2026-05-03T15:50:11.999Z</time></trkpt><trkpt lat="41.93806610717574" lon="12.62153568947401"><ele>50.0</ele><time>2026-05-03T15:50:12.999Z</time></trkpt><trkpt lat="41.93804543567107" lon="12.621371216306434"><ele>50.0</ele><time>2026-05-03T15:50:13.999Z</time></trkpt><trkpt lat="41.938026614884" lon="12.621206646177244"><ele>50.0</ele><time>2026-05-03T15:50:14.999Z</time></trkpt><trkpt lat="41.93800957025951" lon="12.621035982711364"><ele>50.0</ele><time>2026-05-03T15:50:15.999Z</time></trkpt><trkpt lat="41.93799367487475" lon="12.62086904129874"><ele>49.75</ele><time>2026-05-03T15:50:16.999Z</time></trkpt><trkpt lat="41.93798279816997" lon="12.620701509660769"><ele>49.5</ele><time>2026-05-03T15:50:17.999Z</time></trkpt><trkpt lat="41.93797191725167" lon="12.62053205949795"><ele>49.25</ele><time>2026-05-03T15:50:18.999Z</time></trkpt><trkpt lat="41.93795484738806" lon="12.620371091994391"><ele>49.0</ele><time>2026-05-03T15:50:19.999Z</time></trkpt><trkpt lat="41.93792369879824" lon="12.620209224954124"><ele>48.5</ele><time>2026-05-03T15:50:20.999Z</time></trkpt><trkpt lat="41.93788861126601" lon="12.620050075764949"><ele>48.0</ele><time>2026-05-03T15:50:21.999Z</time></trkpt><trkpt lat="41.93785051413388" lon="12.61989852885801"><ele>47.5</ele><time>2026-05-03T15:50:23Z</time></trkpt><trkpt lat="41.937808882921075" lon="12.61974154355887"><ele>47.0</ele><time>2026-05-03T15:50:24Z</time></trkpt><trkpt lat="41.93775193275589" lon="12.61959674526587"><ele>47.5</ele><time>2026-05-03T15:50:25Z</time></trkpt><trkpt lat="41.93770457505316" lon="12.619451078158878"><ele>48.0</ele><time>2026-05-03T15:50:26Z</time></trkpt><trkpt lat="41.93766206880098" lon="12.61930512748412"><ele>48.5</ele><time>2026-05-03T15:50:27Z</time></trkpt><trkpt lat="41.93762164774314" lon="12.619158033046668"><ele>49.0</ele><time>2026-05-03T15:50:28Z</time></trkpt><trkpt lat="41.937583169352074" lon="12.619014195379371"><ele>48.0</ele><time>2026-05-03T15:50:29Z</time></trkpt><trkpt lat="41.93754865681681" lon="12.618869822680775"><ele>47.0</ele><time>2026-05-03T15:50:30Z</time></trkpt><trkpt lat="41.93750939019617" lon="12.618727960484229"><ele>46.0</ele><time>2026-05-03T15:50:31Z</time></trkpt><trkpt lat="41.93746805726281" lon="12.618588463630237"><ele>45.0</ele><time>2026-05-03T15:50:32Z</time></trkpt><trkpt lat="41.937419760731125" lon="12.61844829011178"><ele>44.8</ele><time>2026-05-03T15:50:33Z</time></trkpt><trkpt lat="41.93738263303651" lon="12.618310324819344"><ele>44.6</ele><time>2026-05-03T15:50:34Z</time></trkpt><trkpt lat="41.937337259778666" lon="12.618172555243417"><ele>44.400000000000006</ele><time>2026-05-03T15:50:35Z</time></trkpt><trkpt lat="41.93729124524589" lon="12.618030617668564"><ele>44.2</ele><time>2026-05-03T15:50:36Z</time></trkpt><trkpt lat="41.93725230077015" lon="12.617889976849701"><ele>44.0</ele><time>2026-05-03T15:50:37Z</time></trkpt><trkpt lat="41.93720911263469" lon="12.617743699800956"><ele>44.0</ele><time>2026-05-03T15:50:38Z</time></trkpt><trkpt lat="41.93716880392702" lon="12.617597441864808"><ele>44.0</ele><time>2026-05-03T15:50:39Z</time></trkpt><trkpt lat="41.93712920355877" lon="12.617453414969122"><ele>44.0</ele><time>2026-05-03T15:50:40Z</time></trkpt><trkpt lat="41.9370924750737" lon="12.617307872603101"><ele>44.0</ele><time>2026-05-03T15:50:41Z</time></trkpt><trkpt lat="41.9370583118365" lon="12.617159810760402"><ele>44.0</ele><time>2026-05-03T15:50:42Z</time></trkpt><trkpt lat="41.93702010871892" lon="12.617011519582947"><ele>44.0</ele><time>2026-05-03T15:50:43Z</time></trkpt><trkpt lat="41.93698168557743" lon="12.616859582071807"><ele>44.0</ele><time>2026-05-03T15:50:44Z</time></trkpt><trkpt lat="41.93694368288992" lon="12.616703849480572"><ele>44.0</ele><time>2026-05-03T15:50:45Z</time></trkpt><trkpt lat="41.936904054961325" lon="12.61654449176036"><ele>43.5</ele><time>2026-05-03T15:50:46Z</time></trkpt><trkpt lat="41.93686346038627" lon="12.616384851153068"><ele>43.0</ele><time>2026-05-03T15:50:47Z</time></trkpt><trkpt lat="41.93682084718041" lon="12.616222051091128"><ele>42.5</ele><time>2026-05-03T15:50:48Z</time></trkpt><trkpt lat="41.93677794653934" lon="12.616054278020064"><ele>42.0</ele><time>2026-05-03T15:50:49Z</time></trkpt><trkpt lat="41.93673529508434" lon="12.61587984735143"><ele>42.5</ele><time>2026-05-03T15:50:50Z</time></trkpt><trkpt lat="41.936688643984354" lon="12.615697869108324"><ele>43.0</ele><time>2026-05-03T15:50:51Z</time></trkpt><trkpt lat="41.936643971345084" lon="12.615513667461247"><ele>43.5</ele><time>2026-05-03T15:50:52Z</time></trkpt><trkpt lat="41.936598628269415" lon="12.61532755106689"><ele>44.0</ele><time>2026-05-03T15:50:53Z</time></trkpt><trkpt lat="41.9365492315682" lon="12.615134862511217"><ele>44.75</ele><time>2026-05-03T15:50:54Z</time></trkpt><trkpt lat="41.936497326495534" lon="12.61494534345145"><ele>45.5</ele><time>2026-05-03T15:50:55Z</time></trkpt><trkpt lat="41.93644894169381" lon="12.61475549643911"><ele>46.25</ele><time>2026-05-03T15:50:56Z</time></trkpt><trkpt lat="41.93640337250985" lon="12.61456557021633"><ele>47.0</ele><time>2026-05-03T15:50:57Z</time></trkpt><trkpt lat="41.93636118257122" lon="12.614375982174904"><ele>47.33333333333333</ele><time>2026-05-03T15:50:58Z</time></trkpt><trkpt lat="41.93631174951429" lon="12.614183134202532"><ele>47.666666666666664</ele><time>2026-05-03T15:50:59Z</time></trkpt><trkpt lat="41.93626483559072" lon="12.613993814290689"><ele>48.0</ele><time>2026-05-03T15:51:00Z</time></trkpt><trkpt lat="41.936211309214855" lon="12.613800394458059"><ele>47.75</ele><time>2026-05-03T15:51:01Z</time></trkpt><trkpt lat="41.93616212584795" lon="12.613609710316158"><ele>47.5</ele><time>2026-05-03T15:51:02Z</time></trkpt><trkpt lat="41.93611823642313" lon="12.613419343163432"><ele>47.25</ele><time>2026-05-03T15:51:03Z</time></trkpt><trkpt lat="41.93607746138628" lon="12.613234913413002"><ele>47.0</ele><time>2026-05-03T15:51:04Z</time></trkpt><trkpt lat="41.93603373835758" lon="12.61305201204682"><ele>47.0</ele><time>2026-05-03T15:51:05Z</time></trkpt><trkpt lat="41.93599181386682" lon="12.61287096713991"><ele>47.0</ele><time>2026-05-03T15:51:06Z</time></trkpt><trkpt lat="41.93594988842224" lon="12.612695875075085"><ele>47.0</ele><time>2026-05-03T15:51:07Z</time></trkpt><trkpt lat="41.93590696011687" lon="12.612523480215032"><ele>47.0</ele><time>2026-05-03T15:51:08Z</time></trkpt><trkpt lat="41.935861522656445" lon="12.612350181934294"><ele>46.5</ele><time>2026-05-03T15:51:09Z</time></trkpt><trkpt lat="41.935815420755546" lon="12.612177375929376"><ele>46.0</ele><time>2026-05-03T15:51:10Z</time></trkpt><trkpt lat="41.935764366784376" lon="12.61200445649541"><ele>45.5</ele><time>2026-05-03T15:51:11Z</time></trkpt><trkpt lat="41.93571593029839" lon="12.611833084542779"><ele>45.0</ele><time>2026-05-03T15:51:11.999Z</time></trkpt><trkpt lat="41.93566618056535" lon="12.611655568960124"><ele>44.25</ele><time>2026-05-03T15:51:12.999Z</time></trkpt><trkpt lat="41.93561726694361" lon="12.611477672940454"><ele>43.5</ele><time>2026-05-03T15:51:13.999Z</time></trkpt><trkpt lat="41.935570443535156" lon="12.611299821050974"><ele>42.75</ele><time>2026-05-03T15:51:14.999Z</time></trkpt><trkpt lat="41.935519933899215" lon="12.611119724741101"><ele>42.0</ele><time>2026-05-03T15:51:15.999Z</time></trkpt><trkpt lat="41.93546682418771" lon="12.610938320206035"><ele>41.5</ele><time>2026-05-03T15:51:16.999Z</time></trkpt><trkpt lat="41.935409769226595" lon="12.610759299077786"><ele>41.0</ele><time>2026-05-03T15:51:17.999Z</time></trkpt><trkpt lat="41.93535369715016" lon="12.610578575697751"><ele>40.5</ele><time>2026-05-03T15:51:18.999Z</time></trkpt><trkpt lat="41.93529788306692" lon="12.610405902181387"><ele>40.0</ele><time>2026-05-03T15:51:19.999Z</time></trkpt><trkpt lat="41.93524421020924" lon="12.610235114284992"><ele>40.0</ele><time>2026-05-03T15:51:20.999Z</time></trkpt><trkpt lat="41.93519239864819" lon="12.610065677747862"><ele>40.0</ele><time>2026-05-03T15:51:21.999Z</time></trkpt><trkpt lat="41.93514573565374" lon="12.60988920084623"><ele>40.0</ele><time>2026-05-03T15:51:22.999Z</time></trkpt><trkpt lat="41.93509271897728" lon="12.60971649971067"><ele>40.0</ele><time>2026-05-03T15:51:23.999Z</time></trkpt><trkpt lat="41.93503726737545" lon="12.609547234798743"><ele>39.0</ele><time>2026-05-03T15:51:24.999Z</time></trkpt><trkpt lat="41.934978984400296" lon="12.60937719290102"><ele>38.0</ele><time>2026-05-03T15:51:25.999Z</time></trkpt><trkpt lat="41.93492388901387" lon="12.609202611435983"><ele>37.0</ele><time>2026-05-03T15:51:26.999Z</time></trkpt><trkpt lat="41.93486627837945" lon="12.609029360263811"><ele>36.0</ele><time>2026-05-03T15:51:27.999Z</time></trkpt><trkpt lat="41.93481174348216" lon="12.608854872990712"><ele>36.0</ele><time>2026-05-03T15:51:28.999Z</time></trkpt><trkpt lat="41.93475474353742" lon="12.608681025363293"><ele>36.0</ele><time>2026-05-03T15:51:29.999Z</time></trkpt><trkpt lat="41.93470083016871" lon="12.608507997397638"><ele>36.0</ele><time>2026-05-03T15:51:30.999Z</time></trkpt><trkpt lat="41.93464937891802" lon="12.608335688349014"><ele>36.0</ele><time>2026-05-03T15:51:31.999Z</time></trkpt><trkpt lat="41.93460784398934" lon="12.608168706762722"><ele>36.25</ele><time>2026-05-03T15:51:32.999Z</time></trkpt><trkpt lat="41.93456380734869" lon="12.607996425108938"><ele>36.5</ele><time>2026-05-03T15:51:33.999Z</time></trkpt><trkpt lat="41.934529181768895" lon="12.607825868761857"><ele>36.75</ele><time>2026-05-03T15:51:34.999Z</time></trkpt><trkpt lat="41.93448674613633" lon="12.607653698064729"><ele>37.0</ele><time>2026-05-03T15:51:35.999Z</time></trkpt><trkpt lat="41.9344558654678" lon="12.607483056828364"><ele>38.0</ele><time>2026-05-03T15:51:36.999Z</time></trkpt><trkpt lat="41.93442299242462" lon="12.607306087851036"><ele>39.0</ele><time>2026-05-03T15:51:37.999Z</time></trkpt><trkpt lat="41.93440007096766" lon="12.607131459359465"><ele>40.0</ele><time>2026-05-03T15:51:38.999Z</time></trkpt><trkpt lat="41.934370844057604" lon="12.60695530714602"><ele>41.0</ele><time>2026-05-03T15:51:39.999Z</time></trkpt><trkpt lat="41.93434176644284" lon="12.606781559908088"><ele>41.0</ele><time>2026-05-03T15:51:40.999Z</time></trkpt><trkpt lat="41.93431025671631" lon="12.60660697171688"><ele>41.0</ele><time>2026-05-03T15:51:41.999Z</time></trkpt><trkpt lat="41.934287340148856" lon="12.606433775992139"><ele>41.0</ele><time>2026-05-03T15:51:42.999Z</time></trkpt><trkpt lat="41.93425771208415" lon="12.606258368095279"><ele>41.0</ele><time>2026-05-03T15:51:43.999Z</time></trkpt><trkpt lat="41.93423194516084" lon="12.606084962938757"><ele>39.0</ele><time>2026-05-03T15:51:44.999Z</time></trkpt><trkpt lat="41.93421066680517" lon="12.605906632073273"><ele>37.0</ele><time>2026-05-03T15:51:45.999Z</time></trkpt><trkpt lat="41.93417473789839" lon="12.605734286669048"><ele>35.0</ele><time>2026-05-03T15:51:46.999Z</time></trkpt><trkpt lat="41.93414278877002" lon="12.605563722459662"><ele>33.0</ele><time>2026-05-03T15:51:47.999Z</time></trkpt><trkpt lat="41.93411427837807" lon="12.605392081078554"><ele>33.0</ele><time>2026-05-03T15:51:48.999Z</time></trkpt><trkpt lat="41.93408138952852" lon="12.6052182399755"><ele>33.0</ele><time>2026-05-03T15:51:49.999Z</time></trkpt><trkpt lat="41.93404508826252" lon="12.605043862961185"><ele>33.0</ele><time>2026-05-03T15:51:50.999Z</time></trkpt><trkpt lat="41.93401262286426" lon="12.604866247536535"><ele>33.0</ele><time>2026-05-03T15:51:51.999Z</time></trkpt><trkpt lat="41.93398320507471" lon="12.604689597120077"><ele>33.0</ele><time>2026-05-03T15:51:52.999Z</time></trkpt><trkpt lat="41.93395005618121" lon="12.604514294318772"><ele>33.0</ele><time>2026-05-03T15:51:53.999Z</time></trkpt><trkpt lat="41.93392185166959" lon="12.604344157034149"><ele>33.0</ele><time>2026-05-03T15:51:54.999Z</time></trkpt><trkpt lat="41.93389871876266" lon="12.604184806965321"><ele>33.0</ele><time>2026-05-03T15:51:55.999Z</time></trkpt><trkpt lat="41.9338617115345" lon="12.604044816979124"><ele>33.0</ele><time>2026-05-03T15:51:56.999Z</time></trkpt><trkpt lat="41.93384601713091" lon="12.603916659968025"><ele>33.0</ele><time>2026-05-03T15:51:57.999Z</time></trkpt><trkpt lat="41.93382366662079" lon="12.603804042157435"><ele>33.0</ele><time>2026-05-03T15:51:58.999Z</time></trkpt><trkpt lat="41.93380154290762" lon="12.603701060624603"><ele>33.0</ele><time>2026-05-03T15:51:59.999Z</time></trkpt><trkpt lat="41.93377606434036" lon="12.603597077770184"><ele>33.0</ele><time>2026-05-03T15:52:00.999Z</time></trkpt><trkpt lat="41.93375250280635" lon="12.603493672643822"><ele>33.0</ele><time>2026-05-03T15:52:01.999Z</time></trkpt><trkpt lat="41.93373471718784" lon="12.603392534374379"><ele>33.0</ele><time>2026-05-03T15:52:02.999Z</time></trkpt><trkpt lat="41.9337167141293" lon="12.603280149874355"><ele>33.0</ele><time>2026-05-03T15:52:03.999Z</time></trkpt><trkpt lat="41.93369843755598" lon="12.603167836382216"><ele>33.0</ele><time>2026-05-03T15:52:04.999Z</time></trkpt><trkpt lat="41.933675450182804" lon="12.60304101932754"><ele>33.0</ele><time>2026-05-03T15:52:05.999Z</time></trkpt><trkpt lat="41.933657207741014" lon="12.60291244015689"><ele>33.0</ele><time>2026-05-03T15:52:06.999Z</time></trkpt><trkpt lat="41.93363585717059" lon="12.60276746880035"><ele>32.25</ele><time>2026-05-03T15:52:07.999Z</time></trkpt><trkpt lat="41.93361714492276" lon="12.602614089963085"><ele>31.5</ele><time>2026-05-03T15:52:08.999Z</time></trkpt><trkpt lat="41.93359922904545" lon="12.602455393337724"><ele>30.75</ele><time>2026-05-03T15:52:09.999Z</time></trkpt><trkpt lat="41.93357443441866" lon="12.602288062383787"><ele>30.0</ele><time>2026-05-03T15:52:10.999Z</time></trkpt><trkpt lat="41.93352984881507" lon="12.602093004805822"><ele>30.0</ele><time>2026-05-03T15:52:11.999Z</time></trkpt><trkpt lat="41.93349356674684" lon="12.601890284447808"><ele>30.0</ele><time>2026-05-03T15:52:12.999Z</time></trkpt><trkpt lat="41.933454807892055" lon="12.601678613445442"><ele>30.0</ele><time>2026-05-03T15:52:13.999Z</time></trkpt><trkpt lat="41.933415126595825" lon="12.601461223533425"><ele>28.666666666666664</ele><time>2026-05-03T15:52:14.999Z</time></trkpt><trkpt lat="41.93338495101361" lon="12.601240847500257"><ele>27.333333333333332</ele><time>2026-05-03T15:52:15.999Z</time></trkpt><trkpt lat="41.93335559859987" lon="12.601019571498341"><ele>26.0</ele><time>2026-05-03T15:52:16.999Z</time></trkpt><trkpt lat="41.93332943882932" lon="12.600793450747789"><ele>26.0</ele><time>2026-05-03T15:52:17.999Z</time></trkpt><trkpt lat="41.933300258437214" lon="12.600571981985931"><ele>26.0</ele><time>2026-05-03T15:52:18.999Z</time></trkpt><trkpt lat="41.93326917608884" lon="12.600336758048023"><ele>26.0</ele><time>2026-05-03T15:52:19.999Z</time></trkpt><trkpt lat="41.933242513228315" lon="12.600109683154177"><ele>26.0</ele><time>2026-05-03T15:52:20.999Z</time></trkpt><trkpt lat="41.933218733181434" lon="12.599882176714443"><ele>26.0</ele><time>2026-05-03T15:52:21.999Z</time></trkpt><trkpt lat="41.93320279871365" lon="12.599654986626641"><ele>26.0</ele><time>2026-05-03T15:52:22.999Z</time></trkpt><trkpt lat="41.933210691873406" lon="12.599422243621632"><ele>26.0</ele><time>2026-05-03T15:52:23.999Z</time></trkpt><trkpt lat="41.93317378057885" lon="12.599198831667952"><ele>26.0</ele><time>2026-05-03T15:52:24.999Z</time></trkpt><trkpt lat="41.933146248505466" lon="12.598981473468646"><ele>26.0</ele><time>2026-05-03T15:52:25.999Z</time></trkpt><trkpt lat="41.933117075905585" lon="12.598759779896156"><ele>26.333333333333332</ele><time>2026-05-03T15:52:26.999Z</time></trkpt><trkpt lat="41.9330696545723" lon="12.59857865426899"><ele>26.666666666666664</ele><time>2026-05-03T15:52:27.999Z</time></trkpt><trkpt lat="41.93303574028578" lon="12.598362206092261"><ele>27.0</ele><time>2026-05-03T15:52:29Z</time></trkpt><trkpt lat="41.9330021758066" lon="12.598142751875738"><ele>27.0</ele><time>2026-05-03T15:52:30Z</time></trkpt><trkpt lat="41.932969776598576" lon="12.597930829855148"><ele>27.0</ele><time>2026-05-03T15:52:31Z</time></trkpt><trkpt lat="41.932943979029424" lon="12.597733174703682"><ele>27.0</ele><time>2026-05-03T15:52:32Z</time></trkpt><trkpt lat="41.93291090355705" lon="12.597537838208602"><ele>27.0</ele><time>2026-05-03T15:52:33Z</time></trkpt><trkpt lat="41.9328744297587" lon="12.597343863588423"><ele>27.0</ele><time>2026-05-03T15:52:34Z</time></trkpt><trkpt lat="41.9328386588567" lon="12.597157253000658"><ele>27.0</ele><time>2026-05-03T15:52:35Z</time></trkpt><trkpt lat="41.93280523627279" lon="12.596969356921171"><ele>27.0</ele><time>2026-05-03T15:52:36Z</time></trkpt><trkpt lat="41.9327785858747" lon="12.596781401448947"><ele>27.0</ele><time>2026-05-03T15:52:37Z</time></trkpt><trkpt lat="41.932743777352826" lon="12.596592501842093"><ele>27.0</ele><time>2026-05-03T15:52:38Z</time></trkpt><trkpt lat="41.93271438516105" lon="12.596401128593907"><ele>27.0</ele><time>2026-05-03T15:52:39Z</time></trkpt><trkpt lat="41.93268733506223" lon="12.59621265599154"><ele>27.0</ele><time>2026-05-03T15:52:40Z</time></trkpt><trkpt lat="41.932665878734404" lon="12.596017340116997"><ele>27.0</ele><time>2026-05-03T15:52:41Z</time></trkpt><trkpt lat="41.932654701271844" lon="12.595823709572963"><ele>27.0</ele><time>2026-05-03T15:52:42Z</time></trkpt><trkpt lat="41.93264987890686" lon="12.595628411848846"><ele>27.0</ele><time>2026-05-03T15:52:43Z</time></trkpt><trkpt lat="41.93263933220678" lon="12.595426237280737"><ele>27.0</ele><time>2026-05-03T15:52:44Z</time></trkpt><trkpt lat="41.932639124251644" lon="12.59521929790857"><ele>27.0</ele><time>2026-05-03T15:52:45Z</time></trkpt><trkpt lat="41.93264363438088" lon="12.595011263912589"><ele>27.0</ele><time>2026-05-03T15:52:46Z</time></trkpt><trkpt lat="41.93264698706245" lon="12.594804547521548"><ele>27.0</ele><time>2026-05-03T15:52:47Z</time></trkpt><trkpt lat="41.93265510652417" lon="12.594603546201606"><ele>26.75</ele><time>2026-05-03T15:52:48Z</time></trkpt><trkpt lat="41.93267896077478" lon="12.594401981435617"><ele>26.5</ele><time>2026-05-03T15:52:49Z</time></trkpt><trkpt lat="41.932702481259035" lon="12.594209886923514"><ele>26.25</ele><time>2026-05-03T15:52:50Z</time></trkpt><trkpt lat="41.93274722162511" lon="12.5940194144926"><ele>26.0</ele><time>2026-05-03T15:52:51Z</time></trkpt><trkpt lat="41.93277414734623" lon="12.593830107943452"><ele>26.200000000000003</ele><time>2026-05-03T15:52:52Z</time></trkpt><trkpt lat="41.93280408157265" lon="12.593645866774413"><ele>26.400000000000002</ele><time>2026-05-03T15:52:53Z</time></trkpt><trkpt lat="41.9328292043199" lon="12.593486311667803"><ele>26.6</ele><time>2026-05-03T15:52:54Z</time></trkpt><trkpt lat="41.93285031951535" lon="12.593355374868292"><ele>26.8</ele><time>2026-05-03T15:52:55Z</time></trkpt><trkpt lat="41.93286722292042" lon="12.593248389223701"><ele>27.0</ele><time>2026-05-03T15:52:56Z</time></trkpt><trkpt lat="41.93287933048564" lon="12.59316182203324"><ele>27.0</ele><time>2026-05-03T15:52:57Z</time></trkpt><trkpt lat="41.932889655332836" lon="12.593048895334995"><ele>27.000000000000004</ele><time>2026-05-03T15:52:59Z</time></trkpt><trkpt lat="41.93291909256631" lon="12.592927056228486"><ele>27.000000000000004</ele><time>2026-05-03T15:53:47.999Z</time></trkpt><trkpt lat="41.93294626062728" lon="12.592751742086813"><ele>27.0</ele><time>2026-05-03T15:53:49.999Z</time></trkpt><trkpt lat="41.93295854713108" lon="12.592616827837494"><ele>27.0</ele><time>2026-05-03T15:53:50.999Z</time></trkpt><trkpt lat="41.93297013683024" lon="12.592472252815755"><ele>27.0</ele><time>2026-05-03T15:53:51.999Z</time></trkpt><trkpt lat="41.93298782200847" lon="12.59232025744726"><ele>27.0</ele><time>2026-05-03T15:53:52.999Z</time></trkpt><trkpt lat="41.93300875229" lon="12.592158314000885"><ele>27.0</ele><time>2026-05-03T15:53:53.999Z</time></trkpt><trkpt lat="41.933030832654765" lon="12.591981726415261"><ele>27.0</ele><time>2026-05-03T15:53:54.999Z</time></trkpt><trkpt lat="41.93305621865383" lon="12.59178656841594"><ele>27.0</ele><time>2026-05-03T15:53:55.999Z</time></trkpt><trkpt lat="41.93307720731042" lon="12.591594565701087"><ele>27.0</ele><time>2026-05-03T15:53:56.999Z</time></trkpt><trkpt lat="41.93309116373555" lon="12.591396540351099"><ele>27.0</ele><time>2026-05-03T15:53:57.999Z</time></trkpt><trkpt lat="41.9331040286286" lon="12.591192345669535"><ele>27.0</ele><time>2026-05-03T15:53:58.999Z</time></trkpt><trkpt lat="41.93310891407346" lon="12.590981843034175"><ele>27.0</ele><time>2026-05-03T15:53:59.999Z</time></trkpt><trkpt lat="41.9331056817232" lon="12.590766381690749"><ele>27.0</ele><time>2026-05-03T15:54:00.999Z</time></trkpt><trkpt lat="41.933095240747875" lon="12.590552931369505"><ele>27.0</ele><time>2026-05-03T15:54:01.999Z</time></trkpt><trkpt lat="41.93307929589135" lon="12.590349125147567"><ele>27.333333333333336</ele><time>2026-05-03T15:54:02.999Z</time></trkpt><trkpt lat="41.93305939999263" lon="12.590137480144001"><ele>27.666666666666668</ele><time>2026-05-03T15:54:03.999Z</time></trkpt><trkpt lat="41.93304198974452" lon="12.589931695427888"><ele>28.0</ele><time>2026-05-03T15:54:04.999Z</time></trkpt><trkpt lat="41.9330246693939" lon="12.589726560289108"><ele>28.0</ele><time>2026-05-03T15:54:05.999Z</time></trkpt><trkpt lat="41.933016015861696" lon="12.589518648977823"><ele>28.0</ele><time>2026-05-03T15:54:06.999Z</time></trkpt><trkpt lat="41.932996756561494" lon="12.589313511958258"><ele>28.0</ele><time>2026-05-03T15:54:07.999Z</time></trkpt><trkpt lat="41.93297991848116" lon="12.5891008731597"><ele>27.666666666666668</ele><time>2026-05-03T15:54:08.999Z</time></trkpt><trkpt lat="41.93295918131968" lon="12.588887720121884"><ele>27.333333333333336</ele><time>2026-05-03T15:54:09.999Z</time></trkpt><trkpt lat="41.932940982948715" lon="12.588680099682673"><ele>27.0</ele><time>2026-05-03T15:54:10.999Z</time></trkpt><trkpt lat="41.932923129302225" lon="12.588474729454601"><ele>26.666666666666664</ele><time>2026-05-03T15:54:11.999Z</time></trkpt><trkpt lat="41.93289902563391" lon="12.588273877934759"><ele>26.333333333333332</ele><time>2026-05-03T15:54:12.999Z</time></trkpt><trkpt lat="41.93287136729142" lon="12.58807050506871"><ele>26.0</ele><time>2026-05-03T15:54:13.999Z</time></trkpt><trkpt lat="41.932843468963696" lon="12.58787049596311"><ele>26.25</ele><time>2026-05-03T15:54:14.999Z</time></trkpt><trkpt lat="41.93281538266376" lon="12.587673237425548"><ele>26.5</ele><time>2026-05-03T15:54:15.999Z</time></trkpt><trkpt lat="41.932791964870965" lon="12.5874756946719"><ele>26.75</ele><time>2026-05-03T15:54:16.999Z</time></trkpt><trkpt lat="41.932771932859396" lon="12.58728017548161"><ele>27.0</ele><time>2026-05-03T15:54:17.999Z</time></trkpt><trkpt lat="41.93275159820046" lon="12.587082186893074"><ele>27.0</ele><time>2026-05-03T15:54:18.999Z</time></trkpt><trkpt lat="41.93273556368324" lon="12.58688914249273"><ele>27.0</ele><time>2026-05-03T15:54:19.999Z</time></trkpt><trkpt lat="41.93271751900429" lon="12.586696451281828"><ele>27.0</ele><time>2026-05-03T15:54:20.999Z</time></trkpt><trkpt lat="41.932702780928665" lon="12.586502692860845"><ele>27.0</ele><time>2026-05-03T15:54:21.999Z</time></trkpt><trkpt lat="41.93268880311302" lon="12.586304081014829"><ele>27.25</ele><time>2026-05-03T15:54:22.999Z</time></trkpt><trkpt lat="41.93267276651818" lon="12.586110919192372"><ele>27.5</ele><time>2026-05-03T15:54:23.999Z</time></trkpt><trkpt lat="41.932658996201155" lon="12.585929026197435"><ele>27.75</ele><time>2026-05-03T15:54:24.999Z</time></trkpt><trkpt lat="41.932647287130585" lon="12.585753789467208"><ele>28.0</ele><time>2026-05-03T15:54:25.999Z</time></trkpt><trkpt lat="41.932636866906016" lon="12.585581363067835"><ele>28.0</ele><time>2026-05-03T15:54:26.999Z</time></trkpt><trkpt lat="41.932630871058905" lon="12.585426430338357"><ele>27.999999999999996</ele><time>2026-05-03T15:54:27.999Z</time></trkpt><trkpt lat="41.93262764237423" lon="12.585293590012432"><ele>27.999999999999996</ele><time>2026-05-03T15:54:28.999Z</time></trkpt><trkpt lat="41.932629443289954" lon="12.585181938413207"><ele>28.0</ele><time>2026-05-03T15:54:29.999Z</time></trkpt><trkpt lat="41.93263343999647" lon="12.585086692419658"><ele>28.0</ele><time>2026-05-03T15:54:30.999Z</time></trkpt><trkpt lat="41.93262394978453" lon="12.58495615299197"><ele>28.599999999999998</ele><time>2026-05-03T15:54:32.999Z</time></trkpt><trkpt lat="41.93261244997942" lon="12.58480497141176"><ele>29.199999999999996</ele><time>2026-05-03T15:54:35Z</time></trkpt><trkpt lat="41.93260232524334" lon="12.584686152209109"><ele>29.8</ele><time>2026-05-03T15:54:36Z</time></trkpt><trkpt lat="41.932593496249666" lon="12.584573922490204"><ele>30.4</ele><time>2026-05-03T15:54:37Z</time></trkpt><trkpt lat="41.93258915497761" lon="12.584463702416372"><ele>31.0</ele><time>2026-05-03T15:54:38Z</time></trkpt><trkpt lat="41.93258462712288" lon="12.584338773433029"><ele>31.0</ele><time>2026-05-03T15:54:39Z</time></trkpt><trkpt lat="41.932577144534164" lon="12.584189570322259"><ele>31.0</ele><time>2026-05-03T15:54:40Z</time></trkpt><trkpt lat="41.93256606173842" lon="12.584024269861374"><ele>31.0</ele><time>2026-05-03T15:54:41Z</time></trkpt><trkpt lat="41.93255137971687" lon="12.583837085234654"><ele>31.0</ele><time>2026-05-03T15:54:42Z</time></trkpt><trkpt lat="41.93253138626431" lon="12.583640853308124"><ele>31.666666666666668</ele><time>2026-05-03T15:54:43Z</time></trkpt><trkpt lat="41.93250842249076" lon="12.583441942415979"><ele>32.333333333333336</ele><time>2026-05-03T15:54:44Z</time></trkpt><trkpt lat="41.93248356132779" lon="12.583231726021367"><ele>33.0</ele><time>2026-05-03T15:54:45Z</time></trkpt><trkpt lat="41.93247432506271" lon="12.583016718913791"><ele>33.0</ele><time>2026-05-03T15:54:46Z</time></trkpt><trkpt lat="41.932442288361734" lon="12.582796298240728"><ele>33.0</ele><time>2026-05-03T15:54:47Z</time></trkpt><trkpt lat="41.93239375997843" lon="12.58257580882014"><ele>33.0</ele><time>2026-05-03T15:54:48Z</time></trkpt><trkpt lat="41.932349885219075" lon="12.582348250056844"><ele>33.0</ele><time>2026-05-03T15:54:49Z</time></trkpt><trkpt lat="41.932291735392" lon="12.582115941328553"><ele>33.0</ele><time>2026-05-03T15:54:50Z</time></trkpt><trkpt lat="41.93223997444988" lon="12.581881024321392"><ele>33.0</ele><time>2026-05-03T15:54:51Z</time></trkpt><trkpt lat="41.932188108305844" lon="12.581646466160539"><ele>34.0</ele><time>2026-05-03T15:54:52Z</time></trkpt><trkpt lat="41.93213332904535" lon="12.581408354128273"><ele>35.0</ele><time>2026-05-03T15:54:53Z</time></trkpt><trkpt lat="41.9320817678423" lon="12.581170581930479"><ele>36.0</ele><time>2026-05-03T15:54:54Z</time></trkpt><trkpt lat="41.932032112703155" lon="12.580944350097331"><ele>36.0</ele><time>2026-05-03T15:54:55Z</time></trkpt><trkpt lat="41.931985615754485" lon="12.580737898859457"><ele>36.0</ele><time>2026-05-03T15:54:56Z</time></trkpt><trkpt lat="41.931948655308794" lon="12.580551501917604"><ele>36.0</ele><time>2026-05-03T15:54:57Z</time></trkpt><trkpt lat="41.93189600179976" lon="12.580385550552432"><ele>36.0</ele><time>2026-05-03T15:54:58Z</time></trkpt><trkpt lat="41.93185245708987" lon="12.580205638106728"><ele>36.0</ele><time>2026-05-03T15:54:59Z</time></trkpt><trkpt lat="41.93180785121568" lon="12.580033659930297"><ele>36.0</ele><time>2026-05-03T15:55:00Z</time></trkpt><trkpt lat="41.93176164351769" lon="12.579875358457576"><ele>36.0</ele><time>2026-05-03T15:55:01Z</time></trkpt><trkpt lat="41.931729295255835" lon="12.579734549751345"><ele>36.0</ele><time>2026-05-03T15:55:02Z</time></trkpt><trkpt lat="41.93169359107196" lon="12.5796256888026"><ele>36.0</ele><time>2026-05-03T15:55:03Z</time></trkpt><trkpt lat="41.93166825512511" lon="12.579536661186676"><ele>36.0</ele><time>2026-05-03T15:55:04Z</time></trkpt><trkpt lat="41.93161558492572" lon="12.579427884692223"><ele>36.0</ele><time>2026-05-03T15:55:06Z</time></trkpt><trkpt lat="41.93156065985741" lon="12.579288518235494"><ele>36.0</ele><time>2026-05-03T15:55:41.999Z</time></trkpt><trkpt lat="41.93152878962477" lon="12.57918999277855"><ele>36.0</ele><time>2026-05-03T15:55:42.999Z</time></trkpt><trkpt lat="41.931493443578574" lon="12.579073900797198"><ele>36.0</ele><time>2026-05-03T15:55:43.999Z</time></trkpt><trkpt lat="41.93145315129443" lon="12.578944011624241"><ele>36.0</ele><time>2026-05-03T15:55:44.999Z</time></trkpt><trkpt lat="41.93137929952023" lon="12.57880288024662"><ele>36.0</ele><time>2026-05-03T15:55:45.999Z</time></trkpt><trkpt lat="41.93132559494216" lon="12.57863499129003"><ele>36.0</ele><time>2026-05-03T15:55:46.999Z</time></trkpt><trkpt lat="41.931240346689115" lon="12.578491488185126"><ele>35.75</ele><time>2026-05-03T15:55:47.999Z</time></trkpt><trkpt lat="41.9311379721847" lon="12.578361355300746"><ele>35.5</ele><time>2026-05-03T15:55:48.999Z</time></trkpt><trkpt lat="41.93102738859718" lon="12.57823513546365"><ele>35.25</ele><time>2026-05-03T15:55:49.999Z</time></trkpt><trkpt lat="41.93091165252218" lon="12.57811141496265"><ele>35.0</ele><time>2026-05-03T15:55:50.999Z</time></trkpt><trkpt lat="41.93079546009525" lon="12.577993040671414"><ele>35.0</ele><time>2026-05-03T15:55:51.999Z</time></trkpt><trkpt lat="41.930684149968044" lon="12.57788035890835"><ele>35.0</ele><time>2026-05-03T15:55:52.999Z</time></trkpt><trkpt lat="41.9305783425851" lon="12.577774062964306"><ele>35.0</ele><time>2026-05-03T15:55:53.999Z</time></trkpt><trkpt lat="41.930473532728904" lon="12.577672483348092"><ele>35.0</ele><time>2026-05-03T15:55:54.999Z</time></trkpt><trkpt lat="41.930368866818256" lon="12.577576611040794"><ele>35.0</ele><time>2026-05-03T15:55:55.999Z</time></trkpt><trkpt lat="41.93024210851248" lon="12.577511900228217"><ele>35.0</ele><time>2026-05-03T15:55:56.999Z</time></trkpt><trkpt lat="41.93014650028436" lon="12.577450815803616"><ele>35.0</ele><time>2026-05-03T15:55:57.999Z</time></trkpt><trkpt lat="41.9300428604569" lon="12.577396967452474"><ele>35.0</ele><time>2026-05-03T15:55:58.999Z</time></trkpt><trkpt lat="41.92995411411374" lon="12.577342885268239"><ele>35.0</ele><time>2026-05-03T15:55:59.999Z</time></trkpt><trkpt lat="41.92984642426401" lon="12.577310695332745"><ele>35.0</ele><time>2026-05-03T15:56:00.999Z</time></trkpt><trkpt lat="41.929735887000824" lon="12.577272149562345"><ele>35.0</ele><time>2026-05-03T15:56:01.999Z</time></trkpt><trkpt lat="41.92961409646942" lon="12.577229388237196"><ele>35.0</ele><time>2026-05-03T15:56:02.999Z</time></trkpt><trkpt lat="41.92950224579679" lon="12.57718452518332"><ele>35.0</ele><time>2026-05-03T15:56:03.999Z</time></trkpt><trkpt lat="41.92939303961488" lon="12.577129154306192"><ele>35.0</ele><time>2026-05-03T15:56:04.999Z</time></trkpt><trkpt lat="41.92928199423963" lon="12.577074436257762"><ele>35.0</ele><time>2026-05-03T15:56:05.999Z</time></trkpt><trkpt lat="41.929167819040806" lon="12.577006051161126"><ele>35.0</ele><time>2026-05-03T15:56:06.999Z</time></trkpt><trkpt lat="41.929062895617925" lon="12.576926359095635"><ele>34.75</ele><time>2026-05-03T15:56:07.999Z</time></trkpt><trkpt lat="41.928963762859546" lon="12.576845047580417"><ele>34.5</ele><time>2026-05-03T15:56:08.999Z</time></trkpt><trkpt lat="41.928862088358024" lon="12.576749468917688"><ele>34.25</ele><time>2026-05-03T15:56:09.999Z</time></trkpt><trkpt lat="41.9287569924318" lon="12.576641735423193"><ele>34.0</ele><time>2026-05-03T15:56:10.999Z</time></trkpt><trkpt lat="41.92865104575303" lon="12.576530610842568"><ele>34.0</ele><time>2026-05-03T15:56:11.999Z</time></trkpt><trkpt lat="41.928553497041214" lon="12.576414739784637"><ele>34.0</ele><time>2026-05-03T15:56:12.999Z</time></trkpt><trkpt lat="41.92844733867621" lon="12.576285913048228"><ele>34.0</ele><time>2026-05-03T15:56:13.999Z</time></trkpt><trkpt lat="41.928343195281236" lon="12.576156211498295"><ele>34.0</ele><time>2026-05-03T15:56:14.999Z</time></trkpt><trkpt lat="41.92824339265067" lon="12.576008946877444"><ele>34.0</ele><time>2026-05-03T15:56:15.999Z</time></trkpt><trkpt lat="41.92813387214889" lon="12.575869389581333"><ele>34.0</ele><time>2026-05-03T15:56:16.999Z</time></trkpt><trkpt lat="41.92799304752488" lon="12.575764117527124"><ele>34.0</ele><time>2026-05-03T15:56:17.999Z</time></trkpt><trkpt lat="41.927866394389895" lon="12.575623698001765"><ele>34.0</ele><time>2026-05-03T15:56:18.999Z</time></trkpt><trkpt lat="41.927741949345915" lon="12.575459666360326"><ele>34.0</ele><time>2026-05-03T15:56:19.999Z</time></trkpt><trkpt lat="41.9275953689066" lon="12.575332071384047"><ele>34.0</ele><time>2026-05-03T15:56:20.999Z</time></trkpt><trkpt lat="41.92744985974834" lon="12.575198292637424"><ele>32.66666666666667</ele><time>2026-05-03T15:56:21.999Z</time></trkpt><trkpt lat="41.92732400968537" lon="12.57505189582706"><ele>31.333333333333336</ele><time>2026-05-03T15:56:22.999Z</time></trkpt><trkpt lat="41.92719558043568" lon="12.574913439796331"><ele>30.0</ele><time>2026-05-03T15:56:23.999Z</time></trkpt><trkpt lat="41.92707633091926" lon="12.574778265088701"><ele>30.0</ele><time>2026-05-03T15:56:24.999Z</time></trkpt><trkpt lat="41.92696117867764" lon="12.574652136388229"><ele>30.0</ele><time>2026-05-03T15:56:25.999Z</time></trkpt><trkpt lat="41.92685433292801" lon="12.574535313853591"><ele>30.0</ele><time>2026-05-03T15:56:26.999Z</time></trkpt><trkpt lat="41.92674399130665" lon="12.574430833184556"><ele>30.0</ele><time>2026-05-03T15:56:27.999Z</time></trkpt><trkpt lat="41.926628143716826" lon="12.574325675797976"><ele>29.5</ele><time>2026-05-03T15:56:28.999Z</time></trkpt><trkpt lat="41.9265084134339" lon="12.574217598751307"><ele>29.0</ele><time>2026-05-03T15:56:29.999Z</time></trkpt><trkpt lat="41.926389364029305" lon="12.574121177098702"><ele>28.5</ele><time>2026-05-03T15:56:30.999Z</time></trkpt><trkpt lat="41.92627542941206" lon="12.57403512598393"><ele>28.0</ele><time>2026-05-03T15:56:31.999Z</time></trkpt><trkpt lat="41.9261672776997" lon="12.573957397196233"><ele>28.0</ele><time>2026-05-03T15:56:32.999Z</time></trkpt><trkpt lat="41.9260608918815" lon="12.573884188760806"><ele>28.0</ele><time>2026-05-03T15:56:33.999Z</time></trkpt><trkpt lat="41.92595143070765" lon="12.573810805693107"><ele>28.0</ele><time>2026-05-03T15:56:34.999Z</time></trkpt><trkpt lat="41.92584926360125" lon="12.573731709456"><ele>28.0</ele><time>2026-05-03T15:56:35.999Z</time></trkpt><trkpt lat="41.92575665237647" lon="12.573640941252526"><ele>28.25</ele><time>2026-05-03T15:56:36.999Z</time></trkpt><trkpt lat="41.92567286289981" lon="12.573535356073094"><ele>28.5</ele><time>2026-05-03T15:56:37.999Z</time></trkpt><trkpt lat="41.925598183987375" lon="12.57342382561157"><ele>28.75</ele><time>2026-05-03T15:56:38.999Z</time></trkpt><trkpt lat="41.92552447628306" lon="12.573307849989446"><ele>29.0</ele><time>2026-05-03T15:56:39.999Z</time></trkpt><trkpt lat="41.92546686576745" lon="12.573174196852836"><ele>29.0</ele><time>2026-05-03T15:56:41Z</time></trkpt><trkpt lat="41.92541369348723" lon="12.573035549102345"><ele>29.0</ele><time>2026-05-03T15:56:42Z</time></trkpt><trkpt lat="41.92535948971939" lon="12.572899385780815"><ele>29.0</ele><time>2026-05-03T15:56:43Z</time></trkpt><trkpt lat="41.925312536433296" lon="12.572758397480627"><ele>29.0</ele><time>2026-05-03T15:56:44Z</time></trkpt><trkpt lat="41.92527256310852" lon="12.572610099013803"><ele>29.6</ele><time>2026-05-03T15:56:45Z</time></trkpt><trkpt lat="41.925237266166846" lon="12.572469345770635"><ele>30.2</ele><time>2026-05-03T15:56:46Z</time></trkpt><trkpt lat="41.92519784946227" lon="12.572336117134004"><ele>30.800000000000004</ele><time>2026-05-03T15:56:47Z</time></trkpt><trkpt lat="41.92514563503175" lon="12.572210844797748"><ele>31.400000000000002</ele><time>2026-05-03T15:56:48Z</time></trkpt><trkpt lat="41.92508705022864" lon="12.57210151352383"><ele>32.0</ele><time>2026-05-03T15:56:49Z</time></trkpt><trkpt lat="41.92502794046049" lon="12.572008775625699"><ele>32.5</ele><time>2026-05-03T15:56:50Z</time></trkpt><trkpt lat="41.92496873806591" lon="12.571929972015843"><ele>33.0</ele><time>2026-05-03T15:56:51Z</time></trkpt><trkpt lat="41.92491962750083" lon="12.571868855791564"><ele>33.5</ele><time>2026-05-03T15:56:52Z</time></trkpt><trkpt lat="41.92484204326323" lon="12.571775039783768"><ele>34.0</ele><time>2026-05-03T15:56:54Z</time></trkpt><trkpt lat="41.92476270622906" lon="12.571642313871836"><ele>34.5</ele><time>2026-05-03T15:56:56Z</time></trkpt><trkpt lat="41.92473038892876" lon="12.571569344568903"><ele>35.0</ele><time>2026-05-03T15:56:57Z</time></trkpt><trkpt lat="41.92467573462598" lon="12.571467101510827"><ele>35.0</ele><time>2026-05-03T15:56:59Z</time></trkpt><trkpt lat="41.92463717892821" lon="12.571335788406493"><ele>35.0</ele><time>2026-05-03T15:57:01Z</time></trkpt><trkpt lat="41.92460271733668" lon="12.571220007254828"><ele>35.0</ele><time>2026-05-03T15:57:02Z</time></trkpt><trkpt lat="41.92454846158656" lon="12.571078896053228"><ele>35.0</ele><time>2026-05-03T15:57:03Z</time></trkpt><trkpt lat="41.92449183717025" lon="12.570933721409325"><ele>35.0</ele><time>2026-05-03T15:57:04Z</time></trkpt><trkpt lat="41.92443450789107" lon="12.570765613626131"><ele>35.666666666666664</ele><time>2026-05-03T15:57:05Z</time></trkpt><trkpt lat="41.92437138259636" lon="12.570577977791094"><ele>36.333333333333336</ele><time>2026-05-03T15:57:06Z</time></trkpt><trkpt lat="41.92431881016098" lon="12.570381270269943"><ele>37.0</ele><time>2026-05-03T15:57:07Z</time></trkpt><trkpt lat="41.92427593412968" lon="12.570173414484813"><ele>37.0</ele><time>2026-05-03T15:57:08Z</time></trkpt><trkpt lat="41.924244588575746" lon="12.569956048955781"><ele>37.0</ele><time>2026-05-03T15:57:09Z</time></trkpt><trkpt lat="41.92423460678729" lon="12.569734672167948"><ele>37.0</ele><time>2026-05-03T15:57:10Z</time></trkpt><trkpt lat="41.92423720112755" lon="12.569512922389153"><ele>36.66666666666667</ele><time>2026-05-03T15:57:11Z</time></trkpt><trkpt lat="41.92423539187942" lon="12.56928900519249"><ele>36.333333333333336</ele><time>2026-05-03T15:57:12Z</time></trkpt><trkpt lat="41.92423492319809" lon="12.569068794231457"><ele>36.0</ele><time>2026-05-03T15:57:13Z</time></trkpt><trkpt lat="41.92423042339265" lon="12.568853329031315"><ele>32.666666666666664</ele><time>2026-05-03T15:57:14Z</time></trkpt><trkpt lat="41.924218635684504" lon="12.568634750092741"><ele>29.333333333333332</ele><time>2026-05-03T15:57:15Z</time></trkpt><trkpt lat="41.92419303718246" lon="12.568420622060202"><ele>26.0</ele><time>2026-05-03T15:57:16Z</time></trkpt><trkpt lat="41.924154809059964" lon="12.568203068268362"><ele>26.0</ele><time>2026-05-03T15:57:17Z</time></trkpt><trkpt lat="41.92409696176324" lon="12.56798429425872"><ele>26.0</ele><time>2026-05-03T15:57:18Z</time></trkpt><trkpt lat="41.924024120403296" lon="12.567777388175845"><ele>26.0</ele><time>2026-05-03T15:57:19Z</time></trkpt><trkpt lat="41.92393157677409" lon="12.56756958425231"><ele>26.0</ele><time>2026-05-03T15:57:20Z</time></trkpt><trkpt lat="41.92383290121986" lon="12.56737346339778"><ele>26.0</ele><time>2026-05-03T15:57:21Z</time></trkpt><trkpt lat="41.9237122802206" lon="12.56719003506222"><ele>26.0</ele><time>2026-05-03T15:57:22Z</time></trkpt><trkpt lat="41.923587234310794" lon="12.567026611616923"><ele>25.0</ele><time>2026-05-03T15:57:23Z</time></trkpt><trkpt lat="41.923454777471505" lon="12.566857356423307"><ele>24.0</ele><time>2026-05-03T15:57:24Z</time></trkpt><trkpt lat="41.92332263243872" lon="12.566688722773081"><ele>23.0</ele><time>2026-05-03T15:57:25Z</time></trkpt><trkpt lat="41.9231941191626" lon="12.566512389778786"><ele>22.333333333333336</ele><time>2026-05-03T15:57:26Z</time></trkpt><trkpt lat="41.92306749963507" lon="12.566336690509086"><ele>21.666666666666668</ele><time>2026-05-03T15:57:27Z</time></trkpt><trkpt lat="41.92293530892939" lon="12.566160541089237"><ele>21.0</ele><time>2026-05-03T15:57:28Z</time></trkpt><trkpt lat="41.922801428737436" lon="12.565985277300415"><ele>21.0</ele><time>2026-05-03T15:57:29Z</time></trkpt><trkpt lat="41.922661308266036" lon="12.565812059267882"><ele>21.0</ele><time>2026-05-03T15:57:30Z</time></trkpt><trkpt lat="41.92252105317447" lon="12.565639451391949"><ele>21.0</ele><time>2026-05-03T15:57:31Z</time></trkpt><trkpt lat="41.922372981927076" lon="12.565480216222436"><ele>22.333333333333336</ele><time>2026-05-03T15:57:32Z</time></trkpt><trkpt lat="41.92222152876453" lon="12.5653269581723"><ele>23.666666666666668</ele><time>2026-05-03T15:57:33Z</time></trkpt><trkpt lat="41.92207083251365" lon="12.565179385232378"><ele>25.0</ele><time>2026-05-03T15:57:34Z</time></trkpt><trkpt lat="41.92192158369964" lon="12.5650244337129"><ele>25.0</ele><time>2026-05-03T15:57:35Z</time></trkpt><trkpt lat="41.92177804297098" lon="12.56487169689069"><ele>25.0</ele><time>2026-05-03T15:57:36Z</time></trkpt><trkpt lat="41.92163889111025" lon="12.564721389081333"><ele>25.0</ele><time>2026-05-03T15:57:37Z</time></trkpt><trkpt lat="41.92150120573329" lon="12.564574509153172"><ele>27.333333333333336</ele><time>2026-05-03T15:57:38Z</time></trkpt><trkpt lat="41.92136439659081" lon="12.564423713698917"><ele>29.666666666666664</ele><time>2026-05-03T15:57:39Z</time></trkpt><trkpt lat="41.92123049836569" lon="12.564275242505092"><ele>32.0</ele><time>2026-05-03T15:57:40Z</time></trkpt><trkpt lat="41.921090304536676" lon="12.564134765094913"><ele>32.0</ele><time>2026-05-03T15:57:41Z</time></trkpt><trkpt lat="41.92093469438623" lon="12.564051038640217"><ele>32.0</ele><time>2026-05-03T15:57:42Z</time></trkpt><trkpt lat="41.92077105866646" lon="12.563985719285753"><ele>32.0</ele><time>2026-05-03T15:57:43Z</time></trkpt><trkpt lat="41.920601862303855" lon="12.563943477172"><ele>30.0</ele><time>2026-05-03T15:57:44Z</time></trkpt><trkpt lat="41.920426923218834" lon="12.563912466553578"><ele>28.0</ele><time>2026-05-03T15:57:45Z</time></trkpt><trkpt lat="41.92025173616943" lon="12.56394005131962"><ele>26.0</ele><time>2026-05-03T15:57:46Z</time></trkpt><trkpt lat="41.92008347651588" lon="12.56399189267621"><ele>25.333333333333332</ele><time>2026-05-03T15:57:46.999Z</time></trkpt><trkpt lat="41.91992272481918" lon="12.564062573788595"><ele>24.666666666666664</ele><time>2026-05-03T15:57:47.999Z</time></trkpt><trkpt lat="41.91976926312235" lon="12.564161114812368"><ele>24.0</ele><time>2026-05-03T15:57:48.999Z</time></trkpt><trkpt lat="41.91963221543571" lon="12.564273365664407"><ele>24.0</ele><time>2026-05-03T15:57:49.999Z</time></trkpt><trkpt lat="41.919493562627814" lon="12.564362216038699"><ele>24.0</ele><time>2026-05-03T15:57:50.999Z</time></trkpt><trkpt lat="41.91933678947183" lon="12.564387014156926"><ele>24.0</ele><time>2026-05-03T15:57:51.999Z</time></trkpt><trkpt lat="41.91919600661053" lon="12.564426230936654"><ele>24.666666666666664</ele><time>2026-05-03T15:57:52.999Z</time></trkpt><trkpt lat="41.91904816635284" lon="12.564437446474663"><ele>25.333333333333332</ele><time>2026-05-03T15:57:53.999Z</time></trkpt><trkpt lat="41.91889677654733" lon="12.56442236537138"><ele>26.0</ele><time>2026-05-03T15:57:54.999Z</time></trkpt><trkpt lat="41.91874092769085" lon="12.564382053840733"><ele>26.0</ele><time>2026-05-03T15:57:55.999Z</time></trkpt><trkpt lat="41.91858496861128" lon="12.564320316501854"><ele>26.0</ele><time>2026-05-03T15:57:56.999Z</time></trkpt><trkpt lat="41.91843021220548" lon="12.564228494114888"><ele>26.0</ele><time>2026-05-03T15:57:57.999Z</time></trkpt><trkpt lat="41.918279208498035" lon="12.564114550407478"><ele>26.0</ele><time>2026-05-03T15:57:58.999Z</time></trkpt><trkpt lat="41.918131952625785" lon="12.56398523144024"><ele>26.0</ele><time>2026-05-03T15:57:59.999Z</time></trkpt><trkpt lat="41.91799037800949" lon="12.563841670472433"><ele>26.0</ele><time>2026-05-03T15:58:00.999Z</time></trkpt><trkpt lat="41.9178436900198" lon="12.56370271444632"><ele>26.0</ele><time>2026-05-03T15:58:01.999Z</time></trkpt><trkpt lat="41.91769242718303" lon="12.56356622635873"><ele>26.0</ele><time>2026-05-03T15:58:02.999Z</time></trkpt><trkpt lat="41.91752033659138" lon="12.563438071795703"><ele>26.0</ele><time>2026-05-03T15:58:03.999Z</time></trkpt><trkpt lat="41.91737300100214" lon="12.563313290257907"><ele>26.0</ele><time>2026-05-03T15:58:04.999Z</time></trkpt><trkpt lat="41.91721952673777" lon="12.563227093197574"><ele>26.0</ele><time>2026-05-03T15:58:05.999Z</time></trkpt><trkpt lat="41.91708653084224" lon="12.563085405912178"><ele>26.0</ele><time>2026-05-03T15:58:06.999Z</time></trkpt><trkpt lat="41.91694676191507" lon="12.562955877717927"><ele>26.666666666666664</ele><time>2026-05-03T15:58:07.999Z</time></trkpt><trkpt lat="41.91681773152651" lon="12.562794272216774"><ele>27.333333333333336</ele><time>2026-05-03T15:58:08.999Z</time></trkpt><trkpt lat="41.91666095912554" lon="12.56269805917256"><ele>28.0</ele><time>2026-05-03T15:58:09.999Z</time></trkpt><trkpt lat="41.91654172396332" lon="12.562553055273723"><ele>27.0</ele><time>2026-05-03T15:58:10.999Z</time></trkpt><trkpt lat="41.91642784951638" lon="12.562418512713219"><ele>26.0</ele><time>2026-05-03T15:58:11.999Z</time></trkpt><trkpt lat="41.916319091381915" lon="12.562295214110572"><ele>25.0</ele><time>2026-05-03T15:58:12.999Z</time></trkpt><trkpt lat="41.91621903743344" lon="12.562179134200116"><ele>24.0</ele><time>2026-05-03T15:58:13.999Z</time></trkpt><trkpt lat="41.91612485788338" lon="12.562063017826059"><ele>24.0</ele><time>2026-05-03T15:58:14.999Z</time></trkpt><trkpt lat="41.916036189235705" lon="12.561952485407408"><ele>24.0</ele><time>2026-05-03T15:58:15.999Z</time></trkpt><trkpt lat="41.91594583012793" lon="12.561848754607144"><ele>24.0</ele><time>2026-05-03T15:58:16.999Z</time></trkpt><trkpt lat="41.91586254621578" lon="12.561740853203279"><ele>24.0</ele><time>2026-05-03T15:58:17.999Z</time></trkpt><trkpt lat="41.915785477455685" lon="12.56163428144848"><ele>24.0</ele><time>2026-05-03T15:58:18.999Z</time></trkpt><trkpt lat="41.91571031912701" lon="12.56152811517922"><ele>24.0</ele><time>2026-05-03T15:58:19.999Z</time></trkpt><trkpt lat="41.915638160747605" lon="12.561429654749144"><ele>24.0</ele><time>2026-05-03T15:58:20.999Z</time></trkpt><trkpt lat="41.915569226203374" lon="12.56133802119211"><ele>24.0</ele><time>2026-05-03T15:58:21.999Z</time></trkpt><trkpt lat="41.91549960801948" lon="12.561249341445594"><ele>24.0</ele><time>2026-05-03T15:58:22.999Z</time></trkpt><trkpt lat="41.91543089321243" lon="12.56116268794799"><ele>24.2</ele><time>2026-05-03T15:58:23.999Z</time></trkpt><trkpt lat="41.915351142440706" lon="12.56108275394039"><ele>24.4</ele><time>2026-05-03T15:58:24.999Z</time></trkpt><trkpt lat="41.91529073608914" lon="12.56099666917782"><ele>24.6</ele><time>2026-05-03T15:58:25.999Z</time></trkpt><trkpt lat="41.91520719635391" lon="12.560934559159561"><ele>24.8</ele><time>2026-05-03T15:58:26.999Z</time></trkpt><trkpt lat="41.915138154505115" lon="12.560838820579368"><ele>25.0</ele><time>2026-05-03T15:58:27.999Z</time></trkpt><trkpt lat="41.915064720142965" lon="12.560744015098367"><ele>25.0</ele><time>2026-05-03T15:58:28.999Z</time></trkpt><trkpt lat="41.91499301687506" lon="12.560657600866138"><ele>25.0</ele><time>2026-05-03T15:58:29.999Z</time></trkpt><trkpt lat="41.91491776447813" lon="12.560572381531728"><ele>25.0</ele><time>2026-05-03T15:58:30.999Z</time></trkpt><trkpt lat="41.914857298040125" lon="12.560477505178824"><ele>25.0</ele><time>2026-05-03T15:58:31.999Z</time></trkpt><trkpt lat="41.91478546481927" lon="12.560389251488383"><ele>25.0</ele><time>2026-05-03T15:58:32.999Z</time></trkpt><trkpt lat="41.914710703904774" lon="12.560293059392352"><ele>25.75</ele><time>2026-05-03T15:58:33.999Z</time></trkpt><trkpt lat="41.91463671384707" lon="12.560186914451718"><ele>26.5</ele><time>2026-05-03T15:58:34.999Z</time></trkpt><trkpt lat="41.9145632536113" lon="12.560074357570876"><ele>27.25</ele><time>2026-05-03T15:58:35.999Z</time></trkpt><trkpt lat="41.9144894103923" lon="12.55995177997141"><ele>28.0</ele><time>2026-05-03T15:58:36.999Z</time></trkpt><trkpt lat="41.91442100494623" lon="12.559819746438531"><ele>28.0</ele><time>2026-05-03T15:58:37.999Z</time></trkpt><trkpt lat="41.91435833999284" lon="12.559678418063324"><ele>28.0</ele><time>2026-05-03T15:58:38.999Z</time></trkpt><trkpt lat="41.91429892253119" lon="12.559532470332972"><ele>28.0</ele><time>2026-05-03T15:58:39.999Z</time></trkpt><trkpt lat="41.914248486654" lon="12.559378563482351"><ele>28.0</ele><time>2026-05-03T15:58:40.999Z</time></trkpt><trkpt lat="41.914200133915074" lon="12.559213408200055"><ele>27.75</ele><time>2026-05-03T15:58:41.999Z</time></trkpt><trkpt lat="41.914158595623746" lon="12.559054568604541"><ele>27.5</ele><time>2026-05-03T15:58:42.999Z</time></trkpt><trkpt lat="41.914114816400165" lon="12.558886631371847"><ele>27.25</ele><time>2026-05-03T15:58:43.999Z</time></trkpt><trkpt lat="41.9140791749051" lon="12.558720033877382"><ele>27.0</ele><time>2026-05-03T15:58:44.999Z</time></trkpt><trkpt lat="41.91403683531978" lon="12.558547225770283"><ele>26.75</ele><time>2026-05-03T15:58:45.999Z</time></trkpt><trkpt lat="41.9140179220899" lon="12.558384343516392"><ele>26.5</ele><time>2026-05-03T15:58:47Z</time></trkpt><trkpt lat="41.91398977415746" lon="12.558219175988839"><ele>26.25</ele><time>2026-05-03T15:58:48Z</time></trkpt><trkpt lat="41.91396294143363" lon="12.558058894149104"><ele>26.0</ele><time>2026-05-03T15:58:49Z</time></trkpt><trkpt lat="41.91393146058817" lon="12.557904493758299"><ele>26.25</ele><time>2026-05-03T15:58:50Z</time></trkpt><trkpt lat="41.91389599532424" lon="12.55775548779893"><ele>26.5</ele><time>2026-05-03T15:58:51Z</time></trkpt><trkpt lat="41.91384951452084" lon="12.557609616449367"><ele>26.75</ele><time>2026-05-03T15:58:52Z</time></trkpt><trkpt lat="41.91380192084705" lon="12.557469083678637"><ele>27.0</ele><time>2026-05-03T15:58:53Z</time></trkpt><trkpt lat="41.91375099190457" lon="12.55732893212398"><ele>27.0</ele><time>2026-05-03T15:58:54Z</time></trkpt><trkpt lat="41.91369982372233" lon="12.557189545868367"><ele>27.0</ele><time>2026-05-03T15:58:55Z</time></trkpt><trkpt lat="41.91364743980034" lon="12.557052181347089"><ele>27.0</ele><time>2026-05-03T15:58:56Z</time></trkpt><trkpt lat="41.913593695417234" lon="12.556917857879531"><ele>27.0</ele><time>2026-05-03T15:58:57Z</time></trkpt><trkpt lat="41.91353047010467" lon="12.556783703219784"><ele>27.0</ele><time>2026-05-03T15:58:58Z</time></trkpt><trkpt lat="41.91347337989604" lon="12.556651664977544"><ele>27.000000000000004</ele><time>2026-05-03T15:58:59Z</time></trkpt><trkpt lat="41.91341736851857" lon="12.556522712080616"><ele>27.000000000000004</ele><time>2026-05-03T15:59:00Z</time></trkpt><trkpt lat="41.913359118756134" lon="12.556398228221166"><ele>27.0</ele><time>2026-05-03T15:59:01Z</time></trkpt><trkpt lat="41.91330201999292" lon="12.556274447298545"><ele>27.0</ele><time>2026-05-03T15:59:02Z</time></trkpt><trkpt lat="41.91324923012706" lon="12.556149738396794"><ele>27.0</ele><time>2026-05-03T15:59:03Z</time></trkpt><trkpt lat="41.913195445029785" lon="12.556027692943056"><ele>27.000000000000004</ele><time>2026-05-03T15:59:04Z</time></trkpt><trkpt lat="41.913143921867" lon="12.555899409750664"><ele>27.000000000000004</ele><time>2026-05-03T15:59:05Z</time></trkpt><trkpt lat="41.91310487280495" lon="12.555780143539398"><ele>27.0</ele><time>2026-05-03T15:59:06Z</time></trkpt><trkpt lat="41.91307236132894" lon="12.555681148759607"><ele>27.0</ele><time>2026-05-03T15:59:07Z</time></trkpt><trkpt lat="41.913039900486304" lon="12.555562230411363"><ele>27.0</ele><time>2026-05-03T15:59:09Z</time></trkpt><trkpt lat="41.913003821306305" lon="12.555480190837413"><ele>27.0</ele><time>2026-05-03T16:02:02.999Z</time></trkpt><trkpt lat="41.9129510805292" lon="12.555357736273114"><ele>27.0</ele><time>2026-05-03T16:02:05.999Z</time></trkpt><trkpt lat="41.91293052052546" lon="12.55523609129902"><ele>27.0</ele><time>2026-05-03T16:02:07.999Z</time></trkpt><trkpt lat="41.912901047817186" lon="12.55513424069941"><ele>27.0</ele><time>2026-05-03T16:02:09.999Z</time></trkpt><trkpt lat="41.912877103316305" lon="12.555039467462143"><ele>27.0</ele><time>2026-05-03T16:02:11.999Z</time></trkpt><trkpt lat="41.91284990761241" lon="12.554945819465487"><ele>27.166666666666668</ele><time>2026-05-03T16:02:14.999Z</time></trkpt><trkpt lat="41.91282194862543" lon="12.5548385416921"><ele>27.333333333333336</ele><time>2026-05-03T16:02:43.999Z</time></trkpt><trkpt lat="41.91277688737874" lon="12.5546915273801"><ele>27.5</ele><time>2026-05-03T16:02:45.999Z</time></trkpt><trkpt lat="41.91274637987245" lon="12.554596877897326"><ele>27.666666666666668</ele><time>2026-05-03T16:02:46.999Z</time></trkpt><trkpt lat="41.91271260267222" lon="12.554499644959073"><ele>27.833333333333336</ele><time>2026-05-03T16:02:47.999Z</time></trkpt><trkpt lat="41.91267932235886" lon="12.554397451359259"><ele>28.0</ele><time>2026-05-03T16:02:48.999Z</time></trkpt><trkpt lat="41.9126434791876" lon="12.554282906822007"><ele>28.166666666666668</ele><time>2026-05-03T16:02:49.999Z</time></trkpt><trkpt lat="41.91258906510483" lon="12.554176214115778"><ele>28.333333333333336</ele><time>2026-05-03T16:02:50.999Z</time></trkpt><trkpt lat="41.912544710581074" lon="12.554069152994273"><ele>28.5</ele><time>2026-05-03T16:02:51.999Z</time></trkpt><trkpt lat="41.91250743310671" lon="12.553976641669543"><ele>28.666666666666664</ele><time>2026-05-03T16:02:52.999Z</time></trkpt><trkpt lat="41.912472849589335" lon="12.553890238088096"><ele>28.833333333333332</ele><time>2026-05-03T16:02:53.999Z</time></trkpt><trkpt lat="41.91244242555697" lon="12.55381417649337"><ele>29.0</ele><time>2026-05-03T16:02:54.999Z</time></trkpt><trkpt lat="41.91253929241619" lon="12.553615605278722"><ele>29.4</ele><time>2026-05-03T16:02:56.999Z</time></trkpt><trkpt lat="41.912598130893855" lon="12.553540079368078"><ele>29.799999999999997</ele><time>2026-05-03T16:02:57.999Z</time></trkpt><trkpt lat="41.912691593383066" lon="12.553498035386196"><ele>30.200000000000003</ele><time>2026-05-03T16:02:59Z</time></trkpt><trkpt lat="41.91278631922059" lon="12.553419039782273"><ele>30.6</ele><time>2026-05-03T16:03:00Z</time></trkpt><trkpt lat="41.91289071752173" lon="12.553352607371805"><ele>31.0</ele><time>2026-05-03T16:03:01Z</time></trkpt><trkpt lat="41.91298429749978" lon="12.553264375243268"><ele>31.0</ele><time>2026-05-03T16:03:02Z</time></trkpt><trkpt lat="41.91308500078268" lon="12.553170164935159"><ele>31.0</ele><time>2026-05-03T16:03:03Z</time></trkpt><trkpt lat="41.91319113006364" lon="12.553066858189364"><ele>31.0</ele><time>2026-05-03T16:03:04Z</time></trkpt><trkpt lat="41.91331156247529" lon="12.552982394945786"><ele>31.0</ele><time>2026-05-03T16:03:05Z</time></trkpt><trkpt lat="41.91341467992776" lon="12.552860202365155"><ele>31.0</ele><time>2026-05-03T16:03:06Z</time></trkpt><trkpt lat="41.913530387947844" lon="12.552754386968562"><ele>31.0</ele><time>2026-05-03T16:03:07Z</time></trkpt><trkpt lat="41.91364491900541" lon="12.552641561217078"><ele>31.0</ele><time>2026-05-03T16:03:08Z</time></trkpt><trkpt lat="41.91375603895198" lon="12.552525091417314"><ele>31.0</ele><time>2026-05-03T16:03:09Z</time></trkpt><trkpt lat="41.91386466947979" lon="12.552402740769836"><ele>31.0</ele><time>2026-05-03T16:03:10Z</time></trkpt><trkpt lat="41.91396408280594" lon="12.552264340528922"><ele>31.0</ele><time>2026-05-03T16:03:11Z</time></trkpt><trkpt lat="41.9140439623618" lon="12.55210027950412"><ele>31.0</ele><time>2026-05-03T16:03:12Z</time></trkpt><trkpt lat="41.914136719131974" lon="12.551943872545193"><ele>31.0</ele><time>2026-05-03T16:03:13Z</time></trkpt><trkpt lat="41.91422043898461" lon="12.551768052738751"><ele>30.75</ele><time>2026-05-03T16:03:14Z</time></trkpt><trkpt lat="41.91428676632652" lon="12.551584297771456"><ele>30.5</ele><time>2026-05-03T16:03:15Z</time></trkpt><trkpt lat="41.914345778098934" lon="12.55140670921632"><ele>30.25</ele><time>2026-05-03T16:03:16Z</time></trkpt><trkpt lat="41.914405702382254" lon="12.551226374813963"><ele>30.0</ele><time>2026-05-03T16:03:17Z</time></trkpt><trkpt lat="41.914462542308996" lon="12.551056995911901"><ele>30.5</ele><time>2026-05-03T16:03:18Z</time></trkpt><trkpt lat="41.91450865610354" lon="12.55087380731585"><ele>31.0</ele><time>2026-05-03T16:03:19Z</time></trkpt><trkpt lat="41.91456944782081" lon="12.5507028723118"><ele>31.5</ele><time>2026-05-03T16:03:20Z</time></trkpt><trkpt lat="41.91463271251583" lon="12.550538479006663"><ele>32.0</ele><time>2026-05-03T16:03:21Z</time></trkpt><trkpt lat="41.91471478350724" lon="12.55039719205675"><ele>33.0</ele><time>2026-05-03T16:03:22Z</time></trkpt><trkpt lat="41.91475627565887" lon="12.550226671563536"><ele>34.0</ele><time>2026-05-03T16:03:23Z</time></trkpt><trkpt lat="41.91481943471453" lon="12.550042376633936"><ele>35.0</ele><time>2026-05-03T16:03:24Z</time></trkpt><trkpt lat="41.914883354053934" lon="12.549855863281518"><ele>36.0</ele><time>2026-05-03T16:03:25Z</time></trkpt><trkpt lat="41.91494301912446" lon="12.549672936043901"><ele>35.25</ele><time>2026-05-03T16:03:26Z</time></trkpt><trkpt lat="41.915003027655786" lon="12.549489215025533"><ele>34.5</ele><time>2026-05-03T16:03:27Z</time></trkpt><trkpt lat="41.9150636239115" lon="12.549303920147347"><ele>33.75</ele><time>2026-05-03T16:03:28Z</time></trkpt><trkpt lat="41.91507933411437" lon="12.549160188408505"><ele>33.0</ele><time>2026-05-03T16:03:29Z</time></trkpt><trkpt lat="41.91515198833419" lon="12.548989618851575"><ele>33.0</ele><time>2026-05-03T16:03:30Z</time></trkpt><trkpt lat="41.91521055763414" lon="12.548822192788213"><ele>33.0</ele><time>2026-05-03T16:03:31Z</time></trkpt><trkpt lat="41.915265560529285" lon="12.548665000542899"><ele>33.0</ele><time>2026-05-03T16:03:32Z</time></trkpt><trkpt lat="41.91531516728045" lon="12.54852006239158"><ele>33.0</ele><time>2026-05-03T16:03:33Z</time></trkpt><trkpt lat="41.91536126615045" lon="12.548379749047315"><ele>33.199999999999996</ele><time>2026-05-03T16:03:34Z</time></trkpt><trkpt lat="41.91540552862538" lon="12.548240535906551"><ele>33.4</ele><time>2026-05-03T16:03:35Z</time></trkpt><trkpt lat="41.91544800179779" lon="12.548110576499754"><ele>33.599999999999994</ele><time>2026-05-03T16:03:36Z</time></trkpt><trkpt lat="41.91549042772835" lon="12.547995983876923"><ele>33.8</ele><time>2026-05-03T16:03:37Z</time></trkpt><trkpt lat="41.91552809397353" lon="12.547887109444133"><ele>34.0</ele><time>2026-05-03T16:03:38Z</time></trkpt><trkpt lat="41.91555453110494" lon="12.547800569231104"><ele>35.0</ele><time>2026-05-03T16:03:39Z</time></trkpt><trkpt lat="41.91558126882886" lon="12.54770410496094"><ele>36.0</ele><time>2026-05-03T16:03:41Z</time></trkpt><trkpt lat="41.915644291723765" lon="12.547605430426643"><ele>37.0</ele><time>2026-05-03T16:04:13.999Z</time></trkpt><trkpt lat="41.915673044625855" lon="12.547496334163583"><ele>38.0</ele><time>2026-05-03T16:04:14.999Z</time></trkpt><trkpt lat="41.91571650932898" lon="12.547373007475441"><ele>39.0</ele><time>2026-05-03T16:04:15.999Z</time></trkpt><trkpt lat="41.91576828424115" lon="12.547231790385739"><ele>39.0</ele><time>2026-05-03T16:04:16.999Z</time></trkpt><trkpt lat="41.915805067673574" lon="12.547074138222222"><ele>39.0</ele><time>2026-05-03T16:04:17.999Z</time></trkpt><trkpt lat="41.91585559641051" lon="12.546908973860772"><ele>39.0</ele><time>2026-05-03T16:04:18.999Z</time></trkpt><trkpt lat="41.91590727309326" lon="12.546751349692007"><ele>39.0</ele><time>2026-05-03T16:04:19.999Z</time></trkpt><trkpt lat="41.91595697809508" lon="12.54660089845735"><ele>39.0</ele><time>2026-05-03T16:04:20.999Z</time></trkpt><trkpt lat="41.916006567143704" lon="12.546469898534886"><ele>39.0</ele><time>2026-05-03T16:04:21.999Z</time></trkpt><trkpt lat="41.91603808004914" lon="12.5463499624747"><ele>39.0</ele><time>2026-05-03T16:04:22.999Z</time></trkpt><trkpt lat="41.91607732766527" lon="12.546242140851458"><ele>39.0</ele><time>2026-05-03T16:04:23.999Z</time></trkpt><trkpt lat="41.916113603301945" lon="12.546132965336398"><ele>39.0</ele><time>2026-05-03T16:04:24.999Z</time></trkpt><trkpt lat="41.916151269243805" lon="12.546022877897514"><ele>39.0</ele><time>2026-05-03T16:04:25.999Z</time></trkpt><trkpt lat="41.91618838321032" lon="12.545921628457734"><ele>39.0</ele><time>2026-05-03T16:04:26.999Z</time></trkpt><trkpt lat="41.916221308625445" lon="12.545817757324704"><ele>39.0</ele><time>2026-05-03T16:04:27.999Z</time></trkpt><trkpt lat="41.91625992862097" lon="12.545706548055703"><ele>39.0</ele><time>2026-05-03T16:04:28.999Z</time></trkpt><trkpt lat="41.91629674455179" lon="12.545604216684342"><ele>39.0</ele><time>2026-05-03T16:04:29.999Z</time></trkpt><trkpt lat="41.916328378920944" lon="12.545507206508216"><ele>39.0</ele><time>2026-05-03T16:04:30.999Z</time></trkpt><trkpt lat="41.916352295457365" lon="12.545419285400435"><ele>38.5</ele><time>2026-05-03T16:04:31.999Z</time></trkpt><trkpt lat="41.91638031313947" lon="12.545328551377695"><ele>38.0</ele><time>2026-05-03T16:04:32.999Z</time></trkpt><trkpt lat="41.916408141298525" lon="12.545238185538711"><ele>37.5</ele><time>2026-05-03T16:04:33.999Z</time></trkpt><trkpt lat="41.91644159009556" lon="12.545129210492837"><ele>37.0</ele><time>2026-05-03T16:04:34.999Z</time></trkpt><trkpt lat="41.91647959121591" lon="12.545006837219738"><ele>36.5</ele><time>2026-05-03T16:04:35.999Z</time></trkpt><trkpt lat="41.91652860912493" lon="12.544882970677522"><ele>36.0</ele><time>2026-05-03T16:04:36.999Z</time></trkpt><trkpt lat="41.91658912751241" lon="12.544751894691165"><ele>36.0</ele><time>2026-05-03T16:04:37.999Z</time></trkpt><trkpt lat="41.91664666787358" lon="12.544615148946516"><ele>36.0</ele><time>2026-05-03T16:04:38.999Z</time></trkpt><trkpt lat="41.916699215388306" lon="12.544471903939808"><ele>36.0</ele><time>2026-05-03T16:04:39.999Z</time></trkpt><trkpt lat="41.9167527906909" lon="12.544318530031978"><ele>36.0</ele><time>2026-05-03T16:04:40.999Z</time></trkpt><trkpt lat="41.91679695848617" lon="12.54416474608302"><ele>36.0</ele><time>2026-05-03T16:04:41.999Z</time></trkpt><trkpt lat="41.91686076326071" lon="12.544025986847455"><ele>36.0</ele><time>2026-05-03T16:04:42.999Z</time></trkpt><trkpt lat="41.916900100655354" lon="12.5438733456948"><ele>36.0</ele><time>2026-05-03T16:04:43.999Z</time></trkpt><trkpt lat="41.916941819889" lon="12.543728622067924"><ele>36.0</ele><time>2026-05-03T16:04:44.999Z</time></trkpt><trkpt lat="41.9169774565771" lon="12.543602360289759"><ele>36.0</ele><time>2026-05-03T16:04:45.999Z</time></trkpt><trkpt lat="41.91701750186334" lon="12.543491673439021"><ele>36.0</ele><time>2026-05-03T16:04:46.999Z</time></trkpt><trkpt lat="41.917050789813466" lon="12.543392118781158"><ele>36.0</ele><time>2026-05-03T16:04:47.999Z</time></trkpt><trkpt lat="41.91707515375027" lon="12.5433139393985"><ele>36.0</ele><time>2026-05-03T16:04:48.999Z</time></trkpt><trkpt lat="41.917104315016196" lon="12.543222785395749"><ele>36.0</ele><time>2026-05-03T16:04:50.999Z</time></trkpt><trkpt lat="41.91713678915647" lon="12.543133840461952"><ele>36.0</ele><time>2026-05-03T16:05:09Z</time></trkpt><trkpt lat="41.91719175811934" lon="12.542958216174041"><ele>35.8</ele><time>2026-05-03T16:05:11Z</time></trkpt><trkpt lat="41.91722392359924" lon="12.542838210528584"><ele>35.6</ele><time>2026-05-03T16:05:12Z</time></trkpt><trkpt lat="41.917278726571126" lon="12.542720586381845"><ele>35.4</ele><time>2026-05-03T16:05:13Z</time></trkpt><trkpt lat="41.91731428419787" lon="12.54256827744944"><ele>35.2</ele><time>2026-05-03T16:05:14Z</time></trkpt><trkpt lat="41.91736737857236" lon="12.54241196354232"><ele>35.0</ele><time>2026-05-03T16:05:15Z</time></trkpt><trkpt lat="41.91742714076218" lon="12.54224659129389"><ele>35.0</ele><time>2026-05-03T16:05:16Z</time></trkpt><trkpt lat="41.917482134682054" lon="12.542078644153575"><ele>35.0</ele><time>2026-05-03T16:05:17Z</time></trkpt><trkpt lat="41.91753761152704" lon="12.541901772447677"><ele>35.0</ele><time>2026-05-03T16:05:18Z</time></trkpt><trkpt lat="41.91759566489834" lon="12.541722805181038"><ele>35.0</ele><time>2026-05-03T16:05:19Z</time></trkpt><trkpt lat="41.917656726500404" lon="12.541541023094272"><ele>34.666666666666664</ele><time>2026-05-03T16:05:20Z</time></trkpt><trkpt lat="41.917757841017774" lon="12.54138956148579"><ele>34.333333333333336</ele><time>2026-05-03T16:05:21Z</time></trkpt><trkpt lat="41.91787897859875" lon="12.541260105895985"><ele>34.0</ele><time>2026-05-03T16:05:22Z</time></trkpt><trkpt lat="41.91798267349596" lon="12.541060815148178"><ele>35.0</ele><time>2026-05-03T16:05:23Z</time></trkpt><trkpt lat="41.91806222238048" lon="12.540839121942602"><ele>36.0</ele><time>2026-05-03T16:05:24Z</time></trkpt><trkpt lat="41.91812124320165" lon="12.540610566785254"><ele>37.0</ele><time>2026-05-03T16:05:25Z</time></trkpt><trkpt lat="41.91817555751119" lon="12.540399711161015"><ele>37.0</ele><time>2026-05-03T16:05:26Z</time></trkpt><trkpt lat="41.91823012271979" lon="12.540196130888244"><ele>37.0</ele><time>2026-05-03T16:05:27Z</time></trkpt><trkpt lat="41.91827135710223" lon="12.539996202042692"><ele>37.0</ele><time>2026-05-03T16:05:28Z</time></trkpt><trkpt lat="41.918325749047504" lon="12.539807531588705"><ele>37.0</ele><time>2026-05-03T16:05:29Z</time></trkpt><trkpt lat="41.91837450950614" lon="12.539632749325998"><ele>37.0</ele><time>2026-05-03T16:05:30Z</time></trkpt><trkpt lat="41.91841537578979" lon="12.539467773417346"><ele>37.0</ele><time>2026-05-03T16:05:31Z</time></trkpt><trkpt lat="41.91846350789448" lon="12.539320028425067"><ele>37.0</ele><time>2026-05-03T16:05:32Z</time></trkpt><trkpt lat="41.918499252183274" lon="12.539180722312798"><ele>37.0</ele><time>2026-05-03T16:05:33Z</time></trkpt><trkpt lat="41.91853230813374" lon="12.53905943725133"><ele>37.0</ele><time>2026-05-03T16:05:34Z</time></trkpt><trkpt lat="41.91856258837803" lon="12.538954206705432"><ele>37.0</ele><time>2026-05-03T16:05:35Z</time></trkpt><trkpt lat="41.918580564479505" lon="12.538868961800715"><ele>37.0</ele><time>2026-05-03T16:05:36Z</time></trkpt><trkpt lat="41.91860871933981" lon="12.538756569892668"><ele>37.0</ele><time>2026-05-03T16:05:38Z</time></trkpt><trkpt lat="41.91861595044608" lon="12.538648931031101"><ele>37.0</ele><time>2026-05-03T16:06:07.999Z</time></trkpt><trkpt lat="41.91866468470528" lon="12.538472278671593"><ele>37.75</ele><time>2026-05-03T16:06:09.999Z</time></trkpt><trkpt lat="41.91869909891292" lon="12.53835431346941"><ele>38.5</ele><time>2026-05-03T16:06:10.999Z</time></trkpt><trkpt lat="41.91874229114245" lon="12.538214499253932"><ele>39.25</ele><time>2026-05-03T16:06:11.999Z</time></trkpt><trkpt lat="41.918787698426435" lon="12.538060239580728"><ele>40.0</ele><time>2026-05-03T16:06:12.999Z</time></trkpt><trkpt lat="41.918842562151134" lon="12.537883109471203"><ele>40.0</ele><time>2026-05-03T16:06:13.999Z</time></trkpt><trkpt lat="41.91889958235315" lon="12.53768934773326"><ele>40.0</ele><time>2026-05-03T16:06:14.999Z</time></trkpt><trkpt lat="41.918955986237506" lon="12.53748411913083"><ele>40.0</ele><time>2026-05-03T16:06:15.999Z</time></trkpt><trkpt lat="41.91901078490854" lon="12.537308563969175"><ele>40.0</ele><time>2026-05-03T16:06:16.999Z</time></trkpt><trkpt lat="41.91907724178469" lon="12.537078194980406"><ele>40.0</ele><time>2026-05-03T16:06:17.999Z</time></trkpt><trkpt lat="41.919141848506825" lon="12.536838800263757"><ele>40.0</ele><time>2026-05-03T16:06:18.999Z</time></trkpt><trkpt lat="41.91921326617363" lon="12.536584836805202"><ele>40.333333333333336</ele><time>2026-05-03T16:06:19.999Z</time></trkpt><trkpt lat="41.91928267881073" lon="12.536333785314195"><ele>40.666666666666664</ele><time>2026-05-03T16:06:20.999Z</time></trkpt><trkpt lat="41.91935192166701" lon="12.536084541294283"><ele>41.0</ele><time>2026-05-03T16:06:21.999Z</time></trkpt><trkpt lat="41.91941804252638" lon="12.535835799202813"><ele>41.0</ele><time>2026-05-03T16:06:22.999Z</time></trkpt><trkpt lat="41.919491140336035" lon="12.535584467090626"><ele>41.0</ele><time>2026-05-03T16:06:23.999Z</time></trkpt><trkpt lat="41.91956339141266" lon="12.535331124680509"><ele>41.0</ele><time>2026-05-03T16:06:24.999Z</time></trkpt><trkpt lat="41.919637302220615" lon="12.535069677204865"><ele>42.0</ele><time>2026-05-03T16:06:25.999Z</time></trkpt><trkpt lat="41.91970885009386" lon="12.534809670942895"><ele>43.0</ele><time>2026-05-03T16:06:26.999Z</time></trkpt><trkpt lat="41.91979730667578" lon="12.534559336670672"><ele>44.0</ele><time>2026-05-03T16:06:27.999Z</time></trkpt><trkpt lat="41.91985429852207" lon="12.534301647026227"><ele>44.0</ele><time>2026-05-03T16:06:28.999Z</time></trkpt><trkpt lat="41.91994161182302" lon="12.53405552666824"><ele>44.0</ele><time>2026-05-03T16:06:29.999Z</time></trkpt><trkpt lat="41.91999737628595" lon="12.533800869173522"><ele>44.0</ele><time>2026-05-03T16:06:30.999Z</time></trkpt><trkpt lat="41.92007289072691" lon="12.533557878474005"><ele>41.666666666666664</ele><time>2026-05-03T16:06:31.999Z</time></trkpt><trkpt lat="41.92015252980577" lon="12.533317094712066"><ele>39.333333333333336</ele><time>2026-05-03T16:06:32.999Z</time></trkpt><trkpt lat="41.92022789137176" lon="12.533069051732406"><ele>37.0</ele><time>2026-05-03T16:06:33.999Z</time></trkpt><trkpt lat="41.92029313365131" lon="12.532805875332638"><ele>36.333333333333336</ele><time>2026-05-03T16:06:34.999Z</time></trkpt><trkpt lat="41.92035643829628" lon="12.532538389907605"><ele>35.666666666666664</ele><time>2026-05-03T16:06:35.999Z</time></trkpt><trkpt lat="41.92042587403175" lon="12.532280278391722"><ele>35.0</ele><time>2026-05-03T16:06:36.999Z</time></trkpt><trkpt lat="41.92049356457077" lon="12.53202751330696"><ele>34.0</ele><time>2026-05-03T16:06:37.999Z</time></trkpt><trkpt lat="41.9205605167573" lon="12.531779091675691"><ele>33.0</ele><time>2026-05-03T16:06:38.999Z</time></trkpt><trkpt lat="41.92062919689334" lon="12.53151721595083"><ele>32.0</ele><time>2026-05-03T16:06:39.999Z</time></trkpt><trkpt lat="41.92068257522174" lon="12.531229502909117"><ele>31.0</ele><time>2026-05-03T16:06:40.999Z</time></trkpt><trkpt lat="41.920778293035255" lon="12.530911369792168"><ele>30.0</ele><time>2026-05-03T16:06:41.999Z</time></trkpt><trkpt lat="41.920864796279595" lon="12.530618665768486"><ele>30.5</ele><time>2026-05-03T16:06:42.999Z</time></trkpt><trkpt lat="41.920951869933404" lon="12.53032748816755"><ele>31.0</ele><time>2026-05-03T16:06:43.999Z</time></trkpt><trkpt lat="41.92103627911354" lon="12.530055461599238"><ele>31.0</ele><time>2026-05-03T16:06:44.999Z</time></trkpt><trkpt lat="41.921114082184495" lon="12.529796784911342"><ele>31.0</ele><time>2026-05-03T16:06:45.999Z</time></trkpt><trkpt lat="41.92118116808231" lon="12.529552866430546"><ele>31.0</ele><time>2026-05-03T16:06:46.999Z</time></trkpt><trkpt lat="41.92124207095193" lon="12.52932080955156"><ele>30.666666666666668</ele><time>2026-05-03T16:06:47.999Z</time></trkpt><trkpt lat="41.92130329529529" lon="12.529100653699837"><ele>30.333333333333336</ele><time>2026-05-03T16:06:48.999Z</time></trkpt><trkpt lat="41.92136332824837" lon="12.528879738465596"><ele>30.0</ele><time>2026-05-03T16:06:49.999Z</time></trkpt><trkpt lat="41.92141326189869" lon="12.528654402590085"><ele>29.0</ele><time>2026-05-03T16:06:50.999Z</time></trkpt><trkpt lat="41.92144594158294" lon="12.528434138325713"><ele>28.0</ele><time>2026-05-03T16:06:51.999Z</time></trkpt><trkpt lat="41.92145913231111" lon="12.528213759270734"><ele>27.0</ele><time>2026-05-03T16:06:52.999Z</time></trkpt><trkpt lat="41.921453458344935" lon="12.5279962776004"><ele>27.0</ele><time>2026-05-03T16:06:53.999Z</time></trkpt><trkpt lat="41.921444248448864" lon="12.527776966643318"><ele>27.0</ele><time>2026-05-03T16:06:54.999Z</time></trkpt><trkpt lat="41.92141911040258" lon="12.527573270923758"><ele>27.0</ele><time>2026-05-03T16:06:55.999Z</time></trkpt><trkpt lat="41.921406784711536" lon="12.527382822123842"><ele>27.0</ele><time>2026-05-03T16:06:56.999Z</time></trkpt><trkpt lat="41.92139639820673" lon="12.527210172415476"><ele>27.000000000000004</ele><time>2026-05-03T16:06:57.999Z</time></trkpt><trkpt lat="41.921388791391344" lon="12.527063917396903"><ele>27.000000000000004</ele><time>2026-05-03T16:06:58.999Z</time></trkpt><trkpt lat="41.921381856184055" lon="12.526943626360238"><ele>27.0</ele><time>2026-05-03T16:06:59.999Z</time></trkpt><trkpt lat="41.921376045873046" lon="12.526843391306551"><ele>27.0</ele><time>2026-05-03T16:07:00.999Z</time></trkpt><trkpt lat="41.92137102193713" lon="12.526756587767034"><ele>27.0</ele><time>2026-05-03T16:07:01.999Z</time></trkpt><trkpt lat="41.92150545754176" lon="12.526676751151802"><ele>27.000000000000004</ele><time>2026-05-03T16:07:02.999Z</time></trkpt><trkpt lat="41.92157449863043" lon="12.526626610935839"><ele>27.000000000000004</ele><time>2026-05-03T16:07:03.999Z</time></trkpt><trkpt lat="41.92165542721599" lon="12.526599172795079"><ele>27.0</ele><time>2026-05-03T16:07:04.999Z</time></trkpt><trkpt lat="41.92175904847054" lon="12.526586367922677"><ele>27.0</ele><time>2026-05-03T16:07:05.999Z</time></trkpt><trkpt lat="41.92187516055289" lon="12.526573746968"><ele>28.5</ele><time>2026-05-03T16:07:06.999Z</time></trkpt><trkpt lat="41.92199610182927" lon="12.526568158238467"><ele>30.0</ele><time>2026-05-03T16:07:07.999Z</time></trkpt><trkpt lat="41.92211795637321" lon="12.52656928209374"><ele>31.5</ele><time>2026-05-03T16:07:08.999Z</time></trkpt><trkpt lat="41.922247856220736" lon="12.526570584698291"><ele>33.0</ele><time>2026-05-03T16:07:10Z</time></trkpt><trkpt lat="41.92238889047058" lon="12.52657438238775"><ele>33.0</ele><time>2026-05-03T16:07:11Z</time></trkpt><trkpt lat="41.92253463706496" lon="12.52659454654357"><ele>33.0</ele><time>2026-05-03T16:07:12Z</time></trkpt><trkpt lat="41.92267652290735" lon="12.52660982293198"><ele>33.0</ele><time>2026-05-03T16:07:13Z</time></trkpt><trkpt lat="41.922825669492475" lon="12.526586529568375"><ele>33.0</ele><time>2026-05-03T16:07:14Z</time></trkpt><trkpt lat="41.9229719229079" lon="12.526637996930276"><ele>33.0</ele><time>2026-05-03T16:07:15Z</time></trkpt><trkpt lat="41.923128276154976" lon="12.526663306458776"><ele>33.0</ele><time>2026-05-03T16:07:16Z</time></trkpt><trkpt lat="41.92328821422486" lon="12.52668906730805"><ele>33.0</ele><time>2026-05-03T16:07:17Z</time></trkpt><trkpt lat="41.92344841322562" lon="12.526734129761412"><ele>34.333333333333336</ele><time>2026-05-03T16:07:18Z</time></trkpt><trkpt lat="41.92360802474854" lon="12.526805858285528"><ele>35.66666666666667</ele><time>2026-05-03T16:07:19Z</time></trkpt><trkpt lat="41.9237733589558" lon="12.526874710740413"><ele>37.0</ele><time>2026-05-03T16:07:20Z</time></trkpt><trkpt lat="41.923938388649425" lon="12.52694435587435"><ele>37.0</ele><time>2026-05-03T16:07:21Z</time></trkpt><trkpt lat="41.92410898456179" lon="12.527034524167753"><ele>37.0</ele><time>2026-05-03T16:07:22Z</time></trkpt><trkpt lat="41.92428941284349" lon="12.52711863880542"><ele>37.0</ele><time>2026-05-03T16:07:23Z</time></trkpt><trkpt lat="41.92448015034125" lon="12.527192532207051"><ele>35.333333333333336</ele><time>2026-05-03T16:07:24Z</time></trkpt><trkpt lat="41.92466749160315" lon="12.52727983472399"><ele>33.666666666666664</ele><time>2026-05-03T16:07:25Z</time></trkpt><trkpt lat="41.924854439955254" lon="12.527369460189671"><ele>32.0</ele><time>2026-05-03T16:07:26Z</time></trkpt><trkpt lat="41.925036191613124" lon="12.52748019173172"><ele>34.33333333333333</ele><time>2026-05-03T16:07:27Z</time></trkpt><trkpt lat="41.92522480371444" lon="12.527540737851021"><ele>36.666666666666664</ele><time>2026-05-03T16:07:28Z</time></trkpt><trkpt lat="41.925402744939944" lon="12.527621939445229"><ele>39.0</ele><time>2026-05-03T16:07:29Z</time></trkpt><trkpt lat="41.92557378188572" lon="12.527661963634403"><ele>39.0</ele><time>2026-05-03T16:07:30Z</time></trkpt><trkpt lat="41.92573929229874" lon="12.527715207693168"><ele>39.0</ele><time>2026-05-03T16:07:31Z</time></trkpt><trkpt lat="41.92589682907961" lon="12.527770880079787"><ele>39.0</ele><time>2026-05-03T16:07:32Z</time></trkpt><trkpt lat="41.92605458086275" lon="12.527820848658996"><ele>37.333333333333336</ele><time>2026-05-03T16:07:33Z</time></trkpt><trkpt lat="41.92620495047796" lon="12.527869541147734"><ele>35.66666666666667</ele><time>2026-05-03T16:07:34Z</time></trkpt><trkpt lat="41.926348725709175" lon="12.527922107565871"><ele>34.0</ele><time>2026-05-03T16:07:35Z</time></trkpt><trkpt lat="41.92650016002931" lon="12.527975844327731"><ele>33.0</ele><time>2026-05-03T16:07:36Z</time></trkpt><trkpt lat="41.926652599606975" lon="12.528015460142862"><ele>32.0</ele><time>2026-05-03T16:07:37Z</time></trkpt><trkpt lat="41.926796574508806" lon="12.528040331563634"><ele>31.0</ele><time>2026-05-03T16:07:38Z</time></trkpt><trkpt lat="41.926939310662064" lon="12.528065446482527"><ele>30.0</ele><time>2026-05-03T16:07:39Z</time></trkpt><trkpt lat="41.927090495828345" lon="12.528085329912638"><ele>30.0</ele><time>2026-05-03T16:07:40Z</time></trkpt><trkpt lat="41.92724887285019" lon="12.528093200934261"><ele>30.0</ele><time>2026-05-03T16:07:41Z</time></trkpt><trkpt lat="41.927406185916645" lon="12.52809554141729"><ele>30.0</ele><time>2026-05-03T16:07:42Z</time></trkpt><trkpt lat="41.92756134334628" lon="12.528086152055078"><ele>29.0</ele><time>2026-05-03T16:07:43Z</time></trkpt><trkpt lat="41.92770356900255" lon="12.528065332645552"><ele>28.0</ele><time>2026-05-03T16:07:44Z</time></trkpt><trkpt lat="41.927837521221136" lon="12.52804254185024"><ele>27.0</ele><time>2026-05-03T16:07:45Z</time></trkpt><trkpt lat="41.927966233474564" lon="12.528013251277413"><ele>26.0</ele><time>2026-05-03T16:07:46Z</time></trkpt><trkpt lat="41.92809634349271" lon="12.5279761405419"><ele>26.0</ele><time>2026-05-03T16:07:47Z</time></trkpt><trkpt lat="41.928234965299005" lon="12.527934031174006"><ele>26.0</ele><time>2026-05-03T16:07:48Z</time></trkpt><trkpt lat="41.92837777739729" lon="12.527879122617389"><ele>26.0</ele><time>2026-05-03T16:07:49Z</time></trkpt><trkpt lat="41.928526331473854" lon="12.527814736057417"><ele>26.0</ele><time>2026-05-03T16:07:50Z</time></trkpt><trkpt lat="41.92867236154028" lon="12.527741870013951"><ele>28.333333333333332</ele><time>2026-05-03T16:07:51Z</time></trkpt><trkpt lat="41.928817892955635" lon="12.52765833897035"><ele>30.666666666666664</ele><time>2026-05-03T16:07:52Z</time></trkpt><trkpt lat="41.92896494036873" lon="12.527573147133241"><ele>33.0</ele><time>2026-05-03T16:07:53Z</time></trkpt><trkpt lat="41.929112022903155" lon="12.527480094254125"><ele>32.333333333333336</ele><time>2026-05-03T16:07:54Z</time></trkpt><trkpt lat="41.9292602464905" lon="12.527380575418054"><ele>31.666666666666668</ele><time>2026-05-03T16:07:55Z</time></trkpt><trkpt lat="41.92940200720413" lon="12.527276991270938"><ele>31.0</ele><time>2026-05-03T16:07:56Z</time></trkpt><trkpt lat="41.92954113540998" lon="12.52716735302304"><ele>32.333333333333336</ele><time>2026-05-03T16:07:57Z</time></trkpt><trkpt lat="41.92967492443598" lon="12.527051301687404"><ele>33.666666666666664</ele><time>2026-05-03T16:07:58Z</time></trkpt><trkpt lat="41.929802196157105" lon="12.52691856937926"><ele>35.0</ele><time>2026-05-03T16:07:58.999Z</time></trkpt><trkpt lat="41.929926907502285" lon="12.526786957746447"><ele>35.0</ele><time>2026-05-03T16:07:59.999Z</time></trkpt><trkpt lat="41.93005390563979" lon="12.526659140777895"><ele>35.0</ele><time>2026-05-03T16:08:00.999Z</time></trkpt><trkpt lat="41.93018069646933" lon="12.526537063874528"><ele>35.0</ele><time>2026-05-03T16:08:01.999Z</time></trkpt><trkpt lat="41.93030624003775" lon="12.52641001750619"><ele>34.666666666666664</ele><time>2026-05-03T16:08:02.999Z</time></trkpt><trkpt lat="41.930408121779365" lon="12.52627344353259"><ele>34.333333333333336</ele><time>2026-05-03T16:08:03.999Z</time></trkpt><trkpt lat="41.93050684128449" lon="12.526085340574028"><ele>34.0</ele><time>2026-05-03T16:08:04.999Z</time></trkpt><trkpt lat="41.93061553539201" lon="12.5259305087762"><ele>34.0</ele><time>2026-05-03T16:08:05.999Z</time></trkpt><trkpt lat="41.930722961362235" lon="12.525776422085785"><ele>34.0</ele><time>2026-05-03T16:08:06.999Z</time></trkpt><trkpt lat="41.93083127948905" lon="12.525616166709575"><ele>34.0</ele><time>2026-05-03T16:08:07.999Z</time></trkpt><trkpt lat="41.930938548106504" lon="12.525464183045264"><ele>32.333333333333336</ele><time>2026-05-03T16:08:08.999Z</time></trkpt><trkpt lat="41.931049780402944" lon="12.525308637782414"><ele>30.666666666666664</ele><time>2026-05-03T16:08:09.999Z</time></trkpt><trkpt lat="41.93115849344981" lon="12.52516073847932"><ele>29.0</ele><time>2026-05-03T16:08:10.999Z</time></trkpt><trkpt lat="41.931268300890856" lon="12.525005604541903"><ele>29.0</ele><time>2026-05-03T16:08:11.999Z</time></trkpt><trkpt lat="41.931375371057364" lon="12.524846095128897"><ele>29.0</ele><time>2026-05-03T16:08:12.999Z</time></trkpt><trkpt lat="41.93148008339974" lon="12.524693493963525"><ele>29.0</ele><time>2026-05-03T16:08:13.999Z</time></trkpt><trkpt lat="41.931590213352365" lon="12.524539567086226"><ele>29.0</ele><time>2026-05-03T16:08:14.999Z</time></trkpt><trkpt lat="41.931691107634016" lon="12.52437713190386"><ele>29.0</ele><time>2026-05-03T16:08:15.999Z</time></trkpt><trkpt lat="41.93179910576092" lon="12.524217388383644"><ele>29.0</ele><time>2026-05-03T16:08:16.999Z</time></trkpt><trkpt lat="41.93190093815816" lon="12.524060490291346"><ele>28.666666666666664</ele><time>2026-05-03T16:08:17.999Z</time></trkpt><trkpt lat="41.93201065892787" lon="12.523899815034985"><ele>28.333333333333336</ele><time>2026-05-03T16:08:18.999Z</time></trkpt><trkpt lat="41.93211673455188" lon="12.523745313562658"><ele>28.0</ele><time>2026-05-03T16:08:19.999Z</time></trkpt><trkpt lat="41.93222389532218" lon="12.523585369260271"><ele>27.666666666666668</ele><time>2026-05-03T16:08:20.999Z</time></trkpt><trkpt lat="41.932327992785844" lon="12.523421824049862"><ele>27.333333333333336</ele><time>2026-05-03T16:08:21.999Z</time></trkpt><trkpt lat="41.932406782261864" lon="12.523299160287307"><ele>27.0</ele><time>2026-05-03T16:08:22.999Z</time></trkpt><trkpt lat="41.932521353197906" lon="12.523132460128148"><ele>26.666666666666664</ele><time>2026-05-03T16:08:23.999Z</time></trkpt><trkpt lat="41.932648068382974" lon="12.522952316003252"><ele>26.333333333333332</ele><time>2026-05-03T16:08:24.999Z</time></trkpt><trkpt lat="41.93275428141022" lon="12.522800154134403"><ele>26.0</ele><time>2026-05-03T16:08:25.999Z</time></trkpt><trkpt lat="41.93285789770358" lon="12.522644204278158"><ele>27.666666666666664</ele><time>2026-05-03T16:08:26.999Z</time></trkpt><trkpt lat="41.93296639169393" lon="12.52249255581687"><ele>29.333333333333336</ele><time>2026-05-03T16:08:27.999Z</time></trkpt><trkpt lat="41.93307619122961" lon="12.52234526510599"><ele>31.0</ele><time>2026-05-03T16:08:28.999Z</time></trkpt><trkpt lat="41.9331859244384" lon="12.522197176522502"><ele>30.333333333333336</ele><time>2026-05-03T16:08:29.999Z</time></trkpt><trkpt lat="41.93329366229459" lon="12.522051869575915"><ele>29.666666666666664</ele><time>2026-05-03T16:08:30.999Z</time></trkpt><trkpt lat="41.933408153541194" lon="12.521912027530908"><ele>29.0</ele><time>2026-05-03T16:08:31.999Z</time></trkpt><trkpt lat="41.933523653473" lon="12.521773817108365"><ele>29.0</ele><time>2026-05-03T16:08:32.999Z</time></trkpt><trkpt lat="41.93364610824517" lon="12.521643164969872"><ele>29.0</ele><time>2026-05-03T16:08:33.999Z</time></trkpt><trkpt lat="41.93375680495866" lon="12.521531577194114"><ele>29.0</ele><time>2026-05-03T16:08:34.999Z</time></trkpt><trkpt lat="41.93389758003672" lon="12.521389153230764"><ele>29.0</ele><time>2026-05-03T16:08:35.999Z</time></trkpt><trkpt lat="41.93402765599085" lon="12.521259097351061"><ele>29.0</ele><time>2026-05-03T16:08:36.999Z</time></trkpt><trkpt lat="41.934171912469395" lon="12.52115634261649"><ele>29.0</ele><time>2026-05-03T16:08:37.999Z</time></trkpt><trkpt lat="41.934313150478886" lon="12.521046546284937"><ele>28.0</ele><time>2026-05-03T16:08:38.999Z</time></trkpt><trkpt lat="41.934462667725484" lon="12.520965935028753"><ele>27.0</ele><time>2026-05-03T16:08:39.999Z</time></trkpt><trkpt lat="41.93461468153251" lon="12.520884043535661"><ele>26.0</ele><time>2026-05-03T16:08:40.999Z</time></trkpt><trkpt lat="41.93476508052683" lon="12.520800568377963"><ele>26.0</ele><time>2026-05-03T16:08:41.999Z</time></trkpt><trkpt lat="41.93491764132307" lon="12.52072742891102"><ele>26.0</ele><time>2026-05-03T16:08:42.999Z</time></trkpt><trkpt lat="41.93507339182519" lon="12.520655274837077"><ele>26.0</ele><time>2026-05-03T16:08:43.999Z</time></trkpt><trkpt lat="41.935227076171756" lon="12.520587037156933"><ele>24.333333333333332</ele><time>2026-05-03T16:08:44.999Z</time></trkpt><trkpt lat="41.935382019922756" lon="12.520520246244022"><ele>22.666666666666664</ele><time>2026-05-03T16:08:45.999Z</time></trkpt><trkpt lat="41.935537329954904" lon="12.520459269236763"><ele>21.0</ele><time>2026-05-03T16:08:46.999Z</time></trkpt><trkpt lat="41.93568785757829" lon="12.520392043282834"><ele>22.333333333333336</ele><time>2026-05-03T16:08:47.999Z</time></trkpt><trkpt lat="41.935841786733334" lon="12.520327522497315"><ele>23.666666666666668</ele><time>2026-05-03T16:08:48.999Z</time></trkpt><trkpt lat="41.935994278911515" lon="12.520261900816033"><ele>25.0</ele><time>2026-05-03T16:08:49.999Z</time></trkpt><trkpt lat="41.93614784573406" lon="12.52019737965829"><ele>25.0</ele><time>2026-05-03T16:08:50.999Z</time></trkpt><trkpt lat="41.93629946577593" lon="12.52012795845666"><ele>25.0</ele><time>2026-05-03T16:08:51.999Z</time></trkpt><trkpt lat="41.93645084138066" lon="12.520060266924252"><ele>25.0</ele><time>2026-05-03T16:08:52.999Z</time></trkpt><trkpt lat="41.93659876073703" lon="12.519992167434525"><ele>24.0</ele><time>2026-05-03T16:08:53.999Z</time></trkpt><trkpt lat="41.93674823827302" lon="12.519918212501379"><ele>23.0</ele><time>2026-05-03T16:08:54.999Z</time></trkpt><trkpt lat="41.936897509700955" lon="12.51984220488137"><ele>22.0</ele><time>2026-05-03T16:08:55.999Z</time></trkpt><trkpt lat="41.93704317374938" lon="12.51975851125497"><ele>22.0</ele><time>2026-05-03T16:08:56.999Z</time></trkpt><trkpt lat="41.93717900166865" lon="12.519662618157557"><ele>22.0</ele><time>2026-05-03T16:08:57.999Z</time></trkpt><trkpt lat="41.937311096994456" lon="12.51955996577504"><ele>22.0</ele><time>2026-05-03T16:08:58.999Z</time></trkpt><trkpt lat="41.93743897221392" lon="12.51944994622303"><ele>21.75</ele><time>2026-05-03T16:08:59.999Z</time></trkpt><trkpt lat="41.93756245575418" lon="12.519338696046624"><ele>21.5</ele><time>2026-05-03T16:09:00.999Z</time></trkpt><trkpt lat="41.93768210887584" lon="12.519223264016118"><ele>21.25</ele><time>2026-05-03T16:09:01.999Z</time></trkpt><trkpt lat="41.93779218849716" lon="12.519100243093854"><ele>21.0</ele><time>2026-05-03T16:09:02.999Z</time></trkpt><trkpt lat="41.93790031633646" lon="12.518972085084794"><ele>21.0</ele><time>2026-05-03T16:09:03.999Z</time></trkpt><trkpt lat="41.93800494083299" lon="12.518843607975365"><ele>21.0</ele><time>2026-05-03T16:09:04.999Z</time></trkpt><trkpt lat="41.938103280611564" lon="12.518709730816106"><ele>21.0</ele><time>2026-05-03T16:09:05.999Z</time></trkpt><trkpt lat="41.93819234830147" lon="12.518566757138741"><ele>21.0</ele><time>2026-05-03T16:09:06.999Z</time></trkpt><trkpt lat="41.93827434157067" lon="12.518418145980393"><ele>20.75</ele><time>2026-05-03T16:09:07.999Z</time></trkpt><trkpt lat="41.938358253146205" lon="12.518275603022373"><ele>20.5</ele><time>2026-05-03T16:09:08.999Z</time></trkpt><trkpt lat="41.93844172542542" lon="12.518128608893704"><ele>20.25</ele><time>2026-05-03T16:09:09.999Z</time></trkpt><trkpt lat="41.93852383363921" lon="12.517972790725342"><ele>20.0</ele><time>2026-05-03T16:09:10.999Z</time></trkpt><trkpt lat="41.93859961725522" lon="12.517812446608408"><ele>20.0</ele><time>2026-05-03T16:09:11.999Z</time></trkpt><trkpt lat="41.9386782772575" lon="12.51765092001671"><ele>20.0</ele><time>2026-05-03T16:09:12.999Z</time></trkpt><trkpt lat="41.938761742607916" lon="12.517484320107522"><ele>20.0</ele><time>2026-05-03T16:09:13.999Z</time></trkpt><trkpt lat="41.93884124108312" lon="12.517319154329169"><ele>20.0</ele><time>2026-05-03T16:09:14.999Z</time></trkpt><trkpt lat="41.938918095738494" lon="12.517148386771268"><ele>22.0</ele><time>2026-05-03T16:09:16Z</time></trkpt><trkpt lat="41.93899489955939" lon="12.516972779403352"><ele>24.0</ele><time>2026-05-03T16:09:17Z</time></trkpt><trkpt lat="41.93906217306351" lon="12.516787385365692"><ele>26.0</ele><time>2026-05-03T16:09:18Z</time></trkpt><trkpt lat="41.9391169729004" lon="12.516591414863871"><ele>26.0</ele><time>2026-05-03T16:09:19Z</time></trkpt><trkpt lat="41.93916582451166" lon="12.516386905035302"><ele>26.0</ele><time>2026-05-03T16:09:20Z</time></trkpt><trkpt lat="41.93920551396177" lon="12.516196689855814"><ele>26.0</ele><time>2026-05-03T16:09:21Z</time></trkpt><trkpt lat="41.9392480988496" lon="12.515998614475444"><ele>25.666666666666664</ele><time>2026-05-03T16:09:22Z</time></trkpt><trkpt lat="41.93928278949791" lon="12.515796453476758"><ele>25.333333333333336</ele><time>2026-05-03T16:09:23Z</time></trkpt><trkpt lat="41.93930556853219" lon="12.51559172872678"><ele>25.0</ele><time>2026-05-03T16:09:24Z</time></trkpt><trkpt lat="41.93931957198666" lon="12.515385960778607"><ele>26.0</ele><time>2026-05-03T16:09:25Z</time></trkpt><trkpt lat="41.939328541006994" lon="12.515179156203684"><ele>27.0</ele><time>2026-05-03T16:09:26Z</time></trkpt><trkpt lat="41.93933120483106" lon="12.51497172584929"><ele>28.0</ele><time>2026-05-03T16:09:27Z</time></trkpt><trkpt lat="41.939326017124216" lon="12.514764065417264"><ele>29.0</ele><time>2026-05-03T16:09:28Z</time></trkpt><trkpt lat="41.93931224995319" lon="12.514557897894333"><ele>30.0</ele><time>2026-05-03T16:09:29Z</time></trkpt><trkpt lat="41.93929119370596" lon="12.514351612151959"><ele>31.0</ele><time>2026-05-03T16:09:30Z</time></trkpt><trkpt lat="41.9392647945215" lon="12.514147230777247"><ele>31.0</ele><time>2026-05-03T16:09:31Z</time></trkpt><trkpt lat="41.939225043199166" lon="12.51394479984586"><ele>31.0</ele><time>2026-05-03T16:09:32Z</time></trkpt><trkpt lat="41.9391829752187" lon="12.513745351881894"><ele>31.0</ele><time>2026-05-03T16:09:33Z</time></trkpt><trkpt lat="41.939129471579456" lon="12.513549984233311"><ele>30.666666666666668</ele><time>2026-05-03T16:09:34Z</time></trkpt><trkpt lat="41.939078897612994" lon="12.513356976219274"><ele>30.333333333333336</ele><time>2026-05-03T16:09:35Z</time></trkpt><trkpt lat="41.93901616720361" lon="12.513167583611814"><ele>30.0</ele><time>2026-05-03T16:09:36Z</time></trkpt><trkpt lat="41.9389482503251" lon="12.512980193620322"><ele>30.0</ele><time>2026-05-03T16:09:37Z</time></trkpt><trkpt lat="41.938880855779324" lon="12.512795349231883"><ele>30.0</ele><time>2026-05-03T16:09:38Z</time></trkpt><trkpt lat="41.9388138085868" lon="12.512609216414065"><ele>30.0</ele><time>2026-05-03T16:09:39Z</time></trkpt><trkpt lat="41.93874987912283" lon="12.512425643067328"><ele>30.0</ele><time>2026-05-03T16:09:40Z</time></trkpt><trkpt lat="41.93868355107957" lon="12.512240882737071"><ele>30.0</ele><time>2026-05-03T16:09:41Z</time></trkpt><trkpt lat="41.93861803249139" lon="12.512055683643492"><ele>30.0</ele><time>2026-05-03T16:09:42Z</time></trkpt><trkpt lat="41.938552711580805" lon="12.511868102134681"><ele>29.333333333333336</ele><time>2026-05-03T16:09:43Z</time></trkpt><trkpt lat="41.938488534969416" lon="12.511681264895454"><ele>28.666666666666668</ele><time>2026-05-03T16:09:44Z</time></trkpt><trkpt lat="41.938430825899104" lon="12.511491963914006"><ele>28.0</ele><time>2026-05-03T16:09:45Z</time></trkpt><trkpt lat="41.938374072907415" lon="12.511299069711194"><ele>28.0</ele><time>2026-05-03T16:09:46Z</time></trkpt><trkpt lat="41.93832049159909" lon="12.51110524219715"><ele>28.0</ele><time>2026-05-03T16:09:47Z</time></trkpt><trkpt lat="41.9382700611668" lon="12.510909120776034"><ele>28.0</ele><time>2026-05-03T16:09:48Z</time></trkpt><trkpt lat="41.938222908987726" lon="12.510712574530396"><ele>28.0</ele><time>2026-05-03T16:09:49Z</time></trkpt><trkpt lat="41.93817568300228" lon="12.510515396280377"><ele>28.0</ele><time>2026-05-03T16:09:50Z</time></trkpt><trkpt lat="41.938130025236894" lon="12.510318617833294"><ele>28.0</ele><time>2026-05-03T16:09:51Z</time></trkpt><trkpt lat="41.9380845308881" lon="12.510119252024237"><ele>27.0</ele><time>2026-05-03T16:09:52Z</time></trkpt><trkpt lat="41.938037578113324" lon="12.509919990006102"><ele>26.0</ele><time>2026-05-03T16:09:53Z</time></trkpt><trkpt lat="41.937995885787196" lon="12.509719766792026"><ele>25.0</ele><time>2026-05-03T16:09:54Z</time></trkpt><trkpt lat="41.93795009237898" lon="12.509516148728686"><ele>24.666666666666668</ele><time>2026-05-03T16:09:55Z</time></trkpt><trkpt lat="41.937904084711185" lon="12.509310258481063"><ele>24.333333333333336</ele><time>2026-05-03T16:09:56Z</time></trkpt><trkpt lat="41.93785905723908" lon="12.50910596687285"><ele>24.0</ele><time>2026-05-03T16:09:57Z</time></trkpt><trkpt lat="41.937811843155686" lon="12.508900210067448"><ele>23.0</ele><time>2026-05-03T16:09:58Z</time></trkpt><trkpt lat="41.93776750259998" lon="12.508694718402472"><ele>22.0</ele><time>2026-05-03T16:09:59Z</time></trkpt><trkpt lat="41.937727282653306" lon="12.508487754036842"><ele>21.0</ele><time>2026-05-03T16:10:00Z</time></trkpt><trkpt lat="41.93769307356905" lon="12.508280296841566"><ele>21.0</ele><time>2026-05-03T16:10:01Z</time></trkpt><trkpt lat="41.93766829440365" lon="12.508067023810046"><ele>21.0</ele><time>2026-05-03T16:10:02Z</time></trkpt><trkpt lat="41.937661646437654" lon="12.507854389189154"><ele>21.0</ele><time>2026-05-03T16:10:03Z</time></trkpt><trkpt lat="41.937667332879755" lon="12.507638389202633"><ele>20.333333333333332</ele><time>2026-05-03T16:10:04Z</time></trkpt><trkpt lat="41.93768869649786" lon="12.507424386841066"><ele>19.666666666666664</ele><time>2026-05-03T16:10:05Z</time></trkpt><trkpt lat="41.93772641421594" lon="12.507210420817803"><ele>19.0</ele><time>2026-05-03T16:10:06Z</time></trkpt><trkpt lat="41.9377720691075" lon="12.507004091266754"><ele>19.0</ele><time>2026-05-03T16:10:07Z</time></trkpt><trkpt lat="41.93781686535959" lon="12.50679563929021"><ele>19.0</ele><time>2026-05-03T16:10:08Z</time></trkpt><trkpt lat="41.937867955453164" lon="12.506592320362797"><ele>19.0</ele><time>2026-05-03T16:10:09Z</time></trkpt><trkpt lat="41.937922613254386" lon="12.506391414437989"><ele>18.666666666666664</ele><time>2026-05-03T16:10:09.999Z</time></trkpt><trkpt lat="41.93797637216934" lon="12.506191477007217"><ele>18.333333333333332</ele><time>2026-05-03T16:10:10.999Z</time></trkpt><trkpt lat="41.93803463090258" lon="12.505995102702794"><ele>18.0</ele><time>2026-05-03T16:10:11.999Z</time></trkpt><trkpt lat="41.93809756357508" lon="12.505804753276614"><ele>18.0</ele><time>2026-05-03T16:10:12.999Z</time></trkpt><trkpt lat="41.93816719357856" lon="12.505619402025614"><ele>18.0</ele><time>2026-05-03T16:10:13.999Z</time></trkpt><trkpt lat="41.938241335160555" lon="12.505436121820903"><ele>18.0</ele><time>2026-05-03T16:10:14.999Z</time></trkpt><trkpt lat="41.93832197673054" lon="12.505254864075166"><ele>17.0</ele><time>2026-05-03T16:10:15.999Z</time></trkpt><trkpt lat="41.93840885366485" lon="12.505080380755958"><ele>16.0</ele><time>2026-05-03T16:10:16.999Z</time></trkpt><trkpt lat="41.93848919661653" lon="12.5049181175526"><ele>15.0</ele><time>2026-05-03T16:10:17.999Z</time></trkpt><trkpt lat="41.938568305202786" lon="12.504763365673135"><ele>14.0</ele><time>2026-05-03T16:10:18.999Z</time></trkpt><trkpt lat="41.938639798787584" lon="12.504620508187243"><ele>15.0</ele><time>2026-05-03T16:10:19.999Z</time></trkpt><trkpt lat="41.93870626692475" lon="12.504482869418503"><ele>16.0</ele><time>2026-05-03T16:10:20.999Z</time></trkpt><trkpt lat="41.938774964220094" lon="12.504348294291754"><ele>17.0</ele><time>2026-05-03T16:10:21.999Z</time></trkpt><trkpt lat="41.938839823962034" lon="12.504204669304567"><ele>18.0</ele><time>2026-05-03T16:10:22.999Z</time></trkpt><trkpt lat="41.9389104637299" lon="12.504068010922248"><ele>18.0</ele><time>2026-05-03T16:10:23.999Z</time></trkpt><trkpt lat="41.938973245720234" lon="12.50392165028449"><ele>18.0</ele><time>2026-05-03T16:10:24.999Z</time></trkpt><trkpt lat="41.93903881670502" lon="12.50377046675516"><ele>18.0</ele><time>2026-05-03T16:10:25.999Z</time></trkpt><trkpt lat="41.93910710949713" lon="12.503617779240612"><ele>18.0</ele><time>2026-05-03T16:10:26.999Z</time></trkpt><trkpt lat="41.939176414345695" lon="12.503464738217732"><ele>17.75</ele><time>2026-05-03T16:10:27.999Z</time></trkpt><trkpt lat="41.93924948278401" lon="12.503313015963911"><ele>17.5</ele><time>2026-05-03T16:10:28.999Z</time></trkpt><trkpt lat="41.939322005798516" lon="12.503160612832316"><ele>17.25</ele><time>2026-05-03T16:10:29.999Z</time></trkpt><trkpt lat="41.939392976329316" lon="12.503005982956907"><ele>17.0</ele><time>2026-05-03T16:10:30.999Z</time></trkpt><trkpt lat="41.939464276181646" lon="12.50285099371699"><ele>17.0</ele><time>2026-05-03T16:10:31.999Z</time></trkpt><trkpt lat="41.93953570995722" lon="12.50269665217448"><ele>17.0</ele><time>2026-05-03T16:10:32.999Z</time></trkpt><trkpt lat="41.93960644183054" lon="12.502542628861066"><ele>17.0</ele><time>2026-05-03T16:10:33.999Z</time></trkpt><trkpt lat="41.93967675411552" lon="12.5023885582655"><ele>17.0</ele><time>2026-05-03T16:10:34.999Z</time></trkpt><trkpt lat="41.939747614027155" lon="12.502233709742674"><ele>20.0</ele><time>2026-05-03T16:10:35.999Z</time></trkpt><trkpt lat="41.939817563698846" lon="12.50207481182729"><ele>23.0</ele><time>2026-05-03T16:10:36.999Z</time></trkpt><trkpt lat="41.9398884270171" lon="12.50191894382586"><ele>26.0</ele><time>2026-05-03T16:10:37.999Z</time></trkpt><trkpt lat="41.93996000998328" lon="12.501764273438043"><ele>29.0</ele><time>2026-05-03T16:10:38.999Z</time></trkpt><trkpt lat="41.94003143627108" lon="12.501606421856826"><ele>25.5</ele><time>2026-05-03T16:10:39.999Z</time></trkpt><trkpt lat="41.940098749588564" lon="12.501444611798258"><ele>22.0</ele><time>2026-05-03T16:10:40.999Z</time></trkpt><trkpt lat="41.94016101583673" lon="12.50128228868683"><ele>18.5</ele><time>2026-05-03T16:10:41.999Z</time></trkpt><trkpt lat="41.94021826613508" lon="12.501115745274507"><ele>15.0</ele><time>2026-05-03T16:10:42.999Z</time></trkpt><trkpt lat="41.94027467323424" lon="12.500949454914716"><ele>15.0</ele><time>2026-05-03T16:10:43.999Z</time></trkpt><trkpt lat="41.94032564413437" lon="12.50077459920092"><ele>15.0</ele><time>2026-05-03T16:10:44.999Z</time></trkpt><trkpt lat="41.94037385860682" lon="12.50059855383514"><ele>15.0</ele><time>2026-05-03T16:10:45.999Z</time></trkpt><trkpt lat="41.94042232532395" lon="12.500417008882865"><ele>15.0</ele><time>2026-05-03T16:10:46.999Z</time></trkpt><trkpt lat="41.94046365850701" lon="12.500226701676768"><ele>17.0</ele><time>2026-05-03T16:10:47.999Z</time></trkpt><trkpt lat="41.9405004718413" lon="12.500027858622351"><ele>19.0</ele><time>2026-05-03T16:10:48.999Z</time></trkpt><trkpt lat="41.940535530408646" lon="12.499826792329241"><ele>21.0</ele><time>2026-05-03T16:10:49.999Z</time></trkpt><trkpt lat="41.940563423177906" lon="12.499620001250879"><ele>20.666666666666668</ele><time>2026-05-03T16:10:50.999Z</time></trkpt><trkpt lat="41.94058561306908" lon="12.499412775577591"><ele>20.333333333333336</ele><time>2026-05-03T16:10:51.999Z</time></trkpt><trkpt lat="41.940597886986716" lon="12.499202395541923"><ele>20.0</ele><time>2026-05-03T16:10:52.999Z</time></trkpt><trkpt lat="41.94060054675164" lon="12.49899082778635"><ele>20.0</ele><time>2026-05-03T16:10:53.999Z</time></trkpt><trkpt lat="41.940597850825824" lon="12.498780319100591"><ele>20.0</ele><time>2026-05-03T16:10:54.999Z</time></trkpt><trkpt lat="41.94058892340878" lon="12.49857043852573"><ele>20.0</ele><time>2026-05-03T16:10:55.999Z</time></trkpt><trkpt lat="41.940576895020214" lon="12.498360817919997"><ele>20.0</ele><time>2026-05-03T16:10:56.999Z</time></trkpt><trkpt lat="41.940561278378176" lon="12.49815707987056"><ele>20.0</ele><time>2026-05-03T16:10:57.999Z</time></trkpt><trkpt lat="41.94053995441585" lon="12.497955509209232"><ele>20.0</ele><time>2026-05-03T16:10:58.999Z</time></trkpt><trkpt lat="41.94052286324529" lon="12.497756328910373"><ele>20.0</ele><time>2026-05-03T16:10:59.999Z</time></trkpt><trkpt lat="41.94049355457159" lon="12.49755487607638"><ele>20.0</ele><time>2026-05-03T16:11:00.999Z</time></trkpt><trkpt lat="41.94046067665167" lon="12.497355484409706"><ele>20.0</ele><time>2026-05-03T16:11:01.999Z</time></trkpt><trkpt lat="41.940423320128" lon="12.497156790488425"><ele>21.0</ele><time>2026-05-03T16:11:02.999Z</time></trkpt><trkpt lat="41.940387516649615" lon="12.496955217888699"><ele>22.0</ele><time>2026-05-03T16:11:03.999Z</time></trkpt><trkpt lat="41.940351524013224" lon="12.496754427587245"><ele>23.0</ele><time>2026-05-03T16:11:04.999Z</time></trkpt><trkpt lat="41.940311245976474" lon="12.49655312999852"><ele>23.0</ele><time>2026-05-03T16:11:05.999Z</time></trkpt><trkpt lat="41.94026786029687" lon="12.496348794137344"><ele>23.0</ele><time>2026-05-03T16:11:06.999Z</time></trkpt><trkpt lat="41.94022295934231" lon="12.49614368212245"><ele>23.0</ele><time>2026-05-03T16:11:07.999Z</time></trkpt><trkpt lat="41.94017750558591" lon="12.49593798880614"><ele>23.0</ele><time>2026-05-03T16:11:08.999Z</time></trkpt><trkpt lat="41.94013219607451" lon="12.495731740542576"><ele>23.0</ele><time>2026-05-03T16:11:09.999Z</time></trkpt><trkpt lat="41.940089631326394" lon="12.495524915878754"><ele>23.0</ele><time>2026-05-03T16:11:10.999Z</time></trkpt><trkpt lat="41.940048561800495" lon="12.495319548358578"><ele>23.333333333333336</ele><time>2026-05-03T16:11:11.999Z</time></trkpt><trkpt lat="41.940005806782615" lon="12.495123153311338"><ele>23.666666666666668</ele><time>2026-05-03T16:11:12.999Z</time></trkpt><trkpt lat="41.93996386550657" lon="12.494922008457285"><ele>24.0</ele><time>2026-05-03T16:11:13.999Z</time></trkpt><trkpt lat="41.939922710151095" lon="12.494719318969548"><ele>23.666666666666668</ele><time>2026-05-03T16:11:14.999Z</time></trkpt><trkpt lat="41.93988069656117" lon="12.494513758209068"><ele>23.333333333333336</ele><time>2026-05-03T16:11:15.999Z</time></trkpt><trkpt lat="41.93983806701546" lon="12.49430655456774"><ele>23.0</ele><time>2026-05-03T16:11:16.999Z</time></trkpt><trkpt lat="41.93979772384563" lon="12.494100535709126"><ele>23.0</ele><time>2026-05-03T16:11:17.999Z</time></trkpt><trkpt lat="41.93975845880127" lon="12.493892362507365"><ele>23.0</ele><time>2026-05-03T16:11:18.999Z</time></trkpt><trkpt lat="41.939717854157756" lon="12.493683177420731"><ele>23.0</ele><time>2026-05-03T16:11:19.999Z</time></trkpt><trkpt lat="41.939680032971026" lon="12.493476492576704"><ele>23.333333333333336</ele><time>2026-05-03T16:11:20.999Z</time></trkpt><trkpt lat="41.9396383381475" lon="12.49327345638883"><ele>23.666666666666668</ele><time>2026-05-03T16:11:22Z</time></trkpt><trkpt lat="41.93959788652079" lon="12.493065612478008"><ele>24.0</ele><time>2026-05-03T16:11:23Z</time></trkpt><trkpt lat="41.93955762729393" lon="12.492857212411977"><ele>24.0</ele><time>2026-05-03T16:11:24Z</time></trkpt><trkpt lat="41.93951813837047" lon="12.492649916804211"><ele>24.0</ele><time>2026-05-03T16:11:25Z</time></trkpt><trkpt lat="41.939484721379785" lon="12.49244131423607"><ele>24.0</ele><time>2026-05-03T16:11:26Z</time></trkpt><trkpt lat="41.93945892750898" lon="12.492228947949693"><ele>23.333333333333332</ele><time>2026-05-03T16:11:27Z</time></trkpt><trkpt lat="41.93943327459091" lon="12.492015664192639"><ele>22.666666666666664</ele><time>2026-05-03T16:11:28Z</time></trkpt><trkpt lat="41.9394074081149" lon="12.491802129543583"><ele>22.0</ele><time>2026-05-03T16:11:29Z</time></trkpt><trkpt lat="41.939385185328206" lon="12.4915908355404"><ele>22.0</ele><time>2026-05-03T16:11:30Z</time></trkpt><trkpt lat="41.93936724058563" lon="12.491377314031183"><ele>22.0</ele><time>2026-05-03T16:11:31Z</time></trkpt><trkpt lat="41.93935239277734" lon="12.491164798916225"><ele>22.0</ele><time>2026-05-03T16:11:32Z</time></trkpt><trkpt lat="41.93934352013915" lon="12.490951308419147"><ele>22.333333333333332</ele><time>2026-05-03T16:11:33Z</time></trkpt><trkpt lat="41.93934143462604" lon="12.49073535149979"><ele>22.666666666666668</ele><time>2026-05-03T16:11:34Z</time></trkpt><trkpt lat="41.93934008531852" lon="12.490520611004174"><ele>23.0</ele><time>2026-05-03T16:11:35Z</time></trkpt><trkpt lat="41.93934163005331" lon="12.490303904906"><ele>23.0</ele><time>2026-05-03T16:11:36Z</time></trkpt><trkpt lat="41.93934076534094" lon="12.49008862590156"><ele>23.0</ele><time>2026-05-03T16:11:37Z</time></trkpt><trkpt lat="41.939342735738386" lon="12.489869697586332"><ele>23.0</ele><time>2026-05-03T16:11:38Z</time></trkpt><trkpt lat="41.939348325532514" lon="12.489652750257957"><ele>23.0</ele><time>2026-05-03T16:11:39Z</time></trkpt><trkpt lat="41.93936313554291" lon="12.489439074710772"><ele>23.0</ele><time>2026-05-03T16:11:40Z</time></trkpt><trkpt lat="41.93938047395759" lon="12.489225839339701"><ele>23.0</ele><time>2026-05-03T16:11:41Z</time></trkpt><trkpt lat="41.93940090734049" lon="12.489012744319385"><ele>23.0</ele><time>2026-05-03T16:11:42Z</time></trkpt><trkpt lat="41.939423994380896" lon="12.488800368032903"><ele>23.0</ele><time>2026-05-03T16:11:43Z</time></trkpt><trkpt lat="41.93945126294556" lon="12.488589684702522"><ele>23.0</ele><time>2026-05-03T16:11:44Z</time></trkpt><trkpt lat="41.939480683881456" lon="12.488376968849462"><ele>22.0</ele><time>2026-05-03T16:11:45Z</time></trkpt><trkpt lat="41.939506086331725" lon="12.488161935742427"><ele>21.0</ele><time>2026-05-03T16:11:46Z</time></trkpt><trkpt lat="41.93953197301259" lon="12.48794977425962"><ele>20.0</ele><time>2026-05-03T16:11:47Z</time></trkpt><trkpt lat="41.93956106751358" lon="12.487738196134845"><ele>18.666666666666668</ele><time>2026-05-03T16:11:48Z</time></trkpt><trkpt lat="41.93958619952806" lon="12.487524205471633"><ele>17.333333333333332</ele><time>2026-05-03T16:11:49Z</time></trkpt><trkpt lat="41.93961389334773" lon="12.487312496112798"><ele>16.0</ele><time>2026-05-03T16:11:50Z</time></trkpt><trkpt lat="41.939641587315826" lon="12.487103884547393"><ele>16.0</ele><time>2026-05-03T16:11:51Z</time></trkpt><trkpt lat="41.93966913035571" lon="12.486899421063526"><ele>16.0</ele><time>2026-05-03T16:11:52Z</time></trkpt><trkpt lat="41.939697581366524" lon="12.48669640947125"><ele>16.0</ele><time>2026-05-03T16:11:53Z</time></trkpt><trkpt lat="41.93972398435509" lon="12.48648264790872"><ele>16.0</ele><time>2026-05-03T16:11:54Z</time></trkpt><trkpt lat="41.93975017980237" lon="12.48626977472178"><ele>16.0</ele><time>2026-05-03T16:11:55Z</time></trkpt><trkpt lat="41.93977257537986" lon="12.486054542774115"><ele>16.0</ele><time>2026-05-03T16:11:56Z</time></trkpt><trkpt lat="41.93979596307284" lon="12.485840620176129"><ele>17.0</ele><time>2026-05-03T16:11:57Z</time></trkpt><trkpt lat="41.939820230610245" lon="12.485627059754648"><ele>18.0</ele><time>2026-05-03T16:11:58Z</time></trkpt><trkpt lat="41.9398456654497" lon="12.485412836418304"><ele>19.0</ele><time>2026-05-03T16:11:59Z</time></trkpt><trkpt lat="41.93987484708284" lon="12.485196326402756"><ele>19.333333333333332</ele><time>2026-05-03T16:12:00Z</time></trkpt><trkpt lat="41.93989965436391" lon="12.484980055669821"><ele>19.666666666666668</ele><time>2026-05-03T16:12:01Z</time></trkpt><trkpt lat="41.939924362727524" lon="12.484765121399592"><ele>20.0</ele><time>2026-05-03T16:12:02Z</time></trkpt><trkpt lat="41.939949817303834" lon="12.484554876195972"><ele>20.333333333333336</ele><time>2026-05-03T16:12:03Z</time></trkpt><trkpt lat="41.93997908754993" lon="12.484340497688427"><ele>20.666666666666668</ele><time>2026-05-03T16:12:04Z</time></trkpt><trkpt lat="41.9400054065031" lon="12.4841278430556"><ele>21.0</ele><time>2026-05-03T16:12:05Z</time></trkpt><trkpt lat="41.940029613795204" lon="12.483915128404947"><ele>20.666666666666668</ele><time>2026-05-03T16:12:06Z</time></trkpt><trkpt lat="41.940053642938395" lon="12.48370253058234"><ele>20.333333333333336</ele><time>2026-05-03T16:12:07Z</time></trkpt><trkpt lat="41.94007976418489" lon="12.483490164188325"><ele>20.0</ele><time>2026-05-03T16:12:08Z</time></trkpt><trkpt lat="41.94009462652745" lon="12.483277789523758"><ele>20.0</ele><time>2026-05-03T16:12:09Z</time></trkpt><trkpt lat="41.94011572806032" lon="12.483062815472785"><ele>20.0</ele><time>2026-05-03T16:12:10Z</time></trkpt><trkpt lat="41.94013865586612" lon="12.482854313445316"><ele>20.0</ele><time>2026-05-03T16:12:11Z</time></trkpt><trkpt lat="41.940165001438636" lon="12.482649040202634"><ele>19.666666666666668</ele><time>2026-05-03T16:12:12Z</time></trkpt><trkpt lat="41.940184282321376" lon="12.482433446043988"><ele>19.333333333333332</ele><time>2026-05-03T16:12:13Z</time></trkpt><trkpt lat="41.940209052616524" lon="12.482222372774713"><ele>19.0</ele><time>2026-05-03T16:12:14Z</time></trkpt><trkpt lat="41.94023836002144" lon="12.482012578335752"><ele>19.0</ele><time>2026-05-03T16:12:15Z</time></trkpt><trkpt lat="41.94026696940646" lon="12.481800828344436"><ele>19.0</ele><time>2026-05-03T16:12:16Z</time></trkpt><trkpt lat="41.94029473764292" lon="12.481589134199188"><ele>19.0</ele><time>2026-05-03T16:12:17Z</time></trkpt><trkpt lat="41.94032166601564" lon="12.48137824527613"><ele>18.0</ele><time>2026-05-03T16:12:18Z</time></trkpt><trkpt lat="41.94034739032212" lon="12.481168840501395"><ele>17.0</ele><time>2026-05-03T16:12:19Z</time></trkpt><trkpt lat="41.94037434620136" lon="12.480958577603735"><ele>16.0</ele><time>2026-05-03T16:12:20Z</time></trkpt><trkpt lat="41.94040051183759" lon="12.480746988623986"><ele>16.0</ele><time>2026-05-03T16:12:21Z</time></trkpt><trkpt lat="41.94042412016265" lon="12.480534661809404"><ele>16.0</ele><time>2026-05-03T16:12:21.999Z</time></trkpt><trkpt lat="41.94044913330298" lon="12.480322306441526"><ele>16.0</ele><time>2026-05-03T16:12:22.999Z</time></trkpt><trkpt lat="41.940473075597474" lon="12.480110670837247"><ele>16.333333333333332</ele><time>2026-05-03T16:12:23.999Z</time></trkpt><trkpt lat="41.940495454635865" lon="12.479897966737726"><ele>16.666666666666668</ele><time>2026-05-03T16:12:24.999Z</time></trkpt><trkpt lat="41.940521506679474" lon="12.47968780730726"><ele>17.0</ele><time>2026-05-03T16:12:25.999Z</time></trkpt><trkpt lat="41.94054784366314" lon="12.479476007213067"><ele>17.333333333333336</ele><time>2026-05-03T16:12:26.999Z</time></trkpt><trkpt lat="41.940570063385536" lon="12.479262070421864"><ele>17.666666666666668</ele><time>2026-05-03T16:12:27.999Z</time></trkpt><trkpt lat="41.94059099853371" lon="12.479048454148066"><ele>18.0</ele><time>2026-05-03T16:12:28.999Z</time></trkpt><trkpt lat="41.94061024858347" lon="12.47883493636268"><ele>17.666666666666668</ele><time>2026-05-03T16:12:29.999Z</time></trkpt><trkpt lat="41.940628646705186" lon="12.478622705727064"><ele>17.333333333333336</ele><time>2026-05-03T16:12:30.999Z</time></trkpt><trkpt lat="41.94064456161094" lon="12.47840840078538"><ele>17.0</ele><time>2026-05-03T16:12:31.999Z</time></trkpt><trkpt lat="41.94065843381787" lon="12.478192399601017"><ele>17.0</ele><time>2026-05-03T16:12:32.999Z</time></trkpt><trkpt lat="41.94067153986856" lon="12.477978307808463"><ele>17.0</ele><time>2026-05-03T16:12:33.999Z</time></trkpt><trkpt lat="41.9406842790212" lon="12.477766627532164"><ele>17.0</ele><time>2026-05-03T16:12:34.999Z</time></trkpt><trkpt lat="41.94069956562106" lon="12.477555418906476"><ele>18.333333333333336</ele><time>2026-05-03T16:12:35.999Z</time></trkpt><trkpt lat="41.9407126760087" lon="12.477342669555645"><ele>19.666666666666668</ele><time>2026-05-03T16:12:36.999Z</time></trkpt><trkpt lat="41.940722802056136" lon="12.47713055441044"><ele>21.0</ele><time>2026-05-03T16:12:37.999Z</time></trkpt><trkpt lat="41.940729413042725" lon="12.476916866605976"><ele>27.333333333333336</ele><time>2026-05-03T16:12:38.999Z</time></trkpt><trkpt lat="41.940735613884456" lon="12.47670307299809"><ele>33.66666666666667</ele><time>2026-05-03T16:12:39.999Z</time></trkpt><trkpt lat="41.9407378182195" lon="12.47648747281518"><ele>40.0</ele><time>2026-05-03T16:12:40.999Z</time></trkpt><trkpt lat="41.940740794845794" lon="12.476266789031047"><ele>43.66666666666667</ele><time>2026-05-03T16:12:41.999Z</time></trkpt><trkpt lat="41.940745354899896" lon="12.476046974651432"><ele>47.333333333333336</ele><time>2026-05-03T16:12:42.999Z</time></trkpt><trkpt lat="41.94074708617912" lon="12.475822951980962"><ele>51.0</ele><time>2026-05-03T16:12:44.016Z</time></trkpt><trkpt lat="41.94074548265023" lon="12.475602825550098"><ele>52.66666666666667</ele><time>2026-05-03T16:12:45.015Z</time></trkpt><trkpt lat="41.940741930131736" lon="12.475382442956791"><ele>54.333333333333336</ele><time>2026-05-03T16:12:46.015Z</time></trkpt><trkpt lat="41.94073481564651" lon="12.475161401855772"><ele>56.0</ele><time>2026-05-03T16:12:47.018Z</time></trkpt><trkpt lat="41.94072266943618" lon="12.474940847918596"><ele>56.0</ele><time>2026-05-03T16:12:48.017Z</time></trkpt><trkpt lat="41.94072717771984" lon="12.474722472467153"><ele>56.0</ele><time>2026-05-03T16:12:49.017Z</time></trkpt><trkpt lat="41.9408209668863" lon="12.47304129415422"><ele>49.333333333333336</ele><time>2026-05-03T16:12:56.999Z</time></trkpt><trkpt lat="41.94081505491449" lon="12.47282631479496"><ele>42.66666666666667</ele><time>2026-05-03T16:12:57.999Z</time></trkpt><trkpt lat="41.940786082225095" lon="12.472610432451749"><ele>36.0</ele><time>2026-05-03T16:12:58.999Z</time></trkpt><trkpt lat="41.94081746900548" lon="12.472381629342445"><ele>36.0</ele><time>2026-05-03T16:12:59.999Z</time></trkpt><trkpt lat="41.94081059018353" lon="12.472175897423345"><ele>36.0</ele><time>2026-05-03T16:13:00.999Z</time></trkpt><trkpt lat="41.9408211404715" lon="12.47195175384725"><ele>36.0</ele><time>2026-05-03T16:13:01.999Z</time></trkpt><trkpt lat="41.94085665412959" lon="12.471746589824514"><ele>34.666666666666664</ele><time>2026-05-03T16:13:02.999Z</time></trkpt><trkpt lat="41.94085201280419" lon="12.471532103793418"><ele>33.33333333333333</ele><time>2026-05-03T16:13:03.999Z</time></trkpt><trkpt lat="41.94085861192719" lon="12.471324758286519"><ele>32.0</ele><time>2026-05-03T16:13:04.999Z</time></trkpt><trkpt lat="41.94086277812989" lon="12.471111346809865"><ele>31.666666666666664</ele><time>2026-05-03T16:13:05.999Z</time></trkpt><trkpt lat="41.940871111076014" lon="12.470897528607807"><ele>31.333333333333336</ele><time>2026-05-03T16:13:06.999Z</time></trkpt><trkpt lat="41.94088004791429" lon="12.470682986840524"><ele>31.0</ele><time>2026-05-03T16:13:07.999Z</time></trkpt><trkpt lat="41.94088658701631" lon="12.470468294105759"><ele>30.666666666666668</ele><time>2026-05-03T16:13:08.999Z</time></trkpt><trkpt lat="41.940892799703974" lon="12.470249804458991"><ele>30.333333333333336</ele><time>2026-05-03T16:13:09.999Z</time></trkpt><trkpt lat="41.94090100782599" lon="12.470034175069253"><ele>30.0</ele><time>2026-05-03T16:13:10.999Z</time></trkpt><trkpt lat="41.94090881328794" lon="12.46981563529177"><ele>32.666666666666664</ele><time>2026-05-03T16:13:11.999Z</time></trkpt><trkpt lat="41.94091696078788" lon="12.469597351741887"><ele>35.33333333333333</ele><time>2026-05-03T16:13:12.999Z</time></trkpt><trkpt lat="41.940926798389135" lon="12.469381719105227"><ele>38.0</ele><time>2026-05-03T16:13:13.999Z</time></trkpt><trkpt lat="41.94093864283808" lon="12.46916541341448"><ele>38.0</ele><time>2026-05-03T16:13:14.999Z</time></trkpt><trkpt lat="41.940949271581864" lon="12.468951623759425"><ele>38.0</ele><time>2026-05-03T16:13:15.999Z</time></trkpt><trkpt lat="41.940957809372954" lon="12.468737405219263"><ele>38.0</ele><time>2026-05-03T16:13:16.999Z</time></trkpt><trkpt lat="41.94096856827898" lon="12.468522977731274"><ele>43.666666666666664</ele><time>2026-05-03T16:13:17.999Z</time></trkpt><trkpt lat="41.94097999349498" lon="12.468309565424518"><ele>49.33333333333333</ele><time>2026-05-03T16:13:18.999Z</time></trkpt><trkpt lat="41.9409897003184" lon="12.468091441685377"><ele>55.0</ele><time>2026-05-03T16:13:19.999Z</time></trkpt><trkpt lat="41.94099498286735" lon="12.467877391089937"><ele>55.33333333333333</ele><time>2026-05-03T16:13:20.999Z</time></trkpt><trkpt lat="41.941004645125986" lon="12.46766389758878"><ele>55.66666666666667</ele><time>2026-05-03T16:13:21.999Z</time></trkpt><trkpt lat="41.94101361336192" lon="12.467447251240795"><ele>56.0</ele><time>2026-05-03T16:13:22.999Z</time></trkpt><trkpt lat="41.94102166488409" lon="12.467231171881409"><ele>54.66666666666667</ele><time>2026-05-03T16:13:23.999Z</time></trkpt><trkpt lat="41.94103007927224" lon="12.467016771505328"><ele>53.33333333333333</ele><time>2026-05-03T16:13:24.999Z</time></trkpt><trkpt lat="41.941028197770265" lon="12.46679143304699"><ele>52.0</ele><time>2026-05-03T16:13:25.999Z</time></trkpt><trkpt lat="41.94101452697365" lon="12.466575180958207"><ele>52.0</ele><time>2026-05-03T16:13:26.999Z</time></trkpt><trkpt lat="41.94101582465446" lon="12.466358223860105"><ele>52.0</ele><time>2026-05-03T16:13:28Z</time></trkpt><trkpt lat="41.94099990936589" lon="12.466150014118607"><ele>52.0</ele><time>2026-05-03T16:13:29Z</time></trkpt><trkpt lat="41.94098063439905" lon="12.465924384465342"><ele>51.666666666666664</ele><time>2026-05-03T16:13:30Z</time></trkpt><trkpt lat="41.94095444206285" lon="12.465700710717712"><ele>51.33333333333333</ele><time>2026-05-03T16:13:31Z</time></trkpt><trkpt lat="41.94092076547111" lon="12.465485461332625"><ele>51.0</ele><time>2026-05-03T16:13:32Z</time></trkpt><trkpt lat="41.94088019952306" lon="12.465272917363583"><ele>49.0</ele><time>2026-05-03T16:13:33Z</time></trkpt><trkpt lat="41.94085640763353" lon="12.465069062896974"><ele>47.0</ele><time>2026-05-03T16:13:34Z</time></trkpt><trkpt lat="41.94081663376714" lon="12.464845582760981"><ele>45.0</ele><time>2026-05-03T16:13:35Z</time></trkpt><trkpt lat="41.94077133250924" lon="12.464638466695822"><ele>45.0</ele><time>2026-05-03T16:13:36Z</time></trkpt><trkpt lat="41.94070733304566" lon="12.464433565591355"><ele>45.0</ele><time>2026-05-03T16:13:37Z</time></trkpt><trkpt lat="41.940655200323775" lon="12.464217432174882"><ele>45.0</ele><time>2026-05-03T16:13:38Z</time></trkpt><trkpt lat="41.94059441467505" lon="12.464004245030829"><ele>45.0</ele><time>2026-05-03T16:13:39Z</time></trkpt><trkpt lat="41.940539859729384" lon="12.463805385063603"><ele>45.0</ele><time>2026-05-03T16:13:40Z</time></trkpt><trkpt lat="41.94049767166416" lon="12.463613522922582"><ele>45.0</ele><time>2026-05-03T16:13:41Z</time></trkpt><trkpt lat="41.940435288485716" lon="12.463428464382817"><ele>43.333333333333336</ele><time>2026-05-03T16:13:42Z</time></trkpt><trkpt lat="41.94038068317176" lon="12.463238654785822"><ele>41.66666666666667</ele><time>2026-05-03T16:13:43Z</time></trkpt><trkpt lat="41.940331315612084" lon="12.463037944372152"><ele>40.0</ele><time>2026-05-03T16:13:44Z</time></trkpt><trkpt lat="41.94028697582244" lon="12.462786866762475"><ele>39.0</ele><time>2026-05-03T16:13:45Z</time></trkpt><trkpt lat="41.94024529133612" lon="12.462605955252213"><ele>38.0</ele><time>2026-05-03T16:13:46Z</time></trkpt><trkpt lat="41.94019521014153" lon="12.46241132906369"><ele>37.0</ele><time>2026-05-03T16:13:47Z</time></trkpt><trkpt lat="41.94014567838758" lon="12.462215164856032"><ele>36.0</ele><time>2026-05-03T16:13:48Z</time></trkpt><trkpt lat="41.94009519013725" lon="12.462014643604565"><ele>38.0</ele><time>2026-05-03T16:13:49Z</time></trkpt><trkpt lat="41.940039763443416" lon="12.461815780868289"><ele>40.0</ele><time>2026-05-03T16:13:50Z</time></trkpt><trkpt lat="41.93998165963515" lon="12.461614792615263"><ele>42.0</ele><time>2026-05-03T16:13:51Z</time></trkpt><trkpt lat="41.9399147376111" lon="12.461418164154574"><ele>44.0</ele><time>2026-05-03T16:13:52Z</time></trkpt><trkpt lat="41.93985447767189" lon="12.46122079467868"><ele>46.0</ele><time>2026-05-03T16:13:53Z</time></trkpt><trkpt lat="41.93978818433003" lon="12.461030164729396"><ele>48.0</ele><time>2026-05-03T16:13:54Z</time></trkpt><trkpt lat="41.93972468453307" lon="12.460834890139106"><ele>48.0</ele><time>2026-05-03T16:13:55Z</time></trkpt><trkpt lat="41.93966071909275" lon="12.460640604021831"><ele>48.0</ele><time>2026-05-03T16:13:56Z</time></trkpt><trkpt lat="41.93959910485863" lon="12.460443935734054"><ele>48.0</ele><time>2026-05-03T16:13:57Z</time></trkpt><trkpt lat="41.939536486668075" lon="12.46024486055418"><ele>47.0</ele><time>2026-05-03T16:13:58Z</time></trkpt><trkpt lat="41.939481074609965" lon="12.460044461983284"><ele>46.0</ele><time>2026-05-03T16:13:59Z</time></trkpt><trkpt lat="41.939441298055044" lon="12.459834519247087"><ele>45.0</ele><time>2026-05-03T16:14:00Z</time></trkpt><trkpt lat="41.9394093074724" lon="12.45962716494068"><ele>46.66666666666667</ele><time>2026-05-03T16:14:01Z</time></trkpt><trkpt lat="41.93938302721976" lon="12.459419555410665"><ele>48.333333333333336</ele><time>2026-05-03T16:14:02Z</time></trkpt><trkpt lat="41.93936015841793" lon="12.45921317539134"><ele>50.0</ele><time>2026-05-03T16:14:03Z</time></trkpt><trkpt lat="41.939340747783326" lon="12.459003843707208"><ele>50.0</ele><time>2026-05-03T16:14:04Z</time></trkpt><trkpt lat="41.93931933344281" lon="12.45879914979992"><ele>50.0</ele><time>2026-05-03T16:14:05Z</time></trkpt><trkpt lat="41.9392953255042" lon="12.45858967341966"><ele>50.0</ele><time>2026-05-03T16:14:06Z</time></trkpt><trkpt lat="41.939270556528484" lon="12.458380138707557"><ele>49.66666666666667</ele><time>2026-05-03T16:14:07Z</time></trkpt><trkpt lat="41.93925295099837" lon="12.458169963033551"><ele>49.33333333333333</ele><time>2026-05-03T16:14:08Z</time></trkpt><trkpt lat="41.93923827943631" lon="12.457958906992223"><ele>49.0</ele><time>2026-05-03T16:14:09Z</time></trkpt><trkpt lat="41.9392311279607" lon="12.457752933357517"><ele>54.666666666666664</ele><time>2026-05-03T16:14:10Z</time></trkpt><trkpt lat="41.93922782649244" lon="12.45754879648668"><ele>60.33333333333333</ele><time>2026-05-03T16:14:11Z</time></trkpt><trkpt lat="41.93922894396599" lon="12.457343499720505"><ele>66.0</ele><time>2026-05-03T16:14:12.018Z</time></trkpt><trkpt lat="41.93923087276001" lon="12.45714233941078"><ele>71.66666666666667</ele><time>2026-05-03T16:14:13.02Z</time></trkpt><trkpt lat="41.939233810665186" lon="12.456939628783706"><ele>77.33333333333334</ele><time>2026-05-03T16:14:14.018Z</time></trkpt><trkpt lat="41.939237131089214" lon="12.456738217528697"><ele>83.0</ele><time>2026-05-03T16:14:15.02Z</time></trkpt><trkpt lat="41.93958576481395" lon="12.454082245873238"><ele>107.0</ele><time>2026-05-03T16:14:19.013Z</time></trkpt><trkpt lat="41.93982685685177" lon="12.453307982969289"><ele>107.0</ele><time>2026-05-03T16:14:20.008Z</time></trkpt><trkpt lat="41.940118856458284" lon="12.452556188673569"><ele>89.0</ele><time>2026-05-03T16:14:21.012Z</time></trkpt><trkpt lat="41.940431620439185" lon="12.451827146549476"><ele>85.0</ele><time>2026-05-03T16:14:22.008Z</time></trkpt><trkpt lat="41.940748922587495" lon="12.451093407726898"><ele>100.0</ele><time>2026-05-03T16:14:23.012Z</time></trkpt><trkpt lat="41.9410179468414" lon="12.45033219364097"><ele>116.0</ele><time>2026-05-03T16:14:24.011Z</time></trkpt><trkpt lat="41.94121736041568" lon="12.449530649579037"><ele>116.0</ele><time>2026-05-03T16:14:25.012Z</time></trkpt><trkpt lat="41.94133133913802" lon="12.448701216519432"><ele>112.0</ele><time>2026-05-03T16:14:26.012Z</time></trkpt><trkpt lat="41.94137914588535" lon="12.447863867919258"><ele>112.0</ele><time>2026-05-03T16:14:27.007Z</time></trkpt><trkpt lat="41.94139407221338" lon="12.447019030444617"><ele>109.0</ele><time>2026-05-03T16:14:28.009Z</time></trkpt><trkpt lat="41.94139640454864" lon="12.446171902308613"><ele>105.0</ele><time>2026-05-03T16:14:29.012Z</time></trkpt><trkpt lat="41.94139894659252" lon="12.445330657774182"><ele>101.0</ele><time>2026-05-03T16:14:30.009Z</time></trkpt><trkpt lat="41.9413998" lon="12.444483584977329"><ele>91.0</ele><time>2026-05-03T16:14:31.012Z</time></trkpt><trkpt lat="41.94138633304873" lon="12.443641583291711"><ele>127.0</ele><time>2026-05-03T16:14:32.01Z</time></trkpt><trkpt lat="41.93701860033156" lon="12.431800235074416"><ele>127.0</ele><time>2026-05-03T16:16:29.999Z</time></trkpt><trkpt lat="41.93697952095916" lon="12.431669357041866"><ele>127.0</ele><time>2026-05-03T16:16:30.999Z</time></trkpt><trkpt lat="41.936696474098866" lon="12.431518333841026"><ele>127.0</ele><time>2026-05-03T16:16:31.999Z</time></trkpt><trkpt lat="41.93669600081025" lon="12.431390736282788"><ele>126.8</ele><time>2026-05-03T16:16:32.999Z</time></trkpt><trkpt lat="41.936696453588205" lon="12.43124110599077"><ele>126.6</ele><time>2026-05-03T16:16:33.999Z</time></trkpt><trkpt lat="41.93671037074591" lon="12.431097219856204"><ele>126.39999999999999</ele><time>2026-05-03T16:16:34.999Z</time></trkpt><trkpt lat="41.936731261441736" lon="12.430955360690795"><ele>126.19999999999999</ele><time>2026-05-03T16:16:36.001Z</time></trkpt><trkpt lat="41.936761983004196" lon="12.430817536222806"><ele>126.0</ele><time>2026-05-03T16:16:37.001Z</time></trkpt><trkpt lat="41.93678931759546" lon="12.430689726755055"><ele>126.0</ele><time>2026-05-03T16:16:38.001Z</time></trkpt><trkpt lat="41.936820007839" lon="12.430574686443668"><ele>126.0</ele><time>2026-05-03T16:16:39.001Z</time></trkpt><trkpt lat="41.936847131105175" lon="12.430454939923127"><ele>126.0</ele><time>2026-05-03T16:16:40.001Z</time></trkpt><trkpt lat="41.93687910682657" lon="12.430342362232132"><ele>126.0</ele><time>2026-05-03T16:16:41.001Z</time></trkpt><trkpt lat="41.93690968446319" lon="12.430216149590946"><ele>126.0</ele><time>2026-05-03T16:16:42.001Z</time></trkpt><trkpt lat="41.93694074284999" lon="12.430086099922246"><ele>126.0</ele><time>2026-05-03T16:16:43.001Z</time></trkpt><trkpt lat="41.93696746947191" lon="12.429941893557482"><ele>126.0</ele><time>2026-05-03T16:16:44.001Z</time></trkpt><trkpt lat="41.93699797210724" lon="12.429792701857897"><ele>126.0</ele><time>2026-05-03T16:16:45.001Z</time></trkpt><trkpt lat="41.937016637580015" lon="12.429638291705341"><ele>126.0</ele><time>2026-05-03T16:16:46.001Z</time></trkpt><trkpt lat="41.937041440852234" lon="12.429484349726321"><ele>126.0</ele><time>2026-05-03T16:16:47.001Z</time></trkpt><trkpt lat="41.93706368008156" lon="12.429332818465095"><ele>126.0</ele><time>2026-05-03T16:16:48.001Z</time></trkpt><trkpt lat="41.937093174479834" lon="12.429193765561344"><ele>126.0</ele><time>2026-05-03T16:16:49.001Z</time></trkpt><trkpt lat="41.937123383601445" lon="12.429061414552772"><ele>126.0</ele><time>2026-05-03T16:16:50Z</time></trkpt><trkpt lat="41.93714351216806" lon="12.428922987653127"><ele>126.0</ele><time>2026-05-03T16:16:51Z</time></trkpt><trkpt lat="41.93715976925683" lon="12.428782065262792"><ele>125.8</ele><time>2026-05-03T16:16:52Z</time></trkpt><trkpt lat="41.93718179041353" lon="12.428643454223218"><ele>125.6</ele><time>2026-05-03T16:16:53Z</time></trkpt><trkpt lat="41.93720882179803" lon="12.428507543083292"><ele>125.4</ele><time>2026-05-03T16:16:54Z</time></trkpt><trkpt lat="41.93725489330301" lon="12.428377426855828"><ele>125.2</ele><time>2026-05-03T16:16:55Z</time></trkpt><trkpt lat="41.93729019747192" lon="12.42824265843803"><ele>125.0</ele><time>2026-05-03T16:16:56Z</time></trkpt><trkpt lat="41.937318839791885" lon="12.428116523734577"><ele>125.0</ele><time>2026-05-03T16:16:57Z</time></trkpt><trkpt lat="41.93734414500107" lon="12.427998992176544"><ele>125.0</ele><time>2026-05-03T16:16:58Z</time></trkpt><trkpt lat="41.937365363744895" lon="12.427895706011906"><ele>125.0</ele><time>2026-05-03T16:16:59Z</time></trkpt><trkpt lat="41.93738368482983" lon="12.42780652492851"><ele>125.0</ele><time>2026-05-03T16:17:00Z</time></trkpt><trkpt lat="41.9374009914873" lon="12.427722278084996"><ele>125.0</ele><time>2026-05-03T16:17:01Z</time></trkpt><trkpt lat="41.937419790822716" lon="12.42762917589167"><ele>125.0</ele><time>2026-05-03T16:17:02Z</time></trkpt><trkpt lat="41.937439020039626" lon="12.427534915020733"><ele>125.0</ele><time>2026-05-03T16:17:03Z</time></trkpt><trkpt lat="41.9374589429021" lon="12.427439230813613"><ele>124.99999999999999</ele><time>2026-05-03T16:17:04Z</time></trkpt><trkpt lat="41.93748067989804" lon="12.427334833808558"><ele>125.0</ele><time>2026-05-03T16:17:05Z</time></trkpt><trkpt lat="41.93750634317797" lon="12.427224442161476"><ele>125.0</ele><time>2026-05-03T16:17:06Z</time></trkpt><trkpt lat="41.937537673975996" lon="12.427113209629125"><ele>125.0</ele><time>2026-05-03T16:17:07Z</time></trkpt><trkpt lat="41.937563269393486" lon="12.42699739160789"><ele>124.99999999999999</ele><time>2026-05-03T16:17:08Z</time></trkpt><trkpt lat="41.937592202912185" lon="12.426881205947996"><ele>125.0</ele><time>2026-05-03T16:17:09Z</time></trkpt><trkpt lat="41.937632953846276" lon="12.426768482505144"><ele>125.16666666666666</ele><time>2026-05-03T16:17:10Z</time></trkpt><trkpt lat="41.93766662302755" lon="12.426669705770536"><ele>125.33333333333333</ele><time>2026-05-03T16:17:11Z</time></trkpt><trkpt lat="41.93768114833123" lon="12.426537357460083"><ele>125.5</ele><time>2026-05-03T16:17:12Z</time></trkpt><trkpt lat="41.93771059159486" lon="12.426428286988745"><ele>125.66666666666666</ele><time>2026-05-03T16:17:13Z</time></trkpt><trkpt lat="41.9377405100732" lon="12.426323234171816"><ele>125.83333333333333</ele><time>2026-05-03T16:17:14Z</time></trkpt><trkpt lat="41.937781222258046" lon="12.426212561468263"><ele>126.0</ele><time>2026-05-03T16:17:15Z</time></trkpt><trkpt lat="41.937833670868486" lon="12.426110967318921"><ele>126.4</ele><time>2026-05-03T16:17:16Z</time></trkpt><trkpt lat="41.937883325212184" lon="12.426007091554258"><ele>126.8</ele><time>2026-05-03T16:17:17Z</time></trkpt><trkpt lat="41.93794029340844" lon="12.42591218512416"><ele>127.20000000000002</ele><time>2026-05-03T16:17:18Z</time></trkpt><trkpt lat="41.93800688402161" lon="12.425828809953455"><ele>127.60000000000001</ele><time>2026-05-03T16:17:19Z</time></trkpt><trkpt lat="41.938054273495595" lon="12.425728686056498"><ele>128.0</ele><time>2026-05-03T16:17:20Z</time></trkpt><trkpt lat="41.93812594792598" lon="12.425645554700706"><ele>128.0</ele><time>2026-05-03T16:17:21Z</time></trkpt><trkpt lat="41.9381982221843" lon="12.425560777930166"><ele>128.0</ele><time>2026-05-03T16:17:22Z</time></trkpt><trkpt lat="41.93827663856595" lon="12.42547708560427"><ele>128.0</ele><time>2026-05-03T16:17:23Z</time></trkpt><trkpt lat="41.93835591949942" lon="12.425400765316882"><ele>128.0</ele><time>2026-05-03T16:17:24Z</time></trkpt><trkpt lat="41.93843324490867" lon="12.425314287500656"><ele>128.0</ele><time>2026-05-03T16:17:25Z</time></trkpt><trkpt lat="41.93851458535261" lon="12.425228022651885"><ele>127.60000000000001</ele><time>2026-05-03T16:17:26Z</time></trkpt><trkpt lat="41.93859714241931" lon="12.42514963558145"><ele>127.20000000000002</ele><time>2026-05-03T16:17:27Z</time></trkpt><trkpt lat="41.93867743932839" lon="12.425067499792355"><ele>126.8</ele><time>2026-05-03T16:17:28Z</time></trkpt><trkpt lat="41.93875181073808" lon="12.42498378255497"><ele>126.4</ele><time>2026-05-03T16:17:29Z</time></trkpt><trkpt lat="41.938834369708424" lon="12.424902288427454"><ele>126.0</ele><time>2026-05-03T16:17:30Z</time></trkpt><trkpt lat="41.93891888556186" lon="12.424823275838126"><ele>126.0</ele><time>2026-05-03T16:17:31Z</time></trkpt><trkpt lat="41.93899949082548" lon="12.42473816560032"><ele>126.0</ele><time>2026-05-03T16:17:32Z</time></trkpt><trkpt lat="41.93908024118313" lon="12.424654121038708"><ele>126.0</ele><time>2026-05-03T16:17:33Z</time></trkpt><trkpt lat="41.93915832816867" lon="12.424578779655606"><ele>126.0</ele><time>2026-05-03T16:17:34Z</time></trkpt><trkpt lat="41.939236668203" lon="12.424507226301403"><ele>126.0</ele><time>2026-05-03T16:17:35Z</time></trkpt><trkpt lat="41.93931315617298" lon="12.424438764721943"><ele>126.0</ele><time>2026-05-03T16:17:36Z</time></trkpt><trkpt lat="41.93938325122067" lon="12.424366419376327"><ele>126.0</ele><time>2026-05-03T16:17:37Z</time></trkpt><trkpt lat="41.9394497369931" lon="12.424305759157361"><ele>126.0</ele><time>2026-05-03T16:17:38Z</time></trkpt><trkpt lat="41.93951304721357" lon="12.424242494647448"><ele>126.0</ele><time>2026-05-03T16:17:39Z</time></trkpt><trkpt lat="41.93957692525359" lon="12.42417765226655"><ele>126.0</ele><time>2026-05-03T16:17:40Z</time></trkpt><trkpt lat="41.93966475375407" lon="12.424155329983947"><ele>126.0</ele><time>2026-05-03T16:17:41Z</time></trkpt><trkpt lat="41.93970712069564" lon="12.424087140480653"><ele>126.0</ele><time>2026-05-03T16:17:42Z</time></trkpt><trkpt lat="41.939805994466404" lon="12.424016591081632"><ele>126.0</ele><time>2026-05-03T16:17:44Z</time></trkpt><trkpt lat="41.93988317709398" lon="12.423924962362571"><ele>126.0</ele><time>2026-05-03T16:17:46Z</time></trkpt><trkpt lat="41.93995418788813" lon="12.42384150348194"><ele>126.0</ele><time>2026-05-03T16:17:48Z</time></trkpt><trkpt lat="41.93999762851789" lon="12.423755360794283"><ele>126.0</ele><time>2026-05-03T16:17:50Z</time></trkpt><trkpt lat="41.93999115658389" lon="12.423661759308942"><ele>125.66666666666667</ele><time>2026-05-03T16:17:52Z</time></trkpt><trkpt lat="41.9399425866424" lon="12.423584478197812"><ele>125.33333333333334</ele><time>2026-05-03T16:17:54Z</time></trkpt><trkpt lat="41.93979770067744" lon="12.423591283239018"><ele>125.0</ele><time>2026-05-03T16:17:56Z</time></trkpt><trkpt lat="41.9397352607696" lon="12.4236251496657"><ele>124.66666666666667</ele><time>2026-05-03T16:17:57Z</time></trkpt><trkpt lat="41.939662525812565" lon="12.423671727126417"><ele>124.33333333333334</ele><time>2026-05-03T16:17:58Z</time></trkpt><trkpt lat="41.939601536233305" lon="12.42371186735485"><ele>124.0</ele><time>2026-05-03T16:17:59Z</time></trkpt><trkpt lat="41.93953684728618" lon="12.423763286061371"><ele>124.33333333333334</ele><time>2026-05-03T16:17:59.999Z</time></trkpt><trkpt lat="41.939464599042644" lon="12.423815168114459"><ele>124.66666666666667</ele><time>2026-05-03T16:18:00.999Z</time></trkpt><trkpt lat="41.93938906848602" lon="12.423858271040048"><ele>125.0</ele><time>2026-05-03T16:18:01.999Z</time></trkpt><trkpt lat="41.93931324735039" lon="12.423901074804037"><ele>125.33333333333334</ele><time>2026-05-03T16:18:02.999Z</time></trkpt><trkpt lat="41.93923693379832" lon="12.42394190270429"><ele>125.66666666666667</ele><time>2026-05-03T16:18:03.999Z</time></trkpt><trkpt lat="41.93915968051038" lon="12.423977598593922"><ele>126.0</ele><time>2026-05-03T16:18:04.999Z</time></trkpt><trkpt lat="41.939084063038344" lon="12.424016148943387"><ele>126.16666666666667</ele><time>2026-05-03T16:18:05.999Z</time></trkpt><trkpt lat="41.93900404313764" lon="12.424054945923897"><ele>126.33333333333334</ele><time>2026-05-03T16:18:06.999Z</time></trkpt><trkpt lat="41.93893078797463" lon="12.424097535284572"><ele>126.5</ele><time>2026-05-03T16:18:07.999Z</time></trkpt><trkpt lat="41.93885390508046" lon="12.42413944410609"><ele>126.66666666666667</ele><time>2026-05-03T16:18:08.999Z</time></trkpt><trkpt lat="41.938774798192014" lon="12.424178240418467"><ele>126.83333333333334</ele><time>2026-05-03T16:18:09.999Z</time></trkpt><trkpt lat="41.93869817719183" lon="12.4242198078877"><ele>127.0</ele><time>2026-05-03T16:18:10.999Z</time></trkpt><trkpt lat="41.938622472722955" lon="12.424260049737569"><ele>127.00000000000001</ele><time>2026-05-03T16:18:11.999Z</time></trkpt><trkpt lat="41.938541511750685" lon="12.424295971842898"><ele>127.0</ele><time>2026-05-03T16:18:12.999Z</time></trkpt><trkpt lat="41.938472733340966" lon="12.424338293655211"><ele>127.0</ele><time>2026-05-03T16:18:13.999Z</time></trkpt><trkpt lat="41.93838945412466" lon="12.424367170828923"><ele>127.0</ele><time>2026-05-03T16:18:14.999Z</time></trkpt><trkpt lat="41.938312167761964" lon="12.424405812807532"><ele>127.00000000000001</ele><time>2026-05-03T16:18:15.999Z</time></trkpt><trkpt lat="41.93823302710715" lon="12.424445795618741"><ele>127.0</ele><time>2026-05-03T16:18:16.999Z</time></trkpt><trkpt lat="41.9381532057323" lon="12.424488520582686"><ele>127.00000000000001</ele><time>2026-05-03T16:18:17.999Z</time></trkpt><trkpt lat="41.93806933928225" lon="12.424532665178734"><ele>127.0</ele><time>2026-05-03T16:18:18.999Z</time></trkpt><trkpt lat="41.93798736552683" lon="12.424571913436091"><ele>127.0</ele><time>2026-05-03T16:18:19.999Z</time></trkpt><trkpt lat="41.93790593430977" lon="12.424608691618511"><ele>127.0</ele><time>2026-05-03T16:18:20.999Z</time></trkpt><trkpt lat="41.93782951970975" lon="12.424644742415415"><ele>127.00000000000001</ele><time>2026-05-03T16:18:21.999Z</time></trkpt><trkpt lat="41.93776362322643" lon="12.424673395279843"><ele>127.0</ele><time>2026-05-03T16:18:22.999Z</time></trkpt><trkpt lat="41.937701508132086" lon="12.424699686121647"><ele>127.0</ele><time>2026-05-03T16:18:23.999Z</time></trkpt><trkpt lat="41.937595826213695" lon="12.424750440720858"><ele>127.0</ele><time>2026-05-03T16:18:25.999Z</time></trkpt><trkpt lat="41.93751136086243" lon="12.424791740822158"><ele>127.0</ele><time>2026-05-03T16:18:27.999Z</time></trkpt><trkpt lat="41.93742923208917" lon="12.424642785103984"><ele>127.0</ele><time>2026-05-03T16:18:28.999Z</time></trkpt><trkpt lat="41.937346668317645" lon="12.424522749045067"><ele>126.42857142857143</ele><time>2026-05-03T16:18:30.999Z</time></trkpt><trkpt lat="41.93730895691992" lon="12.424445804336909"><ele>125.85714285714286</ele><time>2026-05-03T16:18:31.999Z</time></trkpt><trkpt lat="41.937273248590884" lon="12.424369286192636"><ele>125.28571428571429</ele><time>2026-05-03T16:18:32.999Z</time></trkpt><trkpt lat="41.93723551740724" lon="12.424295066326138"><ele>124.71428571428572</ele><time>2026-05-03T16:18:33.999Z</time></trkpt><trkpt lat="41.937194335545094" lon="12.424210373541678"><ele>124.14285714285714</ele><time>2026-05-03T16:18:34.999Z</time></trkpt><trkpt lat="41.93715490951421" lon="12.42412642143661"><ele>123.57142857142858</ele><time>2026-05-03T16:18:35.999Z</time></trkpt><trkpt lat="41.93712343716423" lon="12.424047220975607"><ele>123.00000000000001</ele><time>2026-05-03T16:18:36.999Z</time></trkpt><trkpt lat="41.937079427957784" lon="12.42397265600262"><ele>123.0</ele><time>2026-05-03T16:18:37.999Z</time></trkpt><trkpt lat="41.93704022613947" lon="12.423889817230432"><ele>123.00000000000001</ele><time>2026-05-03T16:18:38.999Z</time></trkpt><trkpt lat="41.936998823750194" lon="12.423813961988591"><ele>123.00000000000001</ele><time>2026-05-03T16:18:39.999Z</time></trkpt><trkpt lat="41.93693170459584" lon="12.42368780711748"><ele>123.0</ele><time>2026-05-03T16:18:42Z</time></trkpt><trkpt lat="41.93687155986207" lon="12.423570509352272"><ele>123.0</ele><time>2026-05-03T16:18:44Z</time></trkpt><trkpt lat="41.936822541010685" lon="12.423453290882499"><ele>123.16666666666667</ele><time>2026-05-03T16:18:46Z</time></trkpt><trkpt lat="41.93676298993402" lon="12.423318619014704"><ele>123.33333333333334</ele><time>2026-05-03T16:18:48Z</time></trkpt><trkpt lat="41.93672753164417" lon="12.423241121889578"><ele>123.5</ele><time>2026-05-03T16:18:49Z</time></trkpt><trkpt lat="41.93668629555411" lon="12.423166499924646"><ele>123.66666666666667</ele><time>2026-05-03T16:18:50Z</time></trkpt><trkpt lat="41.93665075776075" lon="12.423089343300468"><ele>123.83333333333334</ele><time>2026-05-03T16:18:51Z</time></trkpt><trkpt lat="41.936606270526674" lon="12.423008989676719"><ele>124.0</ele><time>2026-05-03T16:18:52Z</time></trkpt><trkpt lat="41.936561202929745" lon="12.42291758096245"><ele>124.0</ele><time>2026-05-03T16:18:53Z</time></trkpt><trkpt lat="41.936524098445595" lon="12.422846916804959"><ele>124.00000000000001</ele><time>2026-05-03T16:18:54Z</time></trkpt><trkpt lat="41.93648143155868" lon="12.422779602525937"><ele>124.0</ele><time>2026-05-03T16:18:55Z</time></trkpt><trkpt lat="41.93644354382025" lon="12.422707701584672"><ele>124.0</ele><time>2026-05-03T16:18:56Z</time></trkpt><trkpt lat="41.93640174806032" lon="12.422636049706238"><ele>124.00000000000001</ele><time>2026-05-03T16:18:57Z</time></trkpt><trkpt lat="41.936354516132255" lon="12.422571918163227"><ele>124.0</ele><time>2026-05-03T16:18:58Z</time></trkpt><trkpt lat="41.93631159264463" lon="12.422504854059188"><ele>124.0</ele><time>2026-05-03T16:18:59Z</time></trkpt><trkpt lat="41.93623325612533" lon="12.422396356151959"><ele>124.0</ele><time>2026-05-03T16:19:01Z</time></trkpt><trkpt lat="41.93614272185318" lon="12.422287946368263"><ele>124.0</ele><time>2026-05-03T16:19:03Z</time></trkpt><trkpt lat="41.936066702991184" lon="12.422208108171994"><ele>124.0</ele><time>2026-05-03T16:19:05Z</time></trkpt><trkpt lat="41.936002645547866" lon="12.422144573067307"><ele>124.0</ele><time>2026-05-03T16:19:07Z</time></trkpt><trkpt lat="41.93595204080462" lon="12.422078268171889"><ele>124.0</ele><time>2026-05-03T16:19:09Z</time></trkpt><trkpt lat="41.93587329898945" lon="12.42195004564471"><ele>122.83333333333334</ele><time>2026-05-03T16:19:11Z</time></trkpt><trkpt lat="41.93581137268482" lon="12.421892453010491"><ele>121.66666666666667</ele><time>2026-05-03T16:19:12Z</time></trkpt><trkpt lat="41.93575183567728" lon="12.421830197974996"><ele>120.5</ele><time>2026-05-03T16:19:13Z</time></trkpt><trkpt lat="41.9356934565371" lon="12.42176576655379"><ele>119.33333333333334</ele><time>2026-05-03T16:19:14Z</time></trkpt><trkpt lat="41.93563384512657" lon="12.421689737430249"><ele>118.16666666666667</ele><time>2026-05-03T16:19:15Z</time></trkpt><trkpt lat="41.935577718160694" lon="12.421621317729278"><ele>117.0</ele><time>2026-05-03T16:19:16Z</time></trkpt><trkpt lat="41.93551498587317" lon="12.421554526669848"><ele>117.0</ele><time>2026-05-03T16:19:17Z</time></trkpt><trkpt lat="41.93544836980906" lon="12.421480936106649"><ele>117.0</ele><time>2026-05-03T16:19:18Z</time></trkpt><trkpt lat="41.935389858012265" lon="12.421408843820604"><ele>117.0</ele><time>2026-05-03T16:19:19Z</time></trkpt><trkpt lat="41.93532471153129" lon="12.421320196571708"><ele>117.0</ele><time>2026-05-03T16:19:20Z</time></trkpt><trkpt lat="41.9352658214481" lon="12.421232484236839"><ele>117.0</ele><time>2026-05-03T16:19:21Z</time></trkpt><trkpt lat="41.93519009396982" lon="12.421152191986744"><ele>117.0</ele><time>2026-05-03T16:19:22Z</time></trkpt><trkpt lat="41.93512512439571" lon="12.421069943817729"><ele>116.6</ele><time>2026-05-03T16:19:23Z</time></trkpt><trkpt lat="41.93504410347247" lon="12.420984069284613"><ele>116.19999999999999</ele><time>2026-05-03T16:19:24Z</time></trkpt><trkpt lat="41.934966308578346" lon="12.42090192339035"><ele>115.8</ele><time>2026-05-03T16:19:25Z</time></trkpt><trkpt lat="41.93488729026618" lon="12.420815097115756"><ele>115.4</ele><time>2026-05-03T16:19:26Z</time></trkpt><trkpt lat="41.93480940314409" lon="12.420730125898402"><ele>115.0</ele><time>2026-05-03T16:19:27Z</time></trkpt><trkpt lat="41.934732078941096" lon="12.42064675738915"><ele>115.0</ele><time>2026-05-03T16:19:28Z</time></trkpt><trkpt lat="41.93464904431961" lon="12.420578896494234"><ele>115.0</ele><time>2026-05-03T16:19:29Z</time></trkpt><trkpt lat="41.93457365725014" lon="12.420500456050345"><ele>115.0</ele><time>2026-05-03T16:19:30Z</time></trkpt><trkpt lat="41.93450524127492" lon="12.4204095621119"><ele>115.0</ele><time>2026-05-03T16:19:31Z</time></trkpt><trkpt lat="41.93443503075016" lon="12.420332378732963"><ele>115.0</ele><time>2026-05-03T16:19:32Z</time></trkpt><trkpt lat="41.93435945304107" lon="12.42025746959828"><ele>114.66666666666667</ele><time>2026-05-03T16:19:33Z</time></trkpt><trkpt lat="41.93429119795747" lon="12.420184935435437"><ele>114.33333333333334</ele><time>2026-05-03T16:19:34Z</time></trkpt><trkpt lat="41.934213567625385" lon="12.42011408171511"><ele>114.0</ele><time>2026-05-03T16:19:35Z</time></trkpt><trkpt lat="41.9341415352612" lon="12.420046696562904"><ele>113.66666666666666</ele><time>2026-05-03T16:19:36Z</time></trkpt><trkpt lat="41.93407520258401" lon="12.419983142828826"><ele>113.33333333333333</ele><time>2026-05-03T16:19:37Z</time></trkpt><trkpt lat="41.934008127884574" lon="12.41991757469569"><ele>113.0</ele><time>2026-05-03T16:19:38Z</time></trkpt><trkpt lat="41.93393912537227" lon="12.419849548210571"><ele>112.4</ele><time>2026-05-03T16:19:39Z</time></trkpt><trkpt lat="41.933868598442096" lon="12.419773410269352"><ele>111.80000000000001</ele><time>2026-05-03T16:19:40Z</time></trkpt><trkpt lat="41.93379927461844" lon="12.419694367959433"><ele>111.2</ele><time>2026-05-03T16:19:41Z</time></trkpt><trkpt lat="41.93372029115434" lon="12.41961707549654"><ele>110.6</ele><time>2026-05-03T16:19:42Z</time></trkpt><trkpt lat="41.93363327609601" lon="12.419549114464372"><ele>110.0</ele><time>2026-05-03T16:19:43Z</time></trkpt><trkpt lat="41.93355592314643" lon="12.419510332023108"><ele>110.0</ele><time>2026-05-03T16:19:44Z</time></trkpt><trkpt lat="41.93345744737245" lon="12.41946280612326"><ele>110.0</ele><time>2026-05-03T16:19:45Z</time></trkpt><trkpt lat="41.93336599724565" lon="12.41945143745095"><ele>110.0</ele><time>2026-05-03T16:19:46Z</time></trkpt><trkpt lat="41.93327786955613" lon="12.41945243406619"><ele>110.0</ele><time>2026-05-03T16:19:47Z</time></trkpt><trkpt lat="41.933150863547105" lon="12.419494776792021"><ele>110.0</ele><time>2026-05-03T16:19:48Z</time></trkpt><trkpt lat="41.93305684082866" lon="12.419529592129233"><ele>109.8</ele><time>2026-05-03T16:19:49Z</time></trkpt><trkpt lat="41.93296737091444" lon="12.419583234790194"><ele>109.6</ele><time>2026-05-03T16:19:50Z</time></trkpt><trkpt lat="41.932872356364285" lon="12.419621626929418"><ele>109.4</ele><time>2026-05-03T16:19:51Z</time></trkpt><trkpt lat="41.93278248647414" lon="12.419671270427068"><ele>109.2</ele><time>2026-05-03T16:19:52Z</time></trkpt><trkpt lat="41.932694330672895" lon="12.419719667396853"><ele>109.0</ele><time>2026-05-03T16:19:53Z</time></trkpt><trkpt lat="41.93260609801339" lon="12.419772865465042"><ele>109.2</ele><time>2026-05-03T16:19:54Z</time></trkpt><trkpt lat="41.93250883813784" lon="12.419818909037966"><ele>109.4</ele><time>2026-05-03T16:19:55Z</time></trkpt><trkpt lat="41.93241663676751" lon="12.419867478135671"><ele>109.6</ele><time>2026-05-03T16:19:55.999Z</time></trkpt><trkpt lat="41.93232838642463" lon="12.419916686953854"><ele>109.8</ele><time>2026-05-03T16:19:56.999Z</time></trkpt><trkpt lat="41.93224226786448" lon="12.419962325420078"><ele>110.0</ele><time>2026-05-03T16:19:57.999Z</time></trkpt><trkpt lat="41.93215194550674" lon="12.420003316363605"><ele>110.0</ele><time>2026-05-03T16:19:58.999Z</time></trkpt><trkpt lat="41.93206055860001" lon="12.420038118158843"><ele>110.0</ele><time>2026-05-03T16:19:59.999Z</time></trkpt><trkpt lat="41.931968010672485" lon="12.420064062388711"><ele>110.0</ele><time>2026-05-03T16:20:00.999Z</time></trkpt><trkpt lat="41.93187560142276" lon="12.42006486490348"><ele>110.0</ele><time>2026-05-03T16:20:01.999Z</time></trkpt><trkpt lat="41.931787236976184" lon="12.420022831941735"><ele>110.0</ele><time>2026-05-03T16:20:02.999Z</time></trkpt><trkpt lat="41.931716647317224" lon="12.419965177850484"><ele>109.66666666666666</ele><time>2026-05-03T16:20:03.999Z</time></trkpt><trkpt lat="41.93165298536498" lon="12.419886173671129"><ele>109.33333333333333</ele><time>2026-05-03T16:20:04.999Z</time></trkpt><trkpt lat="41.93158351188073" lon="12.419820493094512"><ele>109.0</ele><time>2026-05-03T16:20:05.999Z</time></trkpt><trkpt lat="41.93151776356958" lon="12.419745759004197"><ele>108.66666666666666</ele><time>2026-05-03T16:20:06.999Z</time></trkpt><trkpt lat="41.931450014988236" lon="12.419665604119032"><ele>108.33333333333333</ele><time>2026-05-03T16:20:07.999Z</time></trkpt><trkpt lat="41.93137436019934" lon="12.41958483131887"><ele>108.0</ele><time>2026-05-03T16:20:08.999Z</time></trkpt><trkpt lat="41.93129932541662" lon="12.419501931273102"><ele>108.0</ele><time>2026-05-03T16:20:09.999Z</time></trkpt><trkpt lat="41.93122527041249" lon="12.419417692033079"><ele>108.00000000000001</ele><time>2026-05-03T16:20:10.999Z</time></trkpt><trkpt lat="41.931146698834915" lon="12.419329751236816"><ele>108.00000000000001</ele><time>2026-05-03T16:20:11.999Z</time></trkpt><trkpt lat="41.93106987442943" lon="12.419242647919797"><ele>108.0</ele><time>2026-05-03T16:20:12.999Z</time></trkpt><trkpt lat="41.93098938230671" lon="12.419157109139832"><ele>108.0</ele><time>2026-05-03T16:20:13.999Z</time></trkpt><trkpt lat="41.930909186091995" lon="12.419073291072525"><ele>107.80000000000001</ele><time>2026-05-03T16:20:14.999Z</time></trkpt><trkpt lat="41.930831571058825" lon="12.418985173871228"><ele>107.60000000000001</ele><time>2026-05-03T16:20:15.999Z</time></trkpt><trkpt lat="41.93075402021649" lon="12.418900887701206"><ele>107.39999999999999</ele><time>2026-05-03T16:20:16.999Z</time></trkpt><trkpt lat="41.930678049373576" lon="12.418814687358598"><ele>107.19999999999999</ele><time>2026-05-03T16:20:17.999Z</time></trkpt><trkpt lat="41.93060072652463" lon="12.418728711859208"><ele>107.0</ele><time>2026-05-03T16:20:18.999Z</time></trkpt><trkpt lat="41.930525021697285" lon="12.418645974442168"><ele>106.99999999999999</ele><time>2026-05-03T16:20:19.999Z</time></trkpt><trkpt lat="41.930447015848415" lon="12.418564960434114"><ele>107.0</ele><time>2026-05-03T16:20:20.999Z</time></trkpt><trkpt lat="41.93037855047265" lon="12.418493521676142"><ele>107.0</ele><time>2026-05-03T16:20:21.999Z</time></trkpt><trkpt lat="41.930324786964476" lon="12.418428845868675"><ele>107.0</ele><time>2026-05-03T16:20:22.999Z</time></trkpt><trkpt lat="41.93025866088517" lon="12.41834696439761"><ele>106.99999999999999</ele><time>2026-05-03T16:20:24.999Z</time></trkpt><trkpt lat="41.93020954597627" lon="12.418290828110612"><ele>107.0</ele><time>2026-05-03T16:20:26.999Z</time></trkpt><trkpt lat="41.93010862401452" lon="12.418203402592567"><ele>106.99999999999999</ele><time>2026-05-03T16:20:28.999Z</time></trkpt><trkpt lat="41.93004545110562" lon="12.418155500709009"><ele>107.0</ele><time>2026-05-03T16:20:29.999Z</time></trkpt><trkpt lat="41.929985307090355" lon="12.418106186315704"><ele>107.0</ele><time>2026-05-03T16:20:30.999Z</time></trkpt><trkpt lat="41.929919188751576" lon="12.418047206822038"><ele>107.0</ele><time>2026-05-03T16:20:31.999Z</time></trkpt><trkpt lat="41.92985186762201" lon="12.417979764477368"><ele>106.99999999999999</ele><time>2026-05-03T16:20:32.999Z</time></trkpt><trkpt lat="41.929783600601276" lon="12.417909836830917"><ele>107.0</ele><time>2026-05-03T16:20:33.999Z</time></trkpt><trkpt lat="41.929713487287984" lon="12.41784509137682"><ele>106.83333333333333</ele><time>2026-05-03T16:20:34.999Z</time></trkpt><trkpt lat="41.9296448250432" lon="12.417788381117557"><ele>106.66666666666666</ele><time>2026-05-03T16:20:35.999Z</time></trkpt><trkpt lat="41.92958299257225" lon="12.417722544790257"><ele>106.5</ele><time>2026-05-03T16:20:36.999Z</time></trkpt><trkpt lat="41.92951907866341" lon="12.417667699636743"><ele>106.33333333333334</ele><time>2026-05-03T16:20:37.999Z</time></trkpt><trkpt lat="41.92946135035994" lon="12.417616408789916"><ele>106.16666666666667</ele><time>2026-05-03T16:20:38.999Z</time></trkpt><trkpt lat="41.92940345966002" lon="12.41757099168468"><ele>106.0</ele><time>2026-05-03T16:20:39.999Z</time></trkpt><trkpt lat="41.92931134030685" lon="12.417501521514522"><ele>106.00000000000001</ele><time>2026-05-03T16:20:41.999Z</time></trkpt><trkpt lat="41.92923613377258" lon="12.417429712921766"><ele>106.0</ele><time>2026-05-03T16:20:43.999Z</time></trkpt><trkpt lat="41.929151574567214" lon="12.417362473374952"><ele>106.0</ele><time>2026-05-03T16:20:45.999Z</time></trkpt><trkpt lat="41.92905753523716" lon="12.41729733374056"><ele>106.0</ele><time>2026-05-03T16:20:48Z</time></trkpt><trkpt lat="41.928997301027884" lon="12.417258277936904"><ele>106.00000000000001</ele><time>2026-05-03T16:20:49Z</time></trkpt><trkpt lat="41.928941304234044" lon="12.417212974774047"><ele>106.0</ele><time>2026-05-03T16:20:50Z</time></trkpt><trkpt lat="41.9288861450934" lon="12.417163466603881"><ele>106.16666666666667</ele><time>2026-05-03T16:20:51Z</time></trkpt><trkpt lat="41.92883268630461" lon="12.417111570132908"><ele>106.33333333333334</ele><time>2026-05-03T16:20:52Z</time></trkpt><trkpt lat="41.928720382364524" lon="12.417015728755748"><ele>106.5</ele><time>2026-05-03T16:20:54Z</time></trkpt><trkpt lat="41.92865790019746" lon="12.416977393873626"><ele>106.66666666666666</ele><time>2026-05-03T16:20:55Z</time></trkpt><trkpt lat="41.92859916276306" lon="12.416933846014498"><ele>106.83333333333333</ele><time>2026-05-03T16:20:56Z</time></trkpt><trkpt lat="41.92853552473628" lon="12.41688492541836"><ele>107.0</ele><time>2026-05-03T16:20:57Z</time></trkpt><trkpt lat="41.928467488044184" lon="12.416833435559635"><ele>106.99999999999999</ele><time>2026-05-03T16:20:58Z</time></trkpt><trkpt lat="41.928398762343186" lon="12.416775836084797"><ele>107.0</ele><time>2026-05-03T16:20:59Z</time></trkpt><trkpt lat="41.92833333235383" lon="12.416723424042043"><ele>107.0</ele><time>2026-05-03T16:21:00Z</time></trkpt><trkpt lat="41.92826676418052" lon="12.416672564756992"><ele>107.0</ele><time>2026-05-03T16:21:01Z</time></trkpt><trkpt lat="41.92820852139519" lon="12.416624775203543"><ele>106.99999999999999</ele><time>2026-05-03T16:21:02Z</time></trkpt><trkpt lat="41.92810958179796" lon="12.416547277466755"><ele>107.0</ele><time>2026-05-03T16:21:04Z</time></trkpt><trkpt lat="41.92803431235182" lon="12.416480643604649"><ele>106.33333333333333</ele><time>2026-05-03T16:21:06Z</time></trkpt><trkpt lat="41.92796060239459" lon="12.416422422105885"><ele>105.66666666666666</ele><time>2026-05-03T16:21:09Z</time></trkpt><trkpt lat="41.927877398945974" lon="12.416363800758308"><ele>105.0</ele><time>2026-05-03T16:21:12Z</time></trkpt><trkpt lat="41.92781006029943" lon="12.416318933568487"><ele>104.33333333333334</ele><time>2026-05-03T16:21:14Z</time></trkpt><trkpt lat="41.9277527336052" lon="12.416279607673054"><ele>103.66666666666667</ele><time>2026-05-03T16:21:16Z</time></trkpt><trkpt lat="41.92768923237276" lon="12.416239437472564"><ele>103.0</ele><time>2026-05-03T16:21:18Z</time></trkpt><trkpt lat="41.927586111780414" lon="12.416170839072024"><ele>102.80000000000001</ele><time>2026-05-03T16:21:20Z</time></trkpt><trkpt lat="41.92750593269475" lon="12.416110633749264"><ele>102.6</ele><time>2026-05-03T16:21:22Z</time></trkpt><trkpt lat="41.92742665893509" lon="12.416039905092918"><ele>102.4</ele><time>2026-05-03T16:21:24Z</time></trkpt><trkpt lat="41.927338239542635" lon="12.415975435758773"><ele>102.19999999999999</ele><time>2026-05-03T16:21:26Z</time></trkpt><trkpt lat="41.927236486654024" lon="12.415895898129207"><ele>102.0</ele><time>2026-05-03T16:21:28Z</time></trkpt><trkpt lat="41.92714383627204" lon="12.415821872073229"><ele>102.0</ele><time>2026-05-03T16:21:30Z</time></trkpt><trkpt lat="41.927057590578954" lon="12.415750855779827"><ele>102.0</ele><time>2026-05-03T16:21:32Z</time></trkpt><trkpt lat="41.92698116094257" lon="12.415678852477468"><ele>102.0</ele><time>2026-05-03T16:21:34Z</time></trkpt><trkpt lat="41.92689886876299" lon="12.415609656593492"><ele>102.0</ele><time>2026-05-03T16:21:36Z</time></trkpt><trkpt lat="41.92681383988498" lon="12.41553917933765"><ele>102.0</ele><time>2026-05-03T16:21:38Z</time></trkpt><trkpt lat="41.92672958091939" lon="12.415455236178808"><ele>102.39999999999999</ele><time>2026-05-03T16:21:40Z</time></trkpt><trkpt lat="41.92663809431556" lon="12.415375515838766"><ele>102.8</ele><time>2026-05-03T16:21:42Z</time></trkpt><trkpt lat="41.92655048758838" lon="12.415306352280023"><ele>103.2</ele><time>2026-05-03T16:21:44Z</time></trkpt><trkpt lat="41.926478962337086" lon="12.415258542885182"><ele>103.6</ele><time>2026-05-03T16:21:51.999Z</time></trkpt><trkpt lat="41.926405166920134" lon="12.415217753042727"><ele>104.0</ele><time>2026-05-03T16:21:54.999Z</time></trkpt><trkpt lat="41.92632626626171" lon="12.415165284159514"><ele>104.0</ele><time>2026-05-03T16:21:56.999Z</time></trkpt><trkpt lat="41.92623354849874" lon="12.41508672142848"><ele>104.0</ele><time>2026-05-03T16:21:58.999Z</time></trkpt><trkpt lat="41.92614674824762" lon="12.415009235678312"><ele>104.0</ele><time>2026-05-03T16:22:00.999Z</time></trkpt><trkpt lat="41.92606897310418" lon="12.41495539646851"><ele>104.0</ele><time>2026-05-03T16:22:02.999Z</time></trkpt><trkpt lat="41.92601289386972" lon="12.414906206015644"><ele>104.0</ele><time>2026-05-03T16:22:06.999Z</time></trkpt><trkpt lat="41.925940285656594" lon="12.414834597838928"><ele>104.0</ele><time>2026-05-03T16:22:09.999Z</time></trkpt><trkpt lat="41.92587024097552" lon="12.414788012142264"><ele>104.0</ele><time>2026-05-03T16:22:11.999Z</time></trkpt><trkpt lat="41.92579614347374" lon="12.41472769060715"><ele>104.0</ele><time>2026-05-03T16:22:13.999Z</time></trkpt><trkpt lat="41.92571640946212" lon="12.414654514223882"><ele>104.0</ele><time>2026-05-03T16:22:15.999Z</time></trkpt><trkpt lat="41.925626065431274" lon="12.414564358586823"><ele>104.0</ele><time>2026-05-03T16:22:17.999Z</time></trkpt><trkpt lat="41.92551965474081" lon="12.414470994948644"><ele>103.83333333333333</ele><time>2026-05-03T16:22:19.999Z</time></trkpt><trkpt lat="41.925464945008834" lon="12.414417425507445"><ele>103.66666666666666</ele><time>2026-05-03T16:22:20.999Z</time></trkpt><trkpt lat="41.92540613672545" lon="12.414368990184695"><ele>103.5</ele><time>2026-05-03T16:22:21.999Z</time></trkpt><trkpt lat="41.92535365546333" lon="12.414313861840018"><ele>103.33333333333334</ele><time>2026-05-03T16:22:22.999Z</time></trkpt><trkpt lat="41.92526139432058" lon="12.414218623017454"><ele>103.16666666666667</ele><time>2026-05-03T16:22:24.999Z</time></trkpt><trkpt lat="41.925174411414424" lon="12.414118269988581"><ele>103.0</ele><time>2026-05-03T16:22:26.999Z</time></trkpt><trkpt lat="41.925103402751475" lon="12.414038681259095"><ele>103.00000000000001</ele><time>2026-05-03T16:22:28.999Z</time></trkpt><trkpt lat="41.92504205214962" lon="12.414001939393488"><ele>103.0</ele><time>2026-05-03T16:22:30.999Z</time></trkpt><trkpt lat="41.924947149176546" lon="12.413974936926003"><ele>103.0</ele><time>2026-05-03T16:22:32.999Z</time></trkpt><trkpt lat="41.92488072626838" lon="12.413975193005466"><ele>103.0</ele><time>2026-05-03T16:22:33.999Z</time></trkpt><trkpt lat="41.92480458953626" lon="12.413993787147279"><ele>103.00000000000001</ele><time>2026-05-03T16:22:34.999Z</time></trkpt><trkpt lat="41.924727770889476" lon="12.414007862311111"><ele>103.0</ele><time>2026-05-03T16:22:35.999Z</time></trkpt><trkpt lat="41.9246429389512" lon="12.414024631500308"><ele>103.0</ele><time>2026-05-03T16:22:36.999Z</time></trkpt><trkpt lat="41.92455759799548" lon="12.41404159991172"><ele>103.0</ele><time>2026-05-03T16:22:37.999Z</time></trkpt><trkpt lat="41.92446189620781" lon="12.414048008371001"><ele>103.0</ele><time>2026-05-03T16:22:38.999Z</time></trkpt><trkpt lat="41.92436446012073" lon="12.414064679688305"><ele>103.0</ele><time>2026-05-03T16:22:39.999Z</time></trkpt><trkpt lat="41.92426944453082" lon="12.414090708814287"><ele>103.0</ele><time>2026-05-03T16:22:40.999Z</time></trkpt><trkpt lat="41.92417197235683" lon="12.414093512670222"><ele>102.4</ele><time>2026-05-03T16:22:41.999Z</time></trkpt><trkpt lat="41.92407587477153" lon="12.414110100464734"><ele>101.80000000000001</ele><time>2026-05-03T16:22:42.999Z</time></trkpt><trkpt lat="41.92397864472764" lon="12.414127425917382"><ele>101.2</ele><time>2026-05-03T16:22:43.999Z</time></trkpt><trkpt lat="41.923880137255274" lon="12.414145088366029"><ele>100.6</ele><time>2026-05-03T16:22:44.999Z</time></trkpt><trkpt lat="41.923778770336625" lon="12.414163263524758"><ele>100.0</ele><time>2026-05-03T16:22:45.999Z</time></trkpt><trkpt lat="41.92368040306584" lon="12.414180900831214"><ele>100.0</ele><time>2026-05-03T16:22:46.999Z</time></trkpt><trkpt lat="41.92358420812024" lon="12.414197999697539"><ele>100.0</ele><time>2026-05-03T16:22:47.999Z</time></trkpt><trkpt lat="41.92349210511743" lon="12.414219012711907"><ele>100.0</ele><time>2026-05-03T16:22:48.999Z</time></trkpt><trkpt lat="41.923400895453774" lon="12.414234625894094"><ele>100.0</ele><time>2026-05-03T16:22:49.999Z</time></trkpt><trkpt lat="41.923314672840526" lon="12.414249321642016"><ele>100.0</ele><time>2026-05-03T16:22:50.999Z</time></trkpt><trkpt lat="41.9232324362982" lon="12.414254876709034"><ele>99.00000000000001</ele><time>2026-05-03T16:22:51.999Z</time></trkpt><trkpt lat="41.92315288607587" lon="12.414253771746848"><ele>98.0</ele><time>2026-05-03T16:22:52.999Z</time></trkpt><trkpt lat="41.92308211911097" lon="12.414262535871298"><ele>97.0</ele><time>2026-05-03T16:22:54Z</time></trkpt><trkpt lat="41.92301322167475" lon="12.414194500836365"><ele>96.0</ele><time>2026-05-03T16:22:55Z</time></trkpt><trkpt lat="41.92294731786553" lon="12.414158300242532"><ele>95.0</ele><time>2026-05-03T16:22:56Z</time></trkpt><trkpt lat="41.922876232844374" lon="12.414113539826786"><ele>94.0</ele><time>2026-05-03T16:22:57Z</time></trkpt><trkpt lat="41.922799378707595" lon="12.414074755360904"><ele>94.0</ele><time>2026-05-03T16:22:58Z</time></trkpt><trkpt lat="41.92271708676771" lon="12.414039979182022"><ele>94.0</ele><time>2026-05-03T16:22:59Z</time></trkpt><trkpt lat="41.92263470629502" lon="12.414001624847433"><ele>94.0</ele><time>2026-05-03T16:23:00Z</time></trkpt><trkpt lat="41.92254955792624" lon="12.41395510953684"><ele>94.0</ele><time>2026-05-03T16:23:01Z</time></trkpt><trkpt lat="41.92246729140933" lon="12.413910786642543"><ele>94.0</ele><time>2026-05-03T16:23:02Z</time></trkpt><trkpt lat="41.92238631788363" lon="12.413868190409142"><ele>94.0</ele><time>2026-05-03T16:23:03Z</time></trkpt><trkpt lat="41.92230729840628" lon="12.41382994265912"><ele>93.4</ele><time>2026-05-03T16:23:04Z</time></trkpt><trkpt lat="41.92222913173862" lon="12.413790509824373"><ele>92.80000000000001</ele><time>2026-05-03T16:23:05Z</time></trkpt><trkpt lat="41.92215296824531" lon="12.413752580943349"><ele>92.19999999999999</ele><time>2026-05-03T16:23:06Z</time></trkpt><trkpt lat="41.922091862504175" lon="12.413720285280188"><ele>91.6</ele><time>2026-05-03T16:23:07Z</time></trkpt><trkpt lat="41.9220097928725" lon="12.4136664711297"><ele>91.0</ele><time>2026-05-03T16:23:09Z</time></trkpt><trkpt lat="41.922018296937566" lon="12.413462582356205"><ele>91.0</ele><time>2026-05-03T16:23:12Z</time></trkpt><trkpt lat="41.92203204239884" lon="12.413373164516354"><ele>91.0</ele><time>2026-05-03T16:23:13Z</time></trkpt><trkpt lat="41.92201963581214" lon="12.413279851877231"><ele>91.0</ele><time>2026-05-03T16:23:14Z</time></trkpt><trkpt lat="41.9220226961366" lon="12.413177670230613"><ele>91.0</ele><time>2026-05-03T16:23:15Z</time></trkpt><trkpt lat="41.92204957975211" lon="12.41309089355623"><ele>91.0</ele><time>2026-05-03T16:23:16Z</time></trkpt><trkpt lat="41.92208266093281" lon="12.413014029518331"><ele>91.0</ele><time>2026-05-03T16:23:17Z</time></trkpt><trkpt lat="41.922126824691176" lon="12.412939417543221"><ele>91.0</ele><time>2026-05-03T16:23:18Z</time></trkpt><trkpt lat="41.92217243429978" lon="12.412862567855225"><ele>91.5</ele><time>2026-05-03T16:23:19Z</time></trkpt><trkpt lat="41.92222434749868" lon="12.412791135316446"><ele>92.0</ele><time>2026-05-03T16:23:20Z</time></trkpt><trkpt lat="41.92227828337988" lon="12.412704451108814"><ele>92.5</ele><time>2026-05-03T16:23:21Z</time></trkpt><trkpt lat="41.922331171659565" lon="12.412604998625326"><ele>93.0</ele><time>2026-05-03T16:23:22Z</time></trkpt><trkpt lat="41.9223858156523" lon="12.412501110622973"><ele>93.5</ele><time>2026-05-03T16:23:23Z</time></trkpt><trkpt lat="41.922427660043695" lon="12.412393633079239"><ele>94.0</ele><time>2026-05-03T16:23:24Z</time></trkpt><trkpt lat="41.92245694451229" lon="12.41230909830015"><ele>94.0</ele><time>2026-05-03T16:23:25Z</time></trkpt><trkpt lat="41.92249510234525" lon="12.41223087593986"><ele>94.0</ele><time>2026-05-03T16:23:26Z</time></trkpt><trkpt lat="41.92252681288819" lon="12.41215136178645"><ele>94.0</ele><time>2026-05-03T16:23:27Z</time></trkpt><trkpt lat="41.9225785420737" lon="12.412043826695006"><ele>94.0</ele><time>2026-05-03T16:23:29Z</time></trkpt><trkpt lat="41.92262168093236" lon="12.411953552663997"><ele>94.0</ele><time>2026-05-03T16:23:31Z</time></trkpt><trkpt lat="41.9226591312924" lon="12.411875565199331"><ele>94.0</ele><time>2026-05-03T16:23:33Z</time></trkpt><trkpt lat="41.92268002921295" lon="12.411792742563486"><ele>94.0</ele><time>2026-05-03T16:25:40Z</time></trkpt><trkpt lat="41.92270236840828" lon="12.411708181378488"><ele>94.5</ele><time>2026-05-03T16:25:49Z</time></trkpt><trkpt lat="41.92283131735799" lon="12.41184553713789"><ele>95.0</ele><time>2026-05-03T16:25:53Z</time></trkpt><trkpt lat="41.92291517852894" lon="12.411924845984784"><ele>95.5</ele><time>2026-05-03T16:25:55Z</time></trkpt><trkpt lat="41.92300970795208" lon="12.412014874900741"><ele>96.0</ele><time>2026-05-03T16:25:57Z</time></trkpt><trkpt lat="41.923114407874166" lon="12.41211029846194"><ele>96.14285714285714</ele><time>2026-05-03T16:25:59Z</time></trkpt><trkpt lat="41.92316940918267" lon="12.412161948791919"><ele>96.28571428571428</ele><time>2026-05-03T16:25:59.999Z</time></trkpt><trkpt lat="41.923224447413844" lon="12.412216580863005"><ele>96.42857142857142</ele><time>2026-05-03T16:26:00.999Z</time></trkpt><trkpt lat="41.92328414084526" lon="12.412274021418296"><ele>96.57142857142857</ele><time>2026-05-03T16:26:01.999Z</time></trkpt><trkpt lat="41.92334005762109" lon="12.412334945732606"><ele>96.71428571428572</ele><time>2026-05-03T16:26:02.999Z</time></trkpt><trkpt lat="41.92340070210188" lon="12.41238942903339"><ele>96.85714285714285</ele><time>2026-05-03T16:26:03.999Z</time></trkpt><trkpt lat="41.92346576280099" lon="12.412454374286957"><ele>97.0</ele><time>2026-05-03T16:26:04.999Z</time></trkpt><trkpt lat="41.92353217434114" lon="12.412520692310338"><ele>98.00000000000001</ele><time>2026-05-03T16:26:05.999Z</time></trkpt><trkpt lat="41.92360194856204" lon="12.412585685485185"><ele>99.0</ele><time>2026-05-03T16:26:06.999Z</time></trkpt><trkpt lat="41.92367050685982" lon="12.412653303666456"><ele>100.0</ele><time>2026-05-03T16:26:07.999Z</time></trkpt><trkpt lat="41.92374013964199" lon="12.412723103881527"><ele>101.0</ele><time>2026-05-03T16:26:08.999Z</time></trkpt><trkpt lat="41.923811067008145" lon="12.412790082018338"><ele>102.00000000000001</ele><time>2026-05-03T16:26:09.999Z</time></trkpt><trkpt lat="41.923882868043094" lon="12.412859091310162"><ele>103.0</ele><time>2026-05-03T16:26:10.999Z</time></trkpt><trkpt lat="41.923983065977026" lon="12.412960843511296"><ele>102.83333333333334</ele><time>2026-05-03T16:26:11.999Z</time></trkpt><trkpt lat="41.92409646866126" lon="12.413052094557312"><ele>102.66666666666667</ele><time>2026-05-03T16:26:13.999Z</time></trkpt><trkpt lat="41.92416115503824" lon="12.413125954985885"><ele>102.5</ele><time>2026-05-03T16:26:14.999Z</time></trkpt><trkpt lat="41.92422076532013" lon="12.41319541681"><ele>102.33333333333334</ele><time>2026-05-03T16:26:15.999Z</time></trkpt><trkpt lat="41.924277481230256" lon="12.413263121358089"><ele>102.16666666666667</ele><time>2026-05-03T16:26:16.999Z</time></trkpt><trkpt lat="41.92434352762154" lon="12.413317686195466"><ele>102.0</ele><time>2026-05-03T16:26:17.999Z</time></trkpt><trkpt lat="41.92440416984617" lon="12.413369744954423"><ele>102.28571428571429</ele><time>2026-05-03T16:26:18.999Z</time></trkpt><trkpt lat="41.92444978205317" lon="12.413431268157405"><ele>102.57142857142858</ele><time>2026-05-03T16:26:19.999Z</time></trkpt><trkpt lat="41.92450056463031" lon="12.41349266201183"><ele>102.85714285714286</ele><time>2026-05-03T16:26:20.999Z</time></trkpt><trkpt lat="41.92455943444059" lon="12.413540517557156"><ele>103.14285714285714</ele><time>2026-05-03T16:26:21.999Z</time></trkpt><trkpt lat="41.92461144229208" lon="12.413605501790874"><ele>103.42857142857143</ele><time>2026-05-03T16:26:22.999Z</time></trkpt><trkpt lat="41.924668635708144" lon="12.413658253327316"><ele>103.71428571428571</ele><time>2026-05-03T16:26:23.999Z</time></trkpt><trkpt lat="41.92472246478324" lon="12.413729035342675"><ele>104.0</ele><time>2026-05-03T16:26:24.999Z</time></trkpt><trkpt lat="41.924779998395884" lon="12.413796876823296"><ele>103.83333333333333</ele><time>2026-05-03T16:26:25.999Z</time></trkpt><trkpt lat="41.92483867882285" lon="12.413860397860955"><ele>103.66666666666666</ele><time>2026-05-03T16:26:26.999Z</time></trkpt><trkpt lat="41.924900790431906" lon="12.41391933086606"><ele>103.5</ele><time>2026-05-03T16:26:27.999Z</time></trkpt><trkpt lat="41.92496254532142" lon="12.413984601138315"><ele>103.33333333333334</ele><time>2026-05-03T16:26:28.999Z</time></trkpt><trkpt lat="41.9250258893341" lon="12.41405692687233"><ele>103.16666666666667</ele><time>2026-05-03T16:26:29.999Z</time></trkpt><trkpt lat="41.92509273130628" lon="12.414130865959319"><ele>103.0</ele><time>2026-05-03T16:26:30.999Z</time></trkpt><trkpt lat="41.92516507810621" lon="12.414207511526792"><ele>103.0</ele><time>2026-05-03T16:26:31.999Z</time></trkpt><trkpt lat="41.92523576885932" lon="12.414281583920253"><ele>103.0</ele><time>2026-05-03T16:26:32.999Z</time></trkpt><trkpt lat="41.92530682675973" lon="12.414356534169592"><ele>103.0</ele><time>2026-05-03T16:26:33.999Z</time></trkpt><trkpt lat="41.92537677510768" lon="12.414430383148545"><ele>103.0</ele><time>2026-05-03T16:26:34.999Z</time></trkpt><trkpt lat="41.92544977605834" lon="12.414504014380388"><ele>103.0</ele><time>2026-05-03T16:26:35.999Z</time></trkpt><trkpt lat="41.92552676213425" lon="12.41457233028626"><ele>103.00000000000001</ele><time>2026-05-03T16:26:36.999Z</time></trkpt><trkpt lat="41.92559799324895" lon="12.414646718474275"><ele>103.0</ele><time>2026-05-03T16:26:37.999Z</time></trkpt><trkpt lat="41.925669459480766" lon="12.414711505061948"><ele>103.0</ele><time>2026-05-03T16:26:38.999Z</time></trkpt><trkpt lat="41.925741413770744" lon="12.414776089951063"><ele>103.0</ele><time>2026-05-03T16:26:39.999Z</time></trkpt><trkpt lat="41.925816476687444" lon="12.414839067981134"><ele>103.00000000000001</ele><time>2026-05-03T16:26:40.999Z</time></trkpt><trkpt lat="41.92589427100175" lon="12.414902504492531"><ele>103.0</ele><time>2026-05-03T16:26:41.999Z</time></trkpt><trkpt lat="41.92597256391841" lon="12.414964817581424"><ele>103.2</ele><time>2026-05-03T16:26:42.999Z</time></trkpt><trkpt lat="41.92605044377329" lon="12.415028600161333"><ele>103.4</ele><time>2026-05-03T16:26:43.999Z</time></trkpt><trkpt lat="41.926132252266136" lon="12.415085645932656"><ele>103.60000000000001</ele><time>2026-05-03T16:26:44.999Z</time></trkpt><trkpt lat="41.92621799178157" lon="12.415142278824124"><ele>103.80000000000001</ele><time>2026-05-03T16:26:45.999Z</time></trkpt><trkpt lat="41.92629712088709" lon="12.415197721921995"><ele>104.0</ele><time>2026-05-03T16:26:46.999Z</time></trkpt><trkpt lat="41.92636939350341" lon="12.415265539006985"><ele>104.0</ele><time>2026-05-03T16:26:47.999Z</time></trkpt><trkpt lat="41.92644387013849" lon="12.415329744220458"><ele>104.0</ele><time>2026-05-03T16:26:48.999Z</time></trkpt><trkpt lat="41.926522986472094" lon="12.415395308699834"><ele>104.0</ele><time>2026-05-03T16:26:49.999Z</time></trkpt><trkpt lat="41.92660736501978" lon="12.41545599775701"><ele>104.0</ele><time>2026-05-03T16:26:50.999Z</time></trkpt><trkpt lat="41.926692935655275" lon="12.41551744330183"><ele>104.0</ele><time>2026-05-03T16:26:51.999Z</time></trkpt><trkpt lat="41.9267795758055" lon="12.415582632178728"><ele>103.6</ele><time>2026-05-03T16:26:52.999Z</time></trkpt><trkpt lat="41.92686345446524" lon="12.41564927470323"><ele>103.2</ele><time>2026-05-03T16:26:53.999Z</time></trkpt><trkpt lat="41.92694503353015" lon="12.415708749058984"><ele>102.8</ele><time>2026-05-03T16:26:54.999Z</time></trkpt><trkpt lat="41.927016679417804" lon="12.415772955684888"><ele>102.39999999999999</ele><time>2026-05-03T16:26:55.999Z</time></trkpt><trkpt lat="41.92709407033773" lon="12.415833584471436"><ele>102.0</ele><time>2026-05-03T16:26:56.999Z</time></trkpt><trkpt lat="41.92717211518742" lon="12.415894930782471"><ele>102.0</ele><time>2026-05-03T16:26:57.999Z</time></trkpt><trkpt lat="41.927249357735846" lon="12.415956430838913"><ele>102.0</ele><time>2026-05-03T16:26:58.999Z</time></trkpt><trkpt lat="41.927327100081534" lon="12.416016492756485"><ele>102.0</ele><time>2026-05-03T16:26:59.999Z</time></trkpt><trkpt lat="41.927406615227675" lon="12.41607926255934"><ele>102.0</ele><time>2026-05-03T16:27:00.999Z</time></trkpt><trkpt lat="41.9274846976012" lon="12.416138872717372"><ele>102.0</ele><time>2026-05-03T16:27:01.999Z</time></trkpt><trkpt lat="41.92756428011738" lon="12.416200249323438"><ele>102.16666666666667</ele><time>2026-05-03T16:27:02.999Z</time></trkpt><trkpt lat="41.927640007392505" lon="12.416263693892192"><ele>102.33333333333334</ele><time>2026-05-03T16:27:03.999Z</time></trkpt><trkpt lat="41.92771771531905" lon="12.41632807078267"><ele>102.5</ele><time>2026-05-03T16:27:04.999Z</time></trkpt><trkpt lat="41.92779281261984" lon="12.41638964698285"><ele>102.66666666666667</ele><time>2026-05-03T16:27:06Z</time></trkpt><trkpt lat="41.927868013756566" lon="12.41645138490596"><ele>102.83333333333334</ele><time>2026-05-03T16:27:07Z</time></trkpt><trkpt lat="41.927940780038234" lon="12.4165048362849"><ele>103.0</ele><time>2026-05-03T16:27:08Z</time></trkpt><trkpt lat="41.928010244916294" lon="12.41655519118379"><ele>103.00000000000001</ele><time>2026-05-03T16:27:09Z</time></trkpt><trkpt lat="41.928074387730305" lon="12.416602145618091"><ele>103.0</ele><time>2026-05-03T16:27:10Z</time></trkpt><trkpt lat="41.92813393851799" lon="12.41664964554891"><ele>103.0</ele><time>2026-05-03T16:27:11Z</time></trkpt><trkpt lat="41.9281946979946" lon="12.416702696371726"><ele>103.0</ele><time>2026-05-03T16:27:12Z</time></trkpt><trkpt lat="41.92826180781116" lon="12.41675517627284"><ele>103.00000000000001</ele><time>2026-05-03T16:27:13Z</time></trkpt><trkpt lat="41.92833134385651" lon="12.416807648118283"><ele>103.0</ele><time>2026-05-03T16:27:14Z</time></trkpt><trkpt lat="41.928404634063924" lon="12.416857605185907"><ele>103.16666666666667</ele><time>2026-05-03T16:27:15Z</time></trkpt><trkpt lat="41.92847772917624" lon="12.41691422925953"><ele>103.33333333333334</ele><time>2026-05-03T16:27:16Z</time></trkpt><trkpt lat="41.92855370440118" lon="12.416973888057067"><ele>103.5</ele><time>2026-05-03T16:27:17Z</time></trkpt><trkpt lat="41.928630500055455" lon="12.41703163326888"><ele>103.66666666666666</ele><time>2026-05-03T16:27:18Z</time></trkpt><trkpt lat="41.928710617301434" lon="12.417090519307331"><ele>103.83333333333333</ele><time>2026-05-03T16:27:19Z</time></trkpt><trkpt lat="41.92879206546331" lon="12.417155027421584"><ele>104.0</ele><time>2026-05-03T16:27:20Z</time></trkpt><trkpt lat="41.928871948646766" lon="12.417217685625113"><ele>103.99999999999999</ele><time>2026-05-03T16:27:21Z</time></trkpt><trkpt lat="41.928934518113394" lon="12.417266408916245"><ele>104.0</ele><time>2026-05-03T16:27:22Z</time></trkpt><trkpt lat="41.92899471589228" lon="12.417308744738577"><ele>104.0</ele><time>2026-05-03T16:27:24Z</time></trkpt><trkpt lat="41.92906713903922" lon="12.417385262731255"><ele>104.0</ele><time>2026-05-03T16:27:27Z</time></trkpt><trkpt lat="41.929161671299596" lon="12.417429659623645"><ele>103.99999999999999</ele><time>2026-05-03T16:27:29Z</time></trkpt><trkpt lat="41.92922094290471" lon="12.417474141244236"><ele>104.0</ele><time>2026-05-03T16:27:30Z</time></trkpt><trkpt lat="41.929280367430096" lon="12.417525409753495"><ele>104.4</ele><time>2026-05-03T16:27:31Z</time></trkpt><trkpt lat="41.92933062172463" lon="12.417576618011497"><ele>104.80000000000001</ele><time>2026-05-03T16:27:32Z</time></trkpt><trkpt lat="41.9294430825255" lon="12.417654601090689"><ele>105.19999999999999</ele><time>2026-05-03T16:27:34Z</time></trkpt><trkpt lat="41.929535176887626" lon="12.417738657667266"><ele>105.6</ele><time>2026-05-03T16:27:36Z</time></trkpt><trkpt lat="41.92961817340373" lon="12.417811724025668"><ele>106.0</ele><time>2026-05-03T16:27:38Z</time></trkpt><trkpt lat="41.92970434136964" lon="12.41788761693878"><ele>106.16666666666667</ele><time>2026-05-03T16:27:40Z</time></trkpt><trkpt lat="41.929805175759554" lon="12.417986658056401"><ele>106.33333333333334</ele><time>2026-05-03T16:27:42Z</time></trkpt><trkpt lat="41.92986538071053" lon="12.418036104897611"><ele>106.5</ele><time>2026-05-03T16:27:43Z</time></trkpt><trkpt lat="41.92992818614417" lon="12.418089695669428"><ele>106.66666666666666</ele><time>2026-05-03T16:27:44Z</time></trkpt><trkpt lat="41.929979513309256" lon="12.418166679140228"><ele>106.83333333333333</ele><time>2026-05-03T16:27:45Z</time></trkpt><trkpt lat="41.93004557124113" lon="12.418233254202834"><ele>107.0</ele><time>2026-05-03T16:27:46Z</time></trkpt><trkpt lat="41.930112220246876" lon="12.418300425043467"><ele>106.99999999999999</ele><time>2026-05-03T16:27:47Z</time></trkpt><trkpt lat="41.93017849092382" lon="12.418366853737691"><ele>107.0</ele><time>2026-05-03T16:27:48Z</time></trkpt><trkpt lat="41.930242906481226" lon="12.418445811295287"><ele>107.0</ele><time>2026-05-03T16:27:49Z</time></trkpt><trkpt lat="41.93031219601157" lon="12.41852060364964"><ele>107.0</ele><time>2026-05-03T16:27:50Z</time></trkpt><trkpt lat="41.93038086832218" lon="12.418602339187483"><ele>106.99999999999999</ele><time>2026-05-03T16:27:51Z</time></trkpt><trkpt lat="41.93045250287209" lon="12.418682095890006"><ele>107.0</ele><time>2026-05-03T16:27:52Z</time></trkpt><trkpt lat="41.93051931558466" lon="12.418763830375141"><ele>106.99999999999999</ele><time>2026-05-03T16:27:53Z</time></trkpt><trkpt lat="41.93058819511608" lon="12.418842419501567"><ele>107.0</ele><time>2026-05-03T16:27:54Z</time></trkpt><trkpt lat="41.93066141840947" lon="12.418924344762715"><ele>107.0</ele><time>2026-05-03T16:27:55Z</time></trkpt><trkpt lat="41.930735180512" lon="12.419005106721173"><ele>107.0</ele><time>2026-05-03T16:27:56Z</time></trkpt><trkpt lat="41.930800670981206" lon="12.41908069140195"><ele>106.99999999999999</ele><time>2026-05-03T16:27:57Z</time></trkpt><trkpt lat="41.93086438547773" lon="12.419145642870042"><ele>107.0</ele><time>2026-05-03T16:27:58Z</time></trkpt><trkpt lat="41.93092365039374" lon="12.419205343235982"><ele>107.19999999999999</ele><time>2026-05-03T16:27:59Z</time></trkpt><trkpt lat="41.930981307426336" lon="12.419265675928116"><ele>107.39999999999999</ele><time>2026-05-03T16:28:00Z</time></trkpt><trkpt lat="41.93109811444348" lon="12.41938835119665"><ele>107.60000000000001</ele><time>2026-05-03T16:28:02Z</time></trkpt><trkpt lat="41.93115217398684" lon="12.419453037375625"><ele>107.80000000000001</ele><time>2026-05-03T16:28:03Z</time></trkpt><trkpt lat="41.931206598441165" lon="12.41952594026806"><ele>108.0</ele><time>2026-05-03T16:28:04Z</time></trkpt><trkpt lat="41.93127541198854" lon="12.419596628603589"><ele>107.5</ele><time>2026-05-03T16:28:05Z</time></trkpt><trkpt lat="41.93134782293843" lon="12.419670534335815"><ele>107.0</ele><time>2026-05-03T16:28:06Z</time></trkpt><trkpt lat="41.931419695365214" lon="12.419741364159028"><ele>106.5</ele><time>2026-05-03T16:28:07Z</time></trkpt><trkpt lat="41.931486424937034" lon="12.419819531761812"><ele>106.0</ele><time>2026-05-03T16:28:08Z</time></trkpt><trkpt lat="41.93154814613618" lon="12.419894855592796"><ele>105.5</ele><time>2026-05-03T16:28:09Z</time></trkpt><trkpt lat="41.931610837278235" lon="12.419969385071045"><ele>105.0</ele><time>2026-05-03T16:28:10Z</time></trkpt><trkpt lat="41.93166843336682" lon="12.420037117438223"><ele>105.83333333333333</ele><time>2026-05-03T16:28:10.999Z</time></trkpt><trkpt lat="41.93173367806537" lon="12.420097230728562"><ele>106.66666666666666</ele><time>2026-05-03T16:28:11.999Z</time></trkpt><trkpt lat="41.93181063886137" lon="12.420140405261646"><ele>107.5</ele><time>2026-05-03T16:28:12.999Z</time></trkpt><trkpt lat="41.931895767664294" lon="12.420158839178463"><ele>108.33333333333333</ele><time>2026-05-03T16:28:13.999Z</time></trkpt><trkpt lat="41.93198617016387" lon="12.420151215435563"><ele>109.16666666666666</ele><time>2026-05-03T16:28:14.999Z</time></trkpt><trkpt lat="41.93207598963815" lon="12.420120960094499"><ele>110.0</ele><time>2026-05-03T16:28:15.999Z</time></trkpt><trkpt lat="41.93216190507229" lon="12.420082516548653"><ele>109.99999999999999</ele><time>2026-05-03T16:28:16.999Z</time></trkpt><trkpt lat="41.93224202435279" lon="12.420043460906527"><ele>110.0</ele><time>2026-05-03T16:28:17.999Z</time></trkpt><trkpt lat="41.93232064787664" lon="12.420000673683159"><ele>110.0</ele><time>2026-05-03T16:28:18.999Z</time></trkpt><trkpt lat="41.93238912190845" lon="12.419964608369469"><ele>110.0</ele><time>2026-05-03T16:28:19.999Z</time></trkpt><trkpt lat="41.93245608559391" lon="12.419928764929677"><ele>109.99999999999999</ele><time>2026-05-03T16:28:20.999Z</time></trkpt><trkpt lat="41.932522328297814" lon="12.419894048340392"><ele>110.0</ele><time>2026-05-03T16:28:21.999Z</time></trkpt><trkpt lat="41.9325920825693" lon="12.419855675233652"><ele>110.2</ele><time>2026-05-03T16:28:22.999Z</time></trkpt><trkpt lat="41.93265840370704" lon="12.419823858665659"><ele>110.4</ele><time>2026-05-03T16:28:23.999Z</time></trkpt><trkpt lat="41.932724115761786" lon="12.4197870745354"><ele>110.6</ele><time>2026-05-03T16:28:24.999Z</time></trkpt><trkpt lat="41.93278544915509" lon="12.41975627791336"><ele>110.8</ele><time>2026-05-03T16:28:25.999Z</time></trkpt><trkpt lat="41.93288936913652" lon="12.419702778758484"><ele>111.0</ele><time>2026-05-03T16:28:27.999Z</time></trkpt><trkpt lat="41.93301117758249" lon="12.41962659017424"><ele>110.83333333333333</ele><time>2026-05-03T16:28:29.999Z</time></trkpt><trkpt lat="41.93308221326559" lon="12.419591591404622"><ele>110.66666666666666</ele><time>2026-05-03T16:28:30.999Z</time></trkpt><trkpt lat="41.933160200449436" lon="12.419551993117064"><ele>110.5</ele><time>2026-05-03T16:28:31.999Z</time></trkpt><trkpt lat="41.93323827863534" lon="12.419530265592664"><ele>110.33333333333333</ele><time>2026-05-03T16:28:32.999Z</time></trkpt><trkpt lat="41.93331427051352" lon="12.419521650698867"><ele>110.16666666666666</ele><time>2026-05-03T16:28:33.999Z</time></trkpt><trkpt lat="41.93339193249364" lon="12.419523547962692"><ele>110.0</ele><time>2026-05-03T16:28:34.999Z</time></trkpt><trkpt lat="41.933468283569475" lon="12.419549370367752"><ele>109.99999999999999</ele><time>2026-05-03T16:28:35.999Z</time></trkpt><trkpt lat="41.93353709477957" lon="12.419583392830988"><ele>110.0</ele><time>2026-05-03T16:28:36.999Z</time></trkpt><trkpt lat="41.9336081614214" lon="12.41962504141317"><ele>110.0</ele><time>2026-05-03T16:28:37.999Z</time></trkpt><trkpt lat="41.93366686520777" lon="12.419679531917696"><ele>110.0</ele><time>2026-05-03T16:28:38.999Z</time></trkpt><trkpt lat="41.933722341859756" lon="12.419739187721222"><ele>110.0</ele><time>2026-05-03T16:28:39.999Z</time></trkpt><trkpt lat="41.93377569227613" lon="12.419804919335977"><ele>109.99999999999999</ele><time>2026-05-03T16:28:40.999Z</time></trkpt><trkpt lat="41.93383402611062" lon="12.419873799124261"><ele>110.0</ele><time>2026-05-03T16:28:41.999Z</time></trkpt><trkpt lat="41.93389824647002" lon="12.419937012148699"><ele>109.99999999999999</ele><time>2026-05-03T16:28:42.999Z</time></trkpt><trkpt lat="41.93396270503552" lon="12.42000244652014"><ele>110.0</ele><time>2026-05-03T16:28:43.999Z</time></trkpt><trkpt lat="41.93403075613465" lon="12.420058087520596"><ele>110.0</ele><time>2026-05-03T16:28:44.999Z</time></trkpt><trkpt lat="41.93408823827203" lon="12.42011829227285"><ele>110.0</ele><time>2026-05-03T16:28:45.999Z</time></trkpt><trkpt lat="41.93414769329147" lon="12.420177016049145"><ele>110.0</ele><time>2026-05-03T16:28:46.999Z</time></trkpt><trkpt lat="41.934201982876225" lon="12.420230098063398"><ele>109.99999999999999</ele><time>2026-05-03T16:28:47.999Z</time></trkpt><trkpt lat="41.934251904135884" lon="12.42028253357163"><ele>110.0</ele><time>2026-05-03T16:28:48.999Z</time></trkpt><trkpt lat="41.934327665476104" lon="12.420360328956237"><ele>110.49999999999999</ele><time>2026-05-03T16:28:50.999Z</time></trkpt><trkpt lat="41.93439356660973" lon="12.42041421549842"><ele>111.0</ele><time>2026-05-03T16:28:52.999Z</time></trkpt><trkpt lat="41.9344665459733" lon="12.420482990026489"><ele>111.5</ele><time>2026-05-03T16:28:55.999Z</time></trkpt><trkpt lat="41.934537986074034" lon="12.420552279570053"><ele>112.0</ele><time>2026-05-03T16:28:58.999Z</time></trkpt><trkpt lat="41.93461255819842" lon="12.420617212099707"><ele>112.49999999999999</ele><time>2026-05-03T16:29:00.999Z</time></trkpt><trkpt lat="41.934681945735264" lon="12.420677414227944"><ele>113.0</ele><time>2026-05-03T16:29:02.999Z</time></trkpt><trkpt lat="41.934781789718194" lon="12.4207599338306"><ele>113.33333333333333</ele><time>2026-05-03T16:29:04.999Z</time></trkpt><trkpt lat="41.93482351569302" lon="12.420827434570718"><ele>113.66666666666666</ele><time>2026-05-03T16:29:05.999Z</time></trkpt><trkpt lat="41.93491450742608" lon="12.420929442390975"><ele>114.0</ele><time>2026-05-03T16:29:07.999Z</time></trkpt><trkpt lat="41.934963484396675" lon="12.420987173321086"><ele>114.33333333333334</ele><time>2026-05-03T16:29:08.999Z</time></trkpt><trkpt lat="41.93501377562497" lon="12.421044404410369"><ele>114.66666666666667</ele><time>2026-05-03T16:29:09.999Z</time></trkpt><trkpt lat="41.935101951265565" lon="12.421146050370048"><ele>115.0</ele><time>2026-05-03T16:29:12Z</time></trkpt><trkpt lat="41.93519185006719" lon="12.421249682738068"><ele>115.4</ele><time>2026-05-03T16:29:14Z</time></trkpt><trkpt lat="41.935271895465064" lon="12.421341956419315"><ele>115.8</ele><time>2026-05-03T16:29:16Z</time></trkpt><trkpt lat="41.93534602364608" lon="12.421433515066994"><ele>116.19999999999999</ele><time>2026-05-03T16:29:18Z</time></trkpt><trkpt lat="41.93541911692412" lon="12.421536486206895"><ele>116.6</ele><time>2026-05-03T16:29:20Z</time></trkpt><trkpt lat="41.93549718654782" lon="12.421630234297014"><ele>117.0</ele><time>2026-05-03T16:29:22Z</time></trkpt><trkpt lat="41.935603899380304" lon="12.421717819715832"><ele>117.0</ele><time>2026-05-03T16:29:24Z</time></trkpt><trkpt lat="41.93570451145663" lon="12.42183436271136"><ele>117.0</ele><time>2026-05-03T16:29:26Z</time></trkpt><trkpt lat="41.93575539738132" lon="12.421908360575031"><ele>117.0</ele><time>2026-05-03T16:29:27Z</time></trkpt><trkpt lat="41.93581533775611" lon="12.421970466978282"><ele>117.0</ele><time>2026-05-03T16:29:28Z</time></trkpt><trkpt lat="41.935874825717924" lon="12.422031576754744"><ele>117.0</ele><time>2026-05-03T16:29:29Z</time></trkpt><trkpt lat="41.93593424867731" lon="12.4221024108586"><ele>117.0</ele><time>2026-05-03T16:29:30Z</time></trkpt><trkpt lat="41.93599198049662" lon="12.422179698093759"><ele>118.16666666666667</ele><time>2026-05-03T16:29:31Z</time></trkpt><trkpt lat="41.9360488260373" lon="12.422250768628583"><ele>119.33333333333334</ele><time>2026-05-03T16:29:32Z</time></trkpt><trkpt lat="41.93610091240692" lon="12.422305346841929"><ele>120.5</ele><time>2026-05-03T16:29:33Z</time></trkpt><trkpt lat="41.936175088055705" lon="12.422402752383794"><ele>121.66666666666667</ele><time>2026-05-03T16:29:35Z</time></trkpt><trkpt lat="41.93626311398552" lon="12.422501831522604"><ele>122.83333333333334</ele><time>2026-05-03T16:29:37Z</time></trkpt><trkpt lat="41.93631384389819" lon="12.422560211287337"><ele>124.0</ele><time>2026-05-03T16:29:38Z</time></trkpt><trkpt lat="41.936359686713544" lon="12.422634413694457"><ele>124.00000000000001</ele><time>2026-05-03T16:29:39Z</time></trkpt><trkpt lat="41.936430077827346" lon="12.422780438229426"><ele>124.0</ele><time>2026-05-03T16:29:41Z</time></trkpt><trkpt lat="41.9364433375316" lon="12.4228689949085"><ele>124.0</ele><time>2026-05-03T16:29:42Z</time></trkpt><trkpt lat="41.93646657722336" lon="12.422960552059518"><ele>124.0</ele><time>2026-05-03T16:29:43Z</time></trkpt><trkpt lat="41.936493441756255" lon="12.423037820525275"><ele>124.00000000000001</ele><time>2026-05-03T16:29:44Z</time></trkpt><trkpt lat="41.93654465207989" lon="12.42310761814137"><ele>124.0</ele><time>2026-05-03T16:29:45Z</time></trkpt><trkpt lat="41.93659911273407" lon="12.423223182135446"><ele>123.4</ele><time>2026-05-03T16:29:47Z</time></trkpt><trkpt lat="41.93664001467359" lon="12.423344970071811"><ele>122.80000000000001</ele><time>2026-05-03T16:29:49Z</time></trkpt><trkpt lat="41.936726691372186" lon="12.423462763066274"><ele>122.19999999999999</ele><time>2026-05-03T16:29:51Z</time></trkpt><trkpt lat="41.936769271918656" lon="12.423542583570633"><ele>121.6</ele><time>2026-05-03T16:29:52Z</time></trkpt><trkpt lat="41.93679331847862" lon="12.423629921056106"><ele>121.0</ele><time>2026-05-03T16:29:53Z</time></trkpt><trkpt lat="41.93686115251958" lon="12.423772872441004"><ele>121.4</ele><time>2026-05-03T16:29:55Z</time></trkpt><trkpt lat="41.936927318312804" lon="12.423896793769593"><ele>121.8</ele><time>2026-05-03T16:29:57Z</time></trkpt><trkpt lat="41.93700247681174" lon="12.424019046764881"><ele>122.20000000000002</ele><time>2026-05-03T16:29:59Z</time></trkpt><trkpt lat="41.937046757758026" lon="12.424090881663046"><ele>122.60000000000001</ele><time>2026-05-03T16:30:00Z</time></trkpt><trkpt lat="41.93709926431444" lon="12.424167436359907"><ele>123.0</ele><time>2026-05-03T16:30:01Z</time></trkpt><trkpt lat="41.937141715190926" lon="12.42425378985919"><ele>123.0</ele><time>2026-05-03T16:30:02Z</time></trkpt><trkpt lat="41.93718290870722" lon="12.42433136648613"><ele>123.0</ele><time>2026-05-03T16:30:03Z</time></trkpt><trkpt lat="41.93722333957852" lon="12.424410139299917"><ele>123.0</ele><time>2026-05-03T16:30:04Z</time></trkpt><trkpt lat="41.937270977453984" lon="12.424485709082276"><ele>123.0</ele><time>2026-05-03T16:30:05Z</time></trkpt><trkpt lat="41.93730809307093" lon="12.424562240497066"><ele>123.0</ele><time>2026-05-03T16:30:06Z</time></trkpt><trkpt lat="41.93733053350771" lon="12.424711377463009"><ele>123.0</ele><time>2026-05-03T16:30:08Z</time></trkpt><trkpt lat="41.937288697729024" lon="12.424819921517456"><ele>123.4</ele><time>2026-05-03T16:30:10Z</time></trkpt><trkpt lat="41.93721370198449" lon="12.424950463686342"><ele>123.80000000000001</ele><time>2026-05-03T16:30:12Z</time></trkpt><trkpt lat="41.93714402370992" lon="12.42499335823688"><ele>124.2</ele><time>2026-05-03T16:30:13Z</time></trkpt><trkpt lat="41.93706063874278" lon="12.425046924685898"><ele>124.6</ele><time>2026-05-03T16:30:14Z</time></trkpt><trkpt lat="41.93698141976891" lon="12.425097815001267"><ele>125.0</ele><time>2026-05-03T16:30:15Z</time></trkpt><trkpt lat="41.93689943575307" lon="12.425151794211127"><ele>124.99999999999999</ele><time>2026-05-03T16:30:16Z</time></trkpt><trkpt lat="41.9368242492094" lon="12.425187276925737"><ele>125.0</ele><time>2026-05-03T16:30:17Z</time></trkpt><trkpt lat="41.9367490132281" lon="12.425236227530936"><ele>125.0</ele><time>2026-05-03T16:30:18Z</time></trkpt><trkpt lat="41.93668448534548" lon="12.425279724867488"><ele>125.0</ele><time>2026-05-03T16:30:19Z</time></trkpt><trkpt lat="41.936617345496316" lon="12.42532855883051"><ele>124.99999999999999</ele><time>2026-05-03T16:30:20Z</time></trkpt><trkpt lat="41.93654848968353" lon="12.4253764937141"><ele>125.0</ele><time>2026-05-03T16:30:21Z</time></trkpt><trkpt lat="41.93647703749192" lon="12.425432168647665"><ele>124.57142857142857</ele><time>2026-05-03T16:30:22Z</time></trkpt><trkpt lat="41.93641219688792" lon="12.425489255659635"><ele>124.14285714285714</ele><time>2026-05-03T16:30:23Z</time></trkpt><trkpt lat="41.93635253103229" lon="12.425542543401773"><ele>123.71428571428571</ele><time>2026-05-03T16:30:23.999Z</time></trkpt><trkpt lat="41.936293655549385" lon="12.425602277010864"><ele>123.28571428571428</ele><time>2026-05-03T16:30:24.999Z</time></trkpt><trkpt lat="41.93623896209882" lon="12.425664362283445"><ele>122.85714285714286</ele><time>2026-05-03T16:30:25.999Z</time></trkpt><trkpt lat="41.936178111650925" lon="12.425730548724145"><ele>122.42857142857142</ele><time>2026-05-03T16:30:26.999Z</time></trkpt><trkpt lat="41.936132854137014" lon="12.425795356310399"><ele>121.99999999999999</ele><time>2026-05-03T16:30:27.999Z</time></trkpt><trkpt lat="41.93603112979843" lon="12.425900982508711"><ele>121.99999999999999</ele><time>2026-05-03T16:30:29.999Z</time></trkpt><trkpt lat="41.93597322124315" lon="12.425967205917603"><ele>122.0</ele><time>2026-05-03T16:30:30.999Z</time></trkpt><trkpt lat="41.935923242159625" lon="12.426073981276465"><ele>122.0</ele><time>2026-05-03T16:30:31.999Z</time></trkpt><trkpt lat="41.93585217324618" lon="12.426155337833666"><ele>122.0</ele><time>2026-05-03T16:30:32.999Z</time></trkpt><trkpt lat="41.935783339580176" lon="12.426227550273888"><ele>121.99999999999999</ele><time>2026-05-03T16:30:33.999Z</time></trkpt><trkpt lat="41.93571456693467" lon="12.426291964787275"><ele>122.0</ele><time>2026-05-03T16:30:34.999Z</time></trkpt><trkpt lat="41.93563994700962" lon="12.426340422654738"><ele>121.25</ele><time>2026-05-03T16:30:35.999Z</time></trkpt><trkpt lat="41.93556618449179" lon="12.426386012159258"><ele>120.5</ele><time>2026-05-03T16:30:36.999Z</time></trkpt><trkpt lat="41.93548921315237" lon="12.426489798922884"><ele>119.75</ele><time>2026-05-03T16:30:38.999Z</time></trkpt><trkpt lat="41.935500899521855" lon="12.426636952147934"><ele>119.0</ele><time>2026-05-03T16:30:40.999Z</time></trkpt><trkpt lat="41.93557084377054" lon="12.426814996253874"><ele>119.0</ele><time>2026-05-03T16:30:41.999Z</time></trkpt><trkpt lat="41.93565074698832" lon="12.426876675634551"><ele>119.0</ele><time>2026-05-03T16:30:42.999Z</time></trkpt><trkpt lat="41.93573092972541" lon="12.426986708206242"><ele>119.0</ele><time>2026-05-03T16:30:43.999Z</time></trkpt><trkpt lat="41.93579254902812" lon="12.427057460520036"><ele>119.0</ele><time>2026-05-03T16:30:44.999Z</time></trkpt><trkpt lat="41.93587676685617" lon="12.427124597448318"><ele>119.0</ele><time>2026-05-03T16:30:45.999Z</time></trkpt><trkpt lat="41.935966049600005" lon="12.427197926117135"><ele>120.25</ele><time>2026-05-03T16:30:46.999Z</time></trkpt><trkpt lat="41.9360551446428" lon="12.427286853818442"><ele>121.5</ele><time>2026-05-03T16:30:47.999Z</time></trkpt><trkpt lat="41.936146348478054" lon="12.427389138503083"><ele>122.75</ele><time>2026-05-03T16:30:48.999Z</time></trkpt><trkpt lat="41.93623617508649" lon="12.427506978969198"><ele>124.0</ele><time>2026-05-03T16:30:49.999Z</time></trkpt><trkpt lat="41.93632367912407" lon="12.427642066472204"><ele>124.0</ele><time>2026-05-03T16:30:50.999Z</time></trkpt><trkpt lat="41.93640794259026" lon="12.427783147848398"><ele>124.0</ele><time>2026-05-03T16:30:51.999Z</time></trkpt><trkpt lat="41.936437476639824" lon="12.42796707223652"><ele>124.0</ele><time>2026-05-03T16:30:52.999Z</time></trkpt><trkpt lat="41.936494381963385" lon="12.428115404178014"><ele>124.0</ele><time>2026-05-03T16:30:53.999Z</time></trkpt><trkpt lat="41.93654920753023" lon="12.428273936860382"><ele>124.25</ele><time>2026-05-03T16:30:54.999Z</time></trkpt><trkpt lat="41.93661571538521" lon="12.428423268242632"><ele>124.5</ele><time>2026-05-03T16:30:56.012Z</time></trkpt><trkpt lat="41.93665162242519" lon="12.428582445834314"><ele>124.75</ele><time>2026-05-03T16:30:57.013Z</time></trkpt><trkpt lat="41.93667221877667" lon="12.42874435083321"><ele>125.0</ele><time>2026-05-03T16:30:58.013Z</time></trkpt><trkpt lat="41.936678900182486" lon="12.428907267914255"><ele>125.0</ele><time>2026-05-03T16:30:59.012Z</time></trkpt><trkpt lat="41.936683162566226" lon="12.429070935029372"><ele>125.0</ele><time>2026-05-03T16:31:00.012Z</time></trkpt><trkpt lat="41.936475719724534" lon="12.431723957797091"><ele>44.0</ele><time>2026-05-03T16:31:04.001Z</time></trkpt><trkpt lat="41.93869984246971" lon="12.458182107668796"><ele>44.0</ele><time>2026-05-03T16:33:51.997Z</time></trkpt><trkpt lat="41.938714040870515" lon="12.458375188107363"><ele>44.0</ele><time>2026-05-03T16:33:52.997Z</time></trkpt><trkpt lat="41.93882518436393" lon="12.458552855255226"><ele>44.0</ele><time>2026-05-03T16:33:53.997Z</time></trkpt><trkpt lat="41.93891146331041" lon="12.458718018355645"><ele>42.75</ele><time>2026-05-03T16:33:54.997Z</time></trkpt><trkpt lat="41.93899477495102" lon="12.458875415620776"><ele>41.5</ele><time>2026-05-03T16:33:55.997Z</time></trkpt><trkpt lat="41.93905558569481" lon="12.459049005130048"><ele>40.25</ele><time>2026-05-03T16:33:56.997Z</time></trkpt><trkpt lat="41.939125419640526" lon="12.45922696896644"><ele>39.0</ele><time>2026-05-03T16:33:58.002Z</time></trkpt><trkpt lat="41.93917752768731" lon="12.459407104892204"><ele>40.5</ele><time>2026-05-03T16:33:59.002Z</time></trkpt><trkpt lat="41.939230201921646" lon="12.45958205661611"><ele>42.0</ele><time>2026-05-03T16:34:00.002Z</time></trkpt><trkpt lat="41.93930129297819" lon="12.459738394042292"><ele>43.5</ele><time>2026-05-03T16:34:01.002Z</time></trkpt><trkpt lat="41.93934638039669" lon="12.459908425158211"><ele>45.0</ele><time>2026-05-03T16:34:02.002Z</time></trkpt><trkpt lat="41.93940548473247" lon="12.460072330966431"><ele>45.0</ele><time>2026-05-03T16:34:03.002Z</time></trkpt><trkpt lat="41.939457972396724" lon="12.46023855517577"><ele>45.0</ele><time>2026-05-03T16:34:04.002Z</time></trkpt><trkpt lat="41.939509810536364" lon="12.460401824586857"><ele>45.0</ele><time>2026-05-03T16:34:05.002Z</time></trkpt><trkpt lat="41.93956338840653" lon="12.460561515184818"><ele>45.0</ele><time>2026-05-03T16:34:06.001Z</time></trkpt><trkpt lat="41.93961575742857" lon="12.460732067185253"><ele>45.75</ele><time>2026-05-03T16:34:07.001Z</time></trkpt><trkpt lat="41.93967304097104" lon="12.460892422404367"><ele>46.5</ele><time>2026-05-03T16:34:08.001Z</time></trkpt><trkpt lat="41.93972776314478" lon="12.461050321696836"><ele>47.25</ele><time>2026-05-03T16:34:09.001Z</time></trkpt><trkpt lat="41.93978440329477" lon="12.461211800693212"><ele>48.0</ele><time>2026-05-03T16:34:10.001Z</time></trkpt><trkpt lat="41.93983937005131" lon="12.461371238915307"><ele>46.5</ele><time>2026-05-03T16:34:11.001Z</time></trkpt><trkpt lat="41.9398982158495" lon="12.461530395895004"><ele>45.0</ele><time>2026-05-03T16:34:12.001Z</time></trkpt><trkpt lat="41.93994347235162" lon="12.461700778318296"><ele>43.5</ele><time>2026-05-03T16:34:13.001Z</time></trkpt><trkpt lat="41.939998922235446" lon="12.461860017059768"><ele>42.0</ele><time>2026-05-03T16:34:14.001Z</time></trkpt><trkpt lat="41.94007249105293" lon="12.462016348460196"><ele>40.0</ele><time>2026-05-03T16:34:15.001Z</time></trkpt><trkpt lat="41.94012010014516" lon="12.462173787029561"><ele>38.0</ele><time>2026-05-03T16:34:16.001Z</time></trkpt><trkpt lat="41.940169558336436" lon="12.462341992180379"><ele>36.0</ele><time>2026-05-03T16:34:17.001Z</time></trkpt><trkpt lat="41.940207679334804" lon="12.462529394130124"><ele>34.0</ele><time>2026-05-03T16:34:18.001Z</time></trkpt><trkpt lat="41.940253726145414" lon="12.462702430443576"><ele>34.0</ele><time>2026-05-03T16:34:19.001Z</time></trkpt><trkpt lat="41.94029783724187" lon="12.462880430252442"><ele>34.0</ele><time>2026-05-03T16:34:20.001Z</time></trkpt><trkpt lat="41.94033539528277" lon="12.463053092904799"><ele>34.0</ele><time>2026-05-03T16:34:21.001Z</time></trkpt><trkpt lat="41.94038785833345" lon="12.463204196257688"><ele>34.0</ele><time>2026-05-03T16:34:22.001Z</time></trkpt><trkpt lat="41.940434220688815" lon="12.463378314475658"><ele>35.5</ele><time>2026-05-03T16:34:23.001Z</time></trkpt><trkpt lat="41.9404522694182" lon="12.463551003673103"><ele>37.0</ele><time>2026-05-03T16:34:24Z</time></trkpt><trkpt lat="41.940500734874405" lon="12.463726924675123"><ele>38.5</ele><time>2026-05-03T16:34:25Z</time></trkpt><trkpt lat="41.940553128590736" lon="12.463915968842606"><ele>40.0</ele><time>2026-05-03T16:34:26Z</time></trkpt><trkpt lat="41.94057395280713" lon="12.464059306461504"><ele>41.25</ele><time>2026-05-03T16:34:27Z</time></trkpt><trkpt lat="41.9406148110159" lon="12.464216544135954"><ele>42.5</ele><time>2026-05-03T16:34:28Z</time></trkpt><trkpt lat="41.94065191731477" lon="12.464393368280987"><ele>43.75</ele><time>2026-05-03T16:34:29Z</time></trkpt><trkpt lat="41.940689498260085" lon="12.464541400046665"><ele>45.0</ele><time>2026-05-03T16:34:30Z</time></trkpt><trkpt lat="41.940736041717635" lon="12.46469371435029"><ele>45.0</ele><time>2026-05-03T16:34:31Z</time></trkpt><trkpt lat="41.94073097970927" lon="12.464831179807357"><ele>45.0</ele><time>2026-05-03T16:34:32Z</time></trkpt><trkpt lat="41.94074358036236" lon="12.464990591788595"><ele>45.0</ele><time>2026-05-03T16:34:33Z</time></trkpt><trkpt lat="41.94077984778393" lon="12.465157256674402"><ele>45.0</ele><time>2026-05-03T16:34:34Z</time></trkpt><trkpt lat="41.94083655724137" lon="12.465353262809707"><ele>45.0</ele><time>2026-05-03T16:34:35Z</time></trkpt><trkpt lat="41.940852336287485" lon="12.465509988040846"><ele>45.0</ele><time>2026-05-03T16:34:36Z</time></trkpt><trkpt lat="41.94087123896417" lon="12.465663063922165"><ele>45.0</ele><time>2026-05-03T16:34:37Z</time></trkpt><trkpt lat="41.94089780951902" lon="12.465857425326531"><ele>45.0</ele><time>2026-05-03T16:34:38Z</time></trkpt><trkpt lat="41.94092953514288" lon="12.466032849524193"><ele>46.5</ele><time>2026-05-03T16:34:39Z</time></trkpt><trkpt lat="41.940949365937506" lon="12.46621060386479"><ele>48.0</ele><time>2026-05-03T16:34:40Z</time></trkpt><trkpt lat="41.94098348929775" lon="12.46642633737396"><ele>49.5</ele><time>2026-05-03T16:34:41Z</time></trkpt><trkpt lat="41.940981816805795" lon="12.466613835699"><ele>51.0</ele><time>2026-05-03T16:34:42Z</time></trkpt><trkpt lat="41.940982033127135" lon="12.466817471651877"><ele>51.25</ele><time>2026-05-03T16:34:43Z</time></trkpt><trkpt lat="41.9409876741608" lon="12.467000817897175"><ele>51.5</ele><time>2026-05-03T16:34:44Z</time></trkpt><trkpt lat="41.94098054400549" lon="12.467164447554842"><ele>51.75</ele><time>2026-05-03T16:34:45Z</time></trkpt><trkpt lat="41.940972703167155" lon="12.467354232391074"><ele>52.0</ele><time>2026-05-03T16:34:46Z</time></trkpt><trkpt lat="41.940967898854495" lon="12.467531540823005"><ele>52.75</ele><time>2026-05-03T16:34:47Z</time></trkpt><trkpt lat="41.94096295438852" lon="12.467706355203006"><ele>53.5</ele><time>2026-05-03T16:34:48Z</time></trkpt><trkpt lat="41.94094437004322" lon="12.467893528220044"><ele>54.25</ele><time>2026-05-03T16:34:49Z</time></trkpt><trkpt lat="41.940936105208806" lon="12.468068130841031"><ele>55.0</ele><time>2026-05-03T16:34:50Z</time></trkpt><trkpt lat="41.94092445316021" lon="12.468245477504658"><ele>55.0</ele><time>2026-05-03T16:34:51Z</time></trkpt><trkpt lat="41.940918738611856" lon="12.468418699384554"><ele>55.0</ele><time>2026-05-03T16:34:52Z</time></trkpt><trkpt lat="41.94090652478295" lon="12.468591211741684"><ele>55.0</ele><time>2026-05-03T16:34:53Z</time></trkpt><trkpt lat="41.94089603917308" lon="12.468765562156495"><ele>55.0</ele><time>2026-05-03T16:34:54Z</time></trkpt><trkpt lat="41.94088817901556" lon="12.468938668818238"><ele>50.0</ele><time>2026-05-03T16:34:55Z</time></trkpt><trkpt lat="41.94087880600872" lon="12.469106520879452"><ele>45.0</ele><time>2026-05-03T16:34:56Z</time></trkpt><trkpt lat="41.94086849288523" lon="12.46927342269366"><ele>40.0</ele><time>2026-05-03T16:34:57Z</time></trkpt><trkpt lat="41.94085813001699" lon="12.469443780871917"><ele>35.0</ele><time>2026-05-03T16:34:58Z</time></trkpt><trkpt lat="41.940853587147664" lon="12.469611117964481"><ele>33.75</ele><time>2026-05-03T16:34:59Z</time></trkpt><trkpt lat="41.94084887136684" lon="12.469772178260666"><ele>32.5</ele><time>2026-05-03T16:35:00Z</time></trkpt><trkpt lat="41.94084336122977" lon="12.469937667830113"><ele>31.25</ele><time>2026-05-03T16:35:01Z</time></trkpt><trkpt lat="41.94084250764727" lon="12.470105499606802"><ele>30.0</ele><time>2026-05-03T16:35:02Z</time></trkpt><trkpt lat="41.94083820695197" lon="12.470263321678177"><ele>30.0</ele><time>2026-05-03T16:35:03Z</time></trkpt><trkpt lat="41.9408327632662" lon="12.470431746506579"><ele>30.0</ele><time>2026-05-03T16:35:04Z</time></trkpt><trkpt lat="41.94082859747168" lon="12.470596455724923"><ele>30.0</ele><time>2026-05-03T16:35:04.999Z</time></trkpt><trkpt lat="41.94081606583068" lon="12.470762461644401"><ele>30.0</ele><time>2026-05-03T16:35:05.999Z</time></trkpt><trkpt lat="41.94080941957177" lon="12.470927928512495"><ele>29.75</ele><time>2026-05-03T16:35:06.999Z</time></trkpt><trkpt lat="41.940802163019065" lon="12.471084783683418"><ele>29.5</ele><time>2026-05-03T16:35:07.999Z</time></trkpt><trkpt lat="41.94079404150422" lon="12.471240265902402"><ele>29.25</ele><time>2026-05-03T16:35:08.999Z</time></trkpt><trkpt lat="41.94078430176776" lon="12.471397841589013"><ele>29.0</ele><time>2026-05-03T16:35:09.999Z</time></trkpt><trkpt lat="41.940776855918024" lon="12.471558753737945"><ele>29.75</ele><time>2026-05-03T16:35:10.999Z</time></trkpt><trkpt lat="41.940771125544245" lon="12.471725718213891"><ele>30.5</ele><time>2026-05-03T16:35:11.999Z</time></trkpt><trkpt lat="41.940764876980936" lon="12.471897438754654"><ele>31.25</ele><time>2026-05-03T16:35:12.999Z</time></trkpt><trkpt lat="41.940757053586786" lon="12.472076479213213"><ele>32.0</ele><time>2026-05-03T16:35:13.999Z</time></trkpt><trkpt lat="41.94075619200384" lon="12.472250245351498"><ele>33.0</ele><time>2026-05-03T16:35:14.999Z</time></trkpt><trkpt lat="41.94075482993786" lon="12.4724206926542"><ele>34.0</ele><time>2026-05-03T16:35:15.999Z</time></trkpt><trkpt lat="41.940760319338345" lon="12.472594209082466"><ele>35.0</ele><time>2026-05-03T16:35:16.999Z</time></trkpt><trkpt lat="41.94074809268062" lon="12.472793796023314"><ele>36.0</ele><time>2026-05-03T16:35:17.999Z</time></trkpt><trkpt lat="41.94075295590199" lon="12.472972148592234"><ele>38.25</ele><time>2026-05-03T16:35:18.999Z</time></trkpt><trkpt lat="41.94075027373427" lon="12.47313900765236"><ele>40.5</ele><time>2026-05-03T16:35:19.999Z</time></trkpt><trkpt lat="41.94074793069246" lon="12.473314786050326"><ele>42.75</ele><time>2026-05-03T16:35:20.999Z</time></trkpt><trkpt lat="41.94073705698248" lon="12.473502767812676"><ele>45.0</ele><time>2026-05-03T16:35:21.999Z</time></trkpt><trkpt lat="41.94072069947251" lon="12.47368004559535"><ele>46.5</ele><time>2026-05-03T16:35:22.999Z</time></trkpt><trkpt lat="41.940711306278736" lon="12.473842287707154"><ele>48.0</ele><time>2026-05-03T16:35:23.999Z</time></trkpt><trkpt lat="41.94069810479783" lon="12.474016495934574"><ele>49.5</ele><time>2026-05-03T16:35:25.012Z</time></trkpt><trkpt lat="41.94068248006324" lon="12.474181253939147"><ele>51.0</ele><time>2026-05-03T16:35:26.012Z</time></trkpt><trkpt lat="41.94067387279379" lon="12.474358102318856"><ele>51.0</ele><time>2026-05-03T16:35:27.013Z</time></trkpt><trkpt lat="41.94066470999122" lon="12.474532780021308"><ele>51.0</ele><time>2026-05-03T16:35:28.013Z</time></trkpt><trkpt lat="41.94065283315441" lon="12.474700191908275"><ele>51.0</ele><time>2026-05-03T16:35:29.013Z</time></trkpt><trkpt lat="41.94064713225684" lon="12.474874879906324"><ele>51.0</ele><time>2026-05-03T16:35:30.012Z</time></trkpt><trkpt lat="41.94063944807791" lon="12.47505275895523"><ele>52.66666666666667</ele><time>2026-05-03T16:35:31.014Z</time></trkpt><trkpt lat="41.94063043862707" lon="12.475223316011808"><ele>54.333333333333336</ele><time>2026-05-03T16:35:32.013Z</time></trkpt><trkpt lat="41.94062127833328" lon="12.475394652192083"><ele>56.0</ele><time>2026-05-03T16:35:33.013Z</time></trkpt><trkpt lat="41.940555218646246" lon="12.476848689850863"><ele>52.0</ele><time>2026-05-03T16:35:39.999Z</time></trkpt><trkpt lat="41.94054626836822" lon="12.477026027878175"><ele>48.0</ele><time>2026-05-03T16:35:40.999Z</time></trkpt><trkpt lat="41.940539253520136" lon="12.47711605642741"><ele>44.0</ele><time>2026-05-03T16:35:41.999Z</time></trkpt><trkpt lat="41.94053780357224" lon="12.477280898325498"><ele>40.0</ele><time>2026-05-03T16:35:42.999Z</time></trkpt><trkpt lat="41.94052418636933" lon="12.477452156745704"><ele>35.25</ele><time>2026-05-03T16:35:43.999Z</time></trkpt><trkpt lat="41.9405162496029" lon="12.477634958306899"><ele>30.5</ele><time>2026-05-03T16:35:44.999Z</time></trkpt><trkpt lat="41.94051643966139" lon="12.47782861788856"><ele>25.75</ele><time>2026-05-03T16:35:45.999Z</time></trkpt><trkpt lat="41.94050828247345" lon="12.47801250746938"><ele>21.0</ele><time>2026-05-03T16:35:46.999Z</time></trkpt><trkpt lat="41.94049814339841" lon="12.4781938836285"><ele>20.25</ele><time>2026-05-03T16:35:47.999Z</time></trkpt><trkpt lat="41.94049149595628" lon="12.478381380830669"><ele>19.5</ele><time>2026-05-03T16:35:48.999Z</time></trkpt><trkpt lat="41.94048297934606" lon="12.478568379058782"><ele>18.75</ele><time>2026-05-03T16:35:49.999Z</time></trkpt><trkpt lat="41.940475301391224" lon="12.478758326802398"><ele>18.0</ele><time>2026-05-03T16:35:50.999Z</time></trkpt><trkpt lat="41.94046356482303" lon="12.478946601417627"><ele>18.0</ele><time>2026-05-03T16:35:51.999Z</time></trkpt><trkpt lat="41.94045019566391" lon="12.479135842812509"><ele>18.0</ele><time>2026-05-03T16:35:52.999Z</time></trkpt><trkpt lat="41.94043866510461" lon="12.479328115061127"><ele>18.0</ele><time>2026-05-03T16:35:53.999Z</time></trkpt><trkpt lat="41.94042303868825" lon="12.479518619552946"><ele>18.0</ele><time>2026-05-03T16:35:54.999Z</time></trkpt><trkpt lat="41.94040343545026" lon="12.479713201052006"><ele>17.75</ele><time>2026-05-03T16:35:55.999Z</time></trkpt><trkpt lat="41.94038581050241" lon="12.479903658317305"><ele>17.5</ele><time>2026-05-03T16:35:56.999Z</time></trkpt><trkpt lat="41.94036137092455" lon="12.480095904596348"><ele>17.25</ele><time>2026-05-03T16:35:57.999Z</time></trkpt><trkpt lat="41.940338720829956" lon="12.48028798045309"><ele>17.0</ele><time>2026-05-03T16:35:58.999Z</time></trkpt><trkpt lat="41.940309105086264" lon="12.480475502437063"><ele>16.75</ele><time>2026-05-03T16:35:59.999Z</time></trkpt><trkpt lat="41.94027898423515" lon="12.48067402321856"><ele>16.5</ele><time>2026-05-03T16:36:00.999Z</time></trkpt><trkpt lat="41.94026213345371" lon="12.480864976706826"><ele>16.25</ele><time>2026-05-03T16:36:01.999Z</time></trkpt><trkpt lat="41.94024336125942" lon="12.48105576443048"><ele>16.0</ele><time>2026-05-03T16:36:02.999Z</time></trkpt><trkpt lat="41.9402224476445" lon="12.481244507892745"><ele>16.75</ele><time>2026-05-03T16:36:04.001Z</time></trkpt><trkpt lat="41.940199800297925" lon="12.481439045217432"><ele>17.5</ele><time>2026-05-03T16:36:05.001Z</time></trkpt><trkpt lat="41.940176415263686" lon="12.481631628375297"><ele>18.25</ele><time>2026-05-03T16:36:06.001Z</time></trkpt><trkpt lat="41.94015240102168" lon="12.481823627464548"><ele>19.0</ele><time>2026-05-03T16:36:07.001Z</time></trkpt><trkpt lat="41.94013640260196" lon="12.48201628654404"><ele>19.0</ele><time>2026-05-03T16:36:08.001Z</time></trkpt><trkpt lat="41.94011411360987" lon="12.482207267461044"><ele>19.0</ele><time>2026-05-03T16:36:09.001Z</time></trkpt><trkpt lat="41.94009038096662" lon="12.482396431110091"><ele>19.0</ele><time>2026-05-03T16:36:10.001Z</time></trkpt><trkpt lat="41.94007235464537" lon="12.482589166303608"><ele>19.0</ele><time>2026-05-03T16:36:11.001Z</time></trkpt><trkpt lat="41.94004609285529" lon="12.482780080825032"><ele>19.75</ele><time>2026-05-03T16:36:12Z</time></trkpt><trkpt lat="41.9400182328269" lon="12.482971331244222"><ele>20.5</ele><time>2026-05-03T16:36:13Z</time></trkpt><trkpt lat="41.93999224203836" lon="12.48316037532785"><ele>21.25</ele><time>2026-05-03T16:36:14Z</time></trkpt><trkpt lat="41.93996725937486" lon="12.483350695187154"><ele>22.0</ele><time>2026-05-03T16:36:15Z</time></trkpt><trkpt lat="41.93994227916591" lon="12.48353940413626"><ele>22.0</ele><time>2026-05-03T16:36:16Z</time></trkpt><trkpt lat="41.93991262120835" lon="12.483724993790096"><ele>22.0</ele><time>2026-05-03T16:36:17Z</time></trkpt><trkpt lat="41.93988522701912" lon="12.483913321944511"><ele>22.0</ele><time>2026-05-03T16:36:18Z</time></trkpt><trkpt lat="41.939859473575204" lon="12.484101773785813"><ele>22.0</ele><time>2026-05-03T16:36:19Z</time></trkpt><trkpt lat="41.93983840339255" lon="12.484282227584178"><ele>21.75</ele><time>2026-05-03T16:36:20Z</time></trkpt><trkpt lat="41.939817172161725" lon="12.484463684447846"><ele>21.5</ele><time>2026-05-03T16:36:21Z</time></trkpt><trkpt lat="41.93979201001614" lon="12.484645352522735"><ele>21.25</ele><time>2026-05-03T16:36:22Z</time></trkpt><trkpt lat="41.93977847358881" lon="12.484827155110962"><ele>21.0</ele><time>2026-05-03T16:36:23Z</time></trkpt><trkpt lat="41.93975855637233" lon="12.485006869590459"><ele>20.75</ele><time>2026-05-03T16:36:24Z</time></trkpt><trkpt lat="41.939736765168774" lon="12.485188691322367"><ele>20.5</ele><time>2026-05-03T16:36:25Z</time></trkpt><trkpt lat="41.93971658889904" lon="12.485367003330955"><ele>20.25</ele><time>2026-05-03T16:36:26Z</time></trkpt><trkpt lat="41.93969301748773" lon="12.485543798304922"><ele>20.0</ele><time>2026-05-03T16:36:27Z</time></trkpt><trkpt lat="41.93967191901036" lon="12.485714714482503"><ele>19.75</ele><time>2026-05-03T16:36:28Z</time></trkpt><trkpt lat="41.9396504367125" lon="12.485892867039723"><ele>19.5</ele><time>2026-05-03T16:36:29Z</time></trkpt><trkpt lat="41.93962520038239" lon="12.486067283363944"><ele>19.25</ele><time>2026-05-03T16:36:30Z</time></trkpt><trkpt lat="41.939606913917295" lon="12.486242430606168"><ele>19.0</ele><time>2026-05-03T16:36:31Z</time></trkpt><trkpt lat="41.93958501342066" lon="12.486416974204474"><ele>18.25</ele><time>2026-05-03T16:36:32Z</time></trkpt><trkpt lat="41.93956251742659" lon="12.486599158531002"><ele>17.5</ele><time>2026-05-03T16:36:33Z</time></trkpt><trkpt lat="41.939542130240476" lon="12.486781536551776"><ele>16.75</ele><time>2026-05-03T16:36:34Z</time></trkpt><trkpt lat="41.939520112817355" lon="12.486964821669336"><ele>16.0</ele><time>2026-05-03T16:36:35Z</time></trkpt><trkpt lat="41.93949640975308" lon="12.487150397781397"><ele>16.0</ele><time>2026-05-03T16:36:36Z</time></trkpt><trkpt lat="41.939474565948295" lon="12.487338634017966"><ele>16.0</ele><time>2026-05-03T16:36:37Z</time></trkpt><trkpt lat="41.93944900175824" lon="12.487529558309834"><ele>16.0</ele><time>2026-05-03T16:36:38Z</time></trkpt><trkpt lat="41.939424991590144" lon="12.487722140750574"><ele>16.0</ele><time>2026-05-03T16:36:39Z</time></trkpt><trkpt lat="41.93940617279759" lon="12.48791937478243"><ele>17.0</ele><time>2026-05-03T16:36:40Z</time></trkpt><trkpt lat="41.93938200189293" lon="12.488109322248091"><ele>18.0</ele><time>2026-05-03T16:36:41Z</time></trkpt><trkpt lat="41.93936243535394" lon="12.488297063135747"><ele>19.0</ele><time>2026-05-03T16:36:42Z</time></trkpt><trkpt lat="41.93934422845562" lon="12.488486208352267"><ele>20.0</ele><time>2026-05-03T16:36:43Z</time></trkpt><trkpt lat="41.93932449464135" lon="12.488677466678302"><ele>20.75</ele><time>2026-05-03T16:36:44Z</time></trkpt><trkpt lat="41.93930530374868" lon="12.48886548703225"><ele>21.5</ele><time>2026-05-03T16:36:45Z</time></trkpt><trkpt lat="41.93929123384856" lon="12.489054569805976"><ele>22.25</ele><time>2026-05-03T16:36:46Z</time></trkpt><trkpt lat="41.93927261711986" lon="12.489241067885438"><ele>23.0</ele><time>2026-05-03T16:36:47Z</time></trkpt><trkpt lat="41.93925810445855" lon="12.489434028288597"><ele>23.0</ele><time>2026-05-03T16:36:48Z</time></trkpt><trkpt lat="41.939253247103935" lon="12.489622987583955"><ele>23.0</ele><time>2026-05-03T16:36:49Z</time></trkpt><trkpt lat="41.939249091688446" lon="12.489810988121176"><ele>23.0</ele><time>2026-05-03T16:36:50Z</time></trkpt><trkpt lat="41.93924492268128" lon="12.489998796265755"><ele>23.0</ele><time>2026-05-03T16:36:51Z</time></trkpt><trkpt lat="41.93923924164834" lon="12.490185873927736"><ele>23.0</ele><time>2026-05-03T16:36:52Z</time></trkpt><trkpt lat="41.939236221146196" lon="12.490373183338306"><ele>23.0</ele><time>2026-05-03T16:36:53Z</time></trkpt><trkpt lat="41.939236017686085" lon="12.490559937200317"><ele>23.0</ele><time>2026-05-03T16:36:54Z</time></trkpt><trkpt lat="41.93923668125735" lon="12.490748045573437"><ele>23.0</ele><time>2026-05-03T16:36:55Z</time></trkpt><trkpt lat="41.93924397256409" lon="12.490934996710305"><ele>22.75</ele><time>2026-05-03T16:36:56Z</time></trkpt><trkpt lat="41.939253850922796" lon="12.491121554319768"><ele>22.5</ele><time>2026-05-03T16:36:56.999Z</time></trkpt><trkpt lat="41.93926458892169" lon="12.49130978772711"><ele>22.25</ele><time>2026-05-03T16:36:57.999Z</time></trkpt><trkpt lat="41.939276846319764" lon="12.491500664973422"><ele>22.0</ele><time>2026-05-03T16:36:58.999Z</time></trkpt><trkpt lat="41.939290146134304" lon="12.4916937078333"><ele>22.0</ele><time>2026-05-03T16:36:59.999Z</time></trkpt><trkpt lat="41.93930373575945" lon="12.491889469193433"><ele>22.0</ele><time>2026-05-03T16:37:00.999Z</time></trkpt><trkpt lat="41.93932181234165" lon="12.492085516267029"><ele>22.0</ele><time>2026-05-03T16:37:01.999Z</time></trkpt><trkpt lat="41.939343611454504" lon="12.492282145304232"><ele>22.0</ele><time>2026-05-03T16:37:02.999Z</time></trkpt><trkpt lat="41.93937005857985" lon="12.492475220120241"><ele>22.5</ele><time>2026-05-03T16:37:03.999Z</time></trkpt><trkpt lat="41.93940049162337" lon="12.492668484935855"><ele>23.0</ele><time>2026-05-03T16:37:04.999Z</time></trkpt><trkpt lat="41.93943400642399" lon="12.492858512058396"><ele>23.5</ele><time>2026-05-03T16:37:05.999Z</time></trkpt><trkpt lat="41.939467560751815" lon="12.493047448688994"><ele>24.0</ele><time>2026-05-03T16:37:06.999Z</time></trkpt><trkpt lat="41.939506040803074" lon="12.49323306505111"><ele>24.0</ele><time>2026-05-03T16:37:07.999Z</time></trkpt><trkpt lat="41.939545437554905" lon="12.493420033997124"><ele>24.0</ele><time>2026-05-03T16:37:08.999Z</time></trkpt><trkpt lat="41.93958291563732" lon="12.493606948266372"><ele>24.0</ele><time>2026-05-03T16:37:09.999Z</time></trkpt><trkpt lat="41.93962009773229" lon="12.493793963623888"><ele>24.0</ele><time>2026-05-03T16:37:10.999Z</time></trkpt><trkpt lat="41.93965626952757" lon="12.493984632742274"><ele>23.666666666666668</ele><time>2026-05-03T16:37:11.999Z</time></trkpt><trkpt lat="41.93969448419787" lon="12.494175219760605"><ele>23.333333333333336</ele><time>2026-05-03T16:37:12.999Z</time></trkpt><trkpt lat="41.93973368650225" lon="12.494371256397256"><ele>23.0</ele><time>2026-05-03T16:37:13.999Z</time></trkpt><trkpt lat="41.93977526478322" lon="12.494569975685312"><ele>23.25</ele><time>2026-05-03T16:37:14.999Z</time></trkpt><trkpt lat="41.939816351460166" lon="12.49476570132464"><ele>23.5</ele><time>2026-05-03T16:37:15.999Z</time></trkpt><trkpt lat="41.93985226395555" lon="12.494955537851784"><ele>23.75</ele><time>2026-05-03T16:37:16.999Z</time></trkpt><trkpt lat="41.93988870383427" lon="12.495134845271751"><ele>24.0</ele><time>2026-05-03T16:37:17.999Z</time></trkpt><trkpt lat="41.939919286783336" lon="12.495314461329006"><ele>23.75</ele><time>2026-05-03T16:37:18.999Z</time></trkpt><trkpt lat="41.939959220466214" lon="12.495480923129357"><ele>23.5</ele><time>2026-05-03T16:37:19.999Z</time></trkpt><trkpt lat="41.939994707139775" lon="12.495650466133636"><ele>23.25</ele><time>2026-05-03T16:37:20.999Z</time></trkpt><trkpt lat="41.940032484538094" lon="12.495816423415661"><ele>23.0</ele><time>2026-05-03T16:37:21.999Z</time></trkpt><trkpt lat="41.940065428704315" lon="12.495978060144633"><ele>23.0</ele><time>2026-05-03T16:37:22.999Z</time></trkpt><trkpt lat="41.94009788132355" lon="12.496138633042793"><ele>23.0</ele><time>2026-05-03T16:37:23.999Z</time></trkpt><trkpt lat="41.940126472539085" lon="12.49629920671959"><ele>23.0</ele><time>2026-05-03T16:37:24.999Z</time></trkpt><trkpt lat="41.94015736036034" lon="12.49645807992962"><ele>23.0</ele><time>2026-05-03T16:37:25.999Z</time></trkpt><trkpt lat="41.94018559228993" lon="12.496616068277625"><ele>23.0</ele><time>2026-05-03T16:37:26.999Z</time></trkpt><trkpt lat="41.94021508645027" lon="12.496771577836483"><ele>23.0</ele><time>2026-05-03T16:37:27.999Z</time></trkpt><trkpt lat="41.94024611067991" lon="12.496922864391244"><ele>23.0</ele><time>2026-05-03T16:37:28.999Z</time></trkpt><trkpt lat="41.940272493905105" lon="12.497066262440725"><ele>23.0</ele><time>2026-05-03T16:37:29.999Z</time></trkpt><trkpt lat="41.94030096261094" lon="12.49720967599894"><ele>22.4</ele><time>2026-05-03T16:37:30.999Z</time></trkpt><trkpt lat="41.94033261340722" lon="12.497350108290313"><ele>21.799999999999997</ele><time>2026-05-03T16:37:31.999Z</time></trkpt><trkpt lat="41.9403650408718" lon="12.497489111509571"><ele>21.2</ele><time>2026-05-03T16:37:32.999Z</time></trkpt><trkpt lat="41.940395654488896" lon="12.497631785140236"><ele>20.6</ele><time>2026-05-03T16:37:33.999Z</time></trkpt><trkpt lat="41.94042561884971" lon="12.497777846248326"><ele>20.0</ele><time>2026-05-03T16:37:34.999Z</time></trkpt><trkpt lat="41.9404516522238" lon="12.497931842611646"><ele>20.0</ele><time>2026-05-03T16:37:35.999Z</time></trkpt><trkpt lat="41.94047565790208" lon="12.498091038170205"><ele>20.0</ele><time>2026-05-03T16:37:36.999Z</time></trkpt><trkpt lat="41.94049500043778" lon="12.498249774006903"><ele>20.0</ele><time>2026-05-03T16:37:37.999Z</time></trkpt><trkpt lat="41.940505344115984" lon="12.498414558376046"><ele>20.0</ele><time>2026-05-03T16:37:38.999Z</time></trkpt><trkpt lat="41.940514680509736" lon="12.498577809696872"><ele>20.0</ele><time>2026-05-03T16:37:39.999Z</time></trkpt><trkpt lat="41.94051635933506" lon="12.498744896514015"><ele>20.0</ele><time>2026-05-03T16:37:40.999Z</time></trkpt><trkpt lat="41.94051202948261" lon="12.498914385622285"><ele>20.0</ele><time>2026-05-03T16:37:41.999Z</time></trkpt><trkpt lat="41.940505166507506" lon="12.499074218058512"><ele>20.0</ele><time>2026-05-03T16:37:42.999Z</time></trkpt><trkpt lat="41.94049453206022" lon="12.499230720613967"><ele>20.0</ele><time>2026-05-03T16:37:43.999Z</time></trkpt><trkpt lat="41.940484874490984" lon="12.499382613394019"><ele>20.0</ele><time>2026-05-03T16:37:44.999Z</time></trkpt><trkpt lat="41.940470158962064" lon="12.499526080402964"><ele>20.0</ele><time>2026-05-03T16:37:45.999Z</time></trkpt><trkpt lat="41.94045325051696" lon="12.499675127111317"><ele>20.0</ele><time>2026-05-03T16:37:46.999Z</time></trkpt><trkpt lat="41.940435117829054" lon="12.499826886416283"><ele>20.0</ele><time>2026-05-03T16:37:47.999Z</time></trkpt><trkpt lat="41.94041080281125" lon="12.499977676615929"><ele>20.25</ele><time>2026-05-03T16:37:48.999Z</time></trkpt><trkpt lat="41.94038470804324" lon="12.500128010045799"><ele>20.5</ele><time>2026-05-03T16:37:49.999Z</time></trkpt><trkpt lat="41.940353224517196" lon="12.500282464200493"><ele>20.75</ele><time>2026-05-03T16:37:50.999Z</time></trkpt><trkpt lat="41.940321894837716" lon="12.500439214108859"><ele>21.0</ele><time>2026-05-03T16:37:51.999Z</time></trkpt><trkpt lat="41.94028699946601" lon="12.500595441586057"><ele>19.8</ele><time>2026-05-03T16:37:52.999Z</time></trkpt><trkpt lat="41.9402486968551" lon="12.500744193082982"><ele>18.6</ele><time>2026-05-03T16:37:53.999Z</time></trkpt><trkpt lat="41.94020364700174" lon="12.500885164203384"><ele>17.4</ele><time>2026-05-03T16:37:54.999Z</time></trkpt><trkpt lat="41.940162149850714" lon="12.501016844144367"><ele>16.2</ele><time>2026-05-03T16:37:55.999Z</time></trkpt><trkpt lat="41.94011413498153" lon="12.501142813591493"><ele>15.0</ele><time>2026-05-03T16:37:56.998Z</time></trkpt><trkpt lat="41.94006498764538" lon="12.501263693186838"><ele>17.8</ele><time>2026-05-03T16:37:57.998Z</time></trkpt><trkpt lat="41.94001708213701" lon="12.501385491837928"><ele>20.6</ele><time>2026-05-03T16:37:58.998Z</time></trkpt><trkpt lat="41.93996433423417" lon="12.501509350553958"><ele>23.4</ele><time>2026-05-03T16:37:59.998Z</time></trkpt><trkpt lat="41.93991281407118" lon="12.50163189053541"><ele>26.2</ele><time>2026-05-03T16:38:00.998Z</time></trkpt><trkpt lat="41.93986425786538" lon="12.501746789303207"><ele>29.0</ele><time>2026-05-03T16:38:01.998Z</time></trkpt><trkpt lat="41.939808676917835" lon="12.501865306645827"><ele>29.0</ele><time>2026-05-03T16:38:02.998Z</time></trkpt><trkpt lat="41.93974322562002" lon="12.50198558838599"><ele>29.0</ele><time>2026-05-03T16:38:03.998Z</time></trkpt><trkpt lat="41.939676847106824" lon="12.502116128441378"><ele>29.0</ele><time>2026-05-03T16:38:04.998Z</time></trkpt><trkpt lat="41.93961309963801" lon="12.502255846568143"><ele>29.0</ele><time>2026-05-03T16:38:05.998Z</time></trkpt><trkpt lat="41.93955512246265" lon="12.502408355057478"><ele>26.0</ele><time>2026-05-03T16:38:06.998Z</time></trkpt><trkpt lat="41.93948525433355" lon="12.502558941856416"><ele>23.0</ele><time>2026-05-03T16:38:07.998Z</time></trkpt><trkpt lat="41.93941259896206" lon="12.502710197263342"><ele>20.0</ele><time>2026-05-03T16:38:09Z</time></trkpt><trkpt lat="41.93934331119138" lon="12.502861980646543"><ele>17.0</ele><time>2026-05-03T16:38:10Z</time></trkpt><trkpt lat="41.93926771189609" lon="12.503017674929968"><ele>19.0</ele><time>2026-05-03T16:38:11Z</time></trkpt><trkpt lat="41.939190163624566" lon="12.503169312206445"><ele>21.0</ele><time>2026-05-03T16:38:12Z</time></trkpt><trkpt lat="41.93911413882997" lon="12.503322019528582"><ele>23.0</ele><time>2026-05-03T16:38:13Z</time></trkpt><trkpt lat="41.93904105079377" lon="12.503471203430726"><ele>25.0</ele><time>2026-05-03T16:38:14Z</time></trkpt><trkpt lat="41.938965102797525" lon="12.503638510583064"><ele>23.25</ele><time>2026-05-03T16:38:15Z</time></trkpt><trkpt lat="41.9388844618969" lon="12.5037969081072"><ele>21.5</ele><time>2026-05-03T16:38:16Z</time></trkpt><trkpt lat="41.93880509787013" lon="12.50395355821373"><ele>19.75</ele><time>2026-05-03T16:38:17Z</time></trkpt><trkpt lat="41.938725979080544" lon="12.504111362635829"><ele>18.0</ele><time>2026-05-03T16:38:18Z</time></trkpt><trkpt lat="41.938652098821144" lon="12.504256644092417"><ele>18.0</ele><time>2026-05-03T16:38:19Z</time></trkpt><trkpt lat="41.93858091060161" lon="12.504401036095556"><ele>18.0</ele><time>2026-05-03T16:38:20Z</time></trkpt><trkpt lat="41.93851054800203" lon="12.504540961122315"><ele>18.0</ele><time>2026-05-03T16:38:21Z</time></trkpt><trkpt lat="41.93843895267261" lon="12.504681202187781"><ele>18.0</ele><time>2026-05-03T16:38:22Z</time></trkpt><trkpt lat="41.93837022318066" lon="12.50482043624469"><ele>18.0</ele><time>2026-05-03T16:38:23Z</time></trkpt><trkpt lat="41.93830188122504" lon="12.504959753726533"><ele>18.0</ele><time>2026-05-03T16:38:24Z</time></trkpt><trkpt lat="41.93823382578959" lon="12.505099539673225"><ele>18.0</ele><time>2026-05-03T16:38:25Z</time></trkpt><trkpt lat="41.938166047183245" lon="12.505239611253334"><ele>18.0</ele><time>2026-05-03T16:38:26Z</time></trkpt><trkpt lat="41.938098763532444" lon="12.505382336653811"><ele>18.0</ele><time>2026-05-03T16:38:27Z</time></trkpt><trkpt lat="41.93803591926229" lon="12.505527169297487"><ele>18.0</ele><time>2026-05-03T16:38:28Z</time></trkpt><trkpt lat="41.93797640817643" lon="12.505675517192657"><ele>18.0</ele><time>2026-05-03T16:38:29Z</time></trkpt><trkpt lat="41.937918792082414" lon="12.505824368743788"><ele>18.0</ele><time>2026-05-03T16:38:30Z</time></trkpt><trkpt lat="41.937862813243754" lon="12.505973694015228"><ele>18.0</ele><time>2026-05-03T16:38:31Z</time></trkpt><trkpt lat="41.937812470194594" lon="12.506127625959383"><ele>18.0</ele><time>2026-05-03T16:38:32Z</time></trkpt><trkpt lat="41.937766143075685" lon="12.50628404409306"><ele>18.0</ele><time>2026-05-03T16:38:33Z</time></trkpt><trkpt lat="41.93772208867851" lon="12.506438742571085"><ele>18.0</ele><time>2026-05-03T16:38:34Z</time></trkpt><trkpt lat="41.937681362550684" lon="12.506592743270454"><ele>18.25</ele><time>2026-05-03T16:38:35Z</time></trkpt><trkpt lat="41.937647072150796" lon="12.506746296643666"><ele>18.5</ele><time>2026-05-03T16:38:36Z</time></trkpt><trkpt lat="41.93761596874172" lon="12.50689746091081"><ele>18.75</ele><time>2026-05-03T16:38:37Z</time></trkpt><trkpt lat="41.93758488660901" lon="12.507047938088345"><ele>19.0</ele><time>2026-05-03T16:38:38Z</time></trkpt><trkpt lat="41.93755859765819" lon="12.507197891603285"><ele>19.4</ele><time>2026-05-03T16:38:39Z</time></trkpt><trkpt lat="41.937538876910445" lon="12.507348635381163"><ele>19.799999999999997</ele><time>2026-05-03T16:38:40Z</time></trkpt><trkpt lat="41.93752195100786" lon="12.5075005923013"><ele>20.200000000000003</ele><time>2026-05-03T16:38:40.999Z</time></trkpt><trkpt lat="41.93751301112573" lon="12.50764829603423"><ele>20.6</ele><time>2026-05-03T16:38:41.999Z</time></trkpt><trkpt lat="41.93751307350337" lon="12.507788897262191"><ele>21.0</ele><time>2026-05-03T16:38:42.999Z</time></trkpt><trkpt lat="41.937519379739236" lon="12.507926383731915"><ele>21.0</ele><time>2026-05-03T16:38:43.999Z</time></trkpt><trkpt lat="41.937523361453096" lon="12.508059634132387"><ele>21.0</ele><time>2026-05-03T16:38:44.999Z</time></trkpt><trkpt lat="41.93752546915936" lon="12.508188030245648"><ele>21.0</ele><time>2026-05-03T16:38:45.999Z</time></trkpt><trkpt lat="41.937533992525694" lon="12.508315593249694"><ele>21.0</ele><time>2026-05-03T16:38:46.999Z</time></trkpt><trkpt lat="41.93755204875811" lon="12.508443766796004"><ele>21.0</ele><time>2026-05-03T16:38:47.999Z</time></trkpt><trkpt lat="41.93757441576495" lon="12.508574612486125"><ele>21.0</ele><time>2026-05-03T16:38:48.999Z</time></trkpt><trkpt lat="41.9376007249238" lon="12.508702802970337"><ele>21.0</ele><time>2026-05-03T16:38:49.999Z</time></trkpt><trkpt lat="41.93763156181437" lon="12.50883233914606"><ele>21.0</ele><time>2026-05-03T16:38:50.999Z</time></trkpt><trkpt lat="41.93766183849504" lon="12.508963030437682"><ele>21.0</ele><time>2026-05-03T16:38:51.999Z</time></trkpt><trkpt lat="41.93769431411114" lon="12.509098412872918"><ele>21.0</ele><time>2026-05-03T16:38:52.999Z</time></trkpt><trkpt lat="41.93772597979466" lon="12.509233980899714"><ele>21.6</ele><time>2026-05-03T16:38:53.999Z</time></trkpt><trkpt lat="41.93775760088578" lon="12.509369820691088"><ele>22.200000000000003</ele><time>2026-05-03T16:38:54.999Z</time></trkpt><trkpt lat="41.937784183767796" lon="12.50949942460443"><ele>22.799999999999997</ele><time>2026-05-03T16:38:55.999Z</time></trkpt><trkpt lat="41.937808532368955" lon="12.509629436694338"><ele>23.4</ele><time>2026-05-03T16:38:56.999Z</time></trkpt><trkpt lat="41.937825292843094" lon="12.50975010676685"><ele>24.0</ele><time>2026-05-03T16:38:57.999Z</time></trkpt><trkpt lat="41.93781315566539" lon="12.50986695709619"><ele>24.0</ele><time>2026-05-03T16:38:58.999Z</time></trkpt><trkpt lat="41.93777412193925" lon="12.509971424443368"><ele>24.0</ele><time>2026-05-03T16:38:59.999Z</time></trkpt><trkpt lat="41.93772018502206" lon="12.510057714046154"><ele>24.0</ele><time>2026-05-03T16:39:00.999Z</time></trkpt><trkpt lat="41.93764594336929" lon="12.510107307364905"><ele>24.0</ele><time>2026-05-03T16:39:01.999Z</time></trkpt><trkpt lat="41.937551022605746" lon="12.510117969479193"><ele>24.0</ele><time>2026-05-03T16:39:02.999Z</time></trkpt><trkpt lat="41.93746939139725" lon="12.510087006444405"><ele>24.0</ele><time>2026-05-03T16:39:03.999Z</time></trkpt><trkpt lat="41.937387345019275" lon="12.51002072219743"><ele>24.0</ele><time>2026-05-03T16:39:04.999Z</time></trkpt><trkpt lat="41.937330870122246" lon="12.509923133392327"><ele>24.0</ele><time>2026-05-03T16:39:05.999Z</time></trkpt><trkpt lat="41.93727999504511" lon="12.509816186333092"><ele>24.0</ele><time>2026-05-03T16:39:06.999Z</time></trkpt><trkpt lat="41.937237395931405" lon="12.50970393658914"><ele>24.0</ele><time>2026-05-03T16:39:07.999Z</time></trkpt><trkpt lat="41.93719999642" lon="12.509586679481366"><ele>24.0</ele><time>2026-05-03T16:39:08.999Z</time></trkpt><trkpt lat="41.9371668594038" lon="12.509475463026066"><ele>23.4</ele><time>2026-05-03T16:39:09.999Z</time></trkpt><trkpt lat="41.93714563331367" lon="12.509374345462264"><ele>22.799999999999997</ele><time>2026-05-03T16:39:10.999Z</time></trkpt><trkpt lat="41.93714788520051" lon="12.509279812340036"><ele>22.200000000000003</ele><time>2026-05-03T16:39:11.999Z</time></trkpt><trkpt lat="41.937189645615575" lon="12.509141905886635"><ele>21.6</ele><time>2026-05-03T16:39:13.999Z</time></trkpt><trkpt lat="41.93728865760535" lon="12.509035932743824"><ele>21.0</ele><time>2026-05-03T16:39:15.999Z</time></trkpt><trkpt lat="41.93734472371241" lon="12.508982685714015"><ele>21.0</ele><time>2026-05-03T16:39:16.999Z</time></trkpt><trkpt lat="41.93744036697654" lon="12.508961542120767"><ele>21.0</ele><time>2026-05-03T16:39:17.999Z</time></trkpt><trkpt lat="41.93752618281622" lon="12.509009630793663"><ele>21.0</ele><time>2026-05-03T16:39:18.999Z</time></trkpt><trkpt lat="41.93762758434262" lon="12.509015179270756"><ele>21.0</ele><time>2026-05-03T16:39:19.999Z</time></trkpt><trkpt lat="41.937744143394404" lon="12.50901930887218"><ele>21.0</ele><time>2026-05-03T16:39:20.999Z</time></trkpt><trkpt lat="41.93785543529447" lon="12.509005182209796"><ele>21.5</ele><time>2026-05-03T16:39:21.999Z</time></trkpt><trkpt lat="41.937934444595165" lon="12.50897292764343"><ele>22.0</ele><time>2026-05-03T16:39:22.999Z</time></trkpt><trkpt lat="41.93799984591871" lon="12.508947342292487"><ele>22.5</ele><time>2026-05-03T16:39:23.999Z</time></trkpt><trkpt lat="41.9380876132526" lon="12.508960824200107"><ele>23.0</ele><time>2026-05-03T16:39:24.999Z</time></trkpt><trkpt lat="41.93821267303207" lon="12.50898452290068"><ele>23.5</ele><time>2026-05-03T16:39:26.999Z</time></trkpt><trkpt lat="41.938289570428985" lon="12.508996513574083"><ele>24.0</ele><time>2026-05-03T16:39:27.999Z</time></trkpt><trkpt lat="41.93838100814543" lon="12.509030253085072"><ele>24.2</ele><time>2026-05-03T16:39:28.999Z</time></trkpt><trkpt lat="41.93848032618984" lon="12.509032278339317"><ele>24.4</ele><time>2026-05-03T16:39:29.999Z</time></trkpt><trkpt lat="41.938581825603286" lon="12.50904783423326"><ele>24.6</ele><time>2026-05-03T16:39:30.999Z</time></trkpt><trkpt lat="41.93869152247603" lon="12.509066555015517"><ele>24.8</ele><time>2026-05-03T16:39:31.999Z</time></trkpt><trkpt lat="41.93880267725976" lon="12.509087972429823"><ele>25.0</ele><time>2026-05-03T16:39:32.999Z</time></trkpt><trkpt lat="41.9389101649071" lon="12.509103327762125"><ele>25.0</ele><time>2026-05-03T16:39:33.999Z</time></trkpt><trkpt lat="41.939012950509955" lon="12.509132947279413"><ele>25.0</ele><time>2026-05-03T16:39:34.999Z</time></trkpt><trkpt lat="41.93911445492257" lon="12.509158281000266"><ele>25.0</ele><time>2026-05-03T16:39:35.999Z</time></trkpt><trkpt lat="41.93921602865417" lon="12.50918753534976"><ele>25.0</ele><time>2026-05-03T16:39:36.999Z</time></trkpt><trkpt lat="41.93932937438789" lon="12.50920932055068"><ele>25.0</ele><time>2026-05-03T16:39:37.999Z</time></trkpt><trkpt lat="41.93943640249832" lon="12.509221824227776"><ele>25.25</ele><time>2026-05-03T16:39:38.999Z</time></trkpt><trkpt lat="41.93954424297037" lon="12.509242578459597"><ele>25.5</ele><time>2026-05-03T16:39:39.998Z</time></trkpt><trkpt lat="41.93965710609356" lon="12.509209182028341"><ele>25.75</ele><time>2026-05-03T16:39:40.998Z</time></trkpt><trkpt lat="41.93976935687428" lon="12.509180638998975"><ele>26.0</ele><time>2026-05-03T16:39:41.998Z</time></trkpt><trkpt lat="41.93988280253283" lon="12.509134663973624"><ele>26.0</ele><time>2026-05-03T16:39:42.998Z</time></trkpt><trkpt lat="41.93999474434226" lon="12.50908233872522"><ele>26.0</ele><time>2026-05-03T16:39:43.998Z</time></trkpt><trkpt lat="41.940108274212804" lon="12.509022115545674"><ele>26.0</ele><time>2026-05-03T16:39:44.998Z</time></trkpt><trkpt lat="41.94022490297251" lon="12.508967945801192"><ele>26.0</ele><time>2026-05-03T16:39:45.998Z</time></trkpt><trkpt lat="41.940343885773885" lon="12.508940354280185"><ele>24.75</ele><time>2026-05-03T16:39:46.998Z</time></trkpt><trkpt lat="41.94046124646788" lon="12.508902764146812"><ele>23.5</ele><time>2026-05-03T16:39:47.998Z</time></trkpt><trkpt lat="41.94058028527725" lon="12.508864387102124"><ele>22.25</ele><time>2026-05-03T16:39:48.998Z</time></trkpt><trkpt lat="41.940696457746476" lon="12.508824482214997"><ele>21.0</ele><time>2026-05-03T16:39:49.998Z</time></trkpt><trkpt lat="41.9408128463159" lon="12.508786486695074"><ele>21.0</ele><time>2026-05-03T16:39:50.998Z</time></trkpt><trkpt lat="41.940927883430916" lon="12.508748088286424"><ele>21.0</ele><time>2026-05-03T16:39:51.998Z</time></trkpt><trkpt lat="41.94103472655349" lon="12.508693249261738"><ele>21.0</ele><time>2026-05-03T16:39:52.998Z</time></trkpt><trkpt lat="41.94114432139632" lon="12.508651568815889"><ele>21.0</ele><time>2026-05-03T16:39:53.998Z</time></trkpt><trkpt lat="41.94124958742701" lon="12.508609078871245"><ele>21.0</ele><time>2026-05-03T16:39:54.998Z</time></trkpt><trkpt lat="41.94137706278186" lon="12.508669846496646"><ele>21.0</ele><time>2026-05-03T16:39:55.998Z</time></trkpt><trkpt lat="41.94148922208002" lon="12.508702775391885"><ele>21.0</ele><time>2026-05-03T16:39:56.998Z</time></trkpt><trkpt lat="41.941596405579546" lon="12.508770954208266"><ele>21.0</ele><time>2026-05-03T16:39:57.998Z</time></trkpt><trkpt lat="41.94170085121199" lon="12.5088585892996"><ele>21.25</ele><time>2026-05-03T16:39:58.998Z</time></trkpt><trkpt lat="41.94179985934988" lon="12.508963831200765"><ele>21.5</ele><time>2026-05-03T16:39:59.998Z</time></trkpt><trkpt lat="41.941886280066505" lon="12.509092366113897"><ele>21.75</ele><time>2026-05-03T16:40:00.998Z</time></trkpt><trkpt lat="41.94196389101716" lon="12.509235110799137"><ele>22.0</ele><time>2026-05-03T16:40:01.998Z</time></trkpt><trkpt lat="41.94203823721303" lon="12.509371255381565"><ele>22.0</ele><time>2026-05-03T16:40:02.998Z</time></trkpt><trkpt lat="41.94211057098495" lon="12.509515863628044"><ele>22.0</ele><time>2026-05-03T16:40:03.998Z</time></trkpt><trkpt lat="41.94218704973094" lon="12.509654851834668"><ele>22.0</ele><time>2026-05-03T16:40:04.998Z</time></trkpt><trkpt lat="41.942262090046896" lon="12.509795995552935"><ele>22.0</ele><time>2026-05-03T16:40:05.998Z</time></trkpt><trkpt lat="41.942338213302925" lon="12.509941197305537"><ele>21.75</ele><time>2026-05-03T16:40:06.998Z</time></trkpt><trkpt lat="41.942416842369816" lon="12.51008348952523"><ele>21.5</ele><time>2026-05-03T16:40:07.998Z</time></trkpt><trkpt lat="41.94249059965971" lon="12.510222918486825"><ele>21.25</ele><time>2026-05-03T16:40:08.998Z</time></trkpt><trkpt lat="41.94256363823721" lon="12.510367093858175"><ele>21.0</ele><time>2026-05-03T16:40:09.998Z</time></trkpt><trkpt lat="41.942637043489576" lon="12.510514555135485"><ele>22.0</ele><time>2026-05-03T16:40:10.998Z</time></trkpt><trkpt lat="41.94270959120776" lon="12.5106587973867"><ele>23.0</ele><time>2026-05-03T16:40:11.998Z</time></trkpt><trkpt lat="41.94278016261914" lon="12.510808681271046"><ele>24.0</ele><time>2026-05-03T16:40:12.998Z</time></trkpt><trkpt lat="41.94284588225912" lon="12.510951833594943"><ele>25.0</ele><time>2026-05-03T16:40:13.998Z</time></trkpt><trkpt lat="41.94291033960081" lon="12.511099666174545"><ele>24.0</ele><time>2026-05-03T16:40:14.999Z</time></trkpt><trkpt lat="41.942974439449884" lon="12.511245379857657"><ele>23.0</ele><time>2026-05-03T16:40:15.999Z</time></trkpt><trkpt lat="41.94304027628245" lon="12.511387550975819"><ele>22.0</ele><time>2026-05-03T16:40:16.999Z</time></trkpt><trkpt lat="41.943104243845056" lon="12.511524913426948"><ele>21.0</ele><time>2026-05-03T16:40:17.999Z</time></trkpt><trkpt lat="41.94316542191714" lon="12.511673985018016"><ele>21.0</ele><time>2026-05-03T16:40:18.999Z</time></trkpt><trkpt lat="41.943232247612706" lon="12.51182196396907"><ele>21.0</ele><time>2026-05-03T16:40:19.999Z</time></trkpt><trkpt lat="41.94329867848714" lon="12.511969890977031"><ele>21.0</ele><time>2026-05-03T16:40:20.999Z</time></trkpt><trkpt lat="41.94335705576638" lon="12.512130270857176"><ele>21.0</ele><time>2026-05-03T16:40:22Z</time></trkpt><trkpt lat="41.943431519482" lon="12.512283998023142"><ele>22.0</ele><time>2026-05-03T16:40:23Z</time></trkpt><trkpt lat="41.94351129290175" lon="12.512429224513214"><ele>23.0</ele><time>2026-05-03T16:40:24Z</time></trkpt><trkpt lat="41.9435992863665" lon="12.512567965777116"><ele>24.0</ele><time>2026-05-03T16:40:25Z</time></trkpt><trkpt lat="41.94370050037066" lon="12.51269776856952"><ele>25.0</ele><time>2026-05-03T16:40:26Z</time></trkpt><trkpt lat="41.94380848797884" lon="12.512814486593284"><ele>24.5</ele><time>2026-05-03T16:40:27Z</time></trkpt><trkpt lat="41.94392096287761" lon="12.512924056912983"><ele>24.0</ele><time>2026-05-03T16:40:28Z</time></trkpt><trkpt lat="41.94404429873862" lon="12.513021936006796"><ele>23.5</ele><time>2026-05-03T16:40:29Z</time></trkpt><trkpt lat="41.944170008037204" lon="12.513109767748585"><ele>23.0</ele><time>2026-05-03T16:40:30Z</time></trkpt><trkpt lat="41.94429908025272" lon="12.513179575792025"><ele>24.75</ele><time>2026-05-03T16:40:31Z</time></trkpt><trkpt lat="41.9444164455634" lon="12.513235301254849"><ele>26.5</ele><time>2026-05-03T16:40:32Z</time></trkpt><trkpt lat="41.94453512597851" lon="12.513284843023461"><ele>28.25</ele><time>2026-05-03T16:40:33Z</time></trkpt><trkpt lat="41.94465278114651" lon="12.513334297074307"><ele>30.0</ele><time>2026-05-03T16:40:34Z</time></trkpt><trkpt lat="41.94476822896123" lon="12.513386442441439"><ele>30.0</ele><time>2026-05-03T16:40:35Z</time></trkpt><trkpt lat="41.94488175596747" lon="12.513437557852013"><ele>30.0</ele><time>2026-05-03T16:40:36Z</time></trkpt><trkpt lat="41.94498883513906" lon="12.513506512653047"><ele>30.0</ele><time>2026-05-03T16:40:37Z</time></trkpt><trkpt lat="41.94509844018288" lon="12.513590980193898"><ele>30.0</ele><time>2026-05-03T16:40:38Z</time></trkpt><trkpt lat="41.94519052121236" lon="12.51370399717611"><ele>31.0</ele><time>2026-05-03T16:40:39Z</time></trkpt><trkpt lat="41.94528338175868" lon="12.513811400591473"><ele>32.0</ele><time>2026-05-03T16:40:40Z</time></trkpt><trkpt lat="41.94537637593741" lon="12.513926641741698"><ele>33.0</ele><time>2026-05-03T16:40:41Z</time></trkpt><trkpt lat="41.945467211922335" lon="12.514042014453944"><ele>34.0</ele><time>2026-05-03T16:40:42Z</time></trkpt><trkpt lat="41.945538561563026" lon="12.51417688990303"><ele>34.0</ele><time>2026-05-03T16:40:42.999Z</time></trkpt><trkpt lat="41.945602114587224" lon="12.514316095557168"><ele>34.0</ele><time>2026-05-03T16:40:43.999Z</time></trkpt><trkpt lat="41.945661831010945" lon="12.51444967912782"><ele>34.0</ele><time>2026-05-03T16:40:44.999Z</time></trkpt><trkpt lat="41.9457201131231" lon="12.51457366572116"><ele>34.0</ele><time>2026-05-03T16:40:45.999Z</time></trkpt><trkpt lat="41.94577676204928" lon="12.514702083659836"><ele>34.4</ele><time>2026-05-03T16:40:46.999Z</time></trkpt><trkpt lat="41.94582051439295" lon="12.514838635632083"><ele>34.8</ele><time>2026-05-03T16:40:47.999Z</time></trkpt><trkpt lat="41.94585356090058" lon="12.51498050785045"><ele>35.2</ele><time>2026-05-03T16:40:48.999Z</time></trkpt><trkpt lat="41.94588090661397" lon="12.515122003132118"><ele>35.6</ele><time>2026-05-03T16:40:49.999Z</time></trkpt><trkpt lat="41.9459057679479" lon="12.515264722069446"><ele>36.0</ele><time>2026-05-03T16:40:50.999Z</time></trkpt><trkpt lat="41.94592923921815" lon="12.515415700792081"><ele>34.2</ele><time>2026-05-03T16:40:51.999Z</time></trkpt><trkpt lat="41.94595915432539" lon="12.515562424598183"><ele>32.400000000000006</ele><time>2026-05-03T16:40:52.999Z</time></trkpt><trkpt lat="41.945978543433434" lon="12.515698775378825"><ele>30.6</ele><time>2026-05-03T16:40:53.999Z</time></trkpt><trkpt lat="41.94599707106313" lon="12.515843870418541"><ele>28.8</ele><time>2026-05-03T16:40:54.999Z</time></trkpt><trkpt lat="41.94600524458078" lon="12.51600132809133"><ele>27.0</ele><time>2026-05-03T16:40:55.999Z</time></trkpt><trkpt lat="41.946023208944766" lon="12.516154964252927"><ele>27.400000000000002</ele><time>2026-05-03T16:40:56.999Z</time></trkpt><trkpt lat="41.94604406901472" lon="12.516298647003897"><ele>27.800000000000004</ele><time>2026-05-03T16:40:57.999Z</time></trkpt><trkpt lat="41.94607090796963" lon="12.516443886001053"><ele>28.2</ele><time>2026-05-03T16:40:58.999Z</time></trkpt><trkpt lat="41.94609084139602" lon="12.51658587950449"><ele>28.6</ele><time>2026-05-03T16:40:59.999Z</time></trkpt><trkpt lat="41.94611092590116" lon="12.516727691172756"><ele>29.0</ele><time>2026-05-03T16:41:00.999Z</time></trkpt><trkpt lat="41.946127503450704" lon="12.516868137585575"><ele>29.0</ele><time>2026-05-03T16:41:01.999Z</time></trkpt><trkpt lat="41.94614570305565" lon="12.517008992523388"><ele>29.0</ele><time>2026-05-03T16:41:02.999Z</time></trkpt><trkpt lat="41.94616320866527" lon="12.51715072760243"><ele>29.0</ele><time>2026-05-03T16:41:03.999Z</time></trkpt><trkpt lat="41.946182864576585" lon="12.517299233559127"><ele>29.0</ele><time>2026-05-03T16:41:04.999Z</time></trkpt><trkpt lat="41.94619919469012" lon="12.517449998747473"><ele>29.0</ele><time>2026-05-03T16:41:05.999Z</time></trkpt><trkpt lat="41.9462165673303" lon="12.51760413349829"><ele>29.0</ele><time>2026-05-03T16:41:06.999Z</time></trkpt><trkpt lat="41.946237082933834" lon="12.517754549457354"><ele>29.0</ele><time>2026-05-03T16:41:07.999Z</time></trkpt><trkpt lat="41.946248577543074" lon="12.517903794979382"><ele>29.0</ele><time>2026-05-03T16:41:08.999Z</time></trkpt><trkpt lat="41.94625536639343" lon="12.518058809078525"><ele>29.0</ele><time>2026-05-03T16:41:09.999Z</time></trkpt><trkpt lat="41.946259518250045" lon="12.518209812879181"><ele>29.0</ele><time>2026-05-03T16:41:10.999Z</time></trkpt><trkpt lat="41.94625794638157" lon="12.51836677049122"><ele>29.0</ele><time>2026-05-03T16:41:11.999Z</time></trkpt><trkpt lat="41.94625205183897" lon="12.518522340093499"><ele>29.0</ele><time>2026-05-03T16:41:12.999Z</time></trkpt><trkpt lat="41.94624092320215" lon="12.518679124228685"><ele>29.0</ele><time>2026-05-03T16:41:13.999Z</time></trkpt><trkpt lat="41.94622932395325" lon="12.518837856824929"><ele>29.2</ele><time>2026-05-03T16:41:14.999Z</time></trkpt><trkpt lat="41.94622210713981" lon="12.518981359099906"><ele>29.4</ele><time>2026-05-03T16:41:15.999Z</time></trkpt><trkpt lat="41.94621242837486" lon="12.519131410270948"><ele>29.6</ele><time>2026-05-03T16:41:16.999Z</time></trkpt><trkpt lat="41.94620913665926" lon="12.519281869762832"><ele>29.8</ele><time>2026-05-03T16:41:17.999Z</time></trkpt><trkpt lat="41.94620189549689" lon="12.519426083501644"><ele>30.0</ele><time>2026-05-03T16:41:18.999Z</time></trkpt><trkpt lat="41.94619930222193" lon="12.519568706342808"><ele>30.0</ele><time>2026-05-03T16:41:19.999Z</time></trkpt><trkpt lat="41.94619753768011" lon="12.519713859266654"><ele>30.0</ele><time>2026-05-03T16:41:20.999Z</time></trkpt><trkpt lat="41.946195669648915" lon="12.519864073551235"><ele>30.0</ele><time>2026-05-03T16:41:21.999Z</time></trkpt><trkpt lat="41.94619117118797" lon="12.520011564393137"><ele>30.0</ele><time>2026-05-03T16:41:22.999Z</time></trkpt><trkpt lat="41.94618935690673" lon="12.520155031559192"><ele>30.0</ele><time>2026-05-03T16:41:23.999Z</time></trkpt><trkpt lat="41.94618307751899" lon="12.520298200373936"><ele>29.4</ele><time>2026-05-03T16:41:24.999Z</time></trkpt><trkpt lat="41.94617738192553" lon="12.520438321331893"><ele>28.8</ele><time>2026-05-03T16:41:25.999Z</time></trkpt><trkpt lat="41.94616990708171" lon="12.520582709036141"><ele>28.200000000000003</ele><time>2026-05-03T16:41:26.999Z</time></trkpt><trkpt lat="41.946163099370935" lon="12.520727850887763"><ele>27.6</ele><time>2026-05-03T16:41:27.999Z</time></trkpt><trkpt lat="41.946154695126445" lon="12.52087258397892"><ele>27.0</ele><time>2026-05-03T16:41:28.999Z</time></trkpt><trkpt lat="41.94614952392057" lon="12.521022157971858"><ele>27.0</ele><time>2026-05-03T16:41:29.999Z</time></trkpt><trkpt lat="41.94614308990652" lon="12.52117011624433"><ele>27.000000000000004</ele><time>2026-05-03T16:41:30.999Z</time></trkpt><trkpt lat="41.946135208880975" lon="12.521308032247086"><ele>27.000000000000004</ele><time>2026-05-03T16:41:31.999Z</time></trkpt><trkpt lat="41.94612863216595" lon="12.521444151594272"><ele>27.0</ele><time>2026-05-03T16:41:32.999Z</time></trkpt><trkpt lat="41.94611895337452" lon="12.521583183994892"><ele>27.0</ele><time>2026-05-03T16:41:33.999Z</time></trkpt><trkpt lat="41.94611616527415" lon="12.521729411651394"><ele>26.5</ele><time>2026-05-03T16:41:34.999Z</time></trkpt><trkpt lat="41.9461097447489" lon="12.521881482040207"><ele>26.0</ele><time>2026-05-03T16:41:35.999Z</time></trkpt><trkpt lat="41.9461051851699" lon="12.522034342474589"><ele>25.5</ele><time>2026-05-03T16:41:36.999Z</time></trkpt><trkpt lat="41.946100355804795" lon="12.522190542097281"><ele>25.0</ele><time>2026-05-03T16:41:37.999Z</time></trkpt><trkpt lat="41.94609946830076" lon="12.522343881991745"><ele>24.4</ele><time>2026-05-03T16:41:38.999Z</time></trkpt><trkpt lat="41.946096829910175" lon="12.522493503659929"><ele>23.8</ele><time>2026-05-03T16:41:39.999Z</time></trkpt><trkpt lat="41.94608324949599" lon="12.522640328867261"><ele>23.200000000000003</ele><time>2026-05-03T16:41:40.999Z</time></trkpt><trkpt lat="41.94608028119968" lon="12.522773926596729"><ele>22.6</ele><time>2026-05-03T16:41:41.999Z</time></trkpt><trkpt lat="41.946078777150134" lon="12.522900949761704"><ele>22.0</ele><time>2026-05-03T16:41:42.999Z</time></trkpt><trkpt lat="41.94607587056831" lon="12.523023791613815"><ele>22.0</ele><time>2026-05-03T16:41:43.999Z</time></trkpt><trkpt lat="41.946069223830854" lon="12.52314418921846"><ele>22.0</ele><time>2026-05-03T16:41:44.999Z</time></trkpt><trkpt lat="41.946061798855304" lon="12.523262300779283"><ele>22.0</ele><time>2026-05-03T16:41:45.999Z</time></trkpt><trkpt lat="41.94605471991811" lon="12.523371785906908"><ele>22.0</ele><time>2026-05-03T16:41:46.999Z</time></trkpt><trkpt lat="41.94604836446517" lon="12.523463290051053"><ele>22.0</ele><time>2026-05-03T16:41:47.999Z</time></trkpt><trkpt lat="41.946043556000745" lon="12.52355584787961"><ele>22.0</ele><time>2026-05-03T16:41:48.999Z</time></trkpt><trkpt lat="41.94603829376989" lon="12.523657069851634"><ele>21.8</ele><time>2026-05-03T16:41:49.999Z</time></trkpt><trkpt lat="41.94602778189037" lon="12.523777921951742"><ele>21.6</ele><time>2026-05-03T16:41:50.999Z</time></trkpt><trkpt lat="41.94601581912821" lon="12.523910039167374"><ele>21.400000000000002</ele><time>2026-05-03T16:41:51.999Z</time></trkpt><trkpt lat="41.946004559591806" lon="12.524050406568634"><ele>21.200000000000003</ele><time>2026-05-03T16:41:52.998Z</time></trkpt><trkpt lat="41.94599895249491" lon="12.52418504457269"><ele>21.0</ele><time>2026-05-03T16:41:53.998Z</time></trkpt><trkpt lat="41.94599539903462" lon="12.524315447907108"><ele>21.0</ele><time>2026-05-03T16:41:54.998Z</time></trkpt><trkpt lat="41.945992282321676" lon="12.524448592645696"><ele>21.0</ele><time>2026-05-03T16:41:55.998Z</time></trkpt><trkpt lat="41.945987349417834" lon="12.524580737789055"><ele>21.0</ele><time>2026-05-03T16:41:56.998Z</time></trkpt><trkpt lat="41.94597972290765" lon="12.524710903851231"><ele>21.0</ele><time>2026-05-03T16:41:57.998Z</time></trkpt><trkpt lat="41.94597086196252" lon="12.52482610143462"><ele>21.0</ele><time>2026-05-03T16:41:58.998Z</time></trkpt><trkpt lat="41.945964914815086" lon="12.524932673000466"><ele>21.200000000000003</ele><time>2026-05-03T16:41:59.998Z</time></trkpt><trkpt lat="41.94595694203687" lon="12.525021406788214"><ele>21.400000000000002</ele><time>2026-05-03T16:42:00.998Z</time></trkpt><trkpt lat="41.94593546459286" lon="12.525166616984626"><ele>21.6</ele><time>2026-05-03T16:42:02.998Z</time></trkpt><trkpt lat="41.94592789204632" lon="12.525263503052672"><ele>21.8</ele><time>2026-05-03T16:42:04.998Z</time></trkpt><trkpt lat="41.945963385050774" lon="12.525378341960616"><ele>22.0</ele><time>2026-05-03T16:42:31Z</time></trkpt><trkpt lat="41.94595964214976" lon="12.525553415943865"><ele>23.6</ele><time>2026-05-03T16:42:33Z</time></trkpt><trkpt lat="41.945964852036354" lon="12.525657691021438"><ele>25.200000000000003</ele><time>2026-05-03T16:42:34Z</time></trkpt><trkpt lat="41.94597281561662" lon="12.525771247385975"><ele>26.8</ele><time>2026-05-03T16:42:35Z</time></trkpt><trkpt lat="41.94597170465882" lon="12.525887289267253"><ele>28.4</ele><time>2026-05-03T16:42:36Z</time></trkpt><trkpt lat="41.945952762236125" lon="12.526018958675182"><ele>30.0</ele><time>2026-05-03T16:42:37Z</time></trkpt><trkpt lat="41.94594601588714" lon="12.52615731850706"><ele>30.6</ele><time>2026-05-03T16:42:38Z</time></trkpt><trkpt lat="41.94593828714882" lon="12.526292074602509"><ele>31.2</ele><time>2026-05-03T16:42:39Z</time></trkpt><trkpt lat="41.945930856731955" lon="12.52642162637267"><ele>31.799999999999997</ele><time>2026-05-03T16:42:40Z</time></trkpt><trkpt lat="41.94596731242535" lon="12.52654353845889"><ele>32.4</ele><time>2026-05-03T16:42:41Z</time></trkpt><trkpt lat="41.94597995558545" lon="12.526657377950864"><ele>33.0</ele><time>2026-05-03T16:42:42Z</time></trkpt><trkpt lat="41.94598413074477" lon="12.526758236813025"><ele>33.0</ele><time>2026-05-03T16:42:43Z</time></trkpt><trkpt lat="41.94599228213878" lon="12.526922897123244"><ele>33.0</ele><time>2026-05-03T16:42:45Z</time></trkpt><trkpt lat="41.945995024893215" lon="12.52701699711057"><ele>33.0</ele><time>2026-05-03T16:42:46Z</time></trkpt><trkpt lat="41.94598673447727" lon="12.527124225174134"><ele>33.0</ele><time>2026-05-03T16:42:47Z</time></trkpt><trkpt lat="41.945898923758776" lon="12.527213967680067"><ele>33.0</ele><time>2026-05-03T16:42:48Z</time></trkpt><trkpt lat="41.945889480525516" lon="12.527329322552665"><ele>33.0</ele><time>2026-05-03T16:42:49Z</time></trkpt><trkpt lat="41.94588179764247" lon="12.527423173657477"><ele>33.0</ele><time>2026-05-03T16:42:50Z</time></trkpt><trkpt lat="41.94587380593556" lon="12.527514527267602"><ele>33.0</ele><time>2026-05-03T16:42:51Z</time></trkpt><trkpt lat="41.94586406779799" lon="12.527617265998565"><ele>33.0</ele><time>2026-05-03T16:42:52Z</time></trkpt><trkpt lat="41.94585331842035" lon="12.527730673355215"><ele>33.0</ele><time>2026-05-03T16:42:53Z</time></trkpt><trkpt lat="41.94584141297531" lon="12.527856277254013"><ele>33.0</ele><time>2026-05-03T16:42:54Z</time></trkpt><trkpt lat="41.945829992578446" lon="12.527975766304081"><ele>32.8</ele><time>2026-05-03T16:42:55Z</time></trkpt><trkpt lat="41.94581890611489" lon="12.528099380398611"><ele>32.599999999999994</ele><time>2026-05-03T16:42:56Z</time></trkpt><trkpt lat="41.94580725885993" lon="12.52822924709879"><ele>32.400000000000006</ele><time>2026-05-03T16:42:57Z</time></trkpt><trkpt lat="41.94579546053342" lon="12.52836484187374"><ele>32.2</ele><time>2026-05-03T16:42:58Z</time></trkpt><trkpt lat="41.94578289163752" lon="12.528510502692143"><ele>32.0</ele><time>2026-05-03T16:42:58.999Z</time></trkpt><trkpt lat="41.94578608152046" lon="12.528670490221973"><ele>33.0</ele><time>2026-05-03T16:42:59.999Z</time></trkpt><trkpt lat="41.94573946634035" lon="12.528834479233513"><ele>34.0</ele><time>2026-05-03T16:43:00.999Z</time></trkpt><trkpt lat="41.94572931356675" lon="12.52898025319967"><ele>35.0</ele><time>2026-05-03T16:43:01.999Z</time></trkpt><trkpt lat="41.94571873780159" lon="12.529140007169632"><ele>36.0</ele><time>2026-05-03T16:43:02.999Z</time></trkpt><trkpt lat="41.94570779316529" lon="12.529307596913219"><ele>36.0</ele><time>2026-05-03T16:43:03.999Z</time></trkpt><trkpt lat="41.94569687573385" lon="12.52947476586475"><ele>36.0</ele><time>2026-05-03T16:43:04.999Z</time></trkpt><trkpt lat="41.945688497601715" lon="12.529620931581409"><ele>36.0</ele><time>2026-05-03T16:43:05.999Z</time></trkpt><trkpt lat="41.94567899329242" lon="12.529782169160619"><ele>36.0</ele><time>2026-05-03T16:43:06.999Z</time></trkpt><trkpt lat="41.94566941332538" lon="12.529944689349882"><ele>36.0</ele><time>2026-05-03T16:43:07.999Z</time></trkpt><trkpt lat="41.94566224165839" lon="12.530077313003272"><ele>36.0</ele><time>2026-05-03T16:43:08.999Z</time></trkpt><trkpt lat="41.945655457410325" lon="12.530200435952814"><ele>36.0</ele><time>2026-05-03T16:43:09.999Z</time></trkpt><trkpt lat="41.94564836226901" lon="12.530329189044041"><ele>36.0</ele><time>2026-05-03T16:43:10.999Z</time></trkpt><trkpt lat="41.94563975357589" lon="12.53047976714366"><ele>36.0</ele><time>2026-05-03T16:43:11.999Z</time></trkpt><trkpt lat="41.94563257219335" lon="12.53061975913359"><ele>36.0</ele><time>2026-05-03T16:43:12.999Z</time></trkpt><trkpt lat="41.945624540783655" lon="12.530790912497295"><ele>36.0</ele><time>2026-05-03T16:43:13.999Z</time></trkpt><trkpt lat="41.94561649632676" lon="12.530962343909998"><ele>36.0</ele><time>2026-05-03T16:43:14.999Z</time></trkpt><trkpt lat="41.94560702760926" lon="12.53112552384908"><ele>36.0</ele><time>2026-05-03T16:43:15.999Z</time></trkpt><trkpt lat="41.945594119771236" lon="12.531289260729759"><ele>36.0</ele><time>2026-05-03T16:43:16.999Z</time></trkpt><trkpt lat="41.94557247504072" lon="12.531480669930945"><ele>36.0</ele><time>2026-05-03T16:43:17.999Z</time></trkpt><trkpt lat="41.945544342619776" lon="12.531675294806165"><ele>36.0</ele><time>2026-05-03T16:43:18.999Z</time></trkpt><trkpt lat="41.9455133113074" lon="12.531858501203343"><ele>36.0</ele><time>2026-05-03T16:43:19.999Z</time></trkpt><trkpt lat="41.94535991440126" lon="12.531976806436056"><ele>35.8</ele><time>2026-05-03T16:43:20.999Z</time></trkpt><trkpt lat="41.94538375803827" lon="12.532091625291756"><ele>35.6</ele><time>2026-05-03T16:43:21.999Z</time></trkpt><trkpt lat="41.94538459016687" lon="12.532225909851338"><ele>35.4</ele><time>2026-05-03T16:43:22.999Z</time></trkpt><trkpt lat="41.94537488886208" lon="12.532365808891784"><ele>35.2</ele><time>2026-05-03T16:43:23.999Z</time></trkpt><trkpt lat="41.94538283260319" lon="12.532519864339918"><ele>35.0</ele><time>2026-05-03T16:43:24.999Z</time></trkpt><trkpt lat="41.94535694126794" lon="12.532636285914062"><ele>35.0</ele><time>2026-05-03T16:43:25.999Z</time></trkpt><trkpt lat="41.94532954295264" lon="12.532718787777899"><ele>35.0</ele><time>2026-05-03T16:43:26.999Z</time></trkpt><trkpt lat="41.9453250794423" lon="12.532873834414897"><ele>35.0</ele><time>2026-05-03T16:43:28.999Z</time></trkpt><trkpt lat="41.94529161439255" lon="12.533045564916204"><ele>35.0</ele><time>2026-05-03T16:43:30.999Z</time></trkpt><trkpt lat="41.94526448116421" lon="12.533140144568756"><ele>35.0</ele><time>2026-05-03T16:43:31.999Z</time></trkpt><trkpt lat="41.94522554146743" lon="12.533230661194441"><ele>35.4</ele><time>2026-05-03T16:43:32.999Z</time></trkpt><trkpt lat="41.94519308116877" lon="12.533330736100435"><ele>35.8</ele><time>2026-05-03T16:43:33.999Z</time></trkpt><trkpt lat="41.94515384169676" lon="12.533440804119238"><ele>36.2</ele><time>2026-05-03T16:43:34.999Z</time></trkpt><trkpt lat="41.94510715754492" lon="12.533564043332325"><ele>36.6</ele><time>2026-05-03T16:43:35.999Z</time></trkpt><trkpt lat="41.945054387355874" lon="12.533702452405992"><ele>37.0</ele><time>2026-05-03T16:43:36.999Z</time></trkpt><trkpt lat="41.94499376297198" lon="12.53386117002333"><ele>37.0</ele><time>2026-05-03T16:43:37.999Z</time></trkpt><trkpt lat="41.944929565438876" lon="12.534023218302526"><ele>37.0</ele><time>2026-05-03T16:43:38.999Z</time></trkpt><trkpt lat="41.9448632723515" lon="12.534185055367367"><ele>37.0</ele><time>2026-05-03T16:43:39.999Z</time></trkpt><trkpt lat="41.94478734675104" lon="12.534352472927461"><ele>37.0</ele><time>2026-05-03T16:43:40.999Z</time></trkpt><trkpt lat="41.94469579513818" lon="12.534524951657737"><ele>37.0</ele><time>2026-05-03T16:43:41.999Z</time></trkpt><trkpt lat="41.94460527692668" lon="12.534692056933668"><ele>37.0</ele><time>2026-05-03T16:43:42.999Z</time></trkpt><trkpt lat="41.94450858143786" lon="12.53486811660109"><ele>37.0</ele><time>2026-05-03T16:43:43.999Z</time></trkpt><trkpt lat="41.944413240697436" lon="12.535042210401503"><ele>37.0</ele><time>2026-05-03T16:43:44.999Z</time></trkpt><trkpt lat="41.94432384358119" lon="12.5352186145105"><ele>37.0</ele><time>2026-05-03T16:43:45.999Z</time></trkpt><trkpt lat="41.944239235400694" lon="12.53539706861653"><ele>37.0</ele><time>2026-05-03T16:43:46.999Z</time></trkpt><trkpt lat="41.94415513301103" lon="12.535575964334512"><ele>37.333333333333336</ele><time>2026-05-03T16:43:47.999Z</time></trkpt><trkpt lat="41.944078752737" lon="12.535760033505225"><ele>37.666666666666664</ele><time>2026-05-03T16:43:48.999Z</time></trkpt><trkpt lat="41.944016322465195" lon="12.535954271794482"><ele>38.0</ele><time>2026-05-03T16:43:49.999Z</time></trkpt><trkpt lat="41.94396365069025" lon="12.53615404993983"><ele>39.0</ele><time>2026-05-03T16:43:50.999Z</time></trkpt><trkpt lat="41.94391809841087" lon="12.536355866258539"><ele>40.0</ele><time>2026-05-03T16:43:51.999Z</time></trkpt><trkpt lat="41.943875668541025" lon="12.536557609665774"><ele>41.0</ele><time>2026-05-03T16:43:52.999Z</time></trkpt><trkpt lat="41.943841323718715" lon="12.536760297278391"><ele>41.0</ele><time>2026-05-03T16:43:53.999Z</time></trkpt><trkpt lat="41.94380580792847" lon="12.536968525067023"><ele>41.0</ele><time>2026-05-03T16:43:54.999Z</time></trkpt><trkpt lat="41.94376825114246" lon="12.53718733360246"><ele>41.0</ele><time>2026-05-03T16:43:55.999Z</time></trkpt><trkpt lat="41.94373629976847" lon="12.537412091457217"><ele>41.666666666666664</ele><time>2026-05-03T16:43:56.999Z</time></trkpt><trkpt lat="41.94370805945244" lon="12.537643411601136"><ele>42.333333333333336</ele><time>2026-05-03T16:43:57.999Z</time></trkpt><trkpt lat="41.94368285120749" lon="12.537878163165315"><ele>43.0</ele><time>2026-05-03T16:43:58.999Z</time></trkpt><trkpt lat="41.943663299637045" lon="12.538116014467082"><ele>43.66666666666667</ele><time>2026-05-03T16:43:59.999Z</time></trkpt><trkpt lat="41.9436527522775" lon="12.538361721971823"><ele>44.333333333333336</ele><time>2026-05-03T16:44:00.999Z</time></trkpt><trkpt lat="41.94364505501723" lon="12.538607569961293"><ele>45.0</ele><time>2026-05-03T16:44:01.999Z</time></trkpt><trkpt lat="41.94364274796421" lon="12.538853064709755"><ele>45.0</ele><time>2026-05-03T16:44:02.999Z</time></trkpt><trkpt lat="41.94364187364209" lon="12.53910266246805"><ele>45.0</ele><time>2026-05-03T16:44:03.999Z</time></trkpt><trkpt lat="41.943644101941594" lon="12.539358117689535"><ele>45.0</ele><time>2026-05-03T16:44:04.999Z</time></trkpt><trkpt lat="41.94364835227044" lon="12.5396139427471"><ele>43.333333333333336</ele><time>2026-05-03T16:44:05.998Z</time></trkpt><trkpt lat="41.943650049973215" lon="12.539867640860047"><ele>41.66666666666667</ele><time>2026-05-03T16:44:06.998Z</time></trkpt><trkpt lat="41.9436497206076" lon="12.540117484851578"><ele>40.0</ele><time>2026-05-03T16:44:07.998Z</time></trkpt><trkpt lat="41.94365006544038" lon="12.540365509972721"><ele>39.66666666666667</ele><time>2026-05-03T16:44:08.998Z</time></trkpt><trkpt lat="41.94364826462155" lon="12.540609617361035"><ele>39.333333333333336</ele><time>2026-05-03T16:44:09.998Z</time></trkpt><trkpt lat="41.943647304995075" lon="12.540850719278575"><ele>39.0</ele><time>2026-05-03T16:44:10.998Z</time></trkpt><trkpt lat="41.94364616386716" lon="12.54108263938995"><ele>39.333333333333336</ele><time>2026-05-03T16:44:11.998Z</time></trkpt><trkpt lat="41.94366106696163" lon="12.54130708742485"><ele>39.66666666666667</ele><time>2026-05-03T16:44:12.998Z</time></trkpt><trkpt lat="41.94366543580779" lon="12.541522217904147"><ele>40.0</ele><time>2026-05-03T16:44:13.998Z</time></trkpt><trkpt lat="41.943657137287275" lon="12.541727103027448"><ele>40.0</ele><time>2026-05-03T16:44:14.998Z</time></trkpt><trkpt lat="41.94367280351597" lon="12.541902279819642"><ele>40.0</ele><time>2026-05-03T16:44:15.998Z</time></trkpt><trkpt lat="41.94369303048438" lon="12.542050679214173"><ele>40.0</ele><time>2026-05-03T16:44:16.998Z</time></trkpt><trkpt lat="41.94371931345773" lon="12.542170843928485"><ele>40.0</ele><time>2026-05-03T16:44:17.998Z</time></trkpt><trkpt lat="41.94371182528358" lon="12.542272306409558"><ele>40.0</ele><time>2026-05-03T16:44:18.998Z</time></trkpt><trkpt lat="41.94370993570709" lon="12.542391510599632"><ele>39.0</ele><time>2026-05-03T16:44:20.998Z</time></trkpt><trkpt lat="41.94371013955033" lon="12.542498619718677"><ele>38.0</ele><time>2026-05-03T16:44:34Z</time></trkpt><trkpt lat="41.94372215537112" lon="12.542623374500137"><ele>37.0</ele><time>2026-05-03T16:44:36Z</time></trkpt><trkpt lat="41.9437292818617" lon="12.542726184419124"><ele>36.0</ele><time>2026-05-03T16:44:37Z</time></trkpt><trkpt lat="41.943722347906025" lon="12.542844226926187"><ele>35.0</ele><time>2026-05-03T16:44:38Z</time></trkpt><trkpt lat="41.94376070530607" lon="12.542973543172653"><ele>34.0</ele><time>2026-05-03T16:44:39Z</time></trkpt><trkpt lat="41.943772229798576" lon="12.543134732682555"><ele>33.75</ele><time>2026-05-03T16:44:40Z</time></trkpt><trkpt lat="41.943775680962155" lon="12.543315755116337"><ele>33.5</ele><time>2026-05-03T16:44:41Z</time></trkpt><trkpt lat="41.94377638620047" lon="12.543507159342676"><ele>33.25</ele><time>2026-05-03T16:44:42Z</time></trkpt><trkpt lat="41.94374252029705" lon="12.543716039907"><ele>33.0</ele><time>2026-05-03T16:44:43Z</time></trkpt><trkpt lat="41.943747276132825" lon="12.543932364145164"><ele>33.0</ele><time>2026-05-03T16:44:44Z</time></trkpt><trkpt lat="41.94375258468845" lon="12.544166247000776"><ele>33.0</ele><time>2026-05-03T16:44:45Z</time></trkpt><trkpt lat="41.943817831086115" lon="12.544405900241884"><ele>33.0</ele><time>2026-05-03T16:44:46Z</time></trkpt><trkpt lat="41.943828341660016" lon="12.5446713344583"><ele>33.666666666666664</ele><time>2026-05-03T16:44:47Z</time></trkpt><trkpt lat="41.94382975461615" lon="12.54494630124375"><ele>34.33333333333333</ele><time>2026-05-03T16:44:48Z</time></trkpt><trkpt lat="41.943840747711135" lon="12.545229994515052"><ele>35.0</ele><time>2026-05-03T16:44:49Z</time></trkpt><trkpt lat="41.943782083501794" lon="12.545502186158377"><ele>35.666666666666664</ele><time>2026-05-03T16:44:50Z</time></trkpt><trkpt lat="41.94378871819217" lon="12.545744626221568"><ele>36.333333333333336</ele><time>2026-05-03T16:44:51Z</time></trkpt><trkpt lat="41.94379507222458" lon="12.545953423714877"><ele>37.0</ele><time>2026-05-03T16:44:52Z</time></trkpt><trkpt lat="41.94380158528137" lon="12.546148526258106"><ele>38.0</ele><time>2026-05-03T16:44:53Z</time></trkpt><trkpt lat="41.943821314701275" lon="12.546329738296128"><ele>39.0</ele><time>2026-05-03T16:44:54Z</time></trkpt><trkpt lat="41.94380203160745" lon="12.546497287561936"><ele>40.0</ele><time>2026-05-03T16:44:55Z</time></trkpt><trkpt lat="41.94379135963349" lon="12.546645266443115"><ele>41.0</ele><time>2026-05-03T16:44:56Z</time></trkpt><trkpt lat="41.94379828291155" lon="12.546769874876567"><ele>41.0</ele><time>2026-05-03T16:44:57Z</time></trkpt><trkpt lat="41.94380117478782" lon="12.546890453351107"><ele>41.0</ele><time>2026-05-03T16:44:58Z</time></trkpt><trkpt lat="41.94380240850251" lon="12.546999410132555"><ele>41.0</ele><time>2026-05-03T16:44:59Z</time></trkpt><trkpt lat="41.9438061802746" lon="12.547092975359673"><ele>41.0</ele><time>2026-05-03T16:45:00Z</time></trkpt><trkpt lat="41.94381513191638" lon="12.547225647711773"><ele>41.0</ele><time>2026-05-03T16:45:02Z</time></trkpt><trkpt lat="41.9438294591723" lon="12.547315434833061"><ele>41.0</ele><time>2026-05-03T16:45:38.999Z</time></trkpt><trkpt lat="41.94383655885939" lon="12.547444172775343"><ele>41.5</ele><time>2026-05-03T16:45:42.999Z</time></trkpt><trkpt lat="41.94384052458898" lon="12.547538859376443"><ele>42.0</ele><time>2026-05-03T16:45:43.999Z</time></trkpt><trkpt lat="41.94384480198432" lon="12.547645696679517"><ele>42.5</ele><time>2026-05-03T16:45:44.999Z</time></trkpt><trkpt lat="41.94385248681056" lon="12.547750431864268"><ele>43.0</ele><time>2026-05-03T16:45:45.999Z</time></trkpt><trkpt lat="41.94383742786982" lon="12.547850207891209"><ele>43.5</ele><time>2026-05-03T16:45:46.999Z</time></trkpt><trkpt lat="41.94383777144986" lon="12.547954199983906"><ele>44.0</ele><time>2026-05-03T16:45:47.999Z</time></trkpt><trkpt lat="41.94383851819673" lon="12.548049668517137"><ele>44.285714285714285</ele><time>2026-05-03T16:45:48.999Z</time></trkpt><trkpt lat="41.943839842856526" lon="12.548146037625482"><ele>44.57142857142857</ele><time>2026-05-03T16:45:49.999Z</time></trkpt><trkpt lat="41.943849241630765" lon="12.54825072408945"><ele>44.85714285714286</ele><time>2026-05-03T16:45:50.999Z</time></trkpt><trkpt lat="41.94385130262279" lon="12.548354627333707"><ele>45.14285714285714</ele><time>2026-05-03T16:45:51.999Z</time></trkpt><trkpt lat="41.94385529634113" lon="12.548452026761904"><ele>45.42857142857142</ele><time>2026-05-03T16:45:52.999Z</time></trkpt><trkpt lat="41.943845874484055" lon="12.548546581886308"><ele>45.714285714285715</ele><time>2026-05-03T16:45:53.999Z</time></trkpt><trkpt lat="41.94385126652356" lon="12.548640028478037"><ele>46.0</ele><time>2026-05-03T16:45:54.999Z</time></trkpt><trkpt lat="41.94385346709912" lon="12.548731731419526"><ele>46.16666666666667</ele><time>2026-05-03T16:45:55.999Z</time></trkpt><trkpt lat="41.94386369410232" lon="12.548824013791396"><ele>46.333333333333336</ele><time>2026-05-03T16:45:56.999Z</time></trkpt><trkpt lat="41.943886931300696" lon="12.548986295462667"><ele>46.5</ele><time>2026-05-03T16:45:58.999Z</time></trkpt><trkpt lat="41.94389284594571" lon="12.5490724354101"><ele>46.666666666666664</ele><time>2026-05-03T16:45:59.999Z</time></trkpt><trkpt lat="41.94390173476959" lon="12.549166788259303"><ele>46.83333333333333</ele><time>2026-05-03T16:46:00.999Z</time></trkpt><trkpt lat="41.94391435866334" lon="12.549257319337311"><ele>47.0</ele><time>2026-05-03T16:46:01.999Z</time></trkpt><trkpt lat="41.94391910624721" lon="12.549365576956447"><ele>47.0</ele><time>2026-05-03T16:46:02.999Z</time></trkpt><trkpt lat="41.94393542166177" lon="12.54947149244353"><ele>47.0</ele><time>2026-05-03T16:46:03.999Z</time></trkpt><trkpt lat="41.94395520118895" lon="12.549584850378363"><ele>47.0</ele><time>2026-05-03T16:46:04.999Z</time></trkpt><trkpt lat="41.94397095461929" lon="12.549697618268711"><ele>47.0</ele><time>2026-05-03T16:46:05.999Z</time></trkpt><trkpt lat="41.94398492297496" lon="12.549816782140722"><ele>47.0</ele><time>2026-05-03T16:46:06.999Z</time></trkpt><trkpt lat="41.9440010197976" lon="12.549944701416035"><ele>47.0</ele><time>2026-05-03T16:46:07.999Z</time></trkpt><trkpt lat="41.94402150437869" lon="12.550071299743786"><ele>46.166666666666664</ele><time>2026-05-03T16:46:08.999Z</time></trkpt><trkpt lat="41.94405011090584" lon="12.550197843414976"><ele>45.33333333333333</ele><time>2026-05-03T16:46:09.999Z</time></trkpt><trkpt lat="41.94408101970136" lon="12.550325489660686"><ele>44.5</ele><time>2026-05-03T16:46:10.999Z</time></trkpt><trkpt lat="41.94410544669845" lon="12.550431554931988"><ele>43.666666666666664</ele><time>2026-05-03T16:46:11.999Z</time></trkpt><trkpt lat="41.94413102043901" lon="12.550526321153908"><ele>42.833333333333336</ele><time>2026-05-03T16:46:12.999Z</time></trkpt><trkpt lat="41.94415255402183" lon="12.550624078954922"><ele>42.0</ele><time>2026-05-03T16:46:13.999Z</time></trkpt><trkpt lat="41.9441743873619" lon="12.55072884315575"><ele>41.2</ele><time>2026-05-03T16:46:14.999Z</time></trkpt><trkpt lat="41.94420085852595" lon="12.550843970889945"><ele>40.400000000000006</ele><time>2026-05-03T16:46:15.999Z</time></trkpt><trkpt lat="41.94423374380617" lon="12.550958695086697"><ele>39.599999999999994</ele><time>2026-05-03T16:46:16.999Z</time></trkpt><trkpt lat="41.94426711572504" lon="12.551078553531879"><ele>38.8</ele><time>2026-05-03T16:46:17.999Z</time></trkpt><trkpt lat="41.94430011673849" lon="12.55120461812564"><ele>38.0</ele><time>2026-05-03T16:46:18.999Z</time></trkpt><trkpt lat="41.94433304231987" lon="12.551316866894506"><ele>37.166666666666664</ele><time>2026-05-03T16:46:19.999Z</time></trkpt><trkpt lat="41.94436537632379" lon="12.551423775197625"><ele>36.33333333333333</ele><time>2026-05-03T16:46:20.998Z</time></trkpt><trkpt lat="41.94439739861972" lon="12.551530390994266"><ele>35.5</ele><time>2026-05-03T16:46:21.998Z</time></trkpt><trkpt lat="41.94443103220538" lon="12.551639940064124"><ele>34.666666666666664</ele><time>2026-05-03T16:46:22.998Z</time></trkpt><trkpt lat="41.94446504452002" lon="12.55174808714207"><ele>33.833333333333336</ele><time>2026-05-03T16:46:23.998Z</time></trkpt><trkpt lat="41.94450604912423" lon="12.55185639210488"><ele>33.0</ele><time>2026-05-03T16:46:24.998Z</time></trkpt><trkpt lat="41.94454448123831" lon="12.551966487990443"><ele>32.199999999999996</ele><time>2026-05-03T16:46:25.998Z</time></trkpt><trkpt lat="41.944583334044594" lon="12.55207985336275"><ele>31.4</ele><time>2026-05-03T16:46:26.998Z</time></trkpt><trkpt lat="41.94462344980175" lon="12.552197271531776"><ele>30.599999999999998</ele><time>2026-05-03T16:46:27.998Z</time></trkpt><trkpt lat="41.944661760946296" lon="12.552310715323493"><ele>29.799999999999997</ele><time>2026-05-03T16:46:28.998Z</time></trkpt><trkpt lat="41.94471764116413" lon="12.552402485659385"><ele>29.0</ele><time>2026-05-03T16:46:29.998Z</time></trkpt><trkpt lat="41.9447699250275" lon="12.552491981299683"><ele>28.999999999999996</ele><time>2026-05-03T16:46:30.998Z</time></trkpt><trkpt lat="41.94482061922509" lon="12.55258407126806"><ele>29.0</ele><time>2026-05-03T16:46:31.998Z</time></trkpt><trkpt lat="41.944873735276495" lon="12.552680800942442"><ele>29.0</ele><time>2026-05-03T16:46:33Z</time></trkpt><trkpt lat="41.94492824216177" lon="12.55276961022021"><ele>29.0</ele><time>2026-05-03T16:46:34Z</time></trkpt><trkpt lat="41.944980876859404" lon="12.552856639916872"><ele>28.999999999999996</ele><time>2026-05-03T16:46:35Z</time></trkpt><trkpt lat="41.94503624949205" lon="12.552939994735508"><ele>29.0</ele><time>2026-05-03T16:46:36Z</time></trkpt><trkpt lat="41.945092825282316" lon="12.553022783571496"><ele>29.42857142857143</ele><time>2026-05-03T16:46:37Z</time></trkpt><trkpt lat="41.945150490082774" lon="12.553105406840517"><ele>29.857142857142858</ele><time>2026-05-03T16:46:38Z</time></trkpt><trkpt lat="41.9452015133635" lon="12.553175018366145"><ele>30.285714285714285</ele><time>2026-05-03T16:46:39Z</time></trkpt><trkpt lat="41.94525474293632" lon="12.553247602762388"><ele>30.714285714285715</ele><time>2026-05-03T16:46:40Z</time></trkpt><trkpt lat="41.94530421732016" lon="12.553306831828104"><ele>31.14285714285714</ele><time>2026-05-03T16:46:41Z</time></trkpt><trkpt lat="41.945358334967906" lon="12.553370877920747"><ele>31.57142857142857</ele><time>2026-05-03T16:46:42Z</time></trkpt><trkpt lat="41.945401237451705" lon="12.553444084799063"><ele>32.0</ele><time>2026-05-03T16:46:43Z</time></trkpt><trkpt lat="41.945456189810585" lon="12.553504797696183"><ele>31.999999999999996</ele><time>2026-05-03T16:46:44Z</time></trkpt><trkpt lat="41.94551394111232" lon="12.553563871730846"><ele>32.0</ele><time>2026-05-03T16:46:45Z</time></trkpt><trkpt lat="41.94557219246433" lon="12.553627192342242"><ele>32.0</ele><time>2026-05-03T16:46:46Z</time></trkpt><trkpt lat="41.94563043440792" lon="12.553690299577767"><ele>32.0</ele><time>2026-05-03T16:46:47Z</time></trkpt><trkpt lat="41.945688149473476" lon="12.553747747336633"><ele>31.999999999999996</ele><time>2026-05-03T16:46:48Z</time></trkpt><trkpt lat="41.94574190501455" lon="12.553793300805962"><ele>32.0</ele><time>2026-05-03T16:46:49Z</time></trkpt><trkpt lat="41.94582431630757" lon="12.553883761047915"><ele>31.200000000000003</ele><time>2026-05-03T16:46:51Z</time></trkpt><trkpt lat="41.945884230352576" lon="12.553916432695948"><ele>30.400000000000002</ele><time>2026-05-03T16:46:53Z</time></trkpt><trkpt lat="41.94575428186988" lon="12.55409703584313"><ele>29.599999999999998</ele><time>2026-05-03T16:46:55Z</time></trkpt><trkpt lat="41.945691457890966" lon="12.55417660310888"><ele>28.799999999999997</ele><time>2026-05-03T16:46:56Z</time></trkpt><trkpt lat="41.94564012326639" lon="12.55424161920051"><ele>28.0</ele><time>2026-05-03T16:46:57Z</time></trkpt><trkpt lat="41.945598694099154" lon="12.554313724165672"><ele>29.666666666666668</ele><time>2026-05-03T16:46:58Z</time></trkpt><trkpt lat="41.94551817804269" lon="12.554424389165051"><ele>31.333333333333336</ele><time>2026-05-03T16:47:00Z</time></trkpt><trkpt lat="41.94546225038616" lon="12.554472857498721"><ele>33.0</ele><time>2026-05-03T16:47:01Z</time></trkpt><trkpt lat="41.94540862652472" lon="12.554545909118682"><ele>34.666666666666664</ele><time>2026-05-03T16:47:02Z</time></trkpt><trkpt lat="41.94535779652938" lon="12.554621067495118"><ele>36.33333333333333</ele><time>2026-05-03T16:47:03Z</time></trkpt><trkpt lat="41.94531795552343" lon="12.554688591040359"><ele>38.0</ele><time>2026-05-03T16:47:04Z</time></trkpt><trkpt lat="41.94528119722744" lon="12.554760506853054"><ele>38.0</ele><time>2026-05-03T16:47:05Z</time></trkpt><trkpt lat="41.94522669272849" lon="12.554881318506792"><ele>38.0</ele><time>2026-05-03T16:47:07Z</time></trkpt><trkpt lat="41.945186047191164" lon="12.554980500606083"><ele>38.0</ele><time>2026-05-03T16:47:09Z</time></trkpt><trkpt lat="41.94531477039475" lon="12.555101221069263"><ele>38.0</ele><time>2026-05-03T16:47:10Z</time></trkpt><trkpt lat="41.94537416254944" lon="12.555142218735408"><ele>38.0</ele><time>2026-05-03T16:47:11Z</time></trkpt><trkpt lat="41.945429466360245" lon="12.555207002308908"><ele>38.0</ele><time>2026-05-03T16:47:12Z</time></trkpt><trkpt lat="41.9454971671909" lon="12.555264952374422"><ele>38.0</ele><time>2026-05-03T16:47:13Z</time></trkpt><trkpt lat="41.945574458565574" lon="12.555314158789391"><ele>38.0</ele><time>2026-05-03T16:47:14Z</time></trkpt><trkpt lat="41.94565221922406" lon="12.555385398958741"><ele>38.0</ele><time>2026-05-03T16:47:15Z</time></trkpt><trkpt lat="41.9457288459719" lon="12.555459086281763"><ele>38.0</ele><time>2026-05-03T16:47:16Z</time></trkpt><trkpt lat="41.94579914013791" lon="12.555526828308285"><ele>38.0</ele><time>2026-05-03T16:47:17Z</time></trkpt><trkpt lat="41.9458741769009" lon="12.55558764547787"><ele>38.199999999999996</ele><time>2026-05-03T16:47:18Z</time></trkpt><trkpt lat="41.945930949074445" lon="12.555635940947814"><ele>38.4</ele><time>2026-05-03T16:47:19Z</time></trkpt><trkpt lat="41.94602724087957" lon="12.555698503468475"><ele>38.599999999999994</ele><time>2026-05-03T16:47:20.999Z</time></trkpt><trkpt lat="41.94607335966684" lon="12.555786685351675"><ele>38.8</ele><time>2026-05-03T16:47:23.999Z</time></trkpt><trkpt lat="41.94603799503968" lon="12.555909598206496"><ele>39.0</ele><time>2026-05-03T16:47:26.999Z</time></trkpt><trkpt lat="41.945978591659035" lon="12.556031699041377"><ele>39.0</ele><time>2026-05-03T16:47:28.999Z</time></trkpt><trkpt lat="41.94595134561397" lon="12.556200883274904"><ele>39.0</ele><time>2026-05-03T16:47:30.999Z</time></trkpt><trkpt lat="41.94592921712335" lon="12.556299893222436"><ele>39.0</ele><time>2026-05-03T16:47:31.999Z</time></trkpt><trkpt lat="41.9459048375209" lon="12.55639092136167"><ele>39.0</ele><time>2026-05-03T16:47:32.999Z</time></trkpt><trkpt lat="41.94587352958505" lon="12.556475995680826"><ele>39.0</ele><time>2026-05-03T16:47:33.999Z</time></trkpt><trkpt lat="41.945845085598414" lon="12.556570610365066"><ele>39.0</ele><time>2026-05-03T16:47:34.999Z</time></trkpt><trkpt lat="41.945823381674565" lon="12.556664446309796"><ele>40.142857142857146</ele><time>2026-05-03T16:47:35.999Z</time></trkpt><trkpt lat="41.94580432761495" lon="12.55676247326426"><ele>41.285714285714285</ele><time>2026-05-03T16:47:36.999Z</time></trkpt><trkpt lat="41.94579642678494" lon="12.556855230152141"><ele>42.42857142857143</ele><time>2026-05-03T16:47:37.999Z</time></trkpt><trkpt lat="41.94577876838146" lon="12.556947022822724"><ele>43.57142857142857</ele><time>2026-05-03T16:47:38.999Z</time></trkpt><trkpt lat="41.9457629193937" lon="12.55704079273629"><ele>44.71428571428571</ele><time>2026-05-03T16:47:39.999Z</time></trkpt><trkpt lat="41.9457522466901" lon="12.557138669753446"><ele>45.857142857142854</ele><time>2026-05-03T16:47:40.999Z</time></trkpt><trkpt lat="41.9457326942698" lon="12.55724051724761"><ele>47.0</ele><time>2026-05-03T16:47:41.999Z</time></trkpt><trkpt lat="41.9457156119987" lon="12.557339105230051"><ele>47.0</ele><time>2026-05-03T16:47:42.999Z</time></trkpt><trkpt lat="41.94570185482143" lon="12.557438916390312"><ele>47.0</ele><time>2026-05-03T16:47:43.999Z</time></trkpt><trkpt lat="41.94568872142393" lon="12.557533079739606"><ele>47.0</ele><time>2026-05-03T16:47:44.999Z</time></trkpt><trkpt lat="41.94567339450497" lon="12.557624212364866"><ele>47.0</ele><time>2026-05-03T16:47:45.999Z</time></trkpt><trkpt lat="41.94565550254229" lon="12.557706004439812"><ele>47.0</ele><time>2026-05-03T16:47:46.999Z</time></trkpt><trkpt lat="41.94562704135581" lon="12.55784627495565"><ele>47.0</ele><time>2026-05-03T16:47:48.999Z</time></trkpt><trkpt lat="41.94560736005941" lon="12.557985875761124"><ele>47.5</ele><time>2026-05-03T16:47:50.999Z</time></trkpt><trkpt lat="41.945582379036104" lon="12.558133482348707"><ele>48.0</ele><time>2026-05-03T16:47:52.999Z</time></trkpt><trkpt lat="41.945547580606686" lon="12.558217351132933"><ele>48.5</ele><time>2026-05-03T16:47:53.999Z</time></trkpt><trkpt lat="41.94552968930877" lon="12.558306124408192"><ele>49.0</ele><time>2026-05-03T16:47:54.999Z</time></trkpt><trkpt lat="41.94551210761138" lon="12.558398779786293"><ele>49.50000000000001</ele><time>2026-05-03T16:47:55.999Z</time></trkpt><trkpt lat="41.9454858307936" lon="12.55848695524724"><ele>50.0</ele><time>2026-05-03T16:47:56.999Z</time></trkpt><trkpt lat="41.945447726455086" lon="12.558579537411072"><ele>50.0</ele><time>2026-05-03T16:47:57.999Z</time></trkpt><trkpt lat="41.94542732302834" lon="12.558664603243315"><ele>50.0</ele><time>2026-05-03T16:47:58.999Z</time></trkpt><trkpt lat="41.94540062486156" lon="12.558745832430931"><ele>50.0</ele><time>2026-05-03T16:47:59.999Z</time></trkpt><trkpt lat="41.94536240505509" lon="12.558814679995471"><ele>50.0</ele><time>2026-05-03T16:48:00.999Z</time></trkpt><trkpt lat="41.945287302070554" lon="12.5589077534094"><ele>50.0</ele><time>2026-05-03T16:48:02.999Z</time></trkpt><trkpt lat="41.94522686094656" lon="12.558976339981532"><ele>50.0</ele><time>2026-05-03T16:48:04.999Z</time></trkpt><trkpt lat="41.945176029425475" lon="12.55902987828485"><ele>50.0</ele><time>2026-05-03T16:48:06.999Z</time></trkpt></trkseg></trk></gpx>